<?xml version="1.0" encoding="UTF-8" standalone="no" ?>
<gpx xmlns="http://www.topografix.com/GPX/1/1" xmlns:xsi="http://www.w3.org/2001/XMLSchema-instance" xsi:schemaLocation="http://www.topografix.com/GPX/1/1 http://www.topografix.com/GPX/1/1/gpx.xsd" version="1.1" creator="VisuGPX - https://www.visugpx.com">
  <metadata>
    <name>NE-O-Indre Sautron Treillières Sucé St Mars Le Cellier Nantes</name>
    <desc><![CDATA[NE-O-Indre Sautron Treillières Sucé St Mars Le Cellier Nantes]]></desc>
  </metadata>
  <trk>
    <name><![CDATA[2021-10-09 11:33 +02:00]]></name>
    <trkseg>
      <trkpt lat="47.16787" lon="-1.62644">
        <ele>68</ele>
        <time>2021-10-09T09:33:48.000Z</time>
      </trkpt>
      <trkpt lat="47.1678" lon="-1.62647">
        <ele>70</ele>
        <time>2021-10-09T09:35:49.000Z</time>
      </trkpt>
      <trkpt lat="47.16776" lon="-1.62647">
        <ele>67</ele>
        <time>2021-10-09T09:37:50.000Z</time>
      </trkpt>
      <trkpt lat="47.16781" lon="-1.62663">
        <ele>74</ele>
        <time>2021-10-09T09:38:14.000Z</time>
      </trkpt>
      <trkpt lat="47.16772" lon="-1.62675">
        <ele>75</ele>
        <time>2021-10-09T09:38:17.000Z</time>
      </trkpt>
      <trkpt lat="47.16762" lon="-1.62675">
        <ele>74</ele>
        <time>2021-10-09T09:38:19.000Z</time>
      </trkpt>
      <trkpt lat="47.16752" lon="-1.62673">
        <ele>73</ele>
        <time>2021-10-09T09:38:21.000Z</time>
      </trkpt>
      <trkpt lat="47.16742" lon="-1.62679">
        <ele>73</ele>
        <time>2021-10-09T09:38:23.000Z</time>
      </trkpt>
      <trkpt lat="47.1673" lon="-1.62686">
        <ele>73</ele>
        <time>2021-10-09T09:38:25.000Z</time>
      </trkpt>
      <trkpt lat="47.1672" lon="-1.62694">
        <ele>73</ele>
        <time>2021-10-09T09:38:27.000Z</time>
      </trkpt>
      <trkpt lat="47.16719" lon="-1.62708">
        <ele>72</ele>
        <time>2021-10-09T09:38:29.000Z</time>
      </trkpt>
      <trkpt lat="47.16726" lon="-1.62722">
        <ele>72</ele>
        <time>2021-10-09T09:38:31.000Z</time>
      </trkpt>
      <trkpt lat="47.16734" lon="-1.62737">
        <ele>72</ele>
        <time>2021-10-09T09:38:33.000Z</time>
      </trkpt>
      <trkpt lat="47.16743" lon="-1.6275">
        <ele>72</ele>
        <time>2021-10-09T09:38:35.000Z</time>
      </trkpt>
      <trkpt lat="47.16752" lon="-1.62761">
        <ele>73</ele>
        <time>2021-10-09T09:38:37.000Z</time>
      </trkpt>
      <trkpt lat="47.16763" lon="-1.62773">
        <ele>72</ele>
        <time>2021-10-09T09:38:39.000Z</time>
      </trkpt>
      <trkpt lat="47.16774" lon="-1.62783">
        <ele>72</ele>
        <time>2021-10-09T09:38:41.000Z</time>
      </trkpt>
      <trkpt lat="47.16786" lon="-1.62793">
        <ele>73</ele>
        <time>2021-10-09T09:38:43.000Z</time>
      </trkpt>
      <trkpt lat="47.16798" lon="-1.62803">
        <ele>73</ele>
        <time>2021-10-09T09:38:45.000Z</time>
      </trkpt>
      <trkpt lat="47.16809" lon="-1.62813">
        <ele>73</ele>
        <time>2021-10-09T09:38:47.000Z</time>
      </trkpt>
      <trkpt lat="47.1682" lon="-1.62823">
        <ele>73</ele>
        <time>2021-10-09T09:38:49.000Z</time>
      </trkpt>
      <trkpt lat="47.1683" lon="-1.62834">
        <ele>73</ele>
        <time>2021-10-09T09:38:51.000Z</time>
      </trkpt>
      <trkpt lat="47.16841" lon="-1.62843">
        <ele>73</ele>
        <time>2021-10-09T09:38:53.000Z</time>
      </trkpt>
      <trkpt lat="47.16851" lon="-1.62853">
        <ele>74</ele>
        <time>2021-10-09T09:38:55.000Z</time>
      </trkpt>
      <trkpt lat="47.16861" lon="-1.62864">
        <ele>74</ele>
        <time>2021-10-09T09:38:57.000Z</time>
      </trkpt>
      <trkpt lat="47.1687" lon="-1.62875">
        <ele>75</ele>
        <time>2021-10-09T09:38:59.000Z</time>
      </trkpt>
      <trkpt lat="47.16879" lon="-1.62889">
        <ele>75</ele>
        <time>2021-10-09T09:39:01.000Z</time>
      </trkpt>
      <trkpt lat="47.16885" lon="-1.62904">
        <ele>75</ele>
        <time>2021-10-09T09:39:03.000Z</time>
      </trkpt>
      <trkpt lat="47.16889" lon="-1.62921">
        <ele>75</ele>
        <time>2021-10-09T09:39:05.000Z</time>
      </trkpt>
      <trkpt lat="47.16891" lon="-1.6294">
        <ele>75</ele>
        <time>2021-10-09T09:39:07.000Z</time>
      </trkpt>
      <trkpt lat="47.16892" lon="-1.62958">
        <ele>75</ele>
        <time>2021-10-09T09:39:09.000Z</time>
      </trkpt>
      <trkpt lat="47.16892" lon="-1.62978">
        <ele>75</ele>
        <time>2021-10-09T09:39:11.000Z</time>
      </trkpt>
      <trkpt lat="47.1689" lon="-1.62997">
        <ele>75</ele>
        <time>2021-10-09T09:39:13.000Z</time>
      </trkpt>
      <trkpt lat="47.16888" lon="-1.63016">
        <ele>75</ele>
        <time>2021-10-09T09:39:15.000Z</time>
      </trkpt>
      <trkpt lat="47.16888" lon="-1.63035">
        <ele>75</ele>
        <time>2021-10-09T09:39:17.000Z</time>
      </trkpt>
      <trkpt lat="47.16888" lon="-1.63053">
        <ele>76</ele>
        <time>2021-10-09T09:39:19.000Z</time>
      </trkpt>
      <trkpt lat="47.16889" lon="-1.63072">
        <ele>76</ele>
        <time>2021-10-09T09:39:21.000Z</time>
      </trkpt>
      <trkpt lat="47.16892" lon="-1.6309">
        <ele>76</ele>
        <time>2021-10-09T09:39:23.000Z</time>
      </trkpt>
      <trkpt lat="47.16896" lon="-1.63108">
        <ele>76</ele>
        <time>2021-10-09T09:39:25.000Z</time>
      </trkpt>
      <trkpt lat="47.169" lon="-1.63125">
        <ele>76</ele>
        <time>2021-10-09T09:39:27.000Z</time>
      </trkpt>
      <trkpt lat="47.16905" lon="-1.63142">
        <ele>76</ele>
        <time>2021-10-09T09:39:29.000Z</time>
      </trkpt>
      <trkpt lat="47.16911" lon="-1.63158">
        <ele>76</ele>
        <time>2021-10-09T09:39:31.000Z</time>
      </trkpt>
      <trkpt lat="47.16917" lon="-1.63174">
        <ele>76</ele>
        <time>2021-10-09T09:39:33.000Z</time>
      </trkpt>
      <trkpt lat="47.16925" lon="-1.63188">
        <ele>76</ele>
        <time>2021-10-09T09:39:35.000Z</time>
      </trkpt>
      <trkpt lat="47.16932" lon="-1.63202">
        <ele>77</ele>
        <time>2021-10-09T09:39:37.000Z</time>
      </trkpt>
      <trkpt lat="47.16941" lon="-1.63214">
        <ele>77</ele>
        <time>2021-10-09T09:39:39.000Z</time>
      </trkpt>
      <trkpt lat="47.16949" lon="-1.63224">
        <ele>78</ele>
        <time>2021-10-09T09:39:41.000Z</time>
      </trkpt>
      <trkpt lat="47.16957" lon="-1.63235">
        <ele>78</ele>
        <time>2021-10-09T09:39:43.000Z</time>
      </trkpt>
      <trkpt lat="47.16964" lon="-1.63245">
        <ele>78</ele>
        <time>2021-10-09T09:39:45.000Z</time>
      </trkpt>
      <trkpt lat="47.16968" lon="-1.6326">
        <ele>78</ele>
        <time>2021-10-09T09:39:48.000Z</time>
      </trkpt>
      <trkpt lat="47.16961" lon="-1.63271">
        <ele>78</ele>
        <time>2021-10-09T09:39:50.000Z</time>
      </trkpt>
      <trkpt lat="47.16953" lon="-1.63282">
        <ele>78</ele>
        <time>2021-10-09T09:39:52.000Z</time>
      </trkpt>
      <trkpt lat="47.16945" lon="-1.63296">
        <ele>78</ele>
        <time>2021-10-09T09:39:54.000Z</time>
      </trkpt>
      <trkpt lat="47.16936" lon="-1.63312">
        <ele>78</ele>
        <time>2021-10-09T09:39:56.000Z</time>
      </trkpt>
      <trkpt lat="47.16927" lon="-1.63326">
        <ele>78</ele>
        <time>2021-10-09T09:39:58.000Z</time>
      </trkpt>
      <trkpt lat="47.16917" lon="-1.63341">
        <ele>78</ele>
        <time>2021-10-09T09:40:00.000Z</time>
      </trkpt>
      <trkpt lat="47.16908" lon="-1.63355">
        <ele>78</ele>
        <time>2021-10-09T09:40:02.000Z</time>
      </trkpt>
      <trkpt lat="47.16899" lon="-1.63368">
        <ele>78</ele>
        <time>2021-10-09T09:40:04.000Z</time>
      </trkpt>
      <trkpt lat="47.16889" lon="-1.63382">
        <ele>78</ele>
        <time>2021-10-09T09:40:06.000Z</time>
      </trkpt>
      <trkpt lat="47.1688" lon="-1.63397">
        <ele>78</ele>
        <time>2021-10-09T09:40:08.000Z</time>
      </trkpt>
      <trkpt lat="47.16872" lon="-1.63412">
        <ele>78</ele>
        <time>2021-10-09T09:40:10.000Z</time>
      </trkpt>
      <trkpt lat="47.16863" lon="-1.63426">
        <ele>78</ele>
        <time>2021-10-09T09:40:12.000Z</time>
      </trkpt>
      <trkpt lat="47.16855" lon="-1.63441">
        <ele>78</ele>
        <time>2021-10-09T09:40:14.000Z</time>
      </trkpt>
      <trkpt lat="47.16846" lon="-1.63457">
        <ele>78</ele>
        <time>2021-10-09T09:40:16.000Z</time>
      </trkpt>
      <trkpt lat="47.16837" lon="-1.63472">
        <ele>78</ele>
        <time>2021-10-09T09:40:18.000Z</time>
      </trkpt>
      <trkpt lat="47.16828" lon="-1.63487">
        <ele>78</ele>
        <time>2021-10-09T09:40:20.000Z</time>
      </trkpt>
      <trkpt lat="47.16819" lon="-1.63502">
        <ele>78</ele>
        <time>2021-10-09T09:40:22.000Z</time>
      </trkpt>
      <trkpt lat="47.1681" lon="-1.63517">
        <ele>78</ele>
        <time>2021-10-09T09:40:24.000Z</time>
      </trkpt>
      <trkpt lat="47.16801" lon="-1.63533">
        <ele>78</ele>
        <time>2021-10-09T09:40:26.000Z</time>
      </trkpt>
      <trkpt lat="47.16792" lon="-1.63548">
        <ele>78</ele>
        <time>2021-10-09T09:40:28.000Z</time>
      </trkpt>
      <trkpt lat="47.16783" lon="-1.63563">
        <ele>78</ele>
        <time>2021-10-09T09:40:30.000Z</time>
      </trkpt>
      <trkpt lat="47.16774" lon="-1.63578">
        <ele>78</ele>
        <time>2021-10-09T09:40:32.000Z</time>
      </trkpt>
      <trkpt lat="47.16766" lon="-1.63592">
        <ele>78</ele>
        <time>2021-10-09T09:40:34.000Z</time>
      </trkpt>
      <trkpt lat="47.16757" lon="-1.63606">
        <ele>78</ele>
        <time>2021-10-09T09:40:36.000Z</time>
      </trkpt>
      <trkpt lat="47.16749" lon="-1.63619">
        <ele>78</ele>
        <time>2021-10-09T09:40:38.000Z</time>
      </trkpt>
      <trkpt lat="47.16744" lon="-1.63632">
        <ele>78</ele>
        <time>2021-10-09T09:40:40.000Z</time>
      </trkpt>
      <trkpt lat="47.16744" lon="-1.63646">
        <ele>78</ele>
        <time>2021-10-09T09:40:42.000Z</time>
      </trkpt>
      <trkpt lat="47.16755" lon="-1.63651">
        <ele>78</ele>
        <time>2021-10-09T09:40:44.000Z</time>
      </trkpt>
      <trkpt lat="47.16769" lon="-1.63654">
        <ele>78</ele>
        <time>2021-10-09T09:40:46.000Z</time>
      </trkpt>
      <trkpt lat="47.16783" lon="-1.63656">
        <ele>78</ele>
        <time>2021-10-09T09:40:48.000Z</time>
      </trkpt>
      <trkpt lat="47.16797" lon="-1.63661">
        <ele>79</ele>
        <time>2021-10-09T09:40:50.000Z</time>
      </trkpt>
      <trkpt lat="47.1681" lon="-1.63666">
        <ele>79</ele>
        <time>2021-10-09T09:40:52.000Z</time>
      </trkpt>
      <trkpt lat="47.16824" lon="-1.63672">
        <ele>78</ele>
        <time>2021-10-09T09:40:54.000Z</time>
      </trkpt>
      <trkpt lat="47.16838" lon="-1.63677">
        <ele>78</ele>
        <time>2021-10-09T09:40:56.000Z</time>
      </trkpt>
      <trkpt lat="47.16851" lon="-1.63682">
        <ele>79</ele>
        <time>2021-10-09T09:40:58.000Z</time>
      </trkpt>
      <trkpt lat="47.16865" lon="-1.63687">
        <ele>79</ele>
        <time>2021-10-09T09:41:00.000Z</time>
      </trkpt>
      <trkpt lat="47.16879" lon="-1.63693">
        <ele>79</ele>
        <time>2021-10-09T09:41:02.000Z</time>
      </trkpt>
      <trkpt lat="47.16892" lon="-1.63697">
        <ele>79</ele>
        <time>2021-10-09T09:41:04.000Z</time>
      </trkpt>
      <trkpt lat="47.16906" lon="-1.63703">
        <ele>78</ele>
        <time>2021-10-09T09:41:06.000Z</time>
      </trkpt>
      <trkpt lat="47.16921" lon="-1.63708">
        <ele>78</ele>
        <time>2021-10-09T09:41:08.000Z</time>
      </trkpt>
      <trkpt lat="47.16935" lon="-1.63713">
        <ele>78</ele>
        <time>2021-10-09T09:41:10.000Z</time>
      </trkpt>
      <trkpt lat="47.1695" lon="-1.63718">
        <ele>78</ele>
        <time>2021-10-09T09:41:12.000Z</time>
      </trkpt>
      <trkpt lat="47.16964" lon="-1.63723">
        <ele>78</ele>
        <time>2021-10-09T09:41:14.000Z</time>
      </trkpt>
      <trkpt lat="47.16978" lon="-1.63728">
        <ele>78</ele>
        <time>2021-10-09T09:41:16.000Z</time>
      </trkpt>
      <trkpt lat="47.16992" lon="-1.63733">
        <ele>78</ele>
        <time>2021-10-09T09:41:18.000Z</time>
      </trkpt>
      <trkpt lat="47.17006" lon="-1.63738">
        <ele>78</ele>
        <time>2021-10-09T09:41:20.000Z</time>
      </trkpt>
      <trkpt lat="47.17019" lon="-1.63743">
        <ele>78</ele>
        <time>2021-10-09T09:41:22.000Z</time>
      </trkpt>
      <trkpt lat="47.17032" lon="-1.63749">
        <ele>78</ele>
        <time>2021-10-09T09:41:24.000Z</time>
      </trkpt>
      <trkpt lat="47.17046" lon="-1.63756">
        <ele>78</ele>
        <time>2021-10-09T09:41:26.000Z</time>
      </trkpt>
      <trkpt lat="47.17057" lon="-1.63767">
        <ele>78</ele>
        <time>2021-10-09T09:41:28.000Z</time>
      </trkpt>
      <trkpt lat="47.17066" lon="-1.63782">
        <ele>78</ele>
        <time>2021-10-09T09:41:30.000Z</time>
      </trkpt>
      <trkpt lat="47.17072" lon="-1.638">
        <ele>79</ele>
        <time>2021-10-09T09:41:32.000Z</time>
      </trkpt>
      <trkpt lat="47.17078" lon="-1.63818">
        <ele>79</ele>
        <time>2021-10-09T09:41:34.000Z</time>
      </trkpt>
      <trkpt lat="47.17084" lon="-1.63836">
        <ele>79</ele>
        <time>2021-10-09T09:41:36.000Z</time>
      </trkpt>
      <trkpt lat="47.17091" lon="-1.63855">
        <ele>79</ele>
        <time>2021-10-09T09:41:38.000Z</time>
      </trkpt>
      <trkpt lat="47.17097" lon="-1.63875">
        <ele>79</ele>
        <time>2021-10-09T09:41:40.000Z</time>
      </trkpt>
      <trkpt lat="47.17103" lon="-1.63893">
        <ele>79</ele>
        <time>2021-10-09T09:41:42.000Z</time>
      </trkpt>
      <trkpt lat="47.1711" lon="-1.6391">
        <ele>79</ele>
        <time>2021-10-09T09:41:44.000Z</time>
      </trkpt>
      <trkpt lat="47.17117" lon="-1.63927">
        <ele>78</ele>
        <time>2021-10-09T09:41:46.000Z</time>
      </trkpt>
      <trkpt lat="47.17125" lon="-1.63939">
        <ele>79</ele>
        <time>2021-10-09T09:41:48.000Z</time>
      </trkpt>
      <trkpt lat="47.17134" lon="-1.63945">
        <ele>78</ele>
        <time>2021-10-09T09:41:51.000Z</time>
      </trkpt>
      <trkpt lat="47.17137" lon="-1.63963">
        <ele>80</ele>
        <time>2021-10-09T09:41:57.000Z</time>
      </trkpt>
      <trkpt lat="47.17139" lon="-1.63981">
        <ele>80</ele>
        <time>2021-10-09T09:41:59.000Z</time>
      </trkpt>
      <trkpt lat="47.17138" lon="-1.64002">
        <ele>80</ele>
        <time>2021-10-09T09:42:01.000Z</time>
      </trkpt>
      <trkpt lat="47.17135" lon="-1.64024">
        <ele>79</ele>
        <time>2021-10-09T09:42:03.000Z</time>
      </trkpt>
      <trkpt lat="47.17133" lon="-1.64046">
        <ele>79</ele>
        <time>2021-10-09T09:42:05.000Z</time>
      </trkpt>
      <trkpt lat="47.17131" lon="-1.64067">
        <ele>79</ele>
        <time>2021-10-09T09:42:07.000Z</time>
      </trkpt>
      <trkpt lat="47.17129" lon="-1.64088">
        <ele>79</ele>
        <time>2021-10-09T09:42:09.000Z</time>
      </trkpt>
      <trkpt lat="47.17127" lon="-1.64109">
        <ele>78</ele>
        <time>2021-10-09T09:42:11.000Z</time>
      </trkpt>
      <trkpt lat="47.17124" lon="-1.64128">
        <ele>79</ele>
        <time>2021-10-09T09:42:13.000Z</time>
      </trkpt>
      <trkpt lat="47.17122" lon="-1.64147">
        <ele>78</ele>
        <time>2021-10-09T09:42:15.000Z</time>
      </trkpt>
      <trkpt lat="47.17119" lon="-1.64166">
        <ele>77</ele>
        <time>2021-10-09T09:42:17.000Z</time>
      </trkpt>
      <trkpt lat="47.17117" lon="-1.64187">
        <ele>78</ele>
        <time>2021-10-09T09:42:19.000Z</time>
      </trkpt>
      <trkpt lat="47.17114" lon="-1.64207">
        <ele>78</ele>
        <time>2021-10-09T09:42:21.000Z</time>
      </trkpt>
      <trkpt lat="47.17112" lon="-1.64227">
        <ele>78</ele>
        <time>2021-10-09T09:42:23.000Z</time>
      </trkpt>
      <trkpt lat="47.1711" lon="-1.64247">
        <ele>78</ele>
        <time>2021-10-09T09:42:25.000Z</time>
      </trkpt>
      <trkpt lat="47.17108" lon="-1.64267">
        <ele>78</ele>
        <time>2021-10-09T09:42:27.000Z</time>
      </trkpt>
      <trkpt lat="47.17106" lon="-1.64288">
        <ele>78</ele>
        <time>2021-10-09T09:42:29.000Z</time>
      </trkpt>
      <trkpt lat="47.17104" lon="-1.64308">
        <ele>79</ele>
        <time>2021-10-09T09:42:31.000Z</time>
      </trkpt>
      <trkpt lat="47.17102" lon="-1.64329">
        <ele>78</ele>
        <time>2021-10-09T09:42:33.000Z</time>
      </trkpt>
      <trkpt lat="47.171" lon="-1.64349">
        <ele>79</ele>
        <time>2021-10-09T09:42:35.000Z</time>
      </trkpt>
      <trkpt lat="47.17098" lon="-1.64369">
        <ele>79</ele>
        <time>2021-10-09T09:42:37.000Z</time>
      </trkpt>
      <trkpt lat="47.17096" lon="-1.64391">
        <ele>79</ele>
        <time>2021-10-09T09:42:39.000Z</time>
      </trkpt>
      <trkpt lat="47.17095" lon="-1.64412">
        <ele>80</ele>
        <time>2021-10-09T09:42:41.000Z</time>
      </trkpt>
      <trkpt lat="47.17093" lon="-1.64434">
        <ele>79</ele>
        <time>2021-10-09T09:42:43.000Z</time>
      </trkpt>
      <trkpt lat="47.17092" lon="-1.64456">
        <ele>79</ele>
        <time>2021-10-09T09:42:45.000Z</time>
      </trkpt>
      <trkpt lat="47.1709" lon="-1.64477">
        <ele>80</ele>
        <time>2021-10-09T09:42:47.000Z</time>
      </trkpt>
      <trkpt lat="47.17089" lon="-1.64498">
        <ele>80</ele>
        <time>2021-10-09T09:42:49.000Z</time>
      </trkpt>
      <trkpt lat="47.17088" lon="-1.64521">
        <ele>80</ele>
        <time>2021-10-09T09:42:51.000Z</time>
      </trkpt>
      <trkpt lat="47.17088" lon="-1.64544">
        <ele>79</ele>
        <time>2021-10-09T09:42:53.000Z</time>
      </trkpt>
      <trkpt lat="47.17088" lon="-1.64566">
        <ele>78</ele>
        <time>2021-10-09T09:42:55.000Z</time>
      </trkpt>
      <trkpt lat="47.17087" lon="-1.64588">
        <ele>78</ele>
        <time>2021-10-09T09:42:57.000Z</time>
      </trkpt>
      <trkpt lat="47.17087" lon="-1.64612">
        <ele>77</ele>
        <time>2021-10-09T09:42:59.000Z</time>
      </trkpt>
      <trkpt lat="47.17087" lon="-1.64634">
        <ele>77</ele>
        <time>2021-10-09T09:43:01.000Z</time>
      </trkpt>
      <trkpt lat="47.17087" lon="-1.64657">
        <ele>77</ele>
        <time>2021-10-09T09:43:03.000Z</time>
      </trkpt>
      <trkpt lat="47.17088" lon="-1.64679">
        <ele>77</ele>
        <time>2021-10-09T09:43:05.000Z</time>
      </trkpt>
      <trkpt lat="47.17089" lon="-1.64702">
        <ele>77</ele>
        <time>2021-10-09T09:43:07.000Z</time>
      </trkpt>
      <trkpt lat="47.17089" lon="-1.64724">
        <ele>77</ele>
        <time>2021-10-09T09:43:09.000Z</time>
      </trkpt>
      <trkpt lat="47.1709" lon="-1.64747">
        <ele>76</ele>
        <time>2021-10-09T09:43:11.000Z</time>
      </trkpt>
      <trkpt lat="47.17091" lon="-1.64768">
        <ele>76</ele>
        <time>2021-10-09T09:43:13.000Z</time>
      </trkpt>
      <trkpt lat="47.17092" lon="-1.64789">
        <ele>76</ele>
        <time>2021-10-09T09:43:15.000Z</time>
      </trkpt>
      <trkpt lat="47.17093" lon="-1.64812">
        <ele>75</ele>
        <time>2021-10-09T09:43:17.000Z</time>
      </trkpt>
      <trkpt lat="47.17096" lon="-1.64836">
        <ele>76</ele>
        <time>2021-10-09T09:43:19.000Z</time>
      </trkpt>
      <trkpt lat="47.17098" lon="-1.64859">
        <ele>76</ele>
        <time>2021-10-09T09:43:21.000Z</time>
      </trkpt>
      <trkpt lat="47.17099" lon="-1.64883">
        <ele>77</ele>
        <time>2021-10-09T09:43:23.000Z</time>
      </trkpt>
      <trkpt lat="47.17101" lon="-1.64906">
        <ele>77</ele>
        <time>2021-10-09T09:43:25.000Z</time>
      </trkpt>
      <trkpt lat="47.17103" lon="-1.64929">
        <ele>77</ele>
        <time>2021-10-09T09:43:27.000Z</time>
      </trkpt>
      <trkpt lat="47.17105" lon="-1.64951">
        <ele>77</ele>
        <time>2021-10-09T09:43:29.000Z</time>
      </trkpt>
      <trkpt lat="47.17106" lon="-1.64973">
        <ele>76</ele>
        <time>2021-10-09T09:43:31.000Z</time>
      </trkpt>
      <trkpt lat="47.17108" lon="-1.64994">
        <ele>77</ele>
        <time>2021-10-09T09:43:33.000Z</time>
      </trkpt>
      <trkpt lat="47.17109" lon="-1.65015">
        <ele>76</ele>
        <time>2021-10-09T09:43:35.000Z</time>
      </trkpt>
      <trkpt lat="47.1711" lon="-1.65036">
        <ele>76</ele>
        <time>2021-10-09T09:43:37.000Z</time>
      </trkpt>
      <trkpt lat="47.17111" lon="-1.65058">
        <ele>76</ele>
        <time>2021-10-09T09:43:39.000Z</time>
      </trkpt>
      <trkpt lat="47.17113" lon="-1.6508">
        <ele>76</ele>
        <time>2021-10-09T09:43:41.000Z</time>
      </trkpt>
      <trkpt lat="47.17115" lon="-1.65101">
        <ele>76</ele>
        <time>2021-10-09T09:43:43.000Z</time>
      </trkpt>
      <trkpt lat="47.17116" lon="-1.65122">
        <ele>76</ele>
        <time>2021-10-09T09:43:45.000Z</time>
      </trkpt>
      <trkpt lat="47.17117" lon="-1.65144">
        <ele>76</ele>
        <time>2021-10-09T09:43:47.000Z</time>
      </trkpt>
      <trkpt lat="47.17119" lon="-1.65165">
        <ele>76</ele>
        <time>2021-10-09T09:43:49.000Z</time>
      </trkpt>
      <trkpt lat="47.17121" lon="-1.65186">
        <ele>76</ele>
        <time>2021-10-09T09:43:51.000Z</time>
      </trkpt>
      <trkpt lat="47.17123" lon="-1.65206">
        <ele>77</ele>
        <time>2021-10-09T09:43:53.000Z</time>
      </trkpt>
      <trkpt lat="47.17125" lon="-1.65225">
        <ele>77</ele>
        <time>2021-10-09T09:43:55.000Z</time>
      </trkpt>
      <trkpt lat="47.17127" lon="-1.65244">
        <ele>77</ele>
        <time>2021-10-09T09:43:57.000Z</time>
      </trkpt>
      <trkpt lat="47.17131" lon="-1.65261">
        <ele>78</ele>
        <time>2021-10-09T09:43:59.000Z</time>
      </trkpt>
      <trkpt lat="47.17139" lon="-1.65274">
        <ele>78</ele>
        <time>2021-10-09T09:44:01.000Z</time>
      </trkpt>
      <trkpt lat="47.17148" lon="-1.65286">
        <ele>78</ele>
        <time>2021-10-09T09:44:03.000Z</time>
      </trkpt>
      <trkpt lat="47.17158" lon="-1.65296">
        <ele>78</ele>
        <time>2021-10-09T09:44:05.000Z</time>
      </trkpt>
      <trkpt lat="47.17168" lon="-1.65308">
        <ele>78</ele>
        <time>2021-10-09T09:44:07.000Z</time>
      </trkpt>
      <trkpt lat="47.17176" lon="-1.65325">
        <ele>78</ele>
        <time>2021-10-09T09:44:09.000Z</time>
      </trkpt>
      <trkpt lat="47.17179" lon="-1.65344">
        <ele>78</ele>
        <time>2021-10-09T09:44:11.000Z</time>
      </trkpt>
      <trkpt lat="47.17178" lon="-1.65364">
        <ele>77</ele>
        <time>2021-10-09T09:44:13.000Z</time>
      </trkpt>
      <trkpt lat="47.17175" lon="-1.65386">
        <ele>78</ele>
        <time>2021-10-09T09:44:15.000Z</time>
      </trkpt>
      <trkpt lat="47.17173" lon="-1.65407">
        <ele>77</ele>
        <time>2021-10-09T09:44:17.000Z</time>
      </trkpt>
      <trkpt lat="47.17171" lon="-1.65428">
        <ele>77</ele>
        <time>2021-10-09T09:44:19.000Z</time>
      </trkpt>
      <trkpt lat="47.17168" lon="-1.6545">
        <ele>78</ele>
        <time>2021-10-09T09:44:21.000Z</time>
      </trkpt>
      <trkpt lat="47.17165" lon="-1.65471">
        <ele>78</ele>
        <time>2021-10-09T09:44:23.000Z</time>
      </trkpt>
      <trkpt lat="47.17163" lon="-1.65492">
        <ele>78</ele>
        <time>2021-10-09T09:44:25.000Z</time>
      </trkpt>
      <trkpt lat="47.17161" lon="-1.65512">
        <ele>78</ele>
        <time>2021-10-09T09:44:27.000Z</time>
      </trkpt>
      <trkpt lat="47.17159" lon="-1.65532">
        <ele>79</ele>
        <time>2021-10-09T09:44:29.000Z</time>
      </trkpt>
      <trkpt lat="47.17157" lon="-1.65552">
        <ele>79</ele>
        <time>2021-10-09T09:44:31.000Z</time>
      </trkpt>
      <trkpt lat="47.17156" lon="-1.65571">
        <ele>79</ele>
        <time>2021-10-09T09:44:33.000Z</time>
      </trkpt>
      <trkpt lat="47.17155" lon="-1.65592">
        <ele>80</ele>
        <time>2021-10-09T09:44:35.000Z</time>
      </trkpt>
      <trkpt lat="47.17154" lon="-1.65613">
        <ele>80</ele>
        <time>2021-10-09T09:44:37.000Z</time>
      </trkpt>
      <trkpt lat="47.17153" lon="-1.65633">
        <ele>80</ele>
        <time>2021-10-09T09:44:39.000Z</time>
      </trkpt>
      <trkpt lat="47.17154" lon="-1.65654">
        <ele>80</ele>
        <time>2021-10-09T09:44:41.000Z</time>
      </trkpt>
      <trkpt lat="47.17154" lon="-1.65675">
        <ele>80</ele>
        <time>2021-10-09T09:44:43.000Z</time>
      </trkpt>
      <trkpt lat="47.17155" lon="-1.65696">
        <ele>79</ele>
        <time>2021-10-09T09:44:45.000Z</time>
      </trkpt>
      <trkpt lat="47.17156" lon="-1.65717">
        <ele>79</ele>
        <time>2021-10-09T09:44:47.000Z</time>
      </trkpt>
      <trkpt lat="47.17158" lon="-1.65737">
        <ele>79</ele>
        <time>2021-10-09T09:44:49.000Z</time>
      </trkpt>
      <trkpt lat="47.1716" lon="-1.65759">
        <ele>78</ele>
        <time>2021-10-09T09:44:51.000Z</time>
      </trkpt>
      <trkpt lat="47.17163" lon="-1.65779">
        <ele>78</ele>
        <time>2021-10-09T09:44:53.000Z</time>
      </trkpt>
      <trkpt lat="47.17165" lon="-1.65801">
        <ele>78</ele>
        <time>2021-10-09T09:44:55.000Z</time>
      </trkpt>
      <trkpt lat="47.17168" lon="-1.65821">
        <ele>78</ele>
        <time>2021-10-09T09:44:57.000Z</time>
      </trkpt>
      <trkpt lat="47.17171" lon="-1.65842">
        <ele>78</ele>
        <time>2021-10-09T09:44:59.000Z</time>
      </trkpt>
      <trkpt lat="47.17174" lon="-1.65863">
        <ele>78</ele>
        <time>2021-10-09T09:45:01.000Z</time>
      </trkpt>
      <trkpt lat="47.17178" lon="-1.65883">
        <ele>78</ele>
        <time>2021-10-09T09:45:03.000Z</time>
      </trkpt>
      <trkpt lat="47.17182" lon="-1.65902">
        <ele>78</ele>
        <time>2021-10-09T09:45:05.000Z</time>
      </trkpt>
      <trkpt lat="47.17185" lon="-1.65922">
        <ele>78</ele>
        <time>2021-10-09T09:45:07.000Z</time>
      </trkpt>
      <trkpt lat="47.17188" lon="-1.65942">
        <ele>79</ele>
        <time>2021-10-09T09:45:09.000Z</time>
      </trkpt>
      <trkpt lat="47.17193" lon="-1.65963">
        <ele>79</ele>
        <time>2021-10-09T09:45:11.000Z</time>
      </trkpt>
      <trkpt lat="47.17196" lon="-1.65982">
        <ele>79</ele>
        <time>2021-10-09T09:45:13.000Z</time>
      </trkpt>
      <trkpt lat="47.17199" lon="-1.66003">
        <ele>79</ele>
        <time>2021-10-09T09:45:15.000Z</time>
      </trkpt>
      <trkpt lat="47.17203" lon="-1.66023">
        <ele>79</ele>
        <time>2021-10-09T09:45:17.000Z</time>
      </trkpt>
      <trkpt lat="47.17207" lon="-1.66043">
        <ele>79</ele>
        <time>2021-10-09T09:45:19.000Z</time>
      </trkpt>
      <trkpt lat="47.17211" lon="-1.66062">
        <ele>79</ele>
        <time>2021-10-09T09:45:21.000Z</time>
      </trkpt>
      <trkpt lat="47.17216" lon="-1.66081">
        <ele>79</ele>
        <time>2021-10-09T09:45:23.000Z</time>
      </trkpt>
      <trkpt lat="47.1722" lon="-1.66098">
        <ele>79</ele>
        <time>2021-10-09T09:45:25.000Z</time>
      </trkpt>
      <trkpt lat="47.17223" lon="-1.66115">
        <ele>79</ele>
        <time>2021-10-09T09:45:27.000Z</time>
      </trkpt>
      <trkpt lat="47.17226" lon="-1.66132">
        <ele>79</ele>
        <time>2021-10-09T09:45:29.000Z</time>
      </trkpt>
      <trkpt lat="47.1723" lon="-1.66149">
        <ele>79</ele>
        <time>2021-10-09T09:45:31.000Z</time>
      </trkpt>
      <trkpt lat="47.17236" lon="-1.66166">
        <ele>79</ele>
        <time>2021-10-09T09:45:33.000Z</time>
      </trkpt>
      <trkpt lat="47.17243" lon="-1.6618">
        <ele>78</ele>
        <time>2021-10-09T09:45:35.000Z</time>
      </trkpt>
      <trkpt lat="47.1725" lon="-1.66191">
        <ele>78</ele>
        <time>2021-10-09T09:45:37.000Z</time>
      </trkpt>
      <trkpt lat="47.17256" lon="-1.66202">
        <ele>79</ele>
        <time>2021-10-09T09:45:39.000Z</time>
      </trkpt>
      <trkpt lat="47.17262" lon="-1.66213">
        <ele>79</ele>
        <time>2021-10-09T09:45:41.000Z</time>
      </trkpt>
      <trkpt lat="47.17268" lon="-1.66226">
        <ele>78</ele>
        <time>2021-10-09T09:45:43.000Z</time>
      </trkpt>
      <trkpt lat="47.17275" lon="-1.66236">
        <ele>79</ele>
        <time>2021-10-09T09:45:45.000Z</time>
      </trkpt>
      <trkpt lat="47.17284" lon="-1.6625">
        <ele>79</ele>
        <time>2021-10-09T09:45:47.000Z</time>
      </trkpt>
      <trkpt lat="47.17292" lon="-1.66261">
        <ele>79</ele>
        <time>2021-10-09T09:45:49.000Z</time>
      </trkpt>
      <trkpt lat="47.17299" lon="-1.66272">
        <ele>80</ele>
        <time>2021-10-09T09:45:51.000Z</time>
      </trkpt>
      <trkpt lat="47.17308" lon="-1.66286">
        <ele>81</ele>
        <time>2021-10-09T09:45:53.000Z</time>
      </trkpt>
      <trkpt lat="47.17316" lon="-1.66299">
        <ele>82</ele>
        <time>2021-10-09T09:45:55.000Z</time>
      </trkpt>
      <trkpt lat="47.17324" lon="-1.66314">
        <ele>84</ele>
        <time>2021-10-09T09:45:57.000Z</time>
      </trkpt>
      <trkpt lat="47.17332" lon="-1.66328">
        <ele>85</ele>
        <time>2021-10-09T09:45:59.000Z</time>
      </trkpt>
      <trkpt lat="47.17338" lon="-1.66342">
        <ele>86</ele>
        <time>2021-10-09T09:46:01.000Z</time>
      </trkpt>
      <trkpt lat="47.17345" lon="-1.66354">
        <ele>86</ele>
        <time>2021-10-09T09:46:03.000Z</time>
      </trkpt>
      <trkpt lat="47.17351" lon="-1.66368">
        <ele>87</ele>
        <time>2021-10-09T09:46:05.000Z</time>
      </trkpt>
      <trkpt lat="47.17357" lon="-1.66382">
        <ele>87</ele>
        <time>2021-10-09T09:46:07.000Z</time>
      </trkpt>
      <trkpt lat="47.17363" lon="-1.66393">
        <ele>87</ele>
        <time>2021-10-09T09:46:09.000Z</time>
      </trkpt>
      <trkpt lat="47.1737" lon="-1.66407">
        <ele>87</ele>
        <time>2021-10-09T09:46:11.000Z</time>
      </trkpt>
      <trkpt lat="47.17378" lon="-1.66422">
        <ele>87</ele>
        <time>2021-10-09T09:46:13.000Z</time>
      </trkpt>
      <trkpt lat="47.17388" lon="-1.66439">
        <ele>87</ele>
        <time>2021-10-09T09:46:15.000Z</time>
      </trkpt>
      <trkpt lat="47.17397" lon="-1.66456">
        <ele>87</ele>
        <time>2021-10-09T09:46:17.000Z</time>
      </trkpt>
      <trkpt lat="47.17405" lon="-1.66474">
        <ele>87</ele>
        <time>2021-10-09T09:46:19.000Z</time>
      </trkpt>
      <trkpt lat="47.17413" lon="-1.66488">
        <ele>87</ele>
        <time>2021-10-09T09:46:21.000Z</time>
      </trkpt>
      <trkpt lat="47.1742" lon="-1.66501">
        <ele>87</ele>
        <time>2021-10-09T09:46:23.000Z</time>
      </trkpt>
      <trkpt lat="47.17428" lon="-1.66514">
        <ele>87</ele>
        <time>2021-10-09T09:46:25.000Z</time>
      </trkpt>
      <trkpt lat="47.17435" lon="-1.66527">
        <ele>87</ele>
        <time>2021-10-09T09:46:27.000Z</time>
      </trkpt>
      <trkpt lat="47.17441" lon="-1.66542">
        <ele>87</ele>
        <time>2021-10-09T09:46:29.000Z</time>
      </trkpt>
      <trkpt lat="47.17447" lon="-1.66556">
        <ele>87</ele>
        <time>2021-10-09T09:46:31.000Z</time>
      </trkpt>
      <trkpt lat="47.17455" lon="-1.66568">
        <ele>87</ele>
        <time>2021-10-09T09:46:33.000Z</time>
      </trkpt>
      <trkpt lat="47.17463" lon="-1.66583">
        <ele>88</ele>
        <time>2021-10-09T09:46:35.000Z</time>
      </trkpt>
      <trkpt lat="47.1747" lon="-1.66596">
        <ele>88</ele>
        <time>2021-10-09T09:46:37.000Z</time>
      </trkpt>
      <trkpt lat="47.17478" lon="-1.6661">
        <ele>89</ele>
        <time>2021-10-09T09:46:39.000Z</time>
      </trkpt>
      <trkpt lat="47.17488" lon="-1.66626">
        <ele>89</ele>
        <time>2021-10-09T09:46:41.000Z</time>
      </trkpt>
      <trkpt lat="47.17496" lon="-1.66642">
        <ele>89</ele>
        <time>2021-10-09T09:46:43.000Z</time>
      </trkpt>
      <trkpt lat="47.17504" lon="-1.66658">
        <ele>89</ele>
        <time>2021-10-09T09:46:45.000Z</time>
      </trkpt>
      <trkpt lat="47.17512" lon="-1.66673">
        <ele>89</ele>
        <time>2021-10-09T09:46:47.000Z</time>
      </trkpt>
      <trkpt lat="47.1752" lon="-1.66688">
        <ele>88</ele>
        <time>2021-10-09T09:46:49.000Z</time>
      </trkpt>
      <trkpt lat="47.17528" lon="-1.66702">
        <ele>88</ele>
        <time>2021-10-09T09:46:51.000Z</time>
      </trkpt>
      <trkpt lat="47.17536" lon="-1.66715">
        <ele>88</ele>
        <time>2021-10-09T09:46:53.000Z</time>
      </trkpt>
      <trkpt lat="47.17544" lon="-1.6673">
        <ele>88</ele>
        <time>2021-10-09T09:46:55.000Z</time>
      </trkpt>
      <trkpt lat="47.17551" lon="-1.66747">
        <ele>88</ele>
        <time>2021-10-09T09:46:57.000Z</time>
      </trkpt>
      <trkpt lat="47.1756" lon="-1.66761">
        <ele>87</ele>
        <time>2021-10-09T09:46:59.000Z</time>
      </trkpt>
      <trkpt lat="47.17569" lon="-1.66776">
        <ele>88</ele>
        <time>2021-10-09T09:47:01.000Z</time>
      </trkpt>
      <trkpt lat="47.17578" lon="-1.6679">
        <ele>87</ele>
        <time>2021-10-09T09:47:03.000Z</time>
      </trkpt>
      <trkpt lat="47.17586" lon="-1.66805">
        <ele>87</ele>
        <time>2021-10-09T09:47:05.000Z</time>
      </trkpt>
      <trkpt lat="47.17593" lon="-1.66817">
        <ele>87</ele>
        <time>2021-10-09T09:47:07.000Z</time>
      </trkpt>
      <trkpt lat="47.17599" lon="-1.6683">
        <ele>88</ele>
        <time>2021-10-09T09:47:09.000Z</time>
      </trkpt>
      <trkpt lat="47.17607" lon="-1.66844">
        <ele>88</ele>
        <time>2021-10-09T09:47:11.000Z</time>
      </trkpt>
      <trkpt lat="47.17615" lon="-1.66862">
        <ele>89</ele>
        <time>2021-10-09T09:47:13.000Z</time>
      </trkpt>
      <trkpt lat="47.17624" lon="-1.66878">
        <ele>90</ele>
        <time>2021-10-09T09:47:15.000Z</time>
      </trkpt>
      <trkpt lat="47.17632" lon="-1.66893">
        <ele>90</ele>
        <time>2021-10-09T09:47:17.000Z</time>
      </trkpt>
      <trkpt lat="47.1764" lon="-1.66908">
        <ele>90</ele>
        <time>2021-10-09T09:47:19.000Z</time>
      </trkpt>
      <trkpt lat="47.17649" lon="-1.66924">
        <ele>91</ele>
        <time>2021-10-09T09:47:21.000Z</time>
      </trkpt>
      <trkpt lat="47.17658" lon="-1.6694">
        <ele>91</ele>
        <time>2021-10-09T09:47:23.000Z</time>
      </trkpt>
      <trkpt lat="47.17666" lon="-1.66956">
        <ele>90</ele>
        <time>2021-10-09T09:47:25.000Z</time>
      </trkpt>
      <trkpt lat="47.17674" lon="-1.66973">
        <ele>89</ele>
        <time>2021-10-09T09:47:27.000Z</time>
      </trkpt>
      <trkpt lat="47.17682" lon="-1.66988">
        <ele>88</ele>
        <time>2021-10-09T09:47:29.000Z</time>
      </trkpt>
      <trkpt lat="47.1769" lon="-1.67003">
        <ele>88</ele>
        <time>2021-10-09T09:47:31.000Z</time>
      </trkpt>
      <trkpt lat="47.17698" lon="-1.67017">
        <ele>89</ele>
        <time>2021-10-09T09:47:33.000Z</time>
      </trkpt>
      <trkpt lat="47.17706" lon="-1.67032">
        <ele>89</ele>
        <time>2021-10-09T09:47:35.000Z</time>
      </trkpt>
      <trkpt lat="47.17714" lon="-1.67046">
        <ele>90</ele>
        <time>2021-10-09T09:47:37.000Z</time>
      </trkpt>
      <trkpt lat="47.17721" lon="-1.67062">
        <ele>90</ele>
        <time>2021-10-09T09:47:39.000Z</time>
      </trkpt>
      <trkpt lat="47.17729" lon="-1.67078">
        <ele>90</ele>
        <time>2021-10-09T09:47:41.000Z</time>
      </trkpt>
      <trkpt lat="47.17736" lon="-1.67093">
        <ele>89</ele>
        <time>2021-10-09T09:47:43.000Z</time>
      </trkpt>
      <trkpt lat="47.17743" lon="-1.67106">
        <ele>89</ele>
        <time>2021-10-09T09:47:45.000Z</time>
      </trkpt>
      <trkpt lat="47.17752" lon="-1.67121">
        <ele>89</ele>
        <time>2021-10-09T09:47:47.000Z</time>
      </trkpt>
      <trkpt lat="47.1776" lon="-1.67136">
        <ele>88</ele>
        <time>2021-10-09T09:47:49.000Z</time>
      </trkpt>
      <trkpt lat="47.17768" lon="-1.67152">
        <ele>88</ele>
        <time>2021-10-09T09:47:51.000Z</time>
      </trkpt>
      <trkpt lat="47.17776" lon="-1.67167">
        <ele>87</ele>
        <time>2021-10-09T09:47:53.000Z</time>
      </trkpt>
      <trkpt lat="47.17784" lon="-1.67182">
        <ele>86</ele>
        <time>2021-10-09T09:47:55.000Z</time>
      </trkpt>
      <trkpt lat="47.17793" lon="-1.67196">
        <ele>87</ele>
        <time>2021-10-09T09:47:57.000Z</time>
      </trkpt>
      <trkpt lat="47.17801" lon="-1.67212">
        <ele>87</ele>
        <time>2021-10-09T09:47:59.000Z</time>
      </trkpt>
      <trkpt lat="47.17809" lon="-1.67228">
        <ele>88</ele>
        <time>2021-10-09T09:48:01.000Z</time>
      </trkpt>
      <trkpt lat="47.17817" lon="-1.67243">
        <ele>88</ele>
        <time>2021-10-09T09:48:03.000Z</time>
      </trkpt>
      <trkpt lat="47.17825" lon="-1.67257">
        <ele>88</ele>
        <time>2021-10-09T09:48:05.000Z</time>
      </trkpt>
      <trkpt lat="47.17833" lon="-1.67271">
        <ele>88</ele>
        <time>2021-10-09T09:48:07.000Z</time>
      </trkpt>
      <trkpt lat="47.1784" lon="-1.67286">
        <ele>88</ele>
        <time>2021-10-09T09:48:09.000Z</time>
      </trkpt>
      <trkpt lat="47.17849" lon="-1.67299">
        <ele>88</ele>
        <time>2021-10-09T09:48:11.000Z</time>
      </trkpt>
      <trkpt lat="47.17857" lon="-1.67314">
        <ele>88</ele>
        <time>2021-10-09T09:48:13.000Z</time>
      </trkpt>
      <trkpt lat="47.17865" lon="-1.67329">
        <ele>87</ele>
        <time>2021-10-09T09:48:15.000Z</time>
      </trkpt>
      <trkpt lat="47.17873" lon="-1.67344">
        <ele>87</ele>
        <time>2021-10-09T09:48:17.000Z</time>
      </trkpt>
      <trkpt lat="47.1788" lon="-1.67359">
        <ele>87</ele>
        <time>2021-10-09T09:48:19.000Z</time>
      </trkpt>
      <trkpt lat="47.17887" lon="-1.67371">
        <ele>87</ele>
        <time>2021-10-09T09:48:21.000Z</time>
      </trkpt>
      <trkpt lat="47.17893" lon="-1.67384">
        <ele>86</ele>
        <time>2021-10-09T09:48:24.000Z</time>
      </trkpt>
      <trkpt lat="47.17901" lon="-1.67395">
        <ele>86</ele>
        <time>2021-10-09T09:48:30.000Z</time>
      </trkpt>
      <trkpt lat="47.17907" lon="-1.67409">
        <ele>86</ele>
        <time>2021-10-09T09:48:32.000Z</time>
      </trkpt>
      <trkpt lat="47.17912" lon="-1.67425">
        <ele>86</ele>
        <time>2021-10-09T09:48:34.000Z</time>
      </trkpt>
      <trkpt lat="47.17917" lon="-1.67441">
        <ele>86</ele>
        <time>2021-10-09T09:48:36.000Z</time>
      </trkpt>
      <trkpt lat="47.17922" lon="-1.67458">
        <ele>87</ele>
        <time>2021-10-09T09:48:38.000Z</time>
      </trkpt>
      <trkpt lat="47.17928" lon="-1.67477">
        <ele>87</ele>
        <time>2021-10-09T09:48:40.000Z</time>
      </trkpt>
      <trkpt lat="47.17933" lon="-1.67497">
        <ele>87</ele>
        <time>2021-10-09T09:48:42.000Z</time>
      </trkpt>
      <trkpt lat="47.17938" lon="-1.67517">
        <ele>86</ele>
        <time>2021-10-09T09:48:44.000Z</time>
      </trkpt>
      <trkpt lat="47.17943" lon="-1.67537">
        <ele>85</ele>
        <time>2021-10-09T09:48:46.000Z</time>
      </trkpt>
      <trkpt lat="47.17948" lon="-1.67557">
        <ele>85</ele>
        <time>2021-10-09T09:48:48.000Z</time>
      </trkpt>
      <trkpt lat="47.17954" lon="-1.67575">
        <ele>85</ele>
        <time>2021-10-09T09:48:50.000Z</time>
      </trkpt>
      <trkpt lat="47.17958" lon="-1.67594">
        <ele>84</ele>
        <time>2021-10-09T09:48:52.000Z</time>
      </trkpt>
      <trkpt lat="47.17963" lon="-1.67609">
        <ele>85</ele>
        <time>2021-10-09T09:48:54.000Z</time>
      </trkpt>
      <trkpt lat="47.17968" lon="-1.67625">
        <ele>86</ele>
        <time>2021-10-09T09:48:56.000Z</time>
      </trkpt>
      <trkpt lat="47.17973" lon="-1.67643">
        <ele>86</ele>
        <time>2021-10-09T09:48:58.000Z</time>
      </trkpt>
      <trkpt lat="47.17978" lon="-1.67661">
        <ele>86</ele>
        <time>2021-10-09T09:49:00.000Z</time>
      </trkpt>
      <trkpt lat="47.17983" lon="-1.67679">
        <ele>86</ele>
        <time>2021-10-09T09:49:02.000Z</time>
      </trkpt>
      <trkpt lat="47.17987" lon="-1.67694">
        <ele>86</ele>
        <time>2021-10-09T09:49:04.000Z</time>
      </trkpt>
      <trkpt lat="47.17992" lon="-1.67706">
        <ele>86</ele>
        <time>2021-10-09T09:49:06.000Z</time>
      </trkpt>
      <trkpt lat="47.18002" lon="-1.67715">
        <ele>90</ele>
        <time>2021-10-09T09:49:12.000Z</time>
      </trkpt>
      <trkpt lat="47.18011" lon="-1.67717">
        <ele>89</ele>
        <time>2021-10-09T09:49:14.000Z</time>
      </trkpt>
      <trkpt lat="47.18022" lon="-1.67715">
        <ele>87</ele>
        <time>2021-10-09T09:49:16.000Z</time>
      </trkpt>
      <trkpt lat="47.18034" lon="-1.67708">
        <ele>86</ele>
        <time>2021-10-09T09:49:18.000Z</time>
      </trkpt>
      <trkpt lat="47.18046" lon="-1.67703">
        <ele>85</ele>
        <time>2021-10-09T09:49:20.000Z</time>
      </trkpt>
      <trkpt lat="47.1806" lon="-1.67698">
        <ele>85</ele>
        <time>2021-10-09T09:49:22.000Z</time>
      </trkpt>
      <trkpt lat="47.18074" lon="-1.6769">
        <ele>84</ele>
        <time>2021-10-09T09:49:24.000Z</time>
      </trkpt>
      <trkpt lat="47.18088" lon="-1.67681">
        <ele>84</ele>
        <time>2021-10-09T09:49:26.000Z</time>
      </trkpt>
      <trkpt lat="47.18101" lon="-1.67673">
        <ele>83</ele>
        <time>2021-10-09T09:49:28.000Z</time>
      </trkpt>
      <trkpt lat="47.18114" lon="-1.67665">
        <ele>83</ele>
        <time>2021-10-09T09:49:30.000Z</time>
      </trkpt>
      <trkpt lat="47.18128" lon="-1.67656">
        <ele>83</ele>
        <time>2021-10-09T09:49:32.000Z</time>
      </trkpt>
      <trkpt lat="47.18142" lon="-1.67648">
        <ele>82</ele>
        <time>2021-10-09T09:49:34.000Z</time>
      </trkpt>
      <trkpt lat="47.18156" lon="-1.67639">
        <ele>82</ele>
        <time>2021-10-09T09:49:36.000Z</time>
      </trkpt>
      <trkpt lat="47.18169" lon="-1.67631">
        <ele>82</ele>
        <time>2021-10-09T09:49:38.000Z</time>
      </trkpt>
      <trkpt lat="47.18183" lon="-1.67622">
        <ele>82</ele>
        <time>2021-10-09T09:49:40.000Z</time>
      </trkpt>
      <trkpt lat="47.18196" lon="-1.6761">
        <ele>81</ele>
        <time>2021-10-09T09:49:42.000Z</time>
      </trkpt>
      <trkpt lat="47.18209" lon="-1.676">
        <ele>81</ele>
        <time>2021-10-09T09:49:44.000Z</time>
      </trkpt>
      <trkpt lat="47.18224" lon="-1.67595">
        <ele>80</ele>
        <time>2021-10-09T09:49:46.000Z</time>
      </trkpt>
      <trkpt lat="47.18237" lon="-1.67588">
        <ele>80</ele>
        <time>2021-10-09T09:49:48.000Z</time>
      </trkpt>
      <trkpt lat="47.18251" lon="-1.6758">
        <ele>80</ele>
        <time>2021-10-09T09:49:50.000Z</time>
      </trkpt>
      <trkpt lat="47.18265" lon="-1.67572">
        <ele>79</ele>
        <time>2021-10-09T09:49:52.000Z</time>
      </trkpt>
      <trkpt lat="47.18279" lon="-1.67563">
        <ele>79</ele>
        <time>2021-10-09T09:49:54.000Z</time>
      </trkpt>
      <trkpt lat="47.18292" lon="-1.67555">
        <ele>79</ele>
        <time>2021-10-09T09:49:56.000Z</time>
      </trkpt>
      <trkpt lat="47.18305" lon="-1.67547">
        <ele>79</ele>
        <time>2021-10-09T09:49:58.000Z</time>
      </trkpt>
      <trkpt lat="47.18318" lon="-1.67538">
        <ele>79</ele>
        <time>2021-10-09T09:50:00.000Z</time>
      </trkpt>
      <trkpt lat="47.18331" lon="-1.67531">
        <ele>79</ele>
        <time>2021-10-09T09:50:02.000Z</time>
      </trkpt>
      <trkpt lat="47.18345" lon="-1.67523">
        <ele>79</ele>
        <time>2021-10-09T09:50:04.000Z</time>
      </trkpt>
      <trkpt lat="47.18358" lon="-1.67515">
        <ele>79</ele>
        <time>2021-10-09T09:50:06.000Z</time>
      </trkpt>
      <trkpt lat="47.1837" lon="-1.67508">
        <ele>79</ele>
        <time>2021-10-09T09:50:08.000Z</time>
      </trkpt>
      <trkpt lat="47.18382" lon="-1.67501">
        <ele>78</ele>
        <time>2021-10-09T09:50:10.000Z</time>
      </trkpt>
      <trkpt lat="47.18395" lon="-1.67494">
        <ele>78</ele>
        <time>2021-10-09T09:50:12.000Z</time>
      </trkpt>
      <trkpt lat="47.18408" lon="-1.67486">
        <ele>78</ele>
        <time>2021-10-09T09:50:14.000Z</time>
      </trkpt>
      <trkpt lat="47.1842" lon="-1.67479">
        <ele>79</ele>
        <time>2021-10-09T09:50:16.000Z</time>
      </trkpt>
      <trkpt lat="47.18433" lon="-1.67471">
        <ele>79</ele>
        <time>2021-10-09T09:50:18.000Z</time>
      </trkpt>
      <trkpt lat="47.18446" lon="-1.67463">
        <ele>79</ele>
        <time>2021-10-09T09:50:20.000Z</time>
      </trkpt>
      <trkpt lat="47.18459" lon="-1.67456">
        <ele>79</ele>
        <time>2021-10-09T09:50:22.000Z</time>
      </trkpt>
      <trkpt lat="47.1847" lon="-1.67449">
        <ele>79</ele>
        <time>2021-10-09T09:50:24.000Z</time>
      </trkpt>
      <trkpt lat="47.18481" lon="-1.67442">
        <ele>80</ele>
        <time>2021-10-09T09:50:26.000Z</time>
      </trkpt>
      <trkpt lat="47.18491" lon="-1.67435">
        <ele>80</ele>
        <time>2021-10-09T09:50:28.000Z</time>
      </trkpt>
      <trkpt lat="47.18503" lon="-1.67428">
        <ele>81</ele>
        <time>2021-10-09T09:50:30.000Z</time>
      </trkpt>
      <trkpt lat="47.18515" lon="-1.67417">
        <ele>82</ele>
        <time>2021-10-09T09:50:32.000Z</time>
      </trkpt>
      <trkpt lat="47.18526" lon="-1.67409">
        <ele>83</ele>
        <time>2021-10-09T09:50:34.000Z</time>
      </trkpt>
      <trkpt lat="47.18536" lon="-1.67414">
        <ele>83</ele>
        <time>2021-10-09T09:50:36.000Z</time>
      </trkpt>
      <trkpt lat="47.18539" lon="-1.67432">
        <ele>83</ele>
        <time>2021-10-09T09:50:38.000Z</time>
      </trkpt>
      <trkpt lat="47.18549" lon="-1.67446">
        <ele>83</ele>
        <time>2021-10-09T09:50:41.000Z</time>
      </trkpt>
      <trkpt lat="47.1856" lon="-1.6744">
        <ele>84</ele>
        <time>2021-10-09T09:50:43.000Z</time>
      </trkpt>
      <trkpt lat="47.18572" lon="-1.67435">
        <ele>85</ele>
        <time>2021-10-09T09:50:45.000Z</time>
      </trkpt>
      <trkpt lat="47.18584" lon="-1.67431">
        <ele>86</ele>
        <time>2021-10-09T09:50:47.000Z</time>
      </trkpt>
      <trkpt lat="47.18594" lon="-1.67437">
        <ele>86</ele>
        <time>2021-10-09T09:50:49.000Z</time>
      </trkpt>
      <trkpt lat="47.186" lon="-1.67453">
        <ele>88</ele>
        <time>2021-10-09T09:50:51.000Z</time>
      </trkpt>
      <trkpt lat="47.18606" lon="-1.67472">
        <ele>89</ele>
        <time>2021-10-09T09:50:53.000Z</time>
      </trkpt>
      <trkpt lat="47.18613" lon="-1.6749">
        <ele>89</ele>
        <time>2021-10-09T09:50:55.000Z</time>
      </trkpt>
      <trkpt lat="47.18621" lon="-1.67508">
        <ele>90</ele>
        <time>2021-10-09T09:50:57.000Z</time>
      </trkpt>
      <trkpt lat="47.18629" lon="-1.67524">
        <ele>90</ele>
        <time>2021-10-09T09:50:59.000Z</time>
      </trkpt>
      <trkpt lat="47.18643" lon="-1.67545">
        <ele>90</ele>
        <time>2021-10-09T09:51:02.000Z</time>
      </trkpt>
      <trkpt lat="47.18652" lon="-1.67558">
        <ele>90</ele>
        <time>2021-10-09T09:51:04.000Z</time>
      </trkpt>
      <trkpt lat="47.18666" lon="-1.67578">
        <ele>90</ele>
        <time>2021-10-09T09:51:07.000Z</time>
      </trkpt>
      <trkpt lat="47.1868" lon="-1.67598">
        <ele>90</ele>
        <time>2021-10-09T09:51:10.000Z</time>
      </trkpt>
      <trkpt lat="47.1869" lon="-1.67609">
        <ele>91</ele>
        <time>2021-10-09T09:51:12.000Z</time>
      </trkpt>
      <trkpt lat="47.18709" lon="-1.67616">
        <ele>91</ele>
        <time>2021-10-09T09:51:15.000Z</time>
      </trkpt>
      <trkpt lat="47.18721" lon="-1.67614">
        <ele>90</ele>
        <time>2021-10-09T09:51:17.000Z</time>
      </trkpt>
      <trkpt lat="47.18733" lon="-1.67611">
        <ele>90</ele>
        <time>2021-10-09T09:51:19.000Z</time>
      </trkpt>
      <trkpt lat="47.18742" lon="-1.67607">
        <ele>89</ele>
        <time>2021-10-09T09:51:21.000Z</time>
      </trkpt>
      <trkpt lat="47.18753" lon="-1.6761">
        <ele>89</ele>
        <time>2021-10-09T09:51:24.000Z</time>
      </trkpt>
      <trkpt lat="47.18757" lon="-1.67628">
        <ele>90</ele>
        <time>2021-10-09T09:51:26.000Z</time>
      </trkpt>
      <trkpt lat="47.18764" lon="-1.67644">
        <ele>89</ele>
        <time>2021-10-09T09:51:28.000Z</time>
      </trkpt>
      <trkpt lat="47.18773" lon="-1.67658">
        <ele>89</ele>
        <time>2021-10-09T09:51:30.000Z</time>
      </trkpt>
      <trkpt lat="47.18781" lon="-1.67671">
        <ele>88</ele>
        <time>2021-10-09T09:51:32.000Z</time>
      </trkpt>
      <trkpt lat="47.18789" lon="-1.67685">
        <ele>88</ele>
        <time>2021-10-09T09:51:34.000Z</time>
      </trkpt>
      <trkpt lat="47.18796" lon="-1.677">
        <ele>87</ele>
        <time>2021-10-09T09:51:36.000Z</time>
      </trkpt>
      <trkpt lat="47.18802" lon="-1.67716">
        <ele>88</ele>
        <time>2021-10-09T09:51:38.000Z</time>
      </trkpt>
      <trkpt lat="47.18807" lon="-1.67732">
        <ele>87</ele>
        <time>2021-10-09T09:51:40.000Z</time>
      </trkpt>
      <trkpt lat="47.18815" lon="-1.67749">
        <ele>87</ele>
        <time>2021-10-09T09:51:42.000Z</time>
      </trkpt>
      <trkpt lat="47.18822" lon="-1.67766">
        <ele>87</ele>
        <time>2021-10-09T09:51:44.000Z</time>
      </trkpt>
      <trkpt lat="47.18828" lon="-1.67784">
        <ele>87</ele>
        <time>2021-10-09T09:51:46.000Z</time>
      </trkpt>
      <trkpt lat="47.18835" lon="-1.67802">
        <ele>87</ele>
        <time>2021-10-09T09:51:48.000Z</time>
      </trkpt>
      <trkpt lat="47.18842" lon="-1.67821">
        <ele>87</ele>
        <time>2021-10-09T09:51:50.000Z</time>
      </trkpt>
      <trkpt lat="47.18849" lon="-1.67841">
        <ele>86</ele>
        <time>2021-10-09T09:51:52.000Z</time>
      </trkpt>
      <trkpt lat="47.18857" lon="-1.67861">
        <ele>86</ele>
        <time>2021-10-09T09:51:54.000Z</time>
      </trkpt>
      <trkpt lat="47.18867" lon="-1.6788">
        <ele>85</ele>
        <time>2021-10-09T09:51:56.000Z</time>
      </trkpt>
      <trkpt lat="47.1888" lon="-1.67892">
        <ele>85</ele>
        <time>2021-10-09T09:51:58.000Z</time>
      </trkpt>
      <trkpt lat="47.18897" lon="-1.67898">
        <ele>85</ele>
        <time>2021-10-09T09:52:00.000Z</time>
      </trkpt>
      <trkpt lat="47.18912" lon="-1.67904">
        <ele>85</ele>
        <time>2021-10-09T09:52:02.000Z</time>
      </trkpt>
      <trkpt lat="47.18924" lon="-1.67917">
        <ele>86</ele>
        <time>2021-10-09T09:52:04.000Z</time>
      </trkpt>
      <trkpt lat="47.18932" lon="-1.67933">
        <ele>87</ele>
        <time>2021-10-09T09:52:06.000Z</time>
      </trkpt>
      <trkpt lat="47.18939" lon="-1.6795">
        <ele>88</ele>
        <time>2021-10-09T09:52:08.000Z</time>
      </trkpt>
      <trkpt lat="47.18946" lon="-1.67965">
        <ele>88</ele>
        <time>2021-10-09T09:52:10.000Z</time>
      </trkpt>
      <trkpt lat="47.18954" lon="-1.67979">
        <ele>88</ele>
        <time>2021-10-09T09:52:12.000Z</time>
      </trkpt>
      <trkpt lat="47.18961" lon="-1.67992">
        <ele>88</ele>
        <time>2021-10-09T09:52:14.000Z</time>
      </trkpt>
      <trkpt lat="47.18968" lon="-1.68005">
        <ele>89</ele>
        <time>2021-10-09T09:52:16.000Z</time>
      </trkpt>
      <trkpt lat="47.18977" lon="-1.68018">
        <ele>88</ele>
        <time>2021-10-09T09:52:18.000Z</time>
      </trkpt>
      <trkpt lat="47.18985" lon="-1.68031">
        <ele>88</ele>
        <time>2021-10-09T09:52:20.000Z</time>
      </trkpt>
      <trkpt lat="47.18995" lon="-1.68032">
        <ele>88</ele>
        <time>2021-10-09T09:52:22.000Z</time>
      </trkpt>
      <trkpt lat="47.19007" lon="-1.68021">
        <ele>84</ele>
        <time>2021-10-09T09:52:24.000Z</time>
      </trkpt>
      <trkpt lat="47.19025" lon="-1.6802">
        <ele>83</ele>
        <time>2021-10-09T09:52:26.000Z</time>
      </trkpt>
      <trkpt lat="47.19034" lon="-1.68022">
        <ele>82</ele>
        <time>2021-10-09T09:52:27.000Z</time>
      </trkpt>
      <trkpt lat="47.19052" lon="-1.68027">
        <ele>81</ele>
        <time>2021-10-09T09:52:29.000Z</time>
      </trkpt>
      <trkpt lat="47.19069" lon="-1.68034">
        <ele>80</ele>
        <time>2021-10-09T09:52:31.000Z</time>
      </trkpt>
      <trkpt lat="47.19082" lon="-1.68045">
        <ele>80</ele>
        <time>2021-10-09T09:52:33.000Z</time>
      </trkpt>
      <trkpt lat="47.19089" lon="-1.68064">
        <ele>79</ele>
        <time>2021-10-09T09:52:35.000Z</time>
      </trkpt>
      <trkpt lat="47.19096" lon="-1.68081">
        <ele>79</ele>
        <time>2021-10-09T09:52:37.000Z</time>
      </trkpt>
      <trkpt lat="47.19101" lon="-1.68095">
        <ele>80</ele>
        <time>2021-10-09T09:52:39.000Z</time>
      </trkpt>
      <trkpt lat="47.19107" lon="-1.68111">
        <ele>80</ele>
        <time>2021-10-09T09:52:41.000Z</time>
      </trkpt>
      <trkpt lat="47.19111" lon="-1.68127">
        <ele>80</ele>
        <time>2021-10-09T09:52:43.000Z</time>
      </trkpt>
      <trkpt lat="47.19114" lon="-1.68141">
        <ele>81</ele>
        <time>2021-10-09T09:52:45.000Z</time>
      </trkpt>
      <trkpt lat="47.19118" lon="-1.68158">
        <ele>81</ele>
        <time>2021-10-09T09:52:48.000Z</time>
      </trkpt>
      <trkpt lat="47.19125" lon="-1.68169">
        <ele>80</ele>
        <time>2021-10-09T09:52:52.000Z</time>
      </trkpt>
      <trkpt lat="47.19127" lon="-1.68182">
        <ele>81</ele>
        <time>2021-10-09T09:52:59.000Z</time>
      </trkpt>
      <trkpt lat="47.19137" lon="-1.68176">
        <ele>78</ele>
        <time>2021-10-09T09:53:09.000Z</time>
      </trkpt>
      <trkpt lat="47.19142" lon="-1.6819">
        <ele>76</ele>
        <time>2021-10-09T09:53:14.000Z</time>
      </trkpt>
      <trkpt lat="47.19148" lon="-1.68202">
        <ele>76</ele>
        <time>2021-10-09T09:53:18.000Z</time>
      </trkpt>
      <trkpt lat="47.1916" lon="-1.68205">
        <ele>76</ele>
        <time>2021-10-09T09:53:21.000Z</time>
      </trkpt>
      <trkpt lat="47.19172" lon="-1.68213">
        <ele>77</ele>
        <time>2021-10-09T09:53:23.000Z</time>
      </trkpt>
      <trkpt lat="47.19185" lon="-1.68215">
        <ele>75</ele>
        <time>2021-10-09T09:53:25.000Z</time>
      </trkpt>
      <trkpt lat="47.19196" lon="-1.68211">
        <ele>74</ele>
        <time>2021-10-09T09:53:27.000Z</time>
      </trkpt>
      <trkpt lat="47.19208" lon="-1.68207">
        <ele>70</ele>
        <time>2021-10-09T09:53:29.000Z</time>
      </trkpt>
      <trkpt lat="47.1922" lon="-1.68201">
        <ele>67</ele>
        <time>2021-10-09T09:53:31.000Z</time>
      </trkpt>
      <trkpt lat="47.19232" lon="-1.68196">
        <ele>64</ele>
        <time>2021-10-09T09:53:33.000Z</time>
      </trkpt>
      <trkpt lat="47.19245" lon="-1.68188">
        <ele>63</ele>
        <time>2021-10-09T09:53:35.000Z</time>
      </trkpt>
      <trkpt lat="47.19257" lon="-1.68178">
        <ele>62</ele>
        <time>2021-10-09T09:53:37.000Z</time>
      </trkpt>
      <trkpt lat="47.19268" lon="-1.6817">
        <ele>61</ele>
        <time>2021-10-09T09:53:39.000Z</time>
      </trkpt>
      <trkpt lat="47.1928" lon="-1.68162">
        <ele>60</ele>
        <time>2021-10-09T09:53:41.000Z</time>
      </trkpt>
      <trkpt lat="47.19292" lon="-1.68154">
        <ele>59</ele>
        <time>2021-10-09T09:53:43.000Z</time>
      </trkpt>
      <trkpt lat="47.19304" lon="-1.68146">
        <ele>59</ele>
        <time>2021-10-09T09:53:45.000Z</time>
      </trkpt>
      <trkpt lat="47.19316" lon="-1.68139">
        <ele>58</ele>
        <time>2021-10-09T09:53:47.000Z</time>
      </trkpt>
      <trkpt lat="47.19327" lon="-1.68132">
        <ele>58</ele>
        <time>2021-10-09T09:53:49.000Z</time>
      </trkpt>
      <trkpt lat="47.19338" lon="-1.68123">
        <ele>58</ele>
        <time>2021-10-09T09:53:51.000Z</time>
      </trkpt>
      <trkpt lat="47.19349" lon="-1.68112">
        <ele>58</ele>
        <time>2021-10-09T09:53:53.000Z</time>
      </trkpt>
      <trkpt lat="47.19362" lon="-1.68103">
        <ele>58</ele>
        <time>2021-10-09T09:53:55.000Z</time>
      </trkpt>
      <trkpt lat="47.19374" lon="-1.68095">
        <ele>58</ele>
        <time>2021-10-09T09:53:57.000Z</time>
      </trkpt>
      <trkpt lat="47.19385" lon="-1.68086">
        <ele>58</ele>
        <time>2021-10-09T09:53:59.000Z</time>
      </trkpt>
      <trkpt lat="47.19395" lon="-1.68079">
        <ele>58</ele>
        <time>2021-10-09T09:54:01.000Z</time>
      </trkpt>
      <trkpt lat="47.19404" lon="-1.68072">
        <ele>59</ele>
        <time>2021-10-09T09:54:03.000Z</time>
      </trkpt>
      <trkpt lat="47.19413" lon="-1.68063">
        <ele>57</ele>
        <time>2021-10-09T09:54:05.000Z</time>
      </trkpt>
      <trkpt lat="47.19416" lon="-1.6805">
        <ele>57</ele>
        <time>2021-10-09T09:54:07.000Z</time>
      </trkpt>
      <trkpt lat="47.19416" lon="-1.68036">
        <ele>57</ele>
        <time>2021-10-09T09:54:09.000Z</time>
      </trkpt>
      <trkpt lat="47.19412" lon="-1.68018">
        <ele>58</ele>
        <time>2021-10-09T09:54:11.000Z</time>
      </trkpt>
      <trkpt lat="47.19407" lon="-1.67999">
        <ele>58</ele>
        <time>2021-10-09T09:54:13.000Z</time>
      </trkpt>
      <trkpt lat="47.19401" lon="-1.67979">
        <ele>58</ele>
        <time>2021-10-09T09:54:15.000Z</time>
      </trkpt>
      <trkpt lat="47.19397" lon="-1.6796">
        <ele>57</ele>
        <time>2021-10-09T09:54:17.000Z</time>
      </trkpt>
      <trkpt lat="47.19392" lon="-1.67941">
        <ele>58</ele>
        <time>2021-10-09T09:54:19.000Z</time>
      </trkpt>
      <trkpt lat="47.19388" lon="-1.67923">
        <ele>58</ele>
        <time>2021-10-09T09:54:21.000Z</time>
      </trkpt>
      <trkpt lat="47.19383" lon="-1.67905">
        <ele>58</ele>
        <time>2021-10-09T09:54:23.000Z</time>
      </trkpt>
      <trkpt lat="47.19378" lon="-1.67887">
        <ele>59</ele>
        <time>2021-10-09T09:54:25.000Z</time>
      </trkpt>
      <trkpt lat="47.19375" lon="-1.67867">
        <ele>59</ele>
        <time>2021-10-09T09:54:27.000Z</time>
      </trkpt>
      <trkpt lat="47.19372" lon="-1.67848">
        <ele>59</ele>
        <time>2021-10-09T09:54:29.000Z</time>
      </trkpt>
      <trkpt lat="47.19369" lon="-1.67828">
        <ele>58</ele>
        <time>2021-10-09T09:54:31.000Z</time>
      </trkpt>
      <trkpt lat="47.19368" lon="-1.67807">
        <ele>57</ele>
        <time>2021-10-09T09:54:33.000Z</time>
      </trkpt>
      <trkpt lat="47.19369" lon="-1.67786">
        <ele>57</ele>
        <time>2021-10-09T09:54:35.000Z</time>
      </trkpt>
      <trkpt lat="47.1937" lon="-1.67766">
        <ele>57</ele>
        <time>2021-10-09T09:54:37.000Z</time>
      </trkpt>
      <trkpt lat="47.19372" lon="-1.67747">
        <ele>56</ele>
        <time>2021-10-09T09:54:39.000Z</time>
      </trkpt>
      <trkpt lat="47.19374" lon="-1.67728">
        <ele>56</ele>
        <time>2021-10-09T09:54:41.000Z</time>
      </trkpt>
      <trkpt lat="47.19379" lon="-1.67709">
        <ele>56</ele>
        <time>2021-10-09T09:54:43.000Z</time>
      </trkpt>
      <trkpt lat="47.19383" lon="-1.6769">
        <ele>56</ele>
        <time>2021-10-09T09:54:45.000Z</time>
      </trkpt>
      <trkpt lat="47.19389" lon="-1.67672">
        <ele>56</ele>
        <time>2021-10-09T09:54:47.000Z</time>
      </trkpt>
      <trkpt lat="47.19396" lon="-1.67654">
        <ele>55</ele>
        <time>2021-10-09T09:54:49.000Z</time>
      </trkpt>
      <trkpt lat="47.19404" lon="-1.67637">
        <ele>55</ele>
        <time>2021-10-09T09:54:51.000Z</time>
      </trkpt>
      <trkpt lat="47.19412" lon="-1.67621">
        <ele>54</ele>
        <time>2021-10-09T09:54:53.000Z</time>
      </trkpt>
      <trkpt lat="47.1942" lon="-1.67606">
        <ele>55</ele>
        <time>2021-10-09T09:54:55.000Z</time>
      </trkpt>
      <trkpt lat="47.19429" lon="-1.67593">
        <ele>54</ele>
        <time>2021-10-09T09:54:57.000Z</time>
      </trkpt>
      <trkpt lat="47.19439" lon="-1.6758">
        <ele>54</ele>
        <time>2021-10-09T09:54:59.000Z</time>
      </trkpt>
      <trkpt lat="47.19449" lon="-1.6757">
        <ele>54</ele>
        <time>2021-10-09T09:55:01.000Z</time>
      </trkpt>
      <trkpt lat="47.19459" lon="-1.67562">
        <ele>54</ele>
        <time>2021-10-09T09:55:03.000Z</time>
      </trkpt>
      <trkpt lat="47.19469" lon="-1.67554">
        <ele>54</ele>
        <time>2021-10-09T09:55:05.000Z</time>
      </trkpt>
      <trkpt lat="47.19479" lon="-1.67546">
        <ele>55</ele>
        <time>2021-10-09T09:55:07.000Z</time>
      </trkpt>
      <trkpt lat="47.19487" lon="-1.67538">
        <ele>55</ele>
        <time>2021-10-09T09:55:09.000Z</time>
      </trkpt>
      <trkpt lat="47.19496" lon="-1.67524">
        <ele>55</ele>
        <time>2021-10-09T09:55:12.000Z</time>
      </trkpt>
      <trkpt lat="47.19503" lon="-1.67513">
        <ele>55</ele>
        <time>2021-10-09T09:55:15.000Z</time>
      </trkpt>
      <trkpt lat="47.19512" lon="-1.67507">
        <ele>54</ele>
        <time>2021-10-09T09:55:18.000Z</time>
      </trkpt>
      <trkpt lat="47.19522" lon="-1.67506">
        <ele>54</ele>
        <time>2021-10-09T09:55:21.000Z</time>
      </trkpt>
      <trkpt lat="47.19531" lon="-1.67503">
        <ele>55</ele>
        <time>2021-10-09T09:55:25.000Z</time>
      </trkpt>
      <trkpt lat="47.19536" lon="-1.67504">
        <ele>54</ele>
        <time>2021-10-09T09:57:26.000Z</time>
      </trkpt>
      <trkpt lat="47.19536" lon="-1.67504">
        <ele>54</ele>
        <time>2021-10-09T09:59:27.000Z</time>
      </trkpt>
      <trkpt lat="47.19536" lon="-1.67504">
        <ele>54</ele>
        <time>2021-10-09T10:01:28.000Z</time>
      </trkpt>
      <trkpt lat="47.19536" lon="-1.67504">
        <ele>54</ele>
        <time>2021-10-09T10:03:29.000Z</time>
      </trkpt>
      <trkpt lat="47.19542" lon="-1.67518">
        <ele>56</ele>
        <time>2021-10-09T10:03:43.000Z</time>
      </trkpt>
      <trkpt lat="47.1955" lon="-1.67528">
        <ele>57</ele>
        <time>2021-10-09T10:03:47.000Z</time>
      </trkpt>
      <trkpt lat="47.19557" lon="-1.6754">
        <ele>57</ele>
        <time>2021-10-09T10:03:50.000Z</time>
      </trkpt>
      <trkpt lat="47.19566" lon="-1.67551">
        <ele>57</ele>
        <time>2021-10-09T10:03:53.000Z</time>
      </trkpt>
      <trkpt lat="47.19575" lon="-1.67558">
        <ele>58</ele>
        <time>2021-10-09T10:03:56.000Z</time>
      </trkpt>
      <trkpt lat="47.19585" lon="-1.6757">
        <ele>60</ele>
        <time>2021-10-09T10:03:59.000Z</time>
      </trkpt>
      <trkpt lat="47.19593" lon="-1.6758">
        <ele>60</ele>
        <time>2021-10-09T10:04:02.000Z</time>
      </trkpt>
      <trkpt lat="47.19602" lon="-1.67588">
        <ele>61</ele>
        <time>2021-10-09T10:04:06.000Z</time>
      </trkpt>
      <trkpt lat="47.1961" lon="-1.67582">
        <ele>55</ele>
        <time>2021-10-09T10:05:48.000Z</time>
      </trkpt>
      <trkpt lat="47.1962" lon="-1.67588">
        <ele>53</ele>
        <time>2021-10-09T10:05:57.000Z</time>
      </trkpt>
      <trkpt lat="47.19629" lon="-1.67592">
        <ele>54</ele>
        <time>2021-10-09T10:06:05.000Z</time>
      </trkpt>
      <trkpt lat="47.1964" lon="-1.67594">
        <ele>54</ele>
        <time>2021-10-09T10:06:12.000Z</time>
      </trkpt>
      <trkpt lat="47.19649" lon="-1.67596">
        <ele>54</ele>
        <time>2021-10-09T10:06:20.000Z</time>
      </trkpt>
      <trkpt lat="47.19659" lon="-1.67596">
        <ele>54</ele>
        <time>2021-10-09T10:06:30.000Z</time>
      </trkpt>
      <trkpt lat="47.19668" lon="-1.67592">
        <ele>54</ele>
        <time>2021-10-09T10:06:38.000Z</time>
      </trkpt>
      <trkpt lat="47.19676" lon="-1.67583">
        <ele>56</ele>
        <time>2021-10-09T10:06:45.000Z</time>
      </trkpt>
      <trkpt lat="47.19684" lon="-1.67574">
        <ele>56</ele>
        <time>2021-10-09T10:06:52.000Z</time>
      </trkpt>
      <trkpt lat="47.19689" lon="-1.67563">
        <ele>53</ele>
        <time>2021-10-09T10:06:58.000Z</time>
      </trkpt>
      <trkpt lat="47.19695" lon="-1.67551">
        <ele>51</ele>
        <time>2021-10-09T10:07:03.000Z</time>
      </trkpt>
      <trkpt lat="47.197" lon="-1.67538">
        <ele>51</ele>
        <time>2021-10-09T10:07:08.000Z</time>
      </trkpt>
      <trkpt lat="47.19704" lon="-1.67526">
        <ele>52</ele>
        <time>2021-10-09T10:07:12.000Z</time>
      </trkpt>
      <trkpt lat="47.1971" lon="-1.67514">
        <ele>52</ele>
        <time>2021-10-09T10:07:17.000Z</time>
      </trkpt>
      <trkpt lat="47.19715" lon="-1.67502">
        <ele>53</ele>
        <time>2021-10-09T10:07:22.000Z</time>
      </trkpt>
      <trkpt lat="47.19719" lon="-1.6749">
        <ele>55</ele>
        <time>2021-10-09T10:07:28.000Z</time>
      </trkpt>
      <trkpt lat="47.19725" lon="-1.67478">
        <ele>56</ele>
        <time>2021-10-09T10:07:35.000Z</time>
      </trkpt>
      <trkpt lat="47.1973" lon="-1.67466">
        <ele>57</ele>
        <time>2021-10-09T10:07:42.000Z</time>
      </trkpt>
      <trkpt lat="47.19734" lon="-1.67454">
        <ele>54</ele>
        <time>2021-10-09T10:07:52.000Z</time>
      </trkpt>
      <trkpt lat="47.19739" lon="-1.67442">
        <ele>55</ele>
        <time>2021-10-09T10:08:08.000Z</time>
      </trkpt>
      <trkpt lat="47.19742" lon="-1.67427">
        <ele>58</ele>
        <time>2021-10-09T10:08:24.000Z</time>
      </trkpt>
      <trkpt lat="47.19744" lon="-1.67411">
        <ele>59</ele>
        <time>2021-10-09T10:08:27.000Z</time>
      </trkpt>
      <trkpt lat="47.19744" lon="-1.67395">
        <ele>58</ele>
        <time>2021-10-09T10:08:29.000Z</time>
      </trkpt>
      <trkpt lat="47.19744" lon="-1.67377">
        <ele>57</ele>
        <time>2021-10-09T10:08:31.000Z</time>
      </trkpt>
      <trkpt lat="47.19743" lon="-1.6736">
        <ele>56</ele>
        <time>2021-10-09T10:08:33.000Z</time>
      </trkpt>
      <trkpt lat="47.19746" lon="-1.67342">
        <ele>55</ele>
        <time>2021-10-09T10:08:35.000Z</time>
      </trkpt>
      <trkpt lat="47.19756" lon="-1.67328">
        <ele>55</ele>
        <time>2021-10-09T10:08:37.000Z</time>
      </trkpt>
      <trkpt lat="47.19766" lon="-1.6732">
        <ele>55</ele>
        <time>2021-10-09T10:08:39.000Z</time>
      </trkpt>
      <trkpt lat="47.19775" lon="-1.67314">
        <ele>55</ele>
        <time>2021-10-09T10:08:41.000Z</time>
      </trkpt>
      <trkpt lat="47.19783" lon="-1.67308">
        <ele>55</ele>
        <time>2021-10-09T10:08:43.000Z</time>
      </trkpt>
      <trkpt lat="47.19791" lon="-1.67297">
        <ele>55</ele>
        <time>2021-10-09T10:08:48.000Z</time>
      </trkpt>
      <trkpt lat="47.198" lon="-1.67295">
        <ele>56</ele>
        <time>2021-10-09T10:08:52.000Z</time>
      </trkpt>
      <trkpt lat="47.19809" lon="-1.67309">
        <ele>58</ele>
        <time>2021-10-09T10:08:54.000Z</time>
      </trkpt>
      <trkpt lat="47.19818" lon="-1.67324">
        <ele>59</ele>
        <time>2021-10-09T10:08:56.000Z</time>
      </trkpt>
      <trkpt lat="47.19827" lon="-1.67339">
        <ele>60</ele>
        <time>2021-10-09T10:08:58.000Z</time>
      </trkpt>
      <trkpt lat="47.19835" lon="-1.67356">
        <ele>60</ele>
        <time>2021-10-09T10:09:00.000Z</time>
      </trkpt>
      <trkpt lat="47.19843" lon="-1.67372">
        <ele>60</ele>
        <time>2021-10-09T10:09:02.000Z</time>
      </trkpt>
      <trkpt lat="47.19851" lon="-1.67389">
        <ele>60</ele>
        <time>2021-10-09T10:09:04.000Z</time>
      </trkpt>
      <trkpt lat="47.19859" lon="-1.67406">
        <ele>60</ele>
        <time>2021-10-09T10:09:06.000Z</time>
      </trkpt>
      <trkpt lat="47.19867" lon="-1.67423">
        <ele>60</ele>
        <time>2021-10-09T10:09:08.000Z</time>
      </trkpt>
      <trkpt lat="47.19875" lon="-1.6744">
        <ele>60</ele>
        <time>2021-10-09T10:09:10.000Z</time>
      </trkpt>
      <trkpt lat="47.19883" lon="-1.67457">
        <ele>59</ele>
        <time>2021-10-09T10:09:12.000Z</time>
      </trkpt>
      <trkpt lat="47.19891" lon="-1.67473">
        <ele>59</ele>
        <time>2021-10-09T10:09:14.000Z</time>
      </trkpt>
      <trkpt lat="47.19899" lon="-1.6749">
        <ele>59</ele>
        <time>2021-10-09T10:09:16.000Z</time>
      </trkpt>
      <trkpt lat="47.19908" lon="-1.67507">
        <ele>58</ele>
        <time>2021-10-09T10:09:18.000Z</time>
      </trkpt>
      <trkpt lat="47.19916" lon="-1.67524">
        <ele>59</ele>
        <time>2021-10-09T10:09:20.000Z</time>
      </trkpt>
      <trkpt lat="47.19924" lon="-1.6754">
        <ele>59</ele>
        <time>2021-10-09T10:09:22.000Z</time>
      </trkpt>
      <trkpt lat="47.19931" lon="-1.67558">
        <ele>60</ele>
        <time>2021-10-09T10:09:24.000Z</time>
      </trkpt>
      <trkpt lat="47.19938" lon="-1.67575">
        <ele>59</ele>
        <time>2021-10-09T10:09:26.000Z</time>
      </trkpt>
      <trkpt lat="47.19946" lon="-1.67593">
        <ele>60</ele>
        <time>2021-10-09T10:09:28.000Z</time>
      </trkpt>
      <trkpt lat="47.19955" lon="-1.6761">
        <ele>59</ele>
        <time>2021-10-09T10:09:30.000Z</time>
      </trkpt>
      <trkpt lat="47.19964" lon="-1.67625">
        <ele>59</ele>
        <time>2021-10-09T10:09:32.000Z</time>
      </trkpt>
      <trkpt lat="47.19973" lon="-1.6764">
        <ele>59</ele>
        <time>2021-10-09T10:09:34.000Z</time>
      </trkpt>
      <trkpt lat="47.19984" lon="-1.67655">
        <ele>59</ele>
        <time>2021-10-09T10:09:36.000Z</time>
      </trkpt>
      <trkpt lat="47.19993" lon="-1.67671">
        <ele>59</ele>
        <time>2021-10-09T10:09:38.000Z</time>
      </trkpt>
      <trkpt lat="47.20003" lon="-1.67687">
        <ele>59</ele>
        <time>2021-10-09T10:09:40.000Z</time>
      </trkpt>
      <trkpt lat="47.20013" lon="-1.67703">
        <ele>59</ele>
        <time>2021-10-09T10:09:42.000Z</time>
      </trkpt>
      <trkpt lat="47.20022" lon="-1.67719">
        <ele>58</ele>
        <time>2021-10-09T10:09:44.000Z</time>
      </trkpt>
      <trkpt lat="47.20031" lon="-1.67736">
        <ele>58</ele>
        <time>2021-10-09T10:09:46.000Z</time>
      </trkpt>
      <trkpt lat="47.2004" lon="-1.67752">
        <ele>58</ele>
        <time>2021-10-09T10:09:48.000Z</time>
      </trkpt>
      <trkpt lat="47.2005" lon="-1.67766">
        <ele>58</ele>
        <time>2021-10-09T10:09:50.000Z</time>
      </trkpt>
      <trkpt lat="47.20059" lon="-1.67781">
        <ele>58</ele>
        <time>2021-10-09T10:09:52.000Z</time>
      </trkpt>
      <trkpt lat="47.20067" lon="-1.67795">
        <ele>59</ele>
        <time>2021-10-09T10:09:54.000Z</time>
      </trkpt>
      <trkpt lat="47.20076" lon="-1.6781">
        <ele>60</ele>
        <time>2021-10-09T10:09:56.000Z</time>
      </trkpt>
      <trkpt lat="47.20084" lon="-1.67825">
        <ele>61</ele>
        <time>2021-10-09T10:09:58.000Z</time>
      </trkpt>
      <trkpt lat="47.20092" lon="-1.67841">
        <ele>61</ele>
        <time>2021-10-09T10:10:00.000Z</time>
      </trkpt>
      <trkpt lat="47.201" lon="-1.67856">
        <ele>61</ele>
        <time>2021-10-09T10:10:02.000Z</time>
      </trkpt>
      <trkpt lat="47.20108" lon="-1.67871">
        <ele>61</ele>
        <time>2021-10-09T10:10:04.000Z</time>
      </trkpt>
      <trkpt lat="47.20115" lon="-1.67886">
        <ele>61</ele>
        <time>2021-10-09T10:10:06.000Z</time>
      </trkpt>
      <trkpt lat="47.20123" lon="-1.679">
        <ele>61</ele>
        <time>2021-10-09T10:10:08.000Z</time>
      </trkpt>
      <trkpt lat="47.20134" lon="-1.67908">
        <ele>60</ele>
        <time>2021-10-09T10:10:10.000Z</time>
      </trkpt>
      <trkpt lat="47.20144" lon="-1.67908">
        <ele>59</ele>
        <time>2021-10-09T10:10:12.000Z</time>
      </trkpt>
      <trkpt lat="47.20153" lon="-1.679">
        <ele>59</ele>
        <time>2021-10-09T10:10:14.000Z</time>
      </trkpt>
      <trkpt lat="47.20161" lon="-1.67891">
        <ele>59</ele>
        <time>2021-10-09T10:10:16.000Z</time>
      </trkpt>
      <trkpt lat="47.20171" lon="-1.67883">
        <ele>59</ele>
        <time>2021-10-09T10:10:18.000Z</time>
      </trkpt>
      <trkpt lat="47.2018" lon="-1.67874">
        <ele>59</ele>
        <time>2021-10-09T10:10:20.000Z</time>
      </trkpt>
      <trkpt lat="47.20189" lon="-1.67866">
        <ele>60</ele>
        <time>2021-10-09T10:10:22.000Z</time>
      </trkpt>
      <trkpt lat="47.20199" lon="-1.6786">
        <ele>61</ele>
        <time>2021-10-09T10:10:24.000Z</time>
      </trkpt>
      <trkpt lat="47.2021" lon="-1.67853">
        <ele>61</ele>
        <time>2021-10-09T10:10:26.000Z</time>
      </trkpt>
      <trkpt lat="47.20221" lon="-1.67844">
        <ele>60</ele>
        <time>2021-10-09T10:10:28.000Z</time>
      </trkpt>
      <trkpt lat="47.20232" lon="-1.67835">
        <ele>60</ele>
        <time>2021-10-09T10:10:30.000Z</time>
      </trkpt>
      <trkpt lat="47.20237" lon="-1.67823">
        <ele>62</ele>
        <time>2021-10-09T10:10:32.000Z</time>
      </trkpt>
      <trkpt lat="47.20235" lon="-1.67804">
        <ele>64</ele>
        <time>2021-10-09T10:10:34.000Z</time>
      </trkpt>
      <trkpt lat="47.2023" lon="-1.67783">
        <ele>65</ele>
        <time>2021-10-09T10:10:36.000Z</time>
      </trkpt>
      <trkpt lat="47.20222" lon="-1.67762">
        <ele>66</ele>
        <time>2021-10-09T10:10:38.000Z</time>
      </trkpt>
      <trkpt lat="47.20212" lon="-1.67741">
        <ele>65</ele>
        <time>2021-10-09T10:10:40.000Z</time>
      </trkpt>
      <trkpt lat="47.20203" lon="-1.6772">
        <ele>65</ele>
        <time>2021-10-09T10:10:42.000Z</time>
      </trkpt>
      <trkpt lat="47.20195" lon="-1.67698">
        <ele>64</ele>
        <time>2021-10-09T10:10:44.000Z</time>
      </trkpt>
      <trkpt lat="47.20186" lon="-1.67678">
        <ele>63</ele>
        <time>2021-10-09T10:10:46.000Z</time>
      </trkpt>
      <trkpt lat="47.20178" lon="-1.67659">
        <ele>63</ele>
        <time>2021-10-09T10:10:48.000Z</time>
      </trkpt>
      <trkpt lat="47.20171" lon="-1.67639">
        <ele>63</ele>
        <time>2021-10-09T10:10:50.000Z</time>
      </trkpt>
      <trkpt lat="47.20163" lon="-1.67618">
        <ele>62</ele>
        <time>2021-10-09T10:10:52.000Z</time>
      </trkpt>
      <trkpt lat="47.20155" lon="-1.67598">
        <ele>62</ele>
        <time>2021-10-09T10:10:54.000Z</time>
      </trkpt>
      <trkpt lat="47.20147" lon="-1.67577">
        <ele>61</ele>
        <time>2021-10-09T10:10:56.000Z</time>
      </trkpt>
      <trkpt lat="47.2014" lon="-1.67558">
        <ele>61</ele>
        <time>2021-10-09T10:10:58.000Z</time>
      </trkpt>
      <trkpt lat="47.20132" lon="-1.6754">
        <ele>60</ele>
        <time>2021-10-09T10:11:00.000Z</time>
      </trkpt>
      <trkpt lat="47.20125" lon="-1.67524">
        <ele>60</ele>
        <time>2021-10-09T10:11:02.000Z</time>
      </trkpt>
      <trkpt lat="47.20119" lon="-1.67509">
        <ele>58</ele>
        <time>2021-10-09T10:11:04.000Z</time>
      </trkpt>
      <trkpt lat="47.20115" lon="-1.67496">
        <ele>58</ele>
        <time>2021-10-09T10:11:06.000Z</time>
      </trkpt>
      <trkpt lat="47.20121" lon="-1.67481">
        <ele>57</ele>
        <time>2021-10-09T10:11:09.000Z</time>
      </trkpt>
      <trkpt lat="47.20134" lon="-1.67474">
        <ele>57</ele>
        <time>2021-10-09T10:11:11.000Z</time>
      </trkpt>
      <trkpt lat="47.20148" lon="-1.67467">
        <ele>57</ele>
        <time>2021-10-09T10:11:13.000Z</time>
      </trkpt>
      <trkpt lat="47.20163" lon="-1.67459">
        <ele>56</ele>
        <time>2021-10-09T10:11:15.000Z</time>
      </trkpt>
      <trkpt lat="47.20179" lon="-1.67452">
        <ele>56</ele>
        <time>2021-10-09T10:11:17.000Z</time>
      </trkpt>
      <trkpt lat="47.20193" lon="-1.67444">
        <ele>56</ele>
        <time>2021-10-09T10:11:19.000Z</time>
      </trkpt>
      <trkpt lat="47.20208" lon="-1.67437">
        <ele>55</ele>
        <time>2021-10-09T10:11:21.000Z</time>
      </trkpt>
      <trkpt lat="47.20222" lon="-1.6743">
        <ele>55</ele>
        <time>2021-10-09T10:11:23.000Z</time>
      </trkpt>
      <trkpt lat="47.20236" lon="-1.67423">
        <ele>55</ele>
        <time>2021-10-09T10:11:25.000Z</time>
      </trkpt>
      <trkpt lat="47.20251" lon="-1.67416">
        <ele>55</ele>
        <time>2021-10-09T10:11:27.000Z</time>
      </trkpt>
      <trkpt lat="47.20265" lon="-1.6741">
        <ele>55</ele>
        <time>2021-10-09T10:11:29.000Z</time>
      </trkpt>
      <trkpt lat="47.2028" lon="-1.67403">
        <ele>55</ele>
        <time>2021-10-09T10:11:31.000Z</time>
      </trkpt>
      <trkpt lat="47.20294" lon="-1.67397">
        <ele>55</ele>
        <time>2021-10-09T10:11:33.000Z</time>
      </trkpt>
      <trkpt lat="47.20308" lon="-1.6739">
        <ele>55</ele>
        <time>2021-10-09T10:11:35.000Z</time>
      </trkpt>
      <trkpt lat="47.20323" lon="-1.67385">
        <ele>55</ele>
        <time>2021-10-09T10:11:37.000Z</time>
      </trkpt>
      <trkpt lat="47.20338" lon="-1.67388">
        <ele>55</ele>
        <time>2021-10-09T10:11:39.000Z</time>
      </trkpt>
      <trkpt lat="47.20351" lon="-1.67397">
        <ele>56</ele>
        <time>2021-10-09T10:11:41.000Z</time>
      </trkpt>
      <trkpt lat="47.20362" lon="-1.67413">
        <ele>56</ele>
        <time>2021-10-09T10:11:43.000Z</time>
      </trkpt>
      <trkpt lat="47.20368" lon="-1.67433">
        <ele>55</ele>
        <time>2021-10-09T10:11:45.000Z</time>
      </trkpt>
      <trkpt lat="47.20372" lon="-1.67455">
        <ele>55</ele>
        <time>2021-10-09T10:11:47.000Z</time>
      </trkpt>
      <trkpt lat="47.20375" lon="-1.67477">
        <ele>54</ele>
        <time>2021-10-09T10:11:49.000Z</time>
      </trkpt>
      <trkpt lat="47.20379" lon="-1.67498">
        <ele>54</ele>
        <time>2021-10-09T10:11:51.000Z</time>
      </trkpt>
      <trkpt lat="47.20383" lon="-1.67519">
        <ele>54</ele>
        <time>2021-10-09T10:11:53.000Z</time>
      </trkpt>
      <trkpt lat="47.20387" lon="-1.67539">
        <ele>54</ele>
        <time>2021-10-09T10:11:55.000Z</time>
      </trkpt>
      <trkpt lat="47.20399" lon="-1.67551">
        <ele>54</ele>
        <time>2021-10-09T10:11:57.000Z</time>
      </trkpt>
      <trkpt lat="47.20413" lon="-1.67545">
        <ele>54</ele>
        <time>2021-10-09T10:11:59.000Z</time>
      </trkpt>
      <trkpt lat="47.20426" lon="-1.67534">
        <ele>54</ele>
        <time>2021-10-09T10:12:01.000Z</time>
      </trkpt>
      <trkpt lat="47.2044" lon="-1.67539">
        <ele>54</ele>
        <time>2021-10-09T10:12:03.000Z</time>
      </trkpt>
      <trkpt lat="47.20449" lon="-1.67556">
        <ele>55</ele>
        <time>2021-10-09T10:12:05.000Z</time>
      </trkpt>
      <trkpt lat="47.20453" lon="-1.67578">
        <ele>55</ele>
        <time>2021-10-09T10:12:07.000Z</time>
      </trkpt>
      <trkpt lat="47.20464" lon="-1.67594">
        <ele>55</ele>
        <time>2021-10-09T10:12:09.000Z</time>
      </trkpt>
      <trkpt lat="47.20473" lon="-1.6761">
        <ele>56</ele>
        <time>2021-10-09T10:12:11.000Z</time>
      </trkpt>
      <trkpt lat="47.20482" lon="-1.67627">
        <ele>56</ele>
        <time>2021-10-09T10:12:13.000Z</time>
      </trkpt>
      <trkpt lat="47.2049" lon="-1.67646">
        <ele>56</ele>
        <time>2021-10-09T10:12:15.000Z</time>
      </trkpt>
      <trkpt lat="47.20497" lon="-1.67665">
        <ele>56</ele>
        <time>2021-10-09T10:12:17.000Z</time>
      </trkpt>
      <trkpt lat="47.20504" lon="-1.67684">
        <ele>55</ele>
        <time>2021-10-09T10:12:19.000Z</time>
      </trkpt>
      <trkpt lat="47.20511" lon="-1.67703">
        <ele>54</ele>
        <time>2021-10-09T10:12:21.000Z</time>
      </trkpt>
      <trkpt lat="47.20518" lon="-1.67722">
        <ele>55</ele>
        <time>2021-10-09T10:12:23.000Z</time>
      </trkpt>
      <trkpt lat="47.20524" lon="-1.67741">
        <ele>54</ele>
        <time>2021-10-09T10:12:25.000Z</time>
      </trkpt>
      <trkpt lat="47.20531" lon="-1.6776">
        <ele>54</ele>
        <time>2021-10-09T10:12:27.000Z</time>
      </trkpt>
      <trkpt lat="47.20538" lon="-1.67778">
        <ele>54</ele>
        <time>2021-10-09T10:12:29.000Z</time>
      </trkpt>
      <trkpt lat="47.20544" lon="-1.67798">
        <ele>54</ele>
        <time>2021-10-09T10:12:31.000Z</time>
      </trkpt>
      <trkpt lat="47.20551" lon="-1.67817">
        <ele>54</ele>
        <time>2021-10-09T10:12:33.000Z</time>
      </trkpt>
      <trkpt lat="47.20557" lon="-1.67836">
        <ele>55</ele>
        <time>2021-10-09T10:12:35.000Z</time>
      </trkpt>
      <trkpt lat="47.20563" lon="-1.67856">
        <ele>55</ele>
        <time>2021-10-09T10:12:37.000Z</time>
      </trkpt>
      <trkpt lat="47.20569" lon="-1.67876">
        <ele>55</ele>
        <time>2021-10-09T10:12:39.000Z</time>
      </trkpt>
      <trkpt lat="47.20575" lon="-1.67895">
        <ele>55</ele>
        <time>2021-10-09T10:12:41.000Z</time>
      </trkpt>
      <trkpt lat="47.20581" lon="-1.67914">
        <ele>54</ele>
        <time>2021-10-09T10:12:43.000Z</time>
      </trkpt>
      <trkpt lat="47.20586" lon="-1.67933">
        <ele>54</ele>
        <time>2021-10-09T10:12:45.000Z</time>
      </trkpt>
      <trkpt lat="47.20592" lon="-1.67953">
        <ele>54</ele>
        <time>2021-10-09T10:12:47.000Z</time>
      </trkpt>
      <trkpt lat="47.20598" lon="-1.67973">
        <ele>54</ele>
        <time>2021-10-09T10:12:49.000Z</time>
      </trkpt>
      <trkpt lat="47.20603" lon="-1.67992">
        <ele>54</ele>
        <time>2021-10-09T10:12:51.000Z</time>
      </trkpt>
      <trkpt lat="47.20609" lon="-1.68012">
        <ele>54</ele>
        <time>2021-10-09T10:12:53.000Z</time>
      </trkpt>
      <trkpt lat="47.20615" lon="-1.68031">
        <ele>54</ele>
        <time>2021-10-09T10:12:55.000Z</time>
      </trkpt>
      <trkpt lat="47.2062" lon="-1.6805">
        <ele>54</ele>
        <time>2021-10-09T10:12:57.000Z</time>
      </trkpt>
      <trkpt lat="47.20625" lon="-1.68069">
        <ele>54</ele>
        <time>2021-10-09T10:12:59.000Z</time>
      </trkpt>
      <trkpt lat="47.20631" lon="-1.68088">
        <ele>55</ele>
        <time>2021-10-09T10:13:01.000Z</time>
      </trkpt>
      <trkpt lat="47.20637" lon="-1.68107">
        <ele>55</ele>
        <time>2021-10-09T10:13:03.000Z</time>
      </trkpt>
      <trkpt lat="47.20643" lon="-1.68127">
        <ele>55</ele>
        <time>2021-10-09T10:13:05.000Z</time>
      </trkpt>
      <trkpt lat="47.20649" lon="-1.68146">
        <ele>55</ele>
        <time>2021-10-09T10:13:07.000Z</time>
      </trkpt>
      <trkpt lat="47.20654" lon="-1.68165">
        <ele>55</ele>
        <time>2021-10-09T10:13:09.000Z</time>
      </trkpt>
      <trkpt lat="47.2066" lon="-1.68185">
        <ele>55</ele>
        <time>2021-10-09T10:13:11.000Z</time>
      </trkpt>
      <trkpt lat="47.20666" lon="-1.68203">
        <ele>55</ele>
        <time>2021-10-09T10:13:13.000Z</time>
      </trkpt>
      <trkpt lat="47.20672" lon="-1.68222">
        <ele>55</ele>
        <time>2021-10-09T10:13:15.000Z</time>
      </trkpt>
      <trkpt lat="47.20677" lon="-1.68241">
        <ele>55</ele>
        <time>2021-10-09T10:13:17.000Z</time>
      </trkpt>
      <trkpt lat="47.20683" lon="-1.6826">
        <ele>55</ele>
        <time>2021-10-09T10:13:19.000Z</time>
      </trkpt>
      <trkpt lat="47.20688" lon="-1.68278">
        <ele>55</ele>
        <time>2021-10-09T10:13:21.000Z</time>
      </trkpt>
      <trkpt lat="47.20693" lon="-1.68297">
        <ele>55</ele>
        <time>2021-10-09T10:13:23.000Z</time>
      </trkpt>
      <trkpt lat="47.20699" lon="-1.68316">
        <ele>55</ele>
        <time>2021-10-09T10:13:25.000Z</time>
      </trkpt>
      <trkpt lat="47.20704" lon="-1.68335">
        <ele>55</ele>
        <time>2021-10-09T10:13:27.000Z</time>
      </trkpt>
      <trkpt lat="47.2071" lon="-1.68353">
        <ele>55</ele>
        <time>2021-10-09T10:13:29.000Z</time>
      </trkpt>
      <trkpt lat="47.2072" lon="-1.68368">
        <ele>55</ele>
        <time>2021-10-09T10:13:31.000Z</time>
      </trkpt>
      <trkpt lat="47.20733" lon="-1.68378">
        <ele>55</ele>
        <time>2021-10-09T10:13:33.000Z</time>
      </trkpt>
      <trkpt lat="47.20747" lon="-1.68384">
        <ele>55</ele>
        <time>2021-10-09T10:13:35.000Z</time>
      </trkpt>
      <trkpt lat="47.20762" lon="-1.68386">
        <ele>55</ele>
        <time>2021-10-09T10:13:37.000Z</time>
      </trkpt>
      <trkpt lat="47.20776" lon="-1.68387">
        <ele>55</ele>
        <time>2021-10-09T10:13:39.000Z</time>
      </trkpt>
      <trkpt lat="47.2079" lon="-1.68389">
        <ele>55</ele>
        <time>2021-10-09T10:13:41.000Z</time>
      </trkpt>
      <trkpt lat="47.20804" lon="-1.68391">
        <ele>55</ele>
        <time>2021-10-09T10:13:43.000Z</time>
      </trkpt>
      <trkpt lat="47.20817" lon="-1.68392">
        <ele>55</ele>
        <time>2021-10-09T10:13:45.000Z</time>
      </trkpt>
      <trkpt lat="47.20831" lon="-1.68392">
        <ele>55</ele>
        <time>2021-10-09T10:13:47.000Z</time>
      </trkpt>
      <trkpt lat="47.20845" lon="-1.68393">
        <ele>55</ele>
        <time>2021-10-09T10:13:49.000Z</time>
      </trkpt>
      <trkpt lat="47.20859" lon="-1.68394">
        <ele>55</ele>
        <time>2021-10-09T10:13:51.000Z</time>
      </trkpt>
      <trkpt lat="47.20873" lon="-1.68394">
        <ele>56</ele>
        <time>2021-10-09T10:13:53.000Z</time>
      </trkpt>
      <trkpt lat="47.20887" lon="-1.68395">
        <ele>56</ele>
        <time>2021-10-09T10:13:55.000Z</time>
      </trkpt>
      <trkpt lat="47.20901" lon="-1.68395">
        <ele>56</ele>
        <time>2021-10-09T10:13:57.000Z</time>
      </trkpt>
      <trkpt lat="47.20915" lon="-1.68395">
        <ele>56</ele>
        <time>2021-10-09T10:13:59.000Z</time>
      </trkpt>
      <trkpt lat="47.20929" lon="-1.68396">
        <ele>56</ele>
        <time>2021-10-09T10:14:01.000Z</time>
      </trkpt>
      <trkpt lat="47.20943" lon="-1.68397">
        <ele>56</ele>
        <time>2021-10-09T10:14:03.000Z</time>
      </trkpt>
      <trkpt lat="47.20957" lon="-1.68397">
        <ele>57</ele>
        <time>2021-10-09T10:14:05.000Z</time>
      </trkpt>
      <trkpt lat="47.20971" lon="-1.68398">
        <ele>57</ele>
        <time>2021-10-09T10:14:07.000Z</time>
      </trkpt>
      <trkpt lat="47.20986" lon="-1.68399">
        <ele>57</ele>
        <time>2021-10-09T10:14:09.000Z</time>
      </trkpt>
      <trkpt lat="47.21" lon="-1.684">
        <ele>56</ele>
        <time>2021-10-09T10:14:11.000Z</time>
      </trkpt>
      <trkpt lat="47.21015" lon="-1.684">
        <ele>56</ele>
        <time>2021-10-09T10:14:13.000Z</time>
      </trkpt>
      <trkpt lat="47.21029" lon="-1.68401">
        <ele>56</ele>
        <time>2021-10-09T10:14:15.000Z</time>
      </trkpt>
      <trkpt lat="47.21042" lon="-1.68402">
        <ele>56</ele>
        <time>2021-10-09T10:14:17.000Z</time>
      </trkpt>
      <trkpt lat="47.21056" lon="-1.68402">
        <ele>55</ele>
        <time>2021-10-09T10:14:19.000Z</time>
      </trkpt>
      <trkpt lat="47.21069" lon="-1.68402">
        <ele>54</ele>
        <time>2021-10-09T10:14:21.000Z</time>
      </trkpt>
      <trkpt lat="47.21081" lon="-1.68403">
        <ele>54</ele>
        <time>2021-10-09T10:14:23.000Z</time>
      </trkpt>
      <trkpt lat="47.21094" lon="-1.68403">
        <ele>54</ele>
        <time>2021-10-09T10:14:25.000Z</time>
      </trkpt>
      <trkpt lat="47.21107" lon="-1.68403">
        <ele>54</ele>
        <time>2021-10-09T10:14:27.000Z</time>
      </trkpt>
      <trkpt lat="47.21121" lon="-1.68404">
        <ele>54</ele>
        <time>2021-10-09T10:14:29.000Z</time>
      </trkpt>
      <trkpt lat="47.21134" lon="-1.68405">
        <ele>54</ele>
        <time>2021-10-09T10:14:31.000Z</time>
      </trkpt>
      <trkpt lat="47.21147" lon="-1.68406">
        <ele>55</ele>
        <time>2021-10-09T10:14:33.000Z</time>
      </trkpt>
      <trkpt lat="47.21158" lon="-1.68406">
        <ele>55</ele>
        <time>2021-10-09T10:14:35.000Z</time>
      </trkpt>
      <trkpt lat="47.2117" lon="-1.68406">
        <ele>55</ele>
        <time>2021-10-09T10:14:37.000Z</time>
      </trkpt>
      <trkpt lat="47.2118" lon="-1.68404">
        <ele>56</ele>
        <time>2021-10-09T10:14:39.000Z</time>
      </trkpt>
      <trkpt lat="47.21189" lon="-1.68399">
        <ele>56</ele>
        <time>2021-10-09T10:14:41.000Z</time>
      </trkpt>
      <trkpt lat="47.21193" lon="-1.68384">
        <ele>57</ele>
        <time>2021-10-09T10:14:43.000Z</time>
      </trkpt>
      <trkpt lat="47.21192" lon="-1.68369">
        <ele>57</ele>
        <time>2021-10-09T10:14:45.000Z</time>
      </trkpt>
      <trkpt lat="47.2119" lon="-1.68355">
        <ele>57</ele>
        <time>2021-10-09T10:14:47.000Z</time>
      </trkpt>
      <trkpt lat="47.21189" lon="-1.68341">
        <ele>58</ele>
        <time>2021-10-09T10:14:49.000Z</time>
      </trkpt>
      <trkpt lat="47.21189" lon="-1.68327">
        <ele>59</ele>
        <time>2021-10-09T10:14:51.000Z</time>
      </trkpt>
      <trkpt lat="47.21188" lon="-1.68313">
        <ele>59</ele>
        <time>2021-10-09T10:14:53.000Z</time>
      </trkpt>
      <trkpt lat="47.2119" lon="-1.683">
        <ele>60</ele>
        <time>2021-10-09T10:14:55.000Z</time>
      </trkpt>
      <trkpt lat="47.21195" lon="-1.68288">
        <ele>60</ele>
        <time>2021-10-09T10:14:57.000Z</time>
      </trkpt>
      <trkpt lat="47.21203" lon="-1.68281">
        <ele>60</ele>
        <time>2021-10-09T10:14:59.000Z</time>
      </trkpt>
      <trkpt lat="47.21212" lon="-1.68276">
        <ele>60</ele>
        <time>2021-10-09T10:15:01.000Z</time>
      </trkpt>
      <trkpt lat="47.21221" lon="-1.68274">
        <ele>61</ele>
        <time>2021-10-09T10:15:03.000Z</time>
      </trkpt>
      <trkpt lat="47.2123" lon="-1.68273">
        <ele>61</ele>
        <time>2021-10-09T10:15:05.000Z</time>
      </trkpt>
      <trkpt lat="47.21239" lon="-1.68272">
        <ele>62</ele>
        <time>2021-10-09T10:15:07.000Z</time>
      </trkpt>
      <trkpt lat="47.21253" lon="-1.68269">
        <ele>64</ele>
        <time>2021-10-09T10:15:10.000Z</time>
      </trkpt>
      <trkpt lat="47.21266" lon="-1.68264">
        <ele>65</ele>
        <time>2021-10-09T10:15:13.000Z</time>
      </trkpt>
      <trkpt lat="47.21278" lon="-1.68258">
        <ele>66</ele>
        <time>2021-10-09T10:15:16.000Z</time>
      </trkpt>
      <trkpt lat="47.21287" lon="-1.68253">
        <ele>67</ele>
        <time>2021-10-09T10:15:18.000Z</time>
      </trkpt>
      <trkpt lat="47.21296" lon="-1.6825">
        <ele>67</ele>
        <time>2021-10-09T10:15:20.000Z</time>
      </trkpt>
      <trkpt lat="47.21308" lon="-1.68244">
        <ele>68</ele>
        <time>2021-10-09T10:15:23.000Z</time>
      </trkpt>
      <trkpt lat="47.21317" lon="-1.6824">
        <ele>68</ele>
        <time>2021-10-09T10:15:25.000Z</time>
      </trkpt>
      <trkpt lat="47.2133" lon="-1.68236">
        <ele>70</ele>
        <time>2021-10-09T10:15:28.000Z</time>
      </trkpt>
      <trkpt lat="47.21339" lon="-1.68233">
        <ele>70</ele>
        <time>2021-10-09T10:15:30.000Z</time>
      </trkpt>
      <trkpt lat="47.21352" lon="-1.68229">
        <ele>71</ele>
        <time>2021-10-09T10:15:33.000Z</time>
      </trkpt>
      <trkpt lat="47.21361" lon="-1.68226">
        <ele>71</ele>
        <time>2021-10-09T10:15:35.000Z</time>
      </trkpt>
      <trkpt lat="47.2137" lon="-1.68224">
        <ele>71</ele>
        <time>2021-10-09T10:15:37.000Z</time>
      </trkpt>
      <trkpt lat="47.2138" lon="-1.68223">
        <ele>72</ele>
        <time>2021-10-09T10:15:39.000Z</time>
      </trkpt>
      <trkpt lat="47.21389" lon="-1.68222">
        <ele>72</ele>
        <time>2021-10-09T10:15:41.000Z</time>
      </trkpt>
      <trkpt lat="47.21399" lon="-1.68221">
        <ele>72</ele>
        <time>2021-10-09T10:15:43.000Z</time>
      </trkpt>
      <trkpt lat="47.21409" lon="-1.6822">
        <ele>72</ele>
        <time>2021-10-09T10:15:45.000Z</time>
      </trkpt>
      <trkpt lat="47.21418" lon="-1.68219">
        <ele>73</ele>
        <time>2021-10-09T10:15:47.000Z</time>
      </trkpt>
      <trkpt lat="47.21429" lon="-1.68218">
        <ele>73</ele>
        <time>2021-10-09T10:15:49.000Z</time>
      </trkpt>
      <trkpt lat="47.21439" lon="-1.68216">
        <ele>73</ele>
        <time>2021-10-09T10:15:51.000Z</time>
      </trkpt>
      <trkpt lat="47.2145" lon="-1.68215">
        <ele>74</ele>
        <time>2021-10-09T10:15:53.000Z</time>
      </trkpt>
      <trkpt lat="47.21459" lon="-1.68214">
        <ele>74</ele>
        <time>2021-10-09T10:15:55.000Z</time>
      </trkpt>
      <trkpt lat="47.21469" lon="-1.68214">
        <ele>75</ele>
        <time>2021-10-09T10:15:57.000Z</time>
      </trkpt>
      <trkpt lat="47.21478" lon="-1.68211">
        <ele>75</ele>
        <time>2021-10-09T10:15:59.000Z</time>
      </trkpt>
      <trkpt lat="47.21488" lon="-1.68206">
        <ele>75</ele>
        <time>2021-10-09T10:16:01.000Z</time>
      </trkpt>
      <trkpt lat="47.21497" lon="-1.682">
        <ele>75</ele>
        <time>2021-10-09T10:16:03.000Z</time>
      </trkpt>
      <trkpt lat="47.21505" lon="-1.68194">
        <ele>75</ele>
        <time>2021-10-09T10:16:05.000Z</time>
      </trkpt>
      <trkpt lat="47.21514" lon="-1.68188">
        <ele>75</ele>
        <time>2021-10-09T10:16:07.000Z</time>
      </trkpt>
      <trkpt lat="47.21525" lon="-1.68181">
        <ele>75</ele>
        <time>2021-10-09T10:16:10.000Z</time>
      </trkpt>
      <trkpt lat="47.21535" lon="-1.68172">
        <ele>77</ele>
        <time>2021-10-09T10:16:16.000Z</time>
      </trkpt>
      <trkpt lat="47.21545" lon="-1.6817">
        <ele>77</ele>
        <time>2021-10-09T10:16:18.000Z</time>
      </trkpt>
      <trkpt lat="47.21555" lon="-1.68174">
        <ele>77</ele>
        <time>2021-10-09T10:16:20.000Z</time>
      </trkpt>
      <trkpt lat="47.21565" lon="-1.68176">
        <ele>78</ele>
        <time>2021-10-09T10:16:22.000Z</time>
      </trkpt>
      <trkpt lat="47.21577" lon="-1.68178">
        <ele>78</ele>
        <time>2021-10-09T10:16:24.000Z</time>
      </trkpt>
      <trkpt lat="47.21588" lon="-1.6818">
        <ele>79</ele>
        <time>2021-10-09T10:16:26.000Z</time>
      </trkpt>
      <trkpt lat="47.21598" lon="-1.68183">
        <ele>79</ele>
        <time>2021-10-09T10:16:28.000Z</time>
      </trkpt>
      <trkpt lat="47.21609" lon="-1.68185">
        <ele>80</ele>
        <time>2021-10-09T10:16:30.000Z</time>
      </trkpt>
      <trkpt lat="47.2162" lon="-1.68187">
        <ele>80</ele>
        <time>2021-10-09T10:16:32.000Z</time>
      </trkpt>
      <trkpt lat="47.2163" lon="-1.6819">
        <ele>80</ele>
        <time>2021-10-09T10:16:34.000Z</time>
      </trkpt>
      <trkpt lat="47.21641" lon="-1.68191">
        <ele>80</ele>
        <time>2021-10-09T10:16:36.000Z</time>
      </trkpt>
      <trkpt lat="47.21653" lon="-1.68194">
        <ele>81</ele>
        <time>2021-10-09T10:16:38.000Z</time>
      </trkpt>
      <trkpt lat="47.21664" lon="-1.68196">
        <ele>82</ele>
        <time>2021-10-09T10:16:40.000Z</time>
      </trkpt>
      <trkpt lat="47.21677" lon="-1.68199">
        <ele>82</ele>
        <time>2021-10-09T10:16:42.000Z</time>
      </trkpt>
      <trkpt lat="47.2169" lon="-1.68202">
        <ele>81</ele>
        <time>2021-10-09T10:16:44.000Z</time>
      </trkpt>
      <trkpt lat="47.21702" lon="-1.68205">
        <ele>82</ele>
        <time>2021-10-09T10:16:46.000Z</time>
      </trkpt>
      <trkpt lat="47.21715" lon="-1.68208">
        <ele>81</ele>
        <time>2021-10-09T10:16:48.000Z</time>
      </trkpt>
      <trkpt lat="47.21727" lon="-1.68211">
        <ele>82</ele>
        <time>2021-10-09T10:16:50.000Z</time>
      </trkpt>
      <trkpt lat="47.2174" lon="-1.68213">
        <ele>81</ele>
        <time>2021-10-09T10:16:52.000Z</time>
      </trkpt>
      <trkpt lat="47.21753" lon="-1.68217">
        <ele>81</ele>
        <time>2021-10-09T10:16:54.000Z</time>
      </trkpt>
      <trkpt lat="47.21767" lon="-1.6822">
        <ele>81</ele>
        <time>2021-10-09T10:16:56.000Z</time>
      </trkpt>
      <trkpt lat="47.2178" lon="-1.68223">
        <ele>81</ele>
        <time>2021-10-09T10:16:58.000Z</time>
      </trkpt>
      <trkpt lat="47.21793" lon="-1.68224">
        <ele>81</ele>
        <time>2021-10-09T10:17:00.000Z</time>
      </trkpt>
      <trkpt lat="47.21806" lon="-1.68223">
        <ele>81</ele>
        <time>2021-10-09T10:17:02.000Z</time>
      </trkpt>
      <trkpt lat="47.21818" lon="-1.68225">
        <ele>80</ele>
        <time>2021-10-09T10:17:04.000Z</time>
      </trkpt>
      <trkpt lat="47.21832" lon="-1.68226">
        <ele>80</ele>
        <time>2021-10-09T10:17:06.000Z</time>
      </trkpt>
      <trkpt lat="47.21845" lon="-1.68229">
        <ele>80</ele>
        <time>2021-10-09T10:17:08.000Z</time>
      </trkpt>
      <trkpt lat="47.21859" lon="-1.68229">
        <ele>80</ele>
        <time>2021-10-09T10:17:10.000Z</time>
      </trkpt>
      <trkpt lat="47.21872" lon="-1.68226">
        <ele>80</ele>
        <time>2021-10-09T10:17:12.000Z</time>
      </trkpt>
      <trkpt lat="47.21885" lon="-1.68222">
        <ele>80</ele>
        <time>2021-10-09T10:17:14.000Z</time>
      </trkpt>
      <trkpt lat="47.21897" lon="-1.68216">
        <ele>80</ele>
        <time>2021-10-09T10:17:16.000Z</time>
      </trkpt>
      <trkpt lat="47.21909" lon="-1.68208">
        <ele>79</ele>
        <time>2021-10-09T10:17:18.000Z</time>
      </trkpt>
      <trkpt lat="47.2192" lon="-1.68201">
        <ele>79</ele>
        <time>2021-10-09T10:17:20.000Z</time>
      </trkpt>
      <trkpt lat="47.21931" lon="-1.68194">
        <ele>79</ele>
        <time>2021-10-09T10:17:22.000Z</time>
      </trkpt>
      <trkpt lat="47.21942" lon="-1.68187">
        <ele>79</ele>
        <time>2021-10-09T10:17:24.000Z</time>
      </trkpt>
      <trkpt lat="47.21953" lon="-1.68179">
        <ele>78</ele>
        <time>2021-10-09T10:17:26.000Z</time>
      </trkpt>
      <trkpt lat="47.21965" lon="-1.68172">
        <ele>78</ele>
        <time>2021-10-09T10:17:28.000Z</time>
      </trkpt>
      <trkpt lat="47.21976" lon="-1.68165">
        <ele>78</ele>
        <time>2021-10-09T10:17:30.000Z</time>
      </trkpt>
      <trkpt lat="47.21987" lon="-1.68158">
        <ele>78</ele>
        <time>2021-10-09T10:17:32.000Z</time>
      </trkpt>
      <trkpt lat="47.21998" lon="-1.6815">
        <ele>78</ele>
        <time>2021-10-09T10:17:34.000Z</time>
      </trkpt>
      <trkpt lat="47.22009" lon="-1.68142">
        <ele>77</ele>
        <time>2021-10-09T10:17:36.000Z</time>
      </trkpt>
      <trkpt lat="47.22019" lon="-1.68133">
        <ele>78</ele>
        <time>2021-10-09T10:17:38.000Z</time>
      </trkpt>
      <trkpt lat="47.22029" lon="-1.68123">
        <ele>78</ele>
        <time>2021-10-09T10:17:40.000Z</time>
      </trkpt>
      <trkpt lat="47.22039" lon="-1.68112">
        <ele>79</ele>
        <time>2021-10-09T10:17:42.000Z</time>
      </trkpt>
      <trkpt lat="47.22048" lon="-1.681">
        <ele>79</ele>
        <time>2021-10-09T10:17:44.000Z</time>
      </trkpt>
      <trkpt lat="47.22056" lon="-1.68089">
        <ele>79</ele>
        <time>2021-10-09T10:17:46.000Z</time>
      </trkpt>
      <trkpt lat="47.2207" lon="-1.68071">
        <ele>79</ele>
        <time>2021-10-09T10:17:49.000Z</time>
      </trkpt>
      <trkpt lat="47.22079" lon="-1.68059">
        <ele>80</ele>
        <time>2021-10-09T10:17:51.000Z</time>
      </trkpt>
      <trkpt lat="47.22088" lon="-1.68047">
        <ele>81</ele>
        <time>2021-10-09T10:17:53.000Z</time>
      </trkpt>
      <trkpt lat="47.22097" lon="-1.68035">
        <ele>81</ele>
        <time>2021-10-09T10:17:55.000Z</time>
      </trkpt>
      <trkpt lat="47.22105" lon="-1.68024">
        <ele>81</ele>
        <time>2021-10-09T10:17:57.000Z</time>
      </trkpt>
      <trkpt lat="47.22114" lon="-1.68012">
        <ele>81</ele>
        <time>2021-10-09T10:17:59.000Z</time>
      </trkpt>
      <trkpt lat="47.22123" lon="-1.68002">
        <ele>82</ele>
        <time>2021-10-09T10:18:01.000Z</time>
      </trkpt>
      <trkpt lat="47.22138" lon="-1.67988">
        <ele>81</ele>
        <time>2021-10-09T10:18:04.000Z</time>
      </trkpt>
      <trkpt lat="47.22148" lon="-1.67981">
        <ele>81</ele>
        <time>2021-10-09T10:18:06.000Z</time>
      </trkpt>
      <trkpt lat="47.22159" lon="-1.67973">
        <ele>81</ele>
        <time>2021-10-09T10:18:08.000Z</time>
      </trkpt>
      <trkpt lat="47.22175" lon="-1.67962">
        <ele>80</ele>
        <time>2021-10-09T10:18:11.000Z</time>
      </trkpt>
      <trkpt lat="47.22186" lon="-1.67954">
        <ele>80</ele>
        <time>2021-10-09T10:18:13.000Z</time>
      </trkpt>
      <trkpt lat="47.22198" lon="-1.67947">
        <ele>80</ele>
        <time>2021-10-09T10:18:15.000Z</time>
      </trkpt>
      <trkpt lat="47.22209" lon="-1.67938">
        <ele>80</ele>
        <time>2021-10-09T10:18:17.000Z</time>
      </trkpt>
      <trkpt lat="47.22221" lon="-1.67931">
        <ele>80</ele>
        <time>2021-10-09T10:18:19.000Z</time>
      </trkpt>
      <trkpt lat="47.22232" lon="-1.67923">
        <ele>79</ele>
        <time>2021-10-09T10:18:21.000Z</time>
      </trkpt>
      <trkpt lat="47.22244" lon="-1.67914">
        <ele>78</ele>
        <time>2021-10-09T10:18:23.000Z</time>
      </trkpt>
      <trkpt lat="47.22256" lon="-1.67906">
        <ele>78</ele>
        <time>2021-10-09T10:18:25.000Z</time>
      </trkpt>
      <trkpt lat="47.22268" lon="-1.67898">
        <ele>77</ele>
        <time>2021-10-09T10:18:27.000Z</time>
      </trkpt>
      <trkpt lat="47.2228" lon="-1.67891">
        <ele>77</ele>
        <time>2021-10-09T10:18:29.000Z</time>
      </trkpt>
      <trkpt lat="47.22293" lon="-1.67883">
        <ele>77</ele>
        <time>2021-10-09T10:18:31.000Z</time>
      </trkpt>
      <trkpt lat="47.22305" lon="-1.67875">
        <ele>77</ele>
        <time>2021-10-09T10:18:33.000Z</time>
      </trkpt>
      <trkpt lat="47.22317" lon="-1.67866">
        <ele>76</ele>
        <time>2021-10-09T10:18:35.000Z</time>
      </trkpt>
      <trkpt lat="47.22329" lon="-1.67858">
        <ele>76</ele>
        <time>2021-10-09T10:18:37.000Z</time>
      </trkpt>
      <trkpt lat="47.22341" lon="-1.6785">
        <ele>77</ele>
        <time>2021-10-09T10:18:39.000Z</time>
      </trkpt>
      <trkpt lat="47.22353" lon="-1.67843">
        <ele>77</ele>
        <time>2021-10-09T10:18:41.000Z</time>
      </trkpt>
      <trkpt lat="47.22366" lon="-1.67839">
        <ele>78</ele>
        <time>2021-10-09T10:18:43.000Z</time>
      </trkpt>
      <trkpt lat="47.22377" lon="-1.67834">
        <ele>78</ele>
        <time>2021-10-09T10:18:45.000Z</time>
      </trkpt>
      <trkpt lat="47.22388" lon="-1.6783">
        <ele>78</ele>
        <time>2021-10-09T10:18:47.000Z</time>
      </trkpt>
      <trkpt lat="47.224" lon="-1.67828">
        <ele>79</ele>
        <time>2021-10-09T10:18:49.000Z</time>
      </trkpt>
      <trkpt lat="47.22411" lon="-1.67826">
        <ele>79</ele>
        <time>2021-10-09T10:18:51.000Z</time>
      </trkpt>
      <trkpt lat="47.22421" lon="-1.67824">
        <ele>79</ele>
        <time>2021-10-09T10:18:53.000Z</time>
      </trkpt>
      <trkpt lat="47.22432" lon="-1.67823">
        <ele>80</ele>
        <time>2021-10-09T10:18:55.000Z</time>
      </trkpt>
      <trkpt lat="47.22443" lon="-1.67822">
        <ele>80</ele>
        <time>2021-10-09T10:18:57.000Z</time>
      </trkpt>
      <trkpt lat="47.22454" lon="-1.67822">
        <ele>80</ele>
        <time>2021-10-09T10:18:59.000Z</time>
      </trkpt>
      <trkpt lat="47.22464" lon="-1.67823">
        <ele>81</ele>
        <time>2021-10-09T10:19:01.000Z</time>
      </trkpt>
      <trkpt lat="47.22475" lon="-1.67823">
        <ele>81</ele>
        <time>2021-10-09T10:19:03.000Z</time>
      </trkpt>
      <trkpt lat="47.22486" lon="-1.67824">
        <ele>81</ele>
        <time>2021-10-09T10:19:05.000Z</time>
      </trkpt>
      <trkpt lat="47.22497" lon="-1.67826">
        <ele>81</ele>
        <time>2021-10-09T10:19:07.000Z</time>
      </trkpt>
      <trkpt lat="47.22509" lon="-1.67827">
        <ele>81</ele>
        <time>2021-10-09T10:19:09.000Z</time>
      </trkpt>
      <trkpt lat="47.22519" lon="-1.67828">
        <ele>82</ele>
        <time>2021-10-09T10:19:11.000Z</time>
      </trkpt>
      <trkpt lat="47.22529" lon="-1.67831">
        <ele>82</ele>
        <time>2021-10-09T10:19:13.000Z</time>
      </trkpt>
      <trkpt lat="47.2254" lon="-1.67833">
        <ele>82</ele>
        <time>2021-10-09T10:19:15.000Z</time>
      </trkpt>
      <trkpt lat="47.22551" lon="-1.67834">
        <ele>83</ele>
        <time>2021-10-09T10:19:17.000Z</time>
      </trkpt>
      <trkpt lat="47.22561" lon="-1.67835">
        <ele>83</ele>
        <time>2021-10-09T10:19:19.000Z</time>
      </trkpt>
      <trkpt lat="47.22571" lon="-1.67835">
        <ele>84</ele>
        <time>2021-10-09T10:19:21.000Z</time>
      </trkpt>
      <trkpt lat="47.2258" lon="-1.67828">
        <ele>84</ele>
        <time>2021-10-09T10:19:23.000Z</time>
      </trkpt>
      <trkpt lat="47.2259" lon="-1.67824">
        <ele>85</ele>
        <time>2021-10-09T10:19:25.000Z</time>
      </trkpt>
      <trkpt lat="47.22601" lon="-1.6783">
        <ele>84</ele>
        <time>2021-10-09T10:19:27.000Z</time>
      </trkpt>
      <trkpt lat="47.22612" lon="-1.67834">
        <ele>84</ele>
        <time>2021-10-09T10:19:29.000Z</time>
      </trkpt>
      <trkpt lat="47.22622" lon="-1.67834">
        <ele>84</ele>
        <time>2021-10-09T10:19:31.000Z</time>
      </trkpt>
      <trkpt lat="47.22632" lon="-1.67832">
        <ele>85</ele>
        <time>2021-10-09T10:19:33.000Z</time>
      </trkpt>
      <trkpt lat="47.22643" lon="-1.67831">
        <ele>86</ele>
        <time>2021-10-09T10:19:35.000Z</time>
      </trkpt>
      <trkpt lat="47.22653" lon="-1.67829">
        <ele>86</ele>
        <time>2021-10-09T10:19:37.000Z</time>
      </trkpt>
      <trkpt lat="47.22662" lon="-1.67827">
        <ele>87</ele>
        <time>2021-10-09T10:19:39.000Z</time>
      </trkpt>
      <trkpt lat="47.22671" lon="-1.67825">
        <ele>87</ele>
        <time>2021-10-09T10:19:41.000Z</time>
      </trkpt>
      <trkpt lat="47.22681" lon="-1.67822">
        <ele>88</ele>
        <time>2021-10-09T10:19:43.000Z</time>
      </trkpt>
      <trkpt lat="47.22692" lon="-1.6782">
        <ele>88</ele>
        <time>2021-10-09T10:19:45.000Z</time>
      </trkpt>
      <trkpt lat="47.22702" lon="-1.67818">
        <ele>88</ele>
        <time>2021-10-09T10:19:47.000Z</time>
      </trkpt>
      <trkpt lat="47.22713" lon="-1.67816">
        <ele>88</ele>
        <time>2021-10-09T10:19:49.000Z</time>
      </trkpt>
      <trkpt lat="47.22723" lon="-1.67813">
        <ele>89</ele>
        <time>2021-10-09T10:19:51.000Z</time>
      </trkpt>
      <trkpt lat="47.22733" lon="-1.67811">
        <ele>89</ele>
        <time>2021-10-09T10:19:53.000Z</time>
      </trkpt>
      <trkpt lat="47.22743" lon="-1.67809">
        <ele>90</ele>
        <time>2021-10-09T10:19:55.000Z</time>
      </trkpt>
      <trkpt lat="47.22753" lon="-1.67806">
        <ele>90</ele>
        <time>2021-10-09T10:19:57.000Z</time>
      </trkpt>
      <trkpt lat="47.22763" lon="-1.67803">
        <ele>90</ele>
        <time>2021-10-09T10:19:59.000Z</time>
      </trkpt>
      <trkpt lat="47.22773" lon="-1.67799">
        <ele>91</ele>
        <time>2021-10-09T10:20:01.000Z</time>
      </trkpt>
      <trkpt lat="47.22783" lon="-1.67795">
        <ele>91</ele>
        <time>2021-10-09T10:20:03.000Z</time>
      </trkpt>
      <trkpt lat="47.22793" lon="-1.6779">
        <ele>92</ele>
        <time>2021-10-09T10:20:05.000Z</time>
      </trkpt>
      <trkpt lat="47.22803" lon="-1.67786">
        <ele>92</ele>
        <time>2021-10-09T10:20:07.000Z</time>
      </trkpt>
      <trkpt lat="47.22813" lon="-1.67782">
        <ele>93</ele>
        <time>2021-10-09T10:20:09.000Z</time>
      </trkpt>
      <trkpt lat="47.22823" lon="-1.67777">
        <ele>93</ele>
        <time>2021-10-09T10:20:11.000Z</time>
      </trkpt>
      <trkpt lat="47.22833" lon="-1.67772">
        <ele>93</ele>
        <time>2021-10-09T10:20:13.000Z</time>
      </trkpt>
      <trkpt lat="47.22844" lon="-1.67766">
        <ele>93</ele>
        <time>2021-10-09T10:20:15.000Z</time>
      </trkpt>
      <trkpt lat="47.22853" lon="-1.67761">
        <ele>93</ele>
        <time>2021-10-09T10:20:17.000Z</time>
      </trkpt>
      <trkpt lat="47.22863" lon="-1.67756">
        <ele>93</ele>
        <time>2021-10-09T10:20:19.000Z</time>
      </trkpt>
      <trkpt lat="47.22872" lon="-1.6775">
        <ele>93</ele>
        <time>2021-10-09T10:20:21.000Z</time>
      </trkpt>
      <trkpt lat="47.22882" lon="-1.67745">
        <ele>93</ele>
        <time>2021-10-09T10:20:23.000Z</time>
      </trkpt>
      <trkpt lat="47.22892" lon="-1.6774">
        <ele>94</ele>
        <time>2021-10-09T10:20:25.000Z</time>
      </trkpt>
      <trkpt lat="47.22902" lon="-1.67733">
        <ele>94</ele>
        <time>2021-10-09T10:20:27.000Z</time>
      </trkpt>
      <trkpt lat="47.22912" lon="-1.67725">
        <ele>94</ele>
        <time>2021-10-09T10:20:29.000Z</time>
      </trkpt>
      <trkpt lat="47.22921" lon="-1.67719">
        <ele>95</ele>
        <time>2021-10-09T10:20:31.000Z</time>
      </trkpt>
      <trkpt lat="47.22932" lon="-1.67712">
        <ele>95</ele>
        <time>2021-10-09T10:20:33.000Z</time>
      </trkpt>
      <trkpt lat="47.22942" lon="-1.67706">
        <ele>95</ele>
        <time>2021-10-09T10:20:35.000Z</time>
      </trkpt>
      <trkpt lat="47.22951" lon="-1.67699">
        <ele>95</ele>
        <time>2021-10-09T10:20:37.000Z</time>
      </trkpt>
      <trkpt lat="47.22961" lon="-1.67693">
        <ele>95</ele>
        <time>2021-10-09T10:20:39.000Z</time>
      </trkpt>
      <trkpt lat="47.22971" lon="-1.67686">
        <ele>95</ele>
        <time>2021-10-09T10:20:41.000Z</time>
      </trkpt>
      <trkpt lat="47.22982" lon="-1.67679">
        <ele>95</ele>
        <time>2021-10-09T10:20:43.000Z</time>
      </trkpt>
      <trkpt lat="47.22992" lon="-1.67672">
        <ele>95</ele>
        <time>2021-10-09T10:20:45.000Z</time>
      </trkpt>
      <trkpt lat="47.23002" lon="-1.67664">
        <ele>95</ele>
        <time>2021-10-09T10:20:47.000Z</time>
      </trkpt>
      <trkpt lat="47.23012" lon="-1.67657">
        <ele>96</ele>
        <time>2021-10-09T10:20:49.000Z</time>
      </trkpt>
      <trkpt lat="47.23022" lon="-1.67649">
        <ele>96</ele>
        <time>2021-10-09T10:20:51.000Z</time>
      </trkpt>
      <trkpt lat="47.23031" lon="-1.67639">
        <ele>96</ele>
        <time>2021-10-09T10:20:53.000Z</time>
      </trkpt>
      <trkpt lat="47.2304" lon="-1.67627">
        <ele>96</ele>
        <time>2021-10-09T10:20:55.000Z</time>
      </trkpt>
      <trkpt lat="47.23049" lon="-1.67615">
        <ele>96</ele>
        <time>2021-10-09T10:20:57.000Z</time>
      </trkpt>
      <trkpt lat="47.23057" lon="-1.67602">
        <ele>96</ele>
        <time>2021-10-09T10:20:59.000Z</time>
      </trkpt>
      <trkpt lat="47.23064" lon="-1.67589">
        <ele>96</ele>
        <time>2021-10-09T10:21:01.000Z</time>
      </trkpt>
      <trkpt lat="47.23073" lon="-1.67576">
        <ele>97</ele>
        <time>2021-10-09T10:21:03.000Z</time>
      </trkpt>
      <trkpt lat="47.23081" lon="-1.67565">
        <ele>97</ele>
        <time>2021-10-09T10:21:05.000Z</time>
      </trkpt>
      <trkpt lat="47.2309" lon="-1.67554">
        <ele>97</ele>
        <time>2021-10-09T10:21:07.000Z</time>
      </trkpt>
      <trkpt lat="47.23098" lon="-1.67544">
        <ele>97</ele>
        <time>2021-10-09T10:21:09.000Z</time>
      </trkpt>
      <trkpt lat="47.23107" lon="-1.67533">
        <ele>97</ele>
        <time>2021-10-09T10:21:11.000Z</time>
      </trkpt>
      <trkpt lat="47.23116" lon="-1.67522">
        <ele>97</ele>
        <time>2021-10-09T10:21:13.000Z</time>
      </trkpt>
      <trkpt lat="47.23125" lon="-1.67512">
        <ele>97</ele>
        <time>2021-10-09T10:21:15.000Z</time>
      </trkpt>
      <trkpt lat="47.23134" lon="-1.67503">
        <ele>97</ele>
        <time>2021-10-09T10:21:17.000Z</time>
      </trkpt>
      <trkpt lat="47.23143" lon="-1.67494">
        <ele>97</ele>
        <time>2021-10-09T10:21:19.000Z</time>
      </trkpt>
      <trkpt lat="47.23152" lon="-1.67484">
        <ele>97</ele>
        <time>2021-10-09T10:21:21.000Z</time>
      </trkpt>
      <trkpt lat="47.23161" lon="-1.67474">
        <ele>98</ele>
        <time>2021-10-09T10:21:23.000Z</time>
      </trkpt>
      <trkpt lat="47.2317" lon="-1.67464">
        <ele>98</ele>
        <time>2021-10-09T10:21:25.000Z</time>
      </trkpt>
      <trkpt lat="47.23178" lon="-1.67456">
        <ele>98</ele>
        <time>2021-10-09T10:21:27.000Z</time>
      </trkpt>
      <trkpt lat="47.23187" lon="-1.67447">
        <ele>99</ele>
        <time>2021-10-09T10:21:29.000Z</time>
      </trkpt>
      <trkpt lat="47.23195" lon="-1.67439">
        <ele>99</ele>
        <time>2021-10-09T10:21:31.000Z</time>
      </trkpt>
      <trkpt lat="47.23203" lon="-1.6743">
        <ele>99</ele>
        <time>2021-10-09T10:21:33.000Z</time>
      </trkpt>
      <trkpt lat="47.23211" lon="-1.6742">
        <ele>100</ele>
        <time>2021-10-09T10:21:35.000Z</time>
      </trkpt>
      <trkpt lat="47.2322" lon="-1.6741">
        <ele>101</ele>
        <time>2021-10-09T10:21:37.000Z</time>
      </trkpt>
      <trkpt lat="47.23228" lon="-1.67403">
        <ele>101</ele>
        <time>2021-10-09T10:21:39.000Z</time>
      </trkpt>
      <trkpt lat="47.23237" lon="-1.67396">
        <ele>102</ele>
        <time>2021-10-09T10:21:41.000Z</time>
      </trkpt>
      <trkpt lat="47.23245" lon="-1.67388">
        <ele>102</ele>
        <time>2021-10-09T10:21:43.000Z</time>
      </trkpt>
      <trkpt lat="47.23254" lon="-1.67381">
        <ele>102</ele>
        <time>2021-10-09T10:21:45.000Z</time>
      </trkpt>
      <trkpt lat="47.23262" lon="-1.67375">
        <ele>103</ele>
        <time>2021-10-09T10:21:47.000Z</time>
      </trkpt>
      <trkpt lat="47.2327" lon="-1.67369">
        <ele>103</ele>
        <time>2021-10-09T10:21:49.000Z</time>
      </trkpt>
      <trkpt lat="47.23279" lon="-1.67363">
        <ele>104</ele>
        <time>2021-10-09T10:21:51.000Z</time>
      </trkpt>
      <trkpt lat="47.23287" lon="-1.67357">
        <ele>104</ele>
        <time>2021-10-09T10:21:53.000Z</time>
      </trkpt>
      <trkpt lat="47.23296" lon="-1.67351">
        <ele>104</ele>
        <time>2021-10-09T10:21:55.000Z</time>
      </trkpt>
      <trkpt lat="47.23305" lon="-1.67346">
        <ele>104</ele>
        <time>2021-10-09T10:21:57.000Z</time>
      </trkpt>
      <trkpt lat="47.23313" lon="-1.67341">
        <ele>105</ele>
        <time>2021-10-09T10:21:59.000Z</time>
      </trkpt>
      <trkpt lat="47.23321" lon="-1.67335">
        <ele>105</ele>
        <time>2021-10-09T10:22:01.000Z</time>
      </trkpt>
      <trkpt lat="47.2333" lon="-1.67328">
        <ele>106</ele>
        <time>2021-10-09T10:22:03.000Z</time>
      </trkpt>
      <trkpt lat="47.2334" lon="-1.67321">
        <ele>106</ele>
        <time>2021-10-09T10:22:05.000Z</time>
      </trkpt>
      <trkpt lat="47.23349" lon="-1.67315">
        <ele>106</ele>
        <time>2021-10-09T10:22:07.000Z</time>
      </trkpt>
      <trkpt lat="47.23358" lon="-1.6731">
        <ele>107</ele>
        <time>2021-10-09T10:22:09.000Z</time>
      </trkpt>
      <trkpt lat="47.23366" lon="-1.67304">
        <ele>107</ele>
        <time>2021-10-09T10:22:11.000Z</time>
      </trkpt>
      <trkpt lat="47.23376" lon="-1.67297">
        <ele>107</ele>
        <time>2021-10-09T10:22:13.000Z</time>
      </trkpt>
      <trkpt lat="47.23385" lon="-1.67291">
        <ele>108</ele>
        <time>2021-10-09T10:22:15.000Z</time>
      </trkpt>
      <trkpt lat="47.23394" lon="-1.67285">
        <ele>108</ele>
        <time>2021-10-09T10:22:17.000Z</time>
      </trkpt>
      <trkpt lat="47.23404" lon="-1.67278">
        <ele>108</ele>
        <time>2021-10-09T10:22:19.000Z</time>
      </trkpt>
      <trkpt lat="47.23414" lon="-1.67272">
        <ele>108</ele>
        <time>2021-10-09T10:22:21.000Z</time>
      </trkpt>
      <trkpt lat="47.23423" lon="-1.67265">
        <ele>108</ele>
        <time>2021-10-09T10:22:23.000Z</time>
      </trkpt>
      <trkpt lat="47.23432" lon="-1.67259">
        <ele>108</ele>
        <time>2021-10-09T10:22:25.000Z</time>
      </trkpt>
      <trkpt lat="47.23441" lon="-1.67252">
        <ele>108</ele>
        <time>2021-10-09T10:22:27.000Z</time>
      </trkpt>
      <trkpt lat="47.2345" lon="-1.67246">
        <ele>109</ele>
        <time>2021-10-09T10:22:29.000Z</time>
      </trkpt>
      <trkpt lat="47.23459" lon="-1.67239">
        <ele>109</ele>
        <time>2021-10-09T10:22:31.000Z</time>
      </trkpt>
      <trkpt lat="47.23469" lon="-1.67233">
        <ele>109</ele>
        <time>2021-10-09T10:22:33.000Z</time>
      </trkpt>
      <trkpt lat="47.23479" lon="-1.67226">
        <ele>109</ele>
        <time>2021-10-09T10:22:35.000Z</time>
      </trkpt>
      <trkpt lat="47.23488" lon="-1.67219">
        <ele>109</ele>
        <time>2021-10-09T10:22:37.000Z</time>
      </trkpt>
      <trkpt lat="47.23497" lon="-1.67213">
        <ele>109</ele>
        <time>2021-10-09T10:22:39.000Z</time>
      </trkpt>
      <trkpt lat="47.23507" lon="-1.67207">
        <ele>109</ele>
        <time>2021-10-09T10:22:41.000Z</time>
      </trkpt>
      <trkpt lat="47.23517" lon="-1.67201">
        <ele>109</ele>
        <time>2021-10-09T10:22:43.000Z</time>
      </trkpt>
      <trkpt lat="47.23528" lon="-1.67195">
        <ele>109</ele>
        <time>2021-10-09T10:22:45.000Z</time>
      </trkpt>
      <trkpt lat="47.23539" lon="-1.6719">
        <ele>109</ele>
        <time>2021-10-09T10:22:47.000Z</time>
      </trkpt>
      <trkpt lat="47.2355" lon="-1.67186">
        <ele>109</ele>
        <time>2021-10-09T10:22:49.000Z</time>
      </trkpt>
      <trkpt lat="47.23562" lon="-1.67183">
        <ele>108</ele>
        <time>2021-10-09T10:22:51.000Z</time>
      </trkpt>
      <trkpt lat="47.23573" lon="-1.67181">
        <ele>109</ele>
        <time>2021-10-09T10:22:53.000Z</time>
      </trkpt>
      <trkpt lat="47.23585" lon="-1.67179">
        <ele>109</ele>
        <time>2021-10-09T10:22:55.000Z</time>
      </trkpt>
      <trkpt lat="47.23598" lon="-1.67178">
        <ele>109</ele>
        <time>2021-10-09T10:22:57.000Z</time>
      </trkpt>
      <trkpt lat="47.2361" lon="-1.67177">
        <ele>109</ele>
        <time>2021-10-09T10:22:59.000Z</time>
      </trkpt>
      <trkpt lat="47.2362" lon="-1.67175">
        <ele>109</ele>
        <time>2021-10-09T10:23:01.000Z</time>
      </trkpt>
      <trkpt lat="47.23628" lon="-1.67169">
        <ele>109</ele>
        <time>2021-10-09T10:23:03.000Z</time>
      </trkpt>
      <trkpt lat="47.23636" lon="-1.67158">
        <ele>109</ele>
        <time>2021-10-09T10:23:05.000Z</time>
      </trkpt>
      <trkpt lat="47.23649" lon="-1.67156">
        <ele>109</ele>
        <time>2021-10-09T10:23:07.000Z</time>
      </trkpt>
      <trkpt lat="47.23659" lon="-1.67164">
        <ele>110</ele>
        <time>2021-10-09T10:23:09.000Z</time>
      </trkpt>
      <trkpt lat="47.23669" lon="-1.67172">
        <ele>110</ele>
        <time>2021-10-09T10:23:11.000Z</time>
      </trkpt>
      <trkpt lat="47.23682" lon="-1.6717">
        <ele>110</ele>
        <time>2021-10-09T10:23:13.000Z</time>
      </trkpt>
      <trkpt lat="47.23694" lon="-1.67168">
        <ele>110</ele>
        <time>2021-10-09T10:23:15.000Z</time>
      </trkpt>
      <trkpt lat="47.23706" lon="-1.67165">
        <ele>110</ele>
        <time>2021-10-09T10:23:17.000Z</time>
      </trkpt>
      <trkpt lat="47.23718" lon="-1.67162">
        <ele>110</ele>
        <time>2021-10-09T10:23:19.000Z</time>
      </trkpt>
      <trkpt lat="47.2373" lon="-1.67159">
        <ele>110</ele>
        <time>2021-10-09T10:23:21.000Z</time>
      </trkpt>
      <trkpt lat="47.23743" lon="-1.67155">
        <ele>110</ele>
        <time>2021-10-09T10:23:23.000Z</time>
      </trkpt>
      <trkpt lat="47.23754" lon="-1.6715">
        <ele>109</ele>
        <time>2021-10-09T10:23:25.000Z</time>
      </trkpt>
      <trkpt lat="47.23766" lon="-1.67146">
        <ele>109</ele>
        <time>2021-10-09T10:23:27.000Z</time>
      </trkpt>
      <trkpt lat="47.23778" lon="-1.67141">
        <ele>110</ele>
        <time>2021-10-09T10:23:29.000Z</time>
      </trkpt>
      <trkpt lat="47.23789" lon="-1.67137">
        <ele>110</ele>
        <time>2021-10-09T10:23:31.000Z</time>
      </trkpt>
      <trkpt lat="47.23801" lon="-1.67134">
        <ele>110</ele>
        <time>2021-10-09T10:23:33.000Z</time>
      </trkpt>
      <trkpt lat="47.23812" lon="-1.67131">
        <ele>109</ele>
        <time>2021-10-09T10:23:35.000Z</time>
      </trkpt>
      <trkpt lat="47.23824" lon="-1.6713">
        <ele>109</ele>
        <time>2021-10-09T10:23:37.000Z</time>
      </trkpt>
      <trkpt lat="47.23836" lon="-1.6713">
        <ele>109</ele>
        <time>2021-10-09T10:23:39.000Z</time>
      </trkpt>
      <trkpt lat="47.23848" lon="-1.6713">
        <ele>110</ele>
        <time>2021-10-09T10:23:41.000Z</time>
      </trkpt>
      <trkpt lat="47.23859" lon="-1.67133">
        <ele>110</ele>
        <time>2021-10-09T10:23:43.000Z</time>
      </trkpt>
      <trkpt lat="47.2387" lon="-1.67137">
        <ele>111</ele>
        <time>2021-10-09T10:23:45.000Z</time>
      </trkpt>
      <trkpt lat="47.23881" lon="-1.67141">
        <ele>111</ele>
        <time>2021-10-09T10:23:47.000Z</time>
      </trkpt>
      <trkpt lat="47.23891" lon="-1.67146">
        <ele>112</ele>
        <time>2021-10-09T10:23:49.000Z</time>
      </trkpt>
      <trkpt lat="47.23902" lon="-1.67152">
        <ele>113</ele>
        <time>2021-10-09T10:23:51.000Z</time>
      </trkpt>
      <trkpt lat="47.23913" lon="-1.67159">
        <ele>113</ele>
        <time>2021-10-09T10:23:53.000Z</time>
      </trkpt>
      <trkpt lat="47.23923" lon="-1.67165">
        <ele>113</ele>
        <time>2021-10-09T10:23:55.000Z</time>
      </trkpt>
      <trkpt lat="47.23933" lon="-1.67172">
        <ele>113</ele>
        <time>2021-10-09T10:23:57.000Z</time>
      </trkpt>
      <trkpt lat="47.23942" lon="-1.67179">
        <ele>113</ele>
        <time>2021-10-09T10:23:59.000Z</time>
      </trkpt>
      <trkpt lat="47.2395" lon="-1.67188">
        <ele>114</ele>
        <time>2021-10-09T10:24:01.000Z</time>
      </trkpt>
      <trkpt lat="47.23958" lon="-1.67198">
        <ele>115</ele>
        <time>2021-10-09T10:24:03.000Z</time>
      </trkpt>
      <trkpt lat="47.23966" lon="-1.6721">
        <ele>115</ele>
        <time>2021-10-09T10:24:05.000Z</time>
      </trkpt>
      <trkpt lat="47.23973" lon="-1.67223">
        <ele>115</ele>
        <time>2021-10-09T10:24:07.000Z</time>
      </trkpt>
      <trkpt lat="47.23981" lon="-1.67235">
        <ele>114</ele>
        <time>2021-10-09T10:24:09.000Z</time>
      </trkpt>
      <trkpt lat="47.2399" lon="-1.67246">
        <ele>114</ele>
        <time>2021-10-09T10:24:11.000Z</time>
      </trkpt>
      <trkpt lat="47.24" lon="-1.67256">
        <ele>114</ele>
        <time>2021-10-09T10:24:13.000Z</time>
      </trkpt>
      <trkpt lat="47.2401" lon="-1.67264">
        <ele>114</ele>
        <time>2021-10-09T10:24:15.000Z</time>
      </trkpt>
      <trkpt lat="47.24022" lon="-1.67273">
        <ele>113</ele>
        <time>2021-10-09T10:24:17.000Z</time>
      </trkpt>
      <trkpt lat="47.24036" lon="-1.67279">
        <ele>112</ele>
        <time>2021-10-09T10:24:19.000Z</time>
      </trkpt>
      <trkpt lat="47.24051" lon="-1.67282">
        <ele>111</ele>
        <time>2021-10-09T10:24:21.000Z</time>
      </trkpt>
      <trkpt lat="47.24068" lon="-1.67285">
        <ele>110</ele>
        <time>2021-10-09T10:24:23.000Z</time>
      </trkpt>
      <trkpt lat="47.24084" lon="-1.67287">
        <ele>109</ele>
        <time>2021-10-09T10:24:25.000Z</time>
      </trkpt>
      <trkpt lat="47.24101" lon="-1.67289">
        <ele>107</ele>
        <time>2021-10-09T10:24:27.000Z</time>
      </trkpt>
      <trkpt lat="47.24118" lon="-1.67292">
        <ele>106</ele>
        <time>2021-10-09T10:24:29.000Z</time>
      </trkpt>
      <trkpt lat="47.24134" lon="-1.67295">
        <ele>106</ele>
        <time>2021-10-09T10:24:31.000Z</time>
      </trkpt>
      <trkpt lat="47.24151" lon="-1.67294">
        <ele>106</ele>
        <time>2021-10-09T10:24:33.000Z</time>
      </trkpt>
      <trkpt lat="47.24166" lon="-1.6729">
        <ele>106</ele>
        <time>2021-10-09T10:24:35.000Z</time>
      </trkpt>
      <trkpt lat="47.24181" lon="-1.67286">
        <ele>106</ele>
        <time>2021-10-09T10:24:37.000Z</time>
      </trkpt>
      <trkpt lat="47.24195" lon="-1.6728">
        <ele>105</ele>
        <time>2021-10-09T10:24:39.000Z</time>
      </trkpt>
      <trkpt lat="47.24208" lon="-1.67273">
        <ele>105</ele>
        <time>2021-10-09T10:24:41.000Z</time>
      </trkpt>
      <trkpt lat="47.2422" lon="-1.67263">
        <ele>105</ele>
        <time>2021-10-09T10:24:43.000Z</time>
      </trkpt>
      <trkpt lat="47.24225" lon="-1.67246">
        <ele>104</ele>
        <time>2021-10-09T10:24:45.000Z</time>
      </trkpt>
      <trkpt lat="47.24226" lon="-1.67225">
        <ele>104</ele>
        <time>2021-10-09T10:24:47.000Z</time>
      </trkpt>
      <trkpt lat="47.24228" lon="-1.67206">
        <ele>104</ele>
        <time>2021-10-09T10:24:49.000Z</time>
      </trkpt>
      <trkpt lat="47.24236" lon="-1.67194">
        <ele>103</ele>
        <time>2021-10-09T10:24:51.000Z</time>
      </trkpt>
      <trkpt lat="47.24244" lon="-1.67183">
        <ele>103</ele>
        <time>2021-10-09T10:24:53.000Z</time>
      </trkpt>
      <trkpt lat="47.24246" lon="-1.67164">
        <ele>103</ele>
        <time>2021-10-09T10:24:55.000Z</time>
      </trkpt>
      <trkpt lat="47.24245" lon="-1.67144">
        <ele>102</ele>
        <time>2021-10-09T10:24:57.000Z</time>
      </trkpt>
      <trkpt lat="47.24243" lon="-1.67126">
        <ele>102</ele>
        <time>2021-10-09T10:24:59.000Z</time>
      </trkpt>
      <trkpt lat="47.24242" lon="-1.67108">
        <ele>102</ele>
        <time>2021-10-09T10:25:01.000Z</time>
      </trkpt>
      <trkpt lat="47.24242" lon="-1.6709">
        <ele>102</ele>
        <time>2021-10-09T10:25:03.000Z</time>
      </trkpt>
      <trkpt lat="47.24243" lon="-1.67073">
        <ele>102</ele>
        <time>2021-10-09T10:25:05.000Z</time>
      </trkpt>
      <trkpt lat="47.24244" lon="-1.67056">
        <ele>102</ele>
        <time>2021-10-09T10:25:07.000Z</time>
      </trkpt>
      <trkpt lat="47.24245" lon="-1.67039">
        <ele>102</ele>
        <time>2021-10-09T10:25:09.000Z</time>
      </trkpt>
      <trkpt lat="47.24247" lon="-1.67022">
        <ele>102</ele>
        <time>2021-10-09T10:25:11.000Z</time>
      </trkpt>
      <trkpt lat="47.24249" lon="-1.67004">
        <ele>102</ele>
        <time>2021-10-09T10:25:13.000Z</time>
      </trkpt>
      <trkpt lat="47.24253" lon="-1.66987">
        <ele>102</ele>
        <time>2021-10-09T10:25:15.000Z</time>
      </trkpt>
      <trkpt lat="47.24256" lon="-1.6697">
        <ele>102</ele>
        <time>2021-10-09T10:25:17.000Z</time>
      </trkpt>
      <trkpt lat="47.24259" lon="-1.66954">
        <ele>102</ele>
        <time>2021-10-09T10:25:19.000Z</time>
      </trkpt>
      <trkpt lat="47.24263" lon="-1.66937">
        <ele>102</ele>
        <time>2021-10-09T10:25:21.000Z</time>
      </trkpt>
      <trkpt lat="47.24266" lon="-1.6692">
        <ele>102</ele>
        <time>2021-10-09T10:25:23.000Z</time>
      </trkpt>
      <trkpt lat="47.24269" lon="-1.66902">
        <ele>102</ele>
        <time>2021-10-09T10:25:25.000Z</time>
      </trkpt>
      <trkpt lat="47.24273" lon="-1.66884">
        <ele>102</ele>
        <time>2021-10-09T10:25:27.000Z</time>
      </trkpt>
      <trkpt lat="47.24277" lon="-1.66867">
        <ele>102</ele>
        <time>2021-10-09T10:25:29.000Z</time>
      </trkpt>
      <trkpt lat="47.24283" lon="-1.6685">
        <ele>102</ele>
        <time>2021-10-09T10:25:31.000Z</time>
      </trkpt>
      <trkpt lat="47.24287" lon="-1.66834">
        <ele>102</ele>
        <time>2021-10-09T10:25:33.000Z</time>
      </trkpt>
      <trkpt lat="47.24292" lon="-1.66819">
        <ele>101</ele>
        <time>2021-10-09T10:25:35.000Z</time>
      </trkpt>
      <trkpt lat="47.24302" lon="-1.6681">
        <ele>102</ele>
        <time>2021-10-09T10:25:37.000Z</time>
      </trkpt>
      <trkpt lat="47.24315" lon="-1.66815">
        <ele>102</ele>
        <time>2021-10-09T10:25:39.000Z</time>
      </trkpt>
      <trkpt lat="47.24325" lon="-1.66829">
        <ele>102</ele>
        <time>2021-10-09T10:25:41.000Z</time>
      </trkpt>
      <trkpt lat="47.24337" lon="-1.66841">
        <ele>102</ele>
        <time>2021-10-09T10:25:43.000Z</time>
      </trkpt>
      <trkpt lat="47.24349" lon="-1.66851">
        <ele>101</ele>
        <time>2021-10-09T10:25:45.000Z</time>
      </trkpt>
      <trkpt lat="47.24362" lon="-1.66862">
        <ele>101</ele>
        <time>2021-10-09T10:25:47.000Z</time>
      </trkpt>
      <trkpt lat="47.24373" lon="-1.66874">
        <ele>102</ele>
        <time>2021-10-09T10:25:49.000Z</time>
      </trkpt>
      <trkpt lat="47.24384" lon="-1.66888">
        <ele>101</ele>
        <time>2021-10-09T10:25:51.000Z</time>
      </trkpt>
      <trkpt lat="47.24394" lon="-1.66902">
        <ele>101</ele>
        <time>2021-10-09T10:25:53.000Z</time>
      </trkpt>
      <trkpt lat="47.24406" lon="-1.66915">
        <ele>101</ele>
        <time>2021-10-09T10:25:55.000Z</time>
      </trkpt>
      <trkpt lat="47.24417" lon="-1.66929">
        <ele>101</ele>
        <time>2021-10-09T10:25:57.000Z</time>
      </trkpt>
      <trkpt lat="47.24426" lon="-1.66944">
        <ele>100</ele>
        <time>2021-10-09T10:25:59.000Z</time>
      </trkpt>
      <trkpt lat="47.24434" lon="-1.6696">
        <ele>100</ele>
        <time>2021-10-09T10:26:01.000Z</time>
      </trkpt>
      <trkpt lat="47.24444" lon="-1.66972">
        <ele>101</ele>
        <time>2021-10-09T10:26:03.000Z</time>
      </trkpt>
      <trkpt lat="47.24455" lon="-1.66985">
        <ele>101</ele>
        <time>2021-10-09T10:26:05.000Z</time>
      </trkpt>
      <trkpt lat="47.24465" lon="-1.66997">
        <ele>101</ele>
        <time>2021-10-09T10:26:07.000Z</time>
      </trkpt>
      <trkpt lat="47.24478" lon="-1.67005">
        <ele>100</ele>
        <time>2021-10-09T10:26:09.000Z</time>
      </trkpt>
      <trkpt lat="47.24491" lon="-1.67012">
        <ele>101</ele>
        <time>2021-10-09T10:26:11.000Z</time>
      </trkpt>
      <trkpt lat="47.24503" lon="-1.67019">
        <ele>101</ele>
        <time>2021-10-09T10:26:13.000Z</time>
      </trkpt>
      <trkpt lat="47.24515" lon="-1.67026">
        <ele>101</ele>
        <time>2021-10-09T10:26:15.000Z</time>
      </trkpt>
      <trkpt lat="47.24528" lon="-1.6703">
        <ele>102</ele>
        <time>2021-10-09T10:26:17.000Z</time>
      </trkpt>
      <trkpt lat="47.24541" lon="-1.67032">
        <ele>102</ele>
        <time>2021-10-09T10:26:19.000Z</time>
      </trkpt>
      <trkpt lat="47.24554" lon="-1.67033">
        <ele>102</ele>
        <time>2021-10-09T10:26:21.000Z</time>
      </trkpt>
      <trkpt lat="47.24567" lon="-1.67032">
        <ele>102</ele>
        <time>2021-10-09T10:26:23.000Z</time>
      </trkpt>
      <trkpt lat="47.24579" lon="-1.67031">
        <ele>102</ele>
        <time>2021-10-09T10:26:25.000Z</time>
      </trkpt>
      <trkpt lat="47.24592" lon="-1.67027">
        <ele>102</ele>
        <time>2021-10-09T10:26:27.000Z</time>
      </trkpt>
      <trkpt lat="47.24604" lon="-1.67022">
        <ele>102</ele>
        <time>2021-10-09T10:26:29.000Z</time>
      </trkpt>
      <trkpt lat="47.24617" lon="-1.67017">
        <ele>102</ele>
        <time>2021-10-09T10:26:31.000Z</time>
      </trkpt>
      <trkpt lat="47.2463" lon="-1.67012">
        <ele>102</ele>
        <time>2021-10-09T10:26:33.000Z</time>
      </trkpt>
      <trkpt lat="47.24642" lon="-1.67006">
        <ele>101</ele>
        <time>2021-10-09T10:26:35.000Z</time>
      </trkpt>
      <trkpt lat="47.24653" lon="-1.67001">
        <ele>101</ele>
        <time>2021-10-09T10:26:37.000Z</time>
      </trkpt>
      <trkpt lat="47.24663" lon="-1.66993">
        <ele>102</ele>
        <time>2021-10-09T10:26:39.000Z</time>
      </trkpt>
      <trkpt lat="47.24674" lon="-1.66982">
        <ele>102</ele>
        <time>2021-10-09T10:26:41.000Z</time>
      </trkpt>
      <trkpt lat="47.24684" lon="-1.66968">
        <ele>102</ele>
        <time>2021-10-09T10:26:43.000Z</time>
      </trkpt>
      <trkpt lat="47.24694" lon="-1.66953">
        <ele>102</ele>
        <time>2021-10-09T10:26:45.000Z</time>
      </trkpt>
      <trkpt lat="47.24704" lon="-1.6694">
        <ele>102</ele>
        <time>2021-10-09T10:26:47.000Z</time>
      </trkpt>
      <trkpt lat="47.24714" lon="-1.66931">
        <ele>102</ele>
        <time>2021-10-09T10:26:49.000Z</time>
      </trkpt>
      <trkpt lat="47.24727" lon="-1.66921">
        <ele>101</ele>
        <time>2021-10-09T10:26:51.000Z</time>
      </trkpt>
      <trkpt lat="47.2474" lon="-1.66914">
        <ele>100</ele>
        <time>2021-10-09T10:26:53.000Z</time>
      </trkpt>
      <trkpt lat="47.24752" lon="-1.66907">
        <ele>100</ele>
        <time>2021-10-09T10:26:55.000Z</time>
      </trkpt>
      <trkpt lat="47.24765" lon="-1.669">
        <ele>100</ele>
        <time>2021-10-09T10:26:57.000Z</time>
      </trkpt>
      <trkpt lat="47.24776" lon="-1.66892">
        <ele>100</ele>
        <time>2021-10-09T10:26:59.000Z</time>
      </trkpt>
      <trkpt lat="47.24787" lon="-1.66883">
        <ele>99</ele>
        <time>2021-10-09T10:27:01.000Z</time>
      </trkpt>
      <trkpt lat="47.24797" lon="-1.66872">
        <ele>99</ele>
        <time>2021-10-09T10:27:03.000Z</time>
      </trkpt>
      <trkpt lat="47.24808" lon="-1.66862">
        <ele>99</ele>
        <time>2021-10-09T10:27:05.000Z</time>
      </trkpt>
      <trkpt lat="47.24819" lon="-1.66853">
        <ele>99</ele>
        <time>2021-10-09T10:27:07.000Z</time>
      </trkpt>
      <trkpt lat="47.24832" lon="-1.66846">
        <ele>99</ele>
        <time>2021-10-09T10:27:09.000Z</time>
      </trkpt>
      <trkpt lat="47.24845" lon="-1.66842">
        <ele>98</ele>
        <time>2021-10-09T10:27:11.000Z</time>
      </trkpt>
      <trkpt lat="47.24858" lon="-1.66837">
        <ele>98</ele>
        <time>2021-10-09T10:27:13.000Z</time>
      </trkpt>
      <trkpt lat="47.24871" lon="-1.66833">
        <ele>98</ele>
        <time>2021-10-09T10:27:15.000Z</time>
      </trkpt>
      <trkpt lat="47.24884" lon="-1.6683">
        <ele>98</ele>
        <time>2021-10-09T10:27:17.000Z</time>
      </trkpt>
      <trkpt lat="47.24897" lon="-1.66825">
        <ele>98</ele>
        <time>2021-10-09T10:27:19.000Z</time>
      </trkpt>
      <trkpt lat="47.2491" lon="-1.66822">
        <ele>98</ele>
        <time>2021-10-09T10:27:21.000Z</time>
      </trkpt>
      <trkpt lat="47.24924" lon="-1.66817">
        <ele>97</ele>
        <time>2021-10-09T10:27:23.000Z</time>
      </trkpt>
      <trkpt lat="47.24937" lon="-1.66813">
        <ele>97</ele>
        <time>2021-10-09T10:27:25.000Z</time>
      </trkpt>
      <trkpt lat="47.24951" lon="-1.66809">
        <ele>96</ele>
        <time>2021-10-09T10:27:27.000Z</time>
      </trkpt>
      <trkpt lat="47.24964" lon="-1.66806">
        <ele>95</ele>
        <time>2021-10-09T10:27:29.000Z</time>
      </trkpt>
      <trkpt lat="47.24977" lon="-1.66803">
        <ele>95</ele>
        <time>2021-10-09T10:27:31.000Z</time>
      </trkpt>
      <trkpt lat="47.24991" lon="-1.66799">
        <ele>95</ele>
        <time>2021-10-09T10:27:33.000Z</time>
      </trkpt>
      <trkpt lat="47.25004" lon="-1.66796">
        <ele>95</ele>
        <time>2021-10-09T10:27:35.000Z</time>
      </trkpt>
      <trkpt lat="47.25018" lon="-1.66794">
        <ele>95</ele>
        <time>2021-10-09T10:27:37.000Z</time>
      </trkpt>
      <trkpt lat="47.25031" lon="-1.66793">
        <ele>95</ele>
        <time>2021-10-09T10:27:39.000Z</time>
      </trkpt>
      <trkpt lat="47.25046" lon="-1.66793">
        <ele>95</ele>
        <time>2021-10-09T10:27:41.000Z</time>
      </trkpt>
      <trkpt lat="47.2506" lon="-1.66795">
        <ele>95</ele>
        <time>2021-10-09T10:27:43.000Z</time>
      </trkpt>
      <trkpt lat="47.25074" lon="-1.66796">
        <ele>95</ele>
        <time>2021-10-09T10:27:45.000Z</time>
      </trkpt>
      <trkpt lat="47.25088" lon="-1.66798">
        <ele>95</ele>
        <time>2021-10-09T10:27:47.000Z</time>
      </trkpt>
      <trkpt lat="47.25102" lon="-1.668">
        <ele>95</ele>
        <time>2021-10-09T10:27:49.000Z</time>
      </trkpt>
      <trkpt lat="47.25118" lon="-1.66804">
        <ele>95</ele>
        <time>2021-10-09T10:27:51.000Z</time>
      </trkpt>
      <trkpt lat="47.25134" lon="-1.66809">
        <ele>94</ele>
        <time>2021-10-09T10:27:53.000Z</time>
      </trkpt>
      <trkpt lat="47.2515" lon="-1.66814">
        <ele>94</ele>
        <time>2021-10-09T10:27:55.000Z</time>
      </trkpt>
      <trkpt lat="47.25166" lon="-1.6682">
        <ele>94</ele>
        <time>2021-10-09T10:27:57.000Z</time>
      </trkpt>
      <trkpt lat="47.25182" lon="-1.66825">
        <ele>93</ele>
        <time>2021-10-09T10:27:59.000Z</time>
      </trkpt>
      <trkpt lat="47.25198" lon="-1.66829">
        <ele>93</ele>
        <time>2021-10-09T10:28:01.000Z</time>
      </trkpt>
      <trkpt lat="47.25212" lon="-1.66833">
        <ele>93</ele>
        <time>2021-10-09T10:28:03.000Z</time>
      </trkpt>
      <trkpt lat="47.25226" lon="-1.66835">
        <ele>93</ele>
        <time>2021-10-09T10:28:05.000Z</time>
      </trkpt>
      <trkpt lat="47.25238" lon="-1.66837">
        <ele>94</ele>
        <time>2021-10-09T10:28:07.000Z</time>
      </trkpt>
      <trkpt lat="47.2525" lon="-1.66839">
        <ele>94</ele>
        <time>2021-10-09T10:28:09.000Z</time>
      </trkpt>
      <trkpt lat="47.25262" lon="-1.6684">
        <ele>94</ele>
        <time>2021-10-09T10:28:11.000Z</time>
      </trkpt>
      <trkpt lat="47.25274" lon="-1.66842">
        <ele>95</ele>
        <time>2021-10-09T10:28:13.000Z</time>
      </trkpt>
      <trkpt lat="47.25285" lon="-1.66844">
        <ele>95</ele>
        <time>2021-10-09T10:28:15.000Z</time>
      </trkpt>
      <trkpt lat="47.25297" lon="-1.66846">
        <ele>96</ele>
        <time>2021-10-09T10:28:17.000Z</time>
      </trkpt>
      <trkpt lat="47.25309" lon="-1.66848">
        <ele>96</ele>
        <time>2021-10-09T10:28:19.000Z</time>
      </trkpt>
      <trkpt lat="47.2532" lon="-1.66849">
        <ele>97</ele>
        <time>2021-10-09T10:28:21.000Z</time>
      </trkpt>
      <trkpt lat="47.25332" lon="-1.6685">
        <ele>97</ele>
        <time>2021-10-09T10:28:23.000Z</time>
      </trkpt>
      <trkpt lat="47.25343" lon="-1.66853">
        <ele>98</ele>
        <time>2021-10-09T10:28:25.000Z</time>
      </trkpt>
      <trkpt lat="47.25354" lon="-1.66855">
        <ele>98</ele>
        <time>2021-10-09T10:28:27.000Z</time>
      </trkpt>
      <trkpt lat="47.25366" lon="-1.66857">
        <ele>98</ele>
        <time>2021-10-09T10:28:29.000Z</time>
      </trkpt>
      <trkpt lat="47.25378" lon="-1.66858">
        <ele>98</ele>
        <time>2021-10-09T10:28:31.000Z</time>
      </trkpt>
      <trkpt lat="47.2539" lon="-1.6686">
        <ele>99</ele>
        <time>2021-10-09T10:28:33.000Z</time>
      </trkpt>
      <trkpt lat="47.25402" lon="-1.66861">
        <ele>99</ele>
        <time>2021-10-09T10:28:35.000Z</time>
      </trkpt>
      <trkpt lat="47.25413" lon="-1.66863">
        <ele>99</ele>
        <time>2021-10-09T10:28:37.000Z</time>
      </trkpt>
      <trkpt lat="47.25425" lon="-1.66865">
        <ele>99</ele>
        <time>2021-10-09T10:28:39.000Z</time>
      </trkpt>
      <trkpt lat="47.25437" lon="-1.66867">
        <ele>99</ele>
        <time>2021-10-09T10:28:41.000Z</time>
      </trkpt>
      <trkpt lat="47.25448" lon="-1.66869">
        <ele>99</ele>
        <time>2021-10-09T10:28:43.000Z</time>
      </trkpt>
      <trkpt lat="47.2546" lon="-1.66871">
        <ele>100</ele>
        <time>2021-10-09T10:28:45.000Z</time>
      </trkpt>
      <trkpt lat="47.25472" lon="-1.66872">
        <ele>100</ele>
        <time>2021-10-09T10:28:47.000Z</time>
      </trkpt>
      <trkpt lat="47.25484" lon="-1.66874">
        <ele>100</ele>
        <time>2021-10-09T10:28:49.000Z</time>
      </trkpt>
      <trkpt lat="47.25495" lon="-1.66876">
        <ele>101</ele>
        <time>2021-10-09T10:28:51.000Z</time>
      </trkpt>
      <trkpt lat="47.25506" lon="-1.66877">
        <ele>101</ele>
        <time>2021-10-09T10:28:53.000Z</time>
      </trkpt>
      <trkpt lat="47.25518" lon="-1.66876">
        <ele>101</ele>
        <time>2021-10-09T10:28:55.000Z</time>
      </trkpt>
      <trkpt lat="47.25529" lon="-1.66876">
        <ele>101</ele>
        <time>2021-10-09T10:28:57.000Z</time>
      </trkpt>
      <trkpt lat="47.25541" lon="-1.6688">
        <ele>101</ele>
        <time>2021-10-09T10:28:59.000Z</time>
      </trkpt>
      <trkpt lat="47.25553" lon="-1.66882">
        <ele>101</ele>
        <time>2021-10-09T10:29:01.000Z</time>
      </trkpt>
      <trkpt lat="47.25565" lon="-1.66884">
        <ele>102</ele>
        <time>2021-10-09T10:29:03.000Z</time>
      </trkpt>
      <trkpt lat="47.25577" lon="-1.66885">
        <ele>102</ele>
        <time>2021-10-09T10:29:05.000Z</time>
      </trkpt>
      <trkpt lat="47.25589" lon="-1.66886">
        <ele>102</ele>
        <time>2021-10-09T10:29:07.000Z</time>
      </trkpt>
      <trkpt lat="47.25601" lon="-1.66887">
        <ele>102</ele>
        <time>2021-10-09T10:29:09.000Z</time>
      </trkpt>
      <trkpt lat="47.25614" lon="-1.66887">
        <ele>102</ele>
        <time>2021-10-09T10:29:11.000Z</time>
      </trkpt>
      <trkpt lat="47.25625" lon="-1.66888">
        <ele>103</ele>
        <time>2021-10-09T10:29:13.000Z</time>
      </trkpt>
      <trkpt lat="47.25638" lon="-1.66889">
        <ele>103</ele>
        <time>2021-10-09T10:29:15.000Z</time>
      </trkpt>
      <trkpt lat="47.2565" lon="-1.66891">
        <ele>103</ele>
        <time>2021-10-09T10:29:17.000Z</time>
      </trkpt>
      <trkpt lat="47.25662" lon="-1.66891">
        <ele>102</ele>
        <time>2021-10-09T10:29:19.000Z</time>
      </trkpt>
      <trkpt lat="47.25673" lon="-1.66891">
        <ele>103</ele>
        <time>2021-10-09T10:29:21.000Z</time>
      </trkpt>
      <trkpt lat="47.25685" lon="-1.66888">
        <ele>103</ele>
        <time>2021-10-09T10:29:23.000Z</time>
      </trkpt>
      <trkpt lat="47.25697" lon="-1.66885">
        <ele>102</ele>
        <time>2021-10-09T10:29:25.000Z</time>
      </trkpt>
      <trkpt lat="47.25709" lon="-1.66891">
        <ele>103</ele>
        <time>2021-10-09T10:29:27.000Z</time>
      </trkpt>
      <trkpt lat="47.25719" lon="-1.66896">
        <ele>103</ele>
        <time>2021-10-09T10:29:29.000Z</time>
      </trkpt>
      <trkpt lat="47.25731" lon="-1.66898">
        <ele>103</ele>
        <time>2021-10-09T10:29:31.000Z</time>
      </trkpt>
      <trkpt lat="47.25744" lon="-1.66898">
        <ele>103</ele>
        <time>2021-10-09T10:29:33.000Z</time>
      </trkpt>
      <trkpt lat="47.25755" lon="-1.669">
        <ele>104</ele>
        <time>2021-10-09T10:29:35.000Z</time>
      </trkpt>
      <trkpt lat="47.25767" lon="-1.66901">
        <ele>104</ele>
        <time>2021-10-09T10:29:37.000Z</time>
      </trkpt>
      <trkpt lat="47.25779" lon="-1.66903">
        <ele>104</ele>
        <time>2021-10-09T10:29:39.000Z</time>
      </trkpt>
      <trkpt lat="47.2579" lon="-1.66905">
        <ele>105</ele>
        <time>2021-10-09T10:29:41.000Z</time>
      </trkpt>
      <trkpt lat="47.25801" lon="-1.66907">
        <ele>105</ele>
        <time>2021-10-09T10:29:43.000Z</time>
      </trkpt>
      <trkpt lat="47.25811" lon="-1.66909">
        <ele>105</ele>
        <time>2021-10-09T10:29:45.000Z</time>
      </trkpt>
      <trkpt lat="47.25822" lon="-1.66912">
        <ele>106</ele>
        <time>2021-10-09T10:29:47.000Z</time>
      </trkpt>
      <trkpt lat="47.25833" lon="-1.66914">
        <ele>106</ele>
        <time>2021-10-09T10:29:49.000Z</time>
      </trkpt>
      <trkpt lat="47.25845" lon="-1.66917">
        <ele>106</ele>
        <time>2021-10-09T10:29:51.000Z</time>
      </trkpt>
      <trkpt lat="47.25857" lon="-1.66919">
        <ele>107</ele>
        <time>2021-10-09T10:29:53.000Z</time>
      </trkpt>
      <trkpt lat="47.25867" lon="-1.66922">
        <ele>107</ele>
        <time>2021-10-09T10:29:55.000Z</time>
      </trkpt>
      <trkpt lat="47.25878" lon="-1.66927">
        <ele>107</ele>
        <time>2021-10-09T10:29:57.000Z</time>
      </trkpt>
      <trkpt lat="47.25889" lon="-1.6693">
        <ele>108</ele>
        <time>2021-10-09T10:29:59.000Z</time>
      </trkpt>
      <trkpt lat="47.259" lon="-1.66934">
        <ele>109</ele>
        <time>2021-10-09T10:30:01.000Z</time>
      </trkpt>
      <trkpt lat="47.2591" lon="-1.66939">
        <ele>109</ele>
        <time>2021-10-09T10:30:03.000Z</time>
      </trkpt>
      <trkpt lat="47.25921" lon="-1.66943">
        <ele>109</ele>
        <time>2021-10-09T10:30:05.000Z</time>
      </trkpt>
      <trkpt lat="47.25932" lon="-1.66948">
        <ele>109</ele>
        <time>2021-10-09T10:30:07.000Z</time>
      </trkpt>
      <trkpt lat="47.25943" lon="-1.66952">
        <ele>109</ele>
        <time>2021-10-09T10:30:09.000Z</time>
      </trkpt>
      <trkpt lat="47.25954" lon="-1.66957">
        <ele>110</ele>
        <time>2021-10-09T10:30:11.000Z</time>
      </trkpt>
      <trkpt lat="47.25965" lon="-1.66961">
        <ele>110</ele>
        <time>2021-10-09T10:30:13.000Z</time>
      </trkpt>
      <trkpt lat="47.25976" lon="-1.66966">
        <ele>110</ele>
        <time>2021-10-09T10:30:15.000Z</time>
      </trkpt>
      <trkpt lat="47.25987" lon="-1.66971">
        <ele>111</ele>
        <time>2021-10-09T10:30:17.000Z</time>
      </trkpt>
      <trkpt lat="47.25998" lon="-1.66975">
        <ele>110</ele>
        <time>2021-10-09T10:30:19.000Z</time>
      </trkpt>
      <trkpt lat="47.26008" lon="-1.6698">
        <ele>110</ele>
        <time>2021-10-09T10:30:21.000Z</time>
      </trkpt>
      <trkpt lat="47.26018" lon="-1.66984">
        <ele>111</ele>
        <time>2021-10-09T10:30:23.000Z</time>
      </trkpt>
      <trkpt lat="47.26027" lon="-1.66988">
        <ele>111</ele>
        <time>2021-10-09T10:30:25.000Z</time>
      </trkpt>
      <trkpt lat="47.26037" lon="-1.66993">
        <ele>112</ele>
        <time>2021-10-09T10:30:27.000Z</time>
      </trkpt>
      <trkpt lat="47.26046" lon="-1.66997">
        <ele>112</ele>
        <time>2021-10-09T10:30:29.000Z</time>
      </trkpt>
      <trkpt lat="47.26056" lon="-1.67002">
        <ele>112</ele>
        <time>2021-10-09T10:30:31.000Z</time>
      </trkpt>
      <trkpt lat="47.26066" lon="-1.67006">
        <ele>112</ele>
        <time>2021-10-09T10:30:33.000Z</time>
      </trkpt>
      <trkpt lat="47.26076" lon="-1.6701">
        <ele>113</ele>
        <time>2021-10-09T10:30:35.000Z</time>
      </trkpt>
      <trkpt lat="47.26087" lon="-1.67015">
        <ele>113</ele>
        <time>2021-10-09T10:30:37.000Z</time>
      </trkpt>
      <trkpt lat="47.26097" lon="-1.67021">
        <ele>113</ele>
        <time>2021-10-09T10:30:39.000Z</time>
      </trkpt>
      <trkpt lat="47.26113" lon="-1.67027">
        <ele>114</ele>
        <time>2021-10-09T10:30:42.000Z</time>
      </trkpt>
      <trkpt lat="47.26123" lon="-1.67032">
        <ele>114</ele>
        <time>2021-10-09T10:30:44.000Z</time>
      </trkpt>
      <trkpt lat="47.26134" lon="-1.67037">
        <ele>114</ele>
        <time>2021-10-09T10:30:46.000Z</time>
      </trkpt>
      <trkpt lat="47.26144" lon="-1.67042">
        <ele>115</ele>
        <time>2021-10-09T10:30:48.000Z</time>
      </trkpt>
      <trkpt lat="47.26155" lon="-1.67046">
        <ele>115</ele>
        <time>2021-10-09T10:30:50.000Z</time>
      </trkpt>
      <trkpt lat="47.26165" lon="-1.67051">
        <ele>115</ele>
        <time>2021-10-09T10:30:52.000Z</time>
      </trkpt>
      <trkpt lat="47.26178" lon="-1.67058">
        <ele>116</ele>
        <time>2021-10-09T10:30:55.000Z</time>
      </trkpt>
      <trkpt lat="47.26192" lon="-1.67062">
        <ele>116</ele>
        <time>2021-10-09T10:30:58.000Z</time>
      </trkpt>
      <trkpt lat="47.26203" lon="-1.67064">
        <ele>117</ele>
        <time>2021-10-09T10:31:03.000Z</time>
      </trkpt>
      <trkpt lat="47.26209" lon="-1.6708">
        <ele>116</ele>
        <time>2021-10-09T10:31:05.000Z</time>
      </trkpt>
      <trkpt lat="47.26213" lon="-1.67095">
        <ele>116</ele>
        <time>2021-10-09T10:31:07.000Z</time>
      </trkpt>
      <trkpt lat="47.26216" lon="-1.67111">
        <ele>116</ele>
        <time>2021-10-09T10:31:09.000Z</time>
      </trkpt>
      <trkpt lat="47.26219" lon="-1.67127">
        <ele>117</ele>
        <time>2021-10-09T10:31:11.000Z</time>
      </trkpt>
      <trkpt lat="47.26222" lon="-1.67144">
        <ele>117</ele>
        <time>2021-10-09T10:31:13.000Z</time>
      </trkpt>
      <trkpt lat="47.26225" lon="-1.67161">
        <ele>117</ele>
        <time>2021-10-09T10:31:15.000Z</time>
      </trkpt>
      <trkpt lat="47.26228" lon="-1.67178">
        <ele>117</ele>
        <time>2021-10-09T10:31:17.000Z</time>
      </trkpt>
      <trkpt lat="47.26231" lon="-1.67195">
        <ele>117</ele>
        <time>2021-10-09T10:31:19.000Z</time>
      </trkpt>
      <trkpt lat="47.26234" lon="-1.67212">
        <ele>117</ele>
        <time>2021-10-09T10:31:21.000Z</time>
      </trkpt>
      <trkpt lat="47.26238" lon="-1.67227">
        <ele>117</ele>
        <time>2021-10-09T10:31:23.000Z</time>
      </trkpt>
      <trkpt lat="47.26245" lon="-1.67238">
        <ele>117</ele>
        <time>2021-10-09T10:31:25.000Z</time>
      </trkpt>
      <trkpt lat="47.26256" lon="-1.67238">
        <ele>117</ele>
        <time>2021-10-09T10:31:27.000Z</time>
      </trkpt>
      <trkpt lat="47.26267" lon="-1.67238">
        <ele>116</ele>
        <time>2021-10-09T10:31:29.000Z</time>
      </trkpt>
      <trkpt lat="47.26279" lon="-1.67237">
        <ele>116</ele>
        <time>2021-10-09T10:31:31.000Z</time>
      </trkpt>
      <trkpt lat="47.2629" lon="-1.67235">
        <ele>116</ele>
        <time>2021-10-09T10:31:33.000Z</time>
      </trkpt>
      <trkpt lat="47.26302" lon="-1.67233">
        <ele>116</ele>
        <time>2021-10-09T10:31:35.000Z</time>
      </trkpt>
      <trkpt lat="47.26313" lon="-1.67229">
        <ele>116</ele>
        <time>2021-10-09T10:31:37.000Z</time>
      </trkpt>
      <trkpt lat="47.26324" lon="-1.67225">
        <ele>116</ele>
        <time>2021-10-09T10:31:39.000Z</time>
      </trkpt>
      <trkpt lat="47.26335" lon="-1.67222">
        <ele>116</ele>
        <time>2021-10-09T10:31:41.000Z</time>
      </trkpt>
      <trkpt lat="47.26346" lon="-1.67223">
        <ele>117</ele>
        <time>2021-10-09T10:31:43.000Z</time>
      </trkpt>
      <trkpt lat="47.26354" lon="-1.67235">
        <ele>117</ele>
        <time>2021-10-09T10:31:45.000Z</time>
      </trkpt>
      <trkpt lat="47.26357" lon="-1.67251">
        <ele>117</ele>
        <time>2021-10-09T10:31:47.000Z</time>
      </trkpt>
      <trkpt lat="47.2636" lon="-1.67267">
        <ele>116</ele>
        <time>2021-10-09T10:31:49.000Z</time>
      </trkpt>
      <trkpt lat="47.26365" lon="-1.67283">
        <ele>118</ele>
        <time>2021-10-09T10:31:51.000Z</time>
      </trkpt>
      <trkpt lat="47.26373" lon="-1.67291">
        <ele>118</ele>
        <time>2021-10-09T10:31:53.000Z</time>
      </trkpt>
      <trkpt lat="47.26383" lon="-1.67296">
        <ele>119</ele>
        <time>2021-10-09T10:31:55.000Z</time>
      </trkpt>
      <trkpt lat="47.26395" lon="-1.673">
        <ele>118</ele>
        <time>2021-10-09T10:31:57.000Z</time>
      </trkpt>
      <trkpt lat="47.26405" lon="-1.67304">
        <ele>119</ele>
        <time>2021-10-09T10:31:59.000Z</time>
      </trkpt>
      <trkpt lat="47.26416" lon="-1.67309">
        <ele>119</ele>
        <time>2021-10-09T10:32:01.000Z</time>
      </trkpt>
      <trkpt lat="47.26428" lon="-1.67314">
        <ele>119</ele>
        <time>2021-10-09T10:32:03.000Z</time>
      </trkpt>
      <trkpt lat="47.26439" lon="-1.67315">
        <ele>118</ele>
        <time>2021-10-09T10:32:06.000Z</time>
      </trkpt>
      <trkpt lat="47.2645" lon="-1.67304">
        <ele>117</ele>
        <time>2021-10-09T10:32:09.000Z</time>
      </trkpt>
      <trkpt lat="47.26456" lon="-1.67292">
        <ele>117</ele>
        <time>2021-10-09T10:32:11.000Z</time>
      </trkpt>
      <trkpt lat="47.26463" lon="-1.67278">
        <ele>117</ele>
        <time>2021-10-09T10:32:13.000Z</time>
      </trkpt>
      <trkpt lat="47.26469" lon="-1.67261">
        <ele>117</ele>
        <time>2021-10-09T10:32:15.000Z</time>
      </trkpt>
      <trkpt lat="47.26476" lon="-1.67244">
        <ele>117</ele>
        <time>2021-10-09T10:32:17.000Z</time>
      </trkpt>
      <trkpt lat="47.26483" lon="-1.67227">
        <ele>116</ele>
        <time>2021-10-09T10:32:19.000Z</time>
      </trkpt>
      <trkpt lat="47.26491" lon="-1.67209">
        <ele>116</ele>
        <time>2021-10-09T10:32:21.000Z</time>
      </trkpt>
      <trkpt lat="47.265" lon="-1.6719">
        <ele>115</ele>
        <time>2021-10-09T10:32:23.000Z</time>
      </trkpt>
      <trkpt lat="47.26511" lon="-1.67172">
        <ele>114</ele>
        <time>2021-10-09T10:32:25.000Z</time>
      </trkpt>
      <trkpt lat="47.26523" lon="-1.67156">
        <ele>112</ele>
        <time>2021-10-09T10:32:27.000Z</time>
      </trkpt>
      <trkpt lat="47.26537" lon="-1.67141">
        <ele>110</ele>
        <time>2021-10-09T10:32:29.000Z</time>
      </trkpt>
      <trkpt lat="47.26551" lon="-1.67129">
        <ele>109</ele>
        <time>2021-10-09T10:32:31.000Z</time>
      </trkpt>
      <trkpt lat="47.26567" lon="-1.67118">
        <ele>108</ele>
        <time>2021-10-09T10:32:33.000Z</time>
      </trkpt>
      <trkpt lat="47.26583" lon="-1.67106">
        <ele>106</ele>
        <time>2021-10-09T10:32:35.000Z</time>
      </trkpt>
      <trkpt lat="47.266" lon="-1.67094">
        <ele>106</ele>
        <time>2021-10-09T10:32:37.000Z</time>
      </trkpt>
      <trkpt lat="47.26608" lon="-1.67089">
        <ele>105</ele>
        <time>2021-10-09T10:32:38.000Z</time>
      </trkpt>
      <trkpt lat="47.26617" lon="-1.67085">
        <ele>105</ele>
        <time>2021-10-09T10:32:39.000Z</time>
      </trkpt>
      <trkpt lat="47.26626" lon="-1.67079">
        <ele>104</ele>
        <time>2021-10-09T10:32:40.000Z</time>
      </trkpt>
      <trkpt lat="47.26634" lon="-1.67074">
        <ele>104</ele>
        <time>2021-10-09T10:32:41.000Z</time>
      </trkpt>
      <trkpt lat="47.26643" lon="-1.67068">
        <ele>104</ele>
        <time>2021-10-09T10:32:42.000Z</time>
      </trkpt>
      <trkpt lat="47.26651" lon="-1.67063">
        <ele>103</ele>
        <time>2021-10-09T10:32:43.000Z</time>
      </trkpt>
      <trkpt lat="47.2666" lon="-1.67057">
        <ele>103</ele>
        <time>2021-10-09T10:32:44.000Z</time>
      </trkpt>
      <trkpt lat="47.26668" lon="-1.67052">
        <ele>101</ele>
        <time>2021-10-09T10:32:45.000Z</time>
      </trkpt>
      <trkpt lat="47.26677" lon="-1.67046">
        <ele>101</ele>
        <time>2021-10-09T10:32:46.000Z</time>
      </trkpt>
      <trkpt lat="47.26686" lon="-1.6704">
        <ele>100</ele>
        <time>2021-10-09T10:32:47.000Z</time>
      </trkpt>
      <trkpt lat="47.26694" lon="-1.67034">
        <ele>100</ele>
        <time>2021-10-09T10:32:48.000Z</time>
      </trkpt>
      <trkpt lat="47.26703" lon="-1.67029">
        <ele>99</ele>
        <time>2021-10-09T10:32:49.000Z</time>
      </trkpt>
      <trkpt lat="47.26719" lon="-1.67019">
        <ele>99</ele>
        <time>2021-10-09T10:32:51.000Z</time>
      </trkpt>
      <trkpt lat="47.26736" lon="-1.6701">
        <ele>99</ele>
        <time>2021-10-09T10:32:53.000Z</time>
      </trkpt>
      <trkpt lat="47.26745" lon="-1.67008">
        <ele>99</ele>
        <time>2021-10-09T10:32:54.000Z</time>
      </trkpt>
      <trkpt lat="47.26755" lon="-1.6701">
        <ele>99</ele>
        <time>2021-10-09T10:32:55.000Z</time>
      </trkpt>
      <trkpt lat="47.26764" lon="-1.67013">
        <ele>98</ele>
        <time>2021-10-09T10:32:56.000Z</time>
      </trkpt>
      <trkpt lat="47.26773" lon="-1.67018">
        <ele>98</ele>
        <time>2021-10-09T10:32:57.000Z</time>
      </trkpt>
      <trkpt lat="47.26782" lon="-1.67026">
        <ele>98</ele>
        <time>2021-10-09T10:32:58.000Z</time>
      </trkpt>
      <trkpt lat="47.2679" lon="-1.67034">
        <ele>97</ele>
        <time>2021-10-09T10:32:59.000Z</time>
      </trkpt>
      <trkpt lat="47.26798" lon="-1.67043">
        <ele>96</ele>
        <time>2021-10-09T10:33:00.000Z</time>
      </trkpt>
      <trkpt lat="47.26806" lon="-1.67053">
        <ele>96</ele>
        <time>2021-10-09T10:33:01.000Z</time>
      </trkpt>
      <trkpt lat="47.26812" lon="-1.67064">
        <ele>95</ele>
        <time>2021-10-09T10:33:02.000Z</time>
      </trkpt>
      <trkpt lat="47.26818" lon="-1.67076">
        <ele>95</ele>
        <time>2021-10-09T10:33:03.000Z</time>
      </trkpt>
      <trkpt lat="47.26824" lon="-1.67088">
        <ele>95</ele>
        <time>2021-10-09T10:33:04.000Z</time>
      </trkpt>
      <trkpt lat="47.26831" lon="-1.67097">
        <ele>94</ele>
        <time>2021-10-09T10:33:05.000Z</time>
      </trkpt>
      <trkpt lat="47.26839" lon="-1.67106">
        <ele>94</ele>
        <time>2021-10-09T10:33:06.000Z</time>
      </trkpt>
      <trkpt lat="47.26846" lon="-1.67115">
        <ele>93</ele>
        <time>2021-10-09T10:33:07.000Z</time>
      </trkpt>
      <trkpt lat="47.26853" lon="-1.67125">
        <ele>93</ele>
        <time>2021-10-09T10:33:08.000Z</time>
      </trkpt>
      <trkpt lat="47.2686" lon="-1.67135">
        <ele>93</ele>
        <time>2021-10-09T10:33:09.000Z</time>
      </trkpt>
      <trkpt lat="47.26867" lon="-1.67145">
        <ele>92</ele>
        <time>2021-10-09T10:33:10.000Z</time>
      </trkpt>
      <trkpt lat="47.26875" lon="-1.67153">
        <ele>92</ele>
        <time>2021-10-09T10:33:11.000Z</time>
      </trkpt>
      <trkpt lat="47.26883" lon="-1.67159">
        <ele>92</ele>
        <time>2021-10-09T10:33:12.000Z</time>
      </trkpt>
      <trkpt lat="47.26892" lon="-1.67162">
        <ele>91</ele>
        <time>2021-10-09T10:33:13.000Z</time>
      </trkpt>
      <trkpt lat="47.26908" lon="-1.67163">
        <ele>92</ele>
        <time>2021-10-09T10:33:15.000Z</time>
      </trkpt>
      <trkpt lat="47.2692" lon="-1.6716">
        <ele>92</ele>
        <time>2021-10-09T10:33:17.000Z</time>
      </trkpt>
      <trkpt lat="47.26932" lon="-1.67157">
        <ele>92</ele>
        <time>2021-10-09T10:33:19.000Z</time>
      </trkpt>
      <trkpt lat="47.26945" lon="-1.67152">
        <ele>92</ele>
        <time>2021-10-09T10:33:22.000Z</time>
      </trkpt>
      <trkpt lat="47.26955" lon="-1.67149">
        <ele>92</ele>
        <time>2021-10-09T10:33:24.000Z</time>
      </trkpt>
      <trkpt lat="47.26963" lon="-1.67145">
        <ele>92</ele>
        <time>2021-10-09T10:33:26.000Z</time>
      </trkpt>
      <trkpt lat="47.26974" lon="-1.67139">
        <ele>93</ele>
        <time>2021-10-09T10:33:29.000Z</time>
      </trkpt>
      <trkpt lat="47.26985" lon="-1.67135">
        <ele>94</ele>
        <time>2021-10-09T10:33:32.000Z</time>
      </trkpt>
      <trkpt lat="47.26996" lon="-1.67131">
        <ele>94</ele>
        <time>2021-10-09T10:33:34.000Z</time>
      </trkpt>
      <trkpt lat="47.27007" lon="-1.67128">
        <ele>95</ele>
        <time>2021-10-09T10:33:36.000Z</time>
      </trkpt>
      <trkpt lat="47.27016" lon="-1.67124">
        <ele>96</ele>
        <time>2021-10-09T10:33:38.000Z</time>
      </trkpt>
      <trkpt lat="47.27026" lon="-1.67122">
        <ele>97</ele>
        <time>2021-10-09T10:33:40.000Z</time>
      </trkpt>
      <trkpt lat="47.27036" lon="-1.6712">
        <ele>97</ele>
        <time>2021-10-09T10:33:42.000Z</time>
      </trkpt>
      <trkpt lat="47.27051" lon="-1.6712">
        <ele>99</ele>
        <time>2021-10-09T10:33:45.000Z</time>
      </trkpt>
      <trkpt lat="47.27063" lon="-1.67123">
        <ele>100</ele>
        <time>2021-10-09T10:33:48.000Z</time>
      </trkpt>
      <trkpt lat="47.27076" lon="-1.67126">
        <ele>100</ele>
        <time>2021-10-09T10:33:51.000Z</time>
      </trkpt>
      <trkpt lat="47.27086" lon="-1.6713">
        <ele>102</ele>
        <time>2021-10-09T10:33:53.000Z</time>
      </trkpt>
      <trkpt lat="47.27096" lon="-1.67134">
        <ele>104</ele>
        <time>2021-10-09T10:33:55.000Z</time>
      </trkpt>
      <trkpt lat="47.27107" lon="-1.67137">
        <ele>105</ele>
        <time>2021-10-09T10:33:58.000Z</time>
      </trkpt>
      <trkpt lat="47.27118" lon="-1.67141">
        <ele>107</ele>
        <time>2021-10-09T10:34:00.000Z</time>
      </trkpt>
      <trkpt lat="47.27128" lon="-1.67144">
        <ele>109</ele>
        <time>2021-10-09T10:34:02.000Z</time>
      </trkpt>
      <trkpt lat="47.27139" lon="-1.67146">
        <ele>110</ele>
        <time>2021-10-09T10:34:05.000Z</time>
      </trkpt>
      <trkpt lat="47.27151" lon="-1.67153">
        <ele>110</ele>
        <time>2021-10-09T10:34:08.000Z</time>
      </trkpt>
      <trkpt lat="47.27163" lon="-1.6716">
        <ele>110</ele>
        <time>2021-10-09T10:34:10.000Z</time>
      </trkpt>
      <trkpt lat="47.27176" lon="-1.67166">
        <ele>110</ele>
        <time>2021-10-09T10:34:12.000Z</time>
      </trkpt>
      <trkpt lat="47.27188" lon="-1.67173">
        <ele>109</ele>
        <time>2021-10-09T10:34:14.000Z</time>
      </trkpt>
      <trkpt lat="47.272" lon="-1.67177">
        <ele>110</ele>
        <time>2021-10-09T10:34:16.000Z</time>
      </trkpt>
      <trkpt lat="47.27211" lon="-1.67181">
        <ele>110</ele>
        <time>2021-10-09T10:34:18.000Z</time>
      </trkpt>
      <trkpt lat="47.27223" lon="-1.67185">
        <ele>110</ele>
        <time>2021-10-09T10:34:20.000Z</time>
      </trkpt>
      <trkpt lat="47.27234" lon="-1.67187">
        <ele>110</ele>
        <time>2021-10-09T10:34:22.000Z</time>
      </trkpt>
      <trkpt lat="47.27244" lon="-1.67191">
        <ele>111</ele>
        <time>2021-10-09T10:34:24.000Z</time>
      </trkpt>
      <trkpt lat="47.27255" lon="-1.67195">
        <ele>111</ele>
        <time>2021-10-09T10:34:26.000Z</time>
      </trkpt>
      <trkpt lat="47.27266" lon="-1.672">
        <ele>110</ele>
        <time>2021-10-09T10:34:28.000Z</time>
      </trkpt>
      <trkpt lat="47.27277" lon="-1.67204">
        <ele>110</ele>
        <time>2021-10-09T10:34:30.000Z</time>
      </trkpt>
      <trkpt lat="47.27288" lon="-1.67208">
        <ele>110</ele>
        <time>2021-10-09T10:34:32.000Z</time>
      </trkpt>
      <trkpt lat="47.27299" lon="-1.67212">
        <ele>110</ele>
        <time>2021-10-09T10:34:34.000Z</time>
      </trkpt>
      <trkpt lat="47.2731" lon="-1.67214">
        <ele>110</ele>
        <time>2021-10-09T10:34:36.000Z</time>
      </trkpt>
      <trkpt lat="47.27321" lon="-1.67216">
        <ele>110</ele>
        <time>2021-10-09T10:34:38.000Z</time>
      </trkpt>
      <trkpt lat="47.27332" lon="-1.67216">
        <ele>110</ele>
        <time>2021-10-09T10:34:40.000Z</time>
      </trkpt>
      <trkpt lat="47.27342" lon="-1.67215">
        <ele>112</ele>
        <time>2021-10-09T10:34:42.000Z</time>
      </trkpt>
      <trkpt lat="47.27353" lon="-1.67211">
        <ele>112</ele>
        <time>2021-10-09T10:34:44.000Z</time>
      </trkpt>
      <trkpt lat="47.27363" lon="-1.67207">
        <ele>112</ele>
        <time>2021-10-09T10:34:46.000Z</time>
      </trkpt>
      <trkpt lat="47.27373" lon="-1.67201">
        <ele>113</ele>
        <time>2021-10-09T10:34:48.000Z</time>
      </trkpt>
      <trkpt lat="47.27382" lon="-1.67193">
        <ele>113</ele>
        <time>2021-10-09T10:34:50.000Z</time>
      </trkpt>
      <trkpt lat="47.27392" lon="-1.67187">
        <ele>114</ele>
        <time>2021-10-09T10:34:52.000Z</time>
      </trkpt>
      <trkpt lat="47.274" lon="-1.67179">
        <ele>114</ele>
        <time>2021-10-09T10:34:54.000Z</time>
      </trkpt>
      <trkpt lat="47.27409" lon="-1.67172">
        <ele>115</ele>
        <time>2021-10-09T10:34:56.000Z</time>
      </trkpt>
      <trkpt lat="47.27417" lon="-1.67164">
        <ele>115</ele>
        <time>2021-10-09T10:34:58.000Z</time>
      </trkpt>
      <trkpt lat="47.27426" lon="-1.67156">
        <ele>116</ele>
        <time>2021-10-09T10:35:00.000Z</time>
      </trkpt>
      <trkpt lat="47.27436" lon="-1.67147">
        <ele>116</ele>
        <time>2021-10-09T10:35:02.000Z</time>
      </trkpt>
      <trkpt lat="47.27446" lon="-1.67137">
        <ele>115</ele>
        <time>2021-10-09T10:35:04.000Z</time>
      </trkpt>
      <trkpt lat="47.27456" lon="-1.67129">
        <ele>115</ele>
        <time>2021-10-09T10:35:06.000Z</time>
      </trkpt>
      <trkpt lat="47.27466" lon="-1.6712">
        <ele>114</ele>
        <time>2021-10-09T10:35:08.000Z</time>
      </trkpt>
      <trkpt lat="47.27475" lon="-1.67112">
        <ele>114</ele>
        <time>2021-10-09T10:35:10.000Z</time>
      </trkpt>
      <trkpt lat="47.27485" lon="-1.67103">
        <ele>114</ele>
        <time>2021-10-09T10:35:12.000Z</time>
      </trkpt>
      <trkpt lat="47.27495" lon="-1.67094">
        <ele>114</ele>
        <time>2021-10-09T10:35:14.000Z</time>
      </trkpt>
      <trkpt lat="47.27504" lon="-1.67085">
        <ele>113</ele>
        <time>2021-10-09T10:35:16.000Z</time>
      </trkpt>
      <trkpt lat="47.27514" lon="-1.67079">
        <ele>113</ele>
        <time>2021-10-09T10:35:18.000Z</time>
      </trkpt>
      <trkpt lat="47.27524" lon="-1.67079">
        <ele>113</ele>
        <time>2021-10-09T10:35:20.000Z</time>
      </trkpt>
      <trkpt lat="47.27529" lon="-1.6709">
        <ele>113</ele>
        <time>2021-10-09T10:35:22.000Z</time>
      </trkpt>
      <trkpt lat="47.27533" lon="-1.67105">
        <ele>113</ele>
        <time>2021-10-09T10:35:24.000Z</time>
      </trkpt>
      <trkpt lat="47.27537" lon="-1.67121">
        <ele>113</ele>
        <time>2021-10-09T10:35:26.000Z</time>
      </trkpt>
      <trkpt lat="47.2754" lon="-1.67137">
        <ele>113</ele>
        <time>2021-10-09T10:35:28.000Z</time>
      </trkpt>
      <trkpt lat="47.27543" lon="-1.67153">
        <ele>114</ele>
        <time>2021-10-09T10:35:30.000Z</time>
      </trkpt>
      <trkpt lat="47.27546" lon="-1.67169">
        <ele>114</ele>
        <time>2021-10-09T10:35:32.000Z</time>
      </trkpt>
      <trkpt lat="47.27549" lon="-1.67184">
        <ele>114</ele>
        <time>2021-10-09T10:35:34.000Z</time>
      </trkpt>
      <trkpt lat="47.27552" lon="-1.67199">
        <ele>114</ele>
        <time>2021-10-09T10:35:36.000Z</time>
      </trkpt>
      <trkpt lat="47.27555" lon="-1.67215">
        <ele>115</ele>
        <time>2021-10-09T10:35:38.000Z</time>
      </trkpt>
      <trkpt lat="47.27558" lon="-1.67231">
        <ele>114</ele>
        <time>2021-10-09T10:35:40.000Z</time>
      </trkpt>
      <trkpt lat="47.2756" lon="-1.67247">
        <ele>115</ele>
        <time>2021-10-09T10:35:42.000Z</time>
      </trkpt>
      <trkpt lat="47.27563" lon="-1.67263">
        <ele>115</ele>
        <time>2021-10-09T10:35:44.000Z</time>
      </trkpt>
      <trkpt lat="47.27568" lon="-1.67279">
        <ele>115</ele>
        <time>2021-10-09T10:35:46.000Z</time>
      </trkpt>
      <trkpt lat="47.27574" lon="-1.67294">
        <ele>115</ele>
        <time>2021-10-09T10:35:48.000Z</time>
      </trkpt>
      <trkpt lat="47.27581" lon="-1.67305">
        <ele>115</ele>
        <time>2021-10-09T10:35:50.000Z</time>
      </trkpt>
      <trkpt lat="47.27589" lon="-1.67317">
        <ele>116</ele>
        <time>2021-10-09T10:35:52.000Z</time>
      </trkpt>
      <trkpt lat="47.27597" lon="-1.67329">
        <ele>116</ele>
        <time>2021-10-09T10:35:54.000Z</time>
      </trkpt>
      <trkpt lat="47.27605" lon="-1.6734">
        <ele>116</ele>
        <time>2021-10-09T10:35:56.000Z</time>
      </trkpt>
      <trkpt lat="47.27613" lon="-1.67352">
        <ele>117</ele>
        <time>2021-10-09T10:35:58.000Z</time>
      </trkpt>
      <trkpt lat="47.27623" lon="-1.67364">
        <ele>117</ele>
        <time>2021-10-09T10:36:00.000Z</time>
      </trkpt>
      <trkpt lat="47.27632" lon="-1.67376">
        <ele>117</ele>
        <time>2021-10-09T10:36:02.000Z</time>
      </trkpt>
      <trkpt lat="47.27642" lon="-1.67385">
        <ele>117</ele>
        <time>2021-10-09T10:36:04.000Z</time>
      </trkpt>
      <trkpt lat="47.27653" lon="-1.67393">
        <ele>117</ele>
        <time>2021-10-09T10:36:06.000Z</time>
      </trkpt>
      <trkpt lat="47.27664" lon="-1.67399">
        <ele>118</ele>
        <time>2021-10-09T10:36:08.000Z</time>
      </trkpt>
      <trkpt lat="47.27675" lon="-1.67404">
        <ele>119</ele>
        <time>2021-10-09T10:36:10.000Z</time>
      </trkpt>
      <trkpt lat="47.27686" lon="-1.67407">
        <ele>119</ele>
        <time>2021-10-09T10:36:12.000Z</time>
      </trkpt>
      <trkpt lat="47.27698" lon="-1.67411">
        <ele>119</ele>
        <time>2021-10-09T10:36:14.000Z</time>
      </trkpt>
      <trkpt lat="47.2771" lon="-1.67415">
        <ele>120</ele>
        <time>2021-10-09T10:36:16.000Z</time>
      </trkpt>
      <trkpt lat="47.27722" lon="-1.67418">
        <ele>120</ele>
        <time>2021-10-09T10:36:18.000Z</time>
      </trkpt>
      <trkpt lat="47.27734" lon="-1.67422">
        <ele>120</ele>
        <time>2021-10-09T10:36:20.000Z</time>
      </trkpt>
      <trkpt lat="47.27749" lon="-1.67426">
        <ele>120</ele>
        <time>2021-10-09T10:36:22.000Z</time>
      </trkpt>
      <trkpt lat="47.27764" lon="-1.67426">
        <ele>121</ele>
        <time>2021-10-09T10:36:24.000Z</time>
      </trkpt>
      <trkpt lat="47.27778" lon="-1.67428">
        <ele>121</ele>
        <time>2021-10-09T10:36:26.000Z</time>
      </trkpt>
      <trkpt lat="47.27793" lon="-1.67429">
        <ele>120</ele>
        <time>2021-10-09T10:36:28.000Z</time>
      </trkpt>
      <trkpt lat="47.27809" lon="-1.6743">
        <ele>119</ele>
        <time>2021-10-09T10:36:30.000Z</time>
      </trkpt>
      <trkpt lat="47.27825" lon="-1.67429">
        <ele>118</ele>
        <time>2021-10-09T10:36:32.000Z</time>
      </trkpt>
      <trkpt lat="47.27841" lon="-1.67428">
        <ele>116</ele>
        <time>2021-10-09T10:36:34.000Z</time>
      </trkpt>
      <trkpt lat="47.27857" lon="-1.67428">
        <ele>115</ele>
        <time>2021-10-09T10:36:36.000Z</time>
      </trkpt>
      <trkpt lat="47.27872" lon="-1.67428">
        <ele>115</ele>
        <time>2021-10-09T10:36:38.000Z</time>
      </trkpt>
      <trkpt lat="47.27888" lon="-1.67428">
        <ele>114</ele>
        <time>2021-10-09T10:36:40.000Z</time>
      </trkpt>
      <trkpt lat="47.27904" lon="-1.67429">
        <ele>113</ele>
        <time>2021-10-09T10:36:42.000Z</time>
      </trkpt>
      <trkpt lat="47.27919" lon="-1.67431">
        <ele>113</ele>
        <time>2021-10-09T10:36:44.000Z</time>
      </trkpt>
      <trkpt lat="47.27934" lon="-1.67436">
        <ele>113</ele>
        <time>2021-10-09T10:36:46.000Z</time>
      </trkpt>
      <trkpt lat="47.27948" lon="-1.67441">
        <ele>112</ele>
        <time>2021-10-09T10:36:48.000Z</time>
      </trkpt>
      <trkpt lat="47.27962" lon="-1.67446">
        <ele>112</ele>
        <time>2021-10-09T10:36:50.000Z</time>
      </trkpt>
      <trkpt lat="47.27976" lon="-1.67453">
        <ele>112</ele>
        <time>2021-10-09T10:36:52.000Z</time>
      </trkpt>
      <trkpt lat="47.2799" lon="-1.6746">
        <ele>112</ele>
        <time>2021-10-09T10:36:54.000Z</time>
      </trkpt>
      <trkpt lat="47.28003" lon="-1.67468">
        <ele>113</ele>
        <time>2021-10-09T10:36:56.000Z</time>
      </trkpt>
      <trkpt lat="47.28015" lon="-1.67475">
        <ele>113</ele>
        <time>2021-10-09T10:36:58.000Z</time>
      </trkpt>
      <trkpt lat="47.28028" lon="-1.67483">
        <ele>113</ele>
        <time>2021-10-09T10:37:00.000Z</time>
      </trkpt>
      <trkpt lat="47.2804" lon="-1.67489">
        <ele>113</ele>
        <time>2021-10-09T10:37:02.000Z</time>
      </trkpt>
      <trkpt lat="47.28052" lon="-1.67496">
        <ele>113</ele>
        <time>2021-10-09T10:37:04.000Z</time>
      </trkpt>
      <trkpt lat="47.28064" lon="-1.67502">
        <ele>113</ele>
        <time>2021-10-09T10:37:06.000Z</time>
      </trkpt>
      <trkpt lat="47.28076" lon="-1.67509">
        <ele>113</ele>
        <time>2021-10-09T10:37:08.000Z</time>
      </trkpt>
      <trkpt lat="47.28087" lon="-1.67517">
        <ele>113</ele>
        <time>2021-10-09T10:37:10.000Z</time>
      </trkpt>
      <trkpt lat="47.281" lon="-1.67524">
        <ele>114</ele>
        <time>2021-10-09T10:37:12.000Z</time>
      </trkpt>
      <trkpt lat="47.28111" lon="-1.67531">
        <ele>114</ele>
        <time>2021-10-09T10:37:14.000Z</time>
      </trkpt>
      <trkpt lat="47.28123" lon="-1.67539">
        <ele>114</ele>
        <time>2021-10-09T10:37:16.000Z</time>
      </trkpt>
      <trkpt lat="47.28135" lon="-1.67545">
        <ele>114</ele>
        <time>2021-10-09T10:37:18.000Z</time>
      </trkpt>
      <trkpt lat="47.28147" lon="-1.67552">
        <ele>114</ele>
        <time>2021-10-09T10:37:20.000Z</time>
      </trkpt>
      <trkpt lat="47.28159" lon="-1.67559">
        <ele>114</ele>
        <time>2021-10-09T10:37:22.000Z</time>
      </trkpt>
      <trkpt lat="47.28171" lon="-1.67566">
        <ele>114</ele>
        <time>2021-10-09T10:37:24.000Z</time>
      </trkpt>
      <trkpt lat="47.28183" lon="-1.67572">
        <ele>114</ele>
        <time>2021-10-09T10:37:26.000Z</time>
      </trkpt>
      <trkpt lat="47.28194" lon="-1.67579">
        <ele>115</ele>
        <time>2021-10-09T10:37:28.000Z</time>
      </trkpt>
      <trkpt lat="47.28206" lon="-1.67586">
        <ele>114</ele>
        <time>2021-10-09T10:37:30.000Z</time>
      </trkpt>
      <trkpt lat="47.28217" lon="-1.67593">
        <ele>115</ele>
        <time>2021-10-09T10:37:32.000Z</time>
      </trkpt>
      <trkpt lat="47.28228" lon="-1.67601">
        <ele>115</ele>
        <time>2021-10-09T10:37:34.000Z</time>
      </trkpt>
      <trkpt lat="47.28239" lon="-1.67606">
        <ele>116</ele>
        <time>2021-10-09T10:37:36.000Z</time>
      </trkpt>
      <trkpt lat="47.28251" lon="-1.67611">
        <ele>116</ele>
        <time>2021-10-09T10:37:38.000Z</time>
      </trkpt>
      <trkpt lat="47.28265" lon="-1.67614">
        <ele>115</ele>
        <time>2021-10-09T10:37:40.000Z</time>
      </trkpt>
      <trkpt lat="47.28278" lon="-1.67614">
        <ele>116</ele>
        <time>2021-10-09T10:37:42.000Z</time>
      </trkpt>
      <trkpt lat="47.28292" lon="-1.67615">
        <ele>116</ele>
        <time>2021-10-09T10:37:44.000Z</time>
      </trkpt>
      <trkpt lat="47.28305" lon="-1.67612">
        <ele>116</ele>
        <time>2021-10-09T10:37:46.000Z</time>
      </trkpt>
      <trkpt lat="47.28319" lon="-1.67611">
        <ele>115</ele>
        <time>2021-10-09T10:37:48.000Z</time>
      </trkpt>
      <trkpt lat="47.28332" lon="-1.67608">
        <ele>114</ele>
        <time>2021-10-09T10:37:50.000Z</time>
      </trkpt>
      <trkpt lat="47.28346" lon="-1.67606">
        <ele>114</ele>
        <time>2021-10-09T10:37:52.000Z</time>
      </trkpt>
      <trkpt lat="47.28359" lon="-1.67604">
        <ele>113</ele>
        <time>2021-10-09T10:37:54.000Z</time>
      </trkpt>
      <trkpt lat="47.28373" lon="-1.67602">
        <ele>113</ele>
        <time>2021-10-09T10:37:56.000Z</time>
      </trkpt>
      <trkpt lat="47.28386" lon="-1.676">
        <ele>113</ele>
        <time>2021-10-09T10:37:58.000Z</time>
      </trkpt>
      <trkpt lat="47.284" lon="-1.67598">
        <ele>113</ele>
        <time>2021-10-09T10:38:00.000Z</time>
      </trkpt>
      <trkpt lat="47.28413" lon="-1.67596">
        <ele>113</ele>
        <time>2021-10-09T10:38:02.000Z</time>
      </trkpt>
      <trkpt lat="47.28427" lon="-1.67596">
        <ele>113</ele>
        <time>2021-10-09T10:38:04.000Z</time>
      </trkpt>
      <trkpt lat="47.2844" lon="-1.67596">
        <ele>113</ele>
        <time>2021-10-09T10:38:06.000Z</time>
      </trkpt>
      <trkpt lat="47.28453" lon="-1.67599">
        <ele>113</ele>
        <time>2021-10-09T10:38:08.000Z</time>
      </trkpt>
      <trkpt lat="47.28465" lon="-1.67604">
        <ele>113</ele>
        <time>2021-10-09T10:38:10.000Z</time>
      </trkpt>
      <trkpt lat="47.28478" lon="-1.67609">
        <ele>113</ele>
        <time>2021-10-09T10:38:12.000Z</time>
      </trkpt>
      <trkpt lat="47.2849" lon="-1.67614">
        <ele>113</ele>
        <time>2021-10-09T10:38:14.000Z</time>
      </trkpt>
      <trkpt lat="47.28503" lon="-1.67618">
        <ele>113</ele>
        <time>2021-10-09T10:38:16.000Z</time>
      </trkpt>
      <trkpt lat="47.28515" lon="-1.6762">
        <ele>113</ele>
        <time>2021-10-09T10:38:18.000Z</time>
      </trkpt>
      <trkpt lat="47.28527" lon="-1.67619">
        <ele>114</ele>
        <time>2021-10-09T10:38:20.000Z</time>
      </trkpt>
      <trkpt lat="47.28539" lon="-1.67617">
        <ele>114</ele>
        <time>2021-10-09T10:38:22.000Z</time>
      </trkpt>
      <trkpt lat="47.28551" lon="-1.67613">
        <ele>113</ele>
        <time>2021-10-09T10:38:24.000Z</time>
      </trkpt>
      <trkpt lat="47.28563" lon="-1.67606">
        <ele>113</ele>
        <time>2021-10-09T10:38:26.000Z</time>
      </trkpt>
      <trkpt lat="47.28575" lon="-1.67599">
        <ele>112</ele>
        <time>2021-10-09T10:38:28.000Z</time>
      </trkpt>
      <trkpt lat="47.28587" lon="-1.67593">
        <ele>112</ele>
        <time>2021-10-09T10:38:30.000Z</time>
      </trkpt>
      <trkpt lat="47.28599" lon="-1.67586">
        <ele>111</ele>
        <time>2021-10-09T10:38:32.000Z</time>
      </trkpt>
      <trkpt lat="47.28611" lon="-1.6758">
        <ele>111</ele>
        <time>2021-10-09T10:38:34.000Z</time>
      </trkpt>
      <trkpt lat="47.28624" lon="-1.67576">
        <ele>110</ele>
        <time>2021-10-09T10:38:36.000Z</time>
      </trkpt>
      <trkpt lat="47.28637" lon="-1.67574">
        <ele>110</ele>
        <time>2021-10-09T10:38:38.000Z</time>
      </trkpt>
      <trkpt lat="47.28651" lon="-1.67576">
        <ele>109</ele>
        <time>2021-10-09T10:38:40.000Z</time>
      </trkpt>
      <trkpt lat="47.28665" lon="-1.67581">
        <ele>109</ele>
        <time>2021-10-09T10:38:42.000Z</time>
      </trkpt>
      <trkpt lat="47.28678" lon="-1.67588">
        <ele>108</ele>
        <time>2021-10-09T10:38:44.000Z</time>
      </trkpt>
      <trkpt lat="47.28692" lon="-1.67597">
        <ele>108</ele>
        <time>2021-10-09T10:38:46.000Z</time>
      </trkpt>
      <trkpt lat="47.28704" lon="-1.67605">
        <ele>108</ele>
        <time>2021-10-09T10:38:48.000Z</time>
      </trkpt>
      <trkpt lat="47.28716" lon="-1.67614">
        <ele>108</ele>
        <time>2021-10-09T10:38:50.000Z</time>
      </trkpt>
      <trkpt lat="47.28728" lon="-1.67621">
        <ele>109</ele>
        <time>2021-10-09T10:38:52.000Z</time>
      </trkpt>
      <trkpt lat="47.28738" lon="-1.67628">
        <ele>109</ele>
        <time>2021-10-09T10:38:54.000Z</time>
      </trkpt>
      <trkpt lat="47.28751" lon="-1.67625">
        <ele>109</ele>
        <time>2021-10-09T10:38:57.000Z</time>
      </trkpt>
      <trkpt lat="47.28756" lon="-1.67611">
        <ele>109</ele>
        <time>2021-10-09T10:38:59.000Z</time>
      </trkpt>
      <trkpt lat="47.2876" lon="-1.67594">
        <ele>109</ele>
        <time>2021-10-09T10:39:01.000Z</time>
      </trkpt>
      <trkpt lat="47.28765" lon="-1.67576">
        <ele>108</ele>
        <time>2021-10-09T10:39:03.000Z</time>
      </trkpt>
      <trkpt lat="47.28769" lon="-1.67558">
        <ele>108</ele>
        <time>2021-10-09T10:39:05.000Z</time>
      </trkpt>
      <trkpt lat="47.28774" lon="-1.67539">
        <ele>109</ele>
        <time>2021-10-09T10:39:07.000Z</time>
      </trkpt>
      <trkpt lat="47.28778" lon="-1.67521">
        <ele>109</ele>
        <time>2021-10-09T10:39:09.000Z</time>
      </trkpt>
      <trkpt lat="47.28782" lon="-1.67504">
        <ele>108</ele>
        <time>2021-10-09T10:39:11.000Z</time>
      </trkpt>
      <trkpt lat="47.28787" lon="-1.67486">
        <ele>108</ele>
        <time>2021-10-09T10:39:13.000Z</time>
      </trkpt>
      <trkpt lat="47.28791" lon="-1.6747">
        <ele>109</ele>
        <time>2021-10-09T10:39:15.000Z</time>
      </trkpt>
      <trkpt lat="47.28796" lon="-1.67454">
        <ele>109</ele>
        <time>2021-10-09T10:39:17.000Z</time>
      </trkpt>
      <trkpt lat="47.28801" lon="-1.67437">
        <ele>110</ele>
        <time>2021-10-09T10:39:19.000Z</time>
      </trkpt>
      <trkpt lat="47.28807" lon="-1.67419">
        <ele>110</ele>
        <time>2021-10-09T10:39:21.000Z</time>
      </trkpt>
      <trkpt lat="47.28813" lon="-1.67402">
        <ele>109</ele>
        <time>2021-10-09T10:39:23.000Z</time>
      </trkpt>
      <trkpt lat="47.28819" lon="-1.67385">
        <ele>110</ele>
        <time>2021-10-09T10:39:25.000Z</time>
      </trkpt>
      <trkpt lat="47.28825" lon="-1.6737">
        <ele>110</ele>
        <time>2021-10-09T10:39:27.000Z</time>
      </trkpt>
      <trkpt lat="47.28833" lon="-1.67355">
        <ele>109</ele>
        <time>2021-10-09T10:39:29.000Z</time>
      </trkpt>
      <trkpt lat="47.28842" lon="-1.67344">
        <ele>109</ele>
        <time>2021-10-09T10:39:31.000Z</time>
      </trkpt>
      <trkpt lat="47.28852" lon="-1.67337">
        <ele>109</ele>
        <time>2021-10-09T10:39:33.000Z</time>
      </trkpt>
      <trkpt lat="47.28862" lon="-1.67334">
        <ele>110</ele>
        <time>2021-10-09T10:39:35.000Z</time>
      </trkpt>
      <trkpt lat="47.28873" lon="-1.67333">
        <ele>111</ele>
        <time>2021-10-09T10:39:37.000Z</time>
      </trkpt>
      <trkpt lat="47.28885" lon="-1.67331">
        <ele>112</ele>
        <time>2021-10-09T10:39:39.000Z</time>
      </trkpt>
      <trkpt lat="47.28896" lon="-1.67329">
        <ele>113</ele>
        <time>2021-10-09T10:39:41.000Z</time>
      </trkpt>
      <trkpt lat="47.28909" lon="-1.67328">
        <ele>113</ele>
        <time>2021-10-09T10:39:43.000Z</time>
      </trkpt>
      <trkpt lat="47.28921" lon="-1.6733">
        <ele>113</ele>
        <time>2021-10-09T10:39:45.000Z</time>
      </trkpt>
      <trkpt lat="47.28933" lon="-1.67333">
        <ele>114</ele>
        <time>2021-10-09T10:39:47.000Z</time>
      </trkpt>
      <trkpt lat="47.28945" lon="-1.67338">
        <ele>114</ele>
        <time>2021-10-09T10:39:49.000Z</time>
      </trkpt>
      <trkpt lat="47.28957" lon="-1.67344">
        <ele>115</ele>
        <time>2021-10-09T10:39:51.000Z</time>
      </trkpt>
      <trkpt lat="47.2897" lon="-1.67351">
        <ele>114</ele>
        <time>2021-10-09T10:39:53.000Z</time>
      </trkpt>
      <trkpt lat="47.28983" lon="-1.67354">
        <ele>114</ele>
        <time>2021-10-09T10:39:55.000Z</time>
      </trkpt>
      <trkpt lat="47.28996" lon="-1.67353">
        <ele>115</ele>
        <time>2021-10-09T10:39:57.000Z</time>
      </trkpt>
      <trkpt lat="47.29008" lon="-1.67351">
        <ele>115</ele>
        <time>2021-10-09T10:39:59.000Z</time>
      </trkpt>
      <trkpt lat="47.2902" lon="-1.67347">
        <ele>116</ele>
        <time>2021-10-09T10:40:01.000Z</time>
      </trkpt>
      <trkpt lat="47.29032" lon="-1.67343">
        <ele>116</ele>
        <time>2021-10-09T10:40:03.000Z</time>
      </trkpt>
      <trkpt lat="47.29044" lon="-1.67339">
        <ele>116</ele>
        <time>2021-10-09T10:40:05.000Z</time>
      </trkpt>
      <trkpt lat="47.29056" lon="-1.67335">
        <ele>116</ele>
        <time>2021-10-09T10:40:07.000Z</time>
      </trkpt>
      <trkpt lat="47.29068" lon="-1.67331">
        <ele>116</ele>
        <time>2021-10-09T10:40:09.000Z</time>
      </trkpt>
      <trkpt lat="47.29079" lon="-1.67327">
        <ele>116</ele>
        <time>2021-10-09T10:40:11.000Z</time>
      </trkpt>
      <trkpt lat="47.2909" lon="-1.67323">
        <ele>116</ele>
        <time>2021-10-09T10:40:13.000Z</time>
      </trkpt>
      <trkpt lat="47.29102" lon="-1.67319">
        <ele>116</ele>
        <time>2021-10-09T10:40:15.000Z</time>
      </trkpt>
      <trkpt lat="47.29112" lon="-1.67316">
        <ele>116</ele>
        <time>2021-10-09T10:40:17.000Z</time>
      </trkpt>
      <trkpt lat="47.29122" lon="-1.67316">
        <ele>116</ele>
        <time>2021-10-09T10:40:19.000Z</time>
      </trkpt>
      <trkpt lat="47.29131" lon="-1.67316">
        <ele>117</ele>
        <time>2021-10-09T10:40:21.000Z</time>
      </trkpt>
      <trkpt lat="47.29145" lon="-1.67317">
        <ele>117</ele>
        <time>2021-10-09T10:40:24.000Z</time>
      </trkpt>
      <trkpt lat="47.29155" lon="-1.67318">
        <ele>118</ele>
        <time>2021-10-09T10:40:26.000Z</time>
      </trkpt>
      <trkpt lat="47.29165" lon="-1.67321">
        <ele>118</ele>
        <time>2021-10-09T10:40:28.000Z</time>
      </trkpt>
      <trkpt lat="47.29175" lon="-1.67323">
        <ele>119</ele>
        <time>2021-10-09T10:40:30.000Z</time>
      </trkpt>
      <trkpt lat="47.29187" lon="-1.67324">
        <ele>120</ele>
        <time>2021-10-09T10:40:32.000Z</time>
      </trkpt>
      <trkpt lat="47.29199" lon="-1.67327">
        <ele>120</ele>
        <time>2021-10-09T10:40:34.000Z</time>
      </trkpt>
      <trkpt lat="47.29212" lon="-1.67328">
        <ele>120</ele>
        <time>2021-10-09T10:40:36.000Z</time>
      </trkpt>
      <trkpt lat="47.29224" lon="-1.67328">
        <ele>120</ele>
        <time>2021-10-09T10:40:38.000Z</time>
      </trkpt>
      <trkpt lat="47.29238" lon="-1.67327">
        <ele>121</ele>
        <time>2021-10-09T10:40:40.000Z</time>
      </trkpt>
      <trkpt lat="47.2925" lon="-1.67324">
        <ele>123</ele>
        <time>2021-10-09T10:40:42.000Z</time>
      </trkpt>
      <trkpt lat="47.29262" lon="-1.6732">
        <ele>122</ele>
        <time>2021-10-09T10:40:44.000Z</time>
      </trkpt>
      <trkpt lat="47.29273" lon="-1.67312">
        <ele>122</ele>
        <time>2021-10-09T10:40:46.000Z</time>
      </trkpt>
      <trkpt lat="47.29283" lon="-1.67301">
        <ele>122</ele>
        <time>2021-10-09T10:40:48.000Z</time>
      </trkpt>
      <trkpt lat="47.29291" lon="-1.67288">
        <ele>122</ele>
        <time>2021-10-09T10:40:50.000Z</time>
      </trkpt>
      <trkpt lat="47.29299" lon="-1.67274">
        <ele>122</ele>
        <time>2021-10-09T10:40:52.000Z</time>
      </trkpt>
      <trkpt lat="47.29306" lon="-1.67259">
        <ele>122</ele>
        <time>2021-10-09T10:40:54.000Z</time>
      </trkpt>
      <trkpt lat="47.29312" lon="-1.67245">
        <ele>122</ele>
        <time>2021-10-09T10:40:56.000Z</time>
      </trkpt>
      <trkpt lat="47.29319" lon="-1.6723">
        <ele>122</ele>
        <time>2021-10-09T10:40:58.000Z</time>
      </trkpt>
      <trkpt lat="47.29327" lon="-1.67215">
        <ele>122</ele>
        <time>2021-10-09T10:41:00.000Z</time>
      </trkpt>
      <trkpt lat="47.29334" lon="-1.672">
        <ele>122</ele>
        <time>2021-10-09T10:41:02.000Z</time>
      </trkpt>
      <trkpt lat="47.2934" lon="-1.67186">
        <ele>123</ele>
        <time>2021-10-09T10:41:04.000Z</time>
      </trkpt>
      <trkpt lat="47.29347" lon="-1.67172">
        <ele>123</ele>
        <time>2021-10-09T10:41:06.000Z</time>
      </trkpt>
      <trkpt lat="47.29355" lon="-1.67158">
        <ele>123</ele>
        <time>2021-10-09T10:41:08.000Z</time>
      </trkpt>
      <trkpt lat="47.29363" lon="-1.67143">
        <ele>123</ele>
        <time>2021-10-09T10:41:10.000Z</time>
      </trkpt>
      <trkpt lat="47.29371" lon="-1.67129">
        <ele>122</ele>
        <time>2021-10-09T10:41:12.000Z</time>
      </trkpt>
      <trkpt lat="47.29379" lon="-1.67113">
        <ele>121</ele>
        <time>2021-10-09T10:41:14.000Z</time>
      </trkpt>
      <trkpt lat="47.29386" lon="-1.67098">
        <ele>121</ele>
        <time>2021-10-09T10:41:16.000Z</time>
      </trkpt>
      <trkpt lat="47.29394" lon="-1.67083">
        <ele>121</ele>
        <time>2021-10-09T10:41:18.000Z</time>
      </trkpt>
      <trkpt lat="47.29402" lon="-1.67068">
        <ele>121</ele>
        <time>2021-10-09T10:41:20.000Z</time>
      </trkpt>
      <trkpt lat="47.2941" lon="-1.67053">
        <ele>121</ele>
        <time>2021-10-09T10:41:22.000Z</time>
      </trkpt>
      <trkpt lat="47.29418" lon="-1.67038">
        <ele>120</ele>
        <time>2021-10-09T10:41:24.000Z</time>
      </trkpt>
      <trkpt lat="47.29425" lon="-1.67023">
        <ele>120</ele>
        <time>2021-10-09T10:41:26.000Z</time>
      </trkpt>
      <trkpt lat="47.29433" lon="-1.67008">
        <ele>120</ele>
        <time>2021-10-09T10:41:28.000Z</time>
      </trkpt>
      <trkpt lat="47.29443" lon="-1.66994">
        <ele>120</ele>
        <time>2021-10-09T10:41:30.000Z</time>
      </trkpt>
      <trkpt lat="47.29453" lon="-1.66983">
        <ele>120</ele>
        <time>2021-10-09T10:41:32.000Z</time>
      </trkpt>
      <trkpt lat="47.29465" lon="-1.66973">
        <ele>120</ele>
        <time>2021-10-09T10:41:34.000Z</time>
      </trkpt>
      <trkpt lat="47.29477" lon="-1.66966">
        <ele>120</ele>
        <time>2021-10-09T10:41:36.000Z</time>
      </trkpt>
      <trkpt lat="47.29489" lon="-1.66959">
        <ele>120</ele>
        <time>2021-10-09T10:41:38.000Z</time>
      </trkpt>
      <trkpt lat="47.29499" lon="-1.66952">
        <ele>120</ele>
        <time>2021-10-09T10:41:40.000Z</time>
      </trkpt>
      <trkpt lat="47.2951" lon="-1.66945">
        <ele>120</ele>
        <time>2021-10-09T10:41:42.000Z</time>
      </trkpt>
      <trkpt lat="47.29521" lon="-1.66937">
        <ele>121</ele>
        <time>2021-10-09T10:41:44.000Z</time>
      </trkpt>
      <trkpt lat="47.29532" lon="-1.66931">
        <ele>122</ele>
        <time>2021-10-09T10:41:46.000Z</time>
      </trkpt>
      <trkpt lat="47.29544" lon="-1.66924">
        <ele>123</ele>
        <time>2021-10-09T10:41:48.000Z</time>
      </trkpt>
      <trkpt lat="47.29555" lon="-1.66918">
        <ele>123</ele>
        <time>2021-10-09T10:41:50.000Z</time>
      </trkpt>
      <trkpt lat="47.29568" lon="-1.66911">
        <ele>123</ele>
        <time>2021-10-09T10:41:52.000Z</time>
      </trkpt>
      <trkpt lat="47.29582" lon="-1.66904">
        <ele>122</ele>
        <time>2021-10-09T10:41:54.000Z</time>
      </trkpt>
      <trkpt lat="47.29595" lon="-1.66897">
        <ele>122</ele>
        <time>2021-10-09T10:41:56.000Z</time>
      </trkpt>
      <trkpt lat="47.29609" lon="-1.66889">
        <ele>121</ele>
        <time>2021-10-09T10:41:58.000Z</time>
      </trkpt>
      <trkpt lat="47.29624" lon="-1.66882">
        <ele>121</ele>
        <time>2021-10-09T10:42:00.000Z</time>
      </trkpt>
      <trkpt lat="47.29638" lon="-1.66873">
        <ele>120</ele>
        <time>2021-10-09T10:42:02.000Z</time>
      </trkpt>
      <trkpt lat="47.29651" lon="-1.66862">
        <ele>119</ele>
        <time>2021-10-09T10:42:04.000Z</time>
      </trkpt>
      <trkpt lat="47.29663" lon="-1.66851">
        <ele>119</ele>
        <time>2021-10-09T10:42:06.000Z</time>
      </trkpt>
      <trkpt lat="47.29673" lon="-1.66838">
        <ele>119</ele>
        <time>2021-10-09T10:42:08.000Z</time>
      </trkpt>
      <trkpt lat="47.29683" lon="-1.66824">
        <ele>119</ele>
        <time>2021-10-09T10:42:10.000Z</time>
      </trkpt>
      <trkpt lat="47.29692" lon="-1.66809">
        <ele>120</ele>
        <time>2021-10-09T10:42:12.000Z</time>
      </trkpt>
      <trkpt lat="47.29701" lon="-1.66794">
        <ele>120</ele>
        <time>2021-10-09T10:42:14.000Z</time>
      </trkpt>
      <trkpt lat="47.29709" lon="-1.6678">
        <ele>120</ele>
        <time>2021-10-09T10:42:16.000Z</time>
      </trkpt>
      <trkpt lat="47.29717" lon="-1.66767">
        <ele>120</ele>
        <time>2021-10-09T10:42:18.000Z</time>
      </trkpt>
      <trkpt lat="47.29727" lon="-1.66752">
        <ele>119</ele>
        <time>2021-10-09T10:42:20.000Z</time>
      </trkpt>
      <trkpt lat="47.29736" lon="-1.66736">
        <ele>119</ele>
        <time>2021-10-09T10:42:22.000Z</time>
      </trkpt>
      <trkpt lat="47.29746" lon="-1.66722">
        <ele>118</ele>
        <time>2021-10-09T10:42:24.000Z</time>
      </trkpt>
      <trkpt lat="47.29755" lon="-1.66708">
        <ele>118</ele>
        <time>2021-10-09T10:42:26.000Z</time>
      </trkpt>
      <trkpt lat="47.29765" lon="-1.66694">
        <ele>117</ele>
        <time>2021-10-09T10:42:28.000Z</time>
      </trkpt>
      <trkpt lat="47.29775" lon="-1.66681">
        <ele>117</ele>
        <time>2021-10-09T10:42:30.000Z</time>
      </trkpt>
      <trkpt lat="47.29785" lon="-1.6667">
        <ele>117</ele>
        <time>2021-10-09T10:42:32.000Z</time>
      </trkpt>
      <trkpt lat="47.29796" lon="-1.66661">
        <ele>116</ele>
        <time>2021-10-09T10:42:34.000Z</time>
      </trkpt>
      <trkpt lat="47.29806" lon="-1.66651">
        <ele>115</ele>
        <time>2021-10-09T10:42:36.000Z</time>
      </trkpt>
      <trkpt lat="47.29816" lon="-1.6664">
        <ele>115</ele>
        <time>2021-10-09T10:42:38.000Z</time>
      </trkpt>
      <trkpt lat="47.29827" lon="-1.66629">
        <ele>114</ele>
        <time>2021-10-09T10:42:40.000Z</time>
      </trkpt>
      <trkpt lat="47.29837" lon="-1.66618">
        <ele>114</ele>
        <time>2021-10-09T10:42:42.000Z</time>
      </trkpt>
      <trkpt lat="47.29846" lon="-1.66607">
        <ele>114</ele>
        <time>2021-10-09T10:42:44.000Z</time>
      </trkpt>
      <trkpt lat="47.29856" lon="-1.66596">
        <ele>115</ele>
        <time>2021-10-09T10:42:46.000Z</time>
      </trkpt>
      <trkpt lat="47.29865" lon="-1.66582">
        <ele>115</ele>
        <time>2021-10-09T10:42:48.000Z</time>
      </trkpt>
      <trkpt lat="47.29874" lon="-1.66568">
        <ele>115</ele>
        <time>2021-10-09T10:42:50.000Z</time>
      </trkpt>
      <trkpt lat="47.29882" lon="-1.66554">
        <ele>114</ele>
        <time>2021-10-09T10:42:52.000Z</time>
      </trkpt>
      <trkpt lat="47.2989" lon="-1.66541">
        <ele>115</ele>
        <time>2021-10-09T10:42:54.000Z</time>
      </trkpt>
      <trkpt lat="47.29898" lon="-1.66528">
        <ele>114</ele>
        <time>2021-10-09T10:42:56.000Z</time>
      </trkpt>
      <trkpt lat="47.29905" lon="-1.66515">
        <ele>115</ele>
        <time>2021-10-09T10:42:58.000Z</time>
      </trkpt>
      <trkpt lat="47.29913" lon="-1.66504">
        <ele>115</ele>
        <time>2021-10-09T10:43:00.000Z</time>
      </trkpt>
      <trkpt lat="47.29922" lon="-1.66491">
        <ele>115</ele>
        <time>2021-10-09T10:43:02.000Z</time>
      </trkpt>
      <trkpt lat="47.29929" lon="-1.66479">
        <ele>115</ele>
        <time>2021-10-09T10:43:04.000Z</time>
      </trkpt>
      <trkpt lat="47.29935" lon="-1.66468">
        <ele>115</ele>
        <time>2021-10-09T10:43:06.000Z</time>
      </trkpt>
      <trkpt lat="47.29941" lon="-1.66455">
        <ele>115</ele>
        <time>2021-10-09T10:43:09.000Z</time>
      </trkpt>
      <trkpt lat="47.29948" lon="-1.66443">
        <ele>115</ele>
        <time>2021-10-09T10:43:12.000Z</time>
      </trkpt>
      <trkpt lat="47.29956" lon="-1.66431">
        <ele>115</ele>
        <time>2021-10-09T10:43:14.000Z</time>
      </trkpt>
      <trkpt lat="47.29965" lon="-1.66419">
        <ele>115</ele>
        <time>2021-10-09T10:43:16.000Z</time>
      </trkpt>
      <trkpt lat="47.29974" lon="-1.66405">
        <ele>115</ele>
        <time>2021-10-09T10:43:18.000Z</time>
      </trkpt>
      <trkpt lat="47.29982" lon="-1.66391">
        <ele>115</ele>
        <time>2021-10-09T10:43:20.000Z</time>
      </trkpt>
      <trkpt lat="47.29991" lon="-1.66376">
        <ele>115</ele>
        <time>2021-10-09T10:43:22.000Z</time>
      </trkpt>
      <trkpt lat="47.3" lon="-1.66361">
        <ele>114</ele>
        <time>2021-10-09T10:43:24.000Z</time>
      </trkpt>
      <trkpt lat="47.30009" lon="-1.66347">
        <ele>114</ele>
        <time>2021-10-09T10:43:26.000Z</time>
      </trkpt>
      <trkpt lat="47.30018" lon="-1.66333">
        <ele>114</ele>
        <time>2021-10-09T10:43:28.000Z</time>
      </trkpt>
      <trkpt lat="47.30028" lon="-1.66318">
        <ele>114</ele>
        <time>2021-10-09T10:43:30.000Z</time>
      </trkpt>
      <trkpt lat="47.30036" lon="-1.66304">
        <ele>114</ele>
        <time>2021-10-09T10:43:32.000Z</time>
      </trkpt>
      <trkpt lat="47.30045" lon="-1.66289">
        <ele>114</ele>
        <time>2021-10-09T10:43:34.000Z</time>
      </trkpt>
      <trkpt lat="47.30054" lon="-1.66275">
        <ele>114</ele>
        <time>2021-10-09T10:43:36.000Z</time>
      </trkpt>
      <trkpt lat="47.30063" lon="-1.66262">
        <ele>114</ele>
        <time>2021-10-09T10:43:38.000Z</time>
      </trkpt>
      <trkpt lat="47.30073" lon="-1.66249">
        <ele>114</ele>
        <time>2021-10-09T10:43:40.000Z</time>
      </trkpt>
      <trkpt lat="47.30081" lon="-1.66235">
        <ele>114</ele>
        <time>2021-10-09T10:43:42.000Z</time>
      </trkpt>
      <trkpt lat="47.3009" lon="-1.66221">
        <ele>114</ele>
        <time>2021-10-09T10:43:44.000Z</time>
      </trkpt>
      <trkpt lat="47.30099" lon="-1.66208">
        <ele>114</ele>
        <time>2021-10-09T10:43:46.000Z</time>
      </trkpt>
      <trkpt lat="47.30108" lon="-1.66196">
        <ele>115</ele>
        <time>2021-10-09T10:43:48.000Z</time>
      </trkpt>
      <trkpt lat="47.30118" lon="-1.66184">
        <ele>115</ele>
        <time>2021-10-09T10:43:50.000Z</time>
      </trkpt>
      <trkpt lat="47.30128" lon="-1.66174">
        <ele>116</ele>
        <time>2021-10-09T10:43:52.000Z</time>
      </trkpt>
      <trkpt lat="47.30138" lon="-1.66164">
        <ele>116</ele>
        <time>2021-10-09T10:43:54.000Z</time>
      </trkpt>
      <trkpt lat="47.30149" lon="-1.66153">
        <ele>117</ele>
        <time>2021-10-09T10:43:56.000Z</time>
      </trkpt>
      <trkpt lat="47.3016" lon="-1.66144">
        <ele>117</ele>
        <time>2021-10-09T10:43:58.000Z</time>
      </trkpt>
      <trkpt lat="47.3017" lon="-1.66134">
        <ele>116</ele>
        <time>2021-10-09T10:44:00.000Z</time>
      </trkpt>
      <trkpt lat="47.3018" lon="-1.66123">
        <ele>116</ele>
        <time>2021-10-09T10:44:02.000Z</time>
      </trkpt>
      <trkpt lat="47.3019" lon="-1.66112">
        <ele>117</ele>
        <time>2021-10-09T10:44:04.000Z</time>
      </trkpt>
      <trkpt lat="47.30201" lon="-1.66101">
        <ele>117</ele>
        <time>2021-10-09T10:44:06.000Z</time>
      </trkpt>
      <trkpt lat="47.30211" lon="-1.6609">
        <ele>117</ele>
        <time>2021-10-09T10:44:08.000Z</time>
      </trkpt>
      <trkpt lat="47.30221" lon="-1.66079">
        <ele>117</ele>
        <time>2021-10-09T10:44:10.000Z</time>
      </trkpt>
      <trkpt lat="47.30231" lon="-1.66068">
        <ele>118</ele>
        <time>2021-10-09T10:44:12.000Z</time>
      </trkpt>
      <trkpt lat="47.30241" lon="-1.66058">
        <ele>117</ele>
        <time>2021-10-09T10:44:14.000Z</time>
      </trkpt>
      <trkpt lat="47.30256" lon="-1.66042">
        <ele>117</ele>
        <time>2021-10-09T10:44:17.000Z</time>
      </trkpt>
      <trkpt lat="47.30267" lon="-1.66031">
        <ele>117</ele>
        <time>2021-10-09T10:44:19.000Z</time>
      </trkpt>
      <trkpt lat="47.30277" lon="-1.6602">
        <ele>117</ele>
        <time>2021-10-09T10:44:21.000Z</time>
      </trkpt>
      <trkpt lat="47.30287" lon="-1.66008">
        <ele>118</ele>
        <time>2021-10-09T10:44:23.000Z</time>
      </trkpt>
      <trkpt lat="47.30303" lon="-1.65993">
        <ele>118</ele>
        <time>2021-10-09T10:44:26.000Z</time>
      </trkpt>
      <trkpt lat="47.30313" lon="-1.65982">
        <ele>118</ele>
        <time>2021-10-09T10:44:28.000Z</time>
      </trkpt>
      <trkpt lat="47.30323" lon="-1.65971">
        <ele>118</ele>
        <time>2021-10-09T10:44:30.000Z</time>
      </trkpt>
      <trkpt lat="47.30339" lon="-1.65955">
        <ele>118</ele>
        <time>2021-10-09T10:44:33.000Z</time>
      </trkpt>
      <trkpt lat="47.30355" lon="-1.65939">
        <ele>118</ele>
        <time>2021-10-09T10:44:36.000Z</time>
      </trkpt>
      <trkpt lat="47.30364" lon="-1.65928">
        <ele>119</ele>
        <time>2021-10-09T10:44:38.000Z</time>
      </trkpt>
      <trkpt lat="47.30374" lon="-1.65918">
        <ele>119</ele>
        <time>2021-10-09T10:44:40.000Z</time>
      </trkpt>
      <trkpt lat="47.30384" lon="-1.65906">
        <ele>119</ele>
        <time>2021-10-09T10:44:42.000Z</time>
      </trkpt>
      <trkpt lat="47.30395" lon="-1.65896">
        <ele>119</ele>
        <time>2021-10-09T10:44:44.000Z</time>
      </trkpt>
      <trkpt lat="47.30405" lon="-1.65885">
        <ele>119</ele>
        <time>2021-10-09T10:44:46.000Z</time>
      </trkpt>
      <trkpt lat="47.30416" lon="-1.65875">
        <ele>119</ele>
        <time>2021-10-09T10:44:48.000Z</time>
      </trkpt>
      <trkpt lat="47.30426" lon="-1.65864">
        <ele>119</ele>
        <time>2021-10-09T10:44:50.000Z</time>
      </trkpt>
      <trkpt lat="47.30441" lon="-1.65848">
        <ele>119</ele>
        <time>2021-10-09T10:44:53.000Z</time>
      </trkpt>
      <trkpt lat="47.30451" lon="-1.65838">
        <ele>120</ele>
        <time>2021-10-09T10:44:55.000Z</time>
      </trkpt>
      <trkpt lat="47.30461" lon="-1.65827">
        <ele>120</ele>
        <time>2021-10-09T10:44:57.000Z</time>
      </trkpt>
      <trkpt lat="47.30471" lon="-1.65816">
        <ele>120</ele>
        <time>2021-10-09T10:44:59.000Z</time>
      </trkpt>
      <trkpt lat="47.30481" lon="-1.65805">
        <ele>119</ele>
        <time>2021-10-09T10:45:01.000Z</time>
      </trkpt>
      <trkpt lat="47.30491" lon="-1.65794">
        <ele>119</ele>
        <time>2021-10-09T10:45:03.000Z</time>
      </trkpt>
      <trkpt lat="47.30501" lon="-1.65784">
        <ele>119</ele>
        <time>2021-10-09T10:45:05.000Z</time>
      </trkpt>
      <trkpt lat="47.30511" lon="-1.65774">
        <ele>120</ele>
        <time>2021-10-09T10:45:07.000Z</time>
      </trkpt>
      <trkpt lat="47.30521" lon="-1.65763">
        <ele>120</ele>
        <time>2021-10-09T10:45:09.000Z</time>
      </trkpt>
      <trkpt lat="47.3053" lon="-1.65753">
        <ele>120</ele>
        <time>2021-10-09T10:45:11.000Z</time>
      </trkpt>
      <trkpt lat="47.3054" lon="-1.65743">
        <ele>119</ele>
        <time>2021-10-09T10:45:13.000Z</time>
      </trkpt>
      <trkpt lat="47.30551" lon="-1.65732">
        <ele>119</ele>
        <time>2021-10-09T10:45:15.000Z</time>
      </trkpt>
      <trkpt lat="47.30561" lon="-1.65722">
        <ele>119</ele>
        <time>2021-10-09T10:45:17.000Z</time>
      </trkpt>
      <trkpt lat="47.30571" lon="-1.65712">
        <ele>119</ele>
        <time>2021-10-09T10:45:19.000Z</time>
      </trkpt>
      <trkpt lat="47.3058" lon="-1.65702">
        <ele>119</ele>
        <time>2021-10-09T10:45:21.000Z</time>
      </trkpt>
      <trkpt lat="47.3059" lon="-1.65692">
        <ele>119</ele>
        <time>2021-10-09T10:45:23.000Z</time>
      </trkpt>
      <trkpt lat="47.30599" lon="-1.65681">
        <ele>120</ele>
        <time>2021-10-09T10:45:25.000Z</time>
      </trkpt>
      <trkpt lat="47.3061" lon="-1.65671">
        <ele>119</ele>
        <time>2021-10-09T10:45:27.000Z</time>
      </trkpt>
      <trkpt lat="47.3062" lon="-1.65661">
        <ele>119</ele>
        <time>2021-10-09T10:45:29.000Z</time>
      </trkpt>
      <trkpt lat="47.3063" lon="-1.6565">
        <ele>119</ele>
        <time>2021-10-09T10:45:31.000Z</time>
      </trkpt>
      <trkpt lat="47.3064" lon="-1.6564">
        <ele>120</ele>
        <time>2021-10-09T10:45:33.000Z</time>
      </trkpt>
      <trkpt lat="47.3065" lon="-1.6563">
        <ele>120</ele>
        <time>2021-10-09T10:45:35.000Z</time>
      </trkpt>
      <trkpt lat="47.30661" lon="-1.65619">
        <ele>120</ele>
        <time>2021-10-09T10:45:37.000Z</time>
      </trkpt>
      <trkpt lat="47.3067" lon="-1.6561">
        <ele>120</ele>
        <time>2021-10-09T10:45:39.000Z</time>
      </trkpt>
      <trkpt lat="47.3068" lon="-1.65601">
        <ele>120</ele>
        <time>2021-10-09T10:45:41.000Z</time>
      </trkpt>
      <trkpt lat="47.3069" lon="-1.65589">
        <ele>120</ele>
        <time>2021-10-09T10:45:43.000Z</time>
      </trkpt>
      <trkpt lat="47.307" lon="-1.65578">
        <ele>120</ele>
        <time>2021-10-09T10:45:45.000Z</time>
      </trkpt>
      <trkpt lat="47.3071" lon="-1.65567">
        <ele>120</ele>
        <time>2021-10-09T10:45:47.000Z</time>
      </trkpt>
      <trkpt lat="47.3072" lon="-1.65555">
        <ele>120</ele>
        <time>2021-10-09T10:45:49.000Z</time>
      </trkpt>
      <trkpt lat="47.30729" lon="-1.65543">
        <ele>120</ele>
        <time>2021-10-09T10:45:51.000Z</time>
      </trkpt>
      <trkpt lat="47.30737" lon="-1.65528">
        <ele>121</ele>
        <time>2021-10-09T10:45:53.000Z</time>
      </trkpt>
      <trkpt lat="47.30743" lon="-1.65513">
        <ele>120</ele>
        <time>2021-10-09T10:45:55.000Z</time>
      </trkpt>
      <trkpt lat="47.30749" lon="-1.65498">
        <ele>120</ele>
        <time>2021-10-09T10:45:57.000Z</time>
      </trkpt>
      <trkpt lat="47.30757" lon="-1.65484">
        <ele>120</ele>
        <time>2021-10-09T10:45:59.000Z</time>
      </trkpt>
      <trkpt lat="47.30765" lon="-1.65469">
        <ele>119</ele>
        <time>2021-10-09T10:46:01.000Z</time>
      </trkpt>
      <trkpt lat="47.30773" lon="-1.65456">
        <ele>119</ele>
        <time>2021-10-09T10:46:03.000Z</time>
      </trkpt>
      <trkpt lat="47.3078" lon="-1.65441">
        <ele>119</ele>
        <time>2021-10-09T10:46:05.000Z</time>
      </trkpt>
      <trkpt lat="47.30789" lon="-1.65427">
        <ele>118</ele>
        <time>2021-10-09T10:46:07.000Z</time>
      </trkpt>
      <trkpt lat="47.30797" lon="-1.65413">
        <ele>118</ele>
        <time>2021-10-09T10:46:09.000Z</time>
      </trkpt>
      <trkpt lat="47.30805" lon="-1.65399">
        <ele>118</ele>
        <time>2021-10-09T10:46:11.000Z</time>
      </trkpt>
      <trkpt lat="47.30812" lon="-1.65385">
        <ele>118</ele>
        <time>2021-10-09T10:46:13.000Z</time>
      </trkpt>
      <trkpt lat="47.3082" lon="-1.65371">
        <ele>117</ele>
        <time>2021-10-09T10:46:15.000Z</time>
      </trkpt>
      <trkpt lat="47.30828" lon="-1.65358">
        <ele>117</ele>
        <time>2021-10-09T10:46:17.000Z</time>
      </trkpt>
      <trkpt lat="47.30836" lon="-1.65344">
        <ele>117</ele>
        <time>2021-10-09T10:46:19.000Z</time>
      </trkpt>
      <trkpt lat="47.30844" lon="-1.6533">
        <ele>117</ele>
        <time>2021-10-09T10:46:21.000Z</time>
      </trkpt>
      <trkpt lat="47.30852" lon="-1.65316">
        <ele>117</ele>
        <time>2021-10-09T10:46:23.000Z</time>
      </trkpt>
      <trkpt lat="47.3086" lon="-1.65301">
        <ele>117</ele>
        <time>2021-10-09T10:46:25.000Z</time>
      </trkpt>
      <trkpt lat="47.30868" lon="-1.65286">
        <ele>117</ele>
        <time>2021-10-09T10:46:27.000Z</time>
      </trkpt>
      <trkpt lat="47.30877" lon="-1.65272">
        <ele>116</ele>
        <time>2021-10-09T10:46:29.000Z</time>
      </trkpt>
      <trkpt lat="47.30886" lon="-1.65257">
        <ele>116</ele>
        <time>2021-10-09T10:46:31.000Z</time>
      </trkpt>
      <trkpt lat="47.30894" lon="-1.65242">
        <ele>115</ele>
        <time>2021-10-09T10:46:33.000Z</time>
      </trkpt>
      <trkpt lat="47.30902" lon="-1.65226">
        <ele>115</ele>
        <time>2021-10-09T10:46:35.000Z</time>
      </trkpt>
      <trkpt lat="47.30911" lon="-1.65211">
        <ele>115</ele>
        <time>2021-10-09T10:46:37.000Z</time>
      </trkpt>
      <trkpt lat="47.30919" lon="-1.65196">
        <ele>114</ele>
        <time>2021-10-09T10:46:39.000Z</time>
      </trkpt>
      <trkpt lat="47.30928" lon="-1.65181">
        <ele>114</ele>
        <time>2021-10-09T10:46:41.000Z</time>
      </trkpt>
      <trkpt lat="47.30938" lon="-1.65166">
        <ele>113</ele>
        <time>2021-10-09T10:46:43.000Z</time>
      </trkpt>
      <trkpt lat="47.30947" lon="-1.65149">
        <ele>113</ele>
        <time>2021-10-09T10:46:45.000Z</time>
      </trkpt>
      <trkpt lat="47.30956" lon="-1.65133">
        <ele>113</ele>
        <time>2021-10-09T10:46:47.000Z</time>
      </trkpt>
      <trkpt lat="47.30964" lon="-1.65118">
        <ele>113</ele>
        <time>2021-10-09T10:46:49.000Z</time>
      </trkpt>
      <trkpt lat="47.30973" lon="-1.65103">
        <ele>114</ele>
        <time>2021-10-09T10:46:51.000Z</time>
      </trkpt>
      <trkpt lat="47.30983" lon="-1.65089">
        <ele>114</ele>
        <time>2021-10-09T10:46:53.000Z</time>
      </trkpt>
      <trkpt lat="47.30994" lon="-1.65079">
        <ele>114</ele>
        <time>2021-10-09T10:46:55.000Z</time>
      </trkpt>
      <trkpt lat="47.31006" lon="-1.65072">
        <ele>113</ele>
        <time>2021-10-09T10:46:57.000Z</time>
      </trkpt>
      <trkpt lat="47.31019" lon="-1.65064">
        <ele>113</ele>
        <time>2021-10-09T10:46:59.000Z</time>
      </trkpt>
      <trkpt lat="47.31032" lon="-1.65057">
        <ele>112</ele>
        <time>2021-10-09T10:47:01.000Z</time>
      </trkpt>
      <trkpt lat="47.31045" lon="-1.65051">
        <ele>112</ele>
        <time>2021-10-09T10:47:03.000Z</time>
      </trkpt>
      <trkpt lat="47.31059" lon="-1.65046">
        <ele>112</ele>
        <time>2021-10-09T10:47:05.000Z</time>
      </trkpt>
      <trkpt lat="47.31072" lon="-1.6504">
        <ele>111</ele>
        <time>2021-10-09T10:47:07.000Z</time>
      </trkpt>
      <trkpt lat="47.31087" lon="-1.65035">
        <ele>110</ele>
        <time>2021-10-09T10:47:09.000Z</time>
      </trkpt>
      <trkpt lat="47.311" lon="-1.65031">
        <ele>110</ele>
        <time>2021-10-09T10:47:11.000Z</time>
      </trkpt>
      <trkpt lat="47.31114" lon="-1.65031">
        <ele>110</ele>
        <time>2021-10-09T10:47:13.000Z</time>
      </trkpt>
      <trkpt lat="47.31128" lon="-1.65033">
        <ele>110</ele>
        <time>2021-10-09T10:47:15.000Z</time>
      </trkpt>
      <trkpt lat="47.31141" lon="-1.65039">
        <ele>110</ele>
        <time>2021-10-09T10:47:17.000Z</time>
      </trkpt>
      <trkpt lat="47.31153" lon="-1.65047">
        <ele>110</ele>
        <time>2021-10-09T10:47:19.000Z</time>
      </trkpt>
      <trkpt lat="47.31165" lon="-1.65054">
        <ele>111</ele>
        <time>2021-10-09T10:47:21.000Z</time>
      </trkpt>
      <trkpt lat="47.31178" lon="-1.65057">
        <ele>112</ele>
        <time>2021-10-09T10:47:23.000Z</time>
      </trkpt>
      <trkpt lat="47.3119" lon="-1.65056">
        <ele>112</ele>
        <time>2021-10-09T10:47:25.000Z</time>
      </trkpt>
      <trkpt lat="47.31201" lon="-1.65052">
        <ele>112</ele>
        <time>2021-10-09T10:47:27.000Z</time>
      </trkpt>
      <trkpt lat="47.31211" lon="-1.65048">
        <ele>114</ele>
        <time>2021-10-09T10:47:29.000Z</time>
      </trkpt>
      <trkpt lat="47.3122" lon="-1.65042">
        <ele>114</ele>
        <time>2021-10-09T10:47:31.000Z</time>
      </trkpt>
      <trkpt lat="47.31231" lon="-1.65037">
        <ele>115</ele>
        <time>2021-10-09T10:47:33.000Z</time>
      </trkpt>
      <trkpt lat="47.31241" lon="-1.65031">
        <ele>115</ele>
        <time>2021-10-09T10:47:35.000Z</time>
      </trkpt>
      <trkpt lat="47.3125" lon="-1.65026">
        <ele>116</ele>
        <time>2021-10-09T10:47:37.000Z</time>
      </trkpt>
      <trkpt lat="47.3126" lon="-1.65021">
        <ele>116</ele>
        <time>2021-10-09T10:47:39.000Z</time>
      </trkpt>
      <trkpt lat="47.31269" lon="-1.65015">
        <ele>117</ele>
        <time>2021-10-09T10:47:41.000Z</time>
      </trkpt>
      <trkpt lat="47.31278" lon="-1.65009">
        <ele>118</ele>
        <time>2021-10-09T10:47:43.000Z</time>
      </trkpt>
      <trkpt lat="47.31288" lon="-1.65003">
        <ele>118</ele>
        <time>2021-10-09T10:47:45.000Z</time>
      </trkpt>
      <trkpt lat="47.31298" lon="-1.64997">
        <ele>119</ele>
        <time>2021-10-09T10:47:47.000Z</time>
      </trkpt>
      <trkpt lat="47.31308" lon="-1.64991">
        <ele>119</ele>
        <time>2021-10-09T10:47:49.000Z</time>
      </trkpt>
      <trkpt lat="47.31318" lon="-1.64984">
        <ele>119</ele>
        <time>2021-10-09T10:47:51.000Z</time>
      </trkpt>
      <trkpt lat="47.31328" lon="-1.64978">
        <ele>120</ele>
        <time>2021-10-09T10:47:53.000Z</time>
      </trkpt>
      <trkpt lat="47.31338" lon="-1.64971">
        <ele>120</ele>
        <time>2021-10-09T10:47:55.000Z</time>
      </trkpt>
      <trkpt lat="47.31348" lon="-1.64964">
        <ele>120</ele>
        <time>2021-10-09T10:47:57.000Z</time>
      </trkpt>
      <trkpt lat="47.31359" lon="-1.64958">
        <ele>120</ele>
        <time>2021-10-09T10:47:59.000Z</time>
      </trkpt>
      <trkpt lat="47.31369" lon="-1.64951">
        <ele>120</ele>
        <time>2021-10-09T10:48:01.000Z</time>
      </trkpt>
      <trkpt lat="47.3138" lon="-1.64944">
        <ele>120</ele>
        <time>2021-10-09T10:48:03.000Z</time>
      </trkpt>
      <trkpt lat="47.31391" lon="-1.64937">
        <ele>120</ele>
        <time>2021-10-09T10:48:05.000Z</time>
      </trkpt>
      <trkpt lat="47.31401" lon="-1.6493">
        <ele>120</ele>
        <time>2021-10-09T10:48:07.000Z</time>
      </trkpt>
      <trkpt lat="47.31412" lon="-1.64924">
        <ele>120</ele>
        <time>2021-10-09T10:48:09.000Z</time>
      </trkpt>
      <trkpt lat="47.31423" lon="-1.64919">
        <ele>121</ele>
        <time>2021-10-09T10:48:11.000Z</time>
      </trkpt>
      <trkpt lat="47.31435" lon="-1.64916">
        <ele>121</ele>
        <time>2021-10-09T10:48:13.000Z</time>
      </trkpt>
      <trkpt lat="47.31449" lon="-1.64914">
        <ele>121</ele>
        <time>2021-10-09T10:48:15.000Z</time>
      </trkpt>
      <trkpt lat="47.31464" lon="-1.64913">
        <ele>121</ele>
        <time>2021-10-09T10:48:17.000Z</time>
      </trkpt>
      <trkpt lat="47.31479" lon="-1.64914">
        <ele>120</ele>
        <time>2021-10-09T10:48:19.000Z</time>
      </trkpt>
      <trkpt lat="47.31492" lon="-1.64912">
        <ele>120</ele>
        <time>2021-10-09T10:48:21.000Z</time>
      </trkpt>
      <trkpt lat="47.31503" lon="-1.64909">
        <ele>119</ele>
        <time>2021-10-09T10:48:23.000Z</time>
      </trkpt>
      <trkpt lat="47.31513" lon="-1.64906">
        <ele>119</ele>
        <time>2021-10-09T10:48:25.000Z</time>
      </trkpt>
      <trkpt lat="47.31526" lon="-1.64901">
        <ele>119</ele>
        <time>2021-10-09T10:48:27.000Z</time>
      </trkpt>
      <trkpt lat="47.31538" lon="-1.64894">
        <ele>118</ele>
        <time>2021-10-09T10:48:29.000Z</time>
      </trkpt>
      <trkpt lat="47.3155" lon="-1.64886">
        <ele>117</ele>
        <time>2021-10-09T10:48:31.000Z</time>
      </trkpt>
      <trkpt lat="47.31563" lon="-1.64877">
        <ele>116</ele>
        <time>2021-10-09T10:48:33.000Z</time>
      </trkpt>
      <trkpt lat="47.31575" lon="-1.64868">
        <ele>116</ele>
        <time>2021-10-09T10:48:35.000Z</time>
      </trkpt>
      <trkpt lat="47.31587" lon="-1.64859">
        <ele>116</ele>
        <time>2021-10-09T10:48:37.000Z</time>
      </trkpt>
      <trkpt lat="47.316" lon="-1.64849">
        <ele>116</ele>
        <time>2021-10-09T10:48:39.000Z</time>
      </trkpt>
      <trkpt lat="47.31612" lon="-1.64838">
        <ele>115</ele>
        <time>2021-10-09T10:48:41.000Z</time>
      </trkpt>
      <trkpt lat="47.31625" lon="-1.64825">
        <ele>114</ele>
        <time>2021-10-09T10:48:43.000Z</time>
      </trkpt>
      <trkpt lat="47.31637" lon="-1.64811">
        <ele>113</ele>
        <time>2021-10-09T10:48:45.000Z</time>
      </trkpt>
      <trkpt lat="47.31649" lon="-1.64797">
        <ele>113</ele>
        <time>2021-10-09T10:48:47.000Z</time>
      </trkpt>
      <trkpt lat="47.31662" lon="-1.64783">
        <ele>113</ele>
        <time>2021-10-09T10:48:49.000Z</time>
      </trkpt>
      <trkpt lat="47.31675" lon="-1.64769">
        <ele>112</ele>
        <time>2021-10-09T10:48:51.000Z</time>
      </trkpt>
      <trkpt lat="47.3169" lon="-1.64754">
        <ele>111</ele>
        <time>2021-10-09T10:48:53.000Z</time>
      </trkpt>
      <trkpt lat="47.31697" lon="-1.64747">
        <ele>111</ele>
        <time>2021-10-09T10:48:54.000Z</time>
      </trkpt>
      <trkpt lat="47.31711" lon="-1.64733">
        <ele>111</ele>
        <time>2021-10-09T10:48:56.000Z</time>
      </trkpt>
      <trkpt lat="47.31726" lon="-1.64719">
        <ele>111</ele>
        <time>2021-10-09T10:48:58.000Z</time>
      </trkpt>
      <trkpt lat="47.31739" lon="-1.64707">
        <ele>110</ele>
        <time>2021-10-09T10:49:00.000Z</time>
      </trkpt>
      <trkpt lat="47.31754" lon="-1.64697">
        <ele>111</ele>
        <time>2021-10-09T10:49:02.000Z</time>
      </trkpt>
      <trkpt lat="47.31768" lon="-1.64691">
        <ele>110</ele>
        <time>2021-10-09T10:49:04.000Z</time>
      </trkpt>
      <trkpt lat="47.31783" lon="-1.64686">
        <ele>110</ele>
        <time>2021-10-09T10:49:06.000Z</time>
      </trkpt>
      <trkpt lat="47.31799" lon="-1.6468">
        <ele>109</ele>
        <time>2021-10-09T10:49:08.000Z</time>
      </trkpt>
      <trkpt lat="47.31815" lon="-1.64672">
        <ele>109</ele>
        <time>2021-10-09T10:49:10.000Z</time>
      </trkpt>
      <trkpt lat="47.31831" lon="-1.64667">
        <ele>109</ele>
        <time>2021-10-09T10:49:12.000Z</time>
      </trkpt>
      <trkpt lat="47.31846" lon="-1.64662">
        <ele>108</ele>
        <time>2021-10-09T10:49:14.000Z</time>
      </trkpt>
      <trkpt lat="47.31862" lon="-1.64656">
        <ele>108</ele>
        <time>2021-10-09T10:49:16.000Z</time>
      </trkpt>
      <trkpt lat="47.31878" lon="-1.6465">
        <ele>107</ele>
        <time>2021-10-09T10:49:18.000Z</time>
      </trkpt>
      <trkpt lat="47.31893" lon="-1.64645">
        <ele>107</ele>
        <time>2021-10-09T10:49:20.000Z</time>
      </trkpt>
      <trkpt lat="47.31908" lon="-1.64639">
        <ele>106</ele>
        <time>2021-10-09T10:49:22.000Z</time>
      </trkpt>
      <trkpt lat="47.31922" lon="-1.64634">
        <ele>105</ele>
        <time>2021-10-09T10:49:24.000Z</time>
      </trkpt>
      <trkpt lat="47.31937" lon="-1.64627">
        <ele>104</ele>
        <time>2021-10-09T10:49:26.000Z</time>
      </trkpt>
      <trkpt lat="47.31951" lon="-1.64621">
        <ele>104</ele>
        <time>2021-10-09T10:49:28.000Z</time>
      </trkpt>
      <trkpt lat="47.31966" lon="-1.64616">
        <ele>103</ele>
        <time>2021-10-09T10:49:30.000Z</time>
      </trkpt>
      <trkpt lat="47.31981" lon="-1.6461">
        <ele>103</ele>
        <time>2021-10-09T10:49:32.000Z</time>
      </trkpt>
      <trkpt lat="47.31997" lon="-1.64604">
        <ele>102</ele>
        <time>2021-10-09T10:49:34.000Z</time>
      </trkpt>
      <trkpt lat="47.32012" lon="-1.64599">
        <ele>101</ele>
        <time>2021-10-09T10:49:36.000Z</time>
      </trkpt>
      <trkpt lat="47.32028" lon="-1.64594">
        <ele>101</ele>
        <time>2021-10-09T10:49:38.000Z</time>
      </trkpt>
      <trkpt lat="47.32042" lon="-1.6459">
        <ele>101</ele>
        <time>2021-10-09T10:49:40.000Z</time>
      </trkpt>
      <trkpt lat="47.32059" lon="-1.64583">
        <ele>100</ele>
        <time>2021-10-09T10:49:42.000Z</time>
      </trkpt>
      <trkpt lat="47.32075" lon="-1.64576">
        <ele>100</ele>
        <time>2021-10-09T10:49:44.000Z</time>
      </trkpt>
      <trkpt lat="47.32091" lon="-1.6457">
        <ele>99</ele>
        <time>2021-10-09T10:49:46.000Z</time>
      </trkpt>
      <trkpt lat="47.32108" lon="-1.64563">
        <ele>98</ele>
        <time>2021-10-09T10:49:48.000Z</time>
      </trkpt>
      <trkpt lat="47.32117" lon="-1.64559">
        <ele>98</ele>
        <time>2021-10-09T10:49:49.000Z</time>
      </trkpt>
      <trkpt lat="47.32126" lon="-1.64556">
        <ele>96</ele>
        <time>2021-10-09T10:49:50.000Z</time>
      </trkpt>
      <trkpt lat="47.32135" lon="-1.64552">
        <ele>95</ele>
        <time>2021-10-09T10:49:51.000Z</time>
      </trkpt>
      <trkpt lat="47.32144" lon="-1.64548">
        <ele>95</ele>
        <time>2021-10-09T10:49:52.000Z</time>
      </trkpt>
      <trkpt lat="47.32152" lon="-1.64542">
        <ele>95</ele>
        <time>2021-10-09T10:49:53.000Z</time>
      </trkpt>
      <trkpt lat="47.3216" lon="-1.64535">
        <ele>95</ele>
        <time>2021-10-09T10:49:54.000Z</time>
      </trkpt>
      <trkpt lat="47.32175" lon="-1.64519">
        <ele>94</ele>
        <time>2021-10-09T10:49:56.000Z</time>
      </trkpt>
      <trkpt lat="47.32183" lon="-1.64509">
        <ele>94</ele>
        <time>2021-10-09T10:49:57.000Z</time>
      </trkpt>
      <trkpt lat="47.3219" lon="-1.64498">
        <ele>94</ele>
        <time>2021-10-09T10:49:58.000Z</time>
      </trkpt>
      <trkpt lat="47.32196" lon="-1.64485">
        <ele>94</ele>
        <time>2021-10-09T10:49:59.000Z</time>
      </trkpt>
      <trkpt lat="47.32201" lon="-1.64472">
        <ele>93</ele>
        <time>2021-10-09T10:50:00.000Z</time>
      </trkpt>
      <trkpt lat="47.32207" lon="-1.6446">
        <ele>92</ele>
        <time>2021-10-09T10:50:01.000Z</time>
      </trkpt>
      <trkpt lat="47.32213" lon="-1.64448">
        <ele>91</ele>
        <time>2021-10-09T10:50:02.000Z</time>
      </trkpt>
      <trkpt lat="47.32219" lon="-1.64437">
        <ele>90</ele>
        <time>2021-10-09T10:50:03.000Z</time>
      </trkpt>
      <trkpt lat="47.32224" lon="-1.64425">
        <ele>89</ele>
        <time>2021-10-09T10:50:04.000Z</time>
      </trkpt>
      <trkpt lat="47.32229" lon="-1.64414">
        <ele>87</ele>
        <time>2021-10-09T10:50:05.000Z</time>
      </trkpt>
      <trkpt lat="47.32234" lon="-1.64401">
        <ele>87</ele>
        <time>2021-10-09T10:50:06.000Z</time>
      </trkpt>
      <trkpt lat="47.32238" lon="-1.64388">
        <ele>86</ele>
        <time>2021-10-09T10:50:07.000Z</time>
      </trkpt>
      <trkpt lat="47.32241" lon="-1.64375">
        <ele>85</ele>
        <time>2021-10-09T10:50:08.000Z</time>
      </trkpt>
      <trkpt lat="47.32245" lon="-1.64361">
        <ele>84</ele>
        <time>2021-10-09T10:50:09.000Z</time>
      </trkpt>
      <trkpt lat="47.32249" lon="-1.64346">
        <ele>83</ele>
        <time>2021-10-09T10:50:10.000Z</time>
      </trkpt>
      <trkpt lat="47.32251" lon="-1.64333">
        <ele>82</ele>
        <time>2021-10-09T10:50:11.000Z</time>
      </trkpt>
      <trkpt lat="47.32256" lon="-1.64313">
        <ele>81</ele>
        <time>2021-10-09T10:50:13.000Z</time>
      </trkpt>
      <trkpt lat="47.32268" lon="-1.64306">
        <ele>79</ele>
        <time>2021-10-09T10:50:15.000Z</time>
      </trkpt>
      <trkpt lat="47.32281" lon="-1.64312">
        <ele>77</ele>
        <time>2021-10-09T10:50:17.000Z</time>
      </trkpt>
      <trkpt lat="47.32295" lon="-1.64319">
        <ele>75</ele>
        <time>2021-10-09T10:50:19.000Z</time>
      </trkpt>
      <trkpt lat="47.3231" lon="-1.64326">
        <ele>74</ele>
        <time>2021-10-09T10:50:21.000Z</time>
      </trkpt>
      <trkpt lat="47.32324" lon="-1.64334">
        <ele>74</ele>
        <time>2021-10-09T10:50:23.000Z</time>
      </trkpt>
      <trkpt lat="47.3234" lon="-1.64339">
        <ele>74</ele>
        <time>2021-10-09T10:50:25.000Z</time>
      </trkpt>
      <trkpt lat="47.32355" lon="-1.64342">
        <ele>73</ele>
        <time>2021-10-09T10:50:27.000Z</time>
      </trkpt>
      <trkpt lat="47.3237" lon="-1.64345">
        <ele>72</ele>
        <time>2021-10-09T10:50:29.000Z</time>
      </trkpt>
      <trkpt lat="47.32385" lon="-1.64348">
        <ele>72</ele>
        <time>2021-10-09T10:50:31.000Z</time>
      </trkpt>
      <trkpt lat="47.324" lon="-1.64351">
        <ele>72</ele>
        <time>2021-10-09T10:50:33.000Z</time>
      </trkpt>
      <trkpt lat="47.32414" lon="-1.64353">
        <ele>72</ele>
        <time>2021-10-09T10:50:35.000Z</time>
      </trkpt>
      <trkpt lat="47.32429" lon="-1.64355">
        <ele>72</ele>
        <time>2021-10-09T10:50:37.000Z</time>
      </trkpt>
      <trkpt lat="47.32444" lon="-1.64358">
        <ele>72</ele>
        <time>2021-10-09T10:50:39.000Z</time>
      </trkpt>
      <trkpt lat="47.32457" lon="-1.64363">
        <ele>72</ele>
        <time>2021-10-09T10:50:41.000Z</time>
      </trkpt>
      <trkpt lat="47.3247" lon="-1.64371">
        <ele>72</ele>
        <time>2021-10-09T10:50:43.000Z</time>
      </trkpt>
      <trkpt lat="47.32482" lon="-1.64381">
        <ele>72</ele>
        <time>2021-10-09T10:50:45.000Z</time>
      </trkpt>
      <trkpt lat="47.32495" lon="-1.6439">
        <ele>72</ele>
        <time>2021-10-09T10:50:47.000Z</time>
      </trkpt>
      <trkpt lat="47.32507" lon="-1.64397">
        <ele>72</ele>
        <time>2021-10-09T10:50:49.000Z</time>
      </trkpt>
      <trkpt lat="47.3252" lon="-1.64398">
        <ele>73</ele>
        <time>2021-10-09T10:50:51.000Z</time>
      </trkpt>
      <trkpt lat="47.32531" lon="-1.64399">
        <ele>74</ele>
        <time>2021-10-09T10:50:53.000Z</time>
      </trkpt>
      <trkpt lat="47.32542" lon="-1.64398">
        <ele>74</ele>
        <time>2021-10-09T10:50:55.000Z</time>
      </trkpt>
      <trkpt lat="47.32552" lon="-1.64396">
        <ele>74</ele>
        <time>2021-10-09T10:50:57.000Z</time>
      </trkpt>
      <trkpt lat="47.32561" lon="-1.64394">
        <ele>74</ele>
        <time>2021-10-09T10:50:59.000Z</time>
      </trkpt>
      <trkpt lat="47.32571" lon="-1.64391">
        <ele>75</ele>
        <time>2021-10-09T10:51:01.000Z</time>
      </trkpt>
      <trkpt lat="47.3258" lon="-1.64388">
        <ele>75</ele>
        <time>2021-10-09T10:51:03.000Z</time>
      </trkpt>
      <trkpt lat="47.3259" lon="-1.64385">
        <ele>76</ele>
        <time>2021-10-09T10:51:05.000Z</time>
      </trkpt>
      <trkpt lat="47.32599" lon="-1.64382">
        <ele>76</ele>
        <time>2021-10-09T10:51:07.000Z</time>
      </trkpt>
      <trkpt lat="47.32608" lon="-1.6438">
        <ele>76</ele>
        <time>2021-10-09T10:51:09.000Z</time>
      </trkpt>
      <trkpt lat="47.32617" lon="-1.64377">
        <ele>77</ele>
        <time>2021-10-09T10:51:11.000Z</time>
      </trkpt>
      <trkpt lat="47.32627" lon="-1.64374">
        <ele>77</ele>
        <time>2021-10-09T10:51:13.000Z</time>
      </trkpt>
      <trkpt lat="47.32636" lon="-1.64371">
        <ele>78</ele>
        <time>2021-10-09T10:51:15.000Z</time>
      </trkpt>
      <trkpt lat="47.32645" lon="-1.64368">
        <ele>78</ele>
        <time>2021-10-09T10:51:17.000Z</time>
      </trkpt>
      <trkpt lat="47.32654" lon="-1.64365">
        <ele>79</ele>
        <time>2021-10-09T10:51:19.000Z</time>
      </trkpt>
      <trkpt lat="47.32668" lon="-1.6436">
        <ele>79</ele>
        <time>2021-10-09T10:51:22.000Z</time>
      </trkpt>
      <trkpt lat="47.32677" lon="-1.64357">
        <ele>80</ele>
        <time>2021-10-09T10:51:24.000Z</time>
      </trkpt>
      <trkpt lat="47.3269" lon="-1.64354">
        <ele>81</ele>
        <time>2021-10-09T10:51:27.000Z</time>
      </trkpt>
      <trkpt lat="47.327" lon="-1.64351">
        <ele>81</ele>
        <time>2021-10-09T10:51:29.000Z</time>
      </trkpt>
      <trkpt lat="47.32713" lon="-1.64349">
        <ele>81</ele>
        <time>2021-10-09T10:51:32.000Z</time>
      </trkpt>
      <trkpt lat="47.32725" lon="-1.64346">
        <ele>82</ele>
        <time>2021-10-09T10:51:35.000Z</time>
      </trkpt>
      <trkpt lat="47.32737" lon="-1.64342">
        <ele>82</ele>
        <time>2021-10-09T10:51:38.000Z</time>
      </trkpt>
      <trkpt lat="47.3275" lon="-1.64339">
        <ele>83</ele>
        <time>2021-10-09T10:51:41.000Z</time>
      </trkpt>
      <trkpt lat="47.32761" lon="-1.64337">
        <ele>83</ele>
        <time>2021-10-09T10:51:44.000Z</time>
      </trkpt>
      <trkpt lat="47.32774" lon="-1.64335">
        <ele>83</ele>
        <time>2021-10-09T10:51:47.000Z</time>
      </trkpt>
      <trkpt lat="47.32787" lon="-1.64333">
        <ele>84</ele>
        <time>2021-10-09T10:51:50.000Z</time>
      </trkpt>
      <trkpt lat="47.32799" lon="-1.64331">
        <ele>84</ele>
        <time>2021-10-09T10:51:53.000Z</time>
      </trkpt>
      <trkpt lat="47.32812" lon="-1.64328">
        <ele>84</ele>
        <time>2021-10-09T10:51:56.000Z</time>
      </trkpt>
      <trkpt lat="47.32821" lon="-1.64327">
        <ele>84</ele>
        <time>2021-10-09T10:51:58.000Z</time>
      </trkpt>
      <trkpt lat="47.32834" lon="-1.64325">
        <ele>85</ele>
        <time>2021-10-09T10:52:01.000Z</time>
      </trkpt>
      <trkpt lat="47.32845" lon="-1.64325">
        <ele>86</ele>
        <time>2021-10-09T10:52:04.000Z</time>
      </trkpt>
      <trkpt lat="47.32857" lon="-1.64323">
        <ele>86</ele>
        <time>2021-10-09T10:52:07.000Z</time>
      </trkpt>
      <trkpt lat="47.32867" lon="-1.64321">
        <ele>87</ele>
        <time>2021-10-09T10:52:10.000Z</time>
      </trkpt>
      <trkpt lat="47.32878" lon="-1.64319">
        <ele>87</ele>
        <time>2021-10-09T10:52:13.000Z</time>
      </trkpt>
      <trkpt lat="47.32889" lon="-1.64317">
        <ele>87</ele>
        <time>2021-10-09T10:52:16.000Z</time>
      </trkpt>
      <trkpt lat="47.32901" lon="-1.64313">
        <ele>88</ele>
        <time>2021-10-09T10:52:19.000Z</time>
      </trkpt>
      <trkpt lat="47.32915" lon="-1.64312">
        <ele>89</ele>
        <time>2021-10-09T10:52:22.000Z</time>
      </trkpt>
      <trkpt lat="47.32924" lon="-1.6431">
        <ele>89</ele>
        <time>2021-10-09T10:52:24.000Z</time>
      </trkpt>
      <trkpt lat="47.32933" lon="-1.64309">
        <ele>90</ele>
        <time>2021-10-09T10:52:26.000Z</time>
      </trkpt>
      <trkpt lat="47.32942" lon="-1.64309">
        <ele>91</ele>
        <time>2021-10-09T10:52:28.000Z</time>
      </trkpt>
      <trkpt lat="47.32955" lon="-1.6431">
        <ele>91</ele>
        <time>2021-10-09T10:52:31.000Z</time>
      </trkpt>
      <trkpt lat="47.32964" lon="-1.6431">
        <ele>92</ele>
        <time>2021-10-09T10:52:33.000Z</time>
      </trkpt>
      <trkpt lat="47.32978" lon="-1.6431">
        <ele>93</ele>
        <time>2021-10-09T10:52:36.000Z</time>
      </trkpt>
      <trkpt lat="47.32991" lon="-1.64312">
        <ele>93</ele>
        <time>2021-10-09T10:52:39.000Z</time>
      </trkpt>
      <trkpt lat="47.33004" lon="-1.64314">
        <ele>95</ele>
        <time>2021-10-09T10:52:42.000Z</time>
      </trkpt>
      <trkpt lat="47.33016" lon="-1.64319">
        <ele>96</ele>
        <time>2021-10-09T10:52:45.000Z</time>
      </trkpt>
      <trkpt lat="47.33026" lon="-1.64323">
        <ele>98</ele>
        <time>2021-10-09T10:52:48.000Z</time>
      </trkpt>
      <trkpt lat="47.33036" lon="-1.64326">
        <ele>98</ele>
        <time>2021-10-09T10:52:51.000Z</time>
      </trkpt>
      <trkpt lat="47.33048" lon="-1.64329">
        <ele>100</ele>
        <time>2021-10-09T10:52:54.000Z</time>
      </trkpt>
      <trkpt lat="47.33059" lon="-1.64332">
        <ele>101</ele>
        <time>2021-10-09T10:52:57.000Z</time>
      </trkpt>
      <trkpt lat="47.3307" lon="-1.64336">
        <ele>102</ele>
        <time>2021-10-09T10:53:00.000Z</time>
      </trkpt>
      <trkpt lat="47.33081" lon="-1.6434">
        <ele>103</ele>
        <time>2021-10-09T10:53:03.000Z</time>
      </trkpt>
      <trkpt lat="47.33092" lon="-1.64344">
        <ele>104</ele>
        <time>2021-10-09T10:53:06.000Z</time>
      </trkpt>
      <trkpt lat="47.33102" lon="-1.64345">
        <ele>104</ele>
        <time>2021-10-09T10:53:11.000Z</time>
      </trkpt>
      <trkpt lat="47.33113" lon="-1.64343">
        <ele>105</ele>
        <time>2021-10-09T10:53:22.000Z</time>
      </trkpt>
      <trkpt lat="47.33122" lon="-1.64344">
        <ele>105</ele>
        <time>2021-10-09T10:53:24.000Z</time>
      </trkpt>
      <trkpt lat="47.33131" lon="-1.64341">
        <ele>106</ele>
        <time>2021-10-09T10:53:26.000Z</time>
      </trkpt>
      <trkpt lat="47.33145" lon="-1.64339">
        <ele>106</ele>
        <time>2021-10-09T10:53:29.000Z</time>
      </trkpt>
      <trkpt lat="47.33154" lon="-1.64337">
        <ele>107</ele>
        <time>2021-10-09T10:53:31.000Z</time>
      </trkpt>
      <trkpt lat="47.33167" lon="-1.64334">
        <ele>106</ele>
        <time>2021-10-09T10:53:34.000Z</time>
      </trkpt>
      <trkpt lat="47.33179" lon="-1.6433">
        <ele>107</ele>
        <time>2021-10-09T10:53:37.000Z</time>
      </trkpt>
      <trkpt lat="47.33191" lon="-1.64326">
        <ele>107</ele>
        <time>2021-10-09T10:53:40.000Z</time>
      </trkpt>
      <trkpt lat="47.33203" lon="-1.64324">
        <ele>107</ele>
        <time>2021-10-09T10:53:43.000Z</time>
      </trkpt>
      <trkpt lat="47.33216" lon="-1.64321">
        <ele>108</ele>
        <time>2021-10-09T10:53:46.000Z</time>
      </trkpt>
      <trkpt lat="47.33228" lon="-1.64317">
        <ele>108</ele>
        <time>2021-10-09T10:53:49.000Z</time>
      </trkpt>
      <trkpt lat="47.33237" lon="-1.64312">
        <ele>108</ele>
        <time>2021-10-09T10:53:51.000Z</time>
      </trkpt>
      <trkpt lat="47.3325" lon="-1.64305">
        <ele>109</ele>
        <time>2021-10-09T10:53:54.000Z</time>
      </trkpt>
      <trkpt lat="47.33261" lon="-1.64296">
        <ele>110</ele>
        <time>2021-10-09T10:53:57.000Z</time>
      </trkpt>
      <trkpt lat="47.33269" lon="-1.64287">
        <ele>110</ele>
        <time>2021-10-09T10:53:59.000Z</time>
      </trkpt>
      <trkpt lat="47.33277" lon="-1.64278">
        <ele>110</ele>
        <time>2021-10-09T10:54:01.000Z</time>
      </trkpt>
      <trkpt lat="47.33284" lon="-1.64269">
        <ele>111</ele>
        <time>2021-10-09T10:54:03.000Z</time>
      </trkpt>
      <trkpt lat="47.33292" lon="-1.64259">
        <ele>111</ele>
        <time>2021-10-09T10:54:05.000Z</time>
      </trkpt>
      <trkpt lat="47.333" lon="-1.6425">
        <ele>111</ele>
        <time>2021-10-09T10:54:07.000Z</time>
      </trkpt>
      <trkpt lat="47.33308" lon="-1.64241">
        <ele>111</ele>
        <time>2021-10-09T10:54:09.000Z</time>
      </trkpt>
      <trkpt lat="47.33315" lon="-1.64233">
        <ele>111</ele>
        <time>2021-10-09T10:54:11.000Z</time>
      </trkpt>
      <trkpt lat="47.33323" lon="-1.64224">
        <ele>112</ele>
        <time>2021-10-09T10:54:13.000Z</time>
      </trkpt>
      <trkpt lat="47.3333" lon="-1.64216">
        <ele>112</ele>
        <time>2021-10-09T10:54:15.000Z</time>
      </trkpt>
      <trkpt lat="47.33338" lon="-1.64207">
        <ele>112</ele>
        <time>2021-10-09T10:54:17.000Z</time>
      </trkpt>
      <trkpt lat="47.33347" lon="-1.642">
        <ele>112</ele>
        <time>2021-10-09T10:54:19.000Z</time>
      </trkpt>
      <trkpt lat="47.33356" lon="-1.6419">
        <ele>112</ele>
        <time>2021-10-09T10:54:21.000Z</time>
      </trkpt>
      <trkpt lat="47.33365" lon="-1.64179">
        <ele>112</ele>
        <time>2021-10-09T10:54:23.000Z</time>
      </trkpt>
      <trkpt lat="47.33373" lon="-1.6417">
        <ele>113</ele>
        <time>2021-10-09T10:54:25.000Z</time>
      </trkpt>
      <trkpt lat="47.33382" lon="-1.6416">
        <ele>113</ele>
        <time>2021-10-09T10:54:27.000Z</time>
      </trkpt>
      <trkpt lat="47.33391" lon="-1.6415">
        <ele>113</ele>
        <time>2021-10-09T10:54:29.000Z</time>
      </trkpt>
      <trkpt lat="47.334" lon="-1.64138">
        <ele>114</ele>
        <time>2021-10-09T10:54:31.000Z</time>
      </trkpt>
      <trkpt lat="47.33408" lon="-1.64127">
        <ele>115</ele>
        <time>2021-10-09T10:54:33.000Z</time>
      </trkpt>
      <trkpt lat="47.33417" lon="-1.64116">
        <ele>115</ele>
        <time>2021-10-09T10:54:35.000Z</time>
      </trkpt>
      <trkpt lat="47.33426" lon="-1.64105">
        <ele>115</ele>
        <time>2021-10-09T10:54:37.000Z</time>
      </trkpt>
      <trkpt lat="47.33435" lon="-1.64094">
        <ele>114</ele>
        <time>2021-10-09T10:54:39.000Z</time>
      </trkpt>
      <trkpt lat="47.33443" lon="-1.64083">
        <ele>114</ele>
        <time>2021-10-09T10:54:41.000Z</time>
      </trkpt>
      <trkpt lat="47.33453" lon="-1.64073">
        <ele>114</ele>
        <time>2021-10-09T10:54:43.000Z</time>
      </trkpt>
      <trkpt lat="47.33462" lon="-1.64061">
        <ele>113</ele>
        <time>2021-10-09T10:54:45.000Z</time>
      </trkpt>
      <trkpt lat="47.33472" lon="-1.6405">
        <ele>113</ele>
        <time>2021-10-09T10:54:47.000Z</time>
      </trkpt>
      <trkpt lat="47.33481" lon="-1.6404">
        <ele>113</ele>
        <time>2021-10-09T10:54:49.000Z</time>
      </trkpt>
      <trkpt lat="47.33489" lon="-1.64029">
        <ele>113</ele>
        <time>2021-10-09T10:54:51.000Z</time>
      </trkpt>
      <trkpt lat="47.33499" lon="-1.64018">
        <ele>113</ele>
        <time>2021-10-09T10:54:53.000Z</time>
      </trkpt>
      <trkpt lat="47.33509" lon="-1.64007">
        <ele>113</ele>
        <time>2021-10-09T10:54:55.000Z</time>
      </trkpt>
      <trkpt lat="47.33518" lon="-1.63996">
        <ele>113</ele>
        <time>2021-10-09T10:54:57.000Z</time>
      </trkpt>
      <trkpt lat="47.33527" lon="-1.63985">
        <ele>113</ele>
        <time>2021-10-09T10:54:59.000Z</time>
      </trkpt>
      <trkpt lat="47.33536" lon="-1.63974">
        <ele>113</ele>
        <time>2021-10-09T10:55:01.000Z</time>
      </trkpt>
      <trkpt lat="47.33545" lon="-1.63965">
        <ele>113</ele>
        <time>2021-10-09T10:55:03.000Z</time>
      </trkpt>
      <trkpt lat="47.33554" lon="-1.63954">
        <ele>113</ele>
        <time>2021-10-09T10:55:05.000Z</time>
      </trkpt>
      <trkpt lat="47.33563" lon="-1.63944">
        <ele>114</ele>
        <time>2021-10-09T10:55:07.000Z</time>
      </trkpt>
      <trkpt lat="47.33572" lon="-1.63934">
        <ele>114</ele>
        <time>2021-10-09T10:55:09.000Z</time>
      </trkpt>
      <trkpt lat="47.33582" lon="-1.63921">
        <ele>115</ele>
        <time>2021-10-09T10:55:11.000Z</time>
      </trkpt>
      <trkpt lat="47.33592" lon="-1.63909">
        <ele>114</ele>
        <time>2021-10-09T10:55:13.000Z</time>
      </trkpt>
      <trkpt lat="47.33601" lon="-1.63899">
        <ele>114</ele>
        <time>2021-10-09T10:55:15.000Z</time>
      </trkpt>
      <trkpt lat="47.33609" lon="-1.63889">
        <ele>114</ele>
        <time>2021-10-09T10:55:17.000Z</time>
      </trkpt>
      <trkpt lat="47.33619" lon="-1.63878">
        <ele>114</ele>
        <time>2021-10-09T10:55:19.000Z</time>
      </trkpt>
      <trkpt lat="47.33629" lon="-1.63867">
        <ele>114</ele>
        <time>2021-10-09T10:55:21.000Z</time>
      </trkpt>
      <trkpt lat="47.33638" lon="-1.63856">
        <ele>114</ele>
        <time>2021-10-09T10:55:23.000Z</time>
      </trkpt>
      <trkpt lat="47.33647" lon="-1.63845">
        <ele>114</ele>
        <time>2021-10-09T10:55:25.000Z</time>
      </trkpt>
      <trkpt lat="47.33657" lon="-1.63834">
        <ele>113</ele>
        <time>2021-10-09T10:55:27.000Z</time>
      </trkpt>
      <trkpt lat="47.33666" lon="-1.63821">
        <ele>113</ele>
        <time>2021-10-09T10:55:29.000Z</time>
      </trkpt>
      <trkpt lat="47.33676" lon="-1.63809">
        <ele>113</ele>
        <time>2021-10-09T10:55:31.000Z</time>
      </trkpt>
      <trkpt lat="47.33685" lon="-1.63797">
        <ele>112</ele>
        <time>2021-10-09T10:55:33.000Z</time>
      </trkpt>
      <trkpt lat="47.33695" lon="-1.63786">
        <ele>112</ele>
        <time>2021-10-09T10:55:35.000Z</time>
      </trkpt>
      <trkpt lat="47.33705" lon="-1.63775">
        <ele>112</ele>
        <time>2021-10-09T10:55:37.000Z</time>
      </trkpt>
      <trkpt lat="47.33713" lon="-1.63765">
        <ele>112</ele>
        <time>2021-10-09T10:55:39.000Z</time>
      </trkpt>
      <trkpt lat="47.33722" lon="-1.63755">
        <ele>112</ele>
        <time>2021-10-09T10:55:41.000Z</time>
      </trkpt>
      <trkpt lat="47.33731" lon="-1.63746">
        <ele>112</ele>
        <time>2021-10-09T10:55:43.000Z</time>
      </trkpt>
      <trkpt lat="47.3374" lon="-1.63737">
        <ele>112</ele>
        <time>2021-10-09T10:55:45.000Z</time>
      </trkpt>
      <trkpt lat="47.33749" lon="-1.63728">
        <ele>112</ele>
        <time>2021-10-09T10:55:47.000Z</time>
      </trkpt>
      <trkpt lat="47.33758" lon="-1.63718">
        <ele>112</ele>
        <time>2021-10-09T10:55:49.000Z</time>
      </trkpt>
      <trkpt lat="47.33766" lon="-1.63707">
        <ele>112</ele>
        <time>2021-10-09T10:55:51.000Z</time>
      </trkpt>
      <trkpt lat="47.33776" lon="-1.63697">
        <ele>113</ele>
        <time>2021-10-09T10:55:53.000Z</time>
      </trkpt>
      <trkpt lat="47.33785" lon="-1.63687">
        <ele>113</ele>
        <time>2021-10-09T10:55:55.000Z</time>
      </trkpt>
      <trkpt lat="47.33795" lon="-1.63678">
        <ele>113</ele>
        <time>2021-10-09T10:55:57.000Z</time>
      </trkpt>
      <trkpt lat="47.33804" lon="-1.63666">
        <ele>113</ele>
        <time>2021-10-09T10:55:59.000Z</time>
      </trkpt>
      <trkpt lat="47.33814" lon="-1.63653">
        <ele>114</ele>
        <time>2021-10-09T10:56:01.000Z</time>
      </trkpt>
      <trkpt lat="47.33823" lon="-1.6364">
        <ele>114</ele>
        <time>2021-10-09T10:56:03.000Z</time>
      </trkpt>
      <trkpt lat="47.33832" lon="-1.63628">
        <ele>115</ele>
        <time>2021-10-09T10:56:05.000Z</time>
      </trkpt>
      <trkpt lat="47.33841" lon="-1.63618">
        <ele>114</ele>
        <time>2021-10-09T10:56:07.000Z</time>
      </trkpt>
      <trkpt lat="47.33848" lon="-1.63609">
        <ele>114</ele>
        <time>2021-10-09T10:56:09.000Z</time>
      </trkpt>
      <trkpt lat="47.33858" lon="-1.63597">
        <ele>113</ele>
        <time>2021-10-09T10:56:12.000Z</time>
      </trkpt>
      <trkpt lat="47.33868" lon="-1.63586">
        <ele>113</ele>
        <time>2021-10-09T10:56:15.000Z</time>
      </trkpt>
      <trkpt lat="47.33876" lon="-1.63576">
        <ele>112</ele>
        <time>2021-10-09T10:56:17.000Z</time>
      </trkpt>
      <trkpt lat="47.33886" lon="-1.63564">
        <ele>113</ele>
        <time>2021-10-09T10:56:19.000Z</time>
      </trkpt>
      <trkpt lat="47.33895" lon="-1.63552">
        <ele>112</ele>
        <time>2021-10-09T10:56:21.000Z</time>
      </trkpt>
      <trkpt lat="47.33905" lon="-1.63541">
        <ele>111</ele>
        <time>2021-10-09T10:56:23.000Z</time>
      </trkpt>
      <trkpt lat="47.33915" lon="-1.6353">
        <ele>111</ele>
        <time>2021-10-09T10:56:25.000Z</time>
      </trkpt>
      <trkpt lat="47.33925" lon="-1.63521">
        <ele>111</ele>
        <time>2021-10-09T10:56:27.000Z</time>
      </trkpt>
      <trkpt lat="47.33935" lon="-1.63513">
        <ele>112</ele>
        <time>2021-10-09T10:56:29.000Z</time>
      </trkpt>
      <trkpt lat="47.33945" lon="-1.63506">
        <ele>112</ele>
        <time>2021-10-09T10:56:31.000Z</time>
      </trkpt>
      <trkpt lat="47.33955" lon="-1.63499">
        <ele>112</ele>
        <time>2021-10-09T10:56:33.000Z</time>
      </trkpt>
      <trkpt lat="47.33966" lon="-1.63493">
        <ele>113</ele>
        <time>2021-10-09T10:56:35.000Z</time>
      </trkpt>
      <trkpt lat="47.33977" lon="-1.63486">
        <ele>113</ele>
        <time>2021-10-09T10:56:37.000Z</time>
      </trkpt>
      <trkpt lat="47.33989" lon="-1.6348">
        <ele>113</ele>
        <time>2021-10-09T10:56:39.000Z</time>
      </trkpt>
      <trkpt lat="47.33999" lon="-1.63475">
        <ele>113</ele>
        <time>2021-10-09T10:56:41.000Z</time>
      </trkpt>
      <trkpt lat="47.3401" lon="-1.63469">
        <ele>114</ele>
        <time>2021-10-09T10:56:43.000Z</time>
      </trkpt>
      <trkpt lat="47.34022" lon="-1.63462">
        <ele>113</ele>
        <time>2021-10-09T10:56:45.000Z</time>
      </trkpt>
      <trkpt lat="47.34034" lon="-1.63455">
        <ele>113</ele>
        <time>2021-10-09T10:56:47.000Z</time>
      </trkpt>
      <trkpt lat="47.34046" lon="-1.63448">
        <ele>113</ele>
        <time>2021-10-09T10:56:49.000Z</time>
      </trkpt>
      <trkpt lat="47.34058" lon="-1.63442">
        <ele>112</ele>
        <time>2021-10-09T10:56:51.000Z</time>
      </trkpt>
      <trkpt lat="47.34069" lon="-1.63435">
        <ele>112</ele>
        <time>2021-10-09T10:56:53.000Z</time>
      </trkpt>
      <trkpt lat="47.3408" lon="-1.63428">
        <ele>111</ele>
        <time>2021-10-09T10:56:55.000Z</time>
      </trkpt>
      <trkpt lat="47.34091" lon="-1.63422">
        <ele>111</ele>
        <time>2021-10-09T10:56:57.000Z</time>
      </trkpt>
      <trkpt lat="47.34103" lon="-1.63415">
        <ele>110</ele>
        <time>2021-10-09T10:56:59.000Z</time>
      </trkpt>
      <trkpt lat="47.34113" lon="-1.63408">
        <ele>110</ele>
        <time>2021-10-09T10:57:01.000Z</time>
      </trkpt>
      <trkpt lat="47.34124" lon="-1.63401">
        <ele>111</ele>
        <time>2021-10-09T10:57:03.000Z</time>
      </trkpt>
      <trkpt lat="47.34135" lon="-1.63395">
        <ele>111</ele>
        <time>2021-10-09T10:57:05.000Z</time>
      </trkpt>
      <trkpt lat="47.34148" lon="-1.63388">
        <ele>111</ele>
        <time>2021-10-09T10:57:07.000Z</time>
      </trkpt>
      <trkpt lat="47.34159" lon="-1.63378">
        <ele>111</ele>
        <time>2021-10-09T10:57:09.000Z</time>
      </trkpt>
      <trkpt lat="47.3417" lon="-1.63367">
        <ele>111</ele>
        <time>2021-10-09T10:57:11.000Z</time>
      </trkpt>
      <trkpt lat="47.3418" lon="-1.63358">
        <ele>110</ele>
        <time>2021-10-09T10:57:13.000Z</time>
      </trkpt>
      <trkpt lat="47.3419" lon="-1.63347">
        <ele>111</ele>
        <time>2021-10-09T10:57:15.000Z</time>
      </trkpt>
      <trkpt lat="47.34201" lon="-1.63336">
        <ele>111</ele>
        <time>2021-10-09T10:57:17.000Z</time>
      </trkpt>
      <trkpt lat="47.34211" lon="-1.63323">
        <ele>110</ele>
        <time>2021-10-09T10:57:19.000Z</time>
      </trkpt>
      <trkpt lat="47.34221" lon="-1.63313">
        <ele>110</ele>
        <time>2021-10-09T10:57:21.000Z</time>
      </trkpt>
      <trkpt lat="47.3423" lon="-1.63301">
        <ele>110</ele>
        <time>2021-10-09T10:57:23.000Z</time>
      </trkpt>
      <trkpt lat="47.34238" lon="-1.63287">
        <ele>110</ele>
        <time>2021-10-09T10:57:25.000Z</time>
      </trkpt>
      <trkpt lat="47.34245" lon="-1.63272">
        <ele>110</ele>
        <time>2021-10-09T10:57:27.000Z</time>
      </trkpt>
      <trkpt lat="47.34251" lon="-1.63258">
        <ele>110</ele>
        <time>2021-10-09T10:57:29.000Z</time>
      </trkpt>
      <trkpt lat="47.34257" lon="-1.63242">
        <ele>110</ele>
        <time>2021-10-09T10:57:31.000Z</time>
      </trkpt>
      <trkpt lat="47.34263" lon="-1.63226">
        <ele>108</ele>
        <time>2021-10-09T10:57:33.000Z</time>
      </trkpt>
      <trkpt lat="47.34269" lon="-1.6321">
        <ele>108</ele>
        <time>2021-10-09T10:57:35.000Z</time>
      </trkpt>
      <trkpt lat="47.34275" lon="-1.63194">
        <ele>108</ele>
        <time>2021-10-09T10:57:37.000Z</time>
      </trkpt>
      <trkpt lat="47.34282" lon="-1.63179">
        <ele>108</ele>
        <time>2021-10-09T10:57:39.000Z</time>
      </trkpt>
      <trkpt lat="47.34291" lon="-1.63167">
        <ele>107</ele>
        <time>2021-10-09T10:57:41.000Z</time>
      </trkpt>
      <trkpt lat="47.34301" lon="-1.63154">
        <ele>107</ele>
        <time>2021-10-09T10:57:43.000Z</time>
      </trkpt>
      <trkpt lat="47.3431" lon="-1.63141">
        <ele>106</ele>
        <time>2021-10-09T10:57:45.000Z</time>
      </trkpt>
      <trkpt lat="47.34321" lon="-1.63129">
        <ele>106</ele>
        <time>2021-10-09T10:57:47.000Z</time>
      </trkpt>
      <trkpt lat="47.34331" lon="-1.63118">
        <ele>105</ele>
        <time>2021-10-09T10:57:49.000Z</time>
      </trkpt>
      <trkpt lat="47.34342" lon="-1.63107">
        <ele>106</ele>
        <time>2021-10-09T10:57:51.000Z</time>
      </trkpt>
      <trkpt lat="47.34353" lon="-1.63096">
        <ele>105</ele>
        <time>2021-10-09T10:57:53.000Z</time>
      </trkpt>
      <trkpt lat="47.34363" lon="-1.63085">
        <ele>106</ele>
        <time>2021-10-09T10:57:55.000Z</time>
      </trkpt>
      <trkpt lat="47.34374" lon="-1.63073">
        <ele>106</ele>
        <time>2021-10-09T10:57:57.000Z</time>
      </trkpt>
      <trkpt lat="47.34385" lon="-1.63062">
        <ele>106</ele>
        <time>2021-10-09T10:57:59.000Z</time>
      </trkpt>
      <trkpt lat="47.34402" lon="-1.63045">
        <ele>105</ele>
        <time>2021-10-09T10:58:02.000Z</time>
      </trkpt>
      <trkpt lat="47.34412" lon="-1.63033">
        <ele>105</ele>
        <time>2021-10-09T10:58:04.000Z</time>
      </trkpt>
      <trkpt lat="47.34422" lon="-1.63023">
        <ele>105</ele>
        <time>2021-10-09T10:58:06.000Z</time>
      </trkpt>
      <trkpt lat="47.34432" lon="-1.63013">
        <ele>105</ele>
        <time>2021-10-09T10:58:08.000Z</time>
      </trkpt>
      <trkpt lat="47.34442" lon="-1.63002">
        <ele>105</ele>
        <time>2021-10-09T10:58:10.000Z</time>
      </trkpt>
      <trkpt lat="47.34457" lon="-1.62986">
        <ele>105</ele>
        <time>2021-10-09T10:58:13.000Z</time>
      </trkpt>
      <trkpt lat="47.34467" lon="-1.62976">
        <ele>105</ele>
        <time>2021-10-09T10:58:15.000Z</time>
      </trkpt>
      <trkpt lat="47.34478" lon="-1.62965">
        <ele>105</ele>
        <time>2021-10-09T10:58:17.000Z</time>
      </trkpt>
      <trkpt lat="47.34488" lon="-1.62954">
        <ele>106</ele>
        <time>2021-10-09T10:58:19.000Z</time>
      </trkpt>
      <trkpt lat="47.34503" lon="-1.62939">
        <ele>106</ele>
        <time>2021-10-09T10:58:22.000Z</time>
      </trkpt>
      <trkpt lat="47.34513" lon="-1.62928">
        <ele>106</ele>
        <time>2021-10-09T10:58:24.000Z</time>
      </trkpt>
      <trkpt lat="47.34523" lon="-1.62917">
        <ele>106</ele>
        <time>2021-10-09T10:58:26.000Z</time>
      </trkpt>
      <trkpt lat="47.34533" lon="-1.62907">
        <ele>107</ele>
        <time>2021-10-09T10:58:28.000Z</time>
      </trkpt>
      <trkpt lat="47.34543" lon="-1.62896">
        <ele>107</ele>
        <time>2021-10-09T10:58:30.000Z</time>
      </trkpt>
      <trkpt lat="47.34553" lon="-1.62885">
        <ele>107</ele>
        <time>2021-10-09T10:58:32.000Z</time>
      </trkpt>
      <trkpt lat="47.34564" lon="-1.62875">
        <ele>108</ele>
        <time>2021-10-09T10:58:34.000Z</time>
      </trkpt>
      <trkpt lat="47.34574" lon="-1.62864">
        <ele>108</ele>
        <time>2021-10-09T10:58:36.000Z</time>
      </trkpt>
      <trkpt lat="47.34584" lon="-1.62853">
        <ele>108</ele>
        <time>2021-10-09T10:58:38.000Z</time>
      </trkpt>
      <trkpt lat="47.34594" lon="-1.62843">
        <ele>108</ele>
        <time>2021-10-09T10:58:40.000Z</time>
      </trkpt>
      <trkpt lat="47.34603" lon="-1.62831">
        <ele>108</ele>
        <time>2021-10-09T10:58:42.000Z</time>
      </trkpt>
      <trkpt lat="47.34612" lon="-1.6282">
        <ele>108</ele>
        <time>2021-10-09T10:58:44.000Z</time>
      </trkpt>
      <trkpt lat="47.34622" lon="-1.62807">
        <ele>108</ele>
        <time>2021-10-09T10:58:46.000Z</time>
      </trkpt>
      <trkpt lat="47.34632" lon="-1.62795">
        <ele>107</ele>
        <time>2021-10-09T10:58:48.000Z</time>
      </trkpt>
      <trkpt lat="47.34641" lon="-1.62782">
        <ele>107</ele>
        <time>2021-10-09T10:58:50.000Z</time>
      </trkpt>
      <trkpt lat="47.3465" lon="-1.62769">
        <ele>106</ele>
        <time>2021-10-09T10:58:52.000Z</time>
      </trkpt>
      <trkpt lat="47.34658" lon="-1.62755">
        <ele>106</ele>
        <time>2021-10-09T10:58:54.000Z</time>
      </trkpt>
      <trkpt lat="47.34666" lon="-1.6274">
        <ele>106</ele>
        <time>2021-10-09T10:58:56.000Z</time>
      </trkpt>
      <trkpt lat="47.34674" lon="-1.62725">
        <ele>105</ele>
        <time>2021-10-09T10:58:58.000Z</time>
      </trkpt>
      <trkpt lat="47.34682" lon="-1.62709">
        <ele>105</ele>
        <time>2021-10-09T10:59:00.000Z</time>
      </trkpt>
      <trkpt lat="47.34688" lon="-1.62692">
        <ele>105</ele>
        <time>2021-10-09T10:59:02.000Z</time>
      </trkpt>
      <trkpt lat="47.34694" lon="-1.62677">
        <ele>105</ele>
        <time>2021-10-09T10:59:04.000Z</time>
      </trkpt>
      <trkpt lat="47.34701" lon="-1.62661">
        <ele>105</ele>
        <time>2021-10-09T10:59:06.000Z</time>
      </trkpt>
      <trkpt lat="47.34707" lon="-1.62644">
        <ele>104</ele>
        <time>2021-10-09T10:59:08.000Z</time>
      </trkpt>
      <trkpt lat="47.34713" lon="-1.62629">
        <ele>103</ele>
        <time>2021-10-09T10:59:10.000Z</time>
      </trkpt>
      <trkpt lat="47.34718" lon="-1.62616">
        <ele>103</ele>
        <time>2021-10-09T10:59:12.000Z</time>
      </trkpt>
      <trkpt lat="47.34723" lon="-1.62603">
        <ele>103</ele>
        <time>2021-10-09T10:59:14.000Z</time>
      </trkpt>
      <trkpt lat="47.34727" lon="-1.62591">
        <ele>103</ele>
        <time>2021-10-09T10:59:16.000Z</time>
      </trkpt>
      <trkpt lat="47.34732" lon="-1.62579">
        <ele>103</ele>
        <time>2021-10-09T10:59:19.000Z</time>
      </trkpt>
      <trkpt lat="47.34737" lon="-1.62567">
        <ele>103</ele>
        <time>2021-10-09T10:59:21.000Z</time>
      </trkpt>
      <trkpt lat="47.34744" lon="-1.62552">
        <ele>103</ele>
        <time>2021-10-09T10:59:23.000Z</time>
      </trkpt>
      <trkpt lat="47.3475" lon="-1.62537">
        <ele>103</ele>
        <time>2021-10-09T10:59:25.000Z</time>
      </trkpt>
      <trkpt lat="47.34756" lon="-1.6252">
        <ele>103</ele>
        <time>2021-10-09T10:59:27.000Z</time>
      </trkpt>
      <trkpt lat="47.34763" lon="-1.62504">
        <ele>103</ele>
        <time>2021-10-09T10:59:29.000Z</time>
      </trkpt>
      <trkpt lat="47.34769" lon="-1.62489">
        <ele>103</ele>
        <time>2021-10-09T10:59:31.000Z</time>
      </trkpt>
      <trkpt lat="47.34777" lon="-1.62475">
        <ele>103</ele>
        <time>2021-10-09T10:59:33.000Z</time>
      </trkpt>
      <trkpt lat="47.34785" lon="-1.62459">
        <ele>103</ele>
        <time>2021-10-09T10:59:35.000Z</time>
      </trkpt>
      <trkpt lat="47.34793" lon="-1.62444">
        <ele>102</ele>
        <time>2021-10-09T10:59:37.000Z</time>
      </trkpt>
      <trkpt lat="47.34803" lon="-1.62429">
        <ele>102</ele>
        <time>2021-10-09T10:59:39.000Z</time>
      </trkpt>
      <trkpt lat="47.34812" lon="-1.62415">
        <ele>101</ele>
        <time>2021-10-09T10:59:41.000Z</time>
      </trkpt>
      <trkpt lat="47.34822" lon="-1.62401">
        <ele>101</ele>
        <time>2021-10-09T10:59:43.000Z</time>
      </trkpt>
      <trkpt lat="47.3483" lon="-1.62388">
        <ele>101</ele>
        <time>2021-10-09T10:59:45.000Z</time>
      </trkpt>
      <trkpt lat="47.34838" lon="-1.62375">
        <ele>101</ele>
        <time>2021-10-09T10:59:47.000Z</time>
      </trkpt>
      <trkpt lat="47.34847" lon="-1.62363">
        <ele>102</ele>
        <time>2021-10-09T10:59:49.000Z</time>
      </trkpt>
      <trkpt lat="47.34855" lon="-1.62349">
        <ele>102</ele>
        <time>2021-10-09T10:59:51.000Z</time>
      </trkpt>
      <trkpt lat="47.34863" lon="-1.62336">
        <ele>102</ele>
        <time>2021-10-09T10:59:53.000Z</time>
      </trkpt>
      <trkpt lat="47.34872" lon="-1.62323">
        <ele>103</ele>
        <time>2021-10-09T10:59:55.000Z</time>
      </trkpt>
      <trkpt lat="47.34881" lon="-1.62308">
        <ele>103</ele>
        <time>2021-10-09T10:59:57.000Z</time>
      </trkpt>
      <trkpt lat="47.34891" lon="-1.62294">
        <ele>103</ele>
        <time>2021-10-09T10:59:59.000Z</time>
      </trkpt>
      <trkpt lat="47.349" lon="-1.62279">
        <ele>103</ele>
        <time>2021-10-09T11:00:01.000Z</time>
      </trkpt>
      <trkpt lat="47.34909" lon="-1.62264">
        <ele>103</ele>
        <time>2021-10-09T11:00:03.000Z</time>
      </trkpt>
      <trkpt lat="47.34919" lon="-1.62251">
        <ele>104</ele>
        <time>2021-10-09T11:00:05.000Z</time>
      </trkpt>
      <trkpt lat="47.34929" lon="-1.62239">
        <ele>104</ele>
        <time>2021-10-09T11:00:07.000Z</time>
      </trkpt>
      <trkpt lat="47.34942" lon="-1.6223">
        <ele>103</ele>
        <time>2021-10-09T11:00:09.000Z</time>
      </trkpt>
      <trkpt lat="47.34954" lon="-1.62223">
        <ele>103</ele>
        <time>2021-10-09T11:00:11.000Z</time>
      </trkpt>
      <trkpt lat="47.34966" lon="-1.62216">
        <ele>103</ele>
        <time>2021-10-09T11:00:13.000Z</time>
      </trkpt>
      <trkpt lat="47.34978" lon="-1.6221">
        <ele>103</ele>
        <time>2021-10-09T11:00:15.000Z</time>
      </trkpt>
      <trkpt lat="47.34989" lon="-1.62203">
        <ele>103</ele>
        <time>2021-10-09T11:00:17.000Z</time>
      </trkpt>
      <trkpt lat="47.35" lon="-1.62194">
        <ele>103</ele>
        <time>2021-10-09T11:00:19.000Z</time>
      </trkpt>
      <trkpt lat="47.35011" lon="-1.62184">
        <ele>103</ele>
        <time>2021-10-09T11:00:21.000Z</time>
      </trkpt>
      <trkpt lat="47.35022" lon="-1.6217">
        <ele>104</ele>
        <time>2021-10-09T11:00:23.000Z</time>
      </trkpt>
      <trkpt lat="47.35033" lon="-1.62156">
        <ele>104</ele>
        <time>2021-10-09T11:00:25.000Z</time>
      </trkpt>
      <trkpt lat="47.35044" lon="-1.62142">
        <ele>103</ele>
        <time>2021-10-09T11:00:27.000Z</time>
      </trkpt>
      <trkpt lat="47.35056" lon="-1.62127">
        <ele>102</ele>
        <time>2021-10-09T11:00:29.000Z</time>
      </trkpt>
      <trkpt lat="47.35067" lon="-1.62113">
        <ele>102</ele>
        <time>2021-10-09T11:00:31.000Z</time>
      </trkpt>
      <trkpt lat="47.35078" lon="-1.62098">
        <ele>101</ele>
        <time>2021-10-09T11:00:33.000Z</time>
      </trkpt>
      <trkpt lat="47.35088" lon="-1.62084">
        <ele>101</ele>
        <time>2021-10-09T11:00:35.000Z</time>
      </trkpt>
      <trkpt lat="47.35099" lon="-1.6207">
        <ele>101</ele>
        <time>2021-10-09T11:00:37.000Z</time>
      </trkpt>
      <trkpt lat="47.3511" lon="-1.62056">
        <ele>101</ele>
        <time>2021-10-09T11:00:39.000Z</time>
      </trkpt>
      <trkpt lat="47.35121" lon="-1.62042">
        <ele>100</ele>
        <time>2021-10-09T11:00:41.000Z</time>
      </trkpt>
      <trkpt lat="47.35132" lon="-1.62027">
        <ele>100</ele>
        <time>2021-10-09T11:00:43.000Z</time>
      </trkpt>
      <trkpt lat="47.35143" lon="-1.62013">
        <ele>100</ele>
        <time>2021-10-09T11:00:45.000Z</time>
      </trkpt>
      <trkpt lat="47.35154" lon="-1.61998">
        <ele>99</ele>
        <time>2021-10-09T11:00:47.000Z</time>
      </trkpt>
      <trkpt lat="47.35164" lon="-1.61984">
        <ele>99</ele>
        <time>2021-10-09T11:00:49.000Z</time>
      </trkpt>
      <trkpt lat="47.35174" lon="-1.61971">
        <ele>98</ele>
        <time>2021-10-09T11:00:51.000Z</time>
      </trkpt>
      <trkpt lat="47.35185" lon="-1.61956">
        <ele>97</ele>
        <time>2021-10-09T11:00:53.000Z</time>
      </trkpt>
      <trkpt lat="47.35196" lon="-1.61943">
        <ele>97</ele>
        <time>2021-10-09T11:00:55.000Z</time>
      </trkpt>
      <trkpt lat="47.35207" lon="-1.61929">
        <ele>96</ele>
        <time>2021-10-09T11:00:57.000Z</time>
      </trkpt>
      <trkpt lat="47.35217" lon="-1.61916">
        <ele>96</ele>
        <time>2021-10-09T11:00:59.000Z</time>
      </trkpt>
      <trkpt lat="47.35228" lon="-1.61903">
        <ele>96</ele>
        <time>2021-10-09T11:01:01.000Z</time>
      </trkpt>
      <trkpt lat="47.35238" lon="-1.6189">
        <ele>96</ele>
        <time>2021-10-09T11:01:03.000Z</time>
      </trkpt>
      <trkpt lat="47.35249" lon="-1.61877">
        <ele>96</ele>
        <time>2021-10-09T11:01:05.000Z</time>
      </trkpt>
      <trkpt lat="47.35259" lon="-1.61864">
        <ele>95</ele>
        <time>2021-10-09T11:01:07.000Z</time>
      </trkpt>
      <trkpt lat="47.3527" lon="-1.61852">
        <ele>95</ele>
        <time>2021-10-09T11:01:09.000Z</time>
      </trkpt>
      <trkpt lat="47.35281" lon="-1.6184">
        <ele>95</ele>
        <time>2021-10-09T11:01:11.000Z</time>
      </trkpt>
      <trkpt lat="47.35292" lon="-1.61828">
        <ele>95</ele>
        <time>2021-10-09T11:01:13.000Z</time>
      </trkpt>
      <trkpt lat="47.35304" lon="-1.61816">
        <ele>95</ele>
        <time>2021-10-09T11:01:15.000Z</time>
      </trkpt>
      <trkpt lat="47.35315" lon="-1.61804">
        <ele>95</ele>
        <time>2021-10-09T11:01:17.000Z</time>
      </trkpt>
      <trkpt lat="47.35326" lon="-1.61791">
        <ele>95</ele>
        <time>2021-10-09T11:01:19.000Z</time>
      </trkpt>
      <trkpt lat="47.35337" lon="-1.61779">
        <ele>95</ele>
        <time>2021-10-09T11:01:21.000Z</time>
      </trkpt>
      <trkpt lat="47.35348" lon="-1.61768">
        <ele>95</ele>
        <time>2021-10-09T11:01:23.000Z</time>
      </trkpt>
      <trkpt lat="47.35359" lon="-1.61756">
        <ele>95</ele>
        <time>2021-10-09T11:01:25.000Z</time>
      </trkpt>
      <trkpt lat="47.3537" lon="-1.61744">
        <ele>95</ele>
        <time>2021-10-09T11:01:27.000Z</time>
      </trkpt>
      <trkpt lat="47.35381" lon="-1.61734">
        <ele>95</ele>
        <time>2021-10-09T11:01:29.000Z</time>
      </trkpt>
      <trkpt lat="47.35393" lon="-1.61725">
        <ele>95</ele>
        <time>2021-10-09T11:01:31.000Z</time>
      </trkpt>
      <trkpt lat="47.35405" lon="-1.61714">
        <ele>95</ele>
        <time>2021-10-09T11:01:33.000Z</time>
      </trkpt>
      <trkpt lat="47.35417" lon="-1.61704">
        <ele>94</ele>
        <time>2021-10-09T11:01:35.000Z</time>
      </trkpt>
      <trkpt lat="47.35429" lon="-1.61693">
        <ele>94</ele>
        <time>2021-10-09T11:01:37.000Z</time>
      </trkpt>
      <trkpt lat="47.35441" lon="-1.61683">
        <ele>94</ele>
        <time>2021-10-09T11:01:39.000Z</time>
      </trkpt>
      <trkpt lat="47.35453" lon="-1.61674">
        <ele>94</ele>
        <time>2021-10-09T11:01:41.000Z</time>
      </trkpt>
      <trkpt lat="47.35465" lon="-1.61663">
        <ele>94</ele>
        <time>2021-10-09T11:01:43.000Z</time>
      </trkpt>
      <trkpt lat="47.35476" lon="-1.61654">
        <ele>94</ele>
        <time>2021-10-09T11:01:45.000Z</time>
      </trkpt>
      <trkpt lat="47.35487" lon="-1.61645">
        <ele>94</ele>
        <time>2021-10-09T11:01:47.000Z</time>
      </trkpt>
      <trkpt lat="47.35497" lon="-1.61637">
        <ele>93</ele>
        <time>2021-10-09T11:01:49.000Z</time>
      </trkpt>
      <trkpt lat="47.35506" lon="-1.61628">
        <ele>93</ele>
        <time>2021-10-09T11:01:51.000Z</time>
      </trkpt>
      <trkpt lat="47.3551" lon="-1.61614">
        <ele>93</ele>
        <time>2021-10-09T11:01:53.000Z</time>
      </trkpt>
      <trkpt lat="47.35508" lon="-1.61596">
        <ele>93</ele>
        <time>2021-10-09T11:01:55.000Z</time>
      </trkpt>
      <trkpt lat="47.35504" lon="-1.61577">
        <ele>92</ele>
        <time>2021-10-09T11:01:57.000Z</time>
      </trkpt>
      <trkpt lat="47.35501" lon="-1.61557">
        <ele>92</ele>
        <time>2021-10-09T11:01:59.000Z</time>
      </trkpt>
      <trkpt lat="47.35499" lon="-1.61535">
        <ele>91</ele>
        <time>2021-10-09T11:02:01.000Z</time>
      </trkpt>
      <trkpt lat="47.35497" lon="-1.61515">
        <ele>90</ele>
        <time>2021-10-09T11:02:03.000Z</time>
      </trkpt>
      <trkpt lat="47.35493" lon="-1.61495">
        <ele>90</ele>
        <time>2021-10-09T11:02:05.000Z</time>
      </trkpt>
      <trkpt lat="47.3549" lon="-1.61473">
        <ele>89</ele>
        <time>2021-10-09T11:02:07.000Z</time>
      </trkpt>
      <trkpt lat="47.35487" lon="-1.61452">
        <ele>88</ele>
        <time>2021-10-09T11:02:09.000Z</time>
      </trkpt>
      <trkpt lat="47.35484" lon="-1.61429">
        <ele>88</ele>
        <time>2021-10-09T11:02:11.000Z</time>
      </trkpt>
      <trkpt lat="47.3548" lon="-1.61407">
        <ele>87</ele>
        <time>2021-10-09T11:02:13.000Z</time>
      </trkpt>
      <trkpt lat="47.35477" lon="-1.61387">
        <ele>87</ele>
        <time>2021-10-09T11:02:15.000Z</time>
      </trkpt>
      <trkpt lat="47.35472" lon="-1.61366">
        <ele>88</ele>
        <time>2021-10-09T11:02:17.000Z</time>
      </trkpt>
      <trkpt lat="47.35467" lon="-1.61345">
        <ele>87</ele>
        <time>2021-10-09T11:02:19.000Z</time>
      </trkpt>
      <trkpt lat="47.35462" lon="-1.61323">
        <ele>87</ele>
        <time>2021-10-09T11:02:21.000Z</time>
      </trkpt>
      <trkpt lat="47.35457" lon="-1.61301">
        <ele>87</ele>
        <time>2021-10-09T11:02:23.000Z</time>
      </trkpt>
      <trkpt lat="47.35452" lon="-1.6128">
        <ele>87</ele>
        <time>2021-10-09T11:02:25.000Z</time>
      </trkpt>
      <trkpt lat="47.35448" lon="-1.6126">
        <ele>86</ele>
        <time>2021-10-09T11:02:27.000Z</time>
      </trkpt>
      <trkpt lat="47.35444" lon="-1.61238">
        <ele>86</ele>
        <time>2021-10-09T11:02:29.000Z</time>
      </trkpt>
      <trkpt lat="47.35441" lon="-1.61217">
        <ele>86</ele>
        <time>2021-10-09T11:02:31.000Z</time>
      </trkpt>
      <trkpt lat="47.35439" lon="-1.61195">
        <ele>85</ele>
        <time>2021-10-09T11:02:33.000Z</time>
      </trkpt>
      <trkpt lat="47.35438" lon="-1.61173">
        <ele>84</ele>
        <time>2021-10-09T11:02:35.000Z</time>
      </trkpt>
      <trkpt lat="47.35438" lon="-1.61152">
        <ele>84</ele>
        <time>2021-10-09T11:02:37.000Z</time>
      </trkpt>
      <trkpt lat="47.35438" lon="-1.61131">
        <ele>84</ele>
        <time>2021-10-09T11:02:39.000Z</time>
      </trkpt>
      <trkpt lat="47.35438" lon="-1.6111">
        <ele>84</ele>
        <time>2021-10-09T11:02:41.000Z</time>
      </trkpt>
      <trkpt lat="47.35438" lon="-1.6109">
        <ele>84</ele>
        <time>2021-10-09T11:02:43.000Z</time>
      </trkpt>
      <trkpt lat="47.35438" lon="-1.6107">
        <ele>84</ele>
        <time>2021-10-09T11:02:45.000Z</time>
      </trkpt>
      <trkpt lat="47.35438" lon="-1.6105">
        <ele>84</ele>
        <time>2021-10-09T11:02:47.000Z</time>
      </trkpt>
      <trkpt lat="47.35438" lon="-1.61031">
        <ele>84</ele>
        <time>2021-10-09T11:02:49.000Z</time>
      </trkpt>
      <trkpt lat="47.35438" lon="-1.61012">
        <ele>85</ele>
        <time>2021-10-09T11:02:51.000Z</time>
      </trkpt>
      <trkpt lat="47.35438" lon="-1.60991">
        <ele>85</ele>
        <time>2021-10-09T11:02:53.000Z</time>
      </trkpt>
      <trkpt lat="47.35438" lon="-1.6097">
        <ele>85</ele>
        <time>2021-10-09T11:02:55.000Z</time>
      </trkpt>
      <trkpt lat="47.35438" lon="-1.60949">
        <ele>85</ele>
        <time>2021-10-09T11:02:57.000Z</time>
      </trkpt>
      <trkpt lat="47.35438" lon="-1.60928">
        <ele>85</ele>
        <time>2021-10-09T11:02:59.000Z</time>
      </trkpt>
      <trkpt lat="47.35437" lon="-1.60908">
        <ele>85</ele>
        <time>2021-10-09T11:03:01.000Z</time>
      </trkpt>
      <trkpt lat="47.35435" lon="-1.60889">
        <ele>85</ele>
        <time>2021-10-09T11:03:03.000Z</time>
      </trkpt>
      <trkpt lat="47.35432" lon="-1.60871">
        <ele>85</ele>
        <time>2021-10-09T11:03:05.000Z</time>
      </trkpt>
      <trkpt lat="47.35429" lon="-1.60853">
        <ele>85</ele>
        <time>2021-10-09T11:03:07.000Z</time>
      </trkpt>
      <trkpt lat="47.35426" lon="-1.60835">
        <ele>86</ele>
        <time>2021-10-09T11:03:09.000Z</time>
      </trkpt>
      <trkpt lat="47.35422" lon="-1.60818">
        <ele>86</ele>
        <time>2021-10-09T11:03:11.000Z</time>
      </trkpt>
      <trkpt lat="47.35419" lon="-1.60801">
        <ele>86</ele>
        <time>2021-10-09T11:03:13.000Z</time>
      </trkpt>
      <trkpt lat="47.35417" lon="-1.60785">
        <ele>87</ele>
        <time>2021-10-09T11:03:15.000Z</time>
      </trkpt>
      <trkpt lat="47.35413" lon="-1.60769">
        <ele>87</ele>
        <time>2021-10-09T11:03:17.000Z</time>
      </trkpt>
      <trkpt lat="47.35411" lon="-1.60752">
        <ele>88</ele>
        <time>2021-10-09T11:03:19.000Z</time>
      </trkpt>
      <trkpt lat="47.35408" lon="-1.60736">
        <ele>88</ele>
        <time>2021-10-09T11:03:21.000Z</time>
      </trkpt>
      <trkpt lat="47.35407" lon="-1.60718">
        <ele>89</ele>
        <time>2021-10-09T11:03:23.000Z</time>
      </trkpt>
      <trkpt lat="47.35407" lon="-1.60701">
        <ele>90</ele>
        <time>2021-10-09T11:03:25.000Z</time>
      </trkpt>
      <trkpt lat="47.35407" lon="-1.60684">
        <ele>90</ele>
        <time>2021-10-09T11:03:27.000Z</time>
      </trkpt>
      <trkpt lat="47.35407" lon="-1.60666">
        <ele>90</ele>
        <time>2021-10-09T11:03:29.000Z</time>
      </trkpt>
      <trkpt lat="47.35407" lon="-1.60648">
        <ele>90</ele>
        <time>2021-10-09T11:03:31.000Z</time>
      </trkpt>
      <trkpt lat="47.35407" lon="-1.6063">
        <ele>90</ele>
        <time>2021-10-09T11:03:33.000Z</time>
      </trkpt>
      <trkpt lat="47.35407" lon="-1.60612">
        <ele>90</ele>
        <time>2021-10-09T11:03:35.000Z</time>
      </trkpt>
      <trkpt lat="47.35408" lon="-1.60595">
        <ele>91</ele>
        <time>2021-10-09T11:03:37.000Z</time>
      </trkpt>
      <trkpt lat="47.35409" lon="-1.60577">
        <ele>90</ele>
        <time>2021-10-09T11:03:39.000Z</time>
      </trkpt>
      <trkpt lat="47.35409" lon="-1.60559">
        <ele>90</ele>
        <time>2021-10-09T11:03:41.000Z</time>
      </trkpt>
      <trkpt lat="47.35409" lon="-1.60543">
        <ele>90</ele>
        <time>2021-10-09T11:03:43.000Z</time>
      </trkpt>
      <trkpt lat="47.3541" lon="-1.60529">
        <ele>90</ele>
        <time>2021-10-09T11:03:45.000Z</time>
      </trkpt>
      <trkpt lat="47.35411" lon="-1.60515">
        <ele>90</ele>
        <time>2021-10-09T11:03:52.000Z</time>
      </trkpt>
      <trkpt lat="47.3541" lon="-1.60501">
        <ele>91</ele>
        <time>2021-10-09T11:03:55.000Z</time>
      </trkpt>
      <trkpt lat="47.35411" lon="-1.60486">
        <ele>91</ele>
        <time>2021-10-09T11:03:57.000Z</time>
      </trkpt>
      <trkpt lat="47.35412" lon="-1.60468">
        <ele>91</ele>
        <time>2021-10-09T11:03:59.000Z</time>
      </trkpt>
      <trkpt lat="47.35412" lon="-1.6045">
        <ele>91</ele>
        <time>2021-10-09T11:04:01.000Z</time>
      </trkpt>
      <trkpt lat="47.35413" lon="-1.60431">
        <ele>90</ele>
        <time>2021-10-09T11:04:03.000Z</time>
      </trkpt>
      <trkpt lat="47.35413" lon="-1.60412">
        <ele>90</ele>
        <time>2021-10-09T11:04:05.000Z</time>
      </trkpt>
      <trkpt lat="47.35414" lon="-1.60393">
        <ele>90</ele>
        <time>2021-10-09T11:04:07.000Z</time>
      </trkpt>
      <trkpt lat="47.35414" lon="-1.60374">
        <ele>90</ele>
        <time>2021-10-09T11:04:09.000Z</time>
      </trkpt>
      <trkpt lat="47.35415" lon="-1.60355">
        <ele>91</ele>
        <time>2021-10-09T11:04:11.000Z</time>
      </trkpt>
      <trkpt lat="47.35415" lon="-1.60337">
        <ele>91</ele>
        <time>2021-10-09T11:04:13.000Z</time>
      </trkpt>
      <trkpt lat="47.35416" lon="-1.60319">
        <ele>91</ele>
        <time>2021-10-09T11:04:15.000Z</time>
      </trkpt>
      <trkpt lat="47.35416" lon="-1.60301">
        <ele>91</ele>
        <time>2021-10-09T11:04:17.000Z</time>
      </trkpt>
      <trkpt lat="47.35416" lon="-1.60282">
        <ele>91</ele>
        <time>2021-10-09T11:04:19.000Z</time>
      </trkpt>
      <trkpt lat="47.35417" lon="-1.60264">
        <ele>91</ele>
        <time>2021-10-09T11:04:21.000Z</time>
      </trkpt>
      <trkpt lat="47.35418" lon="-1.60246">
        <ele>90</ele>
        <time>2021-10-09T11:04:23.000Z</time>
      </trkpt>
      <trkpt lat="47.35419" lon="-1.60228">
        <ele>90</ele>
        <time>2021-10-09T11:04:25.000Z</time>
      </trkpt>
      <trkpt lat="47.3542" lon="-1.60211">
        <ele>90</ele>
        <time>2021-10-09T11:04:27.000Z</time>
      </trkpt>
      <trkpt lat="47.3542" lon="-1.60193">
        <ele>90</ele>
        <time>2021-10-09T11:04:29.000Z</time>
      </trkpt>
      <trkpt lat="47.35419" lon="-1.60174">
        <ele>90</ele>
        <time>2021-10-09T11:04:31.000Z</time>
      </trkpt>
      <trkpt lat="47.35418" lon="-1.60155">
        <ele>89</ele>
        <time>2021-10-09T11:04:33.000Z</time>
      </trkpt>
      <trkpt lat="47.35416" lon="-1.60135">
        <ele>89</ele>
        <time>2021-10-09T11:04:35.000Z</time>
      </trkpt>
      <trkpt lat="47.35415" lon="-1.60116">
        <ele>89</ele>
        <time>2021-10-09T11:04:37.000Z</time>
      </trkpt>
      <trkpt lat="47.35417" lon="-1.60096">
        <ele>89</ele>
        <time>2021-10-09T11:04:39.000Z</time>
      </trkpt>
      <trkpt lat="47.3542" lon="-1.60076">
        <ele>89</ele>
        <time>2021-10-09T11:04:41.000Z</time>
      </trkpt>
      <trkpt lat="47.35424" lon="-1.60057">
        <ele>89</ele>
        <time>2021-10-09T11:04:43.000Z</time>
      </trkpt>
      <trkpt lat="47.35429" lon="-1.60038">
        <ele>89</ele>
        <time>2021-10-09T11:04:45.000Z</time>
      </trkpt>
      <trkpt lat="47.35434" lon="-1.60021">
        <ele>90</ele>
        <time>2021-10-09T11:04:47.000Z</time>
      </trkpt>
      <trkpt lat="47.35439" lon="-1.60003">
        <ele>90</ele>
        <time>2021-10-09T11:04:49.000Z</time>
      </trkpt>
      <trkpt lat="47.35443" lon="-1.59984">
        <ele>90</ele>
        <time>2021-10-09T11:04:51.000Z</time>
      </trkpt>
      <trkpt lat="47.35446" lon="-1.59966">
        <ele>89</ele>
        <time>2021-10-09T11:04:53.000Z</time>
      </trkpt>
      <trkpt lat="47.35449" lon="-1.59948">
        <ele>89</ele>
        <time>2021-10-09T11:04:55.000Z</time>
      </trkpt>
      <trkpt lat="47.35451" lon="-1.59931">
        <ele>89</ele>
        <time>2021-10-09T11:04:57.000Z</time>
      </trkpt>
      <trkpt lat="47.35454" lon="-1.59913">
        <ele>90</ele>
        <time>2021-10-09T11:04:59.000Z</time>
      </trkpt>
      <trkpt lat="47.35455" lon="-1.59897">
        <ele>90</ele>
        <time>2021-10-09T11:05:01.000Z</time>
      </trkpt>
      <trkpt lat="47.35457" lon="-1.59879">
        <ele>90</ele>
        <time>2021-10-09T11:05:03.000Z</time>
      </trkpt>
      <trkpt lat="47.35459" lon="-1.59862">
        <ele>90</ele>
        <time>2021-10-09T11:05:05.000Z</time>
      </trkpt>
      <trkpt lat="47.35461" lon="-1.59845">
        <ele>90</ele>
        <time>2021-10-09T11:05:07.000Z</time>
      </trkpt>
      <trkpt lat="47.35463" lon="-1.59829">
        <ele>90</ele>
        <time>2021-10-09T11:05:09.000Z</time>
      </trkpt>
      <trkpt lat="47.35466" lon="-1.59814">
        <ele>90</ele>
        <time>2021-10-09T11:05:11.000Z</time>
      </trkpt>
      <trkpt lat="47.35466" lon="-1.598">
        <ele>90</ele>
        <time>2021-10-09T11:05:13.000Z</time>
      </trkpt>
      <trkpt lat="47.35455" lon="-1.59788">
        <ele>90</ele>
        <time>2021-10-09T11:05:16.000Z</time>
      </trkpt>
      <trkpt lat="47.35444" lon="-1.59786">
        <ele>90</ele>
        <time>2021-10-09T11:05:18.000Z</time>
      </trkpt>
      <trkpt lat="47.35431" lon="-1.59782">
        <ele>90</ele>
        <time>2021-10-09T11:05:20.000Z</time>
      </trkpt>
      <trkpt lat="47.35418" lon="-1.59778">
        <ele>89</ele>
        <time>2021-10-09T11:05:22.000Z</time>
      </trkpt>
      <trkpt lat="47.35404" lon="-1.59773">
        <ele>89</ele>
        <time>2021-10-09T11:05:24.000Z</time>
      </trkpt>
      <trkpt lat="47.35391" lon="-1.59768">
        <ele>89</ele>
        <time>2021-10-09T11:05:26.000Z</time>
      </trkpt>
      <trkpt lat="47.35376" lon="-1.59763">
        <ele>89</ele>
        <time>2021-10-09T11:05:28.000Z</time>
      </trkpt>
      <trkpt lat="47.35361" lon="-1.59758">
        <ele>89</ele>
        <time>2021-10-09T11:05:30.000Z</time>
      </trkpt>
      <trkpt lat="47.35346" lon="-1.5975">
        <ele>88</ele>
        <time>2021-10-09T11:05:32.000Z</time>
      </trkpt>
      <trkpt lat="47.35332" lon="-1.59738">
        <ele>87</ele>
        <time>2021-10-09T11:05:34.000Z</time>
      </trkpt>
      <trkpt lat="47.35318" lon="-1.59725">
        <ele>87</ele>
        <time>2021-10-09T11:05:36.000Z</time>
      </trkpt>
      <trkpt lat="47.35304" lon="-1.59709">
        <ele>87</ele>
        <time>2021-10-09T11:05:38.000Z</time>
      </trkpt>
      <trkpt lat="47.35292" lon="-1.59693">
        <ele>87</ele>
        <time>2021-10-09T11:05:40.000Z</time>
      </trkpt>
      <trkpt lat="47.35278" lon="-1.59677">
        <ele>87</ele>
        <time>2021-10-09T11:05:42.000Z</time>
      </trkpt>
      <trkpt lat="47.35266" lon="-1.5966">
        <ele>87</ele>
        <time>2021-10-09T11:05:44.000Z</time>
      </trkpt>
      <trkpt lat="47.35252" lon="-1.59643">
        <ele>86</ele>
        <time>2021-10-09T11:05:46.000Z</time>
      </trkpt>
      <trkpt lat="47.35239" lon="-1.59627">
        <ele>86</ele>
        <time>2021-10-09T11:05:48.000Z</time>
      </trkpt>
      <trkpt lat="47.35226" lon="-1.5961">
        <ele>85</ele>
        <time>2021-10-09T11:05:50.000Z</time>
      </trkpt>
      <trkpt lat="47.35213" lon="-1.59592">
        <ele>84</ele>
        <time>2021-10-09T11:05:52.000Z</time>
      </trkpt>
      <trkpt lat="47.35205" lon="-1.59583">
        <ele>84</ele>
        <time>2021-10-09T11:05:53.000Z</time>
      </trkpt>
      <trkpt lat="47.35198" lon="-1.59574">
        <ele>84</ele>
        <time>2021-10-09T11:05:54.000Z</time>
      </trkpt>
      <trkpt lat="47.35191" lon="-1.59565">
        <ele>84</ele>
        <time>2021-10-09T11:05:55.000Z</time>
      </trkpt>
      <trkpt lat="47.35183" lon="-1.59556">
        <ele>84</ele>
        <time>2021-10-09T11:05:56.000Z</time>
      </trkpt>
      <trkpt lat="47.35175" lon="-1.59546">
        <ele>84</ele>
        <time>2021-10-09T11:05:57.000Z</time>
      </trkpt>
      <trkpt lat="47.35167" lon="-1.59535">
        <ele>84</ele>
        <time>2021-10-09T11:05:58.000Z</time>
      </trkpt>
      <trkpt lat="47.35159" lon="-1.59526">
        <ele>83</ele>
        <time>2021-10-09T11:05:59.000Z</time>
      </trkpt>
      <trkpt lat="47.35152" lon="-1.59516">
        <ele>82</ele>
        <time>2021-10-09T11:06:00.000Z</time>
      </trkpt>
      <trkpt lat="47.35144" lon="-1.59507">
        <ele>82</ele>
        <time>2021-10-09T11:06:01.000Z</time>
      </trkpt>
      <trkpt lat="47.35136" lon="-1.59496">
        <ele>81</ele>
        <time>2021-10-09T11:06:02.000Z</time>
      </trkpt>
      <trkpt lat="47.35127" lon="-1.59487">
        <ele>80</ele>
        <time>2021-10-09T11:06:03.000Z</time>
      </trkpt>
      <trkpt lat="47.3512" lon="-1.59477">
        <ele>80</ele>
        <time>2021-10-09T11:06:04.000Z</time>
      </trkpt>
      <trkpt lat="47.35112" lon="-1.59467">
        <ele>79</ele>
        <time>2021-10-09T11:06:05.000Z</time>
      </trkpt>
      <trkpt lat="47.35104" lon="-1.59458">
        <ele>79</ele>
        <time>2021-10-09T11:06:06.000Z</time>
      </trkpt>
      <trkpt lat="47.35097" lon="-1.59449">
        <ele>79</ele>
        <time>2021-10-09T11:06:07.000Z</time>
      </trkpt>
      <trkpt lat="47.35089" lon="-1.5944">
        <ele>79</ele>
        <time>2021-10-09T11:06:08.000Z</time>
      </trkpt>
      <trkpt lat="47.35082" lon="-1.59432">
        <ele>78</ele>
        <time>2021-10-09T11:06:09.000Z</time>
      </trkpt>
      <trkpt lat="47.35069" lon="-1.59416">
        <ele>78</ele>
        <time>2021-10-09T11:06:11.000Z</time>
      </trkpt>
      <trkpt lat="47.35058" lon="-1.59401">
        <ele>79</ele>
        <time>2021-10-09T11:06:13.000Z</time>
      </trkpt>
      <trkpt lat="47.35046" lon="-1.59387">
        <ele>80</ele>
        <time>2021-10-09T11:06:15.000Z</time>
      </trkpt>
      <trkpt lat="47.35037" lon="-1.59376">
        <ele>80</ele>
        <time>2021-10-09T11:06:17.000Z</time>
      </trkpt>
      <trkpt lat="47.35028" lon="-1.59365">
        <ele>80</ele>
        <time>2021-10-09T11:06:19.000Z</time>
      </trkpt>
      <trkpt lat="47.35019" lon="-1.59354">
        <ele>80</ele>
        <time>2021-10-09T11:06:21.000Z</time>
      </trkpt>
      <trkpt lat="47.35011" lon="-1.59345">
        <ele>81</ele>
        <time>2021-10-09T11:06:23.000Z</time>
      </trkpt>
      <trkpt lat="47.35003" lon="-1.59335">
        <ele>81</ele>
        <time>2021-10-09T11:06:25.000Z</time>
      </trkpt>
      <trkpt lat="47.34995" lon="-1.59326">
        <ele>81</ele>
        <time>2021-10-09T11:06:27.000Z</time>
      </trkpt>
      <trkpt lat="47.34987" lon="-1.59317">
        <ele>81</ele>
        <time>2021-10-09T11:06:29.000Z</time>
      </trkpt>
      <trkpt lat="47.34979" lon="-1.59307">
        <ele>81</ele>
        <time>2021-10-09T11:06:31.000Z</time>
      </trkpt>
      <trkpt lat="47.34971" lon="-1.59298">
        <ele>81</ele>
        <time>2021-10-09T11:06:33.000Z</time>
      </trkpt>
      <trkpt lat="47.34964" lon="-1.59288">
        <ele>81</ele>
        <time>2021-10-09T11:06:35.000Z</time>
      </trkpt>
      <trkpt lat="47.34957" lon="-1.59278">
        <ele>82</ele>
        <time>2021-10-09T11:06:37.000Z</time>
      </trkpt>
      <trkpt lat="47.3495" lon="-1.59269">
        <ele>82</ele>
        <time>2021-10-09T11:06:39.000Z</time>
      </trkpt>
      <trkpt lat="47.34942" lon="-1.5926">
        <ele>82</ele>
        <time>2021-10-09T11:06:41.000Z</time>
      </trkpt>
      <trkpt lat="47.34934" lon="-1.5925">
        <ele>82</ele>
        <time>2021-10-09T11:06:43.000Z</time>
      </trkpt>
      <trkpt lat="47.34926" lon="-1.5924">
        <ele>83</ele>
        <time>2021-10-09T11:06:45.000Z</time>
      </trkpt>
      <trkpt lat="47.34918" lon="-1.59231">
        <ele>83</ele>
        <time>2021-10-09T11:06:47.000Z</time>
      </trkpt>
      <trkpt lat="47.3491" lon="-1.59221">
        <ele>83</ele>
        <time>2021-10-09T11:06:49.000Z</time>
      </trkpt>
      <trkpt lat="47.34903" lon="-1.59214">
        <ele>84</ele>
        <time>2021-10-09T11:06:51.000Z</time>
      </trkpt>
      <trkpt lat="47.34891" lon="-1.59202">
        <ele>85</ele>
        <time>2021-10-09T11:06:54.000Z</time>
      </trkpt>
      <trkpt lat="47.34883" lon="-1.59195">
        <ele>86</ele>
        <time>2021-10-09T11:06:56.000Z</time>
      </trkpt>
      <trkpt lat="47.34875" lon="-1.59186">
        <ele>86</ele>
        <time>2021-10-09T11:06:58.000Z</time>
      </trkpt>
      <trkpt lat="47.34867" lon="-1.59175">
        <ele>86</ele>
        <time>2021-10-09T11:07:00.000Z</time>
      </trkpt>
      <trkpt lat="47.3486" lon="-1.59166">
        <ele>87</ele>
        <time>2021-10-09T11:07:02.000Z</time>
      </trkpt>
      <trkpt lat="47.34852" lon="-1.59157">
        <ele>87</ele>
        <time>2021-10-09T11:07:04.000Z</time>
      </trkpt>
      <trkpt lat="47.34844" lon="-1.59148">
        <ele>87</ele>
        <time>2021-10-09T11:07:06.000Z</time>
      </trkpt>
      <trkpt lat="47.34836" lon="-1.59137">
        <ele>87</ele>
        <time>2021-10-09T11:07:08.000Z</time>
      </trkpt>
      <trkpt lat="47.34828" lon="-1.59126">
        <ele>88</ele>
        <time>2021-10-09T11:07:10.000Z</time>
      </trkpt>
      <trkpt lat="47.34819" lon="-1.59116">
        <ele>89</ele>
        <time>2021-10-09T11:07:12.000Z</time>
      </trkpt>
      <trkpt lat="47.34811" lon="-1.59107">
        <ele>89</ele>
        <time>2021-10-09T11:07:14.000Z</time>
      </trkpt>
      <trkpt lat="47.34803" lon="-1.59097">
        <ele>90</ele>
        <time>2021-10-09T11:07:16.000Z</time>
      </trkpt>
      <trkpt lat="47.34794" lon="-1.59085">
        <ele>90</ele>
        <time>2021-10-09T11:07:18.000Z</time>
      </trkpt>
      <trkpt lat="47.34787" lon="-1.59075">
        <ele>91</ele>
        <time>2021-10-09T11:07:20.000Z</time>
      </trkpt>
      <trkpt lat="47.34778" lon="-1.59063">
        <ele>91</ele>
        <time>2021-10-09T11:07:22.000Z</time>
      </trkpt>
      <trkpt lat="47.3477" lon="-1.59053">
        <ele>91</ele>
        <time>2021-10-09T11:07:24.000Z</time>
      </trkpt>
      <trkpt lat="47.34762" lon="-1.59042">
        <ele>91</ele>
        <time>2021-10-09T11:07:26.000Z</time>
      </trkpt>
      <trkpt lat="47.34753" lon="-1.59032">
        <ele>91</ele>
        <time>2021-10-09T11:07:28.000Z</time>
      </trkpt>
      <trkpt lat="47.34745" lon="-1.59021">
        <ele>91</ele>
        <time>2021-10-09T11:07:30.000Z</time>
      </trkpt>
      <trkpt lat="47.34736" lon="-1.59011">
        <ele>91</ele>
        <time>2021-10-09T11:07:32.000Z</time>
      </trkpt>
      <trkpt lat="47.34727" lon="-1.59001">
        <ele>90</ele>
        <time>2021-10-09T11:07:34.000Z</time>
      </trkpt>
      <trkpt lat="47.34718" lon="-1.58991">
        <ele>90</ele>
        <time>2021-10-09T11:07:36.000Z</time>
      </trkpt>
      <trkpt lat="47.34709" lon="-1.5898">
        <ele>91</ele>
        <time>2021-10-09T11:07:38.000Z</time>
      </trkpt>
      <trkpt lat="47.34701" lon="-1.5897">
        <ele>91</ele>
        <time>2021-10-09T11:07:40.000Z</time>
      </trkpt>
      <trkpt lat="47.34693" lon="-1.58959">
        <ele>92</ele>
        <time>2021-10-09T11:07:42.000Z</time>
      </trkpt>
      <trkpt lat="47.34684" lon="-1.5895">
        <ele>91</ele>
        <time>2021-10-09T11:07:44.000Z</time>
      </trkpt>
      <trkpt lat="47.34675" lon="-1.58939">
        <ele>91</ele>
        <time>2021-10-09T11:07:46.000Z</time>
      </trkpt>
      <trkpt lat="47.34667" lon="-1.58928">
        <ele>91</ele>
        <time>2021-10-09T11:07:48.000Z</time>
      </trkpt>
      <trkpt lat="47.34657" lon="-1.58917">
        <ele>91</ele>
        <time>2021-10-09T11:07:50.000Z</time>
      </trkpt>
      <trkpt lat="47.34648" lon="-1.58907">
        <ele>91</ele>
        <time>2021-10-09T11:07:52.000Z</time>
      </trkpt>
      <trkpt lat="47.34639" lon="-1.58896">
        <ele>91</ele>
        <time>2021-10-09T11:07:54.000Z</time>
      </trkpt>
      <trkpt lat="47.3463" lon="-1.58884">
        <ele>90</ele>
        <time>2021-10-09T11:07:56.000Z</time>
      </trkpt>
      <trkpt lat="47.34619" lon="-1.58872">
        <ele>90</ele>
        <time>2021-10-09T11:07:58.000Z</time>
      </trkpt>
      <trkpt lat="47.3461" lon="-1.5886">
        <ele>90</ele>
        <time>2021-10-09T11:08:00.000Z</time>
      </trkpt>
      <trkpt lat="47.346" lon="-1.58849">
        <ele>90</ele>
        <time>2021-10-09T11:08:02.000Z</time>
      </trkpt>
      <trkpt lat="47.34591" lon="-1.58838">
        <ele>90</ele>
        <time>2021-10-09T11:08:04.000Z</time>
      </trkpt>
      <trkpt lat="47.34581" lon="-1.58826">
        <ele>90</ele>
        <time>2021-10-09T11:08:06.000Z</time>
      </trkpt>
      <trkpt lat="47.34571" lon="-1.58813">
        <ele>89</ele>
        <time>2021-10-09T11:08:08.000Z</time>
      </trkpt>
      <trkpt lat="47.34561" lon="-1.58801">
        <ele>90</ele>
        <time>2021-10-09T11:08:10.000Z</time>
      </trkpt>
      <trkpt lat="47.34551" lon="-1.58788">
        <ele>89</ele>
        <time>2021-10-09T11:08:12.000Z</time>
      </trkpt>
      <trkpt lat="47.34541" lon="-1.58776">
        <ele>90</ele>
        <time>2021-10-09T11:08:14.000Z</time>
      </trkpt>
      <trkpt lat="47.34531" lon="-1.58764">
        <ele>90</ele>
        <time>2021-10-09T11:08:16.000Z</time>
      </trkpt>
      <trkpt lat="47.34522" lon="-1.58752">
        <ele>90</ele>
        <time>2021-10-09T11:08:18.000Z</time>
      </trkpt>
      <trkpt lat="47.34513" lon="-1.58741">
        <ele>90</ele>
        <time>2021-10-09T11:08:20.000Z</time>
      </trkpt>
      <trkpt lat="47.34504" lon="-1.58729">
        <ele>90</ele>
        <time>2021-10-09T11:08:22.000Z</time>
      </trkpt>
      <trkpt lat="47.34495" lon="-1.58718">
        <ele>90</ele>
        <time>2021-10-09T11:08:24.000Z</time>
      </trkpt>
      <trkpt lat="47.34487" lon="-1.58706">
        <ele>91</ele>
        <time>2021-10-09T11:08:26.000Z</time>
      </trkpt>
      <trkpt lat="47.34478" lon="-1.58694">
        <ele>91</ele>
        <time>2021-10-09T11:08:28.000Z</time>
      </trkpt>
      <trkpt lat="47.3447" lon="-1.58682">
        <ele>91</ele>
        <time>2021-10-09T11:08:30.000Z</time>
      </trkpt>
      <trkpt lat="47.34462" lon="-1.5867">
        <ele>91</ele>
        <time>2021-10-09T11:08:32.000Z</time>
      </trkpt>
      <trkpt lat="47.34455" lon="-1.58658">
        <ele>92</ele>
        <time>2021-10-09T11:08:34.000Z</time>
      </trkpt>
      <trkpt lat="47.34447" lon="-1.58646">
        <ele>92</ele>
        <time>2021-10-09T11:08:36.000Z</time>
      </trkpt>
      <trkpt lat="47.34439" lon="-1.58634">
        <ele>93</ele>
        <time>2021-10-09T11:08:38.000Z</time>
      </trkpt>
      <trkpt lat="47.34431" lon="-1.58623">
        <ele>93</ele>
        <time>2021-10-09T11:08:40.000Z</time>
      </trkpt>
      <trkpt lat="47.34424" lon="-1.58612">
        <ele>93</ele>
        <time>2021-10-09T11:08:42.000Z</time>
      </trkpt>
      <trkpt lat="47.34415" lon="-1.586">
        <ele>93</ele>
        <time>2021-10-09T11:08:44.000Z</time>
      </trkpt>
      <trkpt lat="47.34406" lon="-1.58589">
        <ele>93</ele>
        <time>2021-10-09T11:08:46.000Z</time>
      </trkpt>
      <trkpt lat="47.34398" lon="-1.58578">
        <ele>94</ele>
        <time>2021-10-09T11:08:48.000Z</time>
      </trkpt>
      <trkpt lat="47.3439" lon="-1.58567">
        <ele>94</ele>
        <time>2021-10-09T11:08:50.000Z</time>
      </trkpt>
      <trkpt lat="47.34382" lon="-1.58557">
        <ele>95</ele>
        <time>2021-10-09T11:08:52.000Z</time>
      </trkpt>
      <trkpt lat="47.34373" lon="-1.58547">
        <ele>95</ele>
        <time>2021-10-09T11:08:54.000Z</time>
      </trkpt>
      <trkpt lat="47.34365" lon="-1.58536">
        <ele>96</ele>
        <time>2021-10-09T11:08:56.000Z</time>
      </trkpt>
      <trkpt lat="47.34357" lon="-1.58526">
        <ele>96</ele>
        <time>2021-10-09T11:08:58.000Z</time>
      </trkpt>
      <trkpt lat="47.34348" lon="-1.58514">
        <ele>96</ele>
        <time>2021-10-09T11:09:00.000Z</time>
      </trkpt>
      <trkpt lat="47.3434" lon="-1.58503">
        <ele>96</ele>
        <time>2021-10-09T11:09:02.000Z</time>
      </trkpt>
      <trkpt lat="47.34331" lon="-1.58492">
        <ele>95</ele>
        <time>2021-10-09T11:09:04.000Z</time>
      </trkpt>
      <trkpt lat="47.34322" lon="-1.5848">
        <ele>95</ele>
        <time>2021-10-09T11:09:06.000Z</time>
      </trkpt>
      <trkpt lat="47.34314" lon="-1.58467">
        <ele>95</ele>
        <time>2021-10-09T11:09:08.000Z</time>
      </trkpt>
      <trkpt lat="47.34305" lon="-1.58454">
        <ele>95</ele>
        <time>2021-10-09T11:09:10.000Z</time>
      </trkpt>
      <trkpt lat="47.34295" lon="-1.58439">
        <ele>95</ele>
        <time>2021-10-09T11:09:12.000Z</time>
      </trkpt>
      <trkpt lat="47.34285" lon="-1.58425">
        <ele>95</ele>
        <time>2021-10-09T11:09:14.000Z</time>
      </trkpt>
      <trkpt lat="47.34275" lon="-1.58412">
        <ele>95</ele>
        <time>2021-10-09T11:09:16.000Z</time>
      </trkpt>
      <trkpt lat="47.34264" lon="-1.58397">
        <ele>94</ele>
        <time>2021-10-09T11:09:18.000Z</time>
      </trkpt>
      <trkpt lat="47.34254" lon="-1.58383">
        <ele>94</ele>
        <time>2021-10-09T11:09:20.000Z</time>
      </trkpt>
      <trkpt lat="47.34243" lon="-1.58369">
        <ele>94</ele>
        <time>2021-10-09T11:09:22.000Z</time>
      </trkpt>
      <trkpt lat="47.34233" lon="-1.58355">
        <ele>93</ele>
        <time>2021-10-09T11:09:24.000Z</time>
      </trkpt>
      <trkpt lat="47.34222" lon="-1.5834">
        <ele>93</ele>
        <time>2021-10-09T11:09:26.000Z</time>
      </trkpt>
      <trkpt lat="47.34212" lon="-1.58326">
        <ele>93</ele>
        <time>2021-10-09T11:09:28.000Z</time>
      </trkpt>
      <trkpt lat="47.34202" lon="-1.58311">
        <ele>93</ele>
        <time>2021-10-09T11:09:30.000Z</time>
      </trkpt>
      <trkpt lat="47.34191" lon="-1.58297">
        <ele>93</ele>
        <time>2021-10-09T11:09:32.000Z</time>
      </trkpt>
      <trkpt lat="47.3418" lon="-1.58282">
        <ele>92</ele>
        <time>2021-10-09T11:09:34.000Z</time>
      </trkpt>
      <trkpt lat="47.34169" lon="-1.58267">
        <ele>92</ele>
        <time>2021-10-09T11:09:36.000Z</time>
      </trkpt>
      <trkpt lat="47.34158" lon="-1.58252">
        <ele>92</ele>
        <time>2021-10-09T11:09:38.000Z</time>
      </trkpt>
      <trkpt lat="47.34148" lon="-1.58237">
        <ele>92</ele>
        <time>2021-10-09T11:09:40.000Z</time>
      </trkpt>
      <trkpt lat="47.34137" lon="-1.58221">
        <ele>92</ele>
        <time>2021-10-09T11:09:42.000Z</time>
      </trkpt>
      <trkpt lat="47.34126" lon="-1.58206">
        <ele>91</ele>
        <time>2021-10-09T11:09:44.000Z</time>
      </trkpt>
      <trkpt lat="47.34115" lon="-1.58191">
        <ele>92</ele>
        <time>2021-10-09T11:09:46.000Z</time>
      </trkpt>
      <trkpt lat="47.34105" lon="-1.58176">
        <ele>92</ele>
        <time>2021-10-09T11:09:48.000Z</time>
      </trkpt>
      <trkpt lat="47.34095" lon="-1.5816">
        <ele>91</ele>
        <time>2021-10-09T11:09:50.000Z</time>
      </trkpt>
      <trkpt lat="47.34085" lon="-1.58146">
        <ele>92</ele>
        <time>2021-10-09T11:09:52.000Z</time>
      </trkpt>
      <trkpt lat="47.34074" lon="-1.58131">
        <ele>91</ele>
        <time>2021-10-09T11:09:54.000Z</time>
      </trkpt>
      <trkpt lat="47.34063" lon="-1.58115">
        <ele>91</ele>
        <time>2021-10-09T11:09:56.000Z</time>
      </trkpt>
      <trkpt lat="47.34052" lon="-1.581">
        <ele>91</ele>
        <time>2021-10-09T11:09:58.000Z</time>
      </trkpt>
      <trkpt lat="47.3404" lon="-1.58083">
        <ele>91</ele>
        <time>2021-10-09T11:10:00.000Z</time>
      </trkpt>
      <trkpt lat="47.34029" lon="-1.58067">
        <ele>90</ele>
        <time>2021-10-09T11:10:02.000Z</time>
      </trkpt>
      <trkpt lat="47.34018" lon="-1.5805">
        <ele>90</ele>
        <time>2021-10-09T11:10:04.000Z</time>
      </trkpt>
      <trkpt lat="47.34006" lon="-1.58035">
        <ele>90</ele>
        <time>2021-10-09T11:10:06.000Z</time>
      </trkpt>
      <trkpt lat="47.33993" lon="-1.58021">
        <ele>89</ele>
        <time>2021-10-09T11:10:08.000Z</time>
      </trkpt>
      <trkpt lat="47.33981" lon="-1.58007">
        <ele>88</ele>
        <time>2021-10-09T11:10:10.000Z</time>
      </trkpt>
      <trkpt lat="47.3397" lon="-1.57992">
        <ele>88</ele>
        <time>2021-10-09T11:10:12.000Z</time>
      </trkpt>
      <trkpt lat="47.33959" lon="-1.57978">
        <ele>88</ele>
        <time>2021-10-09T11:10:14.000Z</time>
      </trkpt>
      <trkpt lat="47.33949" lon="-1.57964">
        <ele>88</ele>
        <time>2021-10-09T11:10:16.000Z</time>
      </trkpt>
      <trkpt lat="47.33938" lon="-1.5795">
        <ele>88</ele>
        <time>2021-10-09T11:10:18.000Z</time>
      </trkpt>
      <trkpt lat="47.33928" lon="-1.57936">
        <ele>87</ele>
        <time>2021-10-09T11:10:20.000Z</time>
      </trkpt>
      <trkpt lat="47.33919" lon="-1.57922">
        <ele>88</ele>
        <time>2021-10-09T11:10:22.000Z</time>
      </trkpt>
      <trkpt lat="47.3391" lon="-1.5791">
        <ele>88</ele>
        <time>2021-10-09T11:10:24.000Z</time>
      </trkpt>
      <trkpt lat="47.339" lon="-1.57898">
        <ele>88</ele>
        <time>2021-10-09T11:10:26.000Z</time>
      </trkpt>
      <trkpt lat="47.33891" lon="-1.57886">
        <ele>89</ele>
        <time>2021-10-09T11:10:28.000Z</time>
      </trkpt>
      <trkpt lat="47.33881" lon="-1.57875">
        <ele>89</ele>
        <time>2021-10-09T11:10:30.000Z</time>
      </trkpt>
      <trkpt lat="47.33873" lon="-1.57864">
        <ele>89</ele>
        <time>2021-10-09T11:10:32.000Z</time>
      </trkpt>
      <trkpt lat="47.33864" lon="-1.57853">
        <ele>88</ele>
        <time>2021-10-09T11:10:34.000Z</time>
      </trkpt>
      <trkpt lat="47.33855" lon="-1.57844">
        <ele>88</ele>
        <time>2021-10-09T11:10:36.000Z</time>
      </trkpt>
      <trkpt lat="47.33847" lon="-1.57838">
        <ele>89</ele>
        <time>2021-10-09T11:10:38.000Z</time>
      </trkpt>
      <trkpt lat="47.33839" lon="-1.57829">
        <ele>89</ele>
        <time>2021-10-09T11:10:40.000Z</time>
      </trkpt>
      <trkpt lat="47.33838" lon="-1.57814">
        <ele>89</ele>
        <time>2021-10-09T11:10:42.000Z</time>
      </trkpt>
      <trkpt lat="47.33842" lon="-1.57798">
        <ele>89</ele>
        <time>2021-10-09T11:10:44.000Z</time>
      </trkpt>
      <trkpt lat="47.33846" lon="-1.57783">
        <ele>88</ele>
        <time>2021-10-09T11:10:46.000Z</time>
      </trkpt>
      <trkpt lat="47.3385" lon="-1.57769">
        <ele>88</ele>
        <time>2021-10-09T11:10:48.000Z</time>
      </trkpt>
      <trkpt lat="47.33854" lon="-1.57755">
        <ele>89</ele>
        <time>2021-10-09T11:10:50.000Z</time>
      </trkpt>
      <trkpt lat="47.33858" lon="-1.57742">
        <ele>88</ele>
        <time>2021-10-09T11:10:52.000Z</time>
      </trkpt>
      <trkpt lat="47.33862" lon="-1.57726">
        <ele>89</ele>
        <time>2021-10-09T11:10:54.000Z</time>
      </trkpt>
      <trkpt lat="47.33867" lon="-1.57709">
        <ele>89</ele>
        <time>2021-10-09T11:10:56.000Z</time>
      </trkpt>
      <trkpt lat="47.33871" lon="-1.57692">
        <ele>89</ele>
        <time>2021-10-09T11:10:58.000Z</time>
      </trkpt>
      <trkpt lat="47.33876" lon="-1.57676">
        <ele>89</ele>
        <time>2021-10-09T11:11:00.000Z</time>
      </trkpt>
      <trkpt lat="47.33883" lon="-1.57653">
        <ele>89</ele>
        <time>2021-10-09T11:11:03.000Z</time>
      </trkpt>
      <trkpt lat="47.33887" lon="-1.57637">
        <ele>89</ele>
        <time>2021-10-09T11:11:05.000Z</time>
      </trkpt>
      <trkpt lat="47.33892" lon="-1.57621">
        <ele>89</ele>
        <time>2021-10-09T11:11:07.000Z</time>
      </trkpt>
      <trkpt lat="47.33896" lon="-1.57606">
        <ele>89</ele>
        <time>2021-10-09T11:11:09.000Z</time>
      </trkpt>
      <trkpt lat="47.33904" lon="-1.57581">
        <ele>89</ele>
        <time>2021-10-09T11:11:12.000Z</time>
      </trkpt>
      <trkpt lat="47.33909" lon="-1.57563">
        <ele>89</ele>
        <time>2021-10-09T11:11:14.000Z</time>
      </trkpt>
      <trkpt lat="47.33915" lon="-1.57544">
        <ele>88</ele>
        <time>2021-10-09T11:11:16.000Z</time>
      </trkpt>
      <trkpt lat="47.3392" lon="-1.57526">
        <ele>88</ele>
        <time>2021-10-09T11:11:18.000Z</time>
      </trkpt>
      <trkpt lat="47.33925" lon="-1.57507">
        <ele>88</ele>
        <time>2021-10-09T11:11:20.000Z</time>
      </trkpt>
      <trkpt lat="47.3393" lon="-1.57488">
        <ele>87</ele>
        <time>2021-10-09T11:11:22.000Z</time>
      </trkpt>
      <trkpt lat="47.33938" lon="-1.57458">
        <ele>86</ele>
        <time>2021-10-09T11:11:25.000Z</time>
      </trkpt>
      <trkpt lat="47.33944" lon="-1.57439">
        <ele>86</ele>
        <time>2021-10-09T11:11:27.000Z</time>
      </trkpt>
      <trkpt lat="47.3395" lon="-1.57418">
        <ele>85</ele>
        <time>2021-10-09T11:11:29.000Z</time>
      </trkpt>
      <trkpt lat="47.33958" lon="-1.57387">
        <ele>84</ele>
        <time>2021-10-09T11:11:32.000Z</time>
      </trkpt>
      <trkpt lat="47.33964" lon="-1.57367">
        <ele>84</ele>
        <time>2021-10-09T11:11:34.000Z</time>
      </trkpt>
      <trkpt lat="47.3397" lon="-1.57346">
        <ele>83</ele>
        <time>2021-10-09T11:11:36.000Z</time>
      </trkpt>
      <trkpt lat="47.33977" lon="-1.57313">
        <ele>82</ele>
        <time>2021-10-09T11:11:39.000Z</time>
      </trkpt>
      <trkpt lat="47.33981" lon="-1.57291">
        <ele>81</ele>
        <time>2021-10-09T11:11:41.000Z</time>
      </trkpt>
      <trkpt lat="47.33984" lon="-1.57257">
        <ele>80</ele>
        <time>2021-10-09T11:11:44.000Z</time>
      </trkpt>
      <trkpt lat="47.33986" lon="-1.57235">
        <ele>80</ele>
        <time>2021-10-09T11:11:46.000Z</time>
      </trkpt>
      <trkpt lat="47.33988" lon="-1.57212">
        <ele>80</ele>
        <time>2021-10-09T11:11:48.000Z</time>
      </trkpt>
      <trkpt lat="47.3399" lon="-1.57191">
        <ele>79</ele>
        <time>2021-10-09T11:11:50.000Z</time>
      </trkpt>
      <trkpt lat="47.33991" lon="-1.57171">
        <ele>79</ele>
        <time>2021-10-09T11:11:52.000Z</time>
      </trkpt>
      <trkpt lat="47.33992" lon="-1.5715">
        <ele>79</ele>
        <time>2021-10-09T11:11:54.000Z</time>
      </trkpt>
      <trkpt lat="47.33993" lon="-1.57129">
        <ele>79</ele>
        <time>2021-10-09T11:11:56.000Z</time>
      </trkpt>
      <trkpt lat="47.33993" lon="-1.57099">
        <ele>78</ele>
        <time>2021-10-09T11:11:59.000Z</time>
      </trkpt>
      <trkpt lat="47.33992" lon="-1.57078">
        <ele>78</ele>
        <time>2021-10-09T11:12:01.000Z</time>
      </trkpt>
      <trkpt lat="47.33992" lon="-1.57057">
        <ele>77</ele>
        <time>2021-10-09T11:12:03.000Z</time>
      </trkpt>
      <trkpt lat="47.33992" lon="-1.57035">
        <ele>76</ele>
        <time>2021-10-09T11:12:05.000Z</time>
      </trkpt>
      <trkpt lat="47.33992" lon="-1.57013">
        <ele>77</ele>
        <time>2021-10-09T11:12:07.000Z</time>
      </trkpt>
      <trkpt lat="47.33993" lon="-1.56991">
        <ele>77</ele>
        <time>2021-10-09T11:12:09.000Z</time>
      </trkpt>
      <trkpt lat="47.33995" lon="-1.56969">
        <ele>76</ele>
        <time>2021-10-09T11:12:11.000Z</time>
      </trkpt>
      <trkpt lat="47.33995" lon="-1.56948">
        <ele>77</ele>
        <time>2021-10-09T11:12:13.000Z</time>
      </trkpt>
      <trkpt lat="47.33997" lon="-1.56925">
        <ele>76</ele>
        <time>2021-10-09T11:12:15.000Z</time>
      </trkpt>
      <trkpt lat="47.33998" lon="-1.56902">
        <ele>76</ele>
        <time>2021-10-09T11:12:17.000Z</time>
      </trkpt>
      <trkpt lat="47.33999" lon="-1.56877">
        <ele>75</ele>
        <time>2021-10-09T11:12:19.000Z</time>
      </trkpt>
      <trkpt lat="47.34" lon="-1.56855">
        <ele>76</ele>
        <time>2021-10-09T11:12:21.000Z</time>
      </trkpt>
      <trkpt lat="47.34001" lon="-1.56833">
        <ele>76</ele>
        <time>2021-10-09T11:12:23.000Z</time>
      </trkpt>
      <trkpt lat="47.34002" lon="-1.56812">
        <ele>76</ele>
        <time>2021-10-09T11:12:25.000Z</time>
      </trkpt>
      <trkpt lat="47.34003" lon="-1.56793">
        <ele>75</ele>
        <time>2021-10-09T11:12:27.000Z</time>
      </trkpt>
      <trkpt lat="47.34004" lon="-1.56773">
        <ele>75</ele>
        <time>2021-10-09T11:12:29.000Z</time>
      </trkpt>
      <trkpt lat="47.34005" lon="-1.56752">
        <ele>75</ele>
        <time>2021-10-09T11:12:31.000Z</time>
      </trkpt>
      <trkpt lat="47.34005" lon="-1.56732">
        <ele>75</ele>
        <time>2021-10-09T11:12:33.000Z</time>
      </trkpt>
      <trkpt lat="47.34006" lon="-1.56713">
        <ele>75</ele>
        <time>2021-10-09T11:12:35.000Z</time>
      </trkpt>
      <trkpt lat="47.34006" lon="-1.56694">
        <ele>76</ele>
        <time>2021-10-09T11:12:37.000Z</time>
      </trkpt>
      <trkpt lat="47.34007" lon="-1.56674">
        <ele>76</ele>
        <time>2021-10-09T11:12:39.000Z</time>
      </trkpt>
      <trkpt lat="47.34007" lon="-1.56654">
        <ele>75</ele>
        <time>2021-10-09T11:12:41.000Z</time>
      </trkpt>
      <trkpt lat="47.34008" lon="-1.56633">
        <ele>75</ele>
        <time>2021-10-09T11:12:43.000Z</time>
      </trkpt>
      <trkpt lat="47.3401" lon="-1.56613">
        <ele>74</ele>
        <time>2021-10-09T11:12:45.000Z</time>
      </trkpt>
      <trkpt lat="47.34011" lon="-1.56592">
        <ele>73</ele>
        <time>2021-10-09T11:12:47.000Z</time>
      </trkpt>
      <trkpt lat="47.34011" lon="-1.56571">
        <ele>73</ele>
        <time>2021-10-09T11:12:49.000Z</time>
      </trkpt>
      <trkpt lat="47.34012" lon="-1.56549">
        <ele>72</ele>
        <time>2021-10-09T11:12:51.000Z</time>
      </trkpt>
      <trkpt lat="47.34013" lon="-1.56527">
        <ele>72</ele>
        <time>2021-10-09T11:12:53.000Z</time>
      </trkpt>
      <trkpt lat="47.34014" lon="-1.56505">
        <ele>72</ele>
        <time>2021-10-09T11:12:55.000Z</time>
      </trkpt>
      <trkpt lat="47.34015" lon="-1.56483">
        <ele>71</ele>
        <time>2021-10-09T11:12:57.000Z</time>
      </trkpt>
      <trkpt lat="47.34016" lon="-1.56461">
        <ele>71</ele>
        <time>2021-10-09T11:12:59.000Z</time>
      </trkpt>
      <trkpt lat="47.34017" lon="-1.56439">
        <ele>71</ele>
        <time>2021-10-09T11:13:01.000Z</time>
      </trkpt>
      <trkpt lat="47.34018" lon="-1.56417">
        <ele>71</ele>
        <time>2021-10-09T11:13:03.000Z</time>
      </trkpt>
      <trkpt lat="47.34019" lon="-1.56396">
        <ele>71</ele>
        <time>2021-10-09T11:13:05.000Z</time>
      </trkpt>
      <trkpt lat="47.3402" lon="-1.56377">
        <ele>71</ele>
        <time>2021-10-09T11:13:07.000Z</time>
      </trkpt>
      <trkpt lat="47.3402" lon="-1.56358">
        <ele>71</ele>
        <time>2021-10-09T11:13:09.000Z</time>
      </trkpt>
      <trkpt lat="47.34018" lon="-1.56339">
        <ele>72</ele>
        <time>2021-10-09T11:13:11.000Z</time>
      </trkpt>
      <trkpt lat="47.34016" lon="-1.56318">
        <ele>73</ele>
        <time>2021-10-09T11:13:13.000Z</time>
      </trkpt>
      <trkpt lat="47.34013" lon="-1.56297">
        <ele>73</ele>
        <time>2021-10-09T11:13:15.000Z</time>
      </trkpt>
      <trkpt lat="47.34009" lon="-1.56275">
        <ele>73</ele>
        <time>2021-10-09T11:13:17.000Z</time>
      </trkpt>
      <trkpt lat="47.34006" lon="-1.56254">
        <ele>72</ele>
        <time>2021-10-09T11:13:19.000Z</time>
      </trkpt>
      <trkpt lat="47.34003" lon="-1.56234">
        <ele>72</ele>
        <time>2021-10-09T11:13:21.000Z</time>
      </trkpt>
      <trkpt lat="47.33999" lon="-1.56215">
        <ele>71</ele>
        <time>2021-10-09T11:13:23.000Z</time>
      </trkpt>
      <trkpt lat="47.33996" lon="-1.56194">
        <ele>72</ele>
        <time>2021-10-09T11:13:25.000Z</time>
      </trkpt>
      <trkpt lat="47.33992" lon="-1.5617">
        <ele>72</ele>
        <time>2021-10-09T11:13:27.000Z</time>
      </trkpt>
      <trkpt lat="47.3399" lon="-1.56145">
        <ele>72</ele>
        <time>2021-10-09T11:13:29.000Z</time>
      </trkpt>
      <trkpt lat="47.33988" lon="-1.56122">
        <ele>71</ele>
        <time>2021-10-09T11:13:31.000Z</time>
      </trkpt>
      <trkpt lat="47.33986" lon="-1.56098">
        <ele>70</ele>
        <time>2021-10-09T11:13:33.000Z</time>
      </trkpt>
      <trkpt lat="47.33985" lon="-1.56073">
        <ele>68</ele>
        <time>2021-10-09T11:13:35.000Z</time>
      </trkpt>
      <trkpt lat="47.33988" lon="-1.56048">
        <ele>67</ele>
        <time>2021-10-09T11:13:37.000Z</time>
      </trkpt>
      <trkpt lat="47.33996" lon="-1.56025">
        <ele>66</ele>
        <time>2021-10-09T11:13:39.000Z</time>
      </trkpt>
      <trkpt lat="47.34007" lon="-1.56004">
        <ele>64</ele>
        <time>2021-10-09T11:13:41.000Z</time>
      </trkpt>
      <trkpt lat="47.34014" lon="-1.55995">
        <ele>63</ele>
        <time>2021-10-09T11:13:42.000Z</time>
      </trkpt>
      <trkpt lat="47.3402" lon="-1.55986">
        <ele>63</ele>
        <time>2021-10-09T11:13:43.000Z</time>
      </trkpt>
      <trkpt lat="47.34034" lon="-1.5597">
        <ele>62</ele>
        <time>2021-10-09T11:13:45.000Z</time>
      </trkpt>
      <trkpt lat="47.34047" lon="-1.55953">
        <ele>61</ele>
        <time>2021-10-09T11:13:47.000Z</time>
      </trkpt>
      <trkpt lat="47.34058" lon="-1.55936">
        <ele>61</ele>
        <time>2021-10-09T11:13:49.000Z</time>
      </trkpt>
      <trkpt lat="47.34067" lon="-1.55919">
        <ele>61</ele>
        <time>2021-10-09T11:13:51.000Z</time>
      </trkpt>
      <trkpt lat="47.3407" lon="-1.55901">
        <ele>61</ele>
        <time>2021-10-09T11:13:53.000Z</time>
      </trkpt>
      <trkpt lat="47.34068" lon="-1.55884">
        <ele>62</ele>
        <time>2021-10-09T11:13:55.000Z</time>
      </trkpt>
      <trkpt lat="47.34066" lon="-1.5587">
        <ele>62</ele>
        <time>2021-10-09T11:13:57.000Z</time>
      </trkpt>
      <trkpt lat="47.34063" lon="-1.55856">
        <ele>62</ele>
        <time>2021-10-09T11:13:59.000Z</time>
      </trkpt>
      <trkpt lat="47.3406" lon="-1.5584">
        <ele>63</ele>
        <time>2021-10-09T11:14:01.000Z</time>
      </trkpt>
      <trkpt lat="47.34058" lon="-1.55825">
        <ele>63</ele>
        <time>2021-10-09T11:14:03.000Z</time>
      </trkpt>
      <trkpt lat="47.34057" lon="-1.5581">
        <ele>63</ele>
        <time>2021-10-09T11:14:05.000Z</time>
      </trkpt>
      <trkpt lat="47.34055" lon="-1.55795">
        <ele>63</ele>
        <time>2021-10-09T11:14:07.000Z</time>
      </trkpt>
      <trkpt lat="47.34055" lon="-1.55778">
        <ele>63</ele>
        <time>2021-10-09T11:14:09.000Z</time>
      </trkpt>
      <trkpt lat="47.34055" lon="-1.55761">
        <ele>64</ele>
        <time>2021-10-09T11:14:11.000Z</time>
      </trkpt>
      <trkpt lat="47.34057" lon="-1.55745">
        <ele>65</ele>
        <time>2021-10-09T11:14:13.000Z</time>
      </trkpt>
      <trkpt lat="47.3406" lon="-1.55729">
        <ele>65</ele>
        <time>2021-10-09T11:14:15.000Z</time>
      </trkpt>
      <trkpt lat="47.34062" lon="-1.55712">
        <ele>66</ele>
        <time>2021-10-09T11:14:17.000Z</time>
      </trkpt>
      <trkpt lat="47.34065" lon="-1.55696">
        <ele>66</ele>
        <time>2021-10-09T11:14:19.000Z</time>
      </trkpt>
      <trkpt lat="47.34069" lon="-1.5568">
        <ele>66</ele>
        <time>2021-10-09T11:14:21.000Z</time>
      </trkpt>
      <trkpt lat="47.34072" lon="-1.55664">
        <ele>66</ele>
        <time>2021-10-09T11:14:23.000Z</time>
      </trkpt>
      <trkpt lat="47.34075" lon="-1.55648">
        <ele>67</ele>
        <time>2021-10-09T11:14:25.000Z</time>
      </trkpt>
      <trkpt lat="47.34079" lon="-1.55634">
        <ele>67</ele>
        <time>2021-10-09T11:14:27.000Z</time>
      </trkpt>
      <trkpt lat="47.34082" lon="-1.55619">
        <ele>67</ele>
        <time>2021-10-09T11:14:29.000Z</time>
      </trkpt>
      <trkpt lat="47.34085" lon="-1.55604">
        <ele>67</ele>
        <time>2021-10-09T11:14:31.000Z</time>
      </trkpt>
      <trkpt lat="47.34089" lon="-1.55589">
        <ele>67</ele>
        <time>2021-10-09T11:14:33.000Z</time>
      </trkpt>
      <trkpt lat="47.34094" lon="-1.55576">
        <ele>68</ele>
        <time>2021-10-09T11:14:35.000Z</time>
      </trkpt>
      <trkpt lat="47.341" lon="-1.55562">
        <ele>67</ele>
        <time>2021-10-09T11:14:37.000Z</time>
      </trkpt>
      <trkpt lat="47.34106" lon="-1.55547">
        <ele>67</ele>
        <time>2021-10-09T11:14:39.000Z</time>
      </trkpt>
      <trkpt lat="47.34113" lon="-1.55532">
        <ele>67</ele>
        <time>2021-10-09T11:14:41.000Z</time>
      </trkpt>
      <trkpt lat="47.34119" lon="-1.55518">
        <ele>66</ele>
        <time>2021-10-09T11:14:43.000Z</time>
      </trkpt>
      <trkpt lat="47.34126" lon="-1.55503">
        <ele>66</ele>
        <time>2021-10-09T11:14:45.000Z</time>
      </trkpt>
      <trkpt lat="47.34134" lon="-1.55489">
        <ele>65</ele>
        <time>2021-10-09T11:14:47.000Z</time>
      </trkpt>
      <trkpt lat="47.34142" lon="-1.55476">
        <ele>65</ele>
        <time>2021-10-09T11:14:49.000Z</time>
      </trkpt>
      <trkpt lat="47.34149" lon="-1.55464">
        <ele>65</ele>
        <time>2021-10-09T11:14:51.000Z</time>
      </trkpt>
      <trkpt lat="47.34157" lon="-1.55452">
        <ele>65</ele>
        <time>2021-10-09T11:14:53.000Z</time>
      </trkpt>
      <trkpt lat="47.34165" lon="-1.55441">
        <ele>65</ele>
        <time>2021-10-09T11:14:55.000Z</time>
      </trkpt>
      <trkpt lat="47.34173" lon="-1.55429">
        <ele>66</ele>
        <time>2021-10-09T11:14:57.000Z</time>
      </trkpt>
      <trkpt lat="47.34181" lon="-1.55417">
        <ele>66</ele>
        <time>2021-10-09T11:14:59.000Z</time>
      </trkpt>
      <trkpt lat="47.34188" lon="-1.55405">
        <ele>66</ele>
        <time>2021-10-09T11:15:01.000Z</time>
      </trkpt>
      <trkpt lat="47.34195" lon="-1.55392">
        <ele>66</ele>
        <time>2021-10-09T11:15:03.000Z</time>
      </trkpt>
      <trkpt lat="47.34203" lon="-1.55381">
        <ele>65</ele>
        <time>2021-10-09T11:15:05.000Z</time>
      </trkpt>
      <trkpt lat="47.34211" lon="-1.55367">
        <ele>65</ele>
        <time>2021-10-09T11:15:07.000Z</time>
      </trkpt>
      <trkpt lat="47.34219" lon="-1.55354">
        <ele>64</ele>
        <time>2021-10-09T11:15:09.000Z</time>
      </trkpt>
      <trkpt lat="47.34227" lon="-1.55342">
        <ele>64</ele>
        <time>2021-10-09T11:15:11.000Z</time>
      </trkpt>
      <trkpt lat="47.34236" lon="-1.55329">
        <ele>64</ele>
        <time>2021-10-09T11:15:13.000Z</time>
      </trkpt>
      <trkpt lat="47.34244" lon="-1.55316">
        <ele>64</ele>
        <time>2021-10-09T11:15:15.000Z</time>
      </trkpt>
      <trkpt lat="47.34253" lon="-1.55302">
        <ele>64</ele>
        <time>2021-10-09T11:15:17.000Z</time>
      </trkpt>
      <trkpt lat="47.34263" lon="-1.55288">
        <ele>64</ele>
        <time>2021-10-09T11:15:19.000Z</time>
      </trkpt>
      <trkpt lat="47.34272" lon="-1.55274">
        <ele>64</ele>
        <time>2021-10-09T11:15:21.000Z</time>
      </trkpt>
      <trkpt lat="47.34282" lon="-1.55259">
        <ele>64</ele>
        <time>2021-10-09T11:15:23.000Z</time>
      </trkpt>
      <trkpt lat="47.34292" lon="-1.55243">
        <ele>63</ele>
        <time>2021-10-09T11:15:25.000Z</time>
      </trkpt>
      <trkpt lat="47.34299" lon="-1.55224">
        <ele>63</ele>
        <time>2021-10-09T11:15:27.000Z</time>
      </trkpt>
      <trkpt lat="47.34304" lon="-1.55204">
        <ele>63</ele>
        <time>2021-10-09T11:15:29.000Z</time>
      </trkpt>
      <trkpt lat="47.34308" lon="-1.55183">
        <ele>62</ele>
        <time>2021-10-09T11:15:31.000Z</time>
      </trkpt>
      <trkpt lat="47.34311" lon="-1.55161">
        <ele>62</ele>
        <time>2021-10-09T11:15:33.000Z</time>
      </trkpt>
      <trkpt lat="47.34313" lon="-1.55139">
        <ele>61</ele>
        <time>2021-10-09T11:15:35.000Z</time>
      </trkpt>
      <trkpt lat="47.34316" lon="-1.55115">
        <ele>61</ele>
        <time>2021-10-09T11:15:37.000Z</time>
      </trkpt>
      <trkpt lat="47.34317" lon="-1.55093">
        <ele>61</ele>
        <time>2021-10-09T11:15:39.000Z</time>
      </trkpt>
      <trkpt lat="47.34319" lon="-1.55073">
        <ele>61</ele>
        <time>2021-10-09T11:15:41.000Z</time>
      </trkpt>
      <trkpt lat="47.3432" lon="-1.55054">
        <ele>61</ele>
        <time>2021-10-09T11:15:43.000Z</time>
      </trkpt>
      <trkpt lat="47.34321" lon="-1.55037">
        <ele>62</ele>
        <time>2021-10-09T11:15:45.000Z</time>
      </trkpt>
      <trkpt lat="47.34322" lon="-1.55023">
        <ele>62</ele>
        <time>2021-10-09T11:15:47.000Z</time>
      </trkpt>
      <trkpt lat="47.34324" lon="-1.55008">
        <ele>62</ele>
        <time>2021-10-09T11:15:49.000Z</time>
      </trkpt>
      <trkpt lat="47.34325" lon="-1.54995">
        <ele>63</ele>
        <time>2021-10-09T11:15:51.000Z</time>
      </trkpt>
      <trkpt lat="47.34328" lon="-1.54976">
        <ele>64</ele>
        <time>2021-10-09T11:15:54.000Z</time>
      </trkpt>
      <trkpt lat="47.34329" lon="-1.54957">
        <ele>65</ele>
        <time>2021-10-09T11:15:57.000Z</time>
      </trkpt>
      <trkpt lat="47.34331" lon="-1.54938">
        <ele>65</ele>
        <time>2021-10-09T11:16:00.000Z</time>
      </trkpt>
      <trkpt lat="47.34332" lon="-1.54919">
        <ele>66</ele>
        <time>2021-10-09T11:16:03.000Z</time>
      </trkpt>
      <trkpt lat="47.34334" lon="-1.54902">
        <ele>66</ele>
        <time>2021-10-09T11:16:06.000Z</time>
      </trkpt>
      <trkpt lat="47.34336" lon="-1.54884">
        <ele>67</ele>
        <time>2021-10-09T11:16:09.000Z</time>
      </trkpt>
      <trkpt lat="47.34337" lon="-1.5487">
        <ele>67</ele>
        <time>2021-10-09T11:16:11.000Z</time>
      </trkpt>
      <trkpt lat="47.34338" lon="-1.54851">
        <ele>68</ele>
        <time>2021-10-09T11:16:14.000Z</time>
      </trkpt>
      <trkpt lat="47.34341" lon="-1.54834">
        <ele>68</ele>
        <time>2021-10-09T11:16:17.000Z</time>
      </trkpt>
      <trkpt lat="47.34343" lon="-1.54816">
        <ele>68</ele>
        <time>2021-10-09T11:16:20.000Z</time>
      </trkpt>
      <trkpt lat="47.34344" lon="-1.54802">
        <ele>69</ele>
        <time>2021-10-09T11:16:22.000Z</time>
      </trkpt>
      <trkpt lat="47.34345" lon="-1.54782">
        <ele>70</ele>
        <time>2021-10-09T11:16:25.000Z</time>
      </trkpt>
      <trkpt lat="47.34348" lon="-1.54765">
        <ele>71</ele>
        <time>2021-10-09T11:16:28.000Z</time>
      </trkpt>
      <trkpt lat="47.34351" lon="-1.54752">
        <ele>71</ele>
        <time>2021-10-09T11:16:30.000Z</time>
      </trkpt>
      <trkpt lat="47.34355" lon="-1.5474">
        <ele>72</ele>
        <time>2021-10-09T11:16:32.000Z</time>
      </trkpt>
      <trkpt lat="47.3436" lon="-1.54729">
        <ele>72</ele>
        <time>2021-10-09T11:16:34.000Z</time>
      </trkpt>
      <trkpt lat="47.34368" lon="-1.54713">
        <ele>73</ele>
        <time>2021-10-09T11:16:37.000Z</time>
      </trkpt>
      <trkpt lat="47.34378" lon="-1.547">
        <ele>74</ele>
        <time>2021-10-09T11:16:40.000Z</time>
      </trkpt>
      <trkpt lat="47.34384" lon="-1.54691">
        <ele>74</ele>
        <time>2021-10-09T11:16:42.000Z</time>
      </trkpt>
      <trkpt lat="47.34392" lon="-1.54682">
        <ele>73</ele>
        <time>2021-10-09T11:16:44.000Z</time>
      </trkpt>
      <trkpt lat="47.34403" lon="-1.54671">
        <ele>74</ele>
        <time>2021-10-09T11:16:47.000Z</time>
      </trkpt>
      <trkpt lat="47.34413" lon="-1.54659">
        <ele>75</ele>
        <time>2021-10-09T11:16:50.000Z</time>
      </trkpt>
      <trkpt lat="47.34419" lon="-1.54649">
        <ele>75</ele>
        <time>2021-10-09T11:16:52.000Z</time>
      </trkpt>
      <trkpt lat="47.34424" lon="-1.54637">
        <ele>76</ele>
        <time>2021-10-09T11:16:54.000Z</time>
      </trkpt>
      <trkpt lat="47.34426" lon="-1.54624">
        <ele>76</ele>
        <time>2021-10-09T11:16:56.000Z</time>
      </trkpt>
      <trkpt lat="47.34427" lon="-1.54604">
        <ele>75</ele>
        <time>2021-10-09T11:16:59.000Z</time>
      </trkpt>
      <trkpt lat="47.34425" lon="-1.5459">
        <ele>76</ele>
        <time>2021-10-09T11:17:01.000Z</time>
      </trkpt>
      <trkpt lat="47.34422" lon="-1.54571">
        <ele>77</ele>
        <time>2021-10-09T11:17:04.000Z</time>
      </trkpt>
      <trkpt lat="47.34419" lon="-1.54558">
        <ele>78</ele>
        <time>2021-10-09T11:17:06.000Z</time>
      </trkpt>
      <trkpt lat="47.34415" lon="-1.54539">
        <ele>78</ele>
        <time>2021-10-09T11:17:09.000Z</time>
      </trkpt>
      <trkpt lat="47.34413" lon="-1.54525">
        <ele>78</ele>
        <time>2021-10-09T11:17:11.000Z</time>
      </trkpt>
      <trkpt lat="47.3441" lon="-1.54512">
        <ele>79</ele>
        <time>2021-10-09T11:17:13.000Z</time>
      </trkpt>
      <trkpt lat="47.34406" lon="-1.54493">
        <ele>80</ele>
        <time>2021-10-09T11:17:16.000Z</time>
      </trkpt>
      <trkpt lat="47.34404" lon="-1.54481">
        <ele>80</ele>
        <time>2021-10-09T11:17:18.000Z</time>
      </trkpt>
      <trkpt lat="47.34401" lon="-1.54468">
        <ele>80</ele>
        <time>2021-10-09T11:17:20.000Z</time>
      </trkpt>
      <trkpt lat="47.34398" lon="-1.5445">
        <ele>81</ele>
        <time>2021-10-09T11:17:23.000Z</time>
      </trkpt>
      <trkpt lat="47.34393" lon="-1.54431">
        <ele>82</ele>
        <time>2021-10-09T11:17:26.000Z</time>
      </trkpt>
      <trkpt lat="47.34391" lon="-1.54417">
        <ele>82</ele>
        <time>2021-10-09T11:17:28.000Z</time>
      </trkpt>
      <trkpt lat="47.34387" lon="-1.54404">
        <ele>82</ele>
        <time>2021-10-09T11:17:30.000Z</time>
      </trkpt>
      <trkpt lat="47.34384" lon="-1.54391">
        <ele>82</ele>
        <time>2021-10-09T11:17:32.000Z</time>
      </trkpt>
      <trkpt lat="47.34381" lon="-1.54378">
        <ele>83</ele>
        <time>2021-10-09T11:17:34.000Z</time>
      </trkpt>
      <trkpt lat="47.34377" lon="-1.54365">
        <ele>83</ele>
        <time>2021-10-09T11:17:36.000Z</time>
      </trkpt>
      <trkpt lat="47.34373" lon="-1.54352">
        <ele>83</ele>
        <time>2021-10-09T11:17:38.000Z</time>
      </trkpt>
      <trkpt lat="47.34369" lon="-1.5434">
        <ele>83</ele>
        <time>2021-10-09T11:17:40.000Z</time>
      </trkpt>
      <trkpt lat="47.34364" lon="-1.54327">
        <ele>84</ele>
        <time>2021-10-09T11:17:42.000Z</time>
      </trkpt>
      <trkpt lat="47.3436" lon="-1.54314">
        <ele>84</ele>
        <time>2021-10-09T11:17:44.000Z</time>
      </trkpt>
      <trkpt lat="47.34355" lon="-1.54301">
        <ele>84</ele>
        <time>2021-10-09T11:17:46.000Z</time>
      </trkpt>
      <trkpt lat="47.34351" lon="-1.54288">
        <ele>84</ele>
        <time>2021-10-09T11:17:48.000Z</time>
      </trkpt>
      <trkpt lat="47.34346" lon="-1.54275">
        <ele>84</ele>
        <time>2021-10-09T11:17:50.000Z</time>
      </trkpt>
      <trkpt lat="47.3434" lon="-1.54261">
        <ele>84</ele>
        <time>2021-10-09T11:17:52.000Z</time>
      </trkpt>
      <trkpt lat="47.34334" lon="-1.54246">
        <ele>84</ele>
        <time>2021-10-09T11:17:54.000Z</time>
      </trkpt>
      <trkpt lat="47.34327" lon="-1.54231">
        <ele>84</ele>
        <time>2021-10-09T11:17:56.000Z</time>
      </trkpt>
      <trkpt lat="47.34321" lon="-1.54216">
        <ele>84</ele>
        <time>2021-10-09T11:17:58.000Z</time>
      </trkpt>
      <trkpt lat="47.34314" lon="-1.542">
        <ele>84</ele>
        <time>2021-10-09T11:18:00.000Z</time>
      </trkpt>
      <trkpt lat="47.34307" lon="-1.54183">
        <ele>83</ele>
        <time>2021-10-09T11:18:02.000Z</time>
      </trkpt>
      <trkpt lat="47.34301" lon="-1.54166">
        <ele>82</ele>
        <time>2021-10-09T11:18:04.000Z</time>
      </trkpt>
      <trkpt lat="47.34297" lon="-1.54147">
        <ele>82</ele>
        <time>2021-10-09T11:18:06.000Z</time>
      </trkpt>
      <trkpt lat="47.34293" lon="-1.54128">
        <ele>81</ele>
        <time>2021-10-09T11:18:08.000Z</time>
      </trkpt>
      <trkpt lat="47.3429" lon="-1.54108">
        <ele>81</ele>
        <time>2021-10-09T11:18:10.000Z</time>
      </trkpt>
      <trkpt lat="47.34287" lon="-1.54088">
        <ele>80</ele>
        <time>2021-10-09T11:18:12.000Z</time>
      </trkpt>
      <trkpt lat="47.34284" lon="-1.54068">
        <ele>80</ele>
        <time>2021-10-09T11:18:14.000Z</time>
      </trkpt>
      <trkpt lat="47.3428" lon="-1.54048">
        <ele>80</ele>
        <time>2021-10-09T11:18:16.000Z</time>
      </trkpt>
      <trkpt lat="47.34276" lon="-1.54028">
        <ele>80</ele>
        <time>2021-10-09T11:18:18.000Z</time>
      </trkpt>
      <trkpt lat="47.34271" lon="-1.54009">
        <ele>81</ele>
        <time>2021-10-09T11:18:20.000Z</time>
      </trkpt>
      <trkpt lat="47.34266" lon="-1.53995">
        <ele>81</ele>
        <time>2021-10-09T11:18:22.000Z</time>
      </trkpt>
      <trkpt lat="47.34254" lon="-1.5399">
        <ele>81</ele>
        <time>2021-10-09T11:18:25.000Z</time>
      </trkpt>
      <trkpt lat="47.34248" lon="-1.53981">
        <ele>80</ele>
        <time>2021-10-09T11:20:26.000Z</time>
      </trkpt>
      <trkpt lat="47.3425" lon="-1.53964">
        <ele>83</ele>
        <time>2021-10-09T11:20:49.000Z</time>
      </trkpt>
      <trkpt lat="47.34243" lon="-1.53945">
        <ele>82</ele>
        <time>2021-10-09T11:20:52.000Z</time>
      </trkpt>
      <trkpt lat="47.34238" lon="-1.53932">
        <ele>81</ele>
        <time>2021-10-09T11:20:54.000Z</time>
      </trkpt>
      <trkpt lat="47.34233" lon="-1.53919">
        <ele>81</ele>
        <time>2021-10-09T11:20:56.000Z</time>
      </trkpt>
      <trkpt lat="47.34227" lon="-1.53907">
        <ele>81</ele>
        <time>2021-10-09T11:20:58.000Z</time>
      </trkpt>
      <trkpt lat="47.34219" lon="-1.53897">
        <ele>82</ele>
        <time>2021-10-09T11:21:00.000Z</time>
      </trkpt>
      <trkpt lat="47.3421" lon="-1.53886">
        <ele>82</ele>
        <time>2021-10-09T11:21:02.000Z</time>
      </trkpt>
      <trkpt lat="47.34202" lon="-1.53876">
        <ele>82</ele>
        <time>2021-10-09T11:21:04.000Z</time>
      </trkpt>
      <trkpt lat="47.34193" lon="-1.53865">
        <ele>83</ele>
        <time>2021-10-09T11:21:06.000Z</time>
      </trkpt>
      <trkpt lat="47.34184" lon="-1.53854">
        <ele>83</ele>
        <time>2021-10-09T11:21:08.000Z</time>
      </trkpt>
      <trkpt lat="47.34174" lon="-1.53845">
        <ele>83</ele>
        <time>2021-10-09T11:21:10.000Z</time>
      </trkpt>
      <trkpt lat="47.34164" lon="-1.53835">
        <ele>83</ele>
        <time>2021-10-09T11:21:12.000Z</time>
      </trkpt>
      <trkpt lat="47.34154" lon="-1.53825">
        <ele>83</ele>
        <time>2021-10-09T11:21:14.000Z</time>
      </trkpt>
      <trkpt lat="47.34143" lon="-1.53815">
        <ele>83</ele>
        <time>2021-10-09T11:21:16.000Z</time>
      </trkpt>
      <trkpt lat="47.34132" lon="-1.53804">
        <ele>83</ele>
        <time>2021-10-09T11:21:18.000Z</time>
      </trkpt>
      <trkpt lat="47.34121" lon="-1.53794">
        <ele>82</ele>
        <time>2021-10-09T11:21:20.000Z</time>
      </trkpt>
      <trkpt lat="47.34111" lon="-1.53783">
        <ele>83</ele>
        <time>2021-10-09T11:21:22.000Z</time>
      </trkpt>
      <trkpt lat="47.34101" lon="-1.53772">
        <ele>82</ele>
        <time>2021-10-09T11:21:24.000Z</time>
      </trkpt>
      <trkpt lat="47.34091" lon="-1.53761">
        <ele>83</ele>
        <time>2021-10-09T11:21:26.000Z</time>
      </trkpt>
      <trkpt lat="47.34081" lon="-1.53751">
        <ele>82</ele>
        <time>2021-10-09T11:21:28.000Z</time>
      </trkpt>
      <trkpt lat="47.34071" lon="-1.5374">
        <ele>82</ele>
        <time>2021-10-09T11:21:30.000Z</time>
      </trkpt>
      <trkpt lat="47.3406" lon="-1.53729">
        <ele>82</ele>
        <time>2021-10-09T11:21:32.000Z</time>
      </trkpt>
      <trkpt lat="47.3405" lon="-1.53718">
        <ele>82</ele>
        <time>2021-10-09T11:21:34.000Z</time>
      </trkpt>
      <trkpt lat="47.3404" lon="-1.53707">
        <ele>82</ele>
        <time>2021-10-09T11:21:36.000Z</time>
      </trkpt>
      <trkpt lat="47.34029" lon="-1.53696">
        <ele>82</ele>
        <time>2021-10-09T11:21:38.000Z</time>
      </trkpt>
      <trkpt lat="47.34018" lon="-1.53686">
        <ele>81</ele>
        <time>2021-10-09T11:21:40.000Z</time>
      </trkpt>
      <trkpt lat="47.34007" lon="-1.53674">
        <ele>82</ele>
        <time>2021-10-09T11:21:42.000Z</time>
      </trkpt>
      <trkpt lat="47.33996" lon="-1.53663">
        <ele>81</ele>
        <time>2021-10-09T11:21:44.000Z</time>
      </trkpt>
      <trkpt lat="47.33984" lon="-1.53651">
        <ele>81</ele>
        <time>2021-10-09T11:21:46.000Z</time>
      </trkpt>
      <trkpt lat="47.33972" lon="-1.53639">
        <ele>80</ele>
        <time>2021-10-09T11:21:48.000Z</time>
      </trkpt>
      <trkpt lat="47.33959" lon="-1.53626">
        <ele>79</ele>
        <time>2021-10-09T11:21:50.000Z</time>
      </trkpt>
      <trkpt lat="47.33947" lon="-1.53612">
        <ele>79</ele>
        <time>2021-10-09T11:21:52.000Z</time>
      </trkpt>
      <trkpt lat="47.33935" lon="-1.53597">
        <ele>78</ele>
        <time>2021-10-09T11:21:54.000Z</time>
      </trkpt>
      <trkpt lat="47.33923" lon="-1.53581">
        <ele>78</ele>
        <time>2021-10-09T11:21:56.000Z</time>
      </trkpt>
      <trkpt lat="47.33916" lon="-1.5356">
        <ele>77</ele>
        <time>2021-10-09T11:21:58.000Z</time>
      </trkpt>
      <trkpt lat="47.33912" lon="-1.53536">
        <ele>77</ele>
        <time>2021-10-09T11:22:00.000Z</time>
      </trkpt>
      <trkpt lat="47.33913" lon="-1.5351">
        <ele>75</ele>
        <time>2021-10-09T11:22:02.000Z</time>
      </trkpt>
      <trkpt lat="47.33914" lon="-1.53484">
        <ele>74</ele>
        <time>2021-10-09T11:22:04.000Z</time>
      </trkpt>
      <trkpt lat="47.33913" lon="-1.53459">
        <ele>73</ele>
        <time>2021-10-09T11:22:06.000Z</time>
      </trkpt>
      <trkpt lat="47.33907" lon="-1.53436">
        <ele>72</ele>
        <time>2021-10-09T11:22:08.000Z</time>
      </trkpt>
      <trkpt lat="47.33899" lon="-1.53415">
        <ele>71</ele>
        <time>2021-10-09T11:22:10.000Z</time>
      </trkpt>
      <trkpt lat="47.33896" lon="-1.53393">
        <ele>70</ele>
        <time>2021-10-09T11:22:12.000Z</time>
      </trkpt>
      <trkpt lat="47.33898" lon="-1.53371">
        <ele>70</ele>
        <time>2021-10-09T11:22:14.000Z</time>
      </trkpt>
      <trkpt lat="47.33905" lon="-1.53351">
        <ele>69</ele>
        <time>2021-10-09T11:22:16.000Z</time>
      </trkpt>
      <trkpt lat="47.33913" lon="-1.53333">
        <ele>67</ele>
        <time>2021-10-09T11:22:18.000Z</time>
      </trkpt>
      <trkpt lat="47.33921" lon="-1.53316">
        <ele>66</ele>
        <time>2021-10-09T11:22:20.000Z</time>
      </trkpt>
      <trkpt lat="47.33927" lon="-1.53296">
        <ele>66</ele>
        <time>2021-10-09T11:22:22.000Z</time>
      </trkpt>
      <trkpt lat="47.33934" lon="-1.53278">
        <ele>65</ele>
        <time>2021-10-09T11:22:24.000Z</time>
      </trkpt>
      <trkpt lat="47.33941" lon="-1.53259">
        <ele>64</ele>
        <time>2021-10-09T11:22:26.000Z</time>
      </trkpt>
      <trkpt lat="47.33949" lon="-1.5324">
        <ele>64</ele>
        <time>2021-10-09T11:22:28.000Z</time>
      </trkpt>
      <trkpt lat="47.33956" lon="-1.53223">
        <ele>63</ele>
        <time>2021-10-09T11:22:30.000Z</time>
      </trkpt>
      <trkpt lat="47.33956" lon="-1.53208">
        <ele>63</ele>
        <time>2021-10-09T11:22:33.000Z</time>
      </trkpt>
      <trkpt lat="47.33951" lon="-1.53196">
        <ele>62</ele>
        <time>2021-10-09T11:22:44.000Z</time>
      </trkpt>
      <trkpt lat="47.33946" lon="-1.53183">
        <ele>62</ele>
        <time>2021-10-09T11:22:46.000Z</time>
      </trkpt>
      <trkpt lat="47.33939" lon="-1.53168">
        <ele>61</ele>
        <time>2021-10-09T11:22:48.000Z</time>
      </trkpt>
      <trkpt lat="47.3393" lon="-1.53153">
        <ele>61</ele>
        <time>2021-10-09T11:22:50.000Z</time>
      </trkpt>
      <trkpt lat="47.33922" lon="-1.53137">
        <ele>60</ele>
        <time>2021-10-09T11:22:52.000Z</time>
      </trkpt>
      <trkpt lat="47.33914" lon="-1.5312">
        <ele>60</ele>
        <time>2021-10-09T11:22:54.000Z</time>
      </trkpt>
      <trkpt lat="47.33906" lon="-1.53102">
        <ele>59</ele>
        <time>2021-10-09T11:22:56.000Z</time>
      </trkpt>
      <trkpt lat="47.33897" lon="-1.53086">
        <ele>59</ele>
        <time>2021-10-09T11:22:58.000Z</time>
      </trkpt>
      <trkpt lat="47.33894" lon="-1.53071">
        <ele>58</ele>
        <time>2021-10-09T11:23:00.000Z</time>
      </trkpt>
      <trkpt lat="47.33899" lon="-1.53054">
        <ele>58</ele>
        <time>2021-10-09T11:23:02.000Z</time>
      </trkpt>
      <trkpt lat="47.33905" lon="-1.53036">
        <ele>57</ele>
        <time>2021-10-09T11:23:04.000Z</time>
      </trkpt>
      <trkpt lat="47.33912" lon="-1.53018">
        <ele>56</ele>
        <time>2021-10-09T11:23:06.000Z</time>
      </trkpt>
      <trkpt lat="47.33919" lon="-1.52999">
        <ele>56</ele>
        <time>2021-10-09T11:23:08.000Z</time>
      </trkpt>
      <trkpt lat="47.33926" lon="-1.5298">
        <ele>55</ele>
        <time>2021-10-09T11:23:10.000Z</time>
      </trkpt>
      <trkpt lat="47.33932" lon="-1.52961">
        <ele>56</ele>
        <time>2021-10-09T11:23:12.000Z</time>
      </trkpt>
      <trkpt lat="47.33938" lon="-1.52944">
        <ele>56</ele>
        <time>2021-10-09T11:23:14.000Z</time>
      </trkpt>
      <trkpt lat="47.33944" lon="-1.52927">
        <ele>56</ele>
        <time>2021-10-09T11:23:16.000Z</time>
      </trkpt>
      <trkpt lat="47.3395" lon="-1.52911">
        <ele>57</ele>
        <time>2021-10-09T11:23:18.000Z</time>
      </trkpt>
      <trkpt lat="47.33957" lon="-1.52896">
        <ele>57</ele>
        <time>2021-10-09T11:23:20.000Z</time>
      </trkpt>
      <trkpt lat="47.33962" lon="-1.52882">
        <ele>57</ele>
        <time>2021-10-09T11:23:22.000Z</time>
      </trkpt>
      <trkpt lat="47.33967" lon="-1.5287">
        <ele>57</ele>
        <time>2021-10-09T11:23:24.000Z</time>
      </trkpt>
      <trkpt lat="47.33968" lon="-1.52856">
        <ele>58</ele>
        <time>2021-10-09T11:23:27.000Z</time>
      </trkpt>
      <trkpt lat="47.33958" lon="-1.52848">
        <ele>59</ele>
        <time>2021-10-09T11:23:29.000Z</time>
      </trkpt>
      <trkpt lat="47.33946" lon="-1.5284">
        <ele>59</ele>
        <time>2021-10-09T11:23:31.000Z</time>
      </trkpt>
      <trkpt lat="47.33935" lon="-1.5283">
        <ele>58</ele>
        <time>2021-10-09T11:23:33.000Z</time>
      </trkpt>
      <trkpt lat="47.33923" lon="-1.5282">
        <ele>59</ele>
        <time>2021-10-09T11:23:35.000Z</time>
      </trkpt>
      <trkpt lat="47.33912" lon="-1.52808">
        <ele>58</ele>
        <time>2021-10-09T11:23:37.000Z</time>
      </trkpt>
      <trkpt lat="47.3391" lon="-1.52789">
        <ele>58</ele>
        <time>2021-10-09T11:23:39.000Z</time>
      </trkpt>
      <trkpt lat="47.33913" lon="-1.52772">
        <ele>58</ele>
        <time>2021-10-09T11:23:41.000Z</time>
      </trkpt>
      <trkpt lat="47.33917" lon="-1.52756">
        <ele>57</ele>
        <time>2021-10-09T11:23:43.000Z</time>
      </trkpt>
      <trkpt lat="47.3392" lon="-1.5274">
        <ele>57</ele>
        <time>2021-10-09T11:23:45.000Z</time>
      </trkpt>
      <trkpt lat="47.33922" lon="-1.52723">
        <ele>57</ele>
        <time>2021-10-09T11:23:47.000Z</time>
      </trkpt>
      <trkpt lat="47.33925" lon="-1.52704">
        <ele>58</ele>
        <time>2021-10-09T11:23:49.000Z</time>
      </trkpt>
      <trkpt lat="47.33928" lon="-1.52686">
        <ele>58</ele>
        <time>2021-10-09T11:23:51.000Z</time>
      </trkpt>
      <trkpt lat="47.33932" lon="-1.52667">
        <ele>58</ele>
        <time>2021-10-09T11:23:53.000Z</time>
      </trkpt>
      <trkpt lat="47.33935" lon="-1.5265">
        <ele>58</ele>
        <time>2021-10-09T11:23:55.000Z</time>
      </trkpt>
      <trkpt lat="47.33938" lon="-1.52633">
        <ele>57</ele>
        <time>2021-10-09T11:23:57.000Z</time>
      </trkpt>
      <trkpt lat="47.33938" lon="-1.52616">
        <ele>58</ele>
        <time>2021-10-09T11:23:59.000Z</time>
      </trkpt>
      <trkpt lat="47.33933" lon="-1.526">
        <ele>58</ele>
        <time>2021-10-09T11:24:01.000Z</time>
      </trkpt>
      <trkpt lat="47.3392" lon="-1.52592">
        <ele>58</ele>
        <time>2021-10-09T11:24:03.000Z</time>
      </trkpt>
      <trkpt lat="47.33909" lon="-1.52587">
        <ele>58</ele>
        <time>2021-10-09T11:24:05.000Z</time>
      </trkpt>
      <trkpt lat="47.33896" lon="-1.52581">
        <ele>59</ele>
        <time>2021-10-09T11:24:07.000Z</time>
      </trkpt>
      <trkpt lat="47.33883" lon="-1.52577">
        <ele>60</ele>
        <time>2021-10-09T11:24:09.000Z</time>
      </trkpt>
      <trkpt lat="47.33871" lon="-1.52573">
        <ele>61</ele>
        <time>2021-10-09T11:24:11.000Z</time>
      </trkpt>
      <trkpt lat="47.33859" lon="-1.52569">
        <ele>61</ele>
        <time>2021-10-09T11:24:13.000Z</time>
      </trkpt>
      <trkpt lat="47.33846" lon="-1.52565">
        <ele>62</ele>
        <time>2021-10-09T11:24:15.000Z</time>
      </trkpt>
      <trkpt lat="47.33835" lon="-1.52561">
        <ele>63</ele>
        <time>2021-10-09T11:24:17.000Z</time>
      </trkpt>
      <trkpt lat="47.33822" lon="-1.52557">
        <ele>64</ele>
        <time>2021-10-09T11:24:19.000Z</time>
      </trkpt>
      <trkpt lat="47.33811" lon="-1.52552">
        <ele>64</ele>
        <time>2021-10-09T11:24:21.000Z</time>
      </trkpt>
      <trkpt lat="47.33796" lon="-1.52547">
        <ele>63</ele>
        <time>2021-10-09T11:24:23.000Z</time>
      </trkpt>
      <trkpt lat="47.33782" lon="-1.52542">
        <ele>63</ele>
        <time>2021-10-09T11:24:25.000Z</time>
      </trkpt>
      <trkpt lat="47.33769" lon="-1.52536">
        <ele>63</ele>
        <time>2021-10-09T11:24:27.000Z</time>
      </trkpt>
      <trkpt lat="47.33756" lon="-1.52531">
        <ele>62</ele>
        <time>2021-10-09T11:24:29.000Z</time>
      </trkpt>
      <trkpt lat="47.33742" lon="-1.52526">
        <ele>63</ele>
        <time>2021-10-09T11:24:31.000Z</time>
      </trkpt>
      <trkpt lat="47.33728" lon="-1.52518">
        <ele>63</ele>
        <time>2021-10-09T11:24:33.000Z</time>
      </trkpt>
      <trkpt lat="47.33715" lon="-1.52507">
        <ele>62</ele>
        <time>2021-10-09T11:24:35.000Z</time>
      </trkpt>
      <trkpt lat="47.33704" lon="-1.52496">
        <ele>62</ele>
        <time>2021-10-09T11:24:37.000Z</time>
      </trkpt>
      <trkpt lat="47.33696" lon="-1.52485">
        <ele>62</ele>
        <time>2021-10-09T11:24:39.000Z</time>
      </trkpt>
      <trkpt lat="47.33697" lon="-1.52465">
        <ele>62</ele>
        <time>2021-10-09T11:24:42.000Z</time>
      </trkpt>
      <trkpt lat="47.33702" lon="-1.52449">
        <ele>62</ele>
        <time>2021-10-09T11:24:44.000Z</time>
      </trkpt>
      <trkpt lat="47.33705" lon="-1.52433">
        <ele>63</ele>
        <time>2021-10-09T11:24:46.000Z</time>
      </trkpt>
      <trkpt lat="47.33708" lon="-1.52418">
        <ele>63</ele>
        <time>2021-10-09T11:24:48.000Z</time>
      </trkpt>
      <trkpt lat="47.33711" lon="-1.52403">
        <ele>64</ele>
        <time>2021-10-09T11:24:50.000Z</time>
      </trkpt>
      <trkpt lat="47.33713" lon="-1.52388">
        <ele>64</ele>
        <time>2021-10-09T11:24:52.000Z</time>
      </trkpt>
      <trkpt lat="47.33714" lon="-1.52372">
        <ele>65</ele>
        <time>2021-10-09T11:24:54.000Z</time>
      </trkpt>
      <trkpt lat="47.33716" lon="-1.52358">
        <ele>65</ele>
        <time>2021-10-09T11:24:56.000Z</time>
      </trkpt>
      <trkpt lat="47.3372" lon="-1.52344">
        <ele>65</ele>
        <time>2021-10-09T11:24:58.000Z</time>
      </trkpt>
      <trkpt lat="47.33723" lon="-1.52329">
        <ele>66</ele>
        <time>2021-10-09T11:25:00.000Z</time>
      </trkpt>
      <trkpt lat="47.33726" lon="-1.52313">
        <ele>66</ele>
        <time>2021-10-09T11:25:02.000Z</time>
      </trkpt>
      <trkpt lat="47.33729" lon="-1.52299">
        <ele>67</ele>
        <time>2021-10-09T11:25:04.000Z</time>
      </trkpt>
      <trkpt lat="47.33733" lon="-1.52275">
        <ele>67</ele>
        <time>2021-10-09T11:25:07.000Z</time>
      </trkpt>
      <trkpt lat="47.33739" lon="-1.52251">
        <ele>66</ele>
        <time>2021-10-09T11:25:10.000Z</time>
      </trkpt>
      <trkpt lat="47.33742" lon="-1.52234">
        <ele>66</ele>
        <time>2021-10-09T11:25:12.000Z</time>
      </trkpt>
      <trkpt lat="47.33745" lon="-1.52219">
        <ele>66</ele>
        <time>2021-10-09T11:25:14.000Z</time>
      </trkpt>
      <trkpt lat="47.33748" lon="-1.52203">
        <ele>66</ele>
        <time>2021-10-09T11:25:16.000Z</time>
      </trkpt>
      <trkpt lat="47.3375" lon="-1.52186">
        <ele>66</ele>
        <time>2021-10-09T11:25:18.000Z</time>
      </trkpt>
      <trkpt lat="47.33751" lon="-1.5217">
        <ele>66</ele>
        <time>2021-10-09T11:25:20.000Z</time>
      </trkpt>
      <trkpt lat="47.33752" lon="-1.52153">
        <ele>67</ele>
        <time>2021-10-09T11:25:22.000Z</time>
      </trkpt>
      <trkpt lat="47.33753" lon="-1.52136">
        <ele>67</ele>
        <time>2021-10-09T11:25:24.000Z</time>
      </trkpt>
      <trkpt lat="47.33754" lon="-1.52119">
        <ele>67</ele>
        <time>2021-10-09T11:25:26.000Z</time>
      </trkpt>
      <trkpt lat="47.33756" lon="-1.52104">
        <ele>67</ele>
        <time>2021-10-09T11:25:28.000Z</time>
      </trkpt>
      <trkpt lat="47.33758" lon="-1.52088">
        <ele>67</ele>
        <time>2021-10-09T11:25:30.000Z</time>
      </trkpt>
      <trkpt lat="47.33759" lon="-1.52073">
        <ele>67</ele>
        <time>2021-10-09T11:25:32.000Z</time>
      </trkpt>
      <trkpt lat="47.3376" lon="-1.52059">
        <ele>67</ele>
        <time>2021-10-09T11:25:34.000Z</time>
      </trkpt>
      <trkpt lat="47.33758" lon="-1.52045">
        <ele>68</ele>
        <time>2021-10-09T11:25:36.000Z</time>
      </trkpt>
      <trkpt lat="47.33757" lon="-1.5203">
        <ele>68</ele>
        <time>2021-10-09T11:25:38.000Z</time>
      </trkpt>
      <trkpt lat="47.33758" lon="-1.52015">
        <ele>69</ele>
        <time>2021-10-09T11:25:40.000Z</time>
      </trkpt>
      <trkpt lat="47.33756" lon="-1.52">
        <ele>69</ele>
        <time>2021-10-09T11:25:42.000Z</time>
      </trkpt>
      <trkpt lat="47.33753" lon="-1.51986">
        <ele>70</ele>
        <time>2021-10-09T11:25:44.000Z</time>
      </trkpt>
      <trkpt lat="47.33751" lon="-1.51971">
        <ele>71</ele>
        <time>2021-10-09T11:25:46.000Z</time>
      </trkpt>
      <trkpt lat="47.33749" lon="-1.51956">
        <ele>71</ele>
        <time>2021-10-09T11:25:48.000Z</time>
      </trkpt>
      <trkpt lat="47.33747" lon="-1.51941">
        <ele>72</ele>
        <time>2021-10-09T11:25:50.000Z</time>
      </trkpt>
      <trkpt lat="47.33746" lon="-1.51927">
        <ele>72</ele>
        <time>2021-10-09T11:25:52.000Z</time>
      </trkpt>
      <trkpt lat="47.33746" lon="-1.5191">
        <ele>72</ele>
        <time>2021-10-09T11:25:54.000Z</time>
      </trkpt>
      <trkpt lat="47.33745" lon="-1.51893">
        <ele>71</ele>
        <time>2021-10-09T11:25:56.000Z</time>
      </trkpt>
      <trkpt lat="47.33745" lon="-1.51877">
        <ele>72</ele>
        <time>2021-10-09T11:25:58.000Z</time>
      </trkpt>
      <trkpt lat="47.33744" lon="-1.51861">
        <ele>72</ele>
        <time>2021-10-09T11:26:00.000Z</time>
      </trkpt>
      <trkpt lat="47.33743" lon="-1.51846">
        <ele>72</ele>
        <time>2021-10-09T11:26:02.000Z</time>
      </trkpt>
      <trkpt lat="47.33742" lon="-1.5183">
        <ele>73</ele>
        <time>2021-10-09T11:26:04.000Z</time>
      </trkpt>
      <trkpt lat="47.33742" lon="-1.51814">
        <ele>73</ele>
        <time>2021-10-09T11:26:06.000Z</time>
      </trkpt>
      <trkpt lat="47.33741" lon="-1.51799">
        <ele>73</ele>
        <time>2021-10-09T11:26:08.000Z</time>
      </trkpt>
      <trkpt lat="47.33741" lon="-1.51783">
        <ele>74</ele>
        <time>2021-10-09T11:26:10.000Z</time>
      </trkpt>
      <trkpt lat="47.3374" lon="-1.51769">
        <ele>74</ele>
        <time>2021-10-09T11:26:12.000Z</time>
      </trkpt>
      <trkpt lat="47.33739" lon="-1.51752">
        <ele>74</ele>
        <time>2021-10-09T11:26:14.000Z</time>
      </trkpt>
      <trkpt lat="47.33738" lon="-1.51736">
        <ele>74</ele>
        <time>2021-10-09T11:26:16.000Z</time>
      </trkpt>
      <trkpt lat="47.33737" lon="-1.51719">
        <ele>74</ele>
        <time>2021-10-09T11:26:18.000Z</time>
      </trkpt>
      <trkpt lat="47.33736" lon="-1.51704">
        <ele>75</ele>
        <time>2021-10-09T11:26:20.000Z</time>
      </trkpt>
      <trkpt lat="47.33734" lon="-1.51688">
        <ele>75</ele>
        <time>2021-10-09T11:26:22.000Z</time>
      </trkpt>
      <trkpt lat="47.33731" lon="-1.51672">
        <ele>75</ele>
        <time>2021-10-09T11:26:24.000Z</time>
      </trkpt>
      <trkpt lat="47.33728" lon="-1.51654">
        <ele>75</ele>
        <time>2021-10-09T11:26:26.000Z</time>
      </trkpt>
      <trkpt lat="47.33724" lon="-1.51636">
        <ele>74</ele>
        <time>2021-10-09T11:26:28.000Z</time>
      </trkpt>
      <trkpt lat="47.33719" lon="-1.51619">
        <ele>74</ele>
        <time>2021-10-09T11:26:30.000Z</time>
      </trkpt>
      <trkpt lat="47.33714" lon="-1.51604">
        <ele>74</ele>
        <time>2021-10-09T11:26:32.000Z</time>
      </trkpt>
      <trkpt lat="47.3371" lon="-1.51586">
        <ele>74</ele>
        <time>2021-10-09T11:26:34.000Z</time>
      </trkpt>
      <trkpt lat="47.33706" lon="-1.51566">
        <ele>74</ele>
        <time>2021-10-09T11:26:36.000Z</time>
      </trkpt>
      <trkpt lat="47.33701" lon="-1.51548">
        <ele>73</ele>
        <time>2021-10-09T11:26:38.000Z</time>
      </trkpt>
      <trkpt lat="47.33698" lon="-1.51529">
        <ele>73</ele>
        <time>2021-10-09T11:26:40.000Z</time>
      </trkpt>
      <trkpt lat="47.33694" lon="-1.51508">
        <ele>72</ele>
        <time>2021-10-09T11:26:42.000Z</time>
      </trkpt>
      <trkpt lat="47.33693" lon="-1.51486">
        <ele>71</ele>
        <time>2021-10-09T11:26:44.000Z</time>
      </trkpt>
      <trkpt lat="47.33692" lon="-1.51464">
        <ele>71</ele>
        <time>2021-10-09T11:26:46.000Z</time>
      </trkpt>
      <trkpt lat="47.3369" lon="-1.51442">
        <ele>71</ele>
        <time>2021-10-09T11:26:48.000Z</time>
      </trkpt>
      <trkpt lat="47.33687" lon="-1.51421">
        <ele>71</ele>
        <time>2021-10-09T11:26:50.000Z</time>
      </trkpt>
      <trkpt lat="47.33682" lon="-1.51399">
        <ele>70</ele>
        <time>2021-10-09T11:26:52.000Z</time>
      </trkpt>
      <trkpt lat="47.33677" lon="-1.51378">
        <ele>70</ele>
        <time>2021-10-09T11:26:54.000Z</time>
      </trkpt>
      <trkpt lat="47.33672" lon="-1.51358">
        <ele>69</ele>
        <time>2021-10-09T11:26:56.000Z</time>
      </trkpt>
      <trkpt lat="47.33668" lon="-1.51338">
        <ele>69</ele>
        <time>2021-10-09T11:26:58.000Z</time>
      </trkpt>
      <trkpt lat="47.33664" lon="-1.51317">
        <ele>68</ele>
        <time>2021-10-09T11:27:00.000Z</time>
      </trkpt>
      <trkpt lat="47.3366" lon="-1.51297">
        <ele>68</ele>
        <time>2021-10-09T11:27:02.000Z</time>
      </trkpt>
      <trkpt lat="47.33657" lon="-1.51277">
        <ele>68</ele>
        <time>2021-10-09T11:27:04.000Z</time>
      </trkpt>
      <trkpt lat="47.33655" lon="-1.51257">
        <ele>67</ele>
        <time>2021-10-09T11:27:06.000Z</time>
      </trkpt>
      <trkpt lat="47.33653" lon="-1.51237">
        <ele>67</ele>
        <time>2021-10-09T11:27:08.000Z</time>
      </trkpt>
      <trkpt lat="47.33651" lon="-1.51216">
        <ele>66</ele>
        <time>2021-10-09T11:27:10.000Z</time>
      </trkpt>
      <trkpt lat="47.3365" lon="-1.51196">
        <ele>66</ele>
        <time>2021-10-09T11:27:12.000Z</time>
      </trkpt>
      <trkpt lat="47.33649" lon="-1.51175">
        <ele>67</ele>
        <time>2021-10-09T11:27:14.000Z</time>
      </trkpt>
      <trkpt lat="47.33649" lon="-1.51153">
        <ele>67</ele>
        <time>2021-10-09T11:27:16.000Z</time>
      </trkpt>
      <trkpt lat="47.33649" lon="-1.51132">
        <ele>67</ele>
        <time>2021-10-09T11:27:18.000Z</time>
      </trkpt>
      <trkpt lat="47.33649" lon="-1.51113">
        <ele>67</ele>
        <time>2021-10-09T11:27:20.000Z</time>
      </trkpt>
      <trkpt lat="47.3365" lon="-1.51093">
        <ele>66</ele>
        <time>2021-10-09T11:27:22.000Z</time>
      </trkpt>
      <trkpt lat="47.33654" lon="-1.51074">
        <ele>65</ele>
        <time>2021-10-09T11:27:24.000Z</time>
      </trkpt>
      <trkpt lat="47.33661" lon="-1.51055">
        <ele>64</ele>
        <time>2021-10-09T11:27:26.000Z</time>
      </trkpt>
      <trkpt lat="47.33666" lon="-1.51037">
        <ele>64</ele>
        <time>2021-10-09T11:27:28.000Z</time>
      </trkpt>
      <trkpt lat="47.3367" lon="-1.51017">
        <ele>64</ele>
        <time>2021-10-09T11:27:30.000Z</time>
      </trkpt>
      <trkpt lat="47.33674" lon="-1.50998">
        <ele>64</ele>
        <time>2021-10-09T11:27:32.000Z</time>
      </trkpt>
      <trkpt lat="47.33677" lon="-1.5098">
        <ele>64</ele>
        <time>2021-10-09T11:27:34.000Z</time>
      </trkpt>
      <trkpt lat="47.3368" lon="-1.50963">
        <ele>65</ele>
        <time>2021-10-09T11:27:36.000Z</time>
      </trkpt>
      <trkpt lat="47.33684" lon="-1.50944">
        <ele>65</ele>
        <time>2021-10-09T11:27:38.000Z</time>
      </trkpt>
      <trkpt lat="47.33687" lon="-1.50924">
        <ele>65</ele>
        <time>2021-10-09T11:27:40.000Z</time>
      </trkpt>
      <trkpt lat="47.3369" lon="-1.50904">
        <ele>65</ele>
        <time>2021-10-09T11:27:42.000Z</time>
      </trkpt>
      <trkpt lat="47.33694" lon="-1.50883">
        <ele>64</ele>
        <time>2021-10-09T11:27:44.000Z</time>
      </trkpt>
      <trkpt lat="47.33699" lon="-1.50863">
        <ele>64</ele>
        <time>2021-10-09T11:27:46.000Z</time>
      </trkpt>
      <trkpt lat="47.33703" lon="-1.50841">
        <ele>63</ele>
        <time>2021-10-09T11:27:48.000Z</time>
      </trkpt>
      <trkpt lat="47.33707" lon="-1.50821">
        <ele>62</ele>
        <time>2021-10-09T11:27:50.000Z</time>
      </trkpt>
      <trkpt lat="47.33711" lon="-1.508">
        <ele>62</ele>
        <time>2021-10-09T11:27:52.000Z</time>
      </trkpt>
      <trkpt lat="47.33715" lon="-1.50778">
        <ele>61</ele>
        <time>2021-10-09T11:27:54.000Z</time>
      </trkpt>
      <trkpt lat="47.33719" lon="-1.50757">
        <ele>60</ele>
        <time>2021-10-09T11:27:56.000Z</time>
      </trkpt>
      <trkpt lat="47.33723" lon="-1.50737">
        <ele>60</ele>
        <time>2021-10-09T11:27:58.000Z</time>
      </trkpt>
      <trkpt lat="47.33726" lon="-1.50717">
        <ele>59</ele>
        <time>2021-10-09T11:28:00.000Z</time>
      </trkpt>
      <trkpt lat="47.3373" lon="-1.50697">
        <ele>60</ele>
        <time>2021-10-09T11:28:02.000Z</time>
      </trkpt>
      <trkpt lat="47.33734" lon="-1.50677">
        <ele>60</ele>
        <time>2021-10-09T11:28:04.000Z</time>
      </trkpt>
      <trkpt lat="47.33738" lon="-1.50656">
        <ele>60</ele>
        <time>2021-10-09T11:28:06.000Z</time>
      </trkpt>
      <trkpt lat="47.33742" lon="-1.50636">
        <ele>60</ele>
        <time>2021-10-09T11:28:08.000Z</time>
      </trkpt>
      <trkpt lat="47.33746" lon="-1.50616">
        <ele>60</ele>
        <time>2021-10-09T11:28:10.000Z</time>
      </trkpt>
      <trkpt lat="47.3375" lon="-1.50596">
        <ele>60</ele>
        <time>2021-10-09T11:28:12.000Z</time>
      </trkpt>
      <trkpt lat="47.33754" lon="-1.50576">
        <ele>60</ele>
        <time>2021-10-09T11:28:14.000Z</time>
      </trkpt>
      <trkpt lat="47.33758" lon="-1.50556">
        <ele>60</ele>
        <time>2021-10-09T11:28:16.000Z</time>
      </trkpt>
      <trkpt lat="47.33761" lon="-1.50536">
        <ele>60</ele>
        <time>2021-10-09T11:28:18.000Z</time>
      </trkpt>
      <trkpt lat="47.33765" lon="-1.50516">
        <ele>60</ele>
        <time>2021-10-09T11:28:20.000Z</time>
      </trkpt>
      <trkpt lat="47.33769" lon="-1.50495">
        <ele>59</ele>
        <time>2021-10-09T11:28:22.000Z</time>
      </trkpt>
      <trkpt lat="47.33774" lon="-1.50475">
        <ele>59</ele>
        <time>2021-10-09T11:28:24.000Z</time>
      </trkpt>
      <trkpt lat="47.33778" lon="-1.50455">
        <ele>58</ele>
        <time>2021-10-09T11:28:26.000Z</time>
      </trkpt>
      <trkpt lat="47.33781" lon="-1.50435">
        <ele>59</ele>
        <time>2021-10-09T11:28:28.000Z</time>
      </trkpt>
      <trkpt lat="47.33785" lon="-1.50416">
        <ele>59</ele>
        <time>2021-10-09T11:28:30.000Z</time>
      </trkpt>
      <trkpt lat="47.33789" lon="-1.50395">
        <ele>59</ele>
        <time>2021-10-09T11:28:32.000Z</time>
      </trkpt>
      <trkpt lat="47.3379" lon="-1.50376">
        <ele>58</ele>
        <time>2021-10-09T11:28:34.000Z</time>
      </trkpt>
      <trkpt lat="47.33788" lon="-1.50356">
        <ele>58</ele>
        <time>2021-10-09T11:28:36.000Z</time>
      </trkpt>
      <trkpt lat="47.33786" lon="-1.50336">
        <ele>58</ele>
        <time>2021-10-09T11:28:38.000Z</time>
      </trkpt>
      <trkpt lat="47.33783" lon="-1.50315">
        <ele>58</ele>
        <time>2021-10-09T11:28:40.000Z</time>
      </trkpt>
      <trkpt lat="47.3378" lon="-1.50297">
        <ele>59</ele>
        <time>2021-10-09T11:28:42.000Z</time>
      </trkpt>
      <trkpt lat="47.33777" lon="-1.50278">
        <ele>59</ele>
        <time>2021-10-09T11:28:44.000Z</time>
      </trkpt>
      <trkpt lat="47.33775" lon="-1.5026">
        <ele>60</ele>
        <time>2021-10-09T11:28:46.000Z</time>
      </trkpt>
      <trkpt lat="47.33772" lon="-1.50244">
        <ele>60</ele>
        <time>2021-10-09T11:28:48.000Z</time>
      </trkpt>
      <trkpt lat="47.33769" lon="-1.50227">
        <ele>60</ele>
        <time>2021-10-09T11:28:50.000Z</time>
      </trkpt>
      <trkpt lat="47.33766" lon="-1.5021">
        <ele>60</ele>
        <time>2021-10-09T11:28:52.000Z</time>
      </trkpt>
      <trkpt lat="47.33764" lon="-1.50193">
        <ele>60</ele>
        <time>2021-10-09T11:28:54.000Z</time>
      </trkpt>
      <trkpt lat="47.3376" lon="-1.50176">
        <ele>61</ele>
        <time>2021-10-09T11:28:56.000Z</time>
      </trkpt>
      <trkpt lat="47.33758" lon="-1.50159">
        <ele>61</ele>
        <time>2021-10-09T11:28:58.000Z</time>
      </trkpt>
      <trkpt lat="47.33756" lon="-1.50144">
        <ele>61</ele>
        <time>2021-10-09T11:29:00.000Z</time>
      </trkpt>
      <trkpt lat="47.33755" lon="-1.50128">
        <ele>60</ele>
        <time>2021-10-09T11:29:02.000Z</time>
      </trkpt>
      <trkpt lat="47.33755" lon="-1.50112">
        <ele>60</ele>
        <time>2021-10-09T11:29:04.000Z</time>
      </trkpt>
      <trkpt lat="47.33754" lon="-1.50094">
        <ele>60</ele>
        <time>2021-10-09T11:29:06.000Z</time>
      </trkpt>
      <trkpt lat="47.33753" lon="-1.50076">
        <ele>61</ele>
        <time>2021-10-09T11:29:08.000Z</time>
      </trkpt>
      <trkpt lat="47.33751" lon="-1.50059">
        <ele>62</ele>
        <time>2021-10-09T11:29:10.000Z</time>
      </trkpt>
      <trkpt lat="47.33749" lon="-1.50041">
        <ele>62</ele>
        <time>2021-10-09T11:29:12.000Z</time>
      </trkpt>
      <trkpt lat="47.33746" lon="-1.50024">
        <ele>63</ele>
        <time>2021-10-09T11:29:14.000Z</time>
      </trkpt>
      <trkpt lat="47.33742" lon="-1.50007">
        <ele>63</ele>
        <time>2021-10-09T11:29:16.000Z</time>
      </trkpt>
      <trkpt lat="47.33738" lon="-1.49991">
        <ele>63</ele>
        <time>2021-10-09T11:29:18.000Z</time>
      </trkpt>
      <trkpt lat="47.33734" lon="-1.49974">
        <ele>63</ele>
        <time>2021-10-09T11:29:20.000Z</time>
      </trkpt>
      <trkpt lat="47.33729" lon="-1.49959">
        <ele>63</ele>
        <time>2021-10-09T11:29:22.000Z</time>
      </trkpt>
      <trkpt lat="47.33723" lon="-1.49942">
        <ele>63</ele>
        <time>2021-10-09T11:29:24.000Z</time>
      </trkpt>
      <trkpt lat="47.33714" lon="-1.49926">
        <ele>63</ele>
        <time>2021-10-09T11:29:26.000Z</time>
      </trkpt>
      <trkpt lat="47.33703" lon="-1.4991">
        <ele>62</ele>
        <time>2021-10-09T11:29:28.000Z</time>
      </trkpt>
      <trkpt lat="47.3369" lon="-1.49896">
        <ele>61</ele>
        <time>2021-10-09T11:29:30.000Z</time>
      </trkpt>
      <trkpt lat="47.33677" lon="-1.49879">
        <ele>59</ele>
        <time>2021-10-09T11:29:32.000Z</time>
      </trkpt>
      <trkpt lat="47.33667" lon="-1.49858">
        <ele>59</ele>
        <time>2021-10-09T11:29:34.000Z</time>
      </trkpt>
      <trkpt lat="47.33659" lon="-1.49836">
        <ele>58</ele>
        <time>2021-10-09T11:29:36.000Z</time>
      </trkpt>
      <trkpt lat="47.33655" lon="-1.49812">
        <ele>57</ele>
        <time>2021-10-09T11:29:38.000Z</time>
      </trkpt>
      <trkpt lat="47.33654" lon="-1.49787">
        <ele>57</ele>
        <time>2021-10-09T11:29:40.000Z</time>
      </trkpt>
      <trkpt lat="47.33652" lon="-1.49764">
        <ele>56</ele>
        <time>2021-10-09T11:29:42.000Z</time>
      </trkpt>
      <trkpt lat="47.3365" lon="-1.49742">
        <ele>57</ele>
        <time>2021-10-09T11:29:44.000Z</time>
      </trkpt>
      <trkpt lat="47.33647" lon="-1.49722">
        <ele>57</ele>
        <time>2021-10-09T11:29:46.000Z</time>
      </trkpt>
      <trkpt lat="47.33644" lon="-1.49701">
        <ele>57</ele>
        <time>2021-10-09T11:29:48.000Z</time>
      </trkpt>
      <trkpt lat="47.33641" lon="-1.49682">
        <ele>57</ele>
        <time>2021-10-09T11:29:50.000Z</time>
      </trkpt>
      <trkpt lat="47.33639" lon="-1.49661">
        <ele>57</ele>
        <time>2021-10-09T11:29:52.000Z</time>
      </trkpt>
      <trkpt lat="47.33639" lon="-1.49641">
        <ele>57</ele>
        <time>2021-10-09T11:29:54.000Z</time>
      </trkpt>
      <trkpt lat="47.33638" lon="-1.49622">
        <ele>57</ele>
        <time>2021-10-09T11:29:56.000Z</time>
      </trkpt>
      <trkpt lat="47.33639" lon="-1.49603">
        <ele>58</ele>
        <time>2021-10-09T11:29:58.000Z</time>
      </trkpt>
      <trkpt lat="47.33639" lon="-1.49584">
        <ele>59</ele>
        <time>2021-10-09T11:30:00.000Z</time>
      </trkpt>
      <trkpt lat="47.33639" lon="-1.49565">
        <ele>60</ele>
        <time>2021-10-09T11:30:02.000Z</time>
      </trkpt>
      <trkpt lat="47.33637" lon="-1.49543">
        <ele>61</ele>
        <time>2021-10-09T11:30:04.000Z</time>
      </trkpt>
      <trkpt lat="47.33634" lon="-1.49523">
        <ele>61</ele>
        <time>2021-10-09T11:30:06.000Z</time>
      </trkpt>
      <trkpt lat="47.33629" lon="-1.49504">
        <ele>60</ele>
        <time>2021-10-09T11:30:08.000Z</time>
      </trkpt>
      <trkpt lat="47.33624" lon="-1.49484">
        <ele>61</ele>
        <time>2021-10-09T11:30:10.000Z</time>
      </trkpt>
      <trkpt lat="47.33618" lon="-1.49467">
        <ele>61</ele>
        <time>2021-10-09T11:30:12.000Z</time>
      </trkpt>
      <trkpt lat="47.3361" lon="-1.4945">
        <ele>60</ele>
        <time>2021-10-09T11:30:14.000Z</time>
      </trkpt>
      <trkpt lat="47.33603" lon="-1.49434">
        <ele>60</ele>
        <time>2021-10-09T11:30:16.000Z</time>
      </trkpt>
      <trkpt lat="47.33596" lon="-1.49418">
        <ele>60</ele>
        <time>2021-10-09T11:30:18.000Z</time>
      </trkpt>
      <trkpt lat="47.33589" lon="-1.49403">
        <ele>60</ele>
        <time>2021-10-09T11:30:20.000Z</time>
      </trkpt>
      <trkpt lat="47.33582" lon="-1.49388">
        <ele>60</ele>
        <time>2021-10-09T11:30:22.000Z</time>
      </trkpt>
      <trkpt lat="47.33575" lon="-1.49373">
        <ele>60</ele>
        <time>2021-10-09T11:30:24.000Z</time>
      </trkpt>
      <trkpt lat="47.33569" lon="-1.49359">
        <ele>60</ele>
        <time>2021-10-09T11:30:26.000Z</time>
      </trkpt>
      <trkpt lat="47.33563" lon="-1.49346">
        <ele>60</ele>
        <time>2021-10-09T11:30:28.000Z</time>
      </trkpt>
      <trkpt lat="47.33566" lon="-1.49329">
        <ele>60</ele>
        <time>2021-10-09T11:30:30.000Z</time>
      </trkpt>
      <trkpt lat="47.33575" lon="-1.49316">
        <ele>60</ele>
        <time>2021-10-09T11:30:32.000Z</time>
      </trkpt>
      <trkpt lat="47.33584" lon="-1.49307">
        <ele>60</ele>
        <time>2021-10-09T11:30:34.000Z</time>
      </trkpt>
      <trkpt lat="47.33594" lon="-1.49295">
        <ele>61</ele>
        <time>2021-10-09T11:30:36.000Z</time>
      </trkpt>
      <trkpt lat="47.33603" lon="-1.49282">
        <ele>61</ele>
        <time>2021-10-09T11:30:38.000Z</time>
      </trkpt>
      <trkpt lat="47.33613" lon="-1.49269">
        <ele>61</ele>
        <time>2021-10-09T11:30:40.000Z</time>
      </trkpt>
      <trkpt lat="47.33622" lon="-1.49257">
        <ele>61</ele>
        <time>2021-10-09T11:30:42.000Z</time>
      </trkpt>
      <trkpt lat="47.33631" lon="-1.49246">
        <ele>62</ele>
        <time>2021-10-09T11:30:44.000Z</time>
      </trkpt>
      <trkpt lat="47.3364" lon="-1.49234">
        <ele>62</ele>
        <time>2021-10-09T11:30:46.000Z</time>
      </trkpt>
      <trkpt lat="47.3365" lon="-1.49223">
        <ele>60</ele>
        <time>2021-10-09T11:30:48.000Z</time>
      </trkpt>
      <trkpt lat="47.33659" lon="-1.49212">
        <ele>60</ele>
        <time>2021-10-09T11:30:50.000Z</time>
      </trkpt>
      <trkpt lat="47.33668" lon="-1.492">
        <ele>60</ele>
        <time>2021-10-09T11:30:52.000Z</time>
      </trkpt>
      <trkpt lat="47.33678" lon="-1.49187">
        <ele>59</ele>
        <time>2021-10-09T11:30:54.000Z</time>
      </trkpt>
      <trkpt lat="47.33685" lon="-1.49173">
        <ele>59</ele>
        <time>2021-10-09T11:30:56.000Z</time>
      </trkpt>
      <trkpt lat="47.33692" lon="-1.4916">
        <ele>60</ele>
        <time>2021-10-09T11:30:58.000Z</time>
      </trkpt>
      <trkpt lat="47.33696" lon="-1.49144">
        <ele>60</ele>
        <time>2021-10-09T11:31:00.000Z</time>
      </trkpt>
      <trkpt lat="47.33697" lon="-1.49126">
        <ele>61</ele>
        <time>2021-10-09T11:31:02.000Z</time>
      </trkpt>
      <trkpt lat="47.33699" lon="-1.49108">
        <ele>60</ele>
        <time>2021-10-09T11:31:04.000Z</time>
      </trkpt>
      <trkpt lat="47.33703" lon="-1.49091">
        <ele>59</ele>
        <time>2021-10-09T11:31:06.000Z</time>
      </trkpt>
      <trkpt lat="47.33709" lon="-1.49077">
        <ele>60</ele>
        <time>2021-10-09T11:31:08.000Z</time>
      </trkpt>
      <trkpt lat="47.33716" lon="-1.49066">
        <ele>61</ele>
        <time>2021-10-09T11:31:10.000Z</time>
      </trkpt>
      <trkpt lat="47.33724" lon="-1.49055">
        <ele>61</ele>
        <time>2021-10-09T11:31:12.000Z</time>
      </trkpt>
      <trkpt lat="47.33732" lon="-1.49045">
        <ele>61</ele>
        <time>2021-10-09T11:31:14.000Z</time>
      </trkpt>
      <trkpt lat="47.33741" lon="-1.49035">
        <ele>61</ele>
        <time>2021-10-09T11:31:16.000Z</time>
      </trkpt>
      <trkpt lat="47.33749" lon="-1.49025">
        <ele>62</ele>
        <time>2021-10-09T11:31:18.000Z</time>
      </trkpt>
      <trkpt lat="47.33758" lon="-1.49016">
        <ele>62</ele>
        <time>2021-10-09T11:31:20.000Z</time>
      </trkpt>
      <trkpt lat="47.33767" lon="-1.49006">
        <ele>62</ele>
        <time>2021-10-09T11:31:22.000Z</time>
      </trkpt>
      <trkpt lat="47.33775" lon="-1.48996">
        <ele>63</ele>
        <time>2021-10-09T11:31:24.000Z</time>
      </trkpt>
      <trkpt lat="47.33784" lon="-1.48986">
        <ele>63</ele>
        <time>2021-10-09T11:31:26.000Z</time>
      </trkpt>
      <trkpt lat="47.33792" lon="-1.48976">
        <ele>63</ele>
        <time>2021-10-09T11:31:28.000Z</time>
      </trkpt>
      <trkpt lat="47.33801" lon="-1.48964">
        <ele>63</ele>
        <time>2021-10-09T11:31:30.000Z</time>
      </trkpt>
      <trkpt lat="47.3381" lon="-1.48951">
        <ele>63</ele>
        <time>2021-10-09T11:31:32.000Z</time>
      </trkpt>
      <trkpt lat="47.33819" lon="-1.48937">
        <ele>62</ele>
        <time>2021-10-09T11:31:34.000Z</time>
      </trkpt>
      <trkpt lat="47.33828" lon="-1.48923">
        <ele>62</ele>
        <time>2021-10-09T11:31:36.000Z</time>
      </trkpt>
      <trkpt lat="47.33837" lon="-1.48909">
        <ele>62</ele>
        <time>2021-10-09T11:31:38.000Z</time>
      </trkpt>
      <trkpt lat="47.33846" lon="-1.48894">
        <ele>62</ele>
        <time>2021-10-09T11:31:40.000Z</time>
      </trkpt>
      <trkpt lat="47.33855" lon="-1.48879">
        <ele>61</ele>
        <time>2021-10-09T11:31:42.000Z</time>
      </trkpt>
      <trkpt lat="47.33864" lon="-1.48865">
        <ele>61</ele>
        <time>2021-10-09T11:31:44.000Z</time>
      </trkpt>
      <trkpt lat="47.33873" lon="-1.48852">
        <ele>61</ele>
        <time>2021-10-09T11:31:46.000Z</time>
      </trkpt>
      <trkpt lat="47.33882" lon="-1.48838">
        <ele>61</ele>
        <time>2021-10-09T11:31:48.000Z</time>
      </trkpt>
      <trkpt lat="47.3389" lon="-1.48825">
        <ele>61</ele>
        <time>2021-10-09T11:31:50.000Z</time>
      </trkpt>
      <trkpt lat="47.33899" lon="-1.4881">
        <ele>61</ele>
        <time>2021-10-09T11:31:52.000Z</time>
      </trkpt>
      <trkpt lat="47.33909" lon="-1.48796">
        <ele>60</ele>
        <time>2021-10-09T11:31:54.000Z</time>
      </trkpt>
      <trkpt lat="47.33919" lon="-1.4878">
        <ele>60</ele>
        <time>2021-10-09T11:31:56.000Z</time>
      </trkpt>
      <trkpt lat="47.33929" lon="-1.48765">
        <ele>59</ele>
        <time>2021-10-09T11:31:58.000Z</time>
      </trkpt>
      <trkpt lat="47.33939" lon="-1.48749">
        <ele>59</ele>
        <time>2021-10-09T11:32:00.000Z</time>
      </trkpt>
      <trkpt lat="47.33949" lon="-1.48734">
        <ele>58</ele>
        <time>2021-10-09T11:32:02.000Z</time>
      </trkpt>
      <trkpt lat="47.33958" lon="-1.48719">
        <ele>58</ele>
        <time>2021-10-09T11:32:04.000Z</time>
      </trkpt>
      <trkpt lat="47.33967" lon="-1.48705">
        <ele>59</ele>
        <time>2021-10-09T11:32:06.000Z</time>
      </trkpt>
      <trkpt lat="47.33977" lon="-1.48691">
        <ele>59</ele>
        <time>2021-10-09T11:32:08.000Z</time>
      </trkpt>
      <trkpt lat="47.33987" lon="-1.48674">
        <ele>59</ele>
        <time>2021-10-09T11:32:10.000Z</time>
      </trkpt>
      <trkpt lat="47.33997" lon="-1.48657">
        <ele>58</ele>
        <time>2021-10-09T11:32:12.000Z</time>
      </trkpt>
      <trkpt lat="47.34007" lon="-1.4864">
        <ele>58</ele>
        <time>2021-10-09T11:32:14.000Z</time>
      </trkpt>
      <trkpt lat="47.34017" lon="-1.48623">
        <ele>57</ele>
        <time>2021-10-09T11:32:16.000Z</time>
      </trkpt>
      <trkpt lat="47.34027" lon="-1.48605">
        <ele>57</ele>
        <time>2021-10-09T11:32:18.000Z</time>
      </trkpt>
      <trkpt lat="47.34036" lon="-1.48588">
        <ele>57</ele>
        <time>2021-10-09T11:32:20.000Z</time>
      </trkpt>
      <trkpt lat="47.34044" lon="-1.48571">
        <ele>57</ele>
        <time>2021-10-09T11:32:22.000Z</time>
      </trkpt>
      <trkpt lat="47.34052" lon="-1.48554">
        <ele>57</ele>
        <time>2021-10-09T11:32:24.000Z</time>
      </trkpt>
      <trkpt lat="47.3406" lon="-1.48538">
        <ele>57</ele>
        <time>2021-10-09T11:32:26.000Z</time>
      </trkpt>
      <trkpt lat="47.34067" lon="-1.48523">
        <ele>58</ele>
        <time>2021-10-09T11:32:28.000Z</time>
      </trkpt>
      <trkpt lat="47.34075" lon="-1.48508">
        <ele>58</ele>
        <time>2021-10-09T11:32:30.000Z</time>
      </trkpt>
      <trkpt lat="47.34082" lon="-1.48492">
        <ele>59</ele>
        <time>2021-10-09T11:32:32.000Z</time>
      </trkpt>
      <trkpt lat="47.3409" lon="-1.48476">
        <ele>59</ele>
        <time>2021-10-09T11:32:34.000Z</time>
      </trkpt>
      <trkpt lat="47.34098" lon="-1.48459">
        <ele>59</ele>
        <time>2021-10-09T11:32:36.000Z</time>
      </trkpt>
      <trkpt lat="47.34105" lon="-1.48443">
        <ele>59</ele>
        <time>2021-10-09T11:32:38.000Z</time>
      </trkpt>
      <trkpt lat="47.34113" lon="-1.48427">
        <ele>59</ele>
        <time>2021-10-09T11:32:40.000Z</time>
      </trkpt>
      <trkpt lat="47.34121" lon="-1.4841">
        <ele>59</ele>
        <time>2021-10-09T11:32:42.000Z</time>
      </trkpt>
      <trkpt lat="47.34129" lon="-1.48395">
        <ele>59</ele>
        <time>2021-10-09T11:32:44.000Z</time>
      </trkpt>
      <trkpt lat="47.34136" lon="-1.48379">
        <ele>59</ele>
        <time>2021-10-09T11:32:46.000Z</time>
      </trkpt>
      <trkpt lat="47.34144" lon="-1.48363">
        <ele>59</ele>
        <time>2021-10-09T11:32:48.000Z</time>
      </trkpt>
      <trkpt lat="47.34152" lon="-1.48348">
        <ele>59</ele>
        <time>2021-10-09T11:32:50.000Z</time>
      </trkpt>
      <trkpt lat="47.3416" lon="-1.48332">
        <ele>59</ele>
        <time>2021-10-09T11:32:52.000Z</time>
      </trkpt>
      <trkpt lat="47.34168" lon="-1.48315">
        <ele>59</ele>
        <time>2021-10-09T11:32:54.000Z</time>
      </trkpt>
      <trkpt lat="47.34176" lon="-1.48298">
        <ele>58</ele>
        <time>2021-10-09T11:32:56.000Z</time>
      </trkpt>
      <trkpt lat="47.34185" lon="-1.48282">
        <ele>58</ele>
        <time>2021-10-09T11:32:58.000Z</time>
      </trkpt>
      <trkpt lat="47.34193" lon="-1.48265">
        <ele>58</ele>
        <time>2021-10-09T11:33:00.000Z</time>
      </trkpt>
      <trkpt lat="47.34201" lon="-1.4825">
        <ele>58</ele>
        <time>2021-10-09T11:33:02.000Z</time>
      </trkpt>
      <trkpt lat="47.34209" lon="-1.48236">
        <ele>58</ele>
        <time>2021-10-09T11:33:04.000Z</time>
      </trkpt>
      <trkpt lat="47.34217" lon="-1.48222">
        <ele>58</ele>
        <time>2021-10-09T11:33:06.000Z</time>
      </trkpt>
      <trkpt lat="47.34226" lon="-1.48208">
        <ele>58</ele>
        <time>2021-10-09T11:33:08.000Z</time>
      </trkpt>
      <trkpt lat="47.34234" lon="-1.48194">
        <ele>58</ele>
        <time>2021-10-09T11:33:10.000Z</time>
      </trkpt>
      <trkpt lat="47.34242" lon="-1.48181">
        <ele>59</ele>
        <time>2021-10-09T11:33:12.000Z</time>
      </trkpt>
      <trkpt lat="47.3425" lon="-1.48168">
        <ele>59</ele>
        <time>2021-10-09T11:33:14.000Z</time>
      </trkpt>
      <trkpt lat="47.34259" lon="-1.48154">
        <ele>59</ele>
        <time>2021-10-09T11:33:16.000Z</time>
      </trkpt>
      <trkpt lat="47.34267" lon="-1.48141">
        <ele>59</ele>
        <time>2021-10-09T11:33:18.000Z</time>
      </trkpt>
      <trkpt lat="47.34276" lon="-1.48127">
        <ele>59</ele>
        <time>2021-10-09T11:33:20.000Z</time>
      </trkpt>
      <trkpt lat="47.34284" lon="-1.48114">
        <ele>59</ele>
        <time>2021-10-09T11:33:22.000Z</time>
      </trkpt>
      <trkpt lat="47.34293" lon="-1.481">
        <ele>59</ele>
        <time>2021-10-09T11:33:24.000Z</time>
      </trkpt>
      <trkpt lat="47.34301" lon="-1.48086">
        <ele>58</ele>
        <time>2021-10-09T11:33:26.000Z</time>
      </trkpt>
      <trkpt lat="47.3431" lon="-1.48072">
        <ele>58</ele>
        <time>2021-10-09T11:33:28.000Z</time>
      </trkpt>
      <trkpt lat="47.34319" lon="-1.48058">
        <ele>58</ele>
        <time>2021-10-09T11:33:30.000Z</time>
      </trkpt>
      <trkpt lat="47.34327" lon="-1.48044">
        <ele>58</ele>
        <time>2021-10-09T11:33:32.000Z</time>
      </trkpt>
      <trkpt lat="47.34335" lon="-1.4803">
        <ele>58</ele>
        <time>2021-10-09T11:33:34.000Z</time>
      </trkpt>
      <trkpt lat="47.34343" lon="-1.48016">
        <ele>58</ele>
        <time>2021-10-09T11:33:36.000Z</time>
      </trkpt>
      <trkpt lat="47.34351" lon="-1.48003">
        <ele>58</ele>
        <time>2021-10-09T11:33:38.000Z</time>
      </trkpt>
      <trkpt lat="47.3436" lon="-1.47988">
        <ele>58</ele>
        <time>2021-10-09T11:33:40.000Z</time>
      </trkpt>
      <trkpt lat="47.34368" lon="-1.47975">
        <ele>59</ele>
        <time>2021-10-09T11:33:42.000Z</time>
      </trkpt>
      <trkpt lat="47.34376" lon="-1.47962">
        <ele>59</ele>
        <time>2021-10-09T11:33:44.000Z</time>
      </trkpt>
      <trkpt lat="47.34386" lon="-1.47948">
        <ele>58</ele>
        <time>2021-10-09T11:33:46.000Z</time>
      </trkpt>
      <trkpt lat="47.34395" lon="-1.47936">
        <ele>57</ele>
        <time>2021-10-09T11:33:48.000Z</time>
      </trkpt>
      <trkpt lat="47.34404" lon="-1.47923">
        <ele>57</ele>
        <time>2021-10-09T11:33:50.000Z</time>
      </trkpt>
      <trkpt lat="47.34413" lon="-1.4791">
        <ele>57</ele>
        <time>2021-10-09T11:33:52.000Z</time>
      </trkpt>
      <trkpt lat="47.34423" lon="-1.47898">
        <ele>56</ele>
        <time>2021-10-09T11:33:54.000Z</time>
      </trkpt>
      <trkpt lat="47.34432" lon="-1.47887">
        <ele>56</ele>
        <time>2021-10-09T11:33:56.000Z</time>
      </trkpt>
      <trkpt lat="47.34441" lon="-1.47876">
        <ele>56</ele>
        <time>2021-10-09T11:33:58.000Z</time>
      </trkpt>
      <trkpt lat="47.34451" lon="-1.47865">
        <ele>56</ele>
        <time>2021-10-09T11:34:00.000Z</time>
      </trkpt>
      <trkpt lat="47.3446" lon="-1.47854">
        <ele>56</ele>
        <time>2021-10-09T11:34:02.000Z</time>
      </trkpt>
      <trkpt lat="47.3447" lon="-1.47844">
        <ele>56</ele>
        <time>2021-10-09T11:34:04.000Z</time>
      </trkpt>
      <trkpt lat="47.3448" lon="-1.47832">
        <ele>56</ele>
        <time>2021-10-09T11:34:06.000Z</time>
      </trkpt>
      <trkpt lat="47.34489" lon="-1.47821">
        <ele>56</ele>
        <time>2021-10-09T11:34:08.000Z</time>
      </trkpt>
      <trkpt lat="47.34499" lon="-1.4781">
        <ele>56</ele>
        <time>2021-10-09T11:34:10.000Z</time>
      </trkpt>
      <trkpt lat="47.34509" lon="-1.47799">
        <ele>56</ele>
        <time>2021-10-09T11:34:12.000Z</time>
      </trkpt>
      <trkpt lat="47.34519" lon="-1.47789">
        <ele>56</ele>
        <time>2021-10-09T11:34:14.000Z</time>
      </trkpt>
      <trkpt lat="47.34528" lon="-1.47778">
        <ele>57</ele>
        <time>2021-10-09T11:34:16.000Z</time>
      </trkpt>
      <trkpt lat="47.34538" lon="-1.47766">
        <ele>56</ele>
        <time>2021-10-09T11:34:18.000Z</time>
      </trkpt>
      <trkpt lat="47.34548" lon="-1.47755">
        <ele>56</ele>
        <time>2021-10-09T11:34:20.000Z</time>
      </trkpt>
      <trkpt lat="47.34558" lon="-1.47744">
        <ele>56</ele>
        <time>2021-10-09T11:34:22.000Z</time>
      </trkpt>
      <trkpt lat="47.34567" lon="-1.47733">
        <ele>56</ele>
        <time>2021-10-09T11:34:24.000Z</time>
      </trkpt>
      <trkpt lat="47.34577" lon="-1.47721">
        <ele>55</ele>
        <time>2021-10-09T11:34:26.000Z</time>
      </trkpt>
      <trkpt lat="47.34586" lon="-1.4771">
        <ele>55</ele>
        <time>2021-10-09T11:34:28.000Z</time>
      </trkpt>
      <trkpt lat="47.34596" lon="-1.47697">
        <ele>55</ele>
        <time>2021-10-09T11:34:30.000Z</time>
      </trkpt>
      <trkpt lat="47.34606" lon="-1.47686">
        <ele>55</ele>
        <time>2021-10-09T11:34:32.000Z</time>
      </trkpt>
      <trkpt lat="47.34616" lon="-1.47676">
        <ele>55</ele>
        <time>2021-10-09T11:34:34.000Z</time>
      </trkpt>
      <trkpt lat="47.34625" lon="-1.47665">
        <ele>55</ele>
        <time>2021-10-09T11:34:36.000Z</time>
      </trkpt>
      <trkpt lat="47.34635" lon="-1.47656">
        <ele>56</ele>
        <time>2021-10-09T11:34:38.000Z</time>
      </trkpt>
      <trkpt lat="47.34644" lon="-1.47646">
        <ele>56</ele>
        <time>2021-10-09T11:34:40.000Z</time>
      </trkpt>
      <trkpt lat="47.34653" lon="-1.47635">
        <ele>56</ele>
        <time>2021-10-09T11:34:42.000Z</time>
      </trkpt>
      <trkpt lat="47.34663" lon="-1.47625">
        <ele>56</ele>
        <time>2021-10-09T11:34:44.000Z</time>
      </trkpt>
      <trkpt lat="47.34672" lon="-1.47614">
        <ele>56</ele>
        <time>2021-10-09T11:34:46.000Z</time>
      </trkpt>
      <trkpt lat="47.34682" lon="-1.47604">
        <ele>56</ele>
        <time>2021-10-09T11:34:48.000Z</time>
      </trkpt>
      <trkpt lat="47.34691" lon="-1.47593">
        <ele>56</ele>
        <time>2021-10-09T11:34:50.000Z</time>
      </trkpt>
      <trkpt lat="47.34701" lon="-1.47581">
        <ele>56</ele>
        <time>2021-10-09T11:34:52.000Z</time>
      </trkpt>
      <trkpt lat="47.3471" lon="-1.47571">
        <ele>56</ele>
        <time>2021-10-09T11:34:54.000Z</time>
      </trkpt>
      <trkpt lat="47.3472" lon="-1.47559">
        <ele>56</ele>
        <time>2021-10-09T11:34:56.000Z</time>
      </trkpt>
      <trkpt lat="47.3473" lon="-1.47548">
        <ele>56</ele>
        <time>2021-10-09T11:34:58.000Z</time>
      </trkpt>
      <trkpt lat="47.34739" lon="-1.47538">
        <ele>56</ele>
        <time>2021-10-09T11:35:00.000Z</time>
      </trkpt>
      <trkpt lat="47.34749" lon="-1.47527">
        <ele>56</ele>
        <time>2021-10-09T11:35:02.000Z</time>
      </trkpt>
      <trkpt lat="47.34758" lon="-1.47514">
        <ele>56</ele>
        <time>2021-10-09T11:35:04.000Z</time>
      </trkpt>
      <trkpt lat="47.34767" lon="-1.47501">
        <ele>57</ele>
        <time>2021-10-09T11:35:06.000Z</time>
      </trkpt>
      <trkpt lat="47.34775" lon="-1.47488">
        <ele>57</ele>
        <time>2021-10-09T11:35:08.000Z</time>
      </trkpt>
      <trkpt lat="47.34782" lon="-1.47474">
        <ele>57</ele>
        <time>2021-10-09T11:35:10.000Z</time>
      </trkpt>
      <trkpt lat="47.34789" lon="-1.47459">
        <ele>57</ele>
        <time>2021-10-09T11:35:12.000Z</time>
      </trkpt>
      <trkpt lat="47.34795" lon="-1.47443">
        <ele>57</ele>
        <time>2021-10-09T11:35:14.000Z</time>
      </trkpt>
      <trkpt lat="47.34801" lon="-1.47427">
        <ele>57</ele>
        <time>2021-10-09T11:35:16.000Z</time>
      </trkpt>
      <trkpt lat="47.34807" lon="-1.47412">
        <ele>57</ele>
        <time>2021-10-09T11:35:18.000Z</time>
      </trkpt>
      <trkpt lat="47.34813" lon="-1.47397">
        <ele>58</ele>
        <time>2021-10-09T11:35:20.000Z</time>
      </trkpt>
      <trkpt lat="47.34819" lon="-1.47382">
        <ele>58</ele>
        <time>2021-10-09T11:35:22.000Z</time>
      </trkpt>
      <trkpt lat="47.34826" lon="-1.47369">
        <ele>58</ele>
        <time>2021-10-09T11:35:24.000Z</time>
      </trkpt>
      <trkpt lat="47.34834" lon="-1.47356">
        <ele>58</ele>
        <time>2021-10-09T11:35:26.000Z</time>
      </trkpt>
      <trkpt lat="47.34843" lon="-1.47344">
        <ele>58</ele>
        <time>2021-10-09T11:35:28.000Z</time>
      </trkpt>
      <trkpt lat="47.34853" lon="-1.47332">
        <ele>58</ele>
        <time>2021-10-09T11:35:30.000Z</time>
      </trkpt>
      <trkpt lat="47.34864" lon="-1.47323">
        <ele>58</ele>
        <time>2021-10-09T11:35:32.000Z</time>
      </trkpt>
      <trkpt lat="47.34875" lon="-1.47313">
        <ele>58</ele>
        <time>2021-10-09T11:35:34.000Z</time>
      </trkpt>
      <trkpt lat="47.34884" lon="-1.47305">
        <ele>58</ele>
        <time>2021-10-09T11:35:36.000Z</time>
      </trkpt>
      <trkpt lat="47.34895" lon="-1.47297">
        <ele>58</ele>
        <time>2021-10-09T11:35:38.000Z</time>
      </trkpt>
      <trkpt lat="47.34904" lon="-1.47291">
        <ele>58</ele>
        <time>2021-10-09T11:35:40.000Z</time>
      </trkpt>
      <trkpt lat="47.34914" lon="-1.47283">
        <ele>59</ele>
        <time>2021-10-09T11:35:42.000Z</time>
      </trkpt>
      <trkpt lat="47.34924" lon="-1.47277">
        <ele>59</ele>
        <time>2021-10-09T11:35:44.000Z</time>
      </trkpt>
      <trkpt lat="47.34933" lon="-1.47271">
        <ele>60</ele>
        <time>2021-10-09T11:35:46.000Z</time>
      </trkpt>
      <trkpt lat="47.34943" lon="-1.47265">
        <ele>60</ele>
        <time>2021-10-09T11:35:48.000Z</time>
      </trkpt>
      <trkpt lat="47.34952" lon="-1.47259">
        <ele>60</ele>
        <time>2021-10-09T11:35:50.000Z</time>
      </trkpt>
      <trkpt lat="47.34961" lon="-1.47255">
        <ele>60</ele>
        <time>2021-10-09T11:35:52.000Z</time>
      </trkpt>
      <trkpt lat="47.34971" lon="-1.4725">
        <ele>60</ele>
        <time>2021-10-09T11:35:54.000Z</time>
      </trkpt>
      <trkpt lat="47.34981" lon="-1.47245">
        <ele>60</ele>
        <time>2021-10-09T11:35:56.000Z</time>
      </trkpt>
      <trkpt lat="47.34991" lon="-1.47238">
        <ele>61</ele>
        <time>2021-10-09T11:35:58.000Z</time>
      </trkpt>
      <trkpt lat="47.34998" lon="-1.47229">
        <ele>61</ele>
        <time>2021-10-09T11:36:00.000Z</time>
      </trkpt>
      <trkpt lat="47.35007" lon="-1.47221">
        <ele>61</ele>
        <time>2021-10-09T11:36:02.000Z</time>
      </trkpt>
      <trkpt lat="47.35016" lon="-1.47215">
        <ele>62</ele>
        <time>2021-10-09T11:36:04.000Z</time>
      </trkpt>
      <trkpt lat="47.35026" lon="-1.47212">
        <ele>62</ele>
        <time>2021-10-09T11:36:06.000Z</time>
      </trkpt>
      <trkpt lat="47.35035" lon="-1.47213">
        <ele>62</ele>
        <time>2021-10-09T11:36:08.000Z</time>
      </trkpt>
      <trkpt lat="47.35044" lon="-1.47217">
        <ele>62</ele>
        <time>2021-10-09T11:36:10.000Z</time>
      </trkpt>
      <trkpt lat="47.35054" lon="-1.47223">
        <ele>63</ele>
        <time>2021-10-09T11:36:12.000Z</time>
      </trkpt>
      <trkpt lat="47.35065" lon="-1.47226">
        <ele>63</ele>
        <time>2021-10-09T11:36:14.000Z</time>
      </trkpt>
      <trkpt lat="47.35077" lon="-1.47229">
        <ele>63</ele>
        <time>2021-10-09T11:36:16.000Z</time>
      </trkpt>
      <trkpt lat="47.35088" lon="-1.47232">
        <ele>63</ele>
        <time>2021-10-09T11:36:18.000Z</time>
      </trkpt>
      <trkpt lat="47.35099" lon="-1.47234">
        <ele>63</ele>
        <time>2021-10-09T11:36:20.000Z</time>
      </trkpt>
      <trkpt lat="47.35111" lon="-1.47237">
        <ele>63</ele>
        <time>2021-10-09T11:36:22.000Z</time>
      </trkpt>
      <trkpt lat="47.35123" lon="-1.47239">
        <ele>63</ele>
        <time>2021-10-09T11:36:24.000Z</time>
      </trkpt>
      <trkpt lat="47.35135" lon="-1.47241">
        <ele>63</ele>
        <time>2021-10-09T11:36:26.000Z</time>
      </trkpt>
      <trkpt lat="47.35146" lon="-1.47242">
        <ele>63</ele>
        <time>2021-10-09T11:36:28.000Z</time>
      </trkpt>
      <trkpt lat="47.35157" lon="-1.47242">
        <ele>63</ele>
        <time>2021-10-09T11:36:30.000Z</time>
      </trkpt>
      <trkpt lat="47.35169" lon="-1.4724">
        <ele>63</ele>
        <time>2021-10-09T11:36:32.000Z</time>
      </trkpt>
      <trkpt lat="47.3518" lon="-1.47236">
        <ele>63</ele>
        <time>2021-10-09T11:36:34.000Z</time>
      </trkpt>
      <trkpt lat="47.35191" lon="-1.47233">
        <ele>63</ele>
        <time>2021-10-09T11:36:36.000Z</time>
      </trkpt>
      <trkpt lat="47.35202" lon="-1.47233">
        <ele>63</ele>
        <time>2021-10-09T11:36:38.000Z</time>
      </trkpt>
      <trkpt lat="47.35213" lon="-1.47242">
        <ele>63</ele>
        <time>2021-10-09T11:36:40.000Z</time>
      </trkpt>
      <trkpt lat="47.35221" lon="-1.47253">
        <ele>63</ele>
        <time>2021-10-09T11:36:42.000Z</time>
      </trkpt>
      <trkpt lat="47.35229" lon="-1.47265">
        <ele>63</ele>
        <time>2021-10-09T11:36:44.000Z</time>
      </trkpt>
      <trkpt lat="47.35236" lon="-1.47279">
        <ele>63</ele>
        <time>2021-10-09T11:36:46.000Z</time>
      </trkpt>
      <trkpt lat="47.35244" lon="-1.47292">
        <ele>63</ele>
        <time>2021-10-09T11:36:48.000Z</time>
      </trkpt>
      <trkpt lat="47.35256" lon="-1.47297">
        <ele>64</ele>
        <time>2021-10-09T11:36:50.000Z</time>
      </trkpt>
      <trkpt lat="47.35267" lon="-1.47293">
        <ele>64</ele>
        <time>2021-10-09T11:36:52.000Z</time>
      </trkpt>
      <trkpt lat="47.35277" lon="-1.47284">
        <ele>64</ele>
        <time>2021-10-09T11:36:54.000Z</time>
      </trkpt>
      <trkpt lat="47.35288" lon="-1.47282">
        <ele>63</ele>
        <time>2021-10-09T11:36:56.000Z</time>
      </trkpt>
      <trkpt lat="47.35301" lon="-1.47281">
        <ele>62</ele>
        <time>2021-10-09T11:36:58.000Z</time>
      </trkpt>
      <trkpt lat="47.35313" lon="-1.4728">
        <ele>63</ele>
        <time>2021-10-09T11:37:00.000Z</time>
      </trkpt>
      <trkpt lat="47.35325" lon="-1.47278">
        <ele>62</ele>
        <time>2021-10-09T11:37:02.000Z</time>
      </trkpt>
      <trkpt lat="47.35336" lon="-1.47278">
        <ele>62</ele>
        <time>2021-10-09T11:37:04.000Z</time>
      </trkpt>
      <trkpt lat="47.35346" lon="-1.47277">
        <ele>62</ele>
        <time>2021-10-09T11:37:06.000Z</time>
      </trkpt>
      <trkpt lat="47.35356" lon="-1.47277">
        <ele>64</ele>
        <time>2021-10-09T11:37:08.000Z</time>
      </trkpt>
      <trkpt lat="47.35366" lon="-1.47276">
        <ele>64</ele>
        <time>2021-10-09T11:37:10.000Z</time>
      </trkpt>
      <trkpt lat="47.35376" lon="-1.4727">
        <ele>65</ele>
        <time>2021-10-09T11:37:12.000Z</time>
      </trkpt>
      <trkpt lat="47.35384" lon="-1.47262">
        <ele>66</ele>
        <time>2021-10-09T11:37:14.000Z</time>
      </trkpt>
      <trkpt lat="47.35393" lon="-1.47254">
        <ele>66</ele>
        <time>2021-10-09T11:37:16.000Z</time>
      </trkpt>
      <trkpt lat="47.35402" lon="-1.47245">
        <ele>66</ele>
        <time>2021-10-09T11:37:18.000Z</time>
      </trkpt>
      <trkpt lat="47.35412" lon="-1.47237">
        <ele>67</ele>
        <time>2021-10-09T11:37:20.000Z</time>
      </trkpt>
      <trkpt lat="47.35422" lon="-1.47228">
        <ele>67</ele>
        <time>2021-10-09T11:37:22.000Z</time>
      </trkpt>
      <trkpt lat="47.35432" lon="-1.4722">
        <ele>67</ele>
        <time>2021-10-09T11:37:24.000Z</time>
      </trkpt>
      <trkpt lat="47.35441" lon="-1.47211">
        <ele>68</ele>
        <time>2021-10-09T11:37:26.000Z</time>
      </trkpt>
      <trkpt lat="47.35451" lon="-1.47202">
        <ele>68</ele>
        <time>2021-10-09T11:37:28.000Z</time>
      </trkpt>
      <trkpt lat="47.3546" lon="-1.47195">
        <ele>69</ele>
        <time>2021-10-09T11:37:30.000Z</time>
      </trkpt>
      <trkpt lat="47.3547" lon="-1.47186">
        <ele>70</ele>
        <time>2021-10-09T11:37:32.000Z</time>
      </trkpt>
      <trkpt lat="47.35479" lon="-1.47177">
        <ele>70</ele>
        <time>2021-10-09T11:37:34.000Z</time>
      </trkpt>
      <trkpt lat="47.35489" lon="-1.47169">
        <ele>70</ele>
        <time>2021-10-09T11:37:36.000Z</time>
      </trkpt>
      <trkpt lat="47.35498" lon="-1.4716">
        <ele>71</ele>
        <time>2021-10-09T11:37:38.000Z</time>
      </trkpt>
      <trkpt lat="47.35507" lon="-1.47153">
        <ele>71</ele>
        <time>2021-10-09T11:37:40.000Z</time>
      </trkpt>
      <trkpt lat="47.35517" lon="-1.47145">
        <ele>71</ele>
        <time>2021-10-09T11:37:42.000Z</time>
      </trkpt>
      <trkpt lat="47.35528" lon="-1.47136">
        <ele>70</ele>
        <time>2021-10-09T11:37:44.000Z</time>
      </trkpt>
      <trkpt lat="47.35539" lon="-1.47127">
        <ele>70</ele>
        <time>2021-10-09T11:37:46.000Z</time>
      </trkpt>
      <trkpt lat="47.35548" lon="-1.47119">
        <ele>69</ele>
        <time>2021-10-09T11:37:48.000Z</time>
      </trkpt>
      <trkpt lat="47.35558" lon="-1.4711">
        <ele>71</ele>
        <time>2021-10-09T11:37:50.000Z</time>
      </trkpt>
      <trkpt lat="47.35567" lon="-1.47103">
        <ele>71</ele>
        <time>2021-10-09T11:37:52.000Z</time>
      </trkpt>
      <trkpt lat="47.35576" lon="-1.47095">
        <ele>71</ele>
        <time>2021-10-09T11:37:54.000Z</time>
      </trkpt>
      <trkpt lat="47.35585" lon="-1.47087">
        <ele>71</ele>
        <time>2021-10-09T11:37:56.000Z</time>
      </trkpt>
      <trkpt lat="47.35594" lon="-1.47078">
        <ele>71</ele>
        <time>2021-10-09T11:37:58.000Z</time>
      </trkpt>
      <trkpt lat="47.35604" lon="-1.4707">
        <ele>71</ele>
        <time>2021-10-09T11:38:00.000Z</time>
      </trkpt>
      <trkpt lat="47.35615" lon="-1.47061">
        <ele>70</ele>
        <time>2021-10-09T11:38:02.000Z</time>
      </trkpt>
      <trkpt lat="47.35627" lon="-1.47051">
        <ele>69</ele>
        <time>2021-10-09T11:38:04.000Z</time>
      </trkpt>
      <trkpt lat="47.3564" lon="-1.47039">
        <ele>67</ele>
        <time>2021-10-09T11:38:06.000Z</time>
      </trkpt>
      <trkpt lat="47.35655" lon="-1.47027">
        <ele>66</ele>
        <time>2021-10-09T11:38:08.000Z</time>
      </trkpt>
      <trkpt lat="47.35677" lon="-1.47007">
        <ele>64</ele>
        <time>2021-10-09T11:38:11.000Z</time>
      </trkpt>
      <trkpt lat="47.35692" lon="-1.46994">
        <ele>63</ele>
        <time>2021-10-09T11:38:13.000Z</time>
      </trkpt>
      <trkpt lat="47.35707" lon="-1.46979">
        <ele>61</ele>
        <time>2021-10-09T11:38:15.000Z</time>
      </trkpt>
      <trkpt lat="47.35715" lon="-1.46973">
        <ele>61</ele>
        <time>2021-10-09T11:38:16.000Z</time>
      </trkpt>
      <trkpt lat="47.35729" lon="-1.46962">
        <ele>60</ele>
        <time>2021-10-09T11:38:18.000Z</time>
      </trkpt>
      <trkpt lat="47.35742" lon="-1.46947">
        <ele>59</ele>
        <time>2021-10-09T11:38:21.000Z</time>
      </trkpt>
      <trkpt lat="47.35744" lon="-1.46931">
        <ele>59</ele>
        <time>2021-10-09T11:38:23.000Z</time>
      </trkpt>
      <trkpt lat="47.35742" lon="-1.46915">
        <ele>59</ele>
        <time>2021-10-09T11:38:25.000Z</time>
      </trkpt>
      <trkpt lat="47.3574" lon="-1.46896">
        <ele>59</ele>
        <time>2021-10-09T11:38:27.000Z</time>
      </trkpt>
      <trkpt lat="47.35739" lon="-1.46874">
        <ele>58</ele>
        <time>2021-10-09T11:38:29.000Z</time>
      </trkpt>
      <trkpt lat="47.35737" lon="-1.46853">
        <ele>58</ele>
        <time>2021-10-09T11:38:31.000Z</time>
      </trkpt>
      <trkpt lat="47.35735" lon="-1.46833">
        <ele>57</ele>
        <time>2021-10-09T11:38:33.000Z</time>
      </trkpt>
      <trkpt lat="47.35734" lon="-1.46811">
        <ele>57</ele>
        <time>2021-10-09T11:38:35.000Z</time>
      </trkpt>
      <trkpt lat="47.35737" lon="-1.46779">
        <ele>57</ele>
        <time>2021-10-09T11:38:38.000Z</time>
      </trkpt>
      <trkpt lat="47.3574" lon="-1.46759">
        <ele>57</ele>
        <time>2021-10-09T11:38:40.000Z</time>
      </trkpt>
      <trkpt lat="47.35744" lon="-1.46729">
        <ele>56</ele>
        <time>2021-10-09T11:38:43.000Z</time>
      </trkpt>
      <trkpt lat="47.35748" lon="-1.46711">
        <ele>56</ele>
        <time>2021-10-09T11:38:45.000Z</time>
      </trkpt>
      <trkpt lat="47.35751" lon="-1.46691">
        <ele>57</ele>
        <time>2021-10-09T11:38:47.000Z</time>
      </trkpt>
      <trkpt lat="47.35754" lon="-1.46672">
        <ele>58</ele>
        <time>2021-10-09T11:38:49.000Z</time>
      </trkpt>
      <trkpt lat="47.35759" lon="-1.46654">
        <ele>58</ele>
        <time>2021-10-09T11:38:51.000Z</time>
      </trkpt>
      <trkpt lat="47.35768" lon="-1.46639">
        <ele>58</ele>
        <time>2021-10-09T11:38:53.000Z</time>
      </trkpt>
      <trkpt lat="47.35779" lon="-1.46628">
        <ele>58</ele>
        <time>2021-10-09T11:38:55.000Z</time>
      </trkpt>
      <trkpt lat="47.35791" lon="-1.46619">
        <ele>58</ele>
        <time>2021-10-09T11:38:57.000Z</time>
      </trkpt>
      <trkpt lat="47.35802" lon="-1.4661">
        <ele>58</ele>
        <time>2021-10-09T11:38:59.000Z</time>
      </trkpt>
      <trkpt lat="47.35813" lon="-1.46603">
        <ele>59</ele>
        <time>2021-10-09T11:39:01.000Z</time>
      </trkpt>
      <trkpt lat="47.35824" lon="-1.46594">
        <ele>59</ele>
        <time>2021-10-09T11:39:03.000Z</time>
      </trkpt>
      <trkpt lat="47.35835" lon="-1.46584">
        <ele>59</ele>
        <time>2021-10-09T11:39:05.000Z</time>
      </trkpt>
      <trkpt lat="47.35846" lon="-1.46575">
        <ele>59</ele>
        <time>2021-10-09T11:39:07.000Z</time>
      </trkpt>
      <trkpt lat="47.35856" lon="-1.46565">
        <ele>59</ele>
        <time>2021-10-09T11:39:09.000Z</time>
      </trkpt>
      <trkpt lat="47.35868" lon="-1.46557">
        <ele>59</ele>
        <time>2021-10-09T11:39:11.000Z</time>
      </trkpt>
      <trkpt lat="47.35878" lon="-1.46545">
        <ele>59</ele>
        <time>2021-10-09T11:39:13.000Z</time>
      </trkpt>
      <trkpt lat="47.35885" lon="-1.46528">
        <ele>58</ele>
        <time>2021-10-09T11:39:15.000Z</time>
      </trkpt>
      <trkpt lat="47.3589" lon="-1.46514">
        <ele>58</ele>
        <time>2021-10-09T11:39:17.000Z</time>
      </trkpt>
      <trkpt lat="47.35895" lon="-1.46496">
        <ele>58</ele>
        <time>2021-10-09T11:39:19.000Z</time>
      </trkpt>
      <trkpt lat="47.35899" lon="-1.46476">
        <ele>58</ele>
        <time>2021-10-09T11:39:21.000Z</time>
      </trkpt>
      <trkpt lat="47.35903" lon="-1.46456">
        <ele>59</ele>
        <time>2021-10-09T11:39:23.000Z</time>
      </trkpt>
      <trkpt lat="47.35907" lon="-1.46437">
        <ele>59</ele>
        <time>2021-10-09T11:39:25.000Z</time>
      </trkpt>
      <trkpt lat="47.35909" lon="-1.46418">
        <ele>59</ele>
        <time>2021-10-09T11:39:27.000Z</time>
      </trkpt>
      <trkpt lat="47.35911" lon="-1.46399">
        <ele>60</ele>
        <time>2021-10-09T11:39:29.000Z</time>
      </trkpt>
      <trkpt lat="47.35906" lon="-1.4638">
        <ele>59</ele>
        <time>2021-10-09T11:39:31.000Z</time>
      </trkpt>
      <trkpt lat="47.35897" lon="-1.46362">
        <ele>58</ele>
        <time>2021-10-09T11:39:33.000Z</time>
      </trkpt>
      <trkpt lat="47.35888" lon="-1.46348">
        <ele>58</ele>
        <time>2021-10-09T11:39:35.000Z</time>
      </trkpt>
      <trkpt lat="47.35878" lon="-1.46334">
        <ele>58</ele>
        <time>2021-10-09T11:39:37.000Z</time>
      </trkpt>
      <trkpt lat="47.35868" lon="-1.46321">
        <ele>58</ele>
        <time>2021-10-09T11:39:39.000Z</time>
      </trkpt>
      <trkpt lat="47.35858" lon="-1.46308">
        <ele>57</ele>
        <time>2021-10-09T11:39:41.000Z</time>
      </trkpt>
      <trkpt lat="47.35849" lon="-1.46294">
        <ele>57</ele>
        <time>2021-10-09T11:39:43.000Z</time>
      </trkpt>
      <trkpt lat="47.35842" lon="-1.46278">
        <ele>56</ele>
        <time>2021-10-09T11:39:45.000Z</time>
      </trkpt>
      <trkpt lat="47.35837" lon="-1.46261">
        <ele>57</ele>
        <time>2021-10-09T11:39:47.000Z</time>
      </trkpt>
      <trkpt lat="47.35834" lon="-1.46243">
        <ele>57</ele>
        <time>2021-10-09T11:39:49.000Z</time>
      </trkpt>
      <trkpt lat="47.35836" lon="-1.46226">
        <ele>58</ele>
        <time>2021-10-09T11:39:51.000Z</time>
      </trkpt>
      <trkpt lat="47.35842" lon="-1.4621">
        <ele>59</ele>
        <time>2021-10-09T11:39:53.000Z</time>
      </trkpt>
      <trkpt lat="47.35846" lon="-1.46195">
        <ele>59</ele>
        <time>2021-10-09T11:39:55.000Z</time>
      </trkpt>
      <trkpt lat="47.35845" lon="-1.46178">
        <ele>59</ele>
        <time>2021-10-09T11:39:57.000Z</time>
      </trkpt>
      <trkpt lat="47.35842" lon="-1.4616">
        <ele>60</ele>
        <time>2021-10-09T11:39:59.000Z</time>
      </trkpt>
      <trkpt lat="47.35838" lon="-1.4614">
        <ele>60</ele>
        <time>2021-10-09T11:40:01.000Z</time>
      </trkpt>
      <trkpt lat="47.35834" lon="-1.46123">
        <ele>59</ele>
        <time>2021-10-09T11:40:03.000Z</time>
      </trkpt>
      <trkpt lat="47.35831" lon="-1.46106">
        <ele>59</ele>
        <time>2021-10-09T11:40:05.000Z</time>
      </trkpt>
      <trkpt lat="47.35827" lon="-1.4609">
        <ele>59</ele>
        <time>2021-10-09T11:40:07.000Z</time>
      </trkpt>
      <trkpt lat="47.35822" lon="-1.46073">
        <ele>59</ele>
        <time>2021-10-09T11:40:09.000Z</time>
      </trkpt>
      <trkpt lat="47.35815" lon="-1.46058">
        <ele>59</ele>
        <time>2021-10-09T11:40:11.000Z</time>
      </trkpt>
      <trkpt lat="47.3581" lon="-1.46041">
        <ele>59</ele>
        <time>2021-10-09T11:40:13.000Z</time>
      </trkpt>
      <trkpt lat="47.35806" lon="-1.46025">
        <ele>59</ele>
        <time>2021-10-09T11:40:15.000Z</time>
      </trkpt>
      <trkpt lat="47.35803" lon="-1.46009">
        <ele>59</ele>
        <time>2021-10-09T11:40:17.000Z</time>
      </trkpt>
      <trkpt lat="47.35801" lon="-1.45993">
        <ele>59</ele>
        <time>2021-10-09T11:40:19.000Z</time>
      </trkpt>
      <trkpt lat="47.358" lon="-1.45978">
        <ele>59</ele>
        <time>2021-10-09T11:40:21.000Z</time>
      </trkpt>
      <trkpt lat="47.358" lon="-1.45962">
        <ele>59</ele>
        <time>2021-10-09T11:40:23.000Z</time>
      </trkpt>
      <trkpt lat="47.358" lon="-1.45947">
        <ele>60</ele>
        <time>2021-10-09T11:40:25.000Z</time>
      </trkpt>
      <trkpt lat="47.358" lon="-1.45932">
        <ele>60</ele>
        <time>2021-10-09T11:40:27.000Z</time>
      </trkpt>
      <trkpt lat="47.358" lon="-1.45917">
        <ele>60</ele>
        <time>2021-10-09T11:40:29.000Z</time>
      </trkpt>
      <trkpt lat="47.358" lon="-1.45903">
        <ele>60</ele>
        <time>2021-10-09T11:40:31.000Z</time>
      </trkpt>
      <trkpt lat="47.358" lon="-1.45889">
        <ele>61</ele>
        <time>2021-10-09T11:40:33.000Z</time>
      </trkpt>
      <trkpt lat="47.35799" lon="-1.45874">
        <ele>61</ele>
        <time>2021-10-09T11:40:35.000Z</time>
      </trkpt>
      <trkpt lat="47.35799" lon="-1.45859">
        <ele>61</ele>
        <time>2021-10-09T11:40:37.000Z</time>
      </trkpt>
      <trkpt lat="47.35798" lon="-1.45845">
        <ele>62</ele>
        <time>2021-10-09T11:40:39.000Z</time>
      </trkpt>
      <trkpt lat="47.35797" lon="-1.45829">
        <ele>62</ele>
        <time>2021-10-09T11:40:41.000Z</time>
      </trkpt>
      <trkpt lat="47.35797" lon="-1.45813">
        <ele>62</ele>
        <time>2021-10-09T11:40:43.000Z</time>
      </trkpt>
      <trkpt lat="47.35796" lon="-1.45797">
        <ele>62</ele>
        <time>2021-10-09T11:40:45.000Z</time>
      </trkpt>
      <trkpt lat="47.35797" lon="-1.45782">
        <ele>62</ele>
        <time>2021-10-09T11:40:47.000Z</time>
      </trkpt>
      <trkpt lat="47.35796" lon="-1.45766">
        <ele>63</ele>
        <time>2021-10-09T11:40:49.000Z</time>
      </trkpt>
      <trkpt lat="47.35796" lon="-1.45752">
        <ele>62</ele>
        <time>2021-10-09T11:40:51.000Z</time>
      </trkpt>
      <trkpt lat="47.35794" lon="-1.45736">
        <ele>62</ele>
        <time>2021-10-09T11:40:54.000Z</time>
      </trkpt>
      <trkpt lat="47.35788" lon="-1.45722">
        <ele>62</ele>
        <time>2021-10-09T11:41:15.000Z</time>
      </trkpt>
      <trkpt lat="47.35785" lon="-1.45708">
        <ele>62</ele>
        <time>2021-10-09T11:41:17.000Z</time>
      </trkpt>
      <trkpt lat="47.35782" lon="-1.45692">
        <ele>63</ele>
        <time>2021-10-09T11:41:19.000Z</time>
      </trkpt>
      <trkpt lat="47.35778" lon="-1.45675">
        <ele>62</ele>
        <time>2021-10-09T11:41:21.000Z</time>
      </trkpt>
      <trkpt lat="47.35774" lon="-1.45658">
        <ele>63</ele>
        <time>2021-10-09T11:41:23.000Z</time>
      </trkpt>
      <trkpt lat="47.3577" lon="-1.45641">
        <ele>63</ele>
        <time>2021-10-09T11:41:25.000Z</time>
      </trkpt>
      <trkpt lat="47.35766" lon="-1.45625">
        <ele>64</ele>
        <time>2021-10-09T11:41:27.000Z</time>
      </trkpt>
      <trkpt lat="47.35764" lon="-1.45609">
        <ele>65</ele>
        <time>2021-10-09T11:41:29.000Z</time>
      </trkpt>
      <trkpt lat="47.35762" lon="-1.45592">
        <ele>65</ele>
        <time>2021-10-09T11:41:31.000Z</time>
      </trkpt>
      <trkpt lat="47.35762" lon="-1.45574">
        <ele>66</ele>
        <time>2021-10-09T11:41:33.000Z</time>
      </trkpt>
      <trkpt lat="47.35764" lon="-1.45557">
        <ele>66</ele>
        <time>2021-10-09T11:41:35.000Z</time>
      </trkpt>
      <trkpt lat="47.35768" lon="-1.4554">
        <ele>66</ele>
        <time>2021-10-09T11:41:37.000Z</time>
      </trkpt>
      <trkpt lat="47.35772" lon="-1.45524">
        <ele>66</ele>
        <time>2021-10-09T11:41:39.000Z</time>
      </trkpt>
      <trkpt lat="47.35777" lon="-1.45509">
        <ele>66</ele>
        <time>2021-10-09T11:41:41.000Z</time>
      </trkpt>
      <trkpt lat="47.35782" lon="-1.45495">
        <ele>67</ele>
        <time>2021-10-09T11:41:43.000Z</time>
      </trkpt>
      <trkpt lat="47.35787" lon="-1.4548">
        <ele>66</ele>
        <time>2021-10-09T11:41:45.000Z</time>
      </trkpt>
      <trkpt lat="47.35792" lon="-1.45465">
        <ele>66</ele>
        <time>2021-10-09T11:41:47.000Z</time>
      </trkpt>
      <trkpt lat="47.35797" lon="-1.45448">
        <ele>67</ele>
        <time>2021-10-09T11:41:49.000Z</time>
      </trkpt>
      <trkpt lat="47.358" lon="-1.4543">
        <ele>66</ele>
        <time>2021-10-09T11:41:51.000Z</time>
      </trkpt>
      <trkpt lat="47.35801" lon="-1.45412">
        <ele>66</ele>
        <time>2021-10-09T11:41:53.000Z</time>
      </trkpt>
      <trkpt lat="47.358" lon="-1.45396">
        <ele>66</ele>
        <time>2021-10-09T11:41:55.000Z</time>
      </trkpt>
      <trkpt lat="47.35799" lon="-1.4538">
        <ele>67</ele>
        <time>2021-10-09T11:41:57.000Z</time>
      </trkpt>
      <trkpt lat="47.35797" lon="-1.45363">
        <ele>67</ele>
        <time>2021-10-09T11:41:59.000Z</time>
      </trkpt>
      <trkpt lat="47.35794" lon="-1.45347">
        <ele>68</ele>
        <time>2021-10-09T11:42:01.000Z</time>
      </trkpt>
      <trkpt lat="47.35791" lon="-1.45329">
        <ele>68</ele>
        <time>2021-10-09T11:42:03.000Z</time>
      </trkpt>
      <trkpt lat="47.35788" lon="-1.45311">
        <ele>68</ele>
        <time>2021-10-09T11:42:05.000Z</time>
      </trkpt>
      <trkpt lat="47.35785" lon="-1.45293">
        <ele>68</ele>
        <time>2021-10-09T11:42:07.000Z</time>
      </trkpt>
      <trkpt lat="47.35783" lon="-1.45276">
        <ele>68</ele>
        <time>2021-10-09T11:42:09.000Z</time>
      </trkpt>
      <trkpt lat="47.3578" lon="-1.45259">
        <ele>67</ele>
        <time>2021-10-09T11:42:11.000Z</time>
      </trkpt>
      <trkpt lat="47.35777" lon="-1.45243">
        <ele>67</ele>
        <time>2021-10-09T11:42:13.000Z</time>
      </trkpt>
      <trkpt lat="47.35774" lon="-1.45227">
        <ele>67</ele>
        <time>2021-10-09T11:42:15.000Z</time>
      </trkpt>
      <trkpt lat="47.35772" lon="-1.45211">
        <ele>68</ele>
        <time>2021-10-09T11:42:17.000Z</time>
      </trkpt>
      <trkpt lat="47.35769" lon="-1.45195">
        <ele>67</ele>
        <time>2021-10-09T11:42:19.000Z</time>
      </trkpt>
      <trkpt lat="47.35767" lon="-1.45179">
        <ele>67</ele>
        <time>2021-10-09T11:42:21.000Z</time>
      </trkpt>
      <trkpt lat="47.35765" lon="-1.45163">
        <ele>67</ele>
        <time>2021-10-09T11:42:23.000Z</time>
      </trkpt>
      <trkpt lat="47.35765" lon="-1.45147">
        <ele>67</ele>
        <time>2021-10-09T11:42:25.000Z</time>
      </trkpt>
      <trkpt lat="47.35765" lon="-1.45132">
        <ele>68</ele>
        <time>2021-10-09T11:42:27.000Z</time>
      </trkpt>
      <trkpt lat="47.35766" lon="-1.45116">
        <ele>68</ele>
        <time>2021-10-09T11:42:29.000Z</time>
      </trkpt>
      <trkpt lat="47.35768" lon="-1.451">
        <ele>68</ele>
        <time>2021-10-09T11:42:31.000Z</time>
      </trkpt>
      <trkpt lat="47.35771" lon="-1.45084">
        <ele>68</ele>
        <time>2021-10-09T11:42:33.000Z</time>
      </trkpt>
      <trkpt lat="47.35773" lon="-1.45068">
        <ele>69</ele>
        <time>2021-10-09T11:42:35.000Z</time>
      </trkpt>
      <trkpt lat="47.35776" lon="-1.45052">
        <ele>69</ele>
        <time>2021-10-09T11:42:37.000Z</time>
      </trkpt>
      <trkpt lat="47.35777" lon="-1.45037">
        <ele>68</ele>
        <time>2021-10-09T11:42:39.000Z</time>
      </trkpt>
      <trkpt lat="47.35779" lon="-1.45021">
        <ele>69</ele>
        <time>2021-10-09T11:42:41.000Z</time>
      </trkpt>
      <trkpt lat="47.35779" lon="-1.45006">
        <ele>69</ele>
        <time>2021-10-09T11:42:43.000Z</time>
      </trkpt>
      <trkpt lat="47.3578" lon="-1.44991">
        <ele>70</ele>
        <time>2021-10-09T11:42:45.000Z</time>
      </trkpt>
      <trkpt lat="47.35781" lon="-1.44976">
        <ele>70</ele>
        <time>2021-10-09T11:42:47.000Z</time>
      </trkpt>
      <trkpt lat="47.35781" lon="-1.44961">
        <ele>70</ele>
        <time>2021-10-09T11:42:49.000Z</time>
      </trkpt>
      <trkpt lat="47.35781" lon="-1.44946">
        <ele>71</ele>
        <time>2021-10-09T11:42:51.000Z</time>
      </trkpt>
      <trkpt lat="47.35782" lon="-1.4493">
        <ele>71</ele>
        <time>2021-10-09T11:42:53.000Z</time>
      </trkpt>
      <trkpt lat="47.35783" lon="-1.44915">
        <ele>71</ele>
        <time>2021-10-09T11:42:55.000Z</time>
      </trkpt>
      <trkpt lat="47.35783" lon="-1.44899">
        <ele>72</ele>
        <time>2021-10-09T11:42:57.000Z</time>
      </trkpt>
      <trkpt lat="47.35784" lon="-1.44884">
        <ele>72</ele>
        <time>2021-10-09T11:42:59.000Z</time>
      </trkpt>
      <trkpt lat="47.35784" lon="-1.44868">
        <ele>72</ele>
        <time>2021-10-09T11:43:01.000Z</time>
      </trkpt>
      <trkpt lat="47.35784" lon="-1.44853">
        <ele>72</ele>
        <time>2021-10-09T11:43:03.000Z</time>
      </trkpt>
      <trkpt lat="47.35784" lon="-1.44838">
        <ele>73</ele>
        <time>2021-10-09T11:43:05.000Z</time>
      </trkpt>
      <trkpt lat="47.35784" lon="-1.44823">
        <ele>73</ele>
        <time>2021-10-09T11:43:07.000Z</time>
      </trkpt>
      <trkpt lat="47.35785" lon="-1.44809">
        <ele>74</ele>
        <time>2021-10-09T11:43:09.000Z</time>
      </trkpt>
      <trkpt lat="47.35785" lon="-1.44794">
        <ele>74</ele>
        <time>2021-10-09T11:43:11.000Z</time>
      </trkpt>
      <trkpt lat="47.35786" lon="-1.44779">
        <ele>74</ele>
        <time>2021-10-09T11:43:13.000Z</time>
      </trkpt>
      <trkpt lat="47.35786" lon="-1.44764">
        <ele>75</ele>
        <time>2021-10-09T11:43:15.000Z</time>
      </trkpt>
      <trkpt lat="47.35786" lon="-1.4475">
        <ele>76</ele>
        <time>2021-10-09T11:43:17.000Z</time>
      </trkpt>
      <trkpt lat="47.35786" lon="-1.44735">
        <ele>76</ele>
        <time>2021-10-09T11:43:19.000Z</time>
      </trkpt>
      <trkpt lat="47.35786" lon="-1.44721">
        <ele>77</ele>
        <time>2021-10-09T11:43:21.000Z</time>
      </trkpt>
      <trkpt lat="47.35787" lon="-1.44706">
        <ele>77</ele>
        <time>2021-10-09T11:43:23.000Z</time>
      </trkpt>
      <trkpt lat="47.35787" lon="-1.44692">
        <ele>78</ele>
        <time>2021-10-09T11:43:25.000Z</time>
      </trkpt>
      <trkpt lat="47.35787" lon="-1.44677">
        <ele>79</ele>
        <time>2021-10-09T11:43:27.000Z</time>
      </trkpt>
      <trkpt lat="47.35787" lon="-1.44662">
        <ele>79</ele>
        <time>2021-10-09T11:43:29.000Z</time>
      </trkpt>
      <trkpt lat="47.35788" lon="-1.44647">
        <ele>79</ele>
        <time>2021-10-09T11:43:31.000Z</time>
      </trkpt>
      <trkpt lat="47.35789" lon="-1.44632">
        <ele>79</ele>
        <time>2021-10-09T11:43:33.000Z</time>
      </trkpt>
      <trkpt lat="47.3579" lon="-1.44618">
        <ele>80</ele>
        <time>2021-10-09T11:43:35.000Z</time>
      </trkpt>
      <trkpt lat="47.35791" lon="-1.44604">
        <ele>80</ele>
        <time>2021-10-09T11:43:37.000Z</time>
      </trkpt>
      <trkpt lat="47.35792" lon="-1.44591">
        <ele>80</ele>
        <time>2021-10-09T11:43:39.000Z</time>
      </trkpt>
      <trkpt lat="47.35794" lon="-1.44577">
        <ele>80</ele>
        <time>2021-10-09T11:43:41.000Z</time>
      </trkpt>
      <trkpt lat="47.35795" lon="-1.44564">
        <ele>81</ele>
        <time>2021-10-09T11:43:43.000Z</time>
      </trkpt>
      <trkpt lat="47.35797" lon="-1.44544">
        <ele>82</ele>
        <time>2021-10-09T11:43:46.000Z</time>
      </trkpt>
      <trkpt lat="47.35799" lon="-1.44531">
        <ele>82</ele>
        <time>2021-10-09T11:43:48.000Z</time>
      </trkpt>
      <trkpt lat="47.35801" lon="-1.44517">
        <ele>82</ele>
        <time>2021-10-09T11:43:50.000Z</time>
      </trkpt>
      <trkpt lat="47.35802" lon="-1.44503">
        <ele>83</ele>
        <time>2021-10-09T11:43:52.000Z</time>
      </trkpt>
      <trkpt lat="47.35803" lon="-1.44489">
        <ele>83</ele>
        <time>2021-10-09T11:43:54.000Z</time>
      </trkpt>
      <trkpt lat="47.35804" lon="-1.44475">
        <ele>83</ele>
        <time>2021-10-09T11:43:56.000Z</time>
      </trkpt>
      <trkpt lat="47.35805" lon="-1.4446">
        <ele>83</ele>
        <time>2021-10-09T11:43:58.000Z</time>
      </trkpt>
      <trkpt lat="47.35806" lon="-1.44446">
        <ele>84</ele>
        <time>2021-10-09T11:44:00.000Z</time>
      </trkpt>
      <trkpt lat="47.35806" lon="-1.4443">
        <ele>84</ele>
        <time>2021-10-09T11:44:02.000Z</time>
      </trkpt>
      <trkpt lat="47.35807" lon="-1.44415">
        <ele>84</ele>
        <time>2021-10-09T11:44:04.000Z</time>
      </trkpt>
      <trkpt lat="47.35808" lon="-1.444">
        <ele>84</ele>
        <time>2021-10-09T11:44:06.000Z</time>
      </trkpt>
      <trkpt lat="47.35808" lon="-1.44385">
        <ele>84</ele>
        <time>2021-10-09T11:44:08.000Z</time>
      </trkpt>
      <trkpt lat="47.35808" lon="-1.44369">
        <ele>84</ele>
        <time>2021-10-09T11:44:10.000Z</time>
      </trkpt>
      <trkpt lat="47.35808" lon="-1.44352">
        <ele>84</ele>
        <time>2021-10-09T11:44:12.000Z</time>
      </trkpt>
      <trkpt lat="47.35808" lon="-1.44335">
        <ele>84</ele>
        <time>2021-10-09T11:44:14.000Z</time>
      </trkpt>
      <trkpt lat="47.35809" lon="-1.44318">
        <ele>84</ele>
        <time>2021-10-09T11:44:16.000Z</time>
      </trkpt>
      <trkpt lat="47.3581" lon="-1.44301">
        <ele>84</ele>
        <time>2021-10-09T11:44:18.000Z</time>
      </trkpt>
      <trkpt lat="47.35813" lon="-1.44284">
        <ele>84</ele>
        <time>2021-10-09T11:44:20.000Z</time>
      </trkpt>
      <trkpt lat="47.35817" lon="-1.44269">
        <ele>84</ele>
        <time>2021-10-09T11:44:22.000Z</time>
      </trkpt>
      <trkpt lat="47.35824" lon="-1.44256">
        <ele>85</ele>
        <time>2021-10-09T11:44:24.000Z</time>
      </trkpt>
      <trkpt lat="47.35832" lon="-1.44243">
        <ele>85</ele>
        <time>2021-10-09T11:44:26.000Z</time>
      </trkpt>
      <trkpt lat="47.3584" lon="-1.44231">
        <ele>85</ele>
        <time>2021-10-09T11:44:28.000Z</time>
      </trkpt>
      <trkpt lat="47.35847" lon="-1.4422">
        <ele>85</ele>
        <time>2021-10-09T11:44:30.000Z</time>
      </trkpt>
      <trkpt lat="47.35855" lon="-1.44208">
        <ele>85</ele>
        <time>2021-10-09T11:44:32.000Z</time>
      </trkpt>
      <trkpt lat="47.35864" lon="-1.44196">
        <ele>85</ele>
        <time>2021-10-09T11:44:34.000Z</time>
      </trkpt>
      <trkpt lat="47.35873" lon="-1.44185">
        <ele>85</ele>
        <time>2021-10-09T11:44:36.000Z</time>
      </trkpt>
      <trkpt lat="47.35881" lon="-1.44172">
        <ele>85</ele>
        <time>2021-10-09T11:44:38.000Z</time>
      </trkpt>
      <trkpt lat="47.3589" lon="-1.4416">
        <ele>85</ele>
        <time>2021-10-09T11:44:40.000Z</time>
      </trkpt>
      <trkpt lat="47.35899" lon="-1.44148">
        <ele>85</ele>
        <time>2021-10-09T11:44:42.000Z</time>
      </trkpt>
      <trkpt lat="47.35907" lon="-1.44138">
        <ele>85</ele>
        <time>2021-10-09T11:44:44.000Z</time>
      </trkpt>
      <trkpt lat="47.35915" lon="-1.44128">
        <ele>85</ele>
        <time>2021-10-09T11:44:46.000Z</time>
      </trkpt>
      <trkpt lat="47.35923" lon="-1.44118">
        <ele>85</ele>
        <time>2021-10-09T11:44:48.000Z</time>
      </trkpt>
      <trkpt lat="47.35931" lon="-1.44106">
        <ele>85</ele>
        <time>2021-10-09T11:44:50.000Z</time>
      </trkpt>
      <trkpt lat="47.35939" lon="-1.44093">
        <ele>85</ele>
        <time>2021-10-09T11:44:52.000Z</time>
      </trkpt>
      <trkpt lat="47.35947" lon="-1.44082">
        <ele>85</ele>
        <time>2021-10-09T11:44:54.000Z</time>
      </trkpt>
      <trkpt lat="47.35957" lon="-1.4407">
        <ele>85</ele>
        <time>2021-10-09T11:44:56.000Z</time>
      </trkpt>
      <trkpt lat="47.35966" lon="-1.44059">
        <ele>85</ele>
        <time>2021-10-09T11:44:58.000Z</time>
      </trkpt>
      <trkpt lat="47.35975" lon="-1.44048">
        <ele>85</ele>
        <time>2021-10-09T11:45:00.000Z</time>
      </trkpt>
      <trkpt lat="47.35985" lon="-1.44037">
        <ele>85</ele>
        <time>2021-10-09T11:45:02.000Z</time>
      </trkpt>
      <trkpt lat="47.35994" lon="-1.44027">
        <ele>84</ele>
        <time>2021-10-09T11:45:04.000Z</time>
      </trkpt>
      <trkpt lat="47.36002" lon="-1.44017">
        <ele>84</ele>
        <time>2021-10-09T11:45:06.000Z</time>
      </trkpt>
      <trkpt lat="47.36011" lon="-1.44005">
        <ele>84</ele>
        <time>2021-10-09T11:45:08.000Z</time>
      </trkpt>
      <trkpt lat="47.36019" lon="-1.43994">
        <ele>84</ele>
        <time>2021-10-09T11:45:10.000Z</time>
      </trkpt>
      <trkpt lat="47.36028" lon="-1.43982">
        <ele>84</ele>
        <time>2021-10-09T11:45:12.000Z</time>
      </trkpt>
      <trkpt lat="47.36035" lon="-1.43968">
        <ele>84</ele>
        <time>2021-10-09T11:45:14.000Z</time>
      </trkpt>
      <trkpt lat="47.36043" lon="-1.43954">
        <ele>84</ele>
        <time>2021-10-09T11:45:16.000Z</time>
      </trkpt>
      <trkpt lat="47.36049" lon="-1.43938">
        <ele>84</ele>
        <time>2021-10-09T11:45:18.000Z</time>
      </trkpt>
      <trkpt lat="47.36055" lon="-1.43923">
        <ele>84</ele>
        <time>2021-10-09T11:45:20.000Z</time>
      </trkpt>
      <trkpt lat="47.3606" lon="-1.43905">
        <ele>83</ele>
        <time>2021-10-09T11:45:22.000Z</time>
      </trkpt>
      <trkpt lat="47.36063" lon="-1.43885">
        <ele>82</ele>
        <time>2021-10-09T11:45:24.000Z</time>
      </trkpt>
      <trkpt lat="47.36066" lon="-1.43865">
        <ele>82</ele>
        <time>2021-10-09T11:45:26.000Z</time>
      </trkpt>
      <trkpt lat="47.36069" lon="-1.43844">
        <ele>82</ele>
        <time>2021-10-09T11:45:28.000Z</time>
      </trkpt>
      <trkpt lat="47.36071" lon="-1.43822">
        <ele>81</ele>
        <time>2021-10-09T11:45:30.000Z</time>
      </trkpt>
      <trkpt lat="47.36074" lon="-1.43799">
        <ele>80</ele>
        <time>2021-10-09T11:45:32.000Z</time>
      </trkpt>
      <trkpt lat="47.36077" lon="-1.43776">
        <ele>80</ele>
        <time>2021-10-09T11:45:34.000Z</time>
      </trkpt>
      <trkpt lat="47.36082" lon="-1.43754">
        <ele>80</ele>
        <time>2021-10-09T11:45:36.000Z</time>
      </trkpt>
      <trkpt lat="47.36089" lon="-1.43732">
        <ele>80</ele>
        <time>2021-10-09T11:45:38.000Z</time>
      </trkpt>
      <trkpt lat="47.36098" lon="-1.43711">
        <ele>80</ele>
        <time>2021-10-09T11:45:40.000Z</time>
      </trkpt>
      <trkpt lat="47.36108" lon="-1.43692">
        <ele>80</ele>
        <time>2021-10-09T11:45:42.000Z</time>
      </trkpt>
      <trkpt lat="47.36117" lon="-1.43675">
        <ele>81</ele>
        <time>2021-10-09T11:45:44.000Z</time>
      </trkpt>
      <trkpt lat="47.36127" lon="-1.43658">
        <ele>80</ele>
        <time>2021-10-09T11:45:46.000Z</time>
      </trkpt>
      <trkpt lat="47.36135" lon="-1.43643">
        <ele>81</ele>
        <time>2021-10-09T11:45:48.000Z</time>
      </trkpt>
      <trkpt lat="47.36144" lon="-1.43626">
        <ele>81</ele>
        <time>2021-10-09T11:45:50.000Z</time>
      </trkpt>
      <trkpt lat="47.36153" lon="-1.43609">
        <ele>80</ele>
        <time>2021-10-09T11:45:52.000Z</time>
      </trkpt>
      <trkpt lat="47.36161" lon="-1.43592">
        <ele>80</ele>
        <time>2021-10-09T11:45:54.000Z</time>
      </trkpt>
      <trkpt lat="47.3617" lon="-1.43574">
        <ele>79</ele>
        <time>2021-10-09T11:45:56.000Z</time>
      </trkpt>
      <trkpt lat="47.36178" lon="-1.43557">
        <ele>79</ele>
        <time>2021-10-09T11:45:58.000Z</time>
      </trkpt>
      <trkpt lat="47.36186" lon="-1.43541">
        <ele>79</ele>
        <time>2021-10-09T11:46:00.000Z</time>
      </trkpt>
      <trkpt lat="47.36194" lon="-1.43526">
        <ele>78</ele>
        <time>2021-10-09T11:46:02.000Z</time>
      </trkpt>
      <trkpt lat="47.36203" lon="-1.43513">
        <ele>79</ele>
        <time>2021-10-09T11:46:04.000Z</time>
      </trkpt>
      <trkpt lat="47.36211" lon="-1.43502">
        <ele>79</ele>
        <time>2021-10-09T11:46:06.000Z</time>
      </trkpt>
      <trkpt lat="47.3622" lon="-1.43492">
        <ele>79</ele>
        <time>2021-10-09T11:46:08.000Z</time>
      </trkpt>
      <trkpt lat="47.36228" lon="-1.43481">
        <ele>79</ele>
        <time>2021-10-09T11:46:10.000Z</time>
      </trkpt>
      <trkpt lat="47.36235" lon="-1.4347">
        <ele>79</ele>
        <time>2021-10-09T11:46:12.000Z</time>
      </trkpt>
      <trkpt lat="47.36243" lon="-1.43461">
        <ele>79</ele>
        <time>2021-10-09T11:46:14.000Z</time>
      </trkpt>
      <trkpt lat="47.36251" lon="-1.43453">
        <ele>79</ele>
        <time>2021-10-09T11:46:16.000Z</time>
      </trkpt>
      <trkpt lat="47.36261" lon="-1.43443">
        <ele>80</ele>
        <time>2021-10-09T11:46:19.000Z</time>
      </trkpt>
      <trkpt lat="47.36271" lon="-1.43433">
        <ele>81</ele>
        <time>2021-10-09T11:46:22.000Z</time>
      </trkpt>
      <trkpt lat="47.3628" lon="-1.43424">
        <ele>81</ele>
        <time>2021-10-09T11:46:25.000Z</time>
      </trkpt>
      <trkpt lat="47.36289" lon="-1.43414">
        <ele>82</ele>
        <time>2021-10-09T11:46:28.000Z</time>
      </trkpt>
      <trkpt lat="47.36299" lon="-1.43404">
        <ele>82</ele>
        <time>2021-10-09T11:46:31.000Z</time>
      </trkpt>
      <trkpt lat="47.36309" lon="-1.43394">
        <ele>82</ele>
        <time>2021-10-09T11:46:34.000Z</time>
      </trkpt>
      <trkpt lat="47.36318" lon="-1.43384">
        <ele>83</ele>
        <time>2021-10-09T11:46:37.000Z</time>
      </trkpt>
      <trkpt lat="47.36327" lon="-1.43374">
        <ele>84</ele>
        <time>2021-10-09T11:46:40.000Z</time>
      </trkpt>
      <trkpt lat="47.36336" lon="-1.43365">
        <ele>85</ele>
        <time>2021-10-09T11:46:43.000Z</time>
      </trkpt>
      <trkpt lat="47.36345" lon="-1.43356">
        <ele>86</ele>
        <time>2021-10-09T11:46:46.000Z</time>
      </trkpt>
      <trkpt lat="47.36354" lon="-1.43346">
        <ele>86</ele>
        <time>2021-10-09T11:46:49.000Z</time>
      </trkpt>
      <trkpt lat="47.36364" lon="-1.43336">
        <ele>87</ele>
        <time>2021-10-09T11:46:52.000Z</time>
      </trkpt>
      <trkpt lat="47.36373" lon="-1.43327">
        <ele>87</ele>
        <time>2021-10-09T11:46:55.000Z</time>
      </trkpt>
      <trkpt lat="47.36382" lon="-1.43318">
        <ele>88</ele>
        <time>2021-10-09T11:46:58.000Z</time>
      </trkpt>
      <trkpt lat="47.36391" lon="-1.43308">
        <ele>89</ele>
        <time>2021-10-09T11:47:01.000Z</time>
      </trkpt>
      <trkpt lat="47.364" lon="-1.433">
        <ele>90</ele>
        <time>2021-10-09T11:47:04.000Z</time>
      </trkpt>
      <trkpt lat="47.36409" lon="-1.4329">
        <ele>90</ele>
        <time>2021-10-09T11:47:07.000Z</time>
      </trkpt>
      <trkpt lat="47.36418" lon="-1.4328">
        <ele>91</ele>
        <time>2021-10-09T11:47:10.000Z</time>
      </trkpt>
      <trkpt lat="47.36427" lon="-1.43269">
        <ele>91</ele>
        <time>2021-10-09T11:47:13.000Z</time>
      </trkpt>
      <trkpt lat="47.36434" lon="-1.43258">
        <ele>92</ele>
        <time>2021-10-09T11:47:16.000Z</time>
      </trkpt>
      <trkpt lat="47.36441" lon="-1.43246">
        <ele>93</ele>
        <time>2021-10-09T11:47:19.000Z</time>
      </trkpt>
      <trkpt lat="47.36449" lon="-1.43233">
        <ele>93</ele>
        <time>2021-10-09T11:47:22.000Z</time>
      </trkpt>
      <trkpt lat="47.36455" lon="-1.43219">
        <ele>94</ele>
        <time>2021-10-09T11:47:25.000Z</time>
      </trkpt>
      <trkpt lat="47.36461" lon="-1.43205">
        <ele>95</ele>
        <time>2021-10-09T11:47:28.000Z</time>
      </trkpt>
      <trkpt lat="47.36468" lon="-1.43191">
        <ele>95</ele>
        <time>2021-10-09T11:47:31.000Z</time>
      </trkpt>
      <trkpt lat="47.36475" lon="-1.43177">
        <ele>96</ele>
        <time>2021-10-09T11:47:34.000Z</time>
      </trkpt>
      <trkpt lat="47.36482" lon="-1.43163">
        <ele>96</ele>
        <time>2021-10-09T11:47:37.000Z</time>
      </trkpt>
      <trkpt lat="47.36489" lon="-1.43148">
        <ele>97</ele>
        <time>2021-10-09T11:47:40.000Z</time>
      </trkpt>
      <trkpt lat="47.36495" lon="-1.43133">
        <ele>97</ele>
        <time>2021-10-09T11:47:43.000Z</time>
      </trkpt>
      <trkpt lat="47.36501" lon="-1.43118">
        <ele>97</ele>
        <time>2021-10-09T11:47:46.000Z</time>
      </trkpt>
      <trkpt lat="47.36507" lon="-1.43102">
        <ele>97</ele>
        <time>2021-10-09T11:47:49.000Z</time>
      </trkpt>
      <trkpt lat="47.36512" lon="-1.43084">
        <ele>97</ele>
        <time>2021-10-09T11:47:52.000Z</time>
      </trkpt>
      <trkpt lat="47.36514" lon="-1.43071">
        <ele>98</ele>
        <time>2021-10-09T11:47:54.000Z</time>
      </trkpt>
      <trkpt lat="47.36516" lon="-1.43058">
        <ele>98</ele>
        <time>2021-10-09T11:47:56.000Z</time>
      </trkpt>
      <trkpt lat="47.36518" lon="-1.43044">
        <ele>98</ele>
        <time>2021-10-09T11:47:58.000Z</time>
      </trkpt>
      <trkpt lat="47.36519" lon="-1.4303">
        <ele>98</ele>
        <time>2021-10-09T11:48:00.000Z</time>
      </trkpt>
      <trkpt lat="47.36521" lon="-1.43014">
        <ele>98</ele>
        <time>2021-10-09T11:48:02.000Z</time>
      </trkpt>
      <trkpt lat="47.36524" lon="-1.42999">
        <ele>98</ele>
        <time>2021-10-09T11:48:04.000Z</time>
      </trkpt>
      <trkpt lat="47.36531" lon="-1.42987">
        <ele>98</ele>
        <time>2021-10-09T11:48:06.000Z</time>
      </trkpt>
      <trkpt lat="47.36541" lon="-1.42981">
        <ele>98</ele>
        <time>2021-10-09T11:48:08.000Z</time>
      </trkpt>
      <trkpt lat="47.36552" lon="-1.42978">
        <ele>97</ele>
        <time>2021-10-09T11:48:10.000Z</time>
      </trkpt>
      <trkpt lat="47.36563" lon="-1.42978">
        <ele>97</ele>
        <time>2021-10-09T11:48:12.000Z</time>
      </trkpt>
      <trkpt lat="47.36575" lon="-1.42976">
        <ele>96</ele>
        <time>2021-10-09T11:48:14.000Z</time>
      </trkpt>
      <trkpt lat="47.36586" lon="-1.42976">
        <ele>97</ele>
        <time>2021-10-09T11:48:16.000Z</time>
      </trkpt>
      <trkpt lat="47.36598" lon="-1.42977">
        <ele>97</ele>
        <time>2021-10-09T11:48:18.000Z</time>
      </trkpt>
      <trkpt lat="47.3661" lon="-1.42977">
        <ele>97</ele>
        <time>2021-10-09T11:48:20.000Z</time>
      </trkpt>
      <trkpt lat="47.36621" lon="-1.42978">
        <ele>97</ele>
        <time>2021-10-09T11:48:22.000Z</time>
      </trkpt>
      <trkpt lat="47.36632" lon="-1.42978">
        <ele>97</ele>
        <time>2021-10-09T11:48:24.000Z</time>
      </trkpt>
      <trkpt lat="47.36644" lon="-1.42977">
        <ele>97</ele>
        <time>2021-10-09T11:48:26.000Z</time>
      </trkpt>
      <trkpt lat="47.36656" lon="-1.42976">
        <ele>97</ele>
        <time>2021-10-09T11:48:28.000Z</time>
      </trkpt>
      <trkpt lat="47.36667" lon="-1.42975">
        <ele>97</ele>
        <time>2021-10-09T11:48:30.000Z</time>
      </trkpt>
      <trkpt lat="47.36677" lon="-1.42975">
        <ele>97</ele>
        <time>2021-10-09T11:48:32.000Z</time>
      </trkpt>
      <trkpt lat="47.3669" lon="-1.42971">
        <ele>97</ele>
        <time>2021-10-09T11:48:35.000Z</time>
      </trkpt>
      <trkpt lat="47.36695" lon="-1.42956">
        <ele>98</ele>
        <time>2021-10-09T11:48:37.000Z</time>
      </trkpt>
      <trkpt lat="47.36698" lon="-1.42942">
        <ele>99</ele>
        <time>2021-10-09T11:48:39.000Z</time>
      </trkpt>
      <trkpt lat="47.36702" lon="-1.42928">
        <ele>100</ele>
        <time>2021-10-09T11:48:41.000Z</time>
      </trkpt>
      <trkpt lat="47.36706" lon="-1.42912">
        <ele>101</ele>
        <time>2021-10-09T11:48:43.000Z</time>
      </trkpt>
      <trkpt lat="47.36711" lon="-1.42896">
        <ele>102</ele>
        <time>2021-10-09T11:48:45.000Z</time>
      </trkpt>
      <trkpt lat="47.36714" lon="-1.42881">
        <ele>102</ele>
        <time>2021-10-09T11:48:47.000Z</time>
      </trkpt>
      <trkpt lat="47.36718" lon="-1.42864">
        <ele>102</ele>
        <time>2021-10-09T11:48:49.000Z</time>
      </trkpt>
      <trkpt lat="47.36723" lon="-1.42849">
        <ele>103</ele>
        <time>2021-10-09T11:48:51.000Z</time>
      </trkpt>
      <trkpt lat="47.36726" lon="-1.42833">
        <ele>103</ele>
        <time>2021-10-09T11:48:53.000Z</time>
      </trkpt>
      <trkpt lat="47.36729" lon="-1.42817">
        <ele>103</ele>
        <time>2021-10-09T11:48:55.000Z</time>
      </trkpt>
      <trkpt lat="47.36731" lon="-1.428">
        <ele>102</ele>
        <time>2021-10-09T11:48:57.000Z</time>
      </trkpt>
      <trkpt lat="47.36735" lon="-1.42783">
        <ele>102</ele>
        <time>2021-10-09T11:48:59.000Z</time>
      </trkpt>
      <trkpt lat="47.36737" lon="-1.42765">
        <ele>101</ele>
        <time>2021-10-09T11:49:01.000Z</time>
      </trkpt>
      <trkpt lat="47.36738" lon="-1.42747">
        <ele>102</ele>
        <time>2021-10-09T11:49:03.000Z</time>
      </trkpt>
      <trkpt lat="47.36739" lon="-1.4273">
        <ele>102</ele>
        <time>2021-10-09T11:49:05.000Z</time>
      </trkpt>
      <trkpt lat="47.36738" lon="-1.42712">
        <ele>102</ele>
        <time>2021-10-09T11:49:07.000Z</time>
      </trkpt>
      <trkpt lat="47.36738" lon="-1.42694">
        <ele>102</ele>
        <time>2021-10-09T11:49:09.000Z</time>
      </trkpt>
      <trkpt lat="47.36736" lon="-1.42677">
        <ele>102</ele>
        <time>2021-10-09T11:49:11.000Z</time>
      </trkpt>
      <trkpt lat="47.36735" lon="-1.42661">
        <ele>102</ele>
        <time>2021-10-09T11:49:13.000Z</time>
      </trkpt>
      <trkpt lat="47.36732" lon="-1.42644">
        <ele>102</ele>
        <time>2021-10-09T11:49:15.000Z</time>
      </trkpt>
      <trkpt lat="47.3673" lon="-1.42626">
        <ele>102</ele>
        <time>2021-10-09T11:49:17.000Z</time>
      </trkpt>
      <trkpt lat="47.36728" lon="-1.42609">
        <ele>102</ele>
        <time>2021-10-09T11:49:19.000Z</time>
      </trkpt>
      <trkpt lat="47.36726" lon="-1.42593">
        <ele>102</ele>
        <time>2021-10-09T11:49:21.000Z</time>
      </trkpt>
      <trkpt lat="47.36723" lon="-1.42576">
        <ele>102</ele>
        <time>2021-10-09T11:49:23.000Z</time>
      </trkpt>
      <trkpt lat="47.36721" lon="-1.42559">
        <ele>102</ele>
        <time>2021-10-09T11:49:25.000Z</time>
      </trkpt>
      <trkpt lat="47.36718" lon="-1.42542">
        <ele>102</ele>
        <time>2021-10-09T11:49:27.000Z</time>
      </trkpt>
      <trkpt lat="47.36715" lon="-1.42525">
        <ele>102</ele>
        <time>2021-10-09T11:49:29.000Z</time>
      </trkpt>
      <trkpt lat="47.36713" lon="-1.42509">
        <ele>102</ele>
        <time>2021-10-09T11:49:31.000Z</time>
      </trkpt>
      <trkpt lat="47.3671" lon="-1.42493">
        <ele>102</ele>
        <time>2021-10-09T11:49:33.000Z</time>
      </trkpt>
      <trkpt lat="47.36707" lon="-1.42477">
        <ele>102</ele>
        <time>2021-10-09T11:49:35.000Z</time>
      </trkpt>
      <trkpt lat="47.36705" lon="-1.42461">
        <ele>102</ele>
        <time>2021-10-09T11:49:37.000Z</time>
      </trkpt>
      <trkpt lat="47.36702" lon="-1.42445">
        <ele>102</ele>
        <time>2021-10-09T11:49:39.000Z</time>
      </trkpt>
      <trkpt lat="47.367" lon="-1.42429">
        <ele>102</ele>
        <time>2021-10-09T11:49:41.000Z</time>
      </trkpt>
      <trkpt lat="47.36697" lon="-1.42412">
        <ele>102</ele>
        <time>2021-10-09T11:49:43.000Z</time>
      </trkpt>
      <trkpt lat="47.36695" lon="-1.42396">
        <ele>102</ele>
        <time>2021-10-09T11:49:45.000Z</time>
      </trkpt>
      <trkpt lat="47.36692" lon="-1.42379">
        <ele>102</ele>
        <time>2021-10-09T11:49:47.000Z</time>
      </trkpt>
      <trkpt lat="47.36689" lon="-1.42362">
        <ele>103</ele>
        <time>2021-10-09T11:49:49.000Z</time>
      </trkpt>
      <trkpt lat="47.36686" lon="-1.42346">
        <ele>103</ele>
        <time>2021-10-09T11:49:51.000Z</time>
      </trkpt>
      <trkpt lat="47.36684" lon="-1.42329">
        <ele>103</ele>
        <time>2021-10-09T11:49:53.000Z</time>
      </trkpt>
      <trkpt lat="47.36682" lon="-1.42313">
        <ele>103</ele>
        <time>2021-10-09T11:49:55.000Z</time>
      </trkpt>
      <trkpt lat="47.3668" lon="-1.42297">
        <ele>103</ele>
        <time>2021-10-09T11:49:57.000Z</time>
      </trkpt>
      <trkpt lat="47.36678" lon="-1.4228">
        <ele>103</ele>
        <time>2021-10-09T11:49:59.000Z</time>
      </trkpt>
      <trkpt lat="47.36677" lon="-1.42265">
        <ele>103</ele>
        <time>2021-10-09T11:50:01.000Z</time>
      </trkpt>
      <trkpt lat="47.36675" lon="-1.42249">
        <ele>103</ele>
        <time>2021-10-09T11:50:03.000Z</time>
      </trkpt>
      <trkpt lat="47.36674" lon="-1.42233">
        <ele>103</ele>
        <time>2021-10-09T11:50:05.000Z</time>
      </trkpt>
      <trkpt lat="47.36673" lon="-1.42219">
        <ele>103</ele>
        <time>2021-10-09T11:50:07.000Z</time>
      </trkpt>
      <trkpt lat="47.36671" lon="-1.42204">
        <ele>103</ele>
        <time>2021-10-09T11:50:09.000Z</time>
      </trkpt>
      <trkpt lat="47.3667" lon="-1.42189">
        <ele>103</ele>
        <time>2021-10-09T11:50:11.000Z</time>
      </trkpt>
      <trkpt lat="47.36668" lon="-1.42175">
        <ele>103</ele>
        <time>2021-10-09T11:50:13.000Z</time>
      </trkpt>
      <trkpt lat="47.36667" lon="-1.42159">
        <ele>103</ele>
        <time>2021-10-09T11:50:15.000Z</time>
      </trkpt>
      <trkpt lat="47.36666" lon="-1.42144">
        <ele>103</ele>
        <time>2021-10-09T11:50:17.000Z</time>
      </trkpt>
      <trkpt lat="47.36664" lon="-1.4213">
        <ele>104</ele>
        <time>2021-10-09T11:50:19.000Z</time>
      </trkpt>
      <trkpt lat="47.36663" lon="-1.42114">
        <ele>104</ele>
        <time>2021-10-09T11:50:21.000Z</time>
      </trkpt>
      <trkpt lat="47.36661" lon="-1.421">
        <ele>104</ele>
        <time>2021-10-09T11:50:23.000Z</time>
      </trkpt>
      <trkpt lat="47.3666" lon="-1.42085">
        <ele>104</ele>
        <time>2021-10-09T11:50:25.000Z</time>
      </trkpt>
      <trkpt lat="47.36659" lon="-1.4207">
        <ele>105</ele>
        <time>2021-10-09T11:50:27.000Z</time>
      </trkpt>
      <trkpt lat="47.36658" lon="-1.42055">
        <ele>105</ele>
        <time>2021-10-09T11:50:29.000Z</time>
      </trkpt>
      <trkpt lat="47.36657" lon="-1.4204">
        <ele>105</ele>
        <time>2021-10-09T11:50:31.000Z</time>
      </trkpt>
      <trkpt lat="47.36656" lon="-1.42025">
        <ele>106</ele>
        <time>2021-10-09T11:50:33.000Z</time>
      </trkpt>
      <trkpt lat="47.36655" lon="-1.4201">
        <ele>106</ele>
        <time>2021-10-09T11:50:35.000Z</time>
      </trkpt>
      <trkpt lat="47.36654" lon="-1.41995">
        <ele>107</ele>
        <time>2021-10-09T11:50:37.000Z</time>
      </trkpt>
      <trkpt lat="47.36653" lon="-1.4198">
        <ele>107</ele>
        <time>2021-10-09T11:50:39.000Z</time>
      </trkpt>
      <trkpt lat="47.36652" lon="-1.41965">
        <ele>107</ele>
        <time>2021-10-09T11:50:41.000Z</time>
      </trkpt>
      <trkpt lat="47.3665" lon="-1.4195">
        <ele>107</ele>
        <time>2021-10-09T11:50:43.000Z</time>
      </trkpt>
      <trkpt lat="47.36648" lon="-1.41936">
        <ele>107</ele>
        <time>2021-10-09T11:50:45.000Z</time>
      </trkpt>
      <trkpt lat="47.36646" lon="-1.41921">
        <ele>108</ele>
        <time>2021-10-09T11:50:47.000Z</time>
      </trkpt>
      <trkpt lat="47.36645" lon="-1.41906">
        <ele>108</ele>
        <time>2021-10-09T11:50:49.000Z</time>
      </trkpt>
      <trkpt lat="47.36644" lon="-1.41891">
        <ele>109</ele>
        <time>2021-10-09T11:50:51.000Z</time>
      </trkpt>
      <trkpt lat="47.36642" lon="-1.41876">
        <ele>110</ele>
        <time>2021-10-09T11:50:53.000Z</time>
      </trkpt>
      <trkpt lat="47.3664" lon="-1.4186">
        <ele>111</ele>
        <time>2021-10-09T11:50:55.000Z</time>
      </trkpt>
      <trkpt lat="47.36639" lon="-1.41846">
        <ele>111</ele>
        <time>2021-10-09T11:50:57.000Z</time>
      </trkpt>
      <trkpt lat="47.36638" lon="-1.41831">
        <ele>111</ele>
        <time>2021-10-09T11:50:59.000Z</time>
      </trkpt>
      <trkpt lat="47.36637" lon="-1.41816">
        <ele>111</ele>
        <time>2021-10-09T11:51:01.000Z</time>
      </trkpt>
      <trkpt lat="47.36636" lon="-1.41801">
        <ele>111</ele>
        <time>2021-10-09T11:51:03.000Z</time>
      </trkpt>
      <trkpt lat="47.36634" lon="-1.41786">
        <ele>112</ele>
        <time>2021-10-09T11:51:05.000Z</time>
      </trkpt>
      <trkpt lat="47.36633" lon="-1.41772">
        <ele>112</ele>
        <time>2021-10-09T11:51:07.000Z</time>
      </trkpt>
      <trkpt lat="47.36632" lon="-1.41757">
        <ele>113</ele>
        <time>2021-10-09T11:51:09.000Z</time>
      </trkpt>
      <trkpt lat="47.3663" lon="-1.41743">
        <ele>113</ele>
        <time>2021-10-09T11:51:11.000Z</time>
      </trkpt>
      <trkpt lat="47.36629" lon="-1.41728">
        <ele>113</ele>
        <time>2021-10-09T11:51:13.000Z</time>
      </trkpt>
      <trkpt lat="47.36627" lon="-1.41712">
        <ele>113</ele>
        <time>2021-10-09T11:51:15.000Z</time>
      </trkpt>
      <trkpt lat="47.36626" lon="-1.41698">
        <ele>113</ele>
        <time>2021-10-09T11:51:17.000Z</time>
      </trkpt>
      <trkpt lat="47.36625" lon="-1.41683">
        <ele>113</ele>
        <time>2021-10-09T11:51:19.000Z</time>
      </trkpt>
      <trkpt lat="47.36625" lon="-1.41668">
        <ele>112</ele>
        <time>2021-10-09T11:51:21.000Z</time>
      </trkpt>
      <trkpt lat="47.36625" lon="-1.41652">
        <ele>112</ele>
        <time>2021-10-09T11:51:23.000Z</time>
      </trkpt>
      <trkpt lat="47.36625" lon="-1.41636">
        <ele>112</ele>
        <time>2021-10-09T11:51:25.000Z</time>
      </trkpt>
      <trkpt lat="47.36625" lon="-1.4162">
        <ele>112</ele>
        <time>2021-10-09T11:51:27.000Z</time>
      </trkpt>
      <trkpt lat="47.36625" lon="-1.41604">
        <ele>112</ele>
        <time>2021-10-09T11:51:29.000Z</time>
      </trkpt>
      <trkpt lat="47.36627" lon="-1.41589">
        <ele>112</ele>
        <time>2021-10-09T11:51:31.000Z</time>
      </trkpt>
      <trkpt lat="47.36628" lon="-1.41573">
        <ele>112</ele>
        <time>2021-10-09T11:51:33.000Z</time>
      </trkpt>
      <trkpt lat="47.36629" lon="-1.4156">
        <ele>112</ele>
        <time>2021-10-09T11:51:35.000Z</time>
      </trkpt>
      <trkpt lat="47.3663" lon="-1.41545">
        <ele>113</ele>
        <time>2021-10-09T11:51:37.000Z</time>
      </trkpt>
      <trkpt lat="47.36633" lon="-1.4153">
        <ele>113</ele>
        <time>2021-10-09T11:51:39.000Z</time>
      </trkpt>
      <trkpt lat="47.36638" lon="-1.41515">
        <ele>113</ele>
        <time>2021-10-09T11:51:41.000Z</time>
      </trkpt>
      <trkpt lat="47.36642" lon="-1.415">
        <ele>113</ele>
        <time>2021-10-09T11:51:43.000Z</time>
      </trkpt>
      <trkpt lat="47.36648" lon="-1.41476">
        <ele>113</ele>
        <time>2021-10-09T11:51:46.000Z</time>
      </trkpt>
      <trkpt lat="47.36652" lon="-1.4146">
        <ele>113</ele>
        <time>2021-10-09T11:51:48.000Z</time>
      </trkpt>
      <trkpt lat="47.36657" lon="-1.41444">
        <ele>112</ele>
        <time>2021-10-09T11:51:50.000Z</time>
      </trkpt>
      <trkpt lat="47.36662" lon="-1.41428">
        <ele>113</ele>
        <time>2021-10-09T11:51:52.000Z</time>
      </trkpt>
      <trkpt lat="47.3667" lon="-1.41405">
        <ele>113</ele>
        <time>2021-10-09T11:51:55.000Z</time>
      </trkpt>
      <trkpt lat="47.36676" lon="-1.4139">
        <ele>113</ele>
        <time>2021-10-09T11:51:57.000Z</time>
      </trkpt>
      <trkpt lat="47.36682" lon="-1.41375">
        <ele>113</ele>
        <time>2021-10-09T11:51:59.000Z</time>
      </trkpt>
      <trkpt lat="47.3669" lon="-1.41351">
        <ele>112</ele>
        <time>2021-10-09T11:52:02.000Z</time>
      </trkpt>
      <trkpt lat="47.36696" lon="-1.41336">
        <ele>113</ele>
        <time>2021-10-09T11:52:04.000Z</time>
      </trkpt>
      <trkpt lat="47.36701" lon="-1.4132">
        <ele>113</ele>
        <time>2021-10-09T11:52:06.000Z</time>
      </trkpt>
      <trkpt lat="47.3671" lon="-1.41296">
        <ele>112</ele>
        <time>2021-10-09T11:52:09.000Z</time>
      </trkpt>
      <trkpt lat="47.36716" lon="-1.4128">
        <ele>112</ele>
        <time>2021-10-09T11:52:11.000Z</time>
      </trkpt>
      <trkpt lat="47.36721" lon="-1.41264">
        <ele>112</ele>
        <time>2021-10-09T11:52:13.000Z</time>
      </trkpt>
      <trkpt lat="47.3673" lon="-1.41239">
        <ele>112</ele>
        <time>2021-10-09T11:52:16.000Z</time>
      </trkpt>
      <trkpt lat="47.36736" lon="-1.41223">
        <ele>112</ele>
        <time>2021-10-09T11:52:18.000Z</time>
      </trkpt>
      <trkpt lat="47.36741" lon="-1.41208">
        <ele>112</ele>
        <time>2021-10-09T11:52:20.000Z</time>
      </trkpt>
      <trkpt lat="47.36744" lon="-1.4119">
        <ele>111</ele>
        <time>2021-10-09T11:52:22.000Z</time>
      </trkpt>
      <trkpt lat="47.36743" lon="-1.41172">
        <ele>111</ele>
        <time>2021-10-09T11:52:24.000Z</time>
      </trkpt>
      <trkpt lat="47.36739" lon="-1.41154">
        <ele>111</ele>
        <time>2021-10-09T11:52:26.000Z</time>
      </trkpt>
      <trkpt lat="47.36736" lon="-1.41137">
        <ele>110</ele>
        <time>2021-10-09T11:52:28.000Z</time>
      </trkpt>
      <trkpt lat="47.36732" lon="-1.41119">
        <ele>110</ele>
        <time>2021-10-09T11:52:30.000Z</time>
      </trkpt>
      <trkpt lat="47.36728" lon="-1.41102">
        <ele>110</ele>
        <time>2021-10-09T11:52:32.000Z</time>
      </trkpt>
      <trkpt lat="47.36724" lon="-1.41084">
        <ele>110</ele>
        <time>2021-10-09T11:52:34.000Z</time>
      </trkpt>
      <trkpt lat="47.36719" lon="-1.41066">
        <ele>109</ele>
        <time>2021-10-09T11:52:36.000Z</time>
      </trkpt>
      <trkpt lat="47.36715" lon="-1.41048">
        <ele>109</ele>
        <time>2021-10-09T11:52:38.000Z</time>
      </trkpt>
      <trkpt lat="47.3671" lon="-1.41032">
        <ele>109</ele>
        <time>2021-10-09T11:52:40.000Z</time>
      </trkpt>
      <trkpt lat="47.36705" lon="-1.41015">
        <ele>109</ele>
        <time>2021-10-09T11:52:42.000Z</time>
      </trkpt>
      <trkpt lat="47.36701" lon="-1.40998">
        <ele>109</ele>
        <time>2021-10-09T11:52:44.000Z</time>
      </trkpt>
      <trkpt lat="47.36697" lon="-1.40981">
        <ele>109</ele>
        <time>2021-10-09T11:52:46.000Z</time>
      </trkpt>
      <trkpt lat="47.36694" lon="-1.40964">
        <ele>109</ele>
        <time>2021-10-09T11:52:48.000Z</time>
      </trkpt>
      <trkpt lat="47.36692" lon="-1.40946">
        <ele>110</ele>
        <time>2021-10-09T11:52:50.000Z</time>
      </trkpt>
      <trkpt lat="47.3669" lon="-1.40929">
        <ele>110</ele>
        <time>2021-10-09T11:52:52.000Z</time>
      </trkpt>
      <trkpt lat="47.3669" lon="-1.40911">
        <ele>110</ele>
        <time>2021-10-09T11:52:54.000Z</time>
      </trkpt>
      <trkpt lat="47.36689" lon="-1.40893">
        <ele>110</ele>
        <time>2021-10-09T11:52:56.000Z</time>
      </trkpt>
      <trkpt lat="47.3669" lon="-1.40875">
        <ele>110</ele>
        <time>2021-10-09T11:52:58.000Z</time>
      </trkpt>
      <trkpt lat="47.3669" lon="-1.40858">
        <ele>111</ele>
        <time>2021-10-09T11:53:00.000Z</time>
      </trkpt>
      <trkpt lat="47.36691" lon="-1.40841">
        <ele>111</ele>
        <time>2021-10-09T11:53:02.000Z</time>
      </trkpt>
      <trkpt lat="47.36691" lon="-1.40824">
        <ele>111</ele>
        <time>2021-10-09T11:53:04.000Z</time>
      </trkpt>
      <trkpt lat="47.36691" lon="-1.40807">
        <ele>111</ele>
        <time>2021-10-09T11:53:06.000Z</time>
      </trkpt>
      <trkpt lat="47.36692" lon="-1.40791">
        <ele>111</ele>
        <time>2021-10-09T11:53:08.000Z</time>
      </trkpt>
      <trkpt lat="47.36693" lon="-1.40774">
        <ele>111</ele>
        <time>2021-10-09T11:53:10.000Z</time>
      </trkpt>
      <trkpt lat="47.36693" lon="-1.40757">
        <ele>111</ele>
        <time>2021-10-09T11:53:12.000Z</time>
      </trkpt>
      <trkpt lat="47.36694" lon="-1.4074">
        <ele>111</ele>
        <time>2021-10-09T11:53:14.000Z</time>
      </trkpt>
      <trkpt lat="47.36694" lon="-1.40724">
        <ele>111</ele>
        <time>2021-10-09T11:53:16.000Z</time>
      </trkpt>
      <trkpt lat="47.36695" lon="-1.40709">
        <ele>111</ele>
        <time>2021-10-09T11:53:18.000Z</time>
      </trkpt>
      <trkpt lat="47.36695" lon="-1.40692">
        <ele>111</ele>
        <time>2021-10-09T11:53:20.000Z</time>
      </trkpt>
      <trkpt lat="47.36696" lon="-1.40675">
        <ele>111</ele>
        <time>2021-10-09T11:53:22.000Z</time>
      </trkpt>
      <trkpt lat="47.36696" lon="-1.40658">
        <ele>111</ele>
        <time>2021-10-09T11:53:24.000Z</time>
      </trkpt>
      <trkpt lat="47.36697" lon="-1.40641">
        <ele>111</ele>
        <time>2021-10-09T11:53:26.000Z</time>
      </trkpt>
      <trkpt lat="47.36698" lon="-1.40623">
        <ele>111</ele>
        <time>2021-10-09T11:53:28.000Z</time>
      </trkpt>
      <trkpt lat="47.367" lon="-1.40608">
        <ele>111</ele>
        <time>2021-10-09T11:53:30.000Z</time>
      </trkpt>
      <trkpt lat="47.36701" lon="-1.40594">
        <ele>110</ele>
        <time>2021-10-09T11:53:32.000Z</time>
      </trkpt>
      <trkpt lat="47.367" lon="-1.40577">
        <ele>110</ele>
        <time>2021-10-09T11:53:34.000Z</time>
      </trkpt>
      <trkpt lat="47.36699" lon="-1.40561">
        <ele>109</ele>
        <time>2021-10-09T11:53:36.000Z</time>
      </trkpt>
      <trkpt lat="47.36699" lon="-1.40544">
        <ele>109</ele>
        <time>2021-10-09T11:53:38.000Z</time>
      </trkpt>
      <trkpt lat="47.36697" lon="-1.4053">
        <ele>109</ele>
        <time>2021-10-09T11:53:40.000Z</time>
      </trkpt>
      <trkpt lat="47.36702" lon="-1.40516">
        <ele>108</ele>
        <time>2021-10-09T11:53:43.000Z</time>
      </trkpt>
      <trkpt lat="47.36713" lon="-1.40513">
        <ele>107</ele>
        <time>2021-10-09T11:53:45.000Z</time>
      </trkpt>
      <trkpt lat="47.36722" lon="-1.40507">
        <ele>107</ele>
        <time>2021-10-09T11:53:47.000Z</time>
      </trkpt>
      <trkpt lat="47.36725" lon="-1.40489">
        <ele>107</ele>
        <time>2021-10-09T11:53:49.000Z</time>
      </trkpt>
      <trkpt lat="47.36728" lon="-1.40471">
        <ele>106</ele>
        <time>2021-10-09T11:53:51.000Z</time>
      </trkpt>
      <trkpt lat="47.36729" lon="-1.40451">
        <ele>106</ele>
        <time>2021-10-09T11:53:53.000Z</time>
      </trkpt>
      <trkpt lat="47.3673" lon="-1.40432">
        <ele>105</ele>
        <time>2021-10-09T11:53:55.000Z</time>
      </trkpt>
      <trkpt lat="47.36732" lon="-1.40412">
        <ele>105</ele>
        <time>2021-10-09T11:53:57.000Z</time>
      </trkpt>
      <trkpt lat="47.36736" lon="-1.40392">
        <ele>104</ele>
        <time>2021-10-09T11:53:59.000Z</time>
      </trkpt>
      <trkpt lat="47.36739" lon="-1.40373">
        <ele>104</ele>
        <time>2021-10-09T11:54:01.000Z</time>
      </trkpt>
      <trkpt lat="47.36743" lon="-1.40355">
        <ele>104</ele>
        <time>2021-10-09T11:54:03.000Z</time>
      </trkpt>
      <trkpt lat="47.36745" lon="-1.40336">
        <ele>104</ele>
        <time>2021-10-09T11:54:05.000Z</time>
      </trkpt>
      <trkpt lat="47.36748" lon="-1.40318">
        <ele>104</ele>
        <time>2021-10-09T11:54:07.000Z</time>
      </trkpt>
      <trkpt lat="47.36751" lon="-1.40299">
        <ele>103</ele>
        <time>2021-10-09T11:54:09.000Z</time>
      </trkpt>
      <trkpt lat="47.36754" lon="-1.40281">
        <ele>103</ele>
        <time>2021-10-09T11:54:11.000Z</time>
      </trkpt>
      <trkpt lat="47.36757" lon="-1.40262">
        <ele>103</ele>
        <time>2021-10-09T11:54:13.000Z</time>
      </trkpt>
      <trkpt lat="47.36759" lon="-1.40242">
        <ele>103</ele>
        <time>2021-10-09T11:54:15.000Z</time>
      </trkpt>
      <trkpt lat="47.36761" lon="-1.40222">
        <ele>103</ele>
        <time>2021-10-09T11:54:17.000Z</time>
      </trkpt>
      <trkpt lat="47.36763" lon="-1.402">
        <ele>103</ele>
        <time>2021-10-09T11:54:19.000Z</time>
      </trkpt>
      <trkpt lat="47.36764" lon="-1.40181">
        <ele>103</ele>
        <time>2021-10-09T11:54:21.000Z</time>
      </trkpt>
      <trkpt lat="47.36764" lon="-1.40162">
        <ele>104</ele>
        <time>2021-10-09T11:54:23.000Z</time>
      </trkpt>
      <trkpt lat="47.36765" lon="-1.40142">
        <ele>103</ele>
        <time>2021-10-09T11:54:25.000Z</time>
      </trkpt>
      <trkpt lat="47.36765" lon="-1.40122">
        <ele>103</ele>
        <time>2021-10-09T11:54:27.000Z</time>
      </trkpt>
      <trkpt lat="47.36765" lon="-1.40102">
        <ele>103</ele>
        <time>2021-10-09T11:54:29.000Z</time>
      </trkpt>
      <trkpt lat="47.36765" lon="-1.40084">
        <ele>104</ele>
        <time>2021-10-09T11:54:31.000Z</time>
      </trkpt>
      <trkpt lat="47.36765" lon="-1.40066">
        <ele>104</ele>
        <time>2021-10-09T11:54:33.000Z</time>
      </trkpt>
      <trkpt lat="47.36765" lon="-1.40049">
        <ele>104</ele>
        <time>2021-10-09T11:54:35.000Z</time>
      </trkpt>
      <trkpt lat="47.36764" lon="-1.40033">
        <ele>104</ele>
        <time>2021-10-09T11:54:37.000Z</time>
      </trkpt>
      <trkpt lat="47.36765" lon="-1.40018">
        <ele>104</ele>
        <time>2021-10-09T11:54:39.000Z</time>
      </trkpt>
      <trkpt lat="47.36765" lon="-1.40002">
        <ele>104</ele>
        <time>2021-10-09T11:54:41.000Z</time>
      </trkpt>
      <trkpt lat="47.36765" lon="-1.39987">
        <ele>105</ele>
        <time>2021-10-09T11:54:43.000Z</time>
      </trkpt>
      <trkpt lat="47.36765" lon="-1.39972">
        <ele>105</ele>
        <time>2021-10-09T11:54:45.000Z</time>
      </trkpt>
      <trkpt lat="47.36765" lon="-1.39956">
        <ele>105</ele>
        <time>2021-10-09T11:54:47.000Z</time>
      </trkpt>
      <trkpt lat="47.36765" lon="-1.3994">
        <ele>105</ele>
        <time>2021-10-09T11:54:49.000Z</time>
      </trkpt>
      <trkpt lat="47.36766" lon="-1.39927">
        <ele>106</ele>
        <time>2021-10-09T11:54:51.000Z</time>
      </trkpt>
      <trkpt lat="47.36766" lon="-1.39913">
        <ele>106</ele>
        <time>2021-10-09T11:54:53.000Z</time>
      </trkpt>
      <trkpt lat="47.36765" lon="-1.39898">
        <ele>106</ele>
        <time>2021-10-09T11:54:55.000Z</time>
      </trkpt>
      <trkpt lat="47.36766" lon="-1.39883">
        <ele>106</ele>
        <time>2021-10-09T11:54:57.000Z</time>
      </trkpt>
      <trkpt lat="47.36765" lon="-1.39868">
        <ele>106</ele>
        <time>2021-10-09T11:54:59.000Z</time>
      </trkpt>
      <trkpt lat="47.36766" lon="-1.39852">
        <ele>107</ele>
        <time>2021-10-09T11:55:01.000Z</time>
      </trkpt>
      <trkpt lat="47.36766" lon="-1.39837">
        <ele>107</ele>
        <time>2021-10-09T11:55:03.000Z</time>
      </trkpt>
      <trkpt lat="47.36766" lon="-1.3982">
        <ele>107</ele>
        <time>2021-10-09T11:55:05.000Z</time>
      </trkpt>
      <trkpt lat="47.36766" lon="-1.39805">
        <ele>107</ele>
        <time>2021-10-09T11:55:07.000Z</time>
      </trkpt>
      <trkpt lat="47.36766" lon="-1.3979">
        <ele>107</ele>
        <time>2021-10-09T11:55:09.000Z</time>
      </trkpt>
      <trkpt lat="47.36765" lon="-1.39775">
        <ele>107</ele>
        <time>2021-10-09T11:55:11.000Z</time>
      </trkpt>
      <trkpt lat="47.36765" lon="-1.39761">
        <ele>108</ele>
        <time>2021-10-09T11:55:13.000Z</time>
      </trkpt>
      <trkpt lat="47.36765" lon="-1.39747">
        <ele>109</ele>
        <time>2021-10-09T11:55:15.000Z</time>
      </trkpt>
      <trkpt lat="47.36765" lon="-1.39733">
        <ele>109</ele>
        <time>2021-10-09T11:55:17.000Z</time>
      </trkpt>
      <trkpt lat="47.36765" lon="-1.39719">
        <ele>109</ele>
        <time>2021-10-09T11:55:19.000Z</time>
      </trkpt>
      <trkpt lat="47.36765" lon="-1.39703">
        <ele>109</ele>
        <time>2021-10-09T11:55:21.000Z</time>
      </trkpt>
      <trkpt lat="47.36765" lon="-1.39688">
        <ele>109</ele>
        <time>2021-10-09T11:55:23.000Z</time>
      </trkpt>
      <trkpt lat="47.36765" lon="-1.39672">
        <ele>110</ele>
        <time>2021-10-09T11:55:25.000Z</time>
      </trkpt>
      <trkpt lat="47.36765" lon="-1.39657">
        <ele>110</ele>
        <time>2021-10-09T11:55:27.000Z</time>
      </trkpt>
      <trkpt lat="47.36765" lon="-1.39644">
        <ele>110</ele>
        <time>2021-10-09T11:55:29.000Z</time>
      </trkpt>
      <trkpt lat="47.36765" lon="-1.39629">
        <ele>110</ele>
        <time>2021-10-09T11:55:31.000Z</time>
      </trkpt>
      <trkpt lat="47.36765" lon="-1.39615">
        <ele>110</ele>
        <time>2021-10-09T11:55:33.000Z</time>
      </trkpt>
      <trkpt lat="47.36765" lon="-1.39601">
        <ele>110</ele>
        <time>2021-10-09T11:55:35.000Z</time>
      </trkpt>
      <trkpt lat="47.36765" lon="-1.39586">
        <ele>110</ele>
        <time>2021-10-09T11:55:37.000Z</time>
      </trkpt>
      <trkpt lat="47.36765" lon="-1.3957">
        <ele>110</ele>
        <time>2021-10-09T11:55:39.000Z</time>
      </trkpt>
      <trkpt lat="47.36765" lon="-1.39555">
        <ele>111</ele>
        <time>2021-10-09T11:55:41.000Z</time>
      </trkpt>
      <trkpt lat="47.36765" lon="-1.39539">
        <ele>111</ele>
        <time>2021-10-09T11:55:43.000Z</time>
      </trkpt>
      <trkpt lat="47.36765" lon="-1.39522">
        <ele>111</ele>
        <time>2021-10-09T11:55:45.000Z</time>
      </trkpt>
      <trkpt lat="47.36765" lon="-1.39506">
        <ele>111</ele>
        <time>2021-10-09T11:55:47.000Z</time>
      </trkpt>
      <trkpt lat="47.36765" lon="-1.3949">
        <ele>112</ele>
        <time>2021-10-09T11:55:49.000Z</time>
      </trkpt>
      <trkpt lat="47.36765" lon="-1.39474">
        <ele>112</ele>
        <time>2021-10-09T11:55:51.000Z</time>
      </trkpt>
      <trkpt lat="47.36765" lon="-1.39457">
        <ele>113</ele>
        <time>2021-10-09T11:55:53.000Z</time>
      </trkpt>
      <trkpt lat="47.36765" lon="-1.3944">
        <ele>113</ele>
        <time>2021-10-09T11:55:55.000Z</time>
      </trkpt>
      <trkpt lat="47.36766" lon="-1.39424">
        <ele>113</ele>
        <time>2021-10-09T11:55:57.000Z</time>
      </trkpt>
      <trkpt lat="47.36766" lon="-1.39406">
        <ele>113</ele>
        <time>2021-10-09T11:55:59.000Z</time>
      </trkpt>
      <trkpt lat="47.36766" lon="-1.3939">
        <ele>113</ele>
        <time>2021-10-09T11:56:01.000Z</time>
      </trkpt>
      <trkpt lat="47.36766" lon="-1.39373">
        <ele>113</ele>
        <time>2021-10-09T11:56:03.000Z</time>
      </trkpt>
      <trkpt lat="47.36765" lon="-1.39356">
        <ele>113</ele>
        <time>2021-10-09T11:56:05.000Z</time>
      </trkpt>
      <trkpt lat="47.36764" lon="-1.39339">
        <ele>112</ele>
        <time>2021-10-09T11:56:07.000Z</time>
      </trkpt>
      <trkpt lat="47.36762" lon="-1.39323">
        <ele>112</ele>
        <time>2021-10-09T11:56:09.000Z</time>
      </trkpt>
      <trkpt lat="47.36759" lon="-1.39307">
        <ele>112</ele>
        <time>2021-10-09T11:56:11.000Z</time>
      </trkpt>
      <trkpt lat="47.36756" lon="-1.39292">
        <ele>113</ele>
        <time>2021-10-09T11:56:13.000Z</time>
      </trkpt>
      <trkpt lat="47.36752" lon="-1.39277">
        <ele>113</ele>
        <time>2021-10-09T11:56:15.000Z</time>
      </trkpt>
      <trkpt lat="47.36746" lon="-1.39262">
        <ele>113</ele>
        <time>2021-10-09T11:56:17.000Z</time>
      </trkpt>
      <trkpt lat="47.36741" lon="-1.39248">
        <ele>114</ele>
        <time>2021-10-09T11:56:19.000Z</time>
      </trkpt>
      <trkpt lat="47.36734" lon="-1.39235">
        <ele>114</ele>
        <time>2021-10-09T11:56:21.000Z</time>
      </trkpt>
      <trkpt lat="47.36729" lon="-1.39221">
        <ele>115</ele>
        <time>2021-10-09T11:56:23.000Z</time>
      </trkpt>
      <trkpt lat="47.36722" lon="-1.39208">
        <ele>115</ele>
        <time>2021-10-09T11:56:25.000Z</time>
      </trkpt>
      <trkpt lat="47.36716" lon="-1.39194">
        <ele>115</ele>
        <time>2021-10-09T11:56:27.000Z</time>
      </trkpt>
      <trkpt lat="47.36709" lon="-1.39181">
        <ele>115</ele>
        <time>2021-10-09T11:56:29.000Z</time>
      </trkpt>
      <trkpt lat="47.36703" lon="-1.39168">
        <ele>115</ele>
        <time>2021-10-09T11:56:31.000Z</time>
      </trkpt>
      <trkpt lat="47.36696" lon="-1.39154">
        <ele>115</ele>
        <time>2021-10-09T11:56:33.000Z</time>
      </trkpt>
      <trkpt lat="47.3669" lon="-1.3914">
        <ele>115</ele>
        <time>2021-10-09T11:56:35.000Z</time>
      </trkpt>
      <trkpt lat="47.36683" lon="-1.39126">
        <ele>115</ele>
        <time>2021-10-09T11:56:37.000Z</time>
      </trkpt>
      <trkpt lat="47.36677" lon="-1.39113">
        <ele>115</ele>
        <time>2021-10-09T11:56:39.000Z</time>
      </trkpt>
      <trkpt lat="47.3667" lon="-1.39099">
        <ele>116</ele>
        <time>2021-10-09T11:56:41.000Z</time>
      </trkpt>
      <trkpt lat="47.36664" lon="-1.39085">
        <ele>116</ele>
        <time>2021-10-09T11:56:43.000Z</time>
      </trkpt>
      <trkpt lat="47.36657" lon="-1.39072">
        <ele>117</ele>
        <time>2021-10-09T11:56:45.000Z</time>
      </trkpt>
      <trkpt lat="47.3665" lon="-1.39059">
        <ele>117</ele>
        <time>2021-10-09T11:56:47.000Z</time>
      </trkpt>
      <trkpt lat="47.36643" lon="-1.39044">
        <ele>117</ele>
        <time>2021-10-09T11:56:49.000Z</time>
      </trkpt>
      <trkpt lat="47.36637" lon="-1.3903">
        <ele>117</ele>
        <time>2021-10-09T11:56:51.000Z</time>
      </trkpt>
      <trkpt lat="47.3663" lon="-1.39016">
        <ele>117</ele>
        <time>2021-10-09T11:56:53.000Z</time>
      </trkpt>
      <trkpt lat="47.36623" lon="-1.39001">
        <ele>118</ele>
        <time>2021-10-09T11:56:55.000Z</time>
      </trkpt>
      <trkpt lat="47.36616" lon="-1.38987">
        <ele>118</ele>
        <time>2021-10-09T11:56:57.000Z</time>
      </trkpt>
      <trkpt lat="47.3661" lon="-1.38973">
        <ele>118</ele>
        <time>2021-10-09T11:56:59.000Z</time>
      </trkpt>
      <trkpt lat="47.36603" lon="-1.38958">
        <ele>118</ele>
        <time>2021-10-09T11:57:01.000Z</time>
      </trkpt>
      <trkpt lat="47.36596" lon="-1.38944">
        <ele>118</ele>
        <time>2021-10-09T11:57:03.000Z</time>
      </trkpt>
      <trkpt lat="47.3659" lon="-1.38929">
        <ele>118</ele>
        <time>2021-10-09T11:57:05.000Z</time>
      </trkpt>
      <trkpt lat="47.36583" lon="-1.38915">
        <ele>118</ele>
        <time>2021-10-09T11:57:07.000Z</time>
      </trkpt>
      <trkpt lat="47.36577" lon="-1.389">
        <ele>119</ele>
        <time>2021-10-09T11:57:09.000Z</time>
      </trkpt>
      <trkpt lat="47.36569" lon="-1.38887">
        <ele>118</ele>
        <time>2021-10-09T11:57:11.000Z</time>
      </trkpt>
      <trkpt lat="47.36562" lon="-1.38873">
        <ele>118</ele>
        <time>2021-10-09T11:57:13.000Z</time>
      </trkpt>
      <trkpt lat="47.36555" lon="-1.38858">
        <ele>118</ele>
        <time>2021-10-09T11:57:15.000Z</time>
      </trkpt>
      <trkpt lat="47.36548" lon="-1.38845">
        <ele>118</ele>
        <time>2021-10-09T11:57:17.000Z</time>
      </trkpt>
      <trkpt lat="47.36541" lon="-1.38831">
        <ele>118</ele>
        <time>2021-10-09T11:57:19.000Z</time>
      </trkpt>
      <trkpt lat="47.36535" lon="-1.38818">
        <ele>119</ele>
        <time>2021-10-09T11:57:21.000Z</time>
      </trkpt>
      <trkpt lat="47.36528" lon="-1.38804">
        <ele>119</ele>
        <time>2021-10-09T11:57:23.000Z</time>
      </trkpt>
      <trkpt lat="47.36522" lon="-1.3879">
        <ele>119</ele>
        <time>2021-10-09T11:57:25.000Z</time>
      </trkpt>
      <trkpt lat="47.36515" lon="-1.38776">
        <ele>119</ele>
        <time>2021-10-09T11:57:27.000Z</time>
      </trkpt>
      <trkpt lat="47.36508" lon="-1.38762">
        <ele>119</ele>
        <time>2021-10-09T11:57:29.000Z</time>
      </trkpt>
      <trkpt lat="47.36502" lon="-1.38748">
        <ele>119</ele>
        <time>2021-10-09T11:57:31.000Z</time>
      </trkpt>
      <trkpt lat="47.36495" lon="-1.38734">
        <ele>119</ele>
        <time>2021-10-09T11:57:33.000Z</time>
      </trkpt>
      <trkpt lat="47.36488" lon="-1.3872">
        <ele>119</ele>
        <time>2021-10-09T11:57:35.000Z</time>
      </trkpt>
      <trkpt lat="47.36482" lon="-1.38706">
        <ele>120</ele>
        <time>2021-10-09T11:57:37.000Z</time>
      </trkpt>
      <trkpt lat="47.36475" lon="-1.38691">
        <ele>120</ele>
        <time>2021-10-09T11:57:39.000Z</time>
      </trkpt>
      <trkpt lat="47.36468" lon="-1.38677">
        <ele>120</ele>
        <time>2021-10-09T11:57:41.000Z</time>
      </trkpt>
      <trkpt lat="47.36461" lon="-1.38662">
        <ele>120</ele>
        <time>2021-10-09T11:57:43.000Z</time>
      </trkpt>
      <trkpt lat="47.36455" lon="-1.38648">
        <ele>120</ele>
        <time>2021-10-09T11:57:45.000Z</time>
      </trkpt>
      <trkpt lat="47.36448" lon="-1.38633">
        <ele>120</ele>
        <time>2021-10-09T11:57:47.000Z</time>
      </trkpt>
      <trkpt lat="47.36441" lon="-1.38619">
        <ele>120</ele>
        <time>2021-10-09T11:57:49.000Z</time>
      </trkpt>
      <trkpt lat="47.36434" lon="-1.38605">
        <ele>120</ele>
        <time>2021-10-09T11:57:51.000Z</time>
      </trkpt>
      <trkpt lat="47.36427" lon="-1.38591">
        <ele>120</ele>
        <time>2021-10-09T11:57:53.000Z</time>
      </trkpt>
      <trkpt lat="47.3642" lon="-1.38577">
        <ele>120</ele>
        <time>2021-10-09T11:57:55.000Z</time>
      </trkpt>
      <trkpt lat="47.36413" lon="-1.38562">
        <ele>120</ele>
        <time>2021-10-09T11:57:57.000Z</time>
      </trkpt>
      <trkpt lat="47.36404" lon="-1.38549">
        <ele>120</ele>
        <time>2021-10-09T11:57:59.000Z</time>
      </trkpt>
      <trkpt lat="47.36396" lon="-1.38536">
        <ele>120</ele>
        <time>2021-10-09T11:58:01.000Z</time>
      </trkpt>
      <trkpt lat="47.36387" lon="-1.38522">
        <ele>120</ele>
        <time>2021-10-09T11:58:03.000Z</time>
      </trkpt>
      <trkpt lat="47.36378" lon="-1.38509">
        <ele>120</ele>
        <time>2021-10-09T11:58:05.000Z</time>
      </trkpt>
      <trkpt lat="47.3637" lon="-1.38496">
        <ele>120</ele>
        <time>2021-10-09T11:58:07.000Z</time>
      </trkpt>
      <trkpt lat="47.36361" lon="-1.38483">
        <ele>120</ele>
        <time>2021-10-09T11:58:09.000Z</time>
      </trkpt>
      <trkpt lat="47.36352" lon="-1.3847">
        <ele>120</ele>
        <time>2021-10-09T11:58:11.000Z</time>
      </trkpt>
      <trkpt lat="47.36343" lon="-1.38457">
        <ele>120</ele>
        <time>2021-10-09T11:58:13.000Z</time>
      </trkpt>
      <trkpt lat="47.36334" lon="-1.38443">
        <ele>120</ele>
        <time>2021-10-09T11:58:15.000Z</time>
      </trkpt>
      <trkpt lat="47.36325" lon="-1.38429">
        <ele>119</ele>
        <time>2021-10-09T11:58:17.000Z</time>
      </trkpt>
      <trkpt lat="47.36316" lon="-1.38415">
        <ele>119</ele>
        <time>2021-10-09T11:58:19.000Z</time>
      </trkpt>
      <trkpt lat="47.36307" lon="-1.38402">
        <ele>119</ele>
        <time>2021-10-09T11:58:21.000Z</time>
      </trkpt>
      <trkpt lat="47.36298" lon="-1.38388">
        <ele>119</ele>
        <time>2021-10-09T11:58:23.000Z</time>
      </trkpt>
      <trkpt lat="47.36289" lon="-1.38374">
        <ele>119</ele>
        <time>2021-10-09T11:58:25.000Z</time>
      </trkpt>
      <trkpt lat="47.3628" lon="-1.3836">
        <ele>119</ele>
        <time>2021-10-09T11:58:27.000Z</time>
      </trkpt>
      <trkpt lat="47.36271" lon="-1.38346">
        <ele>119</ele>
        <time>2021-10-09T11:58:29.000Z</time>
      </trkpt>
      <trkpt lat="47.36262" lon="-1.38333">
        <ele>118</ele>
        <time>2021-10-09T11:58:31.000Z</time>
      </trkpt>
      <trkpt lat="47.36253" lon="-1.3832">
        <ele>118</ele>
        <time>2021-10-09T11:58:33.000Z</time>
      </trkpt>
      <trkpt lat="47.36244" lon="-1.38306">
        <ele>118</ele>
        <time>2021-10-09T11:58:35.000Z</time>
      </trkpt>
      <trkpt lat="47.36235" lon="-1.38292">
        <ele>118</ele>
        <time>2021-10-09T11:58:37.000Z</time>
      </trkpt>
      <trkpt lat="47.36226" lon="-1.38279">
        <ele>118</ele>
        <time>2021-10-09T11:58:39.000Z</time>
      </trkpt>
      <trkpt lat="47.36217" lon="-1.38266">
        <ele>118</ele>
        <time>2021-10-09T11:58:41.000Z</time>
      </trkpt>
      <trkpt lat="47.36208" lon="-1.38252">
        <ele>118</ele>
        <time>2021-10-09T11:58:43.000Z</time>
      </trkpt>
      <trkpt lat="47.36198" lon="-1.38239">
        <ele>117</ele>
        <time>2021-10-09T11:58:45.000Z</time>
      </trkpt>
      <trkpt lat="47.36189" lon="-1.38225">
        <ele>118</ele>
        <time>2021-10-09T11:58:47.000Z</time>
      </trkpt>
      <trkpt lat="47.36181" lon="-1.38212">
        <ele>118</ele>
        <time>2021-10-09T11:58:49.000Z</time>
      </trkpt>
      <trkpt lat="47.36172" lon="-1.38199">
        <ele>118</ele>
        <time>2021-10-09T11:58:51.000Z</time>
      </trkpt>
      <trkpt lat="47.36163" lon="-1.38185">
        <ele>118</ele>
        <time>2021-10-09T11:58:53.000Z</time>
      </trkpt>
      <trkpt lat="47.36155" lon="-1.38173">
        <ele>119</ele>
        <time>2021-10-09T11:58:55.000Z</time>
      </trkpt>
      <trkpt lat="47.36147" lon="-1.38159">
        <ele>119</ele>
        <time>2021-10-09T11:58:57.000Z</time>
      </trkpt>
      <trkpt lat="47.36138" lon="-1.38146">
        <ele>119</ele>
        <time>2021-10-09T11:58:59.000Z</time>
      </trkpt>
      <trkpt lat="47.36129" lon="-1.38133">
        <ele>119</ele>
        <time>2021-10-09T11:59:01.000Z</time>
      </trkpt>
      <trkpt lat="47.3612" lon="-1.3812">
        <ele>120</ele>
        <time>2021-10-09T11:59:03.000Z</time>
      </trkpt>
      <trkpt lat="47.36112" lon="-1.38108">
        <ele>120</ele>
        <time>2021-10-09T11:59:05.000Z</time>
      </trkpt>
      <trkpt lat="47.36104" lon="-1.38097">
        <ele>120</ele>
        <time>2021-10-09T11:59:07.000Z</time>
      </trkpt>
      <trkpt lat="47.36096" lon="-1.38085">
        <ele>120</ele>
        <time>2021-10-09T11:59:09.000Z</time>
      </trkpt>
      <trkpt lat="47.36088" lon="-1.38074">
        <ele>120</ele>
        <time>2021-10-09T11:59:11.000Z</time>
      </trkpt>
      <trkpt lat="47.3608" lon="-1.38062">
        <ele>120</ele>
        <time>2021-10-09T11:59:13.000Z</time>
      </trkpt>
      <trkpt lat="47.36073" lon="-1.3805">
        <ele>121</ele>
        <time>2021-10-09T11:59:15.000Z</time>
      </trkpt>
      <trkpt lat="47.36064" lon="-1.38038">
        <ele>121</ele>
        <time>2021-10-09T11:59:17.000Z</time>
      </trkpt>
      <trkpt lat="47.36056" lon="-1.38025">
        <ele>121</ele>
        <time>2021-10-09T11:59:19.000Z</time>
      </trkpt>
      <trkpt lat="47.36048" lon="-1.38013">
        <ele>121</ele>
        <time>2021-10-09T11:59:21.000Z</time>
      </trkpt>
      <trkpt lat="47.3604" lon="-1.38001">
        <ele>121</ele>
        <time>2021-10-09T11:59:23.000Z</time>
      </trkpt>
      <trkpt lat="47.36032" lon="-1.37989">
        <ele>122</ele>
        <time>2021-10-09T11:59:25.000Z</time>
      </trkpt>
      <trkpt lat="47.36024" lon="-1.37977">
        <ele>122</ele>
        <time>2021-10-09T11:59:27.000Z</time>
      </trkpt>
      <trkpt lat="47.36016" lon="-1.37965">
        <ele>122</ele>
        <time>2021-10-09T11:59:29.000Z</time>
      </trkpt>
      <trkpt lat="47.36008" lon="-1.37953">
        <ele>122</ele>
        <time>2021-10-09T11:59:31.000Z</time>
      </trkpt>
      <trkpt lat="47.36" lon="-1.37941">
        <ele>122</ele>
        <time>2021-10-09T11:59:33.000Z</time>
      </trkpt>
      <trkpt lat="47.35992" lon="-1.37929">
        <ele>123</ele>
        <time>2021-10-09T11:59:35.000Z</time>
      </trkpt>
      <trkpt lat="47.35984" lon="-1.37917">
        <ele>123</ele>
        <time>2021-10-09T11:59:37.000Z</time>
      </trkpt>
      <trkpt lat="47.35976" lon="-1.37905">
        <ele>123</ele>
        <time>2021-10-09T11:59:39.000Z</time>
      </trkpt>
      <trkpt lat="47.35968" lon="-1.37893">
        <ele>123</ele>
        <time>2021-10-09T11:59:41.000Z</time>
      </trkpt>
      <trkpt lat="47.3596" lon="-1.37881">
        <ele>123</ele>
        <time>2021-10-09T11:59:43.000Z</time>
      </trkpt>
      <trkpt lat="47.35953" lon="-1.37869">
        <ele>123</ele>
        <time>2021-10-09T11:59:45.000Z</time>
      </trkpt>
      <trkpt lat="47.35945" lon="-1.37857">
        <ele>123</ele>
        <time>2021-10-09T11:59:47.000Z</time>
      </trkpt>
      <trkpt lat="47.35936" lon="-1.37845">
        <ele>123</ele>
        <time>2021-10-09T11:59:49.000Z</time>
      </trkpt>
      <trkpt lat="47.35929" lon="-1.37834">
        <ele>123</ele>
        <time>2021-10-09T11:59:51.000Z</time>
      </trkpt>
      <trkpt lat="47.35921" lon="-1.37822">
        <ele>123</ele>
        <time>2021-10-09T11:59:53.000Z</time>
      </trkpt>
      <trkpt lat="47.35913" lon="-1.3781">
        <ele>124</ele>
        <time>2021-10-09T11:59:55.000Z</time>
      </trkpt>
      <trkpt lat="47.35904" lon="-1.37797">
        <ele>124</ele>
        <time>2021-10-09T11:59:57.000Z</time>
      </trkpt>
      <trkpt lat="47.35896" lon="-1.37785">
        <ele>125</ele>
        <time>2021-10-09T11:59:59.000Z</time>
      </trkpt>
      <trkpt lat="47.35888" lon="-1.37773">
        <ele>125</ele>
        <time>2021-10-09T12:00:01.000Z</time>
      </trkpt>
      <trkpt lat="47.3588" lon="-1.37761">
        <ele>125</ele>
        <time>2021-10-09T12:00:03.000Z</time>
      </trkpt>
      <trkpt lat="47.35872" lon="-1.37749">
        <ele>126</ele>
        <time>2021-10-09T12:00:05.000Z</time>
      </trkpt>
      <trkpt lat="47.35864" lon="-1.37736">
        <ele>126</ele>
        <time>2021-10-09T12:00:07.000Z</time>
      </trkpt>
      <trkpt lat="47.35857" lon="-1.37725">
        <ele>126</ele>
        <time>2021-10-09T12:00:09.000Z</time>
      </trkpt>
      <trkpt lat="47.35849" lon="-1.37713">
        <ele>126</ele>
        <time>2021-10-09T12:00:11.000Z</time>
      </trkpt>
      <trkpt lat="47.35841" lon="-1.37701">
        <ele>126</ele>
        <time>2021-10-09T12:00:13.000Z</time>
      </trkpt>
      <trkpt lat="47.35833" lon="-1.37689">
        <ele>126</ele>
        <time>2021-10-09T12:00:15.000Z</time>
      </trkpt>
      <trkpt lat="47.35825" lon="-1.37677">
        <ele>127</ele>
        <time>2021-10-09T12:00:17.000Z</time>
      </trkpt>
      <trkpt lat="47.35817" lon="-1.37665">
        <ele>127</ele>
        <time>2021-10-09T12:00:19.000Z</time>
      </trkpt>
      <trkpt lat="47.35809" lon="-1.37653">
        <ele>127</ele>
        <time>2021-10-09T12:00:21.000Z</time>
      </trkpt>
      <trkpt lat="47.358" lon="-1.37641">
        <ele>127</ele>
        <time>2021-10-09T12:00:23.000Z</time>
      </trkpt>
      <trkpt lat="47.35792" lon="-1.37629">
        <ele>128</ele>
        <time>2021-10-09T12:00:25.000Z</time>
      </trkpt>
      <trkpt lat="47.35784" lon="-1.37616">
        <ele>128</ele>
        <time>2021-10-09T12:00:27.000Z</time>
      </trkpt>
      <trkpt lat="47.35775" lon="-1.37603">
        <ele>128</ele>
        <time>2021-10-09T12:00:29.000Z</time>
      </trkpt>
      <trkpt lat="47.35767" lon="-1.37589">
        <ele>128</ele>
        <time>2021-10-09T12:00:31.000Z</time>
      </trkpt>
      <trkpt lat="47.35758" lon="-1.37577">
        <ele>128</ele>
        <time>2021-10-09T12:00:33.000Z</time>
      </trkpt>
      <trkpt lat="47.3575" lon="-1.37564">
        <ele>128</ele>
        <time>2021-10-09T12:00:35.000Z</time>
      </trkpt>
      <trkpt lat="47.35741" lon="-1.37551">
        <ele>128</ele>
        <time>2021-10-09T12:00:37.000Z</time>
      </trkpt>
      <trkpt lat="47.35733" lon="-1.37538">
        <ele>128</ele>
        <time>2021-10-09T12:00:39.000Z</time>
      </trkpt>
      <trkpt lat="47.35725" lon="-1.37526">
        <ele>128</ele>
        <time>2021-10-09T12:00:41.000Z</time>
      </trkpt>
      <trkpt lat="47.35716" lon="-1.37513">
        <ele>128</ele>
        <time>2021-10-09T12:00:43.000Z</time>
      </trkpt>
      <trkpt lat="47.35708" lon="-1.37501">
        <ele>128</ele>
        <time>2021-10-09T12:00:45.000Z</time>
      </trkpt>
      <trkpt lat="47.35699" lon="-1.37489">
        <ele>128</ele>
        <time>2021-10-09T12:00:47.000Z</time>
      </trkpt>
      <trkpt lat="47.35691" lon="-1.37475">
        <ele>128</ele>
        <time>2021-10-09T12:00:49.000Z</time>
      </trkpt>
      <trkpt lat="47.35682" lon="-1.37462">
        <ele>128</ele>
        <time>2021-10-09T12:00:51.000Z</time>
      </trkpt>
      <trkpt lat="47.35673" lon="-1.37449">
        <ele>129</ele>
        <time>2021-10-09T12:00:53.000Z</time>
      </trkpt>
      <trkpt lat="47.35664" lon="-1.37436">
        <ele>128</ele>
        <time>2021-10-09T12:00:55.000Z</time>
      </trkpt>
      <trkpt lat="47.35655" lon="-1.37423">
        <ele>128</ele>
        <time>2021-10-09T12:00:57.000Z</time>
      </trkpt>
      <trkpt lat="47.35647" lon="-1.37409">
        <ele>129</ele>
        <time>2021-10-09T12:00:59.000Z</time>
      </trkpt>
      <trkpt lat="47.35638" lon="-1.37396">
        <ele>129</ele>
        <time>2021-10-09T12:01:01.000Z</time>
      </trkpt>
      <trkpt lat="47.35629" lon="-1.37384">
        <ele>130</ele>
        <time>2021-10-09T12:01:03.000Z</time>
      </trkpt>
      <trkpt lat="47.3562" lon="-1.3737">
        <ele>130</ele>
        <time>2021-10-09T12:01:05.000Z</time>
      </trkpt>
      <trkpt lat="47.35611" lon="-1.37356">
        <ele>130</ele>
        <time>2021-10-09T12:01:07.000Z</time>
      </trkpt>
      <trkpt lat="47.35601" lon="-1.37343">
        <ele>130</ele>
        <time>2021-10-09T12:01:09.000Z</time>
      </trkpt>
      <trkpt lat="47.35592" lon="-1.37328">
        <ele>130</ele>
        <time>2021-10-09T12:01:11.000Z</time>
      </trkpt>
      <trkpt lat="47.35583" lon="-1.37314">
        <ele>130</ele>
        <time>2021-10-09T12:01:13.000Z</time>
      </trkpt>
      <trkpt lat="47.35573" lon="-1.373">
        <ele>131</ele>
        <time>2021-10-09T12:01:15.000Z</time>
      </trkpt>
      <trkpt lat="47.35564" lon="-1.37286">
        <ele>131</ele>
        <time>2021-10-09T12:01:17.000Z</time>
      </trkpt>
      <trkpt lat="47.35554" lon="-1.37272">
        <ele>131</ele>
        <time>2021-10-09T12:01:19.000Z</time>
      </trkpt>
      <trkpt lat="47.35544" lon="-1.37258">
        <ele>131</ele>
        <time>2021-10-09T12:01:21.000Z</time>
      </trkpt>
      <trkpt lat="47.35535" lon="-1.37244">
        <ele>132</ele>
        <time>2021-10-09T12:01:23.000Z</time>
      </trkpt>
      <trkpt lat="47.35526" lon="-1.3723">
        <ele>132</ele>
        <time>2021-10-09T12:01:25.000Z</time>
      </trkpt>
      <trkpt lat="47.35517" lon="-1.37217">
        <ele>132</ele>
        <time>2021-10-09T12:01:27.000Z</time>
      </trkpt>
      <trkpt lat="47.35508" lon="-1.37205">
        <ele>132</ele>
        <time>2021-10-09T12:01:29.000Z</time>
      </trkpt>
      <trkpt lat="47.35499" lon="-1.37192">
        <ele>133</ele>
        <time>2021-10-09T12:01:31.000Z</time>
      </trkpt>
      <trkpt lat="47.35491" lon="-1.3718">
        <ele>134</ele>
        <time>2021-10-09T12:01:33.000Z</time>
      </trkpt>
      <trkpt lat="47.35483" lon="-1.37168">
        <ele>134</ele>
        <time>2021-10-09T12:01:35.000Z</time>
      </trkpt>
      <trkpt lat="47.35475" lon="-1.37154">
        <ele>134</ele>
        <time>2021-10-09T12:01:37.000Z</time>
      </trkpt>
      <trkpt lat="47.35467" lon="-1.37142">
        <ele>135</ele>
        <time>2021-10-09T12:01:39.000Z</time>
      </trkpt>
      <trkpt lat="47.35459" lon="-1.37129">
        <ele>136</ele>
        <time>2021-10-09T12:01:41.000Z</time>
      </trkpt>
      <trkpt lat="47.35451" lon="-1.37116">
        <ele>136</ele>
        <time>2021-10-09T12:01:43.000Z</time>
      </trkpt>
      <trkpt lat="47.35443" lon="-1.37104">
        <ele>136</ele>
        <time>2021-10-09T12:01:45.000Z</time>
      </trkpt>
      <trkpt lat="47.35434" lon="-1.37093">
        <ele>136</ele>
        <time>2021-10-09T12:01:47.000Z</time>
      </trkpt>
      <trkpt lat="47.35426" lon="-1.37081">
        <ele>137</ele>
        <time>2021-10-09T12:01:49.000Z</time>
      </trkpt>
      <trkpt lat="47.35416" lon="-1.37067">
        <ele>137</ele>
        <time>2021-10-09T12:01:51.000Z</time>
      </trkpt>
      <trkpt lat="47.35407" lon="-1.37052">
        <ele>137</ele>
        <time>2021-10-09T12:01:53.000Z</time>
      </trkpt>
      <trkpt lat="47.35397" lon="-1.37036">
        <ele>137</ele>
        <time>2021-10-09T12:01:55.000Z</time>
      </trkpt>
      <trkpt lat="47.35389" lon="-1.37023">
        <ele>137</ele>
        <time>2021-10-09T12:01:57.000Z</time>
      </trkpt>
      <trkpt lat="47.35379" lon="-1.37009">
        <ele>137</ele>
        <time>2021-10-09T12:01:59.000Z</time>
      </trkpt>
      <trkpt lat="47.3537" lon="-1.36996">
        <ele>137</ele>
        <time>2021-10-09T12:02:01.000Z</time>
      </trkpt>
      <trkpt lat="47.35362" lon="-1.36983">
        <ele>137</ele>
        <time>2021-10-09T12:02:03.000Z</time>
      </trkpt>
      <trkpt lat="47.35353" lon="-1.36969">
        <ele>136</ele>
        <time>2021-10-09T12:02:05.000Z</time>
      </trkpt>
      <trkpt lat="47.35344" lon="-1.36957">
        <ele>137</ele>
        <time>2021-10-09T12:02:07.000Z</time>
      </trkpt>
      <trkpt lat="47.35335" lon="-1.36944">
        <ele>136</ele>
        <time>2021-10-09T12:02:09.000Z</time>
      </trkpt>
      <trkpt lat="47.35326" lon="-1.3693">
        <ele>137</ele>
        <time>2021-10-09T12:02:11.000Z</time>
      </trkpt>
      <trkpt lat="47.35318" lon="-1.36917">
        <ele>137</ele>
        <time>2021-10-09T12:02:13.000Z</time>
      </trkpt>
      <trkpt lat="47.35309" lon="-1.36904">
        <ele>137</ele>
        <time>2021-10-09T12:02:15.000Z</time>
      </trkpt>
      <trkpt lat="47.353" lon="-1.36892">
        <ele>138</ele>
        <time>2021-10-09T12:02:17.000Z</time>
      </trkpt>
      <trkpt lat="47.35291" lon="-1.36878">
        <ele>138</ele>
        <time>2021-10-09T12:02:19.000Z</time>
      </trkpt>
      <trkpt lat="47.35283" lon="-1.36865">
        <ele>138</ele>
        <time>2021-10-09T12:02:21.000Z</time>
      </trkpt>
      <trkpt lat="47.35274" lon="-1.36852">
        <ele>138</ele>
        <time>2021-10-09T12:02:23.000Z</time>
      </trkpt>
      <trkpt lat="47.35265" lon="-1.36839">
        <ele>138</ele>
        <time>2021-10-09T12:02:25.000Z</time>
      </trkpt>
      <trkpt lat="47.35257" lon="-1.36826">
        <ele>138</ele>
        <time>2021-10-09T12:02:27.000Z</time>
      </trkpt>
      <trkpt lat="47.35248" lon="-1.36813">
        <ele>138</ele>
        <time>2021-10-09T12:02:29.000Z</time>
      </trkpt>
      <trkpt lat="47.3524" lon="-1.36801">
        <ele>139</ele>
        <time>2021-10-09T12:02:31.000Z</time>
      </trkpt>
      <trkpt lat="47.35231" lon="-1.36787">
        <ele>139</ele>
        <time>2021-10-09T12:02:33.000Z</time>
      </trkpt>
      <trkpt lat="47.35222" lon="-1.36773">
        <ele>139</ele>
        <time>2021-10-09T12:02:35.000Z</time>
      </trkpt>
      <trkpt lat="47.35213" lon="-1.3676">
        <ele>139</ele>
        <time>2021-10-09T12:02:37.000Z</time>
      </trkpt>
      <trkpt lat="47.35205" lon="-1.36746">
        <ele>139</ele>
        <time>2021-10-09T12:02:39.000Z</time>
      </trkpt>
      <trkpt lat="47.35196" lon="-1.36732">
        <ele>138</ele>
        <time>2021-10-09T12:02:41.000Z</time>
      </trkpt>
      <trkpt lat="47.35187" lon="-1.36719">
        <ele>138</ele>
        <time>2021-10-09T12:02:43.000Z</time>
      </trkpt>
      <trkpt lat="47.35178" lon="-1.36706">
        <ele>138</ele>
        <time>2021-10-09T12:02:45.000Z</time>
      </trkpt>
      <trkpt lat="47.3517" lon="-1.36692">
        <ele>138</ele>
        <time>2021-10-09T12:02:47.000Z</time>
      </trkpt>
      <trkpt lat="47.35162" lon="-1.36678">
        <ele>138</ele>
        <time>2021-10-09T12:02:49.000Z</time>
      </trkpt>
      <trkpt lat="47.35153" lon="-1.36663">
        <ele>137</ele>
        <time>2021-10-09T12:02:51.000Z</time>
      </trkpt>
      <trkpt lat="47.35144" lon="-1.3665">
        <ele>136</ele>
        <time>2021-10-09T12:02:53.000Z</time>
      </trkpt>
      <trkpt lat="47.35135" lon="-1.36635">
        <ele>135</ele>
        <time>2021-10-09T12:02:55.000Z</time>
      </trkpt>
      <trkpt lat="47.35126" lon="-1.36621">
        <ele>135</ele>
        <time>2021-10-09T12:02:57.000Z</time>
      </trkpt>
      <trkpt lat="47.35117" lon="-1.36609">
        <ele>135</ele>
        <time>2021-10-09T12:02:59.000Z</time>
      </trkpt>
      <trkpt lat="47.35108" lon="-1.36598">
        <ele>135</ele>
        <time>2021-10-09T12:03:01.000Z</time>
      </trkpt>
      <trkpt lat="47.35099" lon="-1.36585">
        <ele>135</ele>
        <time>2021-10-09T12:03:03.000Z</time>
      </trkpt>
      <trkpt lat="47.35091" lon="-1.36572">
        <ele>135</ele>
        <time>2021-10-09T12:03:05.000Z</time>
      </trkpt>
      <trkpt lat="47.35082" lon="-1.3656">
        <ele>135</ele>
        <time>2021-10-09T12:03:07.000Z</time>
      </trkpt>
      <trkpt lat="47.35073" lon="-1.36548">
        <ele>136</ele>
        <time>2021-10-09T12:03:09.000Z</time>
      </trkpt>
      <trkpt lat="47.35064" lon="-1.36534">
        <ele>136</ele>
        <time>2021-10-09T12:03:11.000Z</time>
      </trkpt>
      <trkpt lat="47.35056" lon="-1.36521">
        <ele>136</ele>
        <time>2021-10-09T12:03:13.000Z</time>
      </trkpt>
      <trkpt lat="47.35047" lon="-1.36507">
        <ele>136</ele>
        <time>2021-10-09T12:03:15.000Z</time>
      </trkpt>
      <trkpt lat="47.35039" lon="-1.36492">
        <ele>135</ele>
        <time>2021-10-09T12:03:17.000Z</time>
      </trkpt>
      <trkpt lat="47.3503" lon="-1.36476">
        <ele>134</ele>
        <time>2021-10-09T12:03:19.000Z</time>
      </trkpt>
      <trkpt lat="47.35021" lon="-1.3646">
        <ele>133</ele>
        <time>2021-10-09T12:03:21.000Z</time>
      </trkpt>
      <trkpt lat="47.35011" lon="-1.36447">
        <ele>133</ele>
        <time>2021-10-09T12:03:23.000Z</time>
      </trkpt>
      <trkpt lat="47.35001" lon="-1.36435">
        <ele>132</ele>
        <time>2021-10-09T12:03:25.000Z</time>
      </trkpt>
      <trkpt lat="47.34991" lon="-1.36422">
        <ele>132</ele>
        <time>2021-10-09T12:03:27.000Z</time>
      </trkpt>
      <trkpt lat="47.34981" lon="-1.3641">
        <ele>132</ele>
        <time>2021-10-09T12:03:29.000Z</time>
      </trkpt>
      <trkpt lat="47.34971" lon="-1.36398">
        <ele>132</ele>
        <time>2021-10-09T12:03:31.000Z</time>
      </trkpt>
      <trkpt lat="47.34961" lon="-1.36385">
        <ele>131</ele>
        <time>2021-10-09T12:03:33.000Z</time>
      </trkpt>
      <trkpt lat="47.34951" lon="-1.36373">
        <ele>131</ele>
        <time>2021-10-09T12:03:35.000Z</time>
      </trkpt>
      <trkpt lat="47.34941" lon="-1.36361">
        <ele>130</ele>
        <time>2021-10-09T12:03:37.000Z</time>
      </trkpt>
      <trkpt lat="47.34932" lon="-1.36349">
        <ele>130</ele>
        <time>2021-10-09T12:03:39.000Z</time>
      </trkpt>
      <trkpt lat="47.34922" lon="-1.36336">
        <ele>131</ele>
        <time>2021-10-09T12:03:41.000Z</time>
      </trkpt>
      <trkpt lat="47.34912" lon="-1.36323">
        <ele>131</ele>
        <time>2021-10-09T12:03:43.000Z</time>
      </trkpt>
      <trkpt lat="47.34903" lon="-1.3631">
        <ele>131</ele>
        <time>2021-10-09T12:03:45.000Z</time>
      </trkpt>
      <trkpt lat="47.34894" lon="-1.36296">
        <ele>131</ele>
        <time>2021-10-09T12:03:47.000Z</time>
      </trkpt>
      <trkpt lat="47.34886" lon="-1.36282">
        <ele>131</ele>
        <time>2021-10-09T12:03:49.000Z</time>
      </trkpt>
      <trkpt lat="47.34877" lon="-1.36268">
        <ele>131</ele>
        <time>2021-10-09T12:03:51.000Z</time>
      </trkpt>
      <trkpt lat="47.34868" lon="-1.36255">
        <ele>131</ele>
        <time>2021-10-09T12:03:53.000Z</time>
      </trkpt>
      <trkpt lat="47.3486" lon="-1.36242">
        <ele>131</ele>
        <time>2021-10-09T12:03:55.000Z</time>
      </trkpt>
      <trkpt lat="47.34852" lon="-1.36229">
        <ele>131</ele>
        <time>2021-10-09T12:03:57.000Z</time>
      </trkpt>
      <trkpt lat="47.34844" lon="-1.36216">
        <ele>131</ele>
        <time>2021-10-09T12:03:59.000Z</time>
      </trkpt>
      <trkpt lat="47.34836" lon="-1.36202">
        <ele>132</ele>
        <time>2021-10-09T12:04:01.000Z</time>
      </trkpt>
      <trkpt lat="47.34828" lon="-1.36189">
        <ele>132</ele>
        <time>2021-10-09T12:04:03.000Z</time>
      </trkpt>
      <trkpt lat="47.34819" lon="-1.36176">
        <ele>132</ele>
        <time>2021-10-09T12:04:05.000Z</time>
      </trkpt>
      <trkpt lat="47.34811" lon="-1.36163">
        <ele>132</ele>
        <time>2021-10-09T12:04:07.000Z</time>
      </trkpt>
      <trkpt lat="47.34802" lon="-1.3615">
        <ele>132</ele>
        <time>2021-10-09T12:04:09.000Z</time>
      </trkpt>
      <trkpt lat="47.34793" lon="-1.36138">
        <ele>133</ele>
        <time>2021-10-09T12:04:11.000Z</time>
      </trkpt>
      <trkpt lat="47.34783" lon="-1.36127">
        <ele>132</ele>
        <time>2021-10-09T12:04:13.000Z</time>
      </trkpt>
      <trkpt lat="47.34774" lon="-1.36115">
        <ele>133</ele>
        <time>2021-10-09T12:04:15.000Z</time>
      </trkpt>
      <trkpt lat="47.34764" lon="-1.36105">
        <ele>133</ele>
        <time>2021-10-09T12:04:17.000Z</time>
      </trkpt>
      <trkpt lat="47.34755" lon="-1.36094">
        <ele>132</ele>
        <time>2021-10-09T12:04:19.000Z</time>
      </trkpt>
      <trkpt lat="47.34745" lon="-1.36083">
        <ele>132</ele>
        <time>2021-10-09T12:04:21.000Z</time>
      </trkpt>
      <trkpt lat="47.34736" lon="-1.36071">
        <ele>133</ele>
        <time>2021-10-09T12:04:23.000Z</time>
      </trkpt>
      <trkpt lat="47.34726" lon="-1.36059">
        <ele>132</ele>
        <time>2021-10-09T12:04:25.000Z</time>
      </trkpt>
      <trkpt lat="47.34716" lon="-1.36047">
        <ele>132</ele>
        <time>2021-10-09T12:04:27.000Z</time>
      </trkpt>
      <trkpt lat="47.34706" lon="-1.36035">
        <ele>132</ele>
        <time>2021-10-09T12:04:29.000Z</time>
      </trkpt>
      <trkpt lat="47.34695" lon="-1.36022">
        <ele>132</ele>
        <time>2021-10-09T12:04:31.000Z</time>
      </trkpt>
      <trkpt lat="47.34684" lon="-1.3601">
        <ele>131</ele>
        <time>2021-10-09T12:04:33.000Z</time>
      </trkpt>
      <trkpt lat="47.34672" lon="-1.35998">
        <ele>131</ele>
        <time>2021-10-09T12:04:35.000Z</time>
      </trkpt>
      <trkpt lat="47.3466" lon="-1.35986">
        <ele>131</ele>
        <time>2021-10-09T12:04:37.000Z</time>
      </trkpt>
      <trkpt lat="47.34648" lon="-1.35972">
        <ele>130</ele>
        <time>2021-10-09T12:04:39.000Z</time>
      </trkpt>
      <trkpt lat="47.34635" lon="-1.35959">
        <ele>129</ele>
        <time>2021-10-09T12:04:41.000Z</time>
      </trkpt>
      <trkpt lat="47.34623" lon="-1.35945">
        <ele>129</ele>
        <time>2021-10-09T12:04:43.000Z</time>
      </trkpt>
      <trkpt lat="47.34611" lon="-1.35931">
        <ele>128</ele>
        <time>2021-10-09T12:04:45.000Z</time>
      </trkpt>
      <trkpt lat="47.34599" lon="-1.35918">
        <ele>128</ele>
        <time>2021-10-09T12:04:47.000Z</time>
      </trkpt>
      <trkpt lat="47.34587" lon="-1.35904">
        <ele>128</ele>
        <time>2021-10-09T12:04:49.000Z</time>
      </trkpt>
      <trkpt lat="47.34577" lon="-1.35891">
        <ele>128</ele>
        <time>2021-10-09T12:04:51.000Z</time>
      </trkpt>
      <trkpt lat="47.34561" lon="-1.3587">
        <ele>128</ele>
        <time>2021-10-09T12:04:54.000Z</time>
      </trkpt>
      <trkpt lat="47.34552" lon="-1.35856">
        <ele>128</ele>
        <time>2021-10-09T12:04:56.000Z</time>
      </trkpt>
      <trkpt lat="47.34543" lon="-1.35842">
        <ele>128</ele>
        <time>2021-10-09T12:04:58.000Z</time>
      </trkpt>
      <trkpt lat="47.3453" lon="-1.3582">
        <ele>129</ele>
        <time>2021-10-09T12:05:01.000Z</time>
      </trkpt>
      <trkpt lat="47.34521" lon="-1.35805">
        <ele>129</ele>
        <time>2021-10-09T12:05:03.000Z</time>
      </trkpt>
      <trkpt lat="47.34513" lon="-1.35791">
        <ele>129</ele>
        <time>2021-10-09T12:05:05.000Z</time>
      </trkpt>
      <trkpt lat="47.34504" lon="-1.35777">
        <ele>129</ele>
        <time>2021-10-09T12:05:07.000Z</time>
      </trkpt>
      <trkpt lat="47.34493" lon="-1.35757">
        <ele>130</ele>
        <time>2021-10-09T12:05:10.000Z</time>
      </trkpt>
      <trkpt lat="47.34483" lon="-1.35738">
        <ele>131</ele>
        <time>2021-10-09T12:05:13.000Z</time>
      </trkpt>
      <trkpt lat="47.34476" lon="-1.35725">
        <ele>131</ele>
        <time>2021-10-09T12:05:15.000Z</time>
      </trkpt>
      <trkpt lat="47.34469" lon="-1.35711">
        <ele>131</ele>
        <time>2021-10-09T12:05:17.000Z</time>
      </trkpt>
      <trkpt lat="47.34463" lon="-1.35697">
        <ele>131</ele>
        <time>2021-10-09T12:05:19.000Z</time>
      </trkpt>
      <trkpt lat="47.34451" lon="-1.35679">
        <ele>131</ele>
        <time>2021-10-09T12:05:22.000Z</time>
      </trkpt>
      <trkpt lat="47.34442" lon="-1.35666">
        <ele>131</ele>
        <time>2021-10-09T12:05:24.000Z</time>
      </trkpt>
      <trkpt lat="47.34435" lon="-1.35653">
        <ele>131</ele>
        <time>2021-10-09T12:05:26.000Z</time>
      </trkpt>
      <trkpt lat="47.34427" lon="-1.3564">
        <ele>131</ele>
        <time>2021-10-09T12:05:28.000Z</time>
      </trkpt>
      <trkpt lat="47.3442" lon="-1.35625">
        <ele>131</ele>
        <time>2021-10-09T12:05:30.000Z</time>
      </trkpt>
      <trkpt lat="47.34411" lon="-1.35613">
        <ele>131</ele>
        <time>2021-10-09T12:05:32.000Z</time>
      </trkpt>
      <trkpt lat="47.34403" lon="-1.35599">
        <ele>132</ele>
        <time>2021-10-09T12:05:34.000Z</time>
      </trkpt>
      <trkpt lat="47.34394" lon="-1.35584">
        <ele>131</ele>
        <time>2021-10-09T12:05:36.000Z</time>
      </trkpt>
      <trkpt lat="47.34387" lon="-1.35569">
        <ele>131</ele>
        <time>2021-10-09T12:05:38.000Z</time>
      </trkpt>
      <trkpt lat="47.34378" lon="-1.35554">
        <ele>131</ele>
        <time>2021-10-09T12:05:40.000Z</time>
      </trkpt>
      <trkpt lat="47.3437" lon="-1.35539">
        <ele>130</ele>
        <time>2021-10-09T12:05:42.000Z</time>
      </trkpt>
      <trkpt lat="47.34361" lon="-1.35524">
        <ele>130</ele>
        <time>2021-10-09T12:05:44.000Z</time>
      </trkpt>
      <trkpt lat="47.34352" lon="-1.35509">
        <ele>131</ele>
        <time>2021-10-09T12:05:46.000Z</time>
      </trkpt>
      <trkpt lat="47.34343" lon="-1.35494">
        <ele>131</ele>
        <time>2021-10-09T12:05:48.000Z</time>
      </trkpt>
      <trkpt lat="47.34334" lon="-1.35478">
        <ele>132</ele>
        <time>2021-10-09T12:05:50.000Z</time>
      </trkpt>
      <trkpt lat="47.34325" lon="-1.35462">
        <ele>132</ele>
        <time>2021-10-09T12:05:52.000Z</time>
      </trkpt>
      <trkpt lat="47.34316" lon="-1.35447">
        <ele>132</ele>
        <time>2021-10-09T12:05:54.000Z</time>
      </trkpt>
      <trkpt lat="47.34307" lon="-1.35431">
        <ele>132</ele>
        <time>2021-10-09T12:05:56.000Z</time>
      </trkpt>
      <trkpt lat="47.34298" lon="-1.35416">
        <ele>132</ele>
        <time>2021-10-09T12:05:58.000Z</time>
      </trkpt>
      <trkpt lat="47.34289" lon="-1.35401">
        <ele>132</ele>
        <time>2021-10-09T12:06:00.000Z</time>
      </trkpt>
      <trkpt lat="47.3428" lon="-1.35386">
        <ele>132</ele>
        <time>2021-10-09T12:06:02.000Z</time>
      </trkpt>
      <trkpt lat="47.34271" lon="-1.35372">
        <ele>133</ele>
        <time>2021-10-09T12:06:04.000Z</time>
      </trkpt>
      <trkpt lat="47.34263" lon="-1.35357">
        <ele>133</ele>
        <time>2021-10-09T12:06:06.000Z</time>
      </trkpt>
      <trkpt lat="47.34253" lon="-1.35342">
        <ele>133</ele>
        <time>2021-10-09T12:06:08.000Z</time>
      </trkpt>
      <trkpt lat="47.34245" lon="-1.35328">
        <ele>133</ele>
        <time>2021-10-09T12:06:10.000Z</time>
      </trkpt>
      <trkpt lat="47.34236" lon="-1.35313">
        <ele>133</ele>
        <time>2021-10-09T12:06:12.000Z</time>
      </trkpt>
      <trkpt lat="47.34227" lon="-1.35298">
        <ele>133</ele>
        <time>2021-10-09T12:06:14.000Z</time>
      </trkpt>
      <trkpt lat="47.34219" lon="-1.35284">
        <ele>134</ele>
        <time>2021-10-09T12:06:16.000Z</time>
      </trkpt>
      <trkpt lat="47.3421" lon="-1.35269">
        <ele>134</ele>
        <time>2021-10-09T12:06:18.000Z</time>
      </trkpt>
      <trkpt lat="47.34201" lon="-1.35254">
        <ele>134</ele>
        <time>2021-10-09T12:06:20.000Z</time>
      </trkpt>
      <trkpt lat="47.34193" lon="-1.3524">
        <ele>134</ele>
        <time>2021-10-09T12:06:22.000Z</time>
      </trkpt>
      <trkpt lat="47.34184" lon="-1.35226">
        <ele>134</ele>
        <time>2021-10-09T12:06:24.000Z</time>
      </trkpt>
      <trkpt lat="47.34176" lon="-1.35212">
        <ele>133</ele>
        <time>2021-10-09T12:06:26.000Z</time>
      </trkpt>
      <trkpt lat="47.34167" lon="-1.35197">
        <ele>132</ele>
        <time>2021-10-09T12:06:28.000Z</time>
      </trkpt>
      <trkpt lat="47.34158" lon="-1.35183">
        <ele>132</ele>
        <time>2021-10-09T12:06:30.000Z</time>
      </trkpt>
      <trkpt lat="47.34149" lon="-1.35167">
        <ele>132</ele>
        <time>2021-10-09T12:06:32.000Z</time>
      </trkpt>
      <trkpt lat="47.3414" lon="-1.35152">
        <ele>132</ele>
        <time>2021-10-09T12:06:34.000Z</time>
      </trkpt>
      <trkpt lat="47.34131" lon="-1.35137">
        <ele>132</ele>
        <time>2021-10-09T12:06:36.000Z</time>
      </trkpt>
      <trkpt lat="47.34122" lon="-1.35122">
        <ele>131</ele>
        <time>2021-10-09T12:06:38.000Z</time>
      </trkpt>
      <trkpt lat="47.34113" lon="-1.35107">
        <ele>132</ele>
        <time>2021-10-09T12:06:40.000Z</time>
      </trkpt>
      <trkpt lat="47.34103" lon="-1.35091">
        <ele>132</ele>
        <time>2021-10-09T12:06:42.000Z</time>
      </trkpt>
      <trkpt lat="47.34094" lon="-1.35076">
        <ele>132</ele>
        <time>2021-10-09T12:06:44.000Z</time>
      </trkpt>
      <trkpt lat="47.34086" lon="-1.35061">
        <ele>131</ele>
        <time>2021-10-09T12:06:46.000Z</time>
      </trkpt>
      <trkpt lat="47.34077" lon="-1.35047">
        <ele>131</ele>
        <time>2021-10-09T12:06:48.000Z</time>
      </trkpt>
      <trkpt lat="47.34069" lon="-1.35032">
        <ele>132</ele>
        <time>2021-10-09T12:06:50.000Z</time>
      </trkpt>
      <trkpt lat="47.3406" lon="-1.35018">
        <ele>132</ele>
        <time>2021-10-09T12:06:52.000Z</time>
      </trkpt>
      <trkpt lat="47.34052" lon="-1.35003">
        <ele>132</ele>
        <time>2021-10-09T12:06:54.000Z</time>
      </trkpt>
      <trkpt lat="47.34044" lon="-1.34989">
        <ele>132</ele>
        <time>2021-10-09T12:06:56.000Z</time>
      </trkpt>
      <trkpt lat="47.34035" lon="-1.34977">
        <ele>132</ele>
        <time>2021-10-09T12:06:58.000Z</time>
      </trkpt>
      <trkpt lat="47.34026" lon="-1.34967">
        <ele>132</ele>
        <time>2021-10-09T12:07:00.000Z</time>
      </trkpt>
      <trkpt lat="47.34015" lon="-1.3496">
        <ele>132</ele>
        <time>2021-10-09T12:07:02.000Z</time>
      </trkpt>
      <trkpt lat="47.34004" lon="-1.34955">
        <ele>132</ele>
        <time>2021-10-09T12:07:04.000Z</time>
      </trkpt>
      <trkpt lat="47.33992" lon="-1.34944">
        <ele>131</ele>
        <time>2021-10-09T12:07:06.000Z</time>
      </trkpt>
      <trkpt lat="47.33985" lon="-1.34926">
        <ele>131</ele>
        <time>2021-10-09T12:07:08.000Z</time>
      </trkpt>
      <trkpt lat="47.33975" lon="-1.34911">
        <ele>131</ele>
        <time>2021-10-09T12:07:10.000Z</time>
      </trkpt>
      <trkpt lat="47.33964" lon="-1.34899">
        <ele>131</ele>
        <time>2021-10-09T12:07:12.000Z</time>
      </trkpt>
      <trkpt lat="47.33953" lon="-1.34888">
        <ele>131</ele>
        <time>2021-10-09T12:07:14.000Z</time>
      </trkpt>
      <trkpt lat="47.33941" lon="-1.34876">
        <ele>131</ele>
        <time>2021-10-09T12:07:16.000Z</time>
      </trkpt>
      <trkpt lat="47.33929" lon="-1.34865">
        <ele>130</ele>
        <time>2021-10-09T12:07:18.000Z</time>
      </trkpt>
      <trkpt lat="47.33917" lon="-1.34854">
        <ele>130</ele>
        <time>2021-10-09T12:07:20.000Z</time>
      </trkpt>
      <trkpt lat="47.33905" lon="-1.34842">
        <ele>130</ele>
        <time>2021-10-09T12:07:22.000Z</time>
      </trkpt>
      <trkpt lat="47.33893" lon="-1.3483">
        <ele>130</ele>
        <time>2021-10-09T12:07:24.000Z</time>
      </trkpt>
      <trkpt lat="47.33883" lon="-1.34816">
        <ele>130</ele>
        <time>2021-10-09T12:07:26.000Z</time>
      </trkpt>
      <trkpt lat="47.33873" lon="-1.34801">
        <ele>130</ele>
        <time>2021-10-09T12:07:28.000Z</time>
      </trkpt>
      <trkpt lat="47.33863" lon="-1.34787">
        <ele>129</ele>
        <time>2021-10-09T12:07:30.000Z</time>
      </trkpt>
      <trkpt lat="47.33853" lon="-1.34773">
        <ele>130</ele>
        <time>2021-10-09T12:07:32.000Z</time>
      </trkpt>
      <trkpt lat="47.33843" lon="-1.3476">
        <ele>130</ele>
        <time>2021-10-09T12:07:34.000Z</time>
      </trkpt>
      <trkpt lat="47.33833" lon="-1.34746">
        <ele>130</ele>
        <time>2021-10-09T12:07:36.000Z</time>
      </trkpt>
      <trkpt lat="47.33823" lon="-1.34731">
        <ele>130</ele>
        <time>2021-10-09T12:07:38.000Z</time>
      </trkpt>
      <trkpt lat="47.33813" lon="-1.34717">
        <ele>130</ele>
        <time>2021-10-09T12:07:40.000Z</time>
      </trkpt>
      <trkpt lat="47.33803" lon="-1.34704">
        <ele>130</ele>
        <time>2021-10-09T12:07:42.000Z</time>
      </trkpt>
      <trkpt lat="47.33793" lon="-1.3469">
        <ele>131</ele>
        <time>2021-10-09T12:07:44.000Z</time>
      </trkpt>
      <trkpt lat="47.33783" lon="-1.34677">
        <ele>131</ele>
        <time>2021-10-09T12:07:46.000Z</time>
      </trkpt>
      <trkpt lat="47.33773" lon="-1.34662">
        <ele>131</ele>
        <time>2021-10-09T12:07:48.000Z</time>
      </trkpt>
      <trkpt lat="47.33763" lon="-1.34648">
        <ele>131</ele>
        <time>2021-10-09T12:07:50.000Z</time>
      </trkpt>
      <trkpt lat="47.33753" lon="-1.34635">
        <ele>131</ele>
        <time>2021-10-09T12:07:52.000Z</time>
      </trkpt>
      <trkpt lat="47.33743" lon="-1.34622">
        <ele>130</ele>
        <time>2021-10-09T12:07:54.000Z</time>
      </trkpt>
      <trkpt lat="47.33734" lon="-1.34609">
        <ele>130</ele>
        <time>2021-10-09T12:07:56.000Z</time>
      </trkpt>
      <trkpt lat="47.33724" lon="-1.34595">
        <ele>130</ele>
        <time>2021-10-09T12:07:58.000Z</time>
      </trkpt>
      <trkpt lat="47.33714" lon="-1.34581">
        <ele>129</ele>
        <time>2021-10-09T12:08:00.000Z</time>
      </trkpt>
      <trkpt lat="47.33704" lon="-1.34567">
        <ele>129</ele>
        <time>2021-10-09T12:08:02.000Z</time>
      </trkpt>
      <trkpt lat="47.33694" lon="-1.34554">
        <ele>129</ele>
        <time>2021-10-09T12:08:04.000Z</time>
      </trkpt>
      <trkpt lat="47.33685" lon="-1.3454">
        <ele>129</ele>
        <time>2021-10-09T12:08:06.000Z</time>
      </trkpt>
      <trkpt lat="47.33675" lon="-1.34526">
        <ele>129</ele>
        <time>2021-10-09T12:08:08.000Z</time>
      </trkpt>
      <trkpt lat="47.33665" lon="-1.34512">
        <ele>129</ele>
        <time>2021-10-09T12:08:10.000Z</time>
      </trkpt>
      <trkpt lat="47.33655" lon="-1.34499">
        <ele>129</ele>
        <time>2021-10-09T12:08:12.000Z</time>
      </trkpt>
      <trkpt lat="47.33645" lon="-1.34485">
        <ele>129</ele>
        <time>2021-10-09T12:08:14.000Z</time>
      </trkpt>
      <trkpt lat="47.33635" lon="-1.34474">
        <ele>129</ele>
        <time>2021-10-09T12:08:16.000Z</time>
      </trkpt>
      <trkpt lat="47.33622" lon="-1.34464">
        <ele>129</ele>
        <time>2021-10-09T12:08:18.000Z</time>
      </trkpt>
      <trkpt lat="47.33609" lon="-1.34456">
        <ele>129</ele>
        <time>2021-10-09T12:08:20.000Z</time>
      </trkpt>
      <trkpt lat="47.33596" lon="-1.34449">
        <ele>129</ele>
        <time>2021-10-09T12:08:22.000Z</time>
      </trkpt>
      <trkpt lat="47.33582" lon="-1.34443">
        <ele>129</ele>
        <time>2021-10-09T12:08:24.000Z</time>
      </trkpt>
      <trkpt lat="47.33568" lon="-1.34437">
        <ele>129</ele>
        <time>2021-10-09T12:08:26.000Z</time>
      </trkpt>
      <trkpt lat="47.33555" lon="-1.3443">
        <ele>129</ele>
        <time>2021-10-09T12:08:28.000Z</time>
      </trkpt>
      <trkpt lat="47.33541" lon="-1.34424">
        <ele>129</ele>
        <time>2021-10-09T12:08:30.000Z</time>
      </trkpt>
      <trkpt lat="47.33528" lon="-1.34417">
        <ele>129</ele>
        <time>2021-10-09T12:08:32.000Z</time>
      </trkpt>
      <trkpt lat="47.33514" lon="-1.34411">
        <ele>128</ele>
        <time>2021-10-09T12:08:34.000Z</time>
      </trkpt>
      <trkpt lat="47.335" lon="-1.34404">
        <ele>128</ele>
        <time>2021-10-09T12:08:36.000Z</time>
      </trkpt>
      <trkpt lat="47.33487" lon="-1.34398">
        <ele>128</ele>
        <time>2021-10-09T12:08:38.000Z</time>
      </trkpt>
      <trkpt lat="47.33473" lon="-1.34391">
        <ele>127</ele>
        <time>2021-10-09T12:08:40.000Z</time>
      </trkpt>
      <trkpt lat="47.33461" lon="-1.34384">
        <ele>128</ele>
        <time>2021-10-09T12:08:42.000Z</time>
      </trkpt>
      <trkpt lat="47.33449" lon="-1.34377">
        <ele>129</ele>
        <time>2021-10-09T12:08:44.000Z</time>
      </trkpt>
      <trkpt lat="47.33436" lon="-1.34371">
        <ele>129</ele>
        <time>2021-10-09T12:08:46.000Z</time>
      </trkpt>
      <trkpt lat="47.33422" lon="-1.34364">
        <ele>128</ele>
        <time>2021-10-09T12:08:48.000Z</time>
      </trkpt>
      <trkpt lat="47.33407" lon="-1.34357">
        <ele>128</ele>
        <time>2021-10-09T12:08:50.000Z</time>
      </trkpt>
      <trkpt lat="47.33393" lon="-1.3435">
        <ele>128</ele>
        <time>2021-10-09T12:08:52.000Z</time>
      </trkpt>
      <trkpt lat="47.33379" lon="-1.34344">
        <ele>127</ele>
        <time>2021-10-09T12:08:54.000Z</time>
      </trkpt>
      <trkpt lat="47.33365" lon="-1.34336">
        <ele>126</ele>
        <time>2021-10-09T12:08:56.000Z</time>
      </trkpt>
      <trkpt lat="47.33351" lon="-1.34329">
        <ele>125</ele>
        <time>2021-10-09T12:08:58.000Z</time>
      </trkpt>
      <trkpt lat="47.33336" lon="-1.34323">
        <ele>125</ele>
        <time>2021-10-09T12:09:00.000Z</time>
      </trkpt>
      <trkpt lat="47.33321" lon="-1.34316">
        <ele>124</ele>
        <time>2021-10-09T12:09:02.000Z</time>
      </trkpt>
      <trkpt lat="47.33308" lon="-1.34311">
        <ele>124</ele>
        <time>2021-10-09T12:09:04.000Z</time>
      </trkpt>
      <trkpt lat="47.33294" lon="-1.34307">
        <ele>124</ele>
        <time>2021-10-09T12:09:06.000Z</time>
      </trkpt>
      <trkpt lat="47.3328" lon="-1.34305">
        <ele>123</ele>
        <time>2021-10-09T12:09:08.000Z</time>
      </trkpt>
      <trkpt lat="47.33266" lon="-1.34303">
        <ele>123</ele>
        <time>2021-10-09T12:09:10.000Z</time>
      </trkpt>
      <trkpt lat="47.33251" lon="-1.343">
        <ele>123</ele>
        <time>2021-10-09T12:09:12.000Z</time>
      </trkpt>
      <trkpt lat="47.33237" lon="-1.34298">
        <ele>123</ele>
        <time>2021-10-09T12:09:14.000Z</time>
      </trkpt>
      <trkpt lat="47.33223" lon="-1.34297">
        <ele>122</ele>
        <time>2021-10-09T12:09:16.000Z</time>
      </trkpt>
      <trkpt lat="47.33207" lon="-1.34295">
        <ele>122</ele>
        <time>2021-10-09T12:09:18.000Z</time>
      </trkpt>
      <trkpt lat="47.33192" lon="-1.34293">
        <ele>121</ele>
        <time>2021-10-09T12:09:20.000Z</time>
      </trkpt>
      <trkpt lat="47.33177" lon="-1.3429">
        <ele>120</ele>
        <time>2021-10-09T12:09:22.000Z</time>
      </trkpt>
      <trkpt lat="47.33162" lon="-1.34286">
        <ele>119</ele>
        <time>2021-10-09T12:09:24.000Z</time>
      </trkpt>
      <trkpt lat="47.33147" lon="-1.34279">
        <ele>119</ele>
        <time>2021-10-09T12:09:26.000Z</time>
      </trkpt>
      <trkpt lat="47.33133" lon="-1.34271">
        <ele>118</ele>
        <time>2021-10-09T12:09:28.000Z</time>
      </trkpt>
      <trkpt lat="47.33118" lon="-1.34261">
        <ele>118</ele>
        <time>2021-10-09T12:09:30.000Z</time>
      </trkpt>
      <trkpt lat="47.33103" lon="-1.34251">
        <ele>118</ele>
        <time>2021-10-09T12:09:32.000Z</time>
      </trkpt>
      <trkpt lat="47.33089" lon="-1.34241">
        <ele>118</ele>
        <time>2021-10-09T12:09:34.000Z</time>
      </trkpt>
      <trkpt lat="47.33074" lon="-1.34231">
        <ele>118</ele>
        <time>2021-10-09T12:09:36.000Z</time>
      </trkpt>
      <trkpt lat="47.33059" lon="-1.34221">
        <ele>117</ele>
        <time>2021-10-09T12:09:38.000Z</time>
      </trkpt>
      <trkpt lat="47.33043" lon="-1.3421">
        <ele>116</ele>
        <time>2021-10-09T12:09:40.000Z</time>
      </trkpt>
      <trkpt lat="47.33027" lon="-1.342">
        <ele>115</ele>
        <time>2021-10-09T12:09:42.000Z</time>
      </trkpt>
      <trkpt lat="47.33012" lon="-1.34189">
        <ele>114</ele>
        <time>2021-10-09T12:09:44.000Z</time>
      </trkpt>
      <trkpt lat="47.32996" lon="-1.34178">
        <ele>114</ele>
        <time>2021-10-09T12:09:46.000Z</time>
      </trkpt>
      <trkpt lat="47.32981" lon="-1.34166">
        <ele>113</ele>
        <time>2021-10-09T12:09:48.000Z</time>
      </trkpt>
      <trkpt lat="47.32966" lon="-1.34152">
        <ele>113</ele>
        <time>2021-10-09T12:09:50.000Z</time>
      </trkpt>
      <trkpt lat="47.32954" lon="-1.34132">
        <ele>113</ele>
        <time>2021-10-09T12:09:52.000Z</time>
      </trkpt>
      <trkpt lat="47.32944" lon="-1.3411">
        <ele>112</ele>
        <time>2021-10-09T12:09:54.000Z</time>
      </trkpt>
      <trkpt lat="47.32939" lon="-1.34087">
        <ele>112</ele>
        <time>2021-10-09T12:09:56.000Z</time>
      </trkpt>
      <trkpt lat="47.32937" lon="-1.34062">
        <ele>112</ele>
        <time>2021-10-09T12:09:58.000Z</time>
      </trkpt>
      <trkpt lat="47.3294" lon="-1.34039">
        <ele>111</ele>
        <time>2021-10-09T12:10:00.000Z</time>
      </trkpt>
      <trkpt lat="47.32945" lon="-1.34015">
        <ele>111</ele>
        <time>2021-10-09T12:10:02.000Z</time>
      </trkpt>
      <trkpt lat="47.32952" lon="-1.33994">
        <ele>112</ele>
        <time>2021-10-09T12:10:04.000Z</time>
      </trkpt>
      <trkpt lat="47.3296" lon="-1.33974">
        <ele>111</ele>
        <time>2021-10-09T12:10:06.000Z</time>
      </trkpt>
      <trkpt lat="47.32968" lon="-1.33954">
        <ele>110</ele>
        <time>2021-10-09T12:10:08.000Z</time>
      </trkpt>
      <trkpt lat="47.32976" lon="-1.33934">
        <ele>110</ele>
        <time>2021-10-09T12:10:10.000Z</time>
      </trkpt>
      <trkpt lat="47.32984" lon="-1.33915">
        <ele>110</ele>
        <time>2021-10-09T12:10:12.000Z</time>
      </trkpt>
      <trkpt lat="47.32993" lon="-1.33896">
        <ele>110</ele>
        <time>2021-10-09T12:10:14.000Z</time>
      </trkpt>
      <trkpt lat="47.33001" lon="-1.33874">
        <ele>111</ele>
        <time>2021-10-09T12:10:16.000Z</time>
      </trkpt>
      <trkpt lat="47.33009" lon="-1.33852">
        <ele>110</ele>
        <time>2021-10-09T12:10:18.000Z</time>
      </trkpt>
      <trkpt lat="47.33017" lon="-1.3383">
        <ele>110</ele>
        <time>2021-10-09T12:10:20.000Z</time>
      </trkpt>
      <trkpt lat="47.33026" lon="-1.33809">
        <ele>109</ele>
        <time>2021-10-09T12:10:22.000Z</time>
      </trkpt>
      <trkpt lat="47.33035" lon="-1.33789">
        <ele>109</ele>
        <time>2021-10-09T12:10:24.000Z</time>
      </trkpt>
      <trkpt lat="47.33045" lon="-1.33769">
        <ele>109</ele>
        <time>2021-10-09T12:10:26.000Z</time>
      </trkpt>
      <trkpt lat="47.33056" lon="-1.33748">
        <ele>108</ele>
        <time>2021-10-09T12:10:28.000Z</time>
      </trkpt>
      <trkpt lat="47.33062" lon="-1.33737">
        <ele>107</ele>
        <time>2021-10-09T12:10:29.000Z</time>
      </trkpt>
      <trkpt lat="47.33067" lon="-1.33725">
        <ele>107</ele>
        <time>2021-10-09T12:10:30.000Z</time>
      </trkpt>
      <trkpt lat="47.33072" lon="-1.33714">
        <ele>106</ele>
        <time>2021-10-09T12:10:31.000Z</time>
      </trkpt>
      <trkpt lat="47.33078" lon="-1.33702">
        <ele>106</ele>
        <time>2021-10-09T12:10:32.000Z</time>
      </trkpt>
      <trkpt lat="47.33083" lon="-1.3369">
        <ele>105</ele>
        <time>2021-10-09T12:10:33.000Z</time>
      </trkpt>
      <trkpt lat="47.33087" lon="-1.33678">
        <ele>105</ele>
        <time>2021-10-09T12:10:34.000Z</time>
      </trkpt>
      <trkpt lat="47.33091" lon="-1.33665">
        <ele>105</ele>
        <time>2021-10-09T12:10:35.000Z</time>
      </trkpt>
      <trkpt lat="47.33095" lon="-1.33652">
        <ele>105</ele>
        <time>2021-10-09T12:10:36.000Z</time>
      </trkpt>
      <trkpt lat="47.33102" lon="-1.33628">
        <ele>104</ele>
        <time>2021-10-09T12:10:38.000Z</time>
      </trkpt>
      <trkpt lat="47.33108" lon="-1.33604">
        <ele>103</ele>
        <time>2021-10-09T12:10:40.000Z</time>
      </trkpt>
      <trkpt lat="47.33115" lon="-1.33582">
        <ele>104</ele>
        <time>2021-10-09T12:10:42.000Z</time>
      </trkpt>
      <trkpt lat="47.33119" lon="-1.33561">
        <ele>104</ele>
        <time>2021-10-09T12:10:44.000Z</time>
      </trkpt>
      <trkpt lat="47.3312" lon="-1.33535">
        <ele>105</ele>
        <time>2021-10-09T12:10:46.000Z</time>
      </trkpt>
      <trkpt lat="47.33114" lon="-1.33511">
        <ele>106</ele>
        <time>2021-10-09T12:10:48.000Z</time>
      </trkpt>
      <trkpt lat="47.33111" lon="-1.33498">
        <ele>106</ele>
        <time>2021-10-09T12:10:49.000Z</time>
      </trkpt>
      <trkpt lat="47.33106" lon="-1.33485">
        <ele>107</ele>
        <time>2021-10-09T12:10:50.000Z</time>
      </trkpt>
      <trkpt lat="47.331" lon="-1.33473">
        <ele>107</ele>
        <time>2021-10-09T12:10:51.000Z</time>
      </trkpt>
      <trkpt lat="47.33094" lon="-1.33461">
        <ele>107</ele>
        <time>2021-10-09T12:10:52.000Z</time>
      </trkpt>
      <trkpt lat="47.33088" lon="-1.3345">
        <ele>106</ele>
        <time>2021-10-09T12:10:53.000Z</time>
      </trkpt>
      <trkpt lat="47.33081" lon="-1.3344">
        <ele>106</ele>
        <time>2021-10-09T12:10:54.000Z</time>
      </trkpt>
      <trkpt lat="47.33074" lon="-1.3343">
        <ele>105</ele>
        <time>2021-10-09T12:10:55.000Z</time>
      </trkpt>
      <trkpt lat="47.33066" lon="-1.33419">
        <ele>104</ele>
        <time>2021-10-09T12:10:56.000Z</time>
      </trkpt>
      <trkpt lat="47.33059" lon="-1.33409">
        <ele>103</ele>
        <time>2021-10-09T12:10:57.000Z</time>
      </trkpt>
      <trkpt lat="47.33051" lon="-1.334">
        <ele>102</ele>
        <time>2021-10-09T12:10:58.000Z</time>
      </trkpt>
      <trkpt lat="47.33043" lon="-1.3339">
        <ele>102</ele>
        <time>2021-10-09T12:10:59.000Z</time>
      </trkpt>
      <trkpt lat="47.33036" lon="-1.33381">
        <ele>101</ele>
        <time>2021-10-09T12:11:00.000Z</time>
      </trkpt>
      <trkpt lat="47.33023" lon="-1.33364">
        <ele>100</ele>
        <time>2021-10-09T12:11:02.000Z</time>
      </trkpt>
      <trkpt lat="47.3301" lon="-1.33348">
        <ele>99</ele>
        <time>2021-10-09T12:11:04.000Z</time>
      </trkpt>
      <trkpt lat="47.33002" lon="-1.33339">
        <ele>98</ele>
        <time>2021-10-09T12:11:05.000Z</time>
      </trkpt>
      <trkpt lat="47.32994" lon="-1.33332">
        <ele>97</ele>
        <time>2021-10-09T12:11:06.000Z</time>
      </trkpt>
      <trkpt lat="47.32986" lon="-1.33324">
        <ele>97</ele>
        <time>2021-10-09T12:11:07.000Z</time>
      </trkpt>
      <trkpt lat="47.32979" lon="-1.33316">
        <ele>96</ele>
        <time>2021-10-09T12:11:08.000Z</time>
      </trkpt>
      <trkpt lat="47.32966" lon="-1.33301">
        <ele>95</ele>
        <time>2021-10-09T12:11:10.000Z</time>
      </trkpt>
      <trkpt lat="47.32952" lon="-1.33285">
        <ele>95</ele>
        <time>2021-10-09T12:11:12.000Z</time>
      </trkpt>
      <trkpt lat="47.32943" lon="-1.33276">
        <ele>95</ele>
        <time>2021-10-09T12:11:13.000Z</time>
      </trkpt>
      <trkpt lat="47.32934" lon="-1.33267">
        <ele>96</ele>
        <time>2021-10-09T12:11:14.000Z</time>
      </trkpt>
      <trkpt lat="47.32924" lon="-1.33256">
        <ele>96</ele>
        <time>2021-10-09T12:11:15.000Z</time>
      </trkpt>
      <trkpt lat="47.32915" lon="-1.33245">
        <ele>96</ele>
        <time>2021-10-09T12:11:16.000Z</time>
      </trkpt>
      <trkpt lat="47.32905" lon="-1.33235">
        <ele>95</ele>
        <time>2021-10-09T12:11:17.000Z</time>
      </trkpt>
      <trkpt lat="47.32895" lon="-1.33226">
        <ele>96</ele>
        <time>2021-10-09T12:11:18.000Z</time>
      </trkpt>
      <trkpt lat="47.32885" lon="-1.33218">
        <ele>95</ele>
        <time>2021-10-09T12:11:19.000Z</time>
      </trkpt>
      <trkpt lat="47.32876" lon="-1.3321">
        <ele>95</ele>
        <time>2021-10-09T12:11:20.000Z</time>
      </trkpt>
      <trkpt lat="47.32867" lon="-1.33202">
        <ele>95</ele>
        <time>2021-10-09T12:11:21.000Z</time>
      </trkpt>
      <trkpt lat="47.32858" lon="-1.33194">
        <ele>94</ele>
        <time>2021-10-09T12:11:22.000Z</time>
      </trkpt>
      <trkpt lat="47.32849" lon="-1.33185">
        <ele>93</ele>
        <time>2021-10-09T12:11:23.000Z</time>
      </trkpt>
      <trkpt lat="47.32839" lon="-1.33176">
        <ele>93</ele>
        <time>2021-10-09T12:11:24.000Z</time>
      </trkpt>
      <trkpt lat="47.32831" lon="-1.33168">
        <ele>92</ele>
        <time>2021-10-09T12:11:25.000Z</time>
      </trkpt>
      <trkpt lat="47.32822" lon="-1.33159">
        <ele>91</ele>
        <time>2021-10-09T12:11:26.000Z</time>
      </trkpt>
      <trkpt lat="47.32813" lon="-1.3315">
        <ele>88</ele>
        <time>2021-10-09T12:11:27.000Z</time>
      </trkpt>
      <trkpt lat="47.32804" lon="-1.33141">
        <ele>86</ele>
        <time>2021-10-09T12:11:28.000Z</time>
      </trkpt>
      <trkpt lat="47.32795" lon="-1.33133">
        <ele>84</ele>
        <time>2021-10-09T12:11:29.000Z</time>
      </trkpt>
      <trkpt lat="47.32786" lon="-1.33126">
        <ele>82</ele>
        <time>2021-10-09T12:11:30.000Z</time>
      </trkpt>
      <trkpt lat="47.32777" lon="-1.33119">
        <ele>81</ele>
        <time>2021-10-09T12:11:31.000Z</time>
      </trkpt>
      <trkpt lat="47.32768" lon="-1.3311">
        <ele>80</ele>
        <time>2021-10-09T12:11:32.000Z</time>
      </trkpt>
      <trkpt lat="47.32759" lon="-1.33101">
        <ele>78</ele>
        <time>2021-10-09T12:11:33.000Z</time>
      </trkpt>
      <trkpt lat="47.32751" lon="-1.33091">
        <ele>77</ele>
        <time>2021-10-09T12:11:34.000Z</time>
      </trkpt>
      <trkpt lat="47.32742" lon="-1.33082">
        <ele>76</ele>
        <time>2021-10-09T12:11:35.000Z</time>
      </trkpt>
      <trkpt lat="47.32733" lon="-1.33072">
        <ele>75</ele>
        <time>2021-10-09T12:11:36.000Z</time>
      </trkpt>
      <trkpt lat="47.32726" lon="-1.33063">
        <ele>75</ele>
        <time>2021-10-09T12:11:37.000Z</time>
      </trkpt>
      <trkpt lat="47.32717" lon="-1.33054">
        <ele>74</ele>
        <time>2021-10-09T12:11:38.000Z</time>
      </trkpt>
      <trkpt lat="47.32707" lon="-1.33047">
        <ele>73</ele>
        <time>2021-10-09T12:11:39.000Z</time>
      </trkpt>
      <trkpt lat="47.32699" lon="-1.3304">
        <ele>72</ele>
        <time>2021-10-09T12:11:40.000Z</time>
      </trkpt>
      <trkpt lat="47.3269" lon="-1.33032">
        <ele>71</ele>
        <time>2021-10-09T12:11:41.000Z</time>
      </trkpt>
      <trkpt lat="47.3268" lon="-1.33024">
        <ele>70</ele>
        <time>2021-10-09T12:11:42.000Z</time>
      </trkpt>
      <trkpt lat="47.32671" lon="-1.33015">
        <ele>69</ele>
        <time>2021-10-09T12:11:43.000Z</time>
      </trkpt>
      <trkpt lat="47.32663" lon="-1.33007">
        <ele>68</ele>
        <time>2021-10-09T12:11:44.000Z</time>
      </trkpt>
      <trkpt lat="47.32656" lon="-1.32999">
        <ele>67</ele>
        <time>2021-10-09T12:11:45.000Z</time>
      </trkpt>
      <trkpt lat="47.32642" lon="-1.32985">
        <ele>64</ele>
        <time>2021-10-09T12:11:47.000Z</time>
      </trkpt>
      <trkpt lat="47.32632" lon="-1.32969">
        <ele>61</ele>
        <time>2021-10-09T12:11:49.000Z</time>
      </trkpt>
      <trkpt lat="47.32623" lon="-1.32955">
        <ele>59</ele>
        <time>2021-10-09T12:11:51.000Z</time>
      </trkpt>
      <trkpt lat="47.32611" lon="-1.32953">
        <ele>59</ele>
        <time>2021-10-09T12:11:54.000Z</time>
      </trkpt>
      <trkpt lat="47.32604" lon="-1.32964">
        <ele>57</ele>
        <time>2021-10-09T12:11:56.000Z</time>
      </trkpt>
      <trkpt lat="47.32596" lon="-1.32975">
        <ele>56</ele>
        <time>2021-10-09T12:11:58.000Z</time>
      </trkpt>
      <trkpt lat="47.32589" lon="-1.32984">
        <ele>56</ele>
        <time>2021-10-09T12:12:00.000Z</time>
      </trkpt>
      <trkpt lat="47.32582" lon="-1.32993">
        <ele>55</ele>
        <time>2021-10-09T12:12:02.000Z</time>
      </trkpt>
      <trkpt lat="47.32575" lon="-1.33002">
        <ele>56</ele>
        <time>2021-10-09T12:12:04.000Z</time>
      </trkpt>
      <trkpt lat="47.32567" lon="-1.33011">
        <ele>57</ele>
        <time>2021-10-09T12:12:06.000Z</time>
      </trkpt>
      <trkpt lat="47.32558" lon="-1.33019">
        <ele>56</ele>
        <time>2021-10-09T12:12:08.000Z</time>
      </trkpt>
      <trkpt lat="47.3255" lon="-1.33026">
        <ele>56</ele>
        <time>2021-10-09T12:12:10.000Z</time>
      </trkpt>
      <trkpt lat="47.32541" lon="-1.33034">
        <ele>56</ele>
        <time>2021-10-09T12:12:12.000Z</time>
      </trkpt>
      <trkpt lat="47.32531" lon="-1.33042">
        <ele>56</ele>
        <time>2021-10-09T12:12:14.000Z</time>
      </trkpt>
      <trkpt lat="47.3252" lon="-1.33051">
        <ele>56</ele>
        <time>2021-10-09T12:12:16.000Z</time>
      </trkpt>
      <trkpt lat="47.32509" lon="-1.33062">
        <ele>56</ele>
        <time>2021-10-09T12:12:18.000Z</time>
      </trkpt>
      <trkpt lat="47.32499" lon="-1.33072">
        <ele>56</ele>
        <time>2021-10-09T12:12:20.000Z</time>
      </trkpt>
      <trkpt lat="47.32491" lon="-1.33083">
        <ele>56</ele>
        <time>2021-10-09T12:12:22.000Z</time>
      </trkpt>
      <trkpt lat="47.32482" lon="-1.33094">
        <ele>56</ele>
        <time>2021-10-09T12:12:24.000Z</time>
      </trkpt>
      <trkpt lat="47.32474" lon="-1.33104">
        <ele>55</ele>
        <time>2021-10-09T12:12:26.000Z</time>
      </trkpt>
      <trkpt lat="47.32465" lon="-1.33113">
        <ele>55</ele>
        <time>2021-10-09T12:12:28.000Z</time>
      </trkpt>
      <trkpt lat="47.32457" lon="-1.33123">
        <ele>56</ele>
        <time>2021-10-09T12:12:34.000Z</time>
      </trkpt>
      <trkpt lat="47.32449" lon="-1.33134">
        <ele>57</ele>
        <time>2021-10-09T12:12:37.000Z</time>
      </trkpt>
      <trkpt lat="47.32439" lon="-1.3314">
        <ele>57</ele>
        <time>2021-10-09T12:12:39.000Z</time>
      </trkpt>
      <trkpt lat="47.3243" lon="-1.3314">
        <ele>57</ele>
        <time>2021-10-09T12:12:41.000Z</time>
      </trkpt>
      <trkpt lat="47.32417" lon="-1.33142">
        <ele>56</ele>
        <time>2021-10-09T12:12:44.000Z</time>
      </trkpt>
      <trkpt lat="47.32409" lon="-1.33152">
        <ele>56</ele>
        <time>2021-10-09T12:12:46.000Z</time>
      </trkpt>
      <trkpt lat="47.32401" lon="-1.33162">
        <ele>56</ele>
        <time>2021-10-09T12:12:48.000Z</time>
      </trkpt>
      <trkpt lat="47.32391" lon="-1.33175">
        <ele>56</ele>
        <time>2021-10-09T12:12:50.000Z</time>
      </trkpt>
      <trkpt lat="47.32383" lon="-1.33188">
        <ele>56</ele>
        <time>2021-10-09T12:12:52.000Z</time>
      </trkpt>
      <trkpt lat="47.32374" lon="-1.33202">
        <ele>56</ele>
        <time>2021-10-09T12:12:54.000Z</time>
      </trkpt>
      <trkpt lat="47.32366" lon="-1.33218">
        <ele>56</ele>
        <time>2021-10-09T12:12:56.000Z</time>
      </trkpt>
      <trkpt lat="47.32359" lon="-1.33234">
        <ele>56</ele>
        <time>2021-10-09T12:12:58.000Z</time>
      </trkpt>
      <trkpt lat="47.32351" lon="-1.33251">
        <ele>56</ele>
        <time>2021-10-09T12:13:00.000Z</time>
      </trkpt>
      <trkpt lat="47.32344" lon="-1.33266">
        <ele>55</ele>
        <time>2021-10-09T12:13:02.000Z</time>
      </trkpt>
      <trkpt lat="47.32337" lon="-1.33281">
        <ele>55</ele>
        <time>2021-10-09T12:13:04.000Z</time>
      </trkpt>
      <trkpt lat="47.32331" lon="-1.33296">
        <ele>55</ele>
        <time>2021-10-09T12:13:06.000Z</time>
      </trkpt>
      <trkpt lat="47.32324" lon="-1.33311">
        <ele>56</ele>
        <time>2021-10-09T12:13:08.000Z</time>
      </trkpt>
      <trkpt lat="47.32317" lon="-1.33326">
        <ele>56</ele>
        <time>2021-10-09T12:13:10.000Z</time>
      </trkpt>
      <trkpt lat="47.32311" lon="-1.33343">
        <ele>57</ele>
        <time>2021-10-09T12:13:12.000Z</time>
      </trkpt>
      <trkpt lat="47.32304" lon="-1.33359">
        <ele>57</ele>
        <time>2021-10-09T12:13:14.000Z</time>
      </trkpt>
      <trkpt lat="47.32297" lon="-1.33374">
        <ele>57</ele>
        <time>2021-10-09T12:13:16.000Z</time>
      </trkpt>
      <trkpt lat="47.32289" lon="-1.33388">
        <ele>57</ele>
        <time>2021-10-09T12:13:18.000Z</time>
      </trkpt>
      <trkpt lat="47.32281" lon="-1.33402">
        <ele>57</ele>
        <time>2021-10-09T12:13:20.000Z</time>
      </trkpt>
      <trkpt lat="47.32273" lon="-1.33415">
        <ele>57</ele>
        <time>2021-10-09T12:13:22.000Z</time>
      </trkpt>
      <trkpt lat="47.32266" lon="-1.3343">
        <ele>58</ele>
        <time>2021-10-09T12:13:24.000Z</time>
      </trkpt>
      <trkpt lat="47.32259" lon="-1.33444">
        <ele>57</ele>
        <time>2021-10-09T12:13:26.000Z</time>
      </trkpt>
      <trkpt lat="47.32252" lon="-1.3346">
        <ele>58</ele>
        <time>2021-10-09T12:13:28.000Z</time>
      </trkpt>
      <trkpt lat="47.32244" lon="-1.33475">
        <ele>58</ele>
        <time>2021-10-09T12:13:30.000Z</time>
      </trkpt>
      <trkpt lat="47.32237" lon="-1.33491">
        <ele>57</ele>
        <time>2021-10-09T12:13:32.000Z</time>
      </trkpt>
      <trkpt lat="47.32229" lon="-1.33508">
        <ele>57</ele>
        <time>2021-10-09T12:13:34.000Z</time>
      </trkpt>
      <trkpt lat="47.32222" lon="-1.33524">
        <ele>56</ele>
        <time>2021-10-09T12:13:36.000Z</time>
      </trkpt>
      <trkpt lat="47.32215" lon="-1.33538">
        <ele>56</ele>
        <time>2021-10-09T12:13:38.000Z</time>
      </trkpt>
      <trkpt lat="47.32209" lon="-1.33553">
        <ele>56</ele>
        <time>2021-10-09T12:13:40.000Z</time>
      </trkpt>
      <trkpt lat="47.32203" lon="-1.33568">
        <ele>56</ele>
        <time>2021-10-09T12:13:42.000Z</time>
      </trkpt>
      <trkpt lat="47.32197" lon="-1.33583">
        <ele>57</ele>
        <time>2021-10-09T12:13:44.000Z</time>
      </trkpt>
      <trkpt lat="47.32191" lon="-1.33598">
        <ele>56</ele>
        <time>2021-10-09T12:13:46.000Z</time>
      </trkpt>
      <trkpt lat="47.32186" lon="-1.33613">
        <ele>55</ele>
        <time>2021-10-09T12:13:48.000Z</time>
      </trkpt>
      <trkpt lat="47.32182" lon="-1.33628">
        <ele>56</ele>
        <time>2021-10-09T12:13:50.000Z</time>
      </trkpt>
      <trkpt lat="47.32175" lon="-1.33644">
        <ele>55</ele>
        <time>2021-10-09T12:13:53.000Z</time>
      </trkpt>
      <trkpt lat="47.3217" lon="-1.33655">
        <ele>55</ele>
        <time>2021-10-09T12:13:55.000Z</time>
      </trkpt>
      <trkpt lat="47.32164" lon="-1.33668">
        <ele>55</ele>
        <time>2021-10-09T12:13:57.000Z</time>
      </trkpt>
      <trkpt lat="47.32158" lon="-1.33681">
        <ele>55</ele>
        <time>2021-10-09T12:13:59.000Z</time>
      </trkpt>
      <trkpt lat="47.32153" lon="-1.33696">
        <ele>56</ele>
        <time>2021-10-09T12:14:01.000Z</time>
      </trkpt>
      <trkpt lat="47.32147" lon="-1.33711">
        <ele>56</ele>
        <time>2021-10-09T12:14:03.000Z</time>
      </trkpt>
      <trkpt lat="47.3214" lon="-1.33727">
        <ele>56</ele>
        <time>2021-10-09T12:14:05.000Z</time>
      </trkpt>
      <trkpt lat="47.32133" lon="-1.3374">
        <ele>57</ele>
        <time>2021-10-09T12:14:07.000Z</time>
      </trkpt>
      <trkpt lat="47.32126" lon="-1.33754">
        <ele>58</ele>
        <time>2021-10-09T12:14:09.000Z</time>
      </trkpt>
      <trkpt lat="47.3212" lon="-1.33769">
        <ele>59</ele>
        <time>2021-10-09T12:14:11.000Z</time>
      </trkpt>
      <trkpt lat="47.32113" lon="-1.33783">
        <ele>60</ele>
        <time>2021-10-09T12:14:13.000Z</time>
      </trkpt>
      <trkpt lat="47.32106" lon="-1.33798">
        <ele>61</ele>
        <time>2021-10-09T12:14:15.000Z</time>
      </trkpt>
      <trkpt lat="47.32099" lon="-1.33814">
        <ele>61</ele>
        <time>2021-10-09T12:14:17.000Z</time>
      </trkpt>
      <trkpt lat="47.32092" lon="-1.33831">
        <ele>62</ele>
        <time>2021-10-09T12:14:19.000Z</time>
      </trkpt>
      <trkpt lat="47.32084" lon="-1.33846">
        <ele>61</ele>
        <time>2021-10-09T12:14:21.000Z</time>
      </trkpt>
      <trkpt lat="47.32076" lon="-1.33862">
        <ele>60</ele>
        <time>2021-10-09T12:14:23.000Z</time>
      </trkpt>
      <trkpt lat="47.32069" lon="-1.33876">
        <ele>61</ele>
        <time>2021-10-09T12:14:25.000Z</time>
      </trkpt>
      <trkpt lat="47.32062" lon="-1.33891">
        <ele>61</ele>
        <time>2021-10-09T12:14:27.000Z</time>
      </trkpt>
      <trkpt lat="47.32052" lon="-1.33906">
        <ele>60</ele>
        <time>2021-10-09T12:14:29.000Z</time>
      </trkpt>
      <trkpt lat="47.32044" lon="-1.33921">
        <ele>60</ele>
        <time>2021-10-09T12:14:31.000Z</time>
      </trkpt>
      <trkpt lat="47.32037" lon="-1.33935">
        <ele>60</ele>
        <time>2021-10-09T12:14:33.000Z</time>
      </trkpt>
      <trkpt lat="47.32031" lon="-1.33948">
        <ele>60</ele>
        <time>2021-10-09T12:14:35.000Z</time>
      </trkpt>
      <trkpt lat="47.32026" lon="-1.3396">
        <ele>61</ele>
        <time>2021-10-09T12:14:37.000Z</time>
      </trkpt>
      <trkpt lat="47.32018" lon="-1.33974">
        <ele>60</ele>
        <time>2021-10-09T12:14:40.000Z</time>
      </trkpt>
      <trkpt lat="47.32012" lon="-1.33986">
        <ele>59</ele>
        <time>2021-10-09T12:14:42.000Z</time>
      </trkpt>
      <trkpt lat="47.32003" lon="-1.34001">
        <ele>59</ele>
        <time>2021-10-09T12:14:44.000Z</time>
      </trkpt>
      <trkpt lat="47.31994" lon="-1.34017">
        <ele>58</ele>
        <time>2021-10-09T12:14:46.000Z</time>
      </trkpt>
      <trkpt lat="47.31985" lon="-1.34032">
        <ele>58</ele>
        <time>2021-10-09T12:14:48.000Z</time>
      </trkpt>
      <trkpt lat="47.31974" lon="-1.34047">
        <ele>58</ele>
        <time>2021-10-09T12:14:50.000Z</time>
      </trkpt>
      <trkpt lat="47.31965" lon="-1.34061">
        <ele>59</ele>
        <time>2021-10-09T12:14:52.000Z</time>
      </trkpt>
      <trkpt lat="47.31955" lon="-1.34076">
        <ele>58</ele>
        <time>2021-10-09T12:14:54.000Z</time>
      </trkpt>
      <trkpt lat="47.31946" lon="-1.3409">
        <ele>58</ele>
        <time>2021-10-09T12:14:56.000Z</time>
      </trkpt>
      <trkpt lat="47.31938" lon="-1.34104">
        <ele>59</ele>
        <time>2021-10-09T12:14:58.000Z</time>
      </trkpt>
      <trkpt lat="47.3193" lon="-1.34118">
        <ele>59</ele>
        <time>2021-10-09T12:15:00.000Z</time>
      </trkpt>
      <trkpt lat="47.31921" lon="-1.34132">
        <ele>58</ele>
        <time>2021-10-09T12:15:02.000Z</time>
      </trkpt>
      <trkpt lat="47.31912" lon="-1.34145">
        <ele>58</ele>
        <time>2021-10-09T12:15:04.000Z</time>
      </trkpt>
      <trkpt lat="47.31903" lon="-1.34158">
        <ele>58</ele>
        <time>2021-10-09T12:15:06.000Z</time>
      </trkpt>
      <trkpt lat="47.31894" lon="-1.34171">
        <ele>58</ele>
        <time>2021-10-09T12:15:08.000Z</time>
      </trkpt>
      <trkpt lat="47.31882" lon="-1.34185">
        <ele>57</ele>
        <time>2021-10-09T12:15:10.000Z</time>
      </trkpt>
      <trkpt lat="47.31872" lon="-1.34199">
        <ele>57</ele>
        <time>2021-10-09T12:15:12.000Z</time>
      </trkpt>
      <trkpt lat="47.31862" lon="-1.34214">
        <ele>57</ele>
        <time>2021-10-09T12:15:14.000Z</time>
      </trkpt>
      <trkpt lat="47.31854" lon="-1.34229">
        <ele>57</ele>
        <time>2021-10-09T12:15:16.000Z</time>
      </trkpt>
      <trkpt lat="47.31844" lon="-1.34243">
        <ele>56</ele>
        <time>2021-10-09T12:15:18.000Z</time>
      </trkpt>
      <trkpt lat="47.31835" lon="-1.34257">
        <ele>56</ele>
        <time>2021-10-09T12:15:20.000Z</time>
      </trkpt>
      <trkpt lat="47.31827" lon="-1.34271">
        <ele>56</ele>
        <time>2021-10-09T12:15:22.000Z</time>
      </trkpt>
      <trkpt lat="47.31818" lon="-1.34285">
        <ele>56</ele>
        <time>2021-10-09T12:15:24.000Z</time>
      </trkpt>
      <trkpt lat="47.31809" lon="-1.34299">
        <ele>56</ele>
        <time>2021-10-09T12:15:26.000Z</time>
      </trkpt>
      <trkpt lat="47.31801" lon="-1.34314">
        <ele>55</ele>
        <time>2021-10-09T12:15:28.000Z</time>
      </trkpt>
      <trkpt lat="47.31793" lon="-1.34328">
        <ele>56</ele>
        <time>2021-10-09T12:15:30.000Z</time>
      </trkpt>
      <trkpt lat="47.31783" lon="-1.34343">
        <ele>56</ele>
        <time>2021-10-09T12:15:32.000Z</time>
      </trkpt>
      <trkpt lat="47.31775" lon="-1.34356">
        <ele>55</ele>
        <time>2021-10-09T12:15:34.000Z</time>
      </trkpt>
      <trkpt lat="47.31768" lon="-1.34368">
        <ele>55</ele>
        <time>2021-10-09T12:15:36.000Z</time>
      </trkpt>
      <trkpt lat="47.3176" lon="-1.3438">
        <ele>56</ele>
        <time>2021-10-09T12:15:39.000Z</time>
      </trkpt>
      <trkpt lat="47.31752" lon="-1.34392">
        <ele>56</ele>
        <time>2021-10-09T12:15:42.000Z</time>
      </trkpt>
      <trkpt lat="47.31745" lon="-1.34404">
        <ele>58</ele>
        <time>2021-10-09T12:15:45.000Z</time>
      </trkpt>
      <trkpt lat="47.31737" lon="-1.34415">
        <ele>58</ele>
        <time>2021-10-09T12:15:48.000Z</time>
      </trkpt>
      <trkpt lat="47.31729" lon="-1.34426">
        <ele>58</ele>
        <time>2021-10-09T12:15:51.000Z</time>
      </trkpt>
      <trkpt lat="47.31722" lon="-1.34438">
        <ele>58</ele>
        <time>2021-10-09T12:15:56.000Z</time>
      </trkpt>
      <trkpt lat="47.31715" lon="-1.34449">
        <ele>58</ele>
        <time>2021-10-09T12:15:59.000Z</time>
      </trkpt>
      <trkpt lat="47.31708" lon="-1.34457">
        <ele>59</ele>
        <time>2021-10-09T12:16:01.000Z</time>
      </trkpt>
      <trkpt lat="47.31701" lon="-1.34469">
        <ele>59</ele>
        <time>2021-10-09T12:16:03.000Z</time>
      </trkpt>
      <trkpt lat="47.31695" lon="-1.34481">
        <ele>58</ele>
        <time>2021-10-09T12:16:05.000Z</time>
      </trkpt>
      <trkpt lat="47.31687" lon="-1.34493">
        <ele>58</ele>
        <time>2021-10-09T12:16:07.000Z</time>
      </trkpt>
      <trkpt lat="47.31679" lon="-1.34506">
        <ele>58</ele>
        <time>2021-10-09T12:16:09.000Z</time>
      </trkpt>
      <trkpt lat="47.31671" lon="-1.34519">
        <ele>58</ele>
        <time>2021-10-09T12:16:11.000Z</time>
      </trkpt>
      <trkpt lat="47.31664" lon="-1.34531">
        <ele>58</ele>
        <time>2021-10-09T12:16:13.000Z</time>
      </trkpt>
      <trkpt lat="47.31656" lon="-1.34544">
        <ele>59</ele>
        <time>2021-10-09T12:16:15.000Z</time>
      </trkpt>
      <trkpt lat="47.3165" lon="-1.34556">
        <ele>59</ele>
        <time>2021-10-09T12:16:17.000Z</time>
      </trkpt>
      <trkpt lat="47.31644" lon="-1.34567">
        <ele>60</ele>
        <time>2021-10-09T12:16:19.000Z</time>
      </trkpt>
      <trkpt lat="47.31637" lon="-1.34578">
        <ele>61</ele>
        <time>2021-10-09T12:16:21.000Z</time>
      </trkpt>
      <trkpt lat="47.31629" lon="-1.34588">
        <ele>61</ele>
        <time>2021-10-09T12:16:23.000Z</time>
      </trkpt>
      <trkpt lat="47.3162" lon="-1.34599">
        <ele>61</ele>
        <time>2021-10-09T12:16:25.000Z</time>
      </trkpt>
      <trkpt lat="47.31613" lon="-1.34613">
        <ele>60</ele>
        <time>2021-10-09T12:16:27.000Z</time>
      </trkpt>
      <trkpt lat="47.31606" lon="-1.34626">
        <ele>60</ele>
        <time>2021-10-09T12:16:29.000Z</time>
      </trkpt>
      <trkpt lat="47.31598" lon="-1.34639">
        <ele>60</ele>
        <time>2021-10-09T12:16:31.000Z</time>
      </trkpt>
      <trkpt lat="47.31589" lon="-1.34652">
        <ele>60</ele>
        <time>2021-10-09T12:16:33.000Z</time>
      </trkpt>
      <trkpt lat="47.3158" lon="-1.34666">
        <ele>60</ele>
        <time>2021-10-09T12:16:35.000Z</time>
      </trkpt>
      <trkpt lat="47.31572" lon="-1.34679">
        <ele>60</ele>
        <time>2021-10-09T12:16:37.000Z</time>
      </trkpt>
      <trkpt lat="47.31565" lon="-1.34692">
        <ele>59</ele>
        <time>2021-10-09T12:16:39.000Z</time>
      </trkpt>
      <trkpt lat="47.31556" lon="-1.34706">
        <ele>59</ele>
        <time>2021-10-09T12:16:41.000Z</time>
      </trkpt>
      <trkpt lat="47.31547" lon="-1.34719">
        <ele>59</ele>
        <time>2021-10-09T12:16:43.000Z</time>
      </trkpt>
      <trkpt lat="47.31538" lon="-1.34731">
        <ele>60</ele>
        <time>2021-10-09T12:16:45.000Z</time>
      </trkpt>
      <trkpt lat="47.31528" lon="-1.34744">
        <ele>59</ele>
        <time>2021-10-09T12:16:47.000Z</time>
      </trkpt>
      <trkpt lat="47.3152" lon="-1.34757">
        <ele>59</ele>
        <time>2021-10-09T12:16:49.000Z</time>
      </trkpt>
      <trkpt lat="47.31513" lon="-1.34769">
        <ele>58</ele>
        <time>2021-10-09T12:16:51.000Z</time>
      </trkpt>
      <trkpt lat="47.31505" lon="-1.34781">
        <ele>57</ele>
        <time>2021-10-09T12:16:53.000Z</time>
      </trkpt>
      <trkpt lat="47.31496" lon="-1.34794">
        <ele>58</ele>
        <time>2021-10-09T12:16:55.000Z</time>
      </trkpt>
      <trkpt lat="47.31489" lon="-1.34808">
        <ele>58</ele>
        <time>2021-10-09T12:16:57.000Z</time>
      </trkpt>
      <trkpt lat="47.31481" lon="-1.34823">
        <ele>57</ele>
        <time>2021-10-09T12:16:59.000Z</time>
      </trkpt>
      <trkpt lat="47.31472" lon="-1.34836">
        <ele>57</ele>
        <time>2021-10-09T12:17:01.000Z</time>
      </trkpt>
      <trkpt lat="47.31463" lon="-1.34849">
        <ele>57</ele>
        <time>2021-10-09T12:17:03.000Z</time>
      </trkpt>
      <trkpt lat="47.31455" lon="-1.34862">
        <ele>57</ele>
        <time>2021-10-09T12:17:05.000Z</time>
      </trkpt>
      <trkpt lat="47.31447" lon="-1.34875">
        <ele>57</ele>
        <time>2021-10-09T12:17:07.000Z</time>
      </trkpt>
      <trkpt lat="47.31439" lon="-1.34888">
        <ele>58</ele>
        <time>2021-10-09T12:17:09.000Z</time>
      </trkpt>
      <trkpt lat="47.31431" lon="-1.34901">
        <ele>58</ele>
        <time>2021-10-09T12:17:11.000Z</time>
      </trkpt>
      <trkpt lat="47.31421" lon="-1.34915">
        <ele>58</ele>
        <time>2021-10-09T12:17:13.000Z</time>
      </trkpt>
      <trkpt lat="47.31413" lon="-1.34928">
        <ele>58</ele>
        <time>2021-10-09T12:17:15.000Z</time>
      </trkpt>
      <trkpt lat="47.31405" lon="-1.34942">
        <ele>57</ele>
        <time>2021-10-09T12:17:17.000Z</time>
      </trkpt>
      <trkpt lat="47.31396" lon="-1.34955">
        <ele>57</ele>
        <time>2021-10-09T12:17:19.000Z</time>
      </trkpt>
      <trkpt lat="47.31387" lon="-1.34969">
        <ele>57</ele>
        <time>2021-10-09T12:17:21.000Z</time>
      </trkpt>
      <trkpt lat="47.31379" lon="-1.34981">
        <ele>57</ele>
        <time>2021-10-09T12:17:23.000Z</time>
      </trkpt>
      <trkpt lat="47.31372" lon="-1.34995">
        <ele>58</ele>
        <time>2021-10-09T12:17:25.000Z</time>
      </trkpt>
      <trkpt lat="47.31364" lon="-1.35008">
        <ele>58</ele>
        <time>2021-10-09T12:17:27.000Z</time>
      </trkpt>
      <trkpt lat="47.31356" lon="-1.35022">
        <ele>58</ele>
        <time>2021-10-09T12:17:29.000Z</time>
      </trkpt>
      <trkpt lat="47.31349" lon="-1.35037">
        <ele>58</ele>
        <time>2021-10-09T12:17:31.000Z</time>
      </trkpt>
      <trkpt lat="47.31342" lon="-1.3505">
        <ele>58</ele>
        <time>2021-10-09T12:17:33.000Z</time>
      </trkpt>
      <trkpt lat="47.31334" lon="-1.35063">
        <ele>58</ele>
        <time>2021-10-09T12:17:35.000Z</time>
      </trkpt>
      <trkpt lat="47.31326" lon="-1.35076">
        <ele>58</ele>
        <time>2021-10-09T12:17:37.000Z</time>
      </trkpt>
      <trkpt lat="47.31317" lon="-1.35083">
        <ele>58</ele>
        <time>2021-10-09T12:17:39.000Z</time>
      </trkpt>
      <trkpt lat="47.31306" lon="-1.3509">
        <ele>58</ele>
        <time>2021-10-09T12:17:41.000Z</time>
      </trkpt>
      <trkpt lat="47.31295" lon="-1.35101">
        <ele>58</ele>
        <time>2021-10-09T12:17:43.000Z</time>
      </trkpt>
      <trkpt lat="47.31288" lon="-1.35113">
        <ele>57</ele>
        <time>2021-10-09T12:17:45.000Z</time>
      </trkpt>
      <trkpt lat="47.31283" lon="-1.35128">
        <ele>56</ele>
        <time>2021-10-09T12:17:47.000Z</time>
      </trkpt>
      <trkpt lat="47.31277" lon="-1.35144">
        <ele>57</ele>
        <time>2021-10-09T12:17:49.000Z</time>
      </trkpt>
      <trkpt lat="47.31269" lon="-1.35159">
        <ele>57</ele>
        <time>2021-10-09T12:17:51.000Z</time>
      </trkpt>
      <trkpt lat="47.31261" lon="-1.35174">
        <ele>56</ele>
        <time>2021-10-09T12:17:53.000Z</time>
      </trkpt>
      <trkpt lat="47.31253" lon="-1.35189">
        <ele>56</ele>
        <time>2021-10-09T12:17:55.000Z</time>
      </trkpt>
      <trkpt lat="47.31244" lon="-1.35204">
        <ele>56</ele>
        <time>2021-10-09T12:17:57.000Z</time>
      </trkpt>
      <trkpt lat="47.31234" lon="-1.35218">
        <ele>56</ele>
        <time>2021-10-09T12:17:59.000Z</time>
      </trkpt>
      <trkpt lat="47.31224" lon="-1.35233">
        <ele>55</ele>
        <time>2021-10-09T12:18:01.000Z</time>
      </trkpt>
      <trkpt lat="47.31215" lon="-1.35247">
        <ele>55</ele>
        <time>2021-10-09T12:18:03.000Z</time>
      </trkpt>
      <trkpt lat="47.31207" lon="-1.35261">
        <ele>55</ele>
        <time>2021-10-09T12:18:05.000Z</time>
      </trkpt>
      <trkpt lat="47.31198" lon="-1.35274">
        <ele>55</ele>
        <time>2021-10-09T12:18:07.000Z</time>
      </trkpt>
      <trkpt lat="47.3119" lon="-1.35286">
        <ele>56</ele>
        <time>2021-10-09T12:18:09.000Z</time>
      </trkpt>
      <trkpt lat="47.3118" lon="-1.35301">
        <ele>56</ele>
        <time>2021-10-09T12:18:11.000Z</time>
      </trkpt>
      <trkpt lat="47.3117" lon="-1.35316">
        <ele>56</ele>
        <time>2021-10-09T12:18:13.000Z</time>
      </trkpt>
      <trkpt lat="47.31161" lon="-1.3533">
        <ele>56</ele>
        <time>2021-10-09T12:18:15.000Z</time>
      </trkpt>
      <trkpt lat="47.31153" lon="-1.35345">
        <ele>56</ele>
        <time>2021-10-09T12:18:17.000Z</time>
      </trkpt>
      <trkpt lat="47.31144" lon="-1.3536">
        <ele>55</ele>
        <time>2021-10-09T12:18:19.000Z</time>
      </trkpt>
      <trkpt lat="47.31135" lon="-1.35375">
        <ele>55</ele>
        <time>2021-10-09T12:18:21.000Z</time>
      </trkpt>
      <trkpt lat="47.31123" lon="-1.35396">
        <ele>55</ele>
        <time>2021-10-09T12:18:24.000Z</time>
      </trkpt>
      <trkpt lat="47.31114" lon="-1.35409">
        <ele>55</ele>
        <time>2021-10-09T12:18:26.000Z</time>
      </trkpt>
      <trkpt lat="47.311" lon="-1.35429">
        <ele>54</ele>
        <time>2021-10-09T12:18:29.000Z</time>
      </trkpt>
      <trkpt lat="47.31092" lon="-1.35443">
        <ele>54</ele>
        <time>2021-10-09T12:18:31.000Z</time>
      </trkpt>
      <trkpt lat="47.31082" lon="-1.35457">
        <ele>54</ele>
        <time>2021-10-09T12:18:33.000Z</time>
      </trkpt>
      <trkpt lat="47.31072" lon="-1.3547">
        <ele>54</ele>
        <time>2021-10-09T12:18:35.000Z</time>
      </trkpt>
      <trkpt lat="47.31061" lon="-1.35482">
        <ele>55</ele>
        <time>2021-10-09T12:18:37.000Z</time>
      </trkpt>
      <trkpt lat="47.31044" lon="-1.355">
        <ele>55</ele>
        <time>2021-10-09T12:18:40.000Z</time>
      </trkpt>
      <trkpt lat="47.31033" lon="-1.35511">
        <ele>55</ele>
        <time>2021-10-09T12:18:42.000Z</time>
      </trkpt>
      <trkpt lat="47.31023" lon="-1.35523">
        <ele>55</ele>
        <time>2021-10-09T12:18:44.000Z</time>
      </trkpt>
      <trkpt lat="47.31012" lon="-1.35535">
        <ele>55</ele>
        <time>2021-10-09T12:18:46.000Z</time>
      </trkpt>
      <trkpt lat="47.31002" lon="-1.35547">
        <ele>55</ele>
        <time>2021-10-09T12:18:48.000Z</time>
      </trkpt>
      <trkpt lat="47.30992" lon="-1.35559">
        <ele>56</ele>
        <time>2021-10-09T12:18:50.000Z</time>
      </trkpt>
      <trkpt lat="47.30981" lon="-1.35572">
        <ele>55</ele>
        <time>2021-10-09T12:18:52.000Z</time>
      </trkpt>
      <trkpt lat="47.3097" lon="-1.35583">
        <ele>56</ele>
        <time>2021-10-09T12:18:54.000Z</time>
      </trkpt>
      <trkpt lat="47.30959" lon="-1.35595">
        <ele>56</ele>
        <time>2021-10-09T12:18:56.000Z</time>
      </trkpt>
      <trkpt lat="47.3095" lon="-1.35608">
        <ele>56</ele>
        <time>2021-10-09T12:18:58.000Z</time>
      </trkpt>
      <trkpt lat="47.3094" lon="-1.35619">
        <ele>57</ele>
        <time>2021-10-09T12:19:00.000Z</time>
      </trkpt>
      <trkpt lat="47.30929" lon="-1.3563">
        <ele>57</ele>
        <time>2021-10-09T12:19:02.000Z</time>
      </trkpt>
      <trkpt lat="47.30919" lon="-1.35642">
        <ele>56</ele>
        <time>2021-10-09T12:19:04.000Z</time>
      </trkpt>
      <trkpt lat="47.30908" lon="-1.35654">
        <ele>56</ele>
        <time>2021-10-09T12:19:06.000Z</time>
      </trkpt>
      <trkpt lat="47.30898" lon="-1.35666">
        <ele>57</ele>
        <time>2021-10-09T12:19:08.000Z</time>
      </trkpt>
      <trkpt lat="47.30888" lon="-1.35678">
        <ele>56</ele>
        <time>2021-10-09T12:19:10.000Z</time>
      </trkpt>
      <trkpt lat="47.30877" lon="-1.35689">
        <ele>56</ele>
        <time>2021-10-09T12:19:12.000Z</time>
      </trkpt>
      <trkpt lat="47.30867" lon="-1.35701">
        <ele>56</ele>
        <time>2021-10-09T12:19:14.000Z</time>
      </trkpt>
      <trkpt lat="47.30857" lon="-1.35715">
        <ele>56</ele>
        <time>2021-10-09T12:19:16.000Z</time>
      </trkpt>
      <trkpt lat="47.30847" lon="-1.35727">
        <ele>56</ele>
        <time>2021-10-09T12:19:18.000Z</time>
      </trkpt>
      <trkpt lat="47.30836" lon="-1.35739">
        <ele>56</ele>
        <time>2021-10-09T12:19:20.000Z</time>
      </trkpt>
      <trkpt lat="47.30825" lon="-1.3575">
        <ele>56</ele>
        <time>2021-10-09T12:19:22.000Z</time>
      </trkpt>
      <trkpt lat="47.30815" lon="-1.35764">
        <ele>56</ele>
        <time>2021-10-09T12:19:24.000Z</time>
      </trkpt>
      <trkpt lat="47.30805" lon="-1.35776">
        <ele>56</ele>
        <time>2021-10-09T12:19:26.000Z</time>
      </trkpt>
      <trkpt lat="47.30795" lon="-1.35789">
        <ele>56</ele>
        <time>2021-10-09T12:19:28.000Z</time>
      </trkpt>
      <trkpt lat="47.30785" lon="-1.358">
        <ele>56</ele>
        <time>2021-10-09T12:19:30.000Z</time>
      </trkpt>
      <trkpt lat="47.30775" lon="-1.35814">
        <ele>56</ele>
        <time>2021-10-09T12:19:32.000Z</time>
      </trkpt>
      <trkpt lat="47.30765" lon="-1.35826">
        <ele>55</ele>
        <time>2021-10-09T12:19:34.000Z</time>
      </trkpt>
      <trkpt lat="47.30754" lon="-1.35837">
        <ele>55</ele>
        <time>2021-10-09T12:19:36.000Z</time>
      </trkpt>
      <trkpt lat="47.30744" lon="-1.35849">
        <ele>55</ele>
        <time>2021-10-09T12:19:38.000Z</time>
      </trkpt>
      <trkpt lat="47.30733" lon="-1.3586">
        <ele>56</ele>
        <time>2021-10-09T12:19:40.000Z</time>
      </trkpt>
      <trkpt lat="47.30723" lon="-1.35871">
        <ele>56</ele>
        <time>2021-10-09T12:19:42.000Z</time>
      </trkpt>
      <trkpt lat="47.30713" lon="-1.35882">
        <ele>56</ele>
        <time>2021-10-09T12:19:44.000Z</time>
      </trkpt>
      <trkpt lat="47.30702" lon="-1.35894">
        <ele>57</ele>
        <time>2021-10-09T12:19:46.000Z</time>
      </trkpt>
      <trkpt lat="47.30691" lon="-1.35906">
        <ele>56</ele>
        <time>2021-10-09T12:19:48.000Z</time>
      </trkpt>
      <trkpt lat="47.30681" lon="-1.35919">
        <ele>56</ele>
        <time>2021-10-09T12:19:50.000Z</time>
      </trkpt>
      <trkpt lat="47.30672" lon="-1.35932">
        <ele>56</ele>
        <time>2021-10-09T12:19:52.000Z</time>
      </trkpt>
      <trkpt lat="47.30661" lon="-1.35944">
        <ele>56</ele>
        <time>2021-10-09T12:19:54.000Z</time>
      </trkpt>
      <trkpt lat="47.30651" lon="-1.35956">
        <ele>56</ele>
        <time>2021-10-09T12:19:56.000Z</time>
      </trkpt>
      <trkpt lat="47.30641" lon="-1.35968">
        <ele>56</ele>
        <time>2021-10-09T12:19:58.000Z</time>
      </trkpt>
      <trkpt lat="47.3063" lon="-1.35979">
        <ele>56</ele>
        <time>2021-10-09T12:20:00.000Z</time>
      </trkpt>
      <trkpt lat="47.3062" lon="-1.3599">
        <ele>56</ele>
        <time>2021-10-09T12:20:02.000Z</time>
      </trkpt>
      <trkpt lat="47.3061" lon="-1.36001">
        <ele>55</ele>
        <time>2021-10-09T12:20:04.000Z</time>
      </trkpt>
      <trkpt lat="47.306" lon="-1.36011">
        <ele>55</ele>
        <time>2021-10-09T12:20:06.000Z</time>
      </trkpt>
      <trkpt lat="47.30589" lon="-1.36022">
        <ele>54</ele>
        <time>2021-10-09T12:20:08.000Z</time>
      </trkpt>
      <trkpt lat="47.30583" lon="-1.36036">
        <ele>54</ele>
        <time>2021-10-09T12:20:11.000Z</time>
      </trkpt>
      <trkpt lat="47.30573" lon="-1.36053">
        <ele>55</ele>
        <time>2021-10-09T12:20:14.000Z</time>
      </trkpt>
      <trkpt lat="47.30563" lon="-1.36067">
        <ele>55</ele>
        <time>2021-10-09T12:20:16.000Z</time>
      </trkpt>
      <trkpt lat="47.30553" lon="-1.36081">
        <ele>54</ele>
        <time>2021-10-09T12:20:18.000Z</time>
      </trkpt>
      <trkpt lat="47.30543" lon="-1.36095">
        <ele>53</ele>
        <time>2021-10-09T12:20:20.000Z</time>
      </trkpt>
      <trkpt lat="47.30533" lon="-1.36109">
        <ele>54</ele>
        <time>2021-10-09T12:20:22.000Z</time>
      </trkpt>
      <trkpt lat="47.30525" lon="-1.36121">
        <ele>53</ele>
        <time>2021-10-09T12:20:24.000Z</time>
      </trkpt>
      <trkpt lat="47.30516" lon="-1.36133">
        <ele>54</ele>
        <time>2021-10-09T12:20:26.000Z</time>
      </trkpt>
      <trkpt lat="47.30507" lon="-1.36146">
        <ele>54</ele>
        <time>2021-10-09T12:20:28.000Z</time>
      </trkpt>
      <trkpt lat="47.305" lon="-1.36158">
        <ele>54</ele>
        <time>2021-10-09T12:20:30.000Z</time>
      </trkpt>
      <trkpt lat="47.30492" lon="-1.36173">
        <ele>55</ele>
        <time>2021-10-09T12:20:32.000Z</time>
      </trkpt>
      <trkpt lat="47.30484" lon="-1.3619">
        <ele>56</ele>
        <time>2021-10-09T12:20:34.000Z</time>
      </trkpt>
      <trkpt lat="47.30475" lon="-1.36207">
        <ele>56</ele>
        <time>2021-10-09T12:20:36.000Z</time>
      </trkpt>
      <trkpt lat="47.30467" lon="-1.36223">
        <ele>57</ele>
        <time>2021-10-09T12:20:38.000Z</time>
      </trkpt>
      <trkpt lat="47.3046" lon="-1.36241">
        <ele>56</ele>
        <time>2021-10-09T12:20:40.000Z</time>
      </trkpt>
      <trkpt lat="47.30451" lon="-1.36257">
        <ele>57</ele>
        <time>2021-10-09T12:20:42.000Z</time>
      </trkpt>
      <trkpt lat="47.30444" lon="-1.36273">
        <ele>57</ele>
        <time>2021-10-09T12:20:44.000Z</time>
      </trkpt>
      <trkpt lat="47.30436" lon="-1.36289">
        <ele>57</ele>
        <time>2021-10-09T12:20:46.000Z</time>
      </trkpt>
      <trkpt lat="47.30428" lon="-1.36305">
        <ele>57</ele>
        <time>2021-10-09T12:20:48.000Z</time>
      </trkpt>
      <trkpt lat="47.3042" lon="-1.3632">
        <ele>57</ele>
        <time>2021-10-09T12:20:50.000Z</time>
      </trkpt>
      <trkpt lat="47.30413" lon="-1.36334">
        <ele>57</ele>
        <time>2021-10-09T12:20:52.000Z</time>
      </trkpt>
      <trkpt lat="47.30404" lon="-1.36345">
        <ele>57</ele>
        <time>2021-10-09T12:20:54.000Z</time>
      </trkpt>
      <trkpt lat="47.30397" lon="-1.36359">
        <ele>56</ele>
        <time>2021-10-09T12:20:56.000Z</time>
      </trkpt>
      <trkpt lat="47.30391" lon="-1.36374">
        <ele>56</ele>
        <time>2021-10-09T12:20:58.000Z</time>
      </trkpt>
      <trkpt lat="47.30384" lon="-1.36391">
        <ele>56</ele>
        <time>2021-10-09T12:21:00.000Z</time>
      </trkpt>
      <trkpt lat="47.30375" lon="-1.36408">
        <ele>57</ele>
        <time>2021-10-09T12:21:02.000Z</time>
      </trkpt>
      <trkpt lat="47.30367" lon="-1.36423">
        <ele>57</ele>
        <time>2021-10-09T12:21:04.000Z</time>
      </trkpt>
      <trkpt lat="47.30359" lon="-1.36437">
        <ele>57</ele>
        <time>2021-10-09T12:21:06.000Z</time>
      </trkpt>
      <trkpt lat="47.30352" lon="-1.36453">
        <ele>57</ele>
        <time>2021-10-09T12:21:08.000Z</time>
      </trkpt>
      <trkpt lat="47.30344" lon="-1.36469">
        <ele>58</ele>
        <time>2021-10-09T12:21:10.000Z</time>
      </trkpt>
      <trkpt lat="47.30336" lon="-1.36486">
        <ele>58</ele>
        <time>2021-10-09T12:21:12.000Z</time>
      </trkpt>
      <trkpt lat="47.30329" lon="-1.36503">
        <ele>58</ele>
        <time>2021-10-09T12:21:14.000Z</time>
      </trkpt>
      <trkpt lat="47.30321" lon="-1.36516">
        <ele>58</ele>
        <time>2021-10-09T12:21:16.000Z</time>
      </trkpt>
      <trkpt lat="47.30314" lon="-1.36531">
        <ele>57</ele>
        <time>2021-10-09T12:21:18.000Z</time>
      </trkpt>
      <trkpt lat="47.30306" lon="-1.36544">
        <ele>58</ele>
        <time>2021-10-09T12:21:20.000Z</time>
      </trkpt>
      <trkpt lat="47.30298" lon="-1.36559">
        <ele>58</ele>
        <time>2021-10-09T12:21:22.000Z</time>
      </trkpt>
      <trkpt lat="47.30291" lon="-1.36573">
        <ele>58</ele>
        <time>2021-10-09T12:21:24.000Z</time>
      </trkpt>
      <trkpt lat="47.30283" lon="-1.36588">
        <ele>59</ele>
        <time>2021-10-09T12:21:26.000Z</time>
      </trkpt>
      <trkpt lat="47.30275" lon="-1.36604">
        <ele>59</ele>
        <time>2021-10-09T12:21:28.000Z</time>
      </trkpt>
      <trkpt lat="47.30268" lon="-1.3662">
        <ele>59</ele>
        <time>2021-10-09T12:21:30.000Z</time>
      </trkpt>
      <trkpt lat="47.3026" lon="-1.3664">
        <ele>59</ele>
        <time>2021-10-09T12:21:32.000Z</time>
      </trkpt>
      <trkpt lat="47.30253" lon="-1.36658">
        <ele>59</ele>
        <time>2021-10-09T12:21:34.000Z</time>
      </trkpt>
      <trkpt lat="47.30245" lon="-1.36675">
        <ele>59</ele>
        <time>2021-10-09T12:21:36.000Z</time>
      </trkpt>
      <trkpt lat="47.30237" lon="-1.3669">
        <ele>59</ele>
        <time>2021-10-09T12:21:38.000Z</time>
      </trkpt>
      <trkpt lat="47.30229" lon="-1.36708">
        <ele>59</ele>
        <time>2021-10-09T12:21:40.000Z</time>
      </trkpt>
      <trkpt lat="47.30222" lon="-1.36723">
        <ele>59</ele>
        <time>2021-10-09T12:21:42.000Z</time>
      </trkpt>
      <trkpt lat="47.30214" lon="-1.3674">
        <ele>59</ele>
        <time>2021-10-09T12:21:44.000Z</time>
      </trkpt>
      <trkpt lat="47.30206" lon="-1.36756">
        <ele>59</ele>
        <time>2021-10-09T12:21:46.000Z</time>
      </trkpt>
      <trkpt lat="47.30199" lon="-1.36771">
        <ele>59</ele>
        <time>2021-10-09T12:21:48.000Z</time>
      </trkpt>
      <trkpt lat="47.30192" lon="-1.36787">
        <ele>58</ele>
        <time>2021-10-09T12:21:50.000Z</time>
      </trkpt>
      <trkpt lat="47.30185" lon="-1.36801">
        <ele>58</ele>
        <time>2021-10-09T12:21:52.000Z</time>
      </trkpt>
      <trkpt lat="47.30177" lon="-1.36815">
        <ele>58</ele>
        <time>2021-10-09T12:21:54.000Z</time>
      </trkpt>
      <trkpt lat="47.30168" lon="-1.3683">
        <ele>58</ele>
        <time>2021-10-09T12:21:56.000Z</time>
      </trkpt>
      <trkpt lat="47.30161" lon="-1.36845">
        <ele>58</ele>
        <time>2021-10-09T12:21:58.000Z</time>
      </trkpt>
      <trkpt lat="47.30153" lon="-1.36861">
        <ele>57</ele>
        <time>2021-10-09T12:22:00.000Z</time>
      </trkpt>
      <trkpt lat="47.30145" lon="-1.36877">
        <ele>57</ele>
        <time>2021-10-09T12:22:02.000Z</time>
      </trkpt>
      <trkpt lat="47.30138" lon="-1.36894">
        <ele>57</ele>
        <time>2021-10-09T12:22:04.000Z</time>
      </trkpt>
      <trkpt lat="47.3013" lon="-1.36911">
        <ele>58</ele>
        <time>2021-10-09T12:22:06.000Z</time>
      </trkpt>
      <trkpt lat="47.30123" lon="-1.36927">
        <ele>57</ele>
        <time>2021-10-09T12:22:08.000Z</time>
      </trkpt>
      <trkpt lat="47.30117" lon="-1.36943">
        <ele>56</ele>
        <time>2021-10-09T12:22:10.000Z</time>
      </trkpt>
      <trkpt lat="47.30112" lon="-1.36959">
        <ele>56</ele>
        <time>2021-10-09T12:22:12.000Z</time>
      </trkpt>
      <trkpt lat="47.30107" lon="-1.36973">
        <ele>57</ele>
        <time>2021-10-09T12:22:14.000Z</time>
      </trkpt>
      <trkpt lat="47.30101" lon="-1.36988">
        <ele>57</ele>
        <time>2021-10-09T12:22:16.000Z</time>
      </trkpt>
      <trkpt lat="47.30094" lon="-1.37003">
        <ele>57</ele>
        <time>2021-10-09T12:22:18.000Z</time>
      </trkpt>
      <trkpt lat="47.30086" lon="-1.37018">
        <ele>57</ele>
        <time>2021-10-09T12:22:20.000Z</time>
      </trkpt>
      <trkpt lat="47.30079" lon="-1.37032">
        <ele>57</ele>
        <time>2021-10-09T12:22:22.000Z</time>
      </trkpt>
      <trkpt lat="47.30071" lon="-1.37047">
        <ele>57</ele>
        <time>2021-10-09T12:22:24.000Z</time>
      </trkpt>
      <trkpt lat="47.30063" lon="-1.37061">
        <ele>57</ele>
        <time>2021-10-09T12:22:26.000Z</time>
      </trkpt>
      <trkpt lat="47.30056" lon="-1.37074">
        <ele>58</ele>
        <time>2021-10-09T12:22:28.000Z</time>
      </trkpt>
      <trkpt lat="47.30047" lon="-1.37088">
        <ele>57</ele>
        <time>2021-10-09T12:22:30.000Z</time>
      </trkpt>
      <trkpt lat="47.30039" lon="-1.37103">
        <ele>57</ele>
        <time>2021-10-09T12:22:32.000Z</time>
      </trkpt>
      <trkpt lat="47.30031" lon="-1.37117">
        <ele>57</ele>
        <time>2021-10-09T12:22:34.000Z</time>
      </trkpt>
      <trkpt lat="47.30023" lon="-1.3713">
        <ele>57</ele>
        <time>2021-10-09T12:22:36.000Z</time>
      </trkpt>
      <trkpt lat="47.30014" lon="-1.37143">
        <ele>57</ele>
        <time>2021-10-09T12:22:38.000Z</time>
      </trkpt>
      <trkpt lat="47.30005" lon="-1.37157">
        <ele>57</ele>
        <time>2021-10-09T12:22:40.000Z</time>
      </trkpt>
      <trkpt lat="47.29996" lon="-1.3717">
        <ele>57</ele>
        <time>2021-10-09T12:22:42.000Z</time>
      </trkpt>
      <trkpt lat="47.29987" lon="-1.37183">
        <ele>58</ele>
        <time>2021-10-09T12:22:44.000Z</time>
      </trkpt>
      <trkpt lat="47.29978" lon="-1.37197">
        <ele>58</ele>
        <time>2021-10-09T12:22:46.000Z</time>
      </trkpt>
      <trkpt lat="47.2997" lon="-1.3721">
        <ele>58</ele>
        <time>2021-10-09T12:22:48.000Z</time>
      </trkpt>
      <trkpt lat="47.29961" lon="-1.37224">
        <ele>58</ele>
        <time>2021-10-09T12:22:50.000Z</time>
      </trkpt>
      <trkpt lat="47.29952" lon="-1.37237">
        <ele>58</ele>
        <time>2021-10-09T12:22:52.000Z</time>
      </trkpt>
      <trkpt lat="47.29943" lon="-1.37251">
        <ele>58</ele>
        <time>2021-10-09T12:22:54.000Z</time>
      </trkpt>
      <trkpt lat="47.29933" lon="-1.37264">
        <ele>57</ele>
        <time>2021-10-09T12:22:56.000Z</time>
      </trkpt>
      <trkpt lat="47.29924" lon="-1.37278">
        <ele>57</ele>
        <time>2021-10-09T12:22:58.000Z</time>
      </trkpt>
      <trkpt lat="47.29915" lon="-1.37292">
        <ele>57</ele>
        <time>2021-10-09T12:23:00.000Z</time>
      </trkpt>
      <trkpt lat="47.29907" lon="-1.37306">
        <ele>57</ele>
        <time>2021-10-09T12:23:02.000Z</time>
      </trkpt>
      <trkpt lat="47.29898" lon="-1.37319">
        <ele>57</ele>
        <time>2021-10-09T12:23:04.000Z</time>
      </trkpt>
      <trkpt lat="47.29889" lon="-1.37333">
        <ele>57</ele>
        <time>2021-10-09T12:23:06.000Z</time>
      </trkpt>
      <trkpt lat="47.2988" lon="-1.37346">
        <ele>57</ele>
        <time>2021-10-09T12:23:08.000Z</time>
      </trkpt>
      <trkpt lat="47.29871" lon="-1.37359">
        <ele>57</ele>
        <time>2021-10-09T12:23:10.000Z</time>
      </trkpt>
      <trkpt lat="47.29863" lon="-1.37373">
        <ele>57</ele>
        <time>2021-10-09T12:23:12.000Z</time>
      </trkpt>
      <trkpt lat="47.29854" lon="-1.37387">
        <ele>57</ele>
        <time>2021-10-09T12:23:14.000Z</time>
      </trkpt>
      <trkpt lat="47.29844" lon="-1.37401">
        <ele>56</ele>
        <time>2021-10-09T12:23:16.000Z</time>
      </trkpt>
      <trkpt lat="47.29835" lon="-1.37415">
        <ele>56</ele>
        <time>2021-10-09T12:23:18.000Z</time>
      </trkpt>
      <trkpt lat="47.29827" lon="-1.37428">
        <ele>56</ele>
        <time>2021-10-09T12:23:20.000Z</time>
      </trkpt>
      <trkpt lat="47.2982" lon="-1.37442">
        <ele>57</ele>
        <time>2021-10-09T12:23:22.000Z</time>
      </trkpt>
      <trkpt lat="47.29812" lon="-1.37455">
        <ele>57</ele>
        <time>2021-10-09T12:23:24.000Z</time>
      </trkpt>
      <trkpt lat="47.29804" lon="-1.37469">
        <ele>57</ele>
        <time>2021-10-09T12:23:26.000Z</time>
      </trkpt>
      <trkpt lat="47.29795" lon="-1.37483">
        <ele>57</ele>
        <time>2021-10-09T12:23:28.000Z</time>
      </trkpt>
      <trkpt lat="47.29786" lon="-1.37497">
        <ele>56</ele>
        <time>2021-10-09T12:23:30.000Z</time>
      </trkpt>
      <trkpt lat="47.29778" lon="-1.37512">
        <ele>57</ele>
        <time>2021-10-09T12:23:32.000Z</time>
      </trkpt>
      <trkpt lat="47.2977" lon="-1.37526">
        <ele>56</ele>
        <time>2021-10-09T12:23:34.000Z</time>
      </trkpt>
      <trkpt lat="47.29763" lon="-1.3754">
        <ele>57</ele>
        <time>2021-10-09T12:23:36.000Z</time>
      </trkpt>
      <trkpt lat="47.29755" lon="-1.37555">
        <ele>57</ele>
        <time>2021-10-09T12:23:38.000Z</time>
      </trkpt>
      <trkpt lat="47.29748" lon="-1.3757">
        <ele>57</ele>
        <time>2021-10-09T12:23:40.000Z</time>
      </trkpt>
      <trkpt lat="47.2974" lon="-1.37584">
        <ele>57</ele>
        <time>2021-10-09T12:23:42.000Z</time>
      </trkpt>
      <trkpt lat="47.29732" lon="-1.37599">
        <ele>58</ele>
        <time>2021-10-09T12:23:44.000Z</time>
      </trkpt>
      <trkpt lat="47.29724" lon="-1.37614">
        <ele>57</ele>
        <time>2021-10-09T12:23:46.000Z</time>
      </trkpt>
      <trkpt lat="47.29717" lon="-1.3763">
        <ele>57</ele>
        <time>2021-10-09T12:23:48.000Z</time>
      </trkpt>
      <trkpt lat="47.29709" lon="-1.37644">
        <ele>58</ele>
        <time>2021-10-09T12:23:50.000Z</time>
      </trkpt>
      <trkpt lat="47.29701" lon="-1.37659">
        <ele>58</ele>
        <time>2021-10-09T12:23:52.000Z</time>
      </trkpt>
      <trkpt lat="47.29693" lon="-1.37673">
        <ele>58</ele>
        <time>2021-10-09T12:23:54.000Z</time>
      </trkpt>
      <trkpt lat="47.29685" lon="-1.37688">
        <ele>58</ele>
        <time>2021-10-09T12:23:56.000Z</time>
      </trkpt>
      <trkpt lat="47.29678" lon="-1.37702">
        <ele>58</ele>
        <time>2021-10-09T12:23:58.000Z</time>
      </trkpt>
      <trkpt lat="47.29671" lon="-1.37717">
        <ele>58</ele>
        <time>2021-10-09T12:24:00.000Z</time>
      </trkpt>
      <trkpt lat="47.29663" lon="-1.37732">
        <ele>57</ele>
        <time>2021-10-09T12:24:02.000Z</time>
      </trkpt>
      <trkpt lat="47.29656" lon="-1.37747">
        <ele>57</ele>
        <time>2021-10-09T12:24:04.000Z</time>
      </trkpt>
      <trkpt lat="47.29648" lon="-1.37763">
        <ele>57</ele>
        <time>2021-10-09T12:24:06.000Z</time>
      </trkpt>
      <trkpt lat="47.29641" lon="-1.37779">
        <ele>57</ele>
        <time>2021-10-09T12:24:08.000Z</time>
      </trkpt>
      <trkpt lat="47.29633" lon="-1.37792">
        <ele>57</ele>
        <time>2021-10-09T12:24:10.000Z</time>
      </trkpt>
      <trkpt lat="47.29625" lon="-1.37804">
        <ele>56</ele>
        <time>2021-10-09T12:24:12.000Z</time>
      </trkpt>
      <trkpt lat="47.29618" lon="-1.37817">
        <ele>57</ele>
        <time>2021-10-09T12:24:14.000Z</time>
      </trkpt>
      <trkpt lat="47.29611" lon="-1.37832">
        <ele>56</ele>
        <time>2021-10-09T12:24:16.000Z</time>
      </trkpt>
      <trkpt lat="47.29603" lon="-1.37847">
        <ele>56</ele>
        <time>2021-10-09T12:24:18.000Z</time>
      </trkpt>
      <trkpt lat="47.29596" lon="-1.37863">
        <ele>55</ele>
        <time>2021-10-09T12:24:20.000Z</time>
      </trkpt>
      <trkpt lat="47.2959" lon="-1.37878">
        <ele>55</ele>
        <time>2021-10-09T12:24:22.000Z</time>
      </trkpt>
      <trkpt lat="47.29583" lon="-1.37893">
        <ele>54</ele>
        <time>2021-10-09T12:24:24.000Z</time>
      </trkpt>
      <trkpt lat="47.29576" lon="-1.37908">
        <ele>55</ele>
        <time>2021-10-09T12:24:26.000Z</time>
      </trkpt>
      <trkpt lat="47.2957" lon="-1.37923">
        <ele>55</ele>
        <time>2021-10-09T12:24:28.000Z</time>
      </trkpt>
      <trkpt lat="47.29563" lon="-1.37939">
        <ele>55</ele>
        <time>2021-10-09T12:24:30.000Z</time>
      </trkpt>
      <trkpt lat="47.29557" lon="-1.37954">
        <ele>55</ele>
        <time>2021-10-09T12:24:32.000Z</time>
      </trkpt>
      <trkpt lat="47.29551" lon="-1.3797">
        <ele>56</ele>
        <time>2021-10-09T12:24:34.000Z</time>
      </trkpt>
      <trkpt lat="47.29545" lon="-1.37986">
        <ele>56</ele>
        <time>2021-10-09T12:24:36.000Z</time>
      </trkpt>
      <trkpt lat="47.29539" lon="-1.38002">
        <ele>57</ele>
        <time>2021-10-09T12:24:38.000Z</time>
      </trkpt>
      <trkpt lat="47.29533" lon="-1.38018">
        <ele>57</ele>
        <time>2021-10-09T12:24:40.000Z</time>
      </trkpt>
      <trkpt lat="47.29527" lon="-1.38034">
        <ele>57</ele>
        <time>2021-10-09T12:24:42.000Z</time>
      </trkpt>
      <trkpt lat="47.29522" lon="-1.3805">
        <ele>57</ele>
        <time>2021-10-09T12:24:44.000Z</time>
      </trkpt>
      <trkpt lat="47.29517" lon="-1.38067">
        <ele>56</ele>
        <time>2021-10-09T12:24:46.000Z</time>
      </trkpt>
      <trkpt lat="47.29511" lon="-1.38083">
        <ele>57</ele>
        <time>2021-10-09T12:24:48.000Z</time>
      </trkpt>
      <trkpt lat="47.29507" lon="-1.38099">
        <ele>57</ele>
        <time>2021-10-09T12:24:50.000Z</time>
      </trkpt>
      <trkpt lat="47.29502" lon="-1.38116">
        <ele>56</ele>
        <time>2021-10-09T12:24:52.000Z</time>
      </trkpt>
      <trkpt lat="47.29498" lon="-1.38133">
        <ele>57</ele>
        <time>2021-10-09T12:24:54.000Z</time>
      </trkpt>
      <trkpt lat="47.29493" lon="-1.3815">
        <ele>58</ele>
        <time>2021-10-09T12:24:56.000Z</time>
      </trkpt>
      <trkpt lat="47.29488" lon="-1.38168">
        <ele>57</ele>
        <time>2021-10-09T12:24:58.000Z</time>
      </trkpt>
      <trkpt lat="47.29483" lon="-1.38185">
        <ele>57</ele>
        <time>2021-10-09T12:25:00.000Z</time>
      </trkpt>
      <trkpt lat="47.29478" lon="-1.38202">
        <ele>58</ele>
        <time>2021-10-09T12:25:02.000Z</time>
      </trkpt>
      <trkpt lat="47.29474" lon="-1.38219">
        <ele>57</ele>
        <time>2021-10-09T12:25:04.000Z</time>
      </trkpt>
      <trkpt lat="47.2947" lon="-1.38237">
        <ele>56</ele>
        <time>2021-10-09T12:25:06.000Z</time>
      </trkpt>
      <trkpt lat="47.29464" lon="-1.38254">
        <ele>56</ele>
        <time>2021-10-09T12:25:08.000Z</time>
      </trkpt>
      <trkpt lat="47.2946" lon="-1.38271">
        <ele>56</ele>
        <time>2021-10-09T12:25:10.000Z</time>
      </trkpt>
      <trkpt lat="47.29455" lon="-1.38288">
        <ele>56</ele>
        <time>2021-10-09T12:25:12.000Z</time>
      </trkpt>
      <trkpt lat="47.29451" lon="-1.38306">
        <ele>57</ele>
        <time>2021-10-09T12:25:14.000Z</time>
      </trkpt>
      <trkpt lat="47.29445" lon="-1.38321">
        <ele>57</ele>
        <time>2021-10-09T12:25:16.000Z</time>
      </trkpt>
      <trkpt lat="47.29438" lon="-1.38331">
        <ele>57</ele>
        <time>2021-10-09T12:25:18.000Z</time>
      </trkpt>
      <trkpt lat="47.29434" lon="-1.38346">
        <ele>56</ele>
        <time>2021-10-09T12:25:20.000Z</time>
      </trkpt>
      <trkpt lat="47.29432" lon="-1.38363">
        <ele>56</ele>
        <time>2021-10-09T12:25:22.000Z</time>
      </trkpt>
      <trkpt lat="47.29429" lon="-1.38381">
        <ele>56</ele>
        <time>2021-10-09T12:25:24.000Z</time>
      </trkpt>
      <trkpt lat="47.29424" lon="-1.38399">
        <ele>56</ele>
        <time>2021-10-09T12:25:26.000Z</time>
      </trkpt>
      <trkpt lat="47.29419" lon="-1.38418">
        <ele>56</ele>
        <time>2021-10-09T12:25:28.000Z</time>
      </trkpt>
      <trkpt lat="47.29414" lon="-1.38437">
        <ele>55</ele>
        <time>2021-10-09T12:25:30.000Z</time>
      </trkpt>
      <trkpt lat="47.2941" lon="-1.38456">
        <ele>56</ele>
        <time>2021-10-09T12:25:32.000Z</time>
      </trkpt>
      <trkpt lat="47.29405" lon="-1.38474">
        <ele>55</ele>
        <time>2021-10-09T12:25:34.000Z</time>
      </trkpt>
      <trkpt lat="47.29399" lon="-1.38491">
        <ele>56</ele>
        <time>2021-10-09T12:25:36.000Z</time>
      </trkpt>
      <trkpt lat="47.29391" lon="-1.38505">
        <ele>56</ele>
        <time>2021-10-09T12:25:38.000Z</time>
      </trkpt>
      <trkpt lat="47.29383" lon="-1.38522">
        <ele>55</ele>
        <time>2021-10-09T12:25:40.000Z</time>
      </trkpt>
      <trkpt lat="47.29377" lon="-1.38539">
        <ele>55</ele>
        <time>2021-10-09T12:25:42.000Z</time>
      </trkpt>
      <trkpt lat="47.29371" lon="-1.38556">
        <ele>54</ele>
        <time>2021-10-09T12:25:44.000Z</time>
      </trkpt>
      <trkpt lat="47.29366" lon="-1.38573">
        <ele>54</ele>
        <time>2021-10-09T12:25:46.000Z</time>
      </trkpt>
      <trkpt lat="47.2936" lon="-1.38592">
        <ele>53</ele>
        <time>2021-10-09T12:25:48.000Z</time>
      </trkpt>
      <trkpt lat="47.29353" lon="-1.38612">
        <ele>53</ele>
        <time>2021-10-09T12:25:50.000Z</time>
      </trkpt>
      <trkpt lat="47.29348" lon="-1.38632">
        <ele>53</ele>
        <time>2021-10-09T12:25:52.000Z</time>
      </trkpt>
      <trkpt lat="47.29342" lon="-1.38652">
        <ele>53</ele>
        <time>2021-10-09T12:25:54.000Z</time>
      </trkpt>
      <trkpt lat="47.29336" lon="-1.38671">
        <ele>53</ele>
        <time>2021-10-09T12:25:56.000Z</time>
      </trkpt>
      <trkpt lat="47.2933" lon="-1.38689">
        <ele>53</ele>
        <time>2021-10-09T12:25:58.000Z</time>
      </trkpt>
      <trkpt lat="47.29323" lon="-1.38707">
        <ele>52</ele>
        <time>2021-10-09T12:26:00.000Z</time>
      </trkpt>
      <trkpt lat="47.29319" lon="-1.38727">
        <ele>52</ele>
        <time>2021-10-09T12:26:02.000Z</time>
      </trkpt>
      <trkpt lat="47.29316" lon="-1.38745">
        <ele>53</ele>
        <time>2021-10-09T12:26:04.000Z</time>
      </trkpt>
      <trkpt lat="47.29312" lon="-1.38762">
        <ele>53</ele>
        <time>2021-10-09T12:26:06.000Z</time>
      </trkpt>
      <trkpt lat="47.29309" lon="-1.38778">
        <ele>53</ele>
        <time>2021-10-09T12:26:08.000Z</time>
      </trkpt>
      <trkpt lat="47.29305" lon="-1.38794">
        <ele>53</ele>
        <time>2021-10-09T12:26:10.000Z</time>
      </trkpt>
      <trkpt lat="47.293" lon="-1.38811">
        <ele>53</ele>
        <time>2021-10-09T12:26:12.000Z</time>
      </trkpt>
      <trkpt lat="47.29294" lon="-1.3883">
        <ele>53</ele>
        <time>2021-10-09T12:26:14.000Z</time>
      </trkpt>
      <trkpt lat="47.29289" lon="-1.38847">
        <ele>52</ele>
        <time>2021-10-09T12:26:16.000Z</time>
      </trkpt>
      <trkpt lat="47.29285" lon="-1.38865">
        <ele>53</ele>
        <time>2021-10-09T12:26:18.000Z</time>
      </trkpt>
      <trkpt lat="47.2928" lon="-1.38881">
        <ele>53</ele>
        <time>2021-10-09T12:26:20.000Z</time>
      </trkpt>
      <trkpt lat="47.29275" lon="-1.38899">
        <ele>54</ele>
        <time>2021-10-09T12:26:22.000Z</time>
      </trkpt>
      <trkpt lat="47.2927" lon="-1.38918">
        <ele>54</ele>
        <time>2021-10-09T12:26:24.000Z</time>
      </trkpt>
      <trkpt lat="47.29266" lon="-1.38936">
        <ele>53</ele>
        <time>2021-10-09T12:26:26.000Z</time>
      </trkpt>
      <trkpt lat="47.29261" lon="-1.38954">
        <ele>53</ele>
        <time>2021-10-09T12:26:28.000Z</time>
      </trkpt>
      <trkpt lat="47.29256" lon="-1.38972">
        <ele>53</ele>
        <time>2021-10-09T12:26:30.000Z</time>
      </trkpt>
      <trkpt lat="47.29252" lon="-1.3899">
        <ele>54</ele>
        <time>2021-10-09T12:26:32.000Z</time>
      </trkpt>
      <trkpt lat="47.29248" lon="-1.39009">
        <ele>54</ele>
        <time>2021-10-09T12:26:34.000Z</time>
      </trkpt>
      <trkpt lat="47.29243" lon="-1.39028">
        <ele>53</ele>
        <time>2021-10-09T12:26:36.000Z</time>
      </trkpt>
      <trkpt lat="47.29239" lon="-1.39044">
        <ele>54</ele>
        <time>2021-10-09T12:26:38.000Z</time>
      </trkpt>
      <trkpt lat="47.29234" lon="-1.39061">
        <ele>53</ele>
        <time>2021-10-09T12:26:40.000Z</time>
      </trkpt>
      <trkpt lat="47.29228" lon="-1.39078">
        <ele>54</ele>
        <time>2021-10-09T12:26:42.000Z</time>
      </trkpt>
      <trkpt lat="47.29221" lon="-1.39095">
        <ele>54</ele>
        <time>2021-10-09T12:26:44.000Z</time>
      </trkpt>
      <trkpt lat="47.29213" lon="-1.39111">
        <ele>54</ele>
        <time>2021-10-09T12:26:46.000Z</time>
      </trkpt>
      <trkpt lat="47.29204" lon="-1.39125">
        <ele>54</ele>
        <time>2021-10-09T12:26:48.000Z</time>
      </trkpt>
      <trkpt lat="47.29194" lon="-1.39139">
        <ele>54</ele>
        <time>2021-10-09T12:26:50.000Z</time>
      </trkpt>
      <trkpt lat="47.29184" lon="-1.39152">
        <ele>54</ele>
        <time>2021-10-09T12:26:52.000Z</time>
      </trkpt>
      <trkpt lat="47.29173" lon="-1.39165">
        <ele>53</ele>
        <time>2021-10-09T12:26:54.000Z</time>
      </trkpt>
      <trkpt lat="47.29162" lon="-1.39178">
        <ele>54</ele>
        <time>2021-10-09T12:26:56.000Z</time>
      </trkpt>
      <trkpt lat="47.29152" lon="-1.3919">
        <ele>53</ele>
        <time>2021-10-09T12:26:58.000Z</time>
      </trkpt>
      <trkpt lat="47.29141" lon="-1.39203">
        <ele>53</ele>
        <time>2021-10-09T12:27:00.000Z</time>
      </trkpt>
      <trkpt lat="47.2913" lon="-1.39216">
        <ele>53</ele>
        <time>2021-10-09T12:27:02.000Z</time>
      </trkpt>
      <trkpt lat="47.29119" lon="-1.39229">
        <ele>53</ele>
        <time>2021-10-09T12:27:04.000Z</time>
      </trkpt>
      <trkpt lat="47.29109" lon="-1.39242">
        <ele>53</ele>
        <time>2021-10-09T12:27:06.000Z</time>
      </trkpt>
      <trkpt lat="47.291" lon="-1.39256">
        <ele>53</ele>
        <time>2021-10-09T12:27:08.000Z</time>
      </trkpt>
      <trkpt lat="47.29091" lon="-1.39271">
        <ele>53</ele>
        <time>2021-10-09T12:27:10.000Z</time>
      </trkpt>
      <trkpt lat="47.29083" lon="-1.39286">
        <ele>53</ele>
        <time>2021-10-09T12:27:12.000Z</time>
      </trkpt>
      <trkpt lat="47.29073" lon="-1.39298">
        <ele>53</ele>
        <time>2021-10-09T12:27:14.000Z</time>
      </trkpt>
      <trkpt lat="47.29063" lon="-1.39309">
        <ele>54</ele>
        <time>2021-10-09T12:27:16.000Z</time>
      </trkpt>
      <trkpt lat="47.29053" lon="-1.39318">
        <ele>54</ele>
        <time>2021-10-09T12:27:18.000Z</time>
      </trkpt>
      <trkpt lat="47.29044" lon="-1.39328">
        <ele>54</ele>
        <time>2021-10-09T12:27:20.000Z</time>
      </trkpt>
      <trkpt lat="47.29035" lon="-1.3934">
        <ele>54</ele>
        <time>2021-10-09T12:27:22.000Z</time>
      </trkpt>
      <trkpt lat="47.29027" lon="-1.39352">
        <ele>54</ele>
        <time>2021-10-09T12:27:24.000Z</time>
      </trkpt>
      <trkpt lat="47.29018" lon="-1.39364">
        <ele>54</ele>
        <time>2021-10-09T12:27:26.000Z</time>
      </trkpt>
      <trkpt lat="47.2901" lon="-1.39377">
        <ele>54</ele>
        <time>2021-10-09T12:27:28.000Z</time>
      </trkpt>
      <trkpt lat="47.29001" lon="-1.39391">
        <ele>53</ele>
        <time>2021-10-09T12:27:30.000Z</time>
      </trkpt>
      <trkpt lat="47.2899" lon="-1.39404">
        <ele>53</ele>
        <time>2021-10-09T12:27:32.000Z</time>
      </trkpt>
      <trkpt lat="47.28979" lon="-1.39418">
        <ele>53</ele>
        <time>2021-10-09T12:27:34.000Z</time>
      </trkpt>
      <trkpt lat="47.28968" lon="-1.3943">
        <ele>53</ele>
        <time>2021-10-09T12:27:36.000Z</time>
      </trkpt>
      <trkpt lat="47.28957" lon="-1.39442">
        <ele>54</ele>
        <time>2021-10-09T12:27:38.000Z</time>
      </trkpt>
      <trkpt lat="47.28947" lon="-1.39453">
        <ele>54</ele>
        <time>2021-10-09T12:27:40.000Z</time>
      </trkpt>
      <trkpt lat="47.28937" lon="-1.39465">
        <ele>54</ele>
        <time>2021-10-09T12:27:42.000Z</time>
      </trkpt>
      <trkpt lat="47.28927" lon="-1.39477">
        <ele>54</ele>
        <time>2021-10-09T12:27:44.000Z</time>
      </trkpt>
      <trkpt lat="47.28918" lon="-1.39489">
        <ele>53</ele>
        <time>2021-10-09T12:27:46.000Z</time>
      </trkpt>
      <trkpt lat="47.28909" lon="-1.39501">
        <ele>53</ele>
        <time>2021-10-09T12:27:48.000Z</time>
      </trkpt>
      <trkpt lat="47.28899" lon="-1.39513">
        <ele>53</ele>
        <time>2021-10-09T12:27:50.000Z</time>
      </trkpt>
      <trkpt lat="47.28888" lon="-1.39525">
        <ele>53</ele>
        <time>2021-10-09T12:27:52.000Z</time>
      </trkpt>
      <trkpt lat="47.28878" lon="-1.39539">
        <ele>53</ele>
        <time>2021-10-09T12:27:54.000Z</time>
      </trkpt>
      <trkpt lat="47.28868" lon="-1.39552">
        <ele>54</ele>
        <time>2021-10-09T12:27:56.000Z</time>
      </trkpt>
      <trkpt lat="47.28858" lon="-1.39565">
        <ele>55</ele>
        <time>2021-10-09T12:27:58.000Z</time>
      </trkpt>
      <trkpt lat="47.28848" lon="-1.39577">
        <ele>55</ele>
        <time>2021-10-09T12:28:00.000Z</time>
      </trkpt>
      <trkpt lat="47.28837" lon="-1.39589">
        <ele>55</ele>
        <time>2021-10-09T12:28:02.000Z</time>
      </trkpt>
      <trkpt lat="47.28827" lon="-1.39601">
        <ele>55</ele>
        <time>2021-10-09T12:28:04.000Z</time>
      </trkpt>
      <trkpt lat="47.28816" lon="-1.39613">
        <ele>54</ele>
        <time>2021-10-09T12:28:06.000Z</time>
      </trkpt>
      <trkpt lat="47.28807" lon="-1.39625">
        <ele>54</ele>
        <time>2021-10-09T12:28:08.000Z</time>
      </trkpt>
      <trkpt lat="47.28796" lon="-1.39638">
        <ele>53</ele>
        <time>2021-10-09T12:28:10.000Z</time>
      </trkpt>
      <trkpt lat="47.28785" lon="-1.3965">
        <ele>53</ele>
        <time>2021-10-09T12:28:12.000Z</time>
      </trkpt>
      <trkpt lat="47.28775" lon="-1.39662">
        <ele>53</ele>
        <time>2021-10-09T12:28:14.000Z</time>
      </trkpt>
      <trkpt lat="47.28764" lon="-1.39675">
        <ele>54</ele>
        <time>2021-10-09T12:28:16.000Z</time>
      </trkpt>
      <trkpt lat="47.28754" lon="-1.39687">
        <ele>54</ele>
        <time>2021-10-09T12:28:18.000Z</time>
      </trkpt>
      <trkpt lat="47.28744" lon="-1.39699">
        <ele>54</ele>
        <time>2021-10-09T12:28:20.000Z</time>
      </trkpt>
      <trkpt lat="47.28733" lon="-1.39713">
        <ele>54</ele>
        <time>2021-10-09T12:28:22.000Z</time>
      </trkpt>
      <trkpt lat="47.28722" lon="-1.39724">
        <ele>55</ele>
        <time>2021-10-09T12:28:24.000Z</time>
      </trkpt>
      <trkpt lat="47.2871" lon="-1.39737">
        <ele>54</ele>
        <time>2021-10-09T12:28:26.000Z</time>
      </trkpt>
      <trkpt lat="47.287" lon="-1.39751">
        <ele>54</ele>
        <time>2021-10-09T12:28:28.000Z</time>
      </trkpt>
      <trkpt lat="47.2869" lon="-1.39764">
        <ele>53</ele>
        <time>2021-10-09T12:28:30.000Z</time>
      </trkpt>
      <trkpt lat="47.28679" lon="-1.39777">
        <ele>53</ele>
        <time>2021-10-09T12:28:32.000Z</time>
      </trkpt>
      <trkpt lat="47.28669" lon="-1.39789">
        <ele>53</ele>
        <time>2021-10-09T12:28:34.000Z</time>
      </trkpt>
      <trkpt lat="47.2866" lon="-1.39803">
        <ele>53</ele>
        <time>2021-10-09T12:28:36.000Z</time>
      </trkpt>
      <trkpt lat="47.2865" lon="-1.39818">
        <ele>53</ele>
        <time>2021-10-09T12:28:38.000Z</time>
      </trkpt>
      <trkpt lat="47.28641" lon="-1.39833">
        <ele>52</ele>
        <time>2021-10-09T12:28:40.000Z</time>
      </trkpt>
      <trkpt lat="47.28632" lon="-1.39848">
        <ele>52</ele>
        <time>2021-10-09T12:28:42.000Z</time>
      </trkpt>
      <trkpt lat="47.28623" lon="-1.39862">
        <ele>52</ele>
        <time>2021-10-09T12:28:44.000Z</time>
      </trkpt>
      <trkpt lat="47.28613" lon="-1.39876">
        <ele>52</ele>
        <time>2021-10-09T12:28:46.000Z</time>
      </trkpt>
      <trkpt lat="47.28604" lon="-1.39889">
        <ele>53</ele>
        <time>2021-10-09T12:28:48.000Z</time>
      </trkpt>
      <trkpt lat="47.28594" lon="-1.39903">
        <ele>54</ele>
        <time>2021-10-09T12:28:50.000Z</time>
      </trkpt>
      <trkpt lat="47.28585" lon="-1.39916">
        <ele>54</ele>
        <time>2021-10-09T12:28:52.000Z</time>
      </trkpt>
      <trkpt lat="47.28576" lon="-1.3993">
        <ele>54</ele>
        <time>2021-10-09T12:28:54.000Z</time>
      </trkpt>
      <trkpt lat="47.28566" lon="-1.39944">
        <ele>55</ele>
        <time>2021-10-09T12:28:56.000Z</time>
      </trkpt>
      <trkpt lat="47.28557" lon="-1.39958">
        <ele>55</ele>
        <time>2021-10-09T12:28:58.000Z</time>
      </trkpt>
      <trkpt lat="47.28547" lon="-1.39971">
        <ele>54</ele>
        <time>2021-10-09T12:29:00.000Z</time>
      </trkpt>
      <trkpt lat="47.28537" lon="-1.39983">
        <ele>55</ele>
        <time>2021-10-09T12:29:02.000Z</time>
      </trkpt>
      <trkpt lat="47.28527" lon="-1.39996">
        <ele>54</ele>
        <time>2021-10-09T12:29:04.000Z</time>
      </trkpt>
      <trkpt lat="47.28518" lon="-1.40009">
        <ele>54</ele>
        <time>2021-10-09T12:29:06.000Z</time>
      </trkpt>
      <trkpt lat="47.28509" lon="-1.40023">
        <ele>55</ele>
        <time>2021-10-09T12:29:08.000Z</time>
      </trkpt>
      <trkpt lat="47.285" lon="-1.40037">
        <ele>55</ele>
        <time>2021-10-09T12:29:10.000Z</time>
      </trkpt>
      <trkpt lat="47.28493" lon="-1.4005">
        <ele>55</ele>
        <time>2021-10-09T12:29:12.000Z</time>
      </trkpt>
      <trkpt lat="47.28486" lon="-1.40064">
        <ele>55</ele>
        <time>2021-10-09T12:29:14.000Z</time>
      </trkpt>
      <trkpt lat="47.28479" lon="-1.40079">
        <ele>56</ele>
        <time>2021-10-09T12:29:16.000Z</time>
      </trkpt>
      <trkpt lat="47.28473" lon="-1.40094">
        <ele>56</ele>
        <time>2021-10-09T12:29:18.000Z</time>
      </trkpt>
      <trkpt lat="47.28465" lon="-1.40109">
        <ele>57</ele>
        <time>2021-10-09T12:29:20.000Z</time>
      </trkpt>
      <trkpt lat="47.28459" lon="-1.40126">
        <ele>57</ele>
        <time>2021-10-09T12:29:22.000Z</time>
      </trkpt>
      <trkpt lat="47.28453" lon="-1.40142">
        <ele>58</ele>
        <time>2021-10-09T12:29:24.000Z</time>
      </trkpt>
      <trkpt lat="47.28446" lon="-1.4016">
        <ele>59</ele>
        <time>2021-10-09T12:29:26.000Z</time>
      </trkpt>
      <trkpt lat="47.28438" lon="-1.40178">
        <ele>59</ele>
        <time>2021-10-09T12:29:28.000Z</time>
      </trkpt>
      <trkpt lat="47.28431" lon="-1.40196">
        <ele>59</ele>
        <time>2021-10-09T12:29:30.000Z</time>
      </trkpt>
      <trkpt lat="47.28425" lon="-1.40214">
        <ele>59</ele>
        <time>2021-10-09T12:29:32.000Z</time>
      </trkpt>
      <trkpt lat="47.28419" lon="-1.40231">
        <ele>58</ele>
        <time>2021-10-09T12:29:34.000Z</time>
      </trkpt>
      <trkpt lat="47.28412" lon="-1.40246">
        <ele>58</ele>
        <time>2021-10-09T12:29:36.000Z</time>
      </trkpt>
      <trkpt lat="47.28406" lon="-1.40263">
        <ele>59</ele>
        <time>2021-10-09T12:29:38.000Z</time>
      </trkpt>
      <trkpt lat="47.28397" lon="-1.40281">
        <ele>59</ele>
        <time>2021-10-09T12:29:40.000Z</time>
      </trkpt>
      <trkpt lat="47.28388" lon="-1.40299">
        <ele>59</ele>
        <time>2021-10-09T12:29:42.000Z</time>
      </trkpt>
      <trkpt lat="47.28379" lon="-1.40315">
        <ele>58</ele>
        <time>2021-10-09T12:29:44.000Z</time>
      </trkpt>
      <trkpt lat="47.2837" lon="-1.40331">
        <ele>57</ele>
        <time>2021-10-09T12:29:46.000Z</time>
      </trkpt>
      <trkpt lat="47.28361" lon="-1.40345">
        <ele>58</ele>
        <time>2021-10-09T12:29:48.000Z</time>
      </trkpt>
      <trkpt lat="47.28351" lon="-1.4036">
        <ele>58</ele>
        <time>2021-10-09T12:29:50.000Z</time>
      </trkpt>
      <trkpt lat="47.28341" lon="-1.40374">
        <ele>58</ele>
        <time>2021-10-09T12:29:52.000Z</time>
      </trkpt>
      <trkpt lat="47.28331" lon="-1.40387">
        <ele>57</ele>
        <time>2021-10-09T12:29:54.000Z</time>
      </trkpt>
      <trkpt lat="47.28321" lon="-1.404">
        <ele>58</ele>
        <time>2021-10-09T12:29:56.000Z</time>
      </trkpt>
      <trkpt lat="47.2831" lon="-1.40412">
        <ele>58</ele>
        <time>2021-10-09T12:29:58.000Z</time>
      </trkpt>
      <trkpt lat="47.283" lon="-1.40425">
        <ele>58</ele>
        <time>2021-10-09T12:30:00.000Z</time>
      </trkpt>
      <trkpt lat="47.28289" lon="-1.40437">
        <ele>57</ele>
        <time>2021-10-09T12:30:02.000Z</time>
      </trkpt>
      <trkpt lat="47.28278" lon="-1.40448">
        <ele>57</ele>
        <time>2021-10-09T12:30:04.000Z</time>
      </trkpt>
      <trkpt lat="47.28267" lon="-1.40459">
        <ele>57</ele>
        <time>2021-10-09T12:30:06.000Z</time>
      </trkpt>
      <trkpt lat="47.28255" lon="-1.40469">
        <ele>57</ele>
        <time>2021-10-09T12:30:08.000Z</time>
      </trkpt>
      <trkpt lat="47.28244" lon="-1.4048">
        <ele>57</ele>
        <time>2021-10-09T12:30:10.000Z</time>
      </trkpt>
      <trkpt lat="47.28234" lon="-1.40492">
        <ele>57</ele>
        <time>2021-10-09T12:30:12.000Z</time>
      </trkpt>
      <trkpt lat="47.28224" lon="-1.40502">
        <ele>57</ele>
        <time>2021-10-09T12:30:14.000Z</time>
      </trkpt>
      <trkpt lat="47.28213" lon="-1.40513">
        <ele>56</ele>
        <time>2021-10-09T12:30:16.000Z</time>
      </trkpt>
      <trkpt lat="47.28202" lon="-1.40523">
        <ele>56</ele>
        <time>2021-10-09T12:30:18.000Z</time>
      </trkpt>
      <trkpt lat="47.28192" lon="-1.40534">
        <ele>57</ele>
        <time>2021-10-09T12:30:20.000Z</time>
      </trkpt>
      <trkpt lat="47.28181" lon="-1.40544">
        <ele>57</ele>
        <time>2021-10-09T12:30:22.000Z</time>
      </trkpt>
      <trkpt lat="47.28169" lon="-1.40556">
        <ele>56</ele>
        <time>2021-10-09T12:30:24.000Z</time>
      </trkpt>
      <trkpt lat="47.28158" lon="-1.40567">
        <ele>56</ele>
        <time>2021-10-09T12:30:26.000Z</time>
      </trkpt>
      <trkpt lat="47.28147" lon="-1.40577">
        <ele>56</ele>
        <time>2021-10-09T12:30:28.000Z</time>
      </trkpt>
      <trkpt lat="47.28136" lon="-1.40588">
        <ele>56</ele>
        <time>2021-10-09T12:30:30.000Z</time>
      </trkpt>
      <trkpt lat="47.28124" lon="-1.40599">
        <ele>56</ele>
        <time>2021-10-09T12:30:32.000Z</time>
      </trkpt>
      <trkpt lat="47.28113" lon="-1.40609">
        <ele>56</ele>
        <time>2021-10-09T12:30:34.000Z</time>
      </trkpt>
      <trkpt lat="47.28102" lon="-1.40619">
        <ele>56</ele>
        <time>2021-10-09T12:30:36.000Z</time>
      </trkpt>
      <trkpt lat="47.28091" lon="-1.40629">
        <ele>56</ele>
        <time>2021-10-09T12:30:38.000Z</time>
      </trkpt>
      <trkpt lat="47.28081" lon="-1.4064">
        <ele>56</ele>
        <time>2021-10-09T12:30:40.000Z</time>
      </trkpt>
      <trkpt lat="47.2807" lon="-1.4065">
        <ele>56</ele>
        <time>2021-10-09T12:30:42.000Z</time>
      </trkpt>
      <trkpt lat="47.28059" lon="-1.4066">
        <ele>56</ele>
        <time>2021-10-09T12:30:44.000Z</time>
      </trkpt>
      <trkpt lat="47.28048" lon="-1.40672">
        <ele>56</ele>
        <time>2021-10-09T12:30:46.000Z</time>
      </trkpt>
      <trkpt lat="47.28036" lon="-1.40684">
        <ele>55</ele>
        <time>2021-10-09T12:30:48.000Z</time>
      </trkpt>
      <trkpt lat="47.28024" lon="-1.40697">
        <ele>55</ele>
        <time>2021-10-09T12:30:50.000Z</time>
      </trkpt>
      <trkpt lat="47.28012" lon="-1.40711">
        <ele>54</ele>
        <time>2021-10-09T12:30:52.000Z</time>
      </trkpt>
      <trkpt lat="47.27999" lon="-1.40723">
        <ele>53</ele>
        <time>2021-10-09T12:30:54.000Z</time>
      </trkpt>
      <trkpt lat="47.27986" lon="-1.40735">
        <ele>53</ele>
        <time>2021-10-09T12:30:56.000Z</time>
      </trkpt>
      <trkpt lat="47.27972" lon="-1.40746">
        <ele>53</ele>
        <time>2021-10-09T12:30:58.000Z</time>
      </trkpt>
      <trkpt lat="47.27959" lon="-1.40759">
        <ele>53</ele>
        <time>2021-10-09T12:31:00.000Z</time>
      </trkpt>
      <trkpt lat="47.27946" lon="-1.4077">
        <ele>53</ele>
        <time>2021-10-09T12:31:02.000Z</time>
      </trkpt>
      <trkpt lat="47.27933" lon="-1.40782">
        <ele>53</ele>
        <time>2021-10-09T12:31:04.000Z</time>
      </trkpt>
      <trkpt lat="47.2792" lon="-1.40794">
        <ele>54</ele>
        <time>2021-10-09T12:31:06.000Z</time>
      </trkpt>
      <trkpt lat="47.27907" lon="-1.40805">
        <ele>54</ele>
        <time>2021-10-09T12:31:08.000Z</time>
      </trkpt>
      <trkpt lat="47.27895" lon="-1.40817">
        <ele>54</ele>
        <time>2021-10-09T12:31:10.000Z</time>
      </trkpt>
      <trkpt lat="47.27884" lon="-1.40831">
        <ele>54</ele>
        <time>2021-10-09T12:31:12.000Z</time>
      </trkpt>
      <trkpt lat="47.27875" lon="-1.40848">
        <ele>53</ele>
        <time>2021-10-09T12:31:14.000Z</time>
      </trkpt>
      <trkpt lat="47.27867" lon="-1.40865">
        <ele>54</ele>
        <time>2021-10-09T12:31:16.000Z</time>
      </trkpt>
      <trkpt lat="47.27859" lon="-1.40882">
        <ele>54</ele>
        <time>2021-10-09T12:31:18.000Z</time>
      </trkpt>
      <trkpt lat="47.27851" lon="-1.40899">
        <ele>54</ele>
        <time>2021-10-09T12:31:20.000Z</time>
      </trkpt>
      <trkpt lat="47.27843" lon="-1.40916">
        <ele>55</ele>
        <time>2021-10-09T12:31:22.000Z</time>
      </trkpt>
      <trkpt lat="47.27835" lon="-1.40932">
        <ele>54</ele>
        <time>2021-10-09T12:31:24.000Z</time>
      </trkpt>
      <trkpt lat="47.27827" lon="-1.40949">
        <ele>54</ele>
        <time>2021-10-09T12:31:26.000Z</time>
      </trkpt>
      <trkpt lat="47.27818" lon="-1.40966">
        <ele>54</ele>
        <time>2021-10-09T12:31:28.000Z</time>
      </trkpt>
      <trkpt lat="47.2781" lon="-1.40983">
        <ele>54</ele>
        <time>2021-10-09T12:31:30.000Z</time>
      </trkpt>
      <trkpt lat="47.278" lon="-1.40998">
        <ele>55</ele>
        <time>2021-10-09T12:31:32.000Z</time>
      </trkpt>
      <trkpt lat="47.2779" lon="-1.41012">
        <ele>55</ele>
        <time>2021-10-09T12:31:34.000Z</time>
      </trkpt>
      <trkpt lat="47.2778" lon="-1.41027">
        <ele>55</ele>
        <time>2021-10-09T12:31:36.000Z</time>
      </trkpt>
      <trkpt lat="47.27772" lon="-1.41042">
        <ele>55</ele>
        <time>2021-10-09T12:31:38.000Z</time>
      </trkpt>
      <trkpt lat="47.27765" lon="-1.41061">
        <ele>55</ele>
        <time>2021-10-09T12:31:40.000Z</time>
      </trkpt>
      <trkpt lat="47.27755" lon="-1.41077">
        <ele>54</ele>
        <time>2021-10-09T12:31:42.000Z</time>
      </trkpt>
      <trkpt lat="47.27743" lon="-1.4109">
        <ele>53</ele>
        <time>2021-10-09T12:31:44.000Z</time>
      </trkpt>
      <trkpt lat="47.27731" lon="-1.41103">
        <ele>53</ele>
        <time>2021-10-09T12:31:46.000Z</time>
      </trkpt>
      <trkpt lat="47.27719" lon="-1.41115">
        <ele>53</ele>
        <time>2021-10-09T12:31:48.000Z</time>
      </trkpt>
      <trkpt lat="47.27707" lon="-1.41128">
        <ele>53</ele>
        <time>2021-10-09T12:31:50.000Z</time>
      </trkpt>
      <trkpt lat="47.27695" lon="-1.4114">
        <ele>53</ele>
        <time>2021-10-09T12:31:52.000Z</time>
      </trkpt>
      <trkpt lat="47.27684" lon="-1.41153">
        <ele>53</ele>
        <time>2021-10-09T12:31:54.000Z</time>
      </trkpt>
      <trkpt lat="47.27673" lon="-1.41166">
        <ele>53</ele>
        <time>2021-10-09T12:31:56.000Z</time>
      </trkpt>
      <trkpt lat="47.27656" lon="-1.41186">
        <ele>54</ele>
        <time>2021-10-09T12:31:59.000Z</time>
      </trkpt>
      <trkpt lat="47.27644" lon="-1.41198">
        <ele>54</ele>
        <time>2021-10-09T12:32:01.000Z</time>
      </trkpt>
      <trkpt lat="47.27626" lon="-1.41215">
        <ele>54</ele>
        <time>2021-10-09T12:32:04.000Z</time>
      </trkpt>
      <trkpt lat="47.27607" lon="-1.41233">
        <ele>54</ele>
        <time>2021-10-09T12:32:07.000Z</time>
      </trkpt>
      <trkpt lat="47.27595" lon="-1.41245">
        <ele>54</ele>
        <time>2021-10-09T12:32:09.000Z</time>
      </trkpt>
      <trkpt lat="47.27583" lon="-1.41257">
        <ele>54</ele>
        <time>2021-10-09T12:32:11.000Z</time>
      </trkpt>
      <trkpt lat="47.27572" lon="-1.41269">
        <ele>54</ele>
        <time>2021-10-09T12:32:13.000Z</time>
      </trkpt>
      <trkpt lat="47.2756" lon="-1.41283">
        <ele>54</ele>
        <time>2021-10-09T12:32:15.000Z</time>
      </trkpt>
      <trkpt lat="47.27549" lon="-1.41295">
        <ele>54</ele>
        <time>2021-10-09T12:32:17.000Z</time>
      </trkpt>
      <trkpt lat="47.27538" lon="-1.4131">
        <ele>55</ele>
        <time>2021-10-09T12:32:19.000Z</time>
      </trkpt>
      <trkpt lat="47.27528" lon="-1.41324">
        <ele>55</ele>
        <time>2021-10-09T12:32:21.000Z</time>
      </trkpt>
      <trkpt lat="47.27517" lon="-1.4134">
        <ele>55</ele>
        <time>2021-10-09T12:32:23.000Z</time>
      </trkpt>
      <trkpt lat="47.27507" lon="-1.41354">
        <ele>56</ele>
        <time>2021-10-09T12:32:25.000Z</time>
      </trkpt>
      <trkpt lat="47.27496" lon="-1.4137">
        <ele>56</ele>
        <time>2021-10-09T12:32:27.000Z</time>
      </trkpt>
      <trkpt lat="47.27486" lon="-1.41386">
        <ele>56</ele>
        <time>2021-10-09T12:32:29.000Z</time>
      </trkpt>
      <trkpt lat="47.27477" lon="-1.41403">
        <ele>56</ele>
        <time>2021-10-09T12:32:31.000Z</time>
      </trkpt>
      <trkpt lat="47.27468" lon="-1.4142">
        <ele>56</ele>
        <time>2021-10-09T12:32:33.000Z</time>
      </trkpt>
      <trkpt lat="47.27458" lon="-1.41437">
        <ele>57</ele>
        <time>2021-10-09T12:32:35.000Z</time>
      </trkpt>
      <trkpt lat="47.27448" lon="-1.41455">
        <ele>57</ele>
        <time>2021-10-09T12:32:37.000Z</time>
      </trkpt>
      <trkpt lat="47.27439" lon="-1.41472">
        <ele>57</ele>
        <time>2021-10-09T12:32:39.000Z</time>
      </trkpt>
      <trkpt lat="47.27429" lon="-1.41488">
        <ele>57</ele>
        <time>2021-10-09T12:32:41.000Z</time>
      </trkpt>
      <trkpt lat="47.27419" lon="-1.41506">
        <ele>56</ele>
        <time>2021-10-09T12:32:43.000Z</time>
      </trkpt>
      <trkpt lat="47.27409" lon="-1.41523">
        <ele>56</ele>
        <time>2021-10-09T12:32:45.000Z</time>
      </trkpt>
      <trkpt lat="47.27398" lon="-1.41539">
        <ele>56</ele>
        <time>2021-10-09T12:32:47.000Z</time>
      </trkpt>
      <trkpt lat="47.27388" lon="-1.41555">
        <ele>56</ele>
        <time>2021-10-09T12:32:49.000Z</time>
      </trkpt>
      <trkpt lat="47.27378" lon="-1.4157">
        <ele>56</ele>
        <time>2021-10-09T12:32:51.000Z</time>
      </trkpt>
      <trkpt lat="47.27367" lon="-1.41586">
        <ele>56</ele>
        <time>2021-10-09T12:32:53.000Z</time>
      </trkpt>
      <trkpt lat="47.27356" lon="-1.41602">
        <ele>55</ele>
        <time>2021-10-09T12:32:55.000Z</time>
      </trkpt>
      <trkpt lat="47.27345" lon="-1.41618">
        <ele>55</ele>
        <time>2021-10-09T12:32:57.000Z</time>
      </trkpt>
      <trkpt lat="47.27335" lon="-1.41633">
        <ele>55</ele>
        <time>2021-10-09T12:32:59.000Z</time>
      </trkpt>
      <trkpt lat="47.27326" lon="-1.41648">
        <ele>55</ele>
        <time>2021-10-09T12:33:01.000Z</time>
      </trkpt>
      <trkpt lat="47.27317" lon="-1.41664">
        <ele>55</ele>
        <time>2021-10-09T12:33:03.000Z</time>
      </trkpt>
      <trkpt lat="47.27308" lon="-1.4168">
        <ele>55</ele>
        <time>2021-10-09T12:33:05.000Z</time>
      </trkpt>
      <trkpt lat="47.27299" lon="-1.41698">
        <ele>55</ele>
        <time>2021-10-09T12:33:07.000Z</time>
      </trkpt>
      <trkpt lat="47.27291" lon="-1.41716">
        <ele>55</ele>
        <time>2021-10-09T12:33:09.000Z</time>
      </trkpt>
      <trkpt lat="47.27281" lon="-1.41735">
        <ele>55</ele>
        <time>2021-10-09T12:33:11.000Z</time>
      </trkpt>
      <trkpt lat="47.27272" lon="-1.41754">
        <ele>55</ele>
        <time>2021-10-09T12:33:13.000Z</time>
      </trkpt>
      <trkpt lat="47.27263" lon="-1.4177">
        <ele>55</ele>
        <time>2021-10-09T12:33:15.000Z</time>
      </trkpt>
      <trkpt lat="47.27254" lon="-1.41787">
        <ele>55</ele>
        <time>2021-10-09T12:33:17.000Z</time>
      </trkpt>
      <trkpt lat="47.27244" lon="-1.41804">
        <ele>56</ele>
        <time>2021-10-09T12:33:19.000Z</time>
      </trkpt>
      <trkpt lat="47.27235" lon="-1.4182">
        <ele>56</ele>
        <time>2021-10-09T12:33:21.000Z</time>
      </trkpt>
      <trkpt lat="47.27225" lon="-1.41837">
        <ele>56</ele>
        <time>2021-10-09T12:33:23.000Z</time>
      </trkpt>
      <trkpt lat="47.27216" lon="-1.41853">
        <ele>56</ele>
        <time>2021-10-09T12:33:25.000Z</time>
      </trkpt>
      <trkpt lat="47.27206" lon="-1.41868">
        <ele>56</ele>
        <time>2021-10-09T12:33:27.000Z</time>
      </trkpt>
      <trkpt lat="47.27197" lon="-1.41885">
        <ele>56</ele>
        <time>2021-10-09T12:33:29.000Z</time>
      </trkpt>
      <trkpt lat="47.27188" lon="-1.41902">
        <ele>56</ele>
        <time>2021-10-09T12:33:31.000Z</time>
      </trkpt>
      <trkpt lat="47.27178" lon="-1.41919">
        <ele>56</ele>
        <time>2021-10-09T12:33:33.000Z</time>
      </trkpt>
      <trkpt lat="47.27168" lon="-1.41935">
        <ele>55</ele>
        <time>2021-10-09T12:33:35.000Z</time>
      </trkpt>
      <trkpt lat="47.27157" lon="-1.41953">
        <ele>55</ele>
        <time>2021-10-09T12:33:37.000Z</time>
      </trkpt>
      <trkpt lat="47.27148" lon="-1.41971">
        <ele>55</ele>
        <time>2021-10-09T12:33:39.000Z</time>
      </trkpt>
      <trkpt lat="47.27138" lon="-1.41989">
        <ele>56</ele>
        <time>2021-10-09T12:33:41.000Z</time>
      </trkpt>
      <trkpt lat="47.27128" lon="-1.42005">
        <ele>56</ele>
        <time>2021-10-09T12:33:43.000Z</time>
      </trkpt>
      <trkpt lat="47.27118" lon="-1.42021">
        <ele>56</ele>
        <time>2021-10-09T12:33:45.000Z</time>
      </trkpt>
      <trkpt lat="47.27108" lon="-1.42039">
        <ele>55</ele>
        <time>2021-10-09T12:33:47.000Z</time>
      </trkpt>
      <trkpt lat="47.27097" lon="-1.42054">
        <ele>55</ele>
        <time>2021-10-09T12:33:49.000Z</time>
      </trkpt>
      <trkpt lat="47.27087" lon="-1.4207">
        <ele>55</ele>
        <time>2021-10-09T12:33:51.000Z</time>
      </trkpt>
      <trkpt lat="47.27078" lon="-1.42086">
        <ele>55</ele>
        <time>2021-10-09T12:33:53.000Z</time>
      </trkpt>
      <trkpt lat="47.27069" lon="-1.42104">
        <ele>55</ele>
        <time>2021-10-09T12:33:55.000Z</time>
      </trkpt>
      <trkpt lat="47.27059" lon="-1.4212">
        <ele>55</ele>
        <time>2021-10-09T12:33:57.000Z</time>
      </trkpt>
      <trkpt lat="47.27051" lon="-1.42135">
        <ele>55</ele>
        <time>2021-10-09T12:33:59.000Z</time>
      </trkpt>
      <trkpt lat="47.27043" lon="-1.42152">
        <ele>55</ele>
        <time>2021-10-09T12:34:01.000Z</time>
      </trkpt>
      <trkpt lat="47.27034" lon="-1.42168">
        <ele>55</ele>
        <time>2021-10-09T12:34:03.000Z</time>
      </trkpt>
      <trkpt lat="47.27025" lon="-1.42183">
        <ele>55</ele>
        <time>2021-10-09T12:34:05.000Z</time>
      </trkpt>
      <trkpt lat="47.27016" lon="-1.42198">
        <ele>56</ele>
        <time>2021-10-09T12:34:07.000Z</time>
      </trkpt>
      <trkpt lat="47.27007" lon="-1.42214">
        <ele>55</ele>
        <time>2021-10-09T12:34:09.000Z</time>
      </trkpt>
      <trkpt lat="47.26997" lon="-1.4223">
        <ele>55</ele>
        <time>2021-10-09T12:34:11.000Z</time>
      </trkpt>
      <trkpt lat="47.26988" lon="-1.42247">
        <ele>55</ele>
        <time>2021-10-09T12:34:13.000Z</time>
      </trkpt>
      <trkpt lat="47.26979" lon="-1.42264">
        <ele>55</ele>
        <time>2021-10-09T12:34:15.000Z</time>
      </trkpt>
      <trkpt lat="47.2697" lon="-1.4228">
        <ele>55</ele>
        <time>2021-10-09T12:34:17.000Z</time>
      </trkpt>
      <trkpt lat="47.26961" lon="-1.42297">
        <ele>56</ele>
        <time>2021-10-09T12:34:19.000Z</time>
      </trkpt>
      <trkpt lat="47.26953" lon="-1.42313">
        <ele>56</ele>
        <time>2021-10-09T12:34:21.000Z</time>
      </trkpt>
      <trkpt lat="47.26945" lon="-1.4233">
        <ele>56</ele>
        <time>2021-10-09T12:34:23.000Z</time>
      </trkpt>
      <trkpt lat="47.26937" lon="-1.42347">
        <ele>56</ele>
        <time>2021-10-09T12:34:25.000Z</time>
      </trkpt>
      <trkpt lat="47.26928" lon="-1.42363">
        <ele>56</ele>
        <time>2021-10-09T12:34:27.000Z</time>
      </trkpt>
      <trkpt lat="47.2692" lon="-1.4238">
        <ele>56</ele>
        <time>2021-10-09T12:34:29.000Z</time>
      </trkpt>
      <trkpt lat="47.26912" lon="-1.42396">
        <ele>57</ele>
        <time>2021-10-09T12:34:31.000Z</time>
      </trkpt>
      <trkpt lat="47.26904" lon="-1.42413">
        <ele>57</ele>
        <time>2021-10-09T12:34:33.000Z</time>
      </trkpt>
      <trkpt lat="47.26895" lon="-1.42429">
        <ele>57</ele>
        <time>2021-10-09T12:34:35.000Z</time>
      </trkpt>
      <trkpt lat="47.26886" lon="-1.42445">
        <ele>56</ele>
        <time>2021-10-09T12:34:37.000Z</time>
      </trkpt>
      <trkpt lat="47.26877" lon="-1.42461">
        <ele>57</ele>
        <time>2021-10-09T12:34:39.000Z</time>
      </trkpt>
      <trkpt lat="47.26868" lon="-1.42477">
        <ele>57</ele>
        <time>2021-10-09T12:34:41.000Z</time>
      </trkpt>
      <trkpt lat="47.26859" lon="-1.42494">
        <ele>57</ele>
        <time>2021-10-09T12:34:43.000Z</time>
      </trkpt>
      <trkpt lat="47.2685" lon="-1.4251">
        <ele>57</ele>
        <time>2021-10-09T12:34:45.000Z</time>
      </trkpt>
      <trkpt lat="47.26841" lon="-1.42528">
        <ele>57</ele>
        <time>2021-10-09T12:34:47.000Z</time>
      </trkpt>
      <trkpt lat="47.26833" lon="-1.42545">
        <ele>57</ele>
        <time>2021-10-09T12:34:49.000Z</time>
      </trkpt>
      <trkpt lat="47.26824" lon="-1.42562">
        <ele>56</ele>
        <time>2021-10-09T12:34:51.000Z</time>
      </trkpt>
      <trkpt lat="47.26816" lon="-1.4258">
        <ele>56</ele>
        <time>2021-10-09T12:34:53.000Z</time>
      </trkpt>
      <trkpt lat="47.26808" lon="-1.42598">
        <ele>57</ele>
        <time>2021-10-09T12:34:55.000Z</time>
      </trkpt>
      <trkpt lat="47.268" lon="-1.42617">
        <ele>56</ele>
        <time>2021-10-09T12:34:57.000Z</time>
      </trkpt>
      <trkpt lat="47.26793" lon="-1.42636">
        <ele>56</ele>
        <time>2021-10-09T12:34:59.000Z</time>
      </trkpt>
      <trkpt lat="47.26785" lon="-1.42654">
        <ele>56</ele>
        <time>2021-10-09T12:35:01.000Z</time>
      </trkpt>
      <trkpt lat="47.26779" lon="-1.42673">
        <ele>56</ele>
        <time>2021-10-09T12:35:03.000Z</time>
      </trkpt>
      <trkpt lat="47.26772" lon="-1.42691">
        <ele>56</ele>
        <time>2021-10-09T12:35:05.000Z</time>
      </trkpt>
      <trkpt lat="47.26765" lon="-1.4271">
        <ele>56</ele>
        <time>2021-10-09T12:35:07.000Z</time>
      </trkpt>
      <trkpt lat="47.26756" lon="-1.42727">
        <ele>56</ele>
        <time>2021-10-09T12:35:09.000Z</time>
      </trkpt>
      <trkpt lat="47.26748" lon="-1.42743">
        <ele>55</ele>
        <time>2021-10-09T12:35:11.000Z</time>
      </trkpt>
      <trkpt lat="47.26739" lon="-1.42759">
        <ele>55</ele>
        <time>2021-10-09T12:35:13.000Z</time>
      </trkpt>
      <trkpt lat="47.26732" lon="-1.42777">
        <ele>55</ele>
        <time>2021-10-09T12:35:15.000Z</time>
      </trkpt>
      <trkpt lat="47.26728" lon="-1.42796">
        <ele>55</ele>
        <time>2021-10-09T12:35:17.000Z</time>
      </trkpt>
      <trkpt lat="47.26722" lon="-1.42814">
        <ele>55</ele>
        <time>2021-10-09T12:35:19.000Z</time>
      </trkpt>
      <trkpt lat="47.26716" lon="-1.42829">
        <ele>55</ele>
        <time>2021-10-09T12:35:21.000Z</time>
      </trkpt>
      <trkpt lat="47.26708" lon="-1.42846">
        <ele>55</ele>
        <time>2021-10-09T12:35:23.000Z</time>
      </trkpt>
      <trkpt lat="47.26701" lon="-1.42865">
        <ele>56</ele>
        <time>2021-10-09T12:35:25.000Z</time>
      </trkpt>
      <trkpt lat="47.26693" lon="-1.42883">
        <ele>56</ele>
        <time>2021-10-09T12:35:27.000Z</time>
      </trkpt>
      <trkpt lat="47.26684" lon="-1.429">
        <ele>56</ele>
        <time>2021-10-09T12:35:29.000Z</time>
      </trkpt>
      <trkpt lat="47.26676" lon="-1.42918">
        <ele>56</ele>
        <time>2021-10-09T12:35:31.000Z</time>
      </trkpt>
      <trkpt lat="47.26668" lon="-1.42935">
        <ele>56</ele>
        <time>2021-10-09T12:35:33.000Z</time>
      </trkpt>
      <trkpt lat="47.26659" lon="-1.42953">
        <ele>56</ele>
        <time>2021-10-09T12:35:35.000Z</time>
      </trkpt>
      <trkpt lat="47.26652" lon="-1.42971">
        <ele>55</ele>
        <time>2021-10-09T12:35:37.000Z</time>
      </trkpt>
      <trkpt lat="47.26644" lon="-1.42987">
        <ele>55</ele>
        <time>2021-10-09T12:35:39.000Z</time>
      </trkpt>
      <trkpt lat="47.26636" lon="-1.43004">
        <ele>55</ele>
        <time>2021-10-09T12:35:41.000Z</time>
      </trkpt>
      <trkpt lat="47.26628" lon="-1.4302">
        <ele>55</ele>
        <time>2021-10-09T12:35:43.000Z</time>
      </trkpt>
      <trkpt lat="47.26621" lon="-1.43036">
        <ele>54</ele>
        <time>2021-10-09T12:35:45.000Z</time>
      </trkpt>
      <trkpt lat="47.26612" lon="-1.43053">
        <ele>54</ele>
        <time>2021-10-09T12:35:47.000Z</time>
      </trkpt>
      <trkpt lat="47.26604" lon="-1.4307">
        <ele>54</ele>
        <time>2021-10-09T12:35:49.000Z</time>
      </trkpt>
      <trkpt lat="47.26595" lon="-1.43085">
        <ele>55</ele>
        <time>2021-10-09T12:35:51.000Z</time>
      </trkpt>
      <trkpt lat="47.26585" lon="-1.431">
        <ele>55</ele>
        <time>2021-10-09T12:35:53.000Z</time>
      </trkpt>
      <trkpt lat="47.26576" lon="-1.43116">
        <ele>54</ele>
        <time>2021-10-09T12:35:55.000Z</time>
      </trkpt>
      <trkpt lat="47.26566" lon="-1.4313">
        <ele>55</ele>
        <time>2021-10-09T12:35:57.000Z</time>
      </trkpt>
      <trkpt lat="47.26557" lon="-1.43144">
        <ele>55</ele>
        <time>2021-10-09T12:35:59.000Z</time>
      </trkpt>
      <trkpt lat="47.26547" lon="-1.43157">
        <ele>55</ele>
        <time>2021-10-09T12:36:01.000Z</time>
      </trkpt>
      <trkpt lat="47.26538" lon="-1.43172">
        <ele>55</ele>
        <time>2021-10-09T12:36:03.000Z</time>
      </trkpt>
      <trkpt lat="47.26528" lon="-1.43185">
        <ele>56</ele>
        <time>2021-10-09T12:36:05.000Z</time>
      </trkpt>
      <trkpt lat="47.26518" lon="-1.43198">
        <ele>55</ele>
        <time>2021-10-09T12:36:07.000Z</time>
      </trkpt>
      <trkpt lat="47.26509" lon="-1.43209">
        <ele>56</ele>
        <time>2021-10-09T12:36:09.000Z</time>
      </trkpt>
      <trkpt lat="47.265" lon="-1.43222">
        <ele>56</ele>
        <time>2021-10-09T12:36:11.000Z</time>
      </trkpt>
      <trkpt lat="47.26491" lon="-1.43234">
        <ele>56</ele>
        <time>2021-10-09T12:36:13.000Z</time>
      </trkpt>
      <trkpt lat="47.2648" lon="-1.43246">
        <ele>56</ele>
        <time>2021-10-09T12:36:15.000Z</time>
      </trkpt>
      <trkpt lat="47.26471" lon="-1.43258">
        <ele>56</ele>
        <time>2021-10-09T12:36:17.000Z</time>
      </trkpt>
      <trkpt lat="47.26462" lon="-1.4327">
        <ele>56</ele>
        <time>2021-10-09T12:36:19.000Z</time>
      </trkpt>
      <trkpt lat="47.26452" lon="-1.43286">
        <ele>56</ele>
        <time>2021-10-09T12:36:21.000Z</time>
      </trkpt>
      <trkpt lat="47.26442" lon="-1.43306">
        <ele>57</ele>
        <time>2021-10-09T12:36:23.000Z</time>
      </trkpt>
      <trkpt lat="47.26432" lon="-1.43323">
        <ele>58</ele>
        <time>2021-10-09T12:36:25.000Z</time>
      </trkpt>
      <trkpt lat="47.26422" lon="-1.43337">
        <ele>58</ele>
        <time>2021-10-09T12:36:27.000Z</time>
      </trkpt>
      <trkpt lat="47.26412" lon="-1.43351">
        <ele>58</ele>
        <time>2021-10-09T12:36:29.000Z</time>
      </trkpt>
      <trkpt lat="47.26401" lon="-1.43364">
        <ele>57</ele>
        <time>2021-10-09T12:36:31.000Z</time>
      </trkpt>
      <trkpt lat="47.2639" lon="-1.43376">
        <ele>57</ele>
        <time>2021-10-09T12:36:33.000Z</time>
      </trkpt>
      <trkpt lat="47.26379" lon="-1.43389">
        <ele>57</ele>
        <time>2021-10-09T12:36:35.000Z</time>
      </trkpt>
      <trkpt lat="47.26368" lon="-1.43401">
        <ele>56</ele>
        <time>2021-10-09T12:36:37.000Z</time>
      </trkpt>
      <trkpt lat="47.26358" lon="-1.43414">
        <ele>55</ele>
        <time>2021-10-09T12:36:39.000Z</time>
      </trkpt>
      <trkpt lat="47.26348" lon="-1.43426">
        <ele>55</ele>
        <time>2021-10-09T12:36:41.000Z</time>
      </trkpt>
      <trkpt lat="47.26337" lon="-1.43438">
        <ele>54</ele>
        <time>2021-10-09T12:36:43.000Z</time>
      </trkpt>
      <trkpt lat="47.26327" lon="-1.4345">
        <ele>54</ele>
        <time>2021-10-09T12:36:45.000Z</time>
      </trkpt>
      <trkpt lat="47.26316" lon="-1.4346">
        <ele>54</ele>
        <time>2021-10-09T12:36:47.000Z</time>
      </trkpt>
      <trkpt lat="47.26306" lon="-1.4347">
        <ele>54</ele>
        <time>2021-10-09T12:36:49.000Z</time>
      </trkpt>
      <trkpt lat="47.26296" lon="-1.43479">
        <ele>54</ele>
        <time>2021-10-09T12:36:51.000Z</time>
      </trkpt>
      <trkpt lat="47.26284" lon="-1.43486">
        <ele>54</ele>
        <time>2021-10-09T12:36:53.000Z</time>
      </trkpt>
      <trkpt lat="47.26273" lon="-1.43489">
        <ele>54</ele>
        <time>2021-10-09T12:36:55.000Z</time>
      </trkpt>
      <trkpt lat="47.26262" lon="-1.43493">
        <ele>54</ele>
        <time>2021-10-09T12:36:57.000Z</time>
      </trkpt>
      <trkpt lat="47.2625" lon="-1.43501">
        <ele>54</ele>
        <time>2021-10-09T12:36:59.000Z</time>
      </trkpt>
      <trkpt lat="47.26239" lon="-1.43512">
        <ele>54</ele>
        <time>2021-10-09T12:37:01.000Z</time>
      </trkpt>
      <trkpt lat="47.26229" lon="-1.43525">
        <ele>53</ele>
        <time>2021-10-09T12:37:03.000Z</time>
      </trkpt>
      <trkpt lat="47.2622" lon="-1.43536">
        <ele>53</ele>
        <time>2021-10-09T12:37:05.000Z</time>
      </trkpt>
      <trkpt lat="47.26214" lon="-1.43552">
        <ele>54</ele>
        <time>2021-10-09T12:37:08.000Z</time>
      </trkpt>
      <trkpt lat="47.26211" lon="-1.43566">
        <ele>55</ele>
        <time>2021-10-09T12:37:10.000Z</time>
      </trkpt>
      <trkpt lat="47.26203" lon="-1.43581">
        <ele>57</ele>
        <time>2021-10-09T12:37:12.000Z</time>
      </trkpt>
      <trkpt lat="47.26194" lon="-1.43597">
        <ele>57</ele>
        <time>2021-10-09T12:37:14.000Z</time>
      </trkpt>
      <trkpt lat="47.26185" lon="-1.43612">
        <ele>57</ele>
        <time>2021-10-09T12:37:16.000Z</time>
      </trkpt>
      <trkpt lat="47.26179" lon="-1.43628">
        <ele>57</ele>
        <time>2021-10-09T12:37:18.000Z</time>
      </trkpt>
      <trkpt lat="47.26171" lon="-1.43642">
        <ele>57</ele>
        <time>2021-10-09T12:37:20.000Z</time>
      </trkpt>
      <trkpt lat="47.26162" lon="-1.43656">
        <ele>56</ele>
        <time>2021-10-09T12:37:22.000Z</time>
      </trkpt>
      <trkpt lat="47.26155" lon="-1.43667">
        <ele>57</ele>
        <time>2021-10-09T12:37:24.000Z</time>
      </trkpt>
      <trkpt lat="47.26146" lon="-1.43681">
        <ele>56</ele>
        <time>2021-10-09T12:37:26.000Z</time>
      </trkpt>
      <trkpt lat="47.26138" lon="-1.43695">
        <ele>56</ele>
        <time>2021-10-09T12:37:28.000Z</time>
      </trkpt>
      <trkpt lat="47.26129" lon="-1.43708">
        <ele>56</ele>
        <time>2021-10-09T12:37:30.000Z</time>
      </trkpt>
      <trkpt lat="47.2612" lon="-1.4372">
        <ele>55</ele>
        <time>2021-10-09T12:37:32.000Z</time>
      </trkpt>
      <trkpt lat="47.2611" lon="-1.43733">
        <ele>56</ele>
        <time>2021-10-09T12:37:34.000Z</time>
      </trkpt>
      <trkpt lat="47.26099" lon="-1.43747">
        <ele>55</ele>
        <time>2021-10-09T12:37:36.000Z</time>
      </trkpt>
      <trkpt lat="47.2609" lon="-1.43759">
        <ele>55</ele>
        <time>2021-10-09T12:37:38.000Z</time>
      </trkpt>
      <trkpt lat="47.26081" lon="-1.43769">
        <ele>55</ele>
        <time>2021-10-09T12:37:40.000Z</time>
      </trkpt>
      <trkpt lat="47.26073" lon="-1.4378">
        <ele>55</ele>
        <time>2021-10-09T12:37:42.000Z</time>
      </trkpt>
      <trkpt lat="47.26063" lon="-1.43793">
        <ele>55</ele>
        <time>2021-10-09T12:37:44.000Z</time>
      </trkpt>
      <trkpt lat="47.26054" lon="-1.43808">
        <ele>57</ele>
        <time>2021-10-09T12:37:46.000Z</time>
      </trkpt>
      <trkpt lat="47.26045" lon="-1.43825">
        <ele>58</ele>
        <time>2021-10-09T12:37:48.000Z</time>
      </trkpt>
      <trkpt lat="47.26037" lon="-1.43843">
        <ele>58</ele>
        <time>2021-10-09T12:37:50.000Z</time>
      </trkpt>
      <trkpt lat="47.26026" lon="-1.43856">
        <ele>59</ele>
        <time>2021-10-09T12:37:52.000Z</time>
      </trkpt>
      <trkpt lat="47.26015" lon="-1.43868">
        <ele>59</ele>
        <time>2021-10-09T12:37:54.000Z</time>
      </trkpt>
      <trkpt lat="47.26004" lon="-1.43879">
        <ele>58</ele>
        <time>2021-10-09T12:37:56.000Z</time>
      </trkpt>
      <trkpt lat="47.25993" lon="-1.4389">
        <ele>58</ele>
        <time>2021-10-09T12:37:58.000Z</time>
      </trkpt>
      <trkpt lat="47.25982" lon="-1.43901">
        <ele>57</ele>
        <time>2021-10-09T12:38:00.000Z</time>
      </trkpt>
      <trkpt lat="47.25971" lon="-1.43914">
        <ele>57</ele>
        <time>2021-10-09T12:38:02.000Z</time>
      </trkpt>
      <trkpt lat="47.25961" lon="-1.43926">
        <ele>56</ele>
        <time>2021-10-09T12:38:04.000Z</time>
      </trkpt>
      <trkpt lat="47.25951" lon="-1.43938">
        <ele>56</ele>
        <time>2021-10-09T12:38:06.000Z</time>
      </trkpt>
      <trkpt lat="47.25941" lon="-1.4395">
        <ele>56</ele>
        <time>2021-10-09T12:38:08.000Z</time>
      </trkpt>
      <trkpt lat="47.25931" lon="-1.4396">
        <ele>56</ele>
        <time>2021-10-09T12:38:10.000Z</time>
      </trkpt>
      <trkpt lat="47.25921" lon="-1.43971">
        <ele>56</ele>
        <time>2021-10-09T12:38:12.000Z</time>
      </trkpt>
      <trkpt lat="47.25913" lon="-1.43982">
        <ele>56</ele>
        <time>2021-10-09T12:38:14.000Z</time>
      </trkpt>
      <trkpt lat="47.25904" lon="-1.43994">
        <ele>57</ele>
        <time>2021-10-09T12:38:16.000Z</time>
      </trkpt>
      <trkpt lat="47.25892" lon="-1.44008">
        <ele>56</ele>
        <time>2021-10-09T12:38:18.000Z</time>
      </trkpt>
      <trkpt lat="47.25881" lon="-1.4402">
        <ele>56</ele>
        <time>2021-10-09T12:38:20.000Z</time>
      </trkpt>
      <trkpt lat="47.25872" lon="-1.44036">
        <ele>56</ele>
        <time>2021-10-09T12:38:22.000Z</time>
      </trkpt>
      <trkpt lat="47.25865" lon="-1.44055">
        <ele>57</ele>
        <time>2021-10-09T12:38:24.000Z</time>
      </trkpt>
      <trkpt lat="47.25858" lon="-1.44073">
        <ele>58</ele>
        <time>2021-10-09T12:38:26.000Z</time>
      </trkpt>
      <trkpt lat="47.25848" lon="-1.44087">
        <ele>57</ele>
        <time>2021-10-09T12:38:28.000Z</time>
      </trkpt>
      <trkpt lat="47.25839" lon="-1.441">
        <ele>56</ele>
        <time>2021-10-09T12:38:30.000Z</time>
      </trkpt>
      <trkpt lat="47.25829" lon="-1.44112">
        <ele>56</ele>
        <time>2021-10-09T12:38:32.000Z</time>
      </trkpt>
      <trkpt lat="47.25818" lon="-1.44124">
        <ele>55</ele>
        <time>2021-10-09T12:38:34.000Z</time>
      </trkpt>
      <trkpt lat="47.25808" lon="-1.44136">
        <ele>55</ele>
        <time>2021-10-09T12:38:36.000Z</time>
      </trkpt>
      <trkpt lat="47.25797" lon="-1.44149">
        <ele>55</ele>
        <time>2021-10-09T12:38:38.000Z</time>
      </trkpt>
      <trkpt lat="47.25787" lon="-1.44162">
        <ele>55</ele>
        <time>2021-10-09T12:38:40.000Z</time>
      </trkpt>
      <trkpt lat="47.25777" lon="-1.44175">
        <ele>55</ele>
        <time>2021-10-09T12:38:42.000Z</time>
      </trkpt>
      <trkpt lat="47.25767" lon="-1.44188">
        <ele>55</ele>
        <time>2021-10-09T12:38:44.000Z</time>
      </trkpt>
      <trkpt lat="47.25757" lon="-1.442">
        <ele>55</ele>
        <time>2021-10-09T12:38:46.000Z</time>
      </trkpt>
      <trkpt lat="47.25747" lon="-1.44212">
        <ele>54</ele>
        <time>2021-10-09T12:38:48.000Z</time>
      </trkpt>
      <trkpt lat="47.25737" lon="-1.44226">
        <ele>54</ele>
        <time>2021-10-09T12:38:50.000Z</time>
      </trkpt>
      <trkpt lat="47.25728" lon="-1.44239">
        <ele>54</ele>
        <time>2021-10-09T12:38:52.000Z</time>
      </trkpt>
      <trkpt lat="47.25718" lon="-1.44251">
        <ele>53</ele>
        <time>2021-10-09T12:38:54.000Z</time>
      </trkpt>
      <trkpt lat="47.25708" lon="-1.44263">
        <ele>53</ele>
        <time>2021-10-09T12:38:56.000Z</time>
      </trkpt>
      <trkpt lat="47.25698" lon="-1.44275">
        <ele>53</ele>
        <time>2021-10-09T12:38:58.000Z</time>
      </trkpt>
      <trkpt lat="47.25687" lon="-1.44288">
        <ele>53</ele>
        <time>2021-10-09T12:39:00.000Z</time>
      </trkpt>
      <trkpt lat="47.25676" lon="-1.44301">
        <ele>53</ele>
        <time>2021-10-09T12:39:02.000Z</time>
      </trkpt>
      <trkpt lat="47.25666" lon="-1.44314">
        <ele>53</ele>
        <time>2021-10-09T12:39:04.000Z</time>
      </trkpt>
      <trkpt lat="47.25656" lon="-1.44326">
        <ele>53</ele>
        <time>2021-10-09T12:39:06.000Z</time>
      </trkpt>
      <trkpt lat="47.25646" lon="-1.44337">
        <ele>53</ele>
        <time>2021-10-09T12:39:08.000Z</time>
      </trkpt>
      <trkpt lat="47.25636" lon="-1.44347">
        <ele>53</ele>
        <time>2021-10-09T12:39:10.000Z</time>
      </trkpt>
      <trkpt lat="47.25624" lon="-1.44358">
        <ele>54</ele>
        <time>2021-10-09T12:39:12.000Z</time>
      </trkpt>
      <trkpt lat="47.25613" lon="-1.4437">
        <ele>54</ele>
        <time>2021-10-09T12:39:14.000Z</time>
      </trkpt>
      <trkpt lat="47.25602" lon="-1.44382">
        <ele>55</ele>
        <time>2021-10-09T12:39:16.000Z</time>
      </trkpt>
      <trkpt lat="47.25592" lon="-1.44396">
        <ele>56</ele>
        <time>2021-10-09T12:39:18.000Z</time>
      </trkpt>
      <trkpt lat="47.2558" lon="-1.4441">
        <ele>56</ele>
        <time>2021-10-09T12:39:20.000Z</time>
      </trkpt>
      <trkpt lat="47.25569" lon="-1.44424">
        <ele>55</ele>
        <time>2021-10-09T12:39:22.000Z</time>
      </trkpt>
      <trkpt lat="47.25557" lon="-1.44438">
        <ele>55</ele>
        <time>2021-10-09T12:39:24.000Z</time>
      </trkpt>
      <trkpt lat="47.25547" lon="-1.44454">
        <ele>54</ele>
        <time>2021-10-09T12:39:26.000Z</time>
      </trkpt>
      <trkpt lat="47.25537" lon="-1.4447">
        <ele>54</ele>
        <time>2021-10-09T12:39:28.000Z</time>
      </trkpt>
      <trkpt lat="47.25527" lon="-1.44485">
        <ele>54</ele>
        <time>2021-10-09T12:39:30.000Z</time>
      </trkpt>
      <trkpt lat="47.25517" lon="-1.44502">
        <ele>53</ele>
        <time>2021-10-09T12:39:32.000Z</time>
      </trkpt>
      <trkpt lat="47.25507" lon="-1.44517">
        <ele>52</ele>
        <time>2021-10-09T12:39:34.000Z</time>
      </trkpt>
      <trkpt lat="47.25498" lon="-1.44533">
        <ele>52</ele>
        <time>2021-10-09T12:39:36.000Z</time>
      </trkpt>
      <trkpt lat="47.25487" lon="-1.44549">
        <ele>52</ele>
        <time>2021-10-09T12:39:38.000Z</time>
      </trkpt>
      <trkpt lat="47.25476" lon="-1.44563">
        <ele>53</ele>
        <time>2021-10-09T12:39:40.000Z</time>
      </trkpt>
      <trkpt lat="47.25467" lon="-1.44577">
        <ele>53</ele>
        <time>2021-10-09T12:39:42.000Z</time>
      </trkpt>
      <trkpt lat="47.25457" lon="-1.44592">
        <ele>53</ele>
        <time>2021-10-09T12:39:44.000Z</time>
      </trkpt>
      <trkpt lat="47.25448" lon="-1.44605">
        <ele>53</ele>
        <time>2021-10-09T12:39:46.000Z</time>
      </trkpt>
      <trkpt lat="47.25438" lon="-1.44619">
        <ele>53</ele>
        <time>2021-10-09T12:39:48.000Z</time>
      </trkpt>
      <trkpt lat="47.25427" lon="-1.44632">
        <ele>53</ele>
        <time>2021-10-09T12:39:50.000Z</time>
      </trkpt>
      <trkpt lat="47.25416" lon="-1.44646">
        <ele>52</ele>
        <time>2021-10-09T12:39:52.000Z</time>
      </trkpt>
      <trkpt lat="47.25405" lon="-1.44661">
        <ele>52</ele>
        <time>2021-10-09T12:39:54.000Z</time>
      </trkpt>
      <trkpt lat="47.25395" lon="-1.44675">
        <ele>52</ele>
        <time>2021-10-09T12:39:56.000Z</time>
      </trkpt>
      <trkpt lat="47.25384" lon="-1.4469">
        <ele>53</ele>
        <time>2021-10-09T12:39:58.000Z</time>
      </trkpt>
      <trkpt lat="47.25374" lon="-1.44702">
        <ele>53</ele>
        <time>2021-10-09T12:40:00.000Z</time>
      </trkpt>
      <trkpt lat="47.25364" lon="-1.44712">
        <ele>52</ele>
        <time>2021-10-09T12:40:02.000Z</time>
      </trkpt>
      <trkpt lat="47.25354" lon="-1.44723">
        <ele>52</ele>
        <time>2021-10-09T12:40:04.000Z</time>
      </trkpt>
      <trkpt lat="47.25342" lon="-1.44735">
        <ele>52</ele>
        <time>2021-10-09T12:40:06.000Z</time>
      </trkpt>
      <trkpt lat="47.25331" lon="-1.44747">
        <ele>53</ele>
        <time>2021-10-09T12:40:08.000Z</time>
      </trkpt>
      <trkpt lat="47.25319" lon="-1.44758">
        <ele>54</ele>
        <time>2021-10-09T12:40:10.000Z</time>
      </trkpt>
      <trkpt lat="47.25307" lon="-1.4477">
        <ele>54</ele>
        <time>2021-10-09T12:40:12.000Z</time>
      </trkpt>
      <trkpt lat="47.25296" lon="-1.44782">
        <ele>54</ele>
        <time>2021-10-09T12:40:14.000Z</time>
      </trkpt>
      <trkpt lat="47.25284" lon="-1.44793">
        <ele>54</ele>
        <time>2021-10-09T12:40:16.000Z</time>
      </trkpt>
      <trkpt lat="47.25275" lon="-1.44807">
        <ele>53</ele>
        <time>2021-10-09T12:40:18.000Z</time>
      </trkpt>
      <trkpt lat="47.25265" lon="-1.44821">
        <ele>54</ele>
        <time>2021-10-09T12:40:20.000Z</time>
      </trkpt>
      <trkpt lat="47.25254" lon="-1.44833">
        <ele>54</ele>
        <time>2021-10-09T12:40:22.000Z</time>
      </trkpt>
      <trkpt lat="47.25241" lon="-1.44843">
        <ele>53</ele>
        <time>2021-10-09T12:40:24.000Z</time>
      </trkpt>
      <trkpt lat="47.25231" lon="-1.44855">
        <ele>52</ele>
        <time>2021-10-09T12:40:26.000Z</time>
      </trkpt>
      <trkpt lat="47.25219" lon="-1.44865">
        <ele>53</ele>
        <time>2021-10-09T12:40:28.000Z</time>
      </trkpt>
      <trkpt lat="47.25207" lon="-1.44876">
        <ele>53</ele>
        <time>2021-10-09T12:40:30.000Z</time>
      </trkpt>
      <trkpt lat="47.25194" lon="-1.44887">
        <ele>53</ele>
        <time>2021-10-09T12:40:32.000Z</time>
      </trkpt>
      <trkpt lat="47.25181" lon="-1.44897">
        <ele>54</ele>
        <time>2021-10-09T12:40:34.000Z</time>
      </trkpt>
      <trkpt lat="47.25168" lon="-1.44908">
        <ele>55</ele>
        <time>2021-10-09T12:40:36.000Z</time>
      </trkpt>
      <trkpt lat="47.25155" lon="-1.4492">
        <ele>56</ele>
        <time>2021-10-09T12:40:38.000Z</time>
      </trkpt>
      <trkpt lat="47.25143" lon="-1.44932">
        <ele>56</ele>
        <time>2021-10-09T12:40:40.000Z</time>
      </trkpt>
      <trkpt lat="47.25131" lon="-1.44944">
        <ele>56</ele>
        <time>2021-10-09T12:40:42.000Z</time>
      </trkpt>
      <trkpt lat="47.25119" lon="-1.44953">
        <ele>56</ele>
        <time>2021-10-09T12:40:44.000Z</time>
      </trkpt>
      <trkpt lat="47.25106" lon="-1.44963">
        <ele>56</ele>
        <time>2021-10-09T12:40:46.000Z</time>
      </trkpt>
      <trkpt lat="47.25094" lon="-1.44974">
        <ele>56</ele>
        <time>2021-10-09T12:40:48.000Z</time>
      </trkpt>
      <trkpt lat="47.25081" lon="-1.44984">
        <ele>56</ele>
        <time>2021-10-09T12:40:50.000Z</time>
      </trkpt>
      <trkpt lat="47.25069" lon="-1.44994">
        <ele>55</ele>
        <time>2021-10-09T12:40:52.000Z</time>
      </trkpt>
      <trkpt lat="47.25057" lon="-1.45004">
        <ele>54</ele>
        <time>2021-10-09T12:40:54.000Z</time>
      </trkpt>
      <trkpt lat="47.25045" lon="-1.45011">
        <ele>54</ele>
        <time>2021-10-09T12:40:56.000Z</time>
      </trkpt>
      <trkpt lat="47.25033" lon="-1.4502">
        <ele>52</ele>
        <time>2021-10-09T12:40:58.000Z</time>
      </trkpt>
      <trkpt lat="47.25022" lon="-1.4503">
        <ele>54</ele>
        <time>2021-10-09T12:41:00.000Z</time>
      </trkpt>
      <trkpt lat="47.25011" lon="-1.45042">
        <ele>54</ele>
        <time>2021-10-09T12:41:02.000Z</time>
      </trkpt>
      <trkpt lat="47.25" lon="-1.45054">
        <ele>55</ele>
        <time>2021-10-09T12:41:04.000Z</time>
      </trkpt>
      <trkpt lat="47.24988" lon="-1.45067">
        <ele>56</ele>
        <time>2021-10-09T12:41:06.000Z</time>
      </trkpt>
      <trkpt lat="47.24977" lon="-1.45078">
        <ele>56</ele>
        <time>2021-10-09T12:41:08.000Z</time>
      </trkpt>
      <trkpt lat="47.24965" lon="-1.4509">
        <ele>57</ele>
        <time>2021-10-09T12:41:10.000Z</time>
      </trkpt>
      <trkpt lat="47.24954" lon="-1.45102">
        <ele>58</ele>
        <time>2021-10-09T12:41:12.000Z</time>
      </trkpt>
      <trkpt lat="47.24943" lon="-1.45116">
        <ele>57</ele>
        <time>2021-10-09T12:41:14.000Z</time>
      </trkpt>
      <trkpt lat="47.24933" lon="-1.45128">
        <ele>57</ele>
        <time>2021-10-09T12:41:16.000Z</time>
      </trkpt>
      <trkpt lat="47.24923" lon="-1.4514">
        <ele>56</ele>
        <time>2021-10-09T12:41:18.000Z</time>
      </trkpt>
      <trkpt lat="47.24912" lon="-1.45152">
        <ele>55</ele>
        <time>2021-10-09T12:41:20.000Z</time>
      </trkpt>
      <trkpt lat="47.24901" lon="-1.45164">
        <ele>55</ele>
        <time>2021-10-09T12:41:22.000Z</time>
      </trkpt>
      <trkpt lat="47.24892" lon="-1.45177">
        <ele>56</ele>
        <time>2021-10-09T12:41:24.000Z</time>
      </trkpt>
      <trkpt lat="47.24883" lon="-1.45192">
        <ele>57</ele>
        <time>2021-10-09T12:41:26.000Z</time>
      </trkpt>
      <trkpt lat="47.24872" lon="-1.45206">
        <ele>56</ele>
        <time>2021-10-09T12:41:28.000Z</time>
      </trkpt>
      <trkpt lat="47.24862" lon="-1.45217">
        <ele>56</ele>
        <time>2021-10-09T12:41:30.000Z</time>
      </trkpt>
      <trkpt lat="47.24852" lon="-1.4523">
        <ele>56</ele>
        <time>2021-10-09T12:41:32.000Z</time>
      </trkpt>
      <trkpt lat="47.24843" lon="-1.45243">
        <ele>56</ele>
        <time>2021-10-09T12:41:34.000Z</time>
      </trkpt>
      <trkpt lat="47.24834" lon="-1.45256">
        <ele>56</ele>
        <time>2021-10-09T12:41:36.000Z</time>
      </trkpt>
      <trkpt lat="47.24825" lon="-1.4527">
        <ele>55</ele>
        <time>2021-10-09T12:41:38.000Z</time>
      </trkpt>
      <trkpt lat="47.24817" lon="-1.45285">
        <ele>55</ele>
        <time>2021-10-09T12:41:40.000Z</time>
      </trkpt>
      <trkpt lat="47.24809" lon="-1.453">
        <ele>57</ele>
        <time>2021-10-09T12:41:42.000Z</time>
      </trkpt>
      <trkpt lat="47.24801" lon="-1.45316">
        <ele>57</ele>
        <time>2021-10-09T12:41:44.000Z</time>
      </trkpt>
      <trkpt lat="47.24794" lon="-1.45331">
        <ele>57</ele>
        <time>2021-10-09T12:41:46.000Z</time>
      </trkpt>
      <trkpt lat="47.24787" lon="-1.45347">
        <ele>58</ele>
        <time>2021-10-09T12:41:48.000Z</time>
      </trkpt>
      <trkpt lat="47.24779" lon="-1.45368">
        <ele>60</ele>
        <time>2021-10-09T12:41:50.000Z</time>
      </trkpt>
      <trkpt lat="47.24773" lon="-1.45388">
        <ele>61</ele>
        <time>2021-10-09T12:41:52.000Z</time>
      </trkpt>
      <trkpt lat="47.24766" lon="-1.45406">
        <ele>62</ele>
        <time>2021-10-09T12:41:54.000Z</time>
      </trkpt>
      <trkpt lat="47.24758" lon="-1.45423">
        <ele>62</ele>
        <time>2021-10-09T12:41:56.000Z</time>
      </trkpt>
      <trkpt lat="47.24752" lon="-1.45441">
        <ele>61</ele>
        <time>2021-10-09T12:41:58.000Z</time>
      </trkpt>
      <trkpt lat="47.24746" lon="-1.45459">
        <ele>61</ele>
        <time>2021-10-09T12:42:00.000Z</time>
      </trkpt>
      <trkpt lat="47.2474" lon="-1.45477">
        <ele>61</ele>
        <time>2021-10-09T12:42:02.000Z</time>
      </trkpt>
      <trkpt lat="47.24733" lon="-1.45495">
        <ele>60</ele>
        <time>2021-10-09T12:42:04.000Z</time>
      </trkpt>
      <trkpt lat="47.24726" lon="-1.45514">
        <ele>59</ele>
        <time>2021-10-09T12:42:06.000Z</time>
      </trkpt>
      <trkpt lat="47.2472" lon="-1.45534">
        <ele>58</ele>
        <time>2021-10-09T12:42:08.000Z</time>
      </trkpt>
      <trkpt lat="47.24713" lon="-1.45552">
        <ele>58</ele>
        <time>2021-10-09T12:42:10.000Z</time>
      </trkpt>
      <trkpt lat="47.24708" lon="-1.45571">
        <ele>58</ele>
        <time>2021-10-09T12:42:12.000Z</time>
      </trkpt>
      <trkpt lat="47.24702" lon="-1.45588">
        <ele>58</ele>
        <time>2021-10-09T12:42:14.000Z</time>
      </trkpt>
      <trkpt lat="47.24696" lon="-1.45605">
        <ele>58</ele>
        <time>2021-10-09T12:42:16.000Z</time>
      </trkpt>
      <trkpt lat="47.24691" lon="-1.45622">
        <ele>58</ele>
        <time>2021-10-09T12:42:18.000Z</time>
      </trkpt>
      <trkpt lat="47.24685" lon="-1.4564">
        <ele>57</ele>
        <time>2021-10-09T12:42:20.000Z</time>
      </trkpt>
      <trkpt lat="47.2468" lon="-1.45655">
        <ele>58</ele>
        <time>2021-10-09T12:42:22.000Z</time>
      </trkpt>
      <trkpt lat="47.24676" lon="-1.45668">
        <ele>58</ele>
        <time>2021-10-09T12:42:24.000Z</time>
      </trkpt>
      <trkpt lat="47.24671" lon="-1.45684">
        <ele>59</ele>
        <time>2021-10-09T12:42:26.000Z</time>
      </trkpt>
      <trkpt lat="47.24666" lon="-1.45702">
        <ele>59</ele>
        <time>2021-10-09T12:42:28.000Z</time>
      </trkpt>
      <trkpt lat="47.24662" lon="-1.4572">
        <ele>59</ele>
        <time>2021-10-09T12:42:30.000Z</time>
      </trkpt>
      <trkpt lat="47.24658" lon="-1.45738">
        <ele>59</ele>
        <time>2021-10-09T12:42:32.000Z</time>
      </trkpt>
      <trkpt lat="47.24653" lon="-1.45755">
        <ele>60</ele>
        <time>2021-10-09T12:42:34.000Z</time>
      </trkpt>
      <trkpt lat="47.24648" lon="-1.45772">
        <ele>59</ele>
        <time>2021-10-09T12:42:36.000Z</time>
      </trkpt>
      <trkpt lat="47.24642" lon="-1.45787">
        <ele>59</ele>
        <time>2021-10-09T12:42:38.000Z</time>
      </trkpt>
      <trkpt lat="47.24637" lon="-1.45802">
        <ele>59</ele>
        <time>2021-10-09T12:42:40.000Z</time>
      </trkpt>
      <trkpt lat="47.24631" lon="-1.45819">
        <ele>59</ele>
        <time>2021-10-09T12:42:42.000Z</time>
      </trkpt>
      <trkpt lat="47.24628" lon="-1.45836">
        <ele>60</ele>
        <time>2021-10-09T12:42:44.000Z</time>
      </trkpt>
      <trkpt lat="47.24625" lon="-1.45852">
        <ele>61</ele>
        <time>2021-10-09T12:42:46.000Z</time>
      </trkpt>
      <trkpt lat="47.24621" lon="-1.45869">
        <ele>62</ele>
        <time>2021-10-09T12:42:48.000Z</time>
      </trkpt>
      <trkpt lat="47.24616" lon="-1.45884">
        <ele>63</ele>
        <time>2021-10-09T12:42:50.000Z</time>
      </trkpt>
      <trkpt lat="47.2461" lon="-1.45901">
        <ele>63</ele>
        <time>2021-10-09T12:42:52.000Z</time>
      </trkpt>
      <trkpt lat="47.24603" lon="-1.45917">
        <ele>64</ele>
        <time>2021-10-09T12:42:54.000Z</time>
      </trkpt>
      <trkpt lat="47.24595" lon="-1.45934">
        <ele>63</ele>
        <time>2021-10-09T12:42:56.000Z</time>
      </trkpt>
      <trkpt lat="47.24587" lon="-1.45951">
        <ele>63</ele>
        <time>2021-10-09T12:42:58.000Z</time>
      </trkpt>
      <trkpt lat="47.24581" lon="-1.45967">
        <ele>63</ele>
        <time>2021-10-09T12:43:00.000Z</time>
      </trkpt>
      <trkpt lat="47.24574" lon="-1.45983">
        <ele>63</ele>
        <time>2021-10-09T12:43:02.000Z</time>
      </trkpt>
      <trkpt lat="47.24568" lon="-1.46">
        <ele>62</ele>
        <time>2021-10-09T12:43:04.000Z</time>
      </trkpt>
      <trkpt lat="47.2456" lon="-1.46016">
        <ele>61</ele>
        <time>2021-10-09T12:43:06.000Z</time>
      </trkpt>
      <trkpt lat="47.24552" lon="-1.46032">
        <ele>61</ele>
        <time>2021-10-09T12:43:08.000Z</time>
      </trkpt>
      <trkpt lat="47.24544" lon="-1.46049">
        <ele>61</ele>
        <time>2021-10-09T12:43:10.000Z</time>
      </trkpt>
      <trkpt lat="47.24536" lon="-1.46066">
        <ele>61</ele>
        <time>2021-10-09T12:43:12.000Z</time>
      </trkpt>
      <trkpt lat="47.24527" lon="-1.46081">
        <ele>61</ele>
        <time>2021-10-09T12:43:14.000Z</time>
      </trkpt>
      <trkpt lat="47.24517" lon="-1.46097">
        <ele>61</ele>
        <time>2021-10-09T12:43:16.000Z</time>
      </trkpt>
      <trkpt lat="47.24507" lon="-1.46111">
        <ele>59</ele>
        <time>2021-10-09T12:43:18.000Z</time>
      </trkpt>
      <trkpt lat="47.24497" lon="-1.46122">
        <ele>58</ele>
        <time>2021-10-09T12:43:20.000Z</time>
      </trkpt>
      <trkpt lat="47.24487" lon="-1.46137">
        <ele>58</ele>
        <time>2021-10-09T12:43:22.000Z</time>
      </trkpt>
      <trkpt lat="47.24475" lon="-1.46152">
        <ele>57</ele>
        <time>2021-10-09T12:43:24.000Z</time>
      </trkpt>
      <trkpt lat="47.24465" lon="-1.46165">
        <ele>58</ele>
        <time>2021-10-09T12:43:26.000Z</time>
      </trkpt>
      <trkpt lat="47.24455" lon="-1.46176">
        <ele>58</ele>
        <time>2021-10-09T12:43:28.000Z</time>
      </trkpt>
      <trkpt lat="47.24445" lon="-1.46189">
        <ele>57</ele>
        <time>2021-10-09T12:43:30.000Z</time>
      </trkpt>
      <trkpt lat="47.24434" lon="-1.46203">
        <ele>57</ele>
        <time>2021-10-09T12:43:32.000Z</time>
      </trkpt>
      <trkpt lat="47.24426" lon="-1.46215">
        <ele>56</ele>
        <time>2021-10-09T12:43:34.000Z</time>
      </trkpt>
      <trkpt lat="47.24418" lon="-1.46228">
        <ele>56</ele>
        <time>2021-10-09T12:43:36.000Z</time>
      </trkpt>
      <trkpt lat="47.24409" lon="-1.46241">
        <ele>57</ele>
        <time>2021-10-09T12:43:38.000Z</time>
      </trkpt>
      <trkpt lat="47.244" lon="-1.46252">
        <ele>56</ele>
        <time>2021-10-09T12:43:40.000Z</time>
      </trkpt>
      <trkpt lat="47.24391" lon="-1.46264">
        <ele>56</ele>
        <time>2021-10-09T12:43:42.000Z</time>
      </trkpt>
      <trkpt lat="47.24382" lon="-1.46277">
        <ele>57</ele>
        <time>2021-10-09T12:43:44.000Z</time>
      </trkpt>
      <trkpt lat="47.24373" lon="-1.4629">
        <ele>58</ele>
        <time>2021-10-09T12:43:46.000Z</time>
      </trkpt>
      <trkpt lat="47.24364" lon="-1.46305">
        <ele>58</ele>
        <time>2021-10-09T12:43:48.000Z</time>
      </trkpt>
      <trkpt lat="47.24354" lon="-1.46318">
        <ele>58</ele>
        <time>2021-10-09T12:43:50.000Z</time>
      </trkpt>
      <trkpt lat="47.24344" lon="-1.46332">
        <ele>58</ele>
        <time>2021-10-09T12:43:52.000Z</time>
      </trkpt>
      <trkpt lat="47.24335" lon="-1.46348">
        <ele>58</ele>
        <time>2021-10-09T12:43:54.000Z</time>
      </trkpt>
      <trkpt lat="47.24325" lon="-1.46363">
        <ele>58</ele>
        <time>2021-10-09T12:43:56.000Z</time>
      </trkpt>
      <trkpt lat="47.24317" lon="-1.46378">
        <ele>58</ele>
        <time>2021-10-09T12:43:58.000Z</time>
      </trkpt>
      <trkpt lat="47.24307" lon="-1.46393">
        <ele>58</ele>
        <time>2021-10-09T12:44:00.000Z</time>
      </trkpt>
      <trkpt lat="47.24298" lon="-1.46408">
        <ele>58</ele>
        <time>2021-10-09T12:44:02.000Z</time>
      </trkpt>
      <trkpt lat="47.2429" lon="-1.46426">
        <ele>57</ele>
        <time>2021-10-09T12:44:04.000Z</time>
      </trkpt>
      <trkpt lat="47.24282" lon="-1.46442">
        <ele>57</ele>
        <time>2021-10-09T12:44:06.000Z</time>
      </trkpt>
      <trkpt lat="47.24273" lon="-1.46456">
        <ele>57</ele>
        <time>2021-10-09T12:44:08.000Z</time>
      </trkpt>
      <trkpt lat="47.24263" lon="-1.46467">
        <ele>57</ele>
        <time>2021-10-09T12:44:10.000Z</time>
      </trkpt>
      <trkpt lat="47.24255" lon="-1.46478">
        <ele>57</ele>
        <time>2021-10-09T12:44:12.000Z</time>
      </trkpt>
      <trkpt lat="47.24245" lon="-1.4649">
        <ele>57</ele>
        <time>2021-10-09T12:44:14.000Z</time>
      </trkpt>
      <trkpt lat="47.24236" lon="-1.46503">
        <ele>57</ele>
        <time>2021-10-09T12:44:16.000Z</time>
      </trkpt>
      <trkpt lat="47.24225" lon="-1.46516">
        <ele>57</ele>
        <time>2021-10-09T12:44:18.000Z</time>
      </trkpt>
      <trkpt lat="47.24215" lon="-1.4653">
        <ele>57</ele>
        <time>2021-10-09T12:44:20.000Z</time>
      </trkpt>
      <trkpt lat="47.24203" lon="-1.46543">
        <ele>57</ele>
        <time>2021-10-09T12:44:22.000Z</time>
      </trkpt>
      <trkpt lat="47.24193" lon="-1.46557">
        <ele>56</ele>
        <time>2021-10-09T12:44:24.000Z</time>
      </trkpt>
      <trkpt lat="47.24183" lon="-1.46569">
        <ele>57</ele>
        <time>2021-10-09T12:44:26.000Z</time>
      </trkpt>
      <trkpt lat="47.24174" lon="-1.46582">
        <ele>56</ele>
        <time>2021-10-09T12:44:28.000Z</time>
      </trkpt>
      <trkpt lat="47.24164" lon="-1.46594">
        <ele>57</ele>
        <time>2021-10-09T12:44:30.000Z</time>
      </trkpt>
      <trkpt lat="47.24154" lon="-1.46607">
        <ele>57</ele>
        <time>2021-10-09T12:44:32.000Z</time>
      </trkpt>
      <trkpt lat="47.24145" lon="-1.46619">
        <ele>57</ele>
        <time>2021-10-09T12:44:34.000Z</time>
      </trkpt>
      <trkpt lat="47.24131" lon="-1.46638">
        <ele>58</ele>
        <time>2021-10-09T12:44:37.000Z</time>
      </trkpt>
      <trkpt lat="47.24122" lon="-1.46652">
        <ele>57</ele>
        <time>2021-10-09T12:44:39.000Z</time>
      </trkpt>
      <trkpt lat="47.24112" lon="-1.46664">
        <ele>57</ele>
        <time>2021-10-09T12:44:41.000Z</time>
      </trkpt>
      <trkpt lat="47.24102" lon="-1.46676">
        <ele>57</ele>
        <time>2021-10-09T12:44:43.000Z</time>
      </trkpt>
      <trkpt lat="47.24093" lon="-1.46689">
        <ele>58</ele>
        <time>2021-10-09T12:44:45.000Z</time>
      </trkpt>
      <trkpt lat="47.24085" lon="-1.46702">
        <ele>58</ele>
        <time>2021-10-09T12:44:47.000Z</time>
      </trkpt>
      <trkpt lat="47.24079" lon="-1.46718">
        <ele>58</ele>
        <time>2021-10-09T12:44:49.000Z</time>
      </trkpt>
      <trkpt lat="47.24072" lon="-1.46734">
        <ele>58</ele>
        <time>2021-10-09T12:44:51.000Z</time>
      </trkpt>
      <trkpt lat="47.24061" lon="-1.46743">
        <ele>57</ele>
        <time>2021-10-09T12:44:53.000Z</time>
      </trkpt>
      <trkpt lat="47.24049" lon="-1.46751">
        <ele>57</ele>
        <time>2021-10-09T12:44:55.000Z</time>
      </trkpt>
      <trkpt lat="47.24038" lon="-1.46762">
        <ele>56</ele>
        <time>2021-10-09T12:44:57.000Z</time>
      </trkpt>
      <trkpt lat="47.24028" lon="-1.46774">
        <ele>55</ele>
        <time>2021-10-09T12:44:59.000Z</time>
      </trkpt>
      <trkpt lat="47.24018" lon="-1.46785">
        <ele>55</ele>
        <time>2021-10-09T12:45:01.000Z</time>
      </trkpt>
      <trkpt lat="47.24009" lon="-1.46796">
        <ele>56</ele>
        <time>2021-10-09T12:45:03.000Z</time>
      </trkpt>
      <trkpt lat="47.23994" lon="-1.46811">
        <ele>56</ele>
        <time>2021-10-09T12:45:06.000Z</time>
      </trkpt>
      <trkpt lat="47.23984" lon="-1.46822">
        <ele>56</ele>
        <time>2021-10-09T12:45:08.000Z</time>
      </trkpt>
      <trkpt lat="47.23972" lon="-1.46832">
        <ele>56</ele>
        <time>2021-10-09T12:45:10.000Z</time>
      </trkpt>
      <trkpt lat="47.23957" lon="-1.46848">
        <ele>56</ele>
        <time>2021-10-09T12:45:13.000Z</time>
      </trkpt>
      <trkpt lat="47.23941" lon="-1.46863">
        <ele>56</ele>
        <time>2021-10-09T12:45:16.000Z</time>
      </trkpt>
      <trkpt lat="47.23932" lon="-1.46873">
        <ele>56</ele>
        <time>2021-10-09T12:45:18.000Z</time>
      </trkpt>
      <trkpt lat="47.2392" lon="-1.46883">
        <ele>56</ele>
        <time>2021-10-09T12:45:20.000Z</time>
      </trkpt>
      <trkpt lat="47.2391" lon="-1.46895">
        <ele>56</ele>
        <time>2021-10-09T12:45:22.000Z</time>
      </trkpt>
      <trkpt lat="47.239" lon="-1.46908">
        <ele>56</ele>
        <time>2021-10-09T12:45:24.000Z</time>
      </trkpt>
      <trkpt lat="47.23891" lon="-1.46921">
        <ele>56</ele>
        <time>2021-10-09T12:45:26.000Z</time>
      </trkpt>
      <trkpt lat="47.23882" lon="-1.46934">
        <ele>55</ele>
        <time>2021-10-09T12:45:28.000Z</time>
      </trkpt>
      <trkpt lat="47.23867" lon="-1.46952">
        <ele>54</ele>
        <time>2021-10-09T12:45:31.000Z</time>
      </trkpt>
      <trkpt lat="47.23851" lon="-1.46972">
        <ele>54</ele>
        <time>2021-10-09T12:45:34.000Z</time>
      </trkpt>
      <trkpt lat="47.23841" lon="-1.46986">
        <ele>54</ele>
        <time>2021-10-09T12:45:36.000Z</time>
      </trkpt>
      <trkpt lat="47.23831" lon="-1.46999">
        <ele>54</ele>
        <time>2021-10-09T12:45:38.000Z</time>
      </trkpt>
      <trkpt lat="47.23822" lon="-1.47014">
        <ele>54</ele>
        <time>2021-10-09T12:45:40.000Z</time>
      </trkpt>
      <trkpt lat="47.23813" lon="-1.4703">
        <ele>53</ele>
        <time>2021-10-09T12:45:42.000Z</time>
      </trkpt>
      <trkpt lat="47.23802" lon="-1.47045">
        <ele>53</ele>
        <time>2021-10-09T12:45:44.000Z</time>
      </trkpt>
      <trkpt lat="47.23792" lon="-1.47059">
        <ele>53</ele>
        <time>2021-10-09T12:45:46.000Z</time>
      </trkpt>
      <trkpt lat="47.23782" lon="-1.47072">
        <ele>53</ele>
        <time>2021-10-09T12:45:48.000Z</time>
      </trkpt>
      <trkpt lat="47.23772" lon="-1.47086">
        <ele>52</ele>
        <time>2021-10-09T12:45:50.000Z</time>
      </trkpt>
      <trkpt lat="47.23762" lon="-1.47101">
        <ele>52</ele>
        <time>2021-10-09T12:45:52.000Z</time>
      </trkpt>
      <trkpt lat="47.23752" lon="-1.47115">
        <ele>51</ele>
        <time>2021-10-09T12:45:54.000Z</time>
      </trkpt>
      <trkpt lat="47.23741" lon="-1.47129">
        <ele>51</ele>
        <time>2021-10-09T12:45:56.000Z</time>
      </trkpt>
      <trkpt lat="47.2373" lon="-1.47141">
        <ele>51</ele>
        <time>2021-10-09T12:45:58.000Z</time>
      </trkpt>
      <trkpt lat="47.23719" lon="-1.47154">
        <ele>51</ele>
        <time>2021-10-09T12:46:00.000Z</time>
      </trkpt>
      <trkpt lat="47.23708" lon="-1.47166">
        <ele>51</ele>
        <time>2021-10-09T12:46:02.000Z</time>
      </trkpt>
      <trkpt lat="47.23697" lon="-1.47177">
        <ele>52</ele>
        <time>2021-10-09T12:46:04.000Z</time>
      </trkpt>
      <trkpt lat="47.23688" lon="-1.47193">
        <ele>53</ele>
        <time>2021-10-09T12:46:06.000Z</time>
      </trkpt>
      <trkpt lat="47.23679" lon="-1.4721">
        <ele>52</ele>
        <time>2021-10-09T12:46:08.000Z</time>
      </trkpt>
      <trkpt lat="47.2367" lon="-1.47227">
        <ele>51</ele>
        <time>2021-10-09T12:46:10.000Z</time>
      </trkpt>
      <trkpt lat="47.23659" lon="-1.4724">
        <ele>51</ele>
        <time>2021-10-09T12:46:12.000Z</time>
      </trkpt>
      <trkpt lat="47.23648" lon="-1.47252">
        <ele>51</ele>
        <time>2021-10-09T12:46:14.000Z</time>
      </trkpt>
      <trkpt lat="47.23637" lon="-1.47264">
        <ele>52</ele>
        <time>2021-10-09T12:46:16.000Z</time>
      </trkpt>
      <trkpt lat="47.23626" lon="-1.47276">
        <ele>51</ele>
        <time>2021-10-09T12:46:18.000Z</time>
      </trkpt>
      <trkpt lat="47.23614" lon="-1.47289">
        <ele>50</ele>
        <time>2021-10-09T12:46:20.000Z</time>
      </trkpt>
      <trkpt lat="47.23603" lon="-1.473">
        <ele>50</ele>
        <time>2021-10-09T12:46:22.000Z</time>
      </trkpt>
      <trkpt lat="47.23592" lon="-1.47311">
        <ele>51</ele>
        <time>2021-10-09T12:46:24.000Z</time>
      </trkpt>
      <trkpt lat="47.23581" lon="-1.47322">
        <ele>51</ele>
        <time>2021-10-09T12:46:26.000Z</time>
      </trkpt>
      <trkpt lat="47.23569" lon="-1.47332">
        <ele>51</ele>
        <time>2021-10-09T12:46:28.000Z</time>
      </trkpt>
      <trkpt lat="47.23558" lon="-1.47342">
        <ele>51</ele>
        <time>2021-10-09T12:46:30.000Z</time>
      </trkpt>
      <trkpt lat="47.23546" lon="-1.47352">
        <ele>51</ele>
        <time>2021-10-09T12:46:32.000Z</time>
      </trkpt>
      <trkpt lat="47.23534" lon="-1.47362">
        <ele>51</ele>
        <time>2021-10-09T12:46:34.000Z</time>
      </trkpt>
      <trkpt lat="47.23522" lon="-1.47371">
        <ele>52</ele>
        <time>2021-10-09T12:46:36.000Z</time>
      </trkpt>
      <trkpt lat="47.23511" lon="-1.47381">
        <ele>51</ele>
        <time>2021-10-09T12:46:38.000Z</time>
      </trkpt>
      <trkpt lat="47.235" lon="-1.47389">
        <ele>51</ele>
        <time>2021-10-09T12:46:40.000Z</time>
      </trkpt>
      <trkpt lat="47.23488" lon="-1.47397">
        <ele>51</ele>
        <time>2021-10-09T12:46:42.000Z</time>
      </trkpt>
      <trkpt lat="47.23475" lon="-1.47403">
        <ele>51</ele>
        <time>2021-10-09T12:46:44.000Z</time>
      </trkpt>
      <trkpt lat="47.23463" lon="-1.47409">
        <ele>51</ele>
        <time>2021-10-09T12:46:46.000Z</time>
      </trkpt>
      <trkpt lat="47.2345" lon="-1.47415">
        <ele>51</ele>
        <time>2021-10-09T12:46:48.000Z</time>
      </trkpt>
      <trkpt lat="47.23437" lon="-1.4742">
        <ele>51</ele>
        <time>2021-10-09T12:46:50.000Z</time>
      </trkpt>
      <trkpt lat="47.23425" lon="-1.47426">
        <ele>51</ele>
        <time>2021-10-09T12:46:52.000Z</time>
      </trkpt>
      <trkpt lat="47.23415" lon="-1.47432">
        <ele>52</ele>
        <time>2021-10-09T12:46:54.000Z</time>
      </trkpt>
      <trkpt lat="47.23404" lon="-1.4744">
        <ele>51</ele>
        <time>2021-10-09T12:46:56.000Z</time>
      </trkpt>
      <trkpt lat="47.23391" lon="-1.47449">
        <ele>51</ele>
        <time>2021-10-09T12:46:58.000Z</time>
      </trkpt>
      <trkpt lat="47.23378" lon="-1.47456">
        <ele>52</ele>
        <time>2021-10-09T12:47:00.000Z</time>
      </trkpt>
      <trkpt lat="47.23365" lon="-1.47463">
        <ele>52</ele>
        <time>2021-10-09T12:47:02.000Z</time>
      </trkpt>
      <trkpt lat="47.23352" lon="-1.4747">
        <ele>51</ele>
        <time>2021-10-09T12:47:04.000Z</time>
      </trkpt>
      <trkpt lat="47.23339" lon="-1.47475">
        <ele>51</ele>
        <time>2021-10-09T12:47:06.000Z</time>
      </trkpt>
      <trkpt lat="47.23328" lon="-1.47481">
        <ele>51</ele>
        <time>2021-10-09T12:47:08.000Z</time>
      </trkpt>
      <trkpt lat="47.23319" lon="-1.47487">
        <ele>51</ele>
        <time>2021-10-09T12:47:10.000Z</time>
      </trkpt>
      <trkpt lat="47.23311" lon="-1.47496">
        <ele>52</ele>
        <time>2021-10-09T12:47:12.000Z</time>
      </trkpt>
      <trkpt lat="47.23298" lon="-1.47506">
        <ele>53</ele>
        <time>2021-10-09T12:47:14.000Z</time>
      </trkpt>
      <trkpt lat="47.23284" lon="-1.47514">
        <ele>54</ele>
        <time>2021-10-09T12:47:16.000Z</time>
      </trkpt>
      <trkpt lat="47.23272" lon="-1.47521">
        <ele>55</ele>
        <time>2021-10-09T12:47:18.000Z</time>
      </trkpt>
      <trkpt lat="47.23261" lon="-1.47528">
        <ele>55</ele>
        <time>2021-10-09T12:47:20.000Z</time>
      </trkpt>
      <trkpt lat="47.23253" lon="-1.47543">
        <ele>56</ele>
        <time>2021-10-09T12:47:22.000Z</time>
      </trkpt>
      <trkpt lat="47.23244" lon="-1.47559">
        <ele>56</ele>
        <time>2021-10-09T12:47:24.000Z</time>
      </trkpt>
      <trkpt lat="47.23236" lon="-1.47573">
        <ele>56</ele>
        <time>2021-10-09T12:47:26.000Z</time>
      </trkpt>
      <trkpt lat="47.23228" lon="-1.47585">
        <ele>56</ele>
        <time>2021-10-09T12:47:28.000Z</time>
      </trkpt>
      <trkpt lat="47.23219" lon="-1.476">
        <ele>55</ele>
        <time>2021-10-09T12:47:30.000Z</time>
      </trkpt>
      <trkpt lat="47.23213" lon="-1.47614">
        <ele>55</ele>
        <time>2021-10-09T12:47:32.000Z</time>
      </trkpt>
      <trkpt lat="47.23206" lon="-1.4763">
        <ele>56</ele>
        <time>2021-10-09T12:47:34.000Z</time>
      </trkpt>
      <trkpt lat="47.23201" lon="-1.47645">
        <ele>55</ele>
        <time>2021-10-09T12:47:36.000Z</time>
      </trkpt>
      <trkpt lat="47.23195" lon="-1.4766">
        <ele>55</ele>
        <time>2021-10-09T12:47:38.000Z</time>
      </trkpt>
      <trkpt lat="47.23189" lon="-1.47675">
        <ele>54</ele>
        <time>2021-10-09T12:47:40.000Z</time>
      </trkpt>
      <trkpt lat="47.23182" lon="-1.47691">
        <ele>54</ele>
        <time>2021-10-09T12:47:42.000Z</time>
      </trkpt>
      <trkpt lat="47.23175" lon="-1.47708">
        <ele>55</ele>
        <time>2021-10-09T12:47:44.000Z</time>
      </trkpt>
      <trkpt lat="47.23167" lon="-1.47725">
        <ele>55</ele>
        <time>2021-10-09T12:47:46.000Z</time>
      </trkpt>
      <trkpt lat="47.23159" lon="-1.47743">
        <ele>55</ele>
        <time>2021-10-09T12:47:48.000Z</time>
      </trkpt>
      <trkpt lat="47.23152" lon="-1.4776">
        <ele>55</ele>
        <time>2021-10-09T12:47:50.000Z</time>
      </trkpt>
      <trkpt lat="47.23146" lon="-1.47777">
        <ele>55</ele>
        <time>2021-10-09T12:47:52.000Z</time>
      </trkpt>
      <trkpt lat="47.2314" lon="-1.47791">
        <ele>55</ele>
        <time>2021-10-09T12:47:54.000Z</time>
      </trkpt>
      <trkpt lat="47.23134" lon="-1.47806">
        <ele>55</ele>
        <time>2021-10-09T12:47:56.000Z</time>
      </trkpt>
      <trkpt lat="47.23127" lon="-1.47821">
        <ele>56</ele>
        <time>2021-10-09T12:47:58.000Z</time>
      </trkpt>
      <trkpt lat="47.23121" lon="-1.47837">
        <ele>56</ele>
        <time>2021-10-09T12:48:00.000Z</time>
      </trkpt>
      <trkpt lat="47.23113" lon="-1.47853">
        <ele>56</ele>
        <time>2021-10-09T12:48:02.000Z</time>
      </trkpt>
      <trkpt lat="47.23104" lon="-1.47868">
        <ele>55</ele>
        <time>2021-10-09T12:48:04.000Z</time>
      </trkpt>
      <trkpt lat="47.23096" lon="-1.47883">
        <ele>53</ele>
        <time>2021-10-09T12:48:06.000Z</time>
      </trkpt>
      <trkpt lat="47.23087" lon="-1.47897">
        <ele>53</ele>
        <time>2021-10-09T12:48:08.000Z</time>
      </trkpt>
      <trkpt lat="47.23078" lon="-1.4791">
        <ele>53</ele>
        <time>2021-10-09T12:48:10.000Z</time>
      </trkpt>
      <trkpt lat="47.23068" lon="-1.47921">
        <ele>52</ele>
        <time>2021-10-09T12:48:12.000Z</time>
      </trkpt>
      <trkpt lat="47.23059" lon="-1.47933">
        <ele>52</ele>
        <time>2021-10-09T12:48:14.000Z</time>
      </trkpt>
      <trkpt lat="47.23049" lon="-1.47945">
        <ele>53</ele>
        <time>2021-10-09T12:48:16.000Z</time>
      </trkpt>
      <trkpt lat="47.2304" lon="-1.47957">
        <ele>52</ele>
        <time>2021-10-09T12:48:18.000Z</time>
      </trkpt>
      <trkpt lat="47.2303" lon="-1.47972">
        <ele>52</ele>
        <time>2021-10-09T12:48:20.000Z</time>
      </trkpt>
      <trkpt lat="47.2302" lon="-1.47985">
        <ele>53</ele>
        <time>2021-10-09T12:48:22.000Z</time>
      </trkpt>
      <trkpt lat="47.23011" lon="-1.47999">
        <ele>52</ele>
        <time>2021-10-09T12:48:24.000Z</time>
      </trkpt>
      <trkpt lat="47.23003" lon="-1.48014">
        <ele>52</ele>
        <time>2021-10-09T12:48:26.000Z</time>
      </trkpt>
      <trkpt lat="47.22995" lon="-1.48027">
        <ele>52</ele>
        <time>2021-10-09T12:48:28.000Z</time>
      </trkpt>
      <trkpt lat="47.22986" lon="-1.48042">
        <ele>52</ele>
        <time>2021-10-09T12:48:30.000Z</time>
      </trkpt>
      <trkpt lat="47.22976" lon="-1.48057">
        <ele>52</ele>
        <time>2021-10-09T12:48:32.000Z</time>
      </trkpt>
      <trkpt lat="47.22967" lon="-1.48071">
        <ele>51</ele>
        <time>2021-10-09T12:48:34.000Z</time>
      </trkpt>
      <trkpt lat="47.22959" lon="-1.48084">
        <ele>51</ele>
        <time>2021-10-09T12:48:36.000Z</time>
      </trkpt>
      <trkpt lat="47.22951" lon="-1.48096">
        <ele>52</ele>
        <time>2021-10-09T12:48:38.000Z</time>
      </trkpt>
      <trkpt lat="47.22943" lon="-1.48103">
        <ele>51</ele>
        <time>2021-10-09T12:48:40.000Z</time>
      </trkpt>
      <trkpt lat="47.22931" lon="-1.48105">
        <ele>51</ele>
        <time>2021-10-09T12:48:42.000Z</time>
      </trkpt>
      <trkpt lat="47.22919" lon="-1.4811">
        <ele>52</ele>
        <time>2021-10-09T12:48:44.000Z</time>
      </trkpt>
      <trkpt lat="47.22906" lon="-1.4812">
        <ele>52</ele>
        <time>2021-10-09T12:48:46.000Z</time>
      </trkpt>
      <trkpt lat="47.22895" lon="-1.48133">
        <ele>53</ele>
        <time>2021-10-09T12:48:48.000Z</time>
      </trkpt>
      <trkpt lat="47.22884" lon="-1.48147">
        <ele>52</ele>
        <time>2021-10-09T12:48:50.000Z</time>
      </trkpt>
      <trkpt lat="47.22875" lon="-1.48161">
        <ele>52</ele>
        <time>2021-10-09T12:48:52.000Z</time>
      </trkpt>
      <trkpt lat="47.22866" lon="-1.48174">
        <ele>52</ele>
        <time>2021-10-09T12:48:54.000Z</time>
      </trkpt>
      <trkpt lat="47.22859" lon="-1.48187">
        <ele>52</ele>
        <time>2021-10-09T12:48:56.000Z</time>
      </trkpt>
      <trkpt lat="47.2285" lon="-1.482">
        <ele>52</ele>
        <time>2021-10-09T12:48:58.000Z</time>
      </trkpt>
      <trkpt lat="47.22839" lon="-1.48214">
        <ele>53</ele>
        <time>2021-10-09T12:49:00.000Z</time>
      </trkpt>
      <trkpt lat="47.22829" lon="-1.48229">
        <ele>53</ele>
        <time>2021-10-09T12:49:02.000Z</time>
      </trkpt>
      <trkpt lat="47.2282" lon="-1.48242">
        <ele>53</ele>
        <time>2021-10-09T12:49:04.000Z</time>
      </trkpt>
      <trkpt lat="47.22809" lon="-1.48254">
        <ele>53</ele>
        <time>2021-10-09T12:49:06.000Z</time>
      </trkpt>
      <trkpt lat="47.22799" lon="-1.4827">
        <ele>53</ele>
        <time>2021-10-09T12:49:08.000Z</time>
      </trkpt>
      <trkpt lat="47.22791" lon="-1.48285">
        <ele>54</ele>
        <time>2021-10-09T12:49:10.000Z</time>
      </trkpt>
      <trkpt lat="47.22782" lon="-1.48299">
        <ele>54</ele>
        <time>2021-10-09T12:49:12.000Z</time>
      </trkpt>
      <trkpt lat="47.22773" lon="-1.48313">
        <ele>55</ele>
        <time>2021-10-09T12:49:14.000Z</time>
      </trkpt>
      <trkpt lat="47.22764" lon="-1.48326">
        <ele>55</ele>
        <time>2021-10-09T12:49:16.000Z</time>
      </trkpt>
      <trkpt lat="47.22754" lon="-1.48341">
        <ele>54</ele>
        <time>2021-10-09T12:49:18.000Z</time>
      </trkpt>
      <trkpt lat="47.22744" lon="-1.48354">
        <ele>53</ele>
        <time>2021-10-09T12:49:20.000Z</time>
      </trkpt>
      <trkpt lat="47.22734" lon="-1.48369">
        <ele>53</ele>
        <time>2021-10-09T12:49:22.000Z</time>
      </trkpt>
      <trkpt lat="47.22724" lon="-1.48382">
        <ele>52</ele>
        <time>2021-10-09T12:49:24.000Z</time>
      </trkpt>
      <trkpt lat="47.22713" lon="-1.48392">
        <ele>52</ele>
        <time>2021-10-09T12:49:26.000Z</time>
      </trkpt>
      <trkpt lat="47.22706" lon="-1.4841">
        <ele>53</ele>
        <time>2021-10-09T12:49:28.000Z</time>
      </trkpt>
      <trkpt lat="47.22701" lon="-1.4843">
        <ele>54</ele>
        <time>2021-10-09T12:49:30.000Z</time>
      </trkpt>
      <trkpt lat="47.22694" lon="-1.48449">
        <ele>55</ele>
        <time>2021-10-09T12:49:32.000Z</time>
      </trkpt>
      <trkpt lat="47.22687" lon="-1.48467">
        <ele>55</ele>
        <time>2021-10-09T12:49:34.000Z</time>
      </trkpt>
      <trkpt lat="47.2268" lon="-1.48484">
        <ele>56</ele>
        <time>2021-10-09T12:49:36.000Z</time>
      </trkpt>
      <trkpt lat="47.22673" lon="-1.48499">
        <ele>56</ele>
        <time>2021-10-09T12:49:38.000Z</time>
      </trkpt>
      <trkpt lat="47.22667" lon="-1.48513">
        <ele>56</ele>
        <time>2021-10-09T12:49:40.000Z</time>
      </trkpt>
      <trkpt lat="47.22662" lon="-1.4853">
        <ele>56</ele>
        <time>2021-10-09T12:49:42.000Z</time>
      </trkpt>
      <trkpt lat="47.22657" lon="-1.48549">
        <ele>56</ele>
        <time>2021-10-09T12:49:44.000Z</time>
      </trkpt>
      <trkpt lat="47.22649" lon="-1.48568">
        <ele>56</ele>
        <time>2021-10-09T12:49:46.000Z</time>
      </trkpt>
      <trkpt lat="47.22642" lon="-1.48584">
        <ele>57</ele>
        <time>2021-10-09T12:49:48.000Z</time>
      </trkpt>
      <trkpt lat="47.22635" lon="-1.48599">
        <ele>56</ele>
        <time>2021-10-09T12:49:50.000Z</time>
      </trkpt>
      <trkpt lat="47.22629" lon="-1.48613">
        <ele>56</ele>
        <time>2021-10-09T12:49:52.000Z</time>
      </trkpt>
      <trkpt lat="47.22622" lon="-1.48628">
        <ele>57</ele>
        <time>2021-10-09T12:49:54.000Z</time>
      </trkpt>
      <trkpt lat="47.22615" lon="-1.48646">
        <ele>57</ele>
        <time>2021-10-09T12:49:56.000Z</time>
      </trkpt>
      <trkpt lat="47.22609" lon="-1.48664">
        <ele>57</ele>
        <time>2021-10-09T12:49:58.000Z</time>
      </trkpt>
      <trkpt lat="47.22602" lon="-1.48683">
        <ele>58</ele>
        <time>2021-10-09T12:50:00.000Z</time>
      </trkpt>
      <trkpt lat="47.22596" lon="-1.48701">
        <ele>59</ele>
        <time>2021-10-09T12:50:02.000Z</time>
      </trkpt>
      <trkpt lat="47.22591" lon="-1.4872">
        <ele>60</ele>
        <time>2021-10-09T12:50:04.000Z</time>
      </trkpt>
      <trkpt lat="47.22587" lon="-1.48738">
        <ele>59</ele>
        <time>2021-10-09T12:50:06.000Z</time>
      </trkpt>
      <trkpt lat="47.22583" lon="-1.48755">
        <ele>60</ele>
        <time>2021-10-09T12:50:08.000Z</time>
      </trkpt>
      <trkpt lat="47.22577" lon="-1.48773">
        <ele>59</ele>
        <time>2021-10-09T12:50:10.000Z</time>
      </trkpt>
      <trkpt lat="47.22572" lon="-1.48791">
        <ele>59</ele>
        <time>2021-10-09T12:50:12.000Z</time>
      </trkpt>
      <trkpt lat="47.22565" lon="-1.48807">
        <ele>59</ele>
        <time>2021-10-09T12:50:14.000Z</time>
      </trkpt>
      <trkpt lat="47.2256" lon="-1.48822">
        <ele>59</ele>
        <time>2021-10-09T12:50:16.000Z</time>
      </trkpt>
      <trkpt lat="47.22556" lon="-1.48838">
        <ele>58</ele>
        <time>2021-10-09T12:50:18.000Z</time>
      </trkpt>
      <trkpt lat="47.22553" lon="-1.48856">
        <ele>58</ele>
        <time>2021-10-09T12:50:20.000Z</time>
      </trkpt>
      <trkpt lat="47.22548" lon="-1.4887">
        <ele>58</ele>
        <time>2021-10-09T12:50:22.000Z</time>
      </trkpt>
      <trkpt lat="47.22541" lon="-1.48885">
        <ele>58</ele>
        <time>2021-10-09T12:50:24.000Z</time>
      </trkpt>
      <trkpt lat="47.22534" lon="-1.48901">
        <ele>59</ele>
        <time>2021-10-09T12:50:26.000Z</time>
      </trkpt>
      <trkpt lat="47.22528" lon="-1.48924">
        <ele>59</ele>
        <time>2021-10-09T12:50:28.000Z</time>
      </trkpt>
      <trkpt lat="47.22522" lon="-1.48944">
        <ele>58</ele>
        <time>2021-10-09T12:50:30.000Z</time>
      </trkpt>
      <trkpt lat="47.22516" lon="-1.48962">
        <ele>59</ele>
        <time>2021-10-09T12:50:32.000Z</time>
      </trkpt>
      <trkpt lat="47.2251" lon="-1.4898">
        <ele>59</ele>
        <time>2021-10-09T12:50:34.000Z</time>
      </trkpt>
      <trkpt lat="47.22505" lon="-1.48997">
        <ele>59</ele>
        <time>2021-10-09T12:50:36.000Z</time>
      </trkpt>
      <trkpt lat="47.225" lon="-1.49014">
        <ele>59</ele>
        <time>2021-10-09T12:50:38.000Z</time>
      </trkpt>
      <trkpt lat="47.22494" lon="-1.4903">
        <ele>59</ele>
        <time>2021-10-09T12:50:40.000Z</time>
      </trkpt>
      <trkpt lat="47.22489" lon="-1.49045">
        <ele>60</ele>
        <time>2021-10-09T12:50:42.000Z</time>
      </trkpt>
      <trkpt lat="47.22483" lon="-1.4906">
        <ele>60</ele>
        <time>2021-10-09T12:50:44.000Z</time>
      </trkpt>
      <trkpt lat="47.22477" lon="-1.49075">
        <ele>60</ele>
        <time>2021-10-09T12:50:46.000Z</time>
      </trkpt>
      <trkpt lat="47.22471" lon="-1.49092">
        <ele>62</ele>
        <time>2021-10-09T12:50:48.000Z</time>
      </trkpt>
      <trkpt lat="47.22464" lon="-1.49112">
        <ele>64</ele>
        <time>2021-10-09T12:50:50.000Z</time>
      </trkpt>
      <trkpt lat="47.22458" lon="-1.49132">
        <ele>64</ele>
        <time>2021-10-09T12:50:52.000Z</time>
      </trkpt>
      <trkpt lat="47.2245" lon="-1.49153">
        <ele>64</ele>
        <time>2021-10-09T12:50:54.000Z</time>
      </trkpt>
      <trkpt lat="47.22443" lon="-1.49172">
        <ele>65</ele>
        <time>2021-10-09T12:50:56.000Z</time>
      </trkpt>
      <trkpt lat="47.22437" lon="-1.49191">
        <ele>65</ele>
        <time>2021-10-09T12:50:58.000Z</time>
      </trkpt>
      <trkpt lat="47.22432" lon="-1.4921">
        <ele>65</ele>
        <time>2021-10-09T12:51:00.000Z</time>
      </trkpt>
      <trkpt lat="47.22426" lon="-1.4923">
        <ele>63</ele>
        <time>2021-10-09T12:51:02.000Z</time>
      </trkpt>
      <trkpt lat="47.2242" lon="-1.49247">
        <ele>63</ele>
        <time>2021-10-09T12:51:04.000Z</time>
      </trkpt>
      <trkpt lat="47.22413" lon="-1.49263">
        <ele>62</ele>
        <time>2021-10-09T12:51:06.000Z</time>
      </trkpt>
      <trkpt lat="47.22406" lon="-1.49279">
        <ele>64</ele>
        <time>2021-10-09T12:51:08.000Z</time>
      </trkpt>
      <trkpt lat="47.224" lon="-1.49298">
        <ele>64</ele>
        <time>2021-10-09T12:51:10.000Z</time>
      </trkpt>
      <trkpt lat="47.22393" lon="-1.49317">
        <ele>64</ele>
        <time>2021-10-09T12:51:12.000Z</time>
      </trkpt>
      <trkpt lat="47.22387" lon="-1.49335">
        <ele>63</ele>
        <time>2021-10-09T12:51:14.000Z</time>
      </trkpt>
      <trkpt lat="47.22381" lon="-1.49352">
        <ele>63</ele>
        <time>2021-10-09T12:51:16.000Z</time>
      </trkpt>
      <trkpt lat="47.22375" lon="-1.49368">
        <ele>63</ele>
        <time>2021-10-09T12:51:18.000Z</time>
      </trkpt>
      <trkpt lat="47.22368" lon="-1.49383">
        <ele>62</ele>
        <time>2021-10-09T12:51:20.000Z</time>
      </trkpt>
      <trkpt lat="47.22361" lon="-1.49396">
        <ele>62</ele>
        <time>2021-10-09T12:51:22.000Z</time>
      </trkpt>
      <trkpt lat="47.22354" lon="-1.49412">
        <ele>61</ele>
        <time>2021-10-09T12:51:24.000Z</time>
      </trkpt>
      <trkpt lat="47.22347" lon="-1.49428">
        <ele>60</ele>
        <time>2021-10-09T12:51:26.000Z</time>
      </trkpt>
      <trkpt lat="47.22342" lon="-1.49443">
        <ele>60</ele>
        <time>2021-10-09T12:51:28.000Z</time>
      </trkpt>
      <trkpt lat="47.22338" lon="-1.4946">
        <ele>61</ele>
        <time>2021-10-09T12:51:30.000Z</time>
      </trkpt>
      <trkpt lat="47.22333" lon="-1.49479">
        <ele>62</ele>
        <time>2021-10-09T12:51:32.000Z</time>
      </trkpt>
      <trkpt lat="47.22326" lon="-1.49496">
        <ele>63</ele>
        <time>2021-10-09T12:51:34.000Z</time>
      </trkpt>
      <trkpt lat="47.2232" lon="-1.49515">
        <ele>63</ele>
        <time>2021-10-09T12:51:36.000Z</time>
      </trkpt>
      <trkpt lat="47.22314" lon="-1.49534">
        <ele>63</ele>
        <time>2021-10-09T12:51:38.000Z</time>
      </trkpt>
      <trkpt lat="47.22307" lon="-1.4955">
        <ele>63</ele>
        <time>2021-10-09T12:51:40.000Z</time>
      </trkpt>
      <trkpt lat="47.223" lon="-1.49567">
        <ele>62</ele>
        <time>2021-10-09T12:51:42.000Z</time>
      </trkpt>
      <trkpt lat="47.22294" lon="-1.49582">
        <ele>62</ele>
        <time>2021-10-09T12:51:44.000Z</time>
      </trkpt>
      <trkpt lat="47.22289" lon="-1.49597">
        <ele>63</ele>
        <time>2021-10-09T12:51:46.000Z</time>
      </trkpt>
      <trkpt lat="47.22285" lon="-1.49614">
        <ele>64</ele>
        <time>2021-10-09T12:51:48.000Z</time>
      </trkpt>
      <trkpt lat="47.22281" lon="-1.49633">
        <ele>66</ele>
        <time>2021-10-09T12:51:50.000Z</time>
      </trkpt>
      <trkpt lat="47.22276" lon="-1.4965">
        <ele>67</ele>
        <time>2021-10-09T12:51:52.000Z</time>
      </trkpt>
      <trkpt lat="47.22271" lon="-1.49669">
        <ele>66</ele>
        <time>2021-10-09T12:51:54.000Z</time>
      </trkpt>
      <trkpt lat="47.22266" lon="-1.49687">
        <ele>66</ele>
        <time>2021-10-09T12:51:56.000Z</time>
      </trkpt>
      <trkpt lat="47.22261" lon="-1.49702">
        <ele>66</ele>
        <time>2021-10-09T12:51:58.000Z</time>
      </trkpt>
      <trkpt lat="47.22255" lon="-1.49717">
        <ele>65</ele>
        <time>2021-10-09T12:52:01.000Z</time>
      </trkpt>
      <trkpt lat="47.22252" lon="-1.49731">
        <ele>64</ele>
        <time>2021-10-09T12:52:05.000Z</time>
      </trkpt>
      <trkpt lat="47.22248" lon="-1.49745">
        <ele>63</ele>
        <time>2021-10-09T12:52:17.000Z</time>
      </trkpt>
      <trkpt lat="47.22248" lon="-1.49758">
        <ele>65</ele>
        <time>2021-10-09T12:52:19.000Z</time>
      </trkpt>
      <trkpt lat="47.22246" lon="-1.49775">
        <ele>66</ele>
        <time>2021-10-09T12:52:21.000Z</time>
      </trkpt>
      <trkpt lat="47.22243" lon="-1.49792">
        <ele>67</ele>
        <time>2021-10-09T12:52:23.000Z</time>
      </trkpt>
      <trkpt lat="47.2224" lon="-1.49808">
        <ele>67</ele>
        <time>2021-10-09T12:52:25.000Z</time>
      </trkpt>
      <trkpt lat="47.22235" lon="-1.49826">
        <ele>68</ele>
        <time>2021-10-09T12:52:27.000Z</time>
      </trkpt>
      <trkpt lat="47.2223" lon="-1.49845">
        <ele>67</ele>
        <time>2021-10-09T12:52:29.000Z</time>
      </trkpt>
      <trkpt lat="47.22225" lon="-1.49865">
        <ele>66</ele>
        <time>2021-10-09T12:52:31.000Z</time>
      </trkpt>
      <trkpt lat="47.22221" lon="-1.49883">
        <ele>66</ele>
        <time>2021-10-09T12:52:33.000Z</time>
      </trkpt>
      <trkpt lat="47.22217" lon="-1.499">
        <ele>66</ele>
        <time>2021-10-09T12:52:35.000Z</time>
      </trkpt>
      <trkpt lat="47.22212" lon="-1.49917">
        <ele>67</ele>
        <time>2021-10-09T12:52:37.000Z</time>
      </trkpt>
      <trkpt lat="47.22207" lon="-1.49935">
        <ele>66</ele>
        <time>2021-10-09T12:52:39.000Z</time>
      </trkpt>
      <trkpt lat="47.22202" lon="-1.49952">
        <ele>65</ele>
        <time>2021-10-09T12:52:41.000Z</time>
      </trkpt>
      <trkpt lat="47.22196" lon="-1.49969">
        <ele>64</ele>
        <time>2021-10-09T12:52:43.000Z</time>
      </trkpt>
      <trkpt lat="47.2219" lon="-1.49989">
        <ele>66</ele>
        <time>2021-10-09T12:52:45.000Z</time>
      </trkpt>
      <trkpt lat="47.22185" lon="-1.50012">
        <ele>67</ele>
        <time>2021-10-09T12:52:47.000Z</time>
      </trkpt>
      <trkpt lat="47.22181" lon="-1.50034">
        <ele>66</ele>
        <time>2021-10-09T12:52:49.000Z</time>
      </trkpt>
      <trkpt lat="47.22179" lon="-1.50054">
        <ele>66</ele>
        <time>2021-10-09T12:52:51.000Z</time>
      </trkpt>
      <trkpt lat="47.22175" lon="-1.50073">
        <ele>66</ele>
        <time>2021-10-09T12:52:53.000Z</time>
      </trkpt>
      <trkpt lat="47.2217" lon="-1.5009">
        <ele>66</ele>
        <time>2021-10-09T12:52:55.000Z</time>
      </trkpt>
      <trkpt lat="47.22164" lon="-1.50108">
        <ele>66</ele>
        <time>2021-10-09T12:52:57.000Z</time>
      </trkpt>
      <trkpt lat="47.22157" lon="-1.50127">
        <ele>66</ele>
        <time>2021-10-09T12:52:59.000Z</time>
      </trkpt>
      <trkpt lat="47.22151" lon="-1.50146">
        <ele>66</ele>
        <time>2021-10-09T12:53:01.000Z</time>
      </trkpt>
      <trkpt lat="47.22147" lon="-1.50164">
        <ele>66</ele>
        <time>2021-10-09T12:53:03.000Z</time>
      </trkpt>
      <trkpt lat="47.22143" lon="-1.50183">
        <ele>65</ele>
        <time>2021-10-09T12:53:05.000Z</time>
      </trkpt>
      <trkpt lat="47.2214" lon="-1.50201">
        <ele>65</ele>
        <time>2021-10-09T12:53:07.000Z</time>
      </trkpt>
      <trkpt lat="47.22136" lon="-1.50219">
        <ele>64</ele>
        <time>2021-10-09T12:53:09.000Z</time>
      </trkpt>
      <trkpt lat="47.22131" lon="-1.50236">
        <ele>63</ele>
        <time>2021-10-09T12:53:11.000Z</time>
      </trkpt>
      <trkpt lat="47.22126" lon="-1.50255">
        <ele>62</ele>
        <time>2021-10-09T12:53:13.000Z</time>
      </trkpt>
      <trkpt lat="47.2212" lon="-1.50272">
        <ele>61</ele>
        <time>2021-10-09T12:53:15.000Z</time>
      </trkpt>
      <trkpt lat="47.22112" lon="-1.50287">
        <ele>61</ele>
        <time>2021-10-09T12:53:17.000Z</time>
      </trkpt>
      <trkpt lat="47.22105" lon="-1.50303">
        <ele>60</ele>
        <time>2021-10-09T12:53:19.000Z</time>
      </trkpt>
      <trkpt lat="47.22096" lon="-1.50318">
        <ele>60</ele>
        <time>2021-10-09T12:53:21.000Z</time>
      </trkpt>
      <trkpt lat="47.22089" lon="-1.50333">
        <ele>60</ele>
        <time>2021-10-09T12:53:23.000Z</time>
      </trkpt>
      <trkpt lat="47.22083" lon="-1.50352">
        <ele>60</ele>
        <time>2021-10-09T12:53:25.000Z</time>
      </trkpt>
      <trkpt lat="47.22079" lon="-1.50372">
        <ele>60</ele>
        <time>2021-10-09T12:53:27.000Z</time>
      </trkpt>
      <trkpt lat="47.22075" lon="-1.50391">
        <ele>60</ele>
        <time>2021-10-09T12:53:29.000Z</time>
      </trkpt>
      <trkpt lat="47.22069" lon="-1.50409">
        <ele>61</ele>
        <time>2021-10-09T12:53:31.000Z</time>
      </trkpt>
      <trkpt lat="47.22066" lon="-1.5043">
        <ele>61</ele>
        <time>2021-10-09T12:53:33.000Z</time>
      </trkpt>
      <trkpt lat="47.22062" lon="-1.50449">
        <ele>61</ele>
        <time>2021-10-09T12:53:35.000Z</time>
      </trkpt>
      <trkpt lat="47.22059" lon="-1.50468">
        <ele>61</ele>
        <time>2021-10-09T12:53:37.000Z</time>
      </trkpt>
      <trkpt lat="47.22056" lon="-1.50486">
        <ele>61</ele>
        <time>2021-10-09T12:53:39.000Z</time>
      </trkpt>
      <trkpt lat="47.22056" lon="-1.50503">
        <ele>61</ele>
        <time>2021-10-09T12:53:41.000Z</time>
      </trkpt>
      <trkpt lat="47.22055" lon="-1.50522">
        <ele>61</ele>
        <time>2021-10-09T12:53:43.000Z</time>
      </trkpt>
      <trkpt lat="47.22053" lon="-1.50543">
        <ele>61</ele>
        <time>2021-10-09T12:53:45.000Z</time>
      </trkpt>
      <trkpt lat="47.22051" lon="-1.5056">
        <ele>61</ele>
        <time>2021-10-09T12:53:47.000Z</time>
      </trkpt>
      <trkpt lat="47.2205" lon="-1.50578">
        <ele>61</ele>
        <time>2021-10-09T12:53:49.000Z</time>
      </trkpt>
      <trkpt lat="47.22048" lon="-1.50596">
        <ele>61</ele>
        <time>2021-10-09T12:53:51.000Z</time>
      </trkpt>
      <trkpt lat="47.22046" lon="-1.50613">
        <ele>61</ele>
        <time>2021-10-09T12:53:53.000Z</time>
      </trkpt>
      <trkpt lat="47.22047" lon="-1.50629">
        <ele>61</ele>
        <time>2021-10-09T12:53:55.000Z</time>
      </trkpt>
      <trkpt lat="47.22046" lon="-1.50645">
        <ele>61</ele>
        <time>2021-10-09T12:53:57.000Z</time>
      </trkpt>
      <trkpt lat="47.22044" lon="-1.50662">
        <ele>61</ele>
        <time>2021-10-09T12:53:59.000Z</time>
      </trkpt>
      <trkpt lat="47.22042" lon="-1.50678">
        <ele>60</ele>
        <time>2021-10-09T12:54:01.000Z</time>
      </trkpt>
      <trkpt lat="47.22041" lon="-1.50695">
        <ele>61</ele>
        <time>2021-10-09T12:54:03.000Z</time>
      </trkpt>
      <trkpt lat="47.22038" lon="-1.50714">
        <ele>62</ele>
        <time>2021-10-09T12:54:05.000Z</time>
      </trkpt>
      <trkpt lat="47.22036" lon="-1.50734">
        <ele>62</ele>
        <time>2021-10-09T12:54:07.000Z</time>
      </trkpt>
      <trkpt lat="47.22033" lon="-1.50752">
        <ele>62</ele>
        <time>2021-10-09T12:54:09.000Z</time>
      </trkpt>
      <trkpt lat="47.22029" lon="-1.50769">
        <ele>62</ele>
        <time>2021-10-09T12:54:11.000Z</time>
      </trkpt>
      <trkpt lat="47.22024" lon="-1.50786">
        <ele>61</ele>
        <time>2021-10-09T12:54:13.000Z</time>
      </trkpt>
      <trkpt lat="47.22018" lon="-1.50804">
        <ele>61</ele>
        <time>2021-10-09T12:54:15.000Z</time>
      </trkpt>
      <trkpt lat="47.22012" lon="-1.5082">
        <ele>62</ele>
        <time>2021-10-09T12:54:17.000Z</time>
      </trkpt>
      <trkpt lat="47.22006" lon="-1.50838">
        <ele>62</ele>
        <time>2021-10-09T12:54:19.000Z</time>
      </trkpt>
      <trkpt lat="47.21998" lon="-1.50858">
        <ele>63</ele>
        <time>2021-10-09T12:54:21.000Z</time>
      </trkpt>
      <trkpt lat="47.21991" lon="-1.50878">
        <ele>63</ele>
        <time>2021-10-09T12:54:23.000Z</time>
      </trkpt>
      <trkpt lat="47.21986" lon="-1.50897">
        <ele>64</ele>
        <time>2021-10-09T12:54:25.000Z</time>
      </trkpt>
      <trkpt lat="47.21981" lon="-1.50918">
        <ele>63</ele>
        <time>2021-10-09T12:54:27.000Z</time>
      </trkpt>
      <trkpt lat="47.21976" lon="-1.50937">
        <ele>63</ele>
        <time>2021-10-09T12:54:29.000Z</time>
      </trkpt>
      <trkpt lat="47.21971" lon="-1.50956">
        <ele>64</ele>
        <time>2021-10-09T12:54:31.000Z</time>
      </trkpt>
      <trkpt lat="47.21966" lon="-1.50975">
        <ele>64</ele>
        <time>2021-10-09T12:54:33.000Z</time>
      </trkpt>
      <trkpt lat="47.2196" lon="-1.50992">
        <ele>64</ele>
        <time>2021-10-09T12:54:35.000Z</time>
      </trkpt>
      <trkpt lat="47.21955" lon="-1.5101">
        <ele>64</ele>
        <time>2021-10-09T12:54:37.000Z</time>
      </trkpt>
      <trkpt lat="47.21952" lon="-1.51029">
        <ele>62</ele>
        <time>2021-10-09T12:54:39.000Z</time>
      </trkpt>
      <trkpt lat="47.21948" lon="-1.51043">
        <ele>61</ele>
        <time>2021-10-09T12:54:41.000Z</time>
      </trkpt>
      <trkpt lat="47.21942" lon="-1.51054">
        <ele>60</ele>
        <time>2021-10-09T12:54:43.000Z</time>
      </trkpt>
      <trkpt lat="47.21935" lon="-1.51065">
        <ele>59</ele>
        <time>2021-10-09T12:54:45.000Z</time>
      </trkpt>
      <trkpt lat="47.21929" lon="-1.51082">
        <ele>58</ele>
        <time>2021-10-09T12:54:47.000Z</time>
      </trkpt>
      <trkpt lat="47.21924" lon="-1.51099">
        <ele>58</ele>
        <time>2021-10-09T12:54:49.000Z</time>
      </trkpt>
      <trkpt lat="47.21919" lon="-1.51117">
        <ele>56</ele>
        <time>2021-10-09T12:54:51.000Z</time>
      </trkpt>
      <trkpt lat="47.21914" lon="-1.51133">
        <ele>56</ele>
        <time>2021-10-09T12:54:53.000Z</time>
      </trkpt>
      <trkpt lat="47.21908" lon="-1.51148">
        <ele>56</ele>
        <time>2021-10-09T12:54:55.000Z</time>
      </trkpt>
      <trkpt lat="47.21904" lon="-1.51164">
        <ele>56</ele>
        <time>2021-10-09T12:54:57.000Z</time>
      </trkpt>
      <trkpt lat="47.21898" lon="-1.5118">
        <ele>55</ele>
        <time>2021-10-09T12:54:59.000Z</time>
      </trkpt>
      <trkpt lat="47.21893" lon="-1.51197">
        <ele>56</ele>
        <time>2021-10-09T12:55:01.000Z</time>
      </trkpt>
      <trkpt lat="47.21887" lon="-1.51215">
        <ele>55</ele>
        <time>2021-10-09T12:55:03.000Z</time>
      </trkpt>
      <trkpt lat="47.21881" lon="-1.51233">
        <ele>54</ele>
        <time>2021-10-09T12:55:05.000Z</time>
      </trkpt>
      <trkpt lat="47.21875" lon="-1.51252">
        <ele>54</ele>
        <time>2021-10-09T12:55:07.000Z</time>
      </trkpt>
      <trkpt lat="47.2187" lon="-1.51269">
        <ele>53</ele>
        <time>2021-10-09T12:55:09.000Z</time>
      </trkpt>
      <trkpt lat="47.21864" lon="-1.51286">
        <ele>54</ele>
        <time>2021-10-09T12:55:11.000Z</time>
      </trkpt>
      <trkpt lat="47.21858" lon="-1.51303">
        <ele>54</ele>
        <time>2021-10-09T12:55:13.000Z</time>
      </trkpt>
      <trkpt lat="47.21852" lon="-1.5132">
        <ele>55</ele>
        <time>2021-10-09T12:55:15.000Z</time>
      </trkpt>
      <trkpt lat="47.21847" lon="-1.51337">
        <ele>55</ele>
        <time>2021-10-09T12:55:17.000Z</time>
      </trkpt>
      <trkpt lat="47.21842" lon="-1.51353">
        <ele>55</ele>
        <time>2021-10-09T12:55:19.000Z</time>
      </trkpt>
      <trkpt lat="47.21838" lon="-1.5137">
        <ele>56</ele>
        <time>2021-10-09T12:55:21.000Z</time>
      </trkpt>
      <trkpt lat="47.21834" lon="-1.51387">
        <ele>56</ele>
        <time>2021-10-09T12:55:23.000Z</time>
      </trkpt>
      <trkpt lat="47.2183" lon="-1.51406">
        <ele>55</ele>
        <time>2021-10-09T12:55:25.000Z</time>
      </trkpt>
      <trkpt lat="47.21827" lon="-1.51424">
        <ele>55</ele>
        <time>2021-10-09T12:55:27.000Z</time>
      </trkpt>
      <trkpt lat="47.21823" lon="-1.51443">
        <ele>55</ele>
        <time>2021-10-09T12:55:29.000Z</time>
      </trkpt>
      <trkpt lat="47.21819" lon="-1.51463">
        <ele>54</ele>
        <time>2021-10-09T12:55:31.000Z</time>
      </trkpt>
      <trkpt lat="47.21816" lon="-1.51482">
        <ele>54</ele>
        <time>2021-10-09T12:55:33.000Z</time>
      </trkpt>
      <trkpt lat="47.21811" lon="-1.51498">
        <ele>53</ele>
        <time>2021-10-09T12:55:35.000Z</time>
      </trkpt>
      <trkpt lat="47.21804" lon="-1.51511">
        <ele>54</ele>
        <time>2021-10-09T12:55:37.000Z</time>
      </trkpt>
      <trkpt lat="47.21797" lon="-1.51528">
        <ele>54</ele>
        <time>2021-10-09T12:55:39.000Z</time>
      </trkpt>
      <trkpt lat="47.21791" lon="-1.51546">
        <ele>54</ele>
        <time>2021-10-09T12:55:41.000Z</time>
      </trkpt>
      <trkpt lat="47.21784" lon="-1.51562">
        <ele>53</ele>
        <time>2021-10-09T12:55:43.000Z</time>
      </trkpt>
      <trkpt lat="47.21776" lon="-1.51576">
        <ele>54</ele>
        <time>2021-10-09T12:55:45.000Z</time>
      </trkpt>
      <trkpt lat="47.21767" lon="-1.5159">
        <ele>53</ele>
        <time>2021-10-09T12:55:47.000Z</time>
      </trkpt>
      <trkpt lat="47.21758" lon="-1.51601">
        <ele>54</ele>
        <time>2021-10-09T12:55:49.000Z</time>
      </trkpt>
      <trkpt lat="47.2175" lon="-1.51615">
        <ele>54</ele>
        <time>2021-10-09T12:55:51.000Z</time>
      </trkpt>
      <trkpt lat="47.21743" lon="-1.51629">
        <ele>54</ele>
        <time>2021-10-09T12:55:53.000Z</time>
      </trkpt>
      <trkpt lat="47.21737" lon="-1.51644">
        <ele>54</ele>
        <time>2021-10-09T12:55:55.000Z</time>
      </trkpt>
      <trkpt lat="47.2173" lon="-1.51659">
        <ele>53</ele>
        <time>2021-10-09T12:55:57.000Z</time>
      </trkpt>
      <trkpt lat="47.21723" lon="-1.51674">
        <ele>53</ele>
        <time>2021-10-09T12:55:59.000Z</time>
      </trkpt>
      <trkpt lat="47.21716" lon="-1.51688">
        <ele>53</ele>
        <time>2021-10-09T12:56:01.000Z</time>
      </trkpt>
      <trkpt lat="47.21709" lon="-1.51702">
        <ele>53</ele>
        <time>2021-10-09T12:56:03.000Z</time>
      </trkpt>
      <trkpt lat="47.21702" lon="-1.51718">
        <ele>53</ele>
        <time>2021-10-09T12:56:05.000Z</time>
      </trkpt>
      <trkpt lat="47.21696" lon="-1.51734">
        <ele>53</ele>
        <time>2021-10-09T12:56:07.000Z</time>
      </trkpt>
      <trkpt lat="47.21689" lon="-1.5175">
        <ele>53</ele>
        <time>2021-10-09T12:56:09.000Z</time>
      </trkpt>
      <trkpt lat="47.21682" lon="-1.51766">
        <ele>53</ele>
        <time>2021-10-09T12:56:11.000Z</time>
      </trkpt>
      <trkpt lat="47.21675" lon="-1.51783">
        <ele>53</ele>
        <time>2021-10-09T12:56:13.000Z</time>
      </trkpt>
      <trkpt lat="47.21668" lon="-1.51799">
        <ele>53</ele>
        <time>2021-10-09T12:56:15.000Z</time>
      </trkpt>
      <trkpt lat="47.21661" lon="-1.51814">
        <ele>53</ele>
        <time>2021-10-09T12:56:17.000Z</time>
      </trkpt>
      <trkpt lat="47.21654" lon="-1.51831">
        <ele>52</ele>
        <time>2021-10-09T12:56:19.000Z</time>
      </trkpt>
      <trkpt lat="47.21649" lon="-1.51848">
        <ele>52</ele>
        <time>2021-10-09T12:56:21.000Z</time>
      </trkpt>
      <trkpt lat="47.21646" lon="-1.51865">
        <ele>52</ele>
        <time>2021-10-09T12:56:23.000Z</time>
      </trkpt>
      <trkpt lat="47.21642" lon="-1.51882">
        <ele>52</ele>
        <time>2021-10-09T12:56:25.000Z</time>
      </trkpt>
      <trkpt lat="47.21635" lon="-1.51897">
        <ele>52</ele>
        <time>2021-10-09T12:56:27.000Z</time>
      </trkpt>
      <trkpt lat="47.21628" lon="-1.5191">
        <ele>52</ele>
        <time>2021-10-09T12:56:29.000Z</time>
      </trkpt>
      <trkpt lat="47.21623" lon="-1.51926">
        <ele>52</ele>
        <time>2021-10-09T12:56:31.000Z</time>
      </trkpt>
      <trkpt lat="47.2162" lon="-1.51941">
        <ele>52</ele>
        <time>2021-10-09T12:56:33.000Z</time>
      </trkpt>
      <trkpt lat="47.21618" lon="-1.51954">
        <ele>52</ele>
        <time>2021-10-09T12:56:35.000Z</time>
      </trkpt>
      <trkpt lat="47.21616" lon="-1.51967">
        <ele>52</ele>
        <time>2021-10-09T12:56:37.000Z</time>
      </trkpt>
      <trkpt lat="47.21607" lon="-1.51982">
        <ele>52</ele>
        <time>2021-10-09T12:56:40.000Z</time>
      </trkpt>
      <trkpt lat="47.21599" lon="-1.51998">
        <ele>53</ele>
        <time>2021-10-09T12:56:42.000Z</time>
      </trkpt>
      <trkpt lat="47.21592" lon="-1.52021">
        <ele>52</ele>
        <time>2021-10-09T12:56:44.000Z</time>
      </trkpt>
      <trkpt lat="47.21586" lon="-1.52043">
        <ele>51</ele>
        <time>2021-10-09T12:56:46.000Z</time>
      </trkpt>
      <trkpt lat="47.2158" lon="-1.52063">
        <ele>52</ele>
        <time>2021-10-09T12:56:48.000Z</time>
      </trkpt>
      <trkpt lat="47.21574" lon="-1.52083">
        <ele>51</ele>
        <time>2021-10-09T12:56:50.000Z</time>
      </trkpt>
      <trkpt lat="47.21568" lon="-1.52103">
        <ele>52</ele>
        <time>2021-10-09T12:56:52.000Z</time>
      </trkpt>
      <trkpt lat="47.21561" lon="-1.52122">
        <ele>52</ele>
        <time>2021-10-09T12:56:54.000Z</time>
      </trkpt>
      <trkpt lat="47.21555" lon="-1.52141">
        <ele>52</ele>
        <time>2021-10-09T12:56:56.000Z</time>
      </trkpt>
      <trkpt lat="47.21548" lon="-1.52161">
        <ele>52</ele>
        <time>2021-10-09T12:56:58.000Z</time>
      </trkpt>
      <trkpt lat="47.21543" lon="-1.52181">
        <ele>52</ele>
        <time>2021-10-09T12:57:00.000Z</time>
      </trkpt>
      <trkpt lat="47.21538" lon="-1.52203">
        <ele>51</ele>
        <time>2021-10-09T12:57:02.000Z</time>
      </trkpt>
      <trkpt lat="47.21531" lon="-1.52222">
        <ele>52</ele>
        <time>2021-10-09T12:57:04.000Z</time>
      </trkpt>
      <trkpt lat="47.21525" lon="-1.5224">
        <ele>52</ele>
        <time>2021-10-09T12:57:06.000Z</time>
      </trkpt>
      <trkpt lat="47.21518" lon="-1.52257">
        <ele>52</ele>
        <time>2021-10-09T12:57:08.000Z</time>
      </trkpt>
      <trkpt lat="47.21512" lon="-1.52275">
        <ele>53</ele>
        <time>2021-10-09T12:57:10.000Z</time>
      </trkpt>
      <trkpt lat="47.21506" lon="-1.52294">
        <ele>53</ele>
        <time>2021-10-09T12:57:12.000Z</time>
      </trkpt>
      <trkpt lat="47.215" lon="-1.52312">
        <ele>52</ele>
        <time>2021-10-09T12:57:14.000Z</time>
      </trkpt>
      <trkpt lat="47.21494" lon="-1.52331">
        <ele>52</ele>
        <time>2021-10-09T12:57:16.000Z</time>
      </trkpt>
      <trkpt lat="47.21489" lon="-1.52349">
        <ele>52</ele>
        <time>2021-10-09T12:57:18.000Z</time>
      </trkpt>
      <trkpt lat="47.21482" lon="-1.52368">
        <ele>52</ele>
        <time>2021-10-09T12:57:20.000Z</time>
      </trkpt>
      <trkpt lat="47.21476" lon="-1.52385">
        <ele>52</ele>
        <time>2021-10-09T12:57:22.000Z</time>
      </trkpt>
      <trkpt lat="47.2147" lon="-1.52403">
        <ele>53</ele>
        <time>2021-10-09T12:57:24.000Z</time>
      </trkpt>
      <trkpt lat="47.21464" lon="-1.52422">
        <ele>53</ele>
        <time>2021-10-09T12:57:26.000Z</time>
      </trkpt>
      <trkpt lat="47.21458" lon="-1.5244">
        <ele>52</ele>
        <time>2021-10-09T12:57:28.000Z</time>
      </trkpt>
      <trkpt lat="47.21453" lon="-1.52459">
        <ele>52</ele>
        <time>2021-10-09T12:57:30.000Z</time>
      </trkpt>
      <trkpt lat="47.21448" lon="-1.52478">
        <ele>52</ele>
        <time>2021-10-09T12:57:32.000Z</time>
      </trkpt>
      <trkpt lat="47.21442" lon="-1.52497">
        <ele>52</ele>
        <time>2021-10-09T12:57:34.000Z</time>
      </trkpt>
      <trkpt lat="47.21435" lon="-1.52515">
        <ele>53</ele>
        <time>2021-10-09T12:57:36.000Z</time>
      </trkpt>
      <trkpt lat="47.21429" lon="-1.52534">
        <ele>53</ele>
        <time>2021-10-09T12:57:38.000Z</time>
      </trkpt>
      <trkpt lat="47.21423" lon="-1.52552">
        <ele>52</ele>
        <time>2021-10-09T12:57:40.000Z</time>
      </trkpt>
      <trkpt lat="47.21417" lon="-1.52571">
        <ele>52</ele>
        <time>2021-10-09T12:57:42.000Z</time>
      </trkpt>
      <trkpt lat="47.21411" lon="-1.52589">
        <ele>52</ele>
        <time>2021-10-09T12:57:44.000Z</time>
      </trkpt>
      <trkpt lat="47.21404" lon="-1.52607">
        <ele>52</ele>
        <time>2021-10-09T12:57:46.000Z</time>
      </trkpt>
      <trkpt lat="47.21398" lon="-1.52626">
        <ele>52</ele>
        <time>2021-10-09T12:57:48.000Z</time>
      </trkpt>
      <trkpt lat="47.21392" lon="-1.52644">
        <ele>51</ele>
        <time>2021-10-09T12:57:50.000Z</time>
      </trkpt>
      <trkpt lat="47.21387" lon="-1.52663">
        <ele>51</ele>
        <time>2021-10-09T12:57:52.000Z</time>
      </trkpt>
      <trkpt lat="47.21382" lon="-1.52682">
        <ele>51</ele>
        <time>2021-10-09T12:57:54.000Z</time>
      </trkpt>
      <trkpt lat="47.21378" lon="-1.52701">
        <ele>51</ele>
        <time>2021-10-09T12:57:56.000Z</time>
      </trkpt>
      <trkpt lat="47.21373" lon="-1.5272">
        <ele>51</ele>
        <time>2021-10-09T12:57:58.000Z</time>
      </trkpt>
      <trkpt lat="47.21369" lon="-1.52739">
        <ele>50</ele>
        <time>2021-10-09T12:58:00.000Z</time>
      </trkpt>
      <trkpt lat="47.21366" lon="-1.5276">
        <ele>50</ele>
        <time>2021-10-09T12:58:02.000Z</time>
      </trkpt>
      <trkpt lat="47.21365" lon="-1.52781">
        <ele>50</ele>
        <time>2021-10-09T12:58:04.000Z</time>
      </trkpt>
      <trkpt lat="47.21362" lon="-1.52797">
        <ele>50</ele>
        <time>2021-10-09T12:58:06.000Z</time>
      </trkpt>
      <trkpt lat="47.21359" lon="-1.52813">
        <ele>50</ele>
        <time>2021-10-09T12:58:08.000Z</time>
      </trkpt>
      <trkpt lat="47.21355" lon="-1.52832">
        <ele>51</ele>
        <time>2021-10-09T12:58:10.000Z</time>
      </trkpt>
      <trkpt lat="47.21351" lon="-1.52852">
        <ele>50</ele>
        <time>2021-10-09T12:58:12.000Z</time>
      </trkpt>
      <trkpt lat="47.21348" lon="-1.52873">
        <ele>50</ele>
        <time>2021-10-09T12:58:14.000Z</time>
      </trkpt>
      <trkpt lat="47.21344" lon="-1.52895">
        <ele>50</ele>
        <time>2021-10-09T12:58:16.000Z</time>
      </trkpt>
      <trkpt lat="47.21341" lon="-1.52916">
        <ele>49</ele>
        <time>2021-10-09T12:58:18.000Z</time>
      </trkpt>
      <trkpt lat="47.21338" lon="-1.52935">
        <ele>49</ele>
        <time>2021-10-09T12:58:20.000Z</time>
      </trkpt>
      <trkpt lat="47.21336" lon="-1.52951">
        <ele>49</ele>
        <time>2021-10-09T12:58:22.000Z</time>
      </trkpt>
      <trkpt lat="47.21337" lon="-1.52966">
        <ele>50</ele>
        <time>2021-10-09T12:58:24.000Z</time>
      </trkpt>
      <trkpt lat="47.21335" lon="-1.52987">
        <ele>50</ele>
        <time>2021-10-09T12:58:26.000Z</time>
      </trkpt>
      <trkpt lat="47.21333" lon="-1.53011">
        <ele>50</ele>
        <time>2021-10-09T12:58:28.000Z</time>
      </trkpt>
      <trkpt lat="47.21328" lon="-1.53044">
        <ele>51</ele>
        <time>2021-10-09T12:58:31.000Z</time>
      </trkpt>
      <trkpt lat="47.21326" lon="-1.53066">
        <ele>51</ele>
        <time>2021-10-09T12:58:33.000Z</time>
      </trkpt>
      <trkpt lat="47.21325" lon="-1.53086">
        <ele>52</ele>
        <time>2021-10-09T12:58:35.000Z</time>
      </trkpt>
      <trkpt lat="47.21323" lon="-1.53104">
        <ele>52</ele>
        <time>2021-10-09T12:58:37.000Z</time>
      </trkpt>
      <trkpt lat="47.21318" lon="-1.5313">
        <ele>53</ele>
        <time>2021-10-09T12:58:40.000Z</time>
      </trkpt>
      <trkpt lat="47.21315" lon="-1.53149">
        <ele>53</ele>
        <time>2021-10-09T12:58:42.000Z</time>
      </trkpt>
      <trkpt lat="47.21312" lon="-1.53169">
        <ele>52</ele>
        <time>2021-10-09T12:58:44.000Z</time>
      </trkpt>
      <trkpt lat="47.2131" lon="-1.53187">
        <ele>52</ele>
        <time>2021-10-09T12:58:46.000Z</time>
      </trkpt>
      <trkpt lat="47.21308" lon="-1.53219">
        <ele>52</ele>
        <time>2021-10-09T12:58:49.000Z</time>
      </trkpt>
      <trkpt lat="47.21308" lon="-1.53239">
        <ele>52</ele>
        <time>2021-10-09T12:58:51.000Z</time>
      </trkpt>
      <trkpt lat="47.21308" lon="-1.5326">
        <ele>51</ele>
        <time>2021-10-09T12:58:53.000Z</time>
      </trkpt>
      <trkpt lat="47.21308" lon="-1.5328">
        <ele>51</ele>
        <time>2021-10-09T12:58:55.000Z</time>
      </trkpt>
      <trkpt lat="47.21307" lon="-1.533">
        <ele>51</ele>
        <time>2021-10-09T12:58:57.000Z</time>
      </trkpt>
      <trkpt lat="47.21305" lon="-1.5332">
        <ele>51</ele>
        <time>2021-10-09T12:58:59.000Z</time>
      </trkpt>
      <trkpt lat="47.21302" lon="-1.53341">
        <ele>51</ele>
        <time>2021-10-09T12:59:01.000Z</time>
      </trkpt>
      <trkpt lat="47.21297" lon="-1.53369">
        <ele>51</ele>
        <time>2021-10-09T12:59:04.000Z</time>
      </trkpt>
      <trkpt lat="47.21293" lon="-1.53388">
        <ele>51</ele>
        <time>2021-10-09T12:59:06.000Z</time>
      </trkpt>
      <trkpt lat="47.21291" lon="-1.53409">
        <ele>50</ele>
        <time>2021-10-09T12:59:08.000Z</time>
      </trkpt>
      <trkpt lat="47.21289" lon="-1.53428">
        <ele>50</ele>
        <time>2021-10-09T12:59:10.000Z</time>
      </trkpt>
      <trkpt lat="47.21287" lon="-1.53446">
        <ele>50</ele>
        <time>2021-10-09T12:59:12.000Z</time>
      </trkpt>
      <trkpt lat="47.2129" lon="-1.53463">
        <ele>51</ele>
        <time>2021-10-09T12:59:14.000Z</time>
      </trkpt>
      <trkpt lat="47.21296" lon="-1.53481">
        <ele>51</ele>
        <time>2021-10-09T12:59:16.000Z</time>
      </trkpt>
      <trkpt lat="47.21298" lon="-1.53499">
        <ele>51</ele>
        <time>2021-10-09T12:59:18.000Z</time>
      </trkpt>
      <trkpt lat="47.213" lon="-1.53518">
        <ele>51</ele>
        <time>2021-10-09T12:59:20.000Z</time>
      </trkpt>
      <trkpt lat="47.213" lon="-1.53537">
        <ele>51</ele>
        <time>2021-10-09T12:59:22.000Z</time>
      </trkpt>
      <trkpt lat="47.213" lon="-1.53555">
        <ele>51</ele>
        <time>2021-10-09T12:59:24.000Z</time>
      </trkpt>
      <trkpt lat="47.213" lon="-1.53573">
        <ele>52</ele>
        <time>2021-10-09T12:59:26.000Z</time>
      </trkpt>
      <trkpt lat="47.21301" lon="-1.5359">
        <ele>53</ele>
        <time>2021-10-09T12:59:28.000Z</time>
      </trkpt>
      <trkpt lat="47.21301" lon="-1.53606">
        <ele>53</ele>
        <time>2021-10-09T12:59:30.000Z</time>
      </trkpt>
      <trkpt lat="47.213" lon="-1.53621">
        <ele>52</ele>
        <time>2021-10-09T12:59:32.000Z</time>
      </trkpt>
      <trkpt lat="47.21294" lon="-1.53632">
        <ele>51</ele>
        <time>2021-10-09T12:59:35.000Z</time>
      </trkpt>
      <trkpt lat="47.21291" lon="-1.53645">
        <ele>52</ele>
        <time>2021-10-09T12:59:40.000Z</time>
      </trkpt>
      <trkpt lat="47.21284" lon="-1.53657">
        <ele>52</ele>
        <time>2021-10-09T12:59:43.000Z</time>
      </trkpt>
      <trkpt lat="47.2127" lon="-1.53649">
        <ele>54</ele>
        <time>2021-10-09T12:59:46.000Z</time>
      </trkpt>
      <trkpt lat="47.2126" lon="-1.53643">
        <ele>55</ele>
        <time>2021-10-09T12:59:48.000Z</time>
      </trkpt>
      <trkpt lat="47.2125" lon="-1.53638">
        <ele>57</ele>
        <time>2021-10-09T12:59:50.000Z</time>
      </trkpt>
      <trkpt lat="47.21239" lon="-1.53634">
        <ele>58</ele>
        <time>2021-10-09T12:59:52.000Z</time>
      </trkpt>
      <trkpt lat="47.21226" lon="-1.53629">
        <ele>58</ele>
        <time>2021-10-09T12:59:54.000Z</time>
      </trkpt>
      <trkpt lat="47.21214" lon="-1.53623">
        <ele>57</ele>
        <time>2021-10-09T12:59:56.000Z</time>
      </trkpt>
      <trkpt lat="47.21202" lon="-1.53618">
        <ele>57</ele>
        <time>2021-10-09T12:59:58.000Z</time>
      </trkpt>
      <trkpt lat="47.2119" lon="-1.53612">
        <ele>57</ele>
        <time>2021-10-09T13:00:00.000Z</time>
      </trkpt>
      <trkpt lat="47.21179" lon="-1.53607">
        <ele>56</ele>
        <time>2021-10-09T13:00:02.000Z</time>
      </trkpt>
      <trkpt lat="47.21168" lon="-1.53601">
        <ele>57</ele>
        <time>2021-10-09T13:00:04.000Z</time>
      </trkpt>
      <trkpt lat="47.21157" lon="-1.53596">
        <ele>57</ele>
        <time>2021-10-09T13:00:06.000Z</time>
      </trkpt>
      <trkpt lat="47.21146" lon="-1.5359">
        <ele>56</ele>
        <time>2021-10-09T13:00:08.000Z</time>
      </trkpt>
      <trkpt lat="47.21135" lon="-1.53585">
        <ele>56</ele>
        <time>2021-10-09T13:00:10.000Z</time>
      </trkpt>
      <trkpt lat="47.21124" lon="-1.5358">
        <ele>56</ele>
        <time>2021-10-09T13:00:12.000Z</time>
      </trkpt>
      <trkpt lat="47.21113" lon="-1.53575">
        <ele>56</ele>
        <time>2021-10-09T13:00:14.000Z</time>
      </trkpt>
      <trkpt lat="47.21103" lon="-1.53569">
        <ele>55</ele>
        <time>2021-10-09T13:00:16.000Z</time>
      </trkpt>
      <trkpt lat="47.21092" lon="-1.53564">
        <ele>55</ele>
        <time>2021-10-09T13:00:18.000Z</time>
      </trkpt>
      <trkpt lat="47.21081" lon="-1.53559">
        <ele>54</ele>
        <time>2021-10-09T13:00:20.000Z</time>
      </trkpt>
      <trkpt lat="47.21069" lon="-1.53557">
        <ele>54</ele>
        <time>2021-10-09T13:00:22.000Z</time>
      </trkpt>
      <trkpt lat="47.21058" lon="-1.53565">
        <ele>54</ele>
        <time>2021-10-09T13:00:24.000Z</time>
      </trkpt>
      <trkpt lat="47.21053" lon="-1.5358">
        <ele>55</ele>
        <time>2021-10-09T13:00:26.000Z</time>
      </trkpt>
      <trkpt lat="47.21051" lon="-1.53598">
        <ele>57</ele>
        <time>2021-10-09T13:00:28.000Z</time>
      </trkpt>
      <trkpt lat="47.21051" lon="-1.5362">
        <ele>56</ele>
        <time>2021-10-09T13:00:30.000Z</time>
      </trkpt>
      <trkpt lat="47.2105" lon="-1.53641">
        <ele>57</ele>
        <time>2021-10-09T13:00:32.000Z</time>
      </trkpt>
      <trkpt lat="47.21048" lon="-1.53661">
        <ele>57</ele>
        <time>2021-10-09T13:00:34.000Z</time>
      </trkpt>
      <trkpt lat="47.21044" lon="-1.53681">
        <ele>56</ele>
        <time>2021-10-09T13:00:36.000Z</time>
      </trkpt>
      <trkpt lat="47.2104" lon="-1.53699">
        <ele>55</ele>
        <time>2021-10-09T13:00:38.000Z</time>
      </trkpt>
      <trkpt lat="47.21036" lon="-1.53717">
        <ele>55</ele>
        <time>2021-10-09T13:00:40.000Z</time>
      </trkpt>
      <trkpt lat="47.21033" lon="-1.53737">
        <ele>55</ele>
        <time>2021-10-09T13:00:42.000Z</time>
      </trkpt>
      <trkpt lat="47.2103" lon="-1.53756">
        <ele>55</ele>
        <time>2021-10-09T13:00:44.000Z</time>
      </trkpt>
      <trkpt lat="47.21026" lon="-1.53774">
        <ele>55</ele>
        <time>2021-10-09T13:00:46.000Z</time>
      </trkpt>
      <trkpt lat="47.21022" lon="-1.5379">
        <ele>54</ele>
        <time>2021-10-09T13:00:48.000Z</time>
      </trkpt>
      <trkpt lat="47.21022" lon="-1.53807">
        <ele>54</ele>
        <time>2021-10-09T13:00:50.000Z</time>
      </trkpt>
      <trkpt lat="47.21017" lon="-1.53827">
        <ele>55</ele>
        <time>2021-10-09T13:00:52.000Z</time>
      </trkpt>
      <trkpt lat="47.21011" lon="-1.53846">
        <ele>55</ele>
        <time>2021-10-09T13:00:54.000Z</time>
      </trkpt>
      <trkpt lat="47.21005" lon="-1.53865">
        <ele>55</ele>
        <time>2021-10-09T13:00:56.000Z</time>
      </trkpt>
      <trkpt lat="47.20999" lon="-1.53881">
        <ele>54</ele>
        <time>2021-10-09T13:00:58.000Z</time>
      </trkpt>
      <trkpt lat="47.20996" lon="-1.53898">
        <ele>55</ele>
        <time>2021-10-09T13:01:00.000Z</time>
      </trkpt>
      <trkpt lat="47.20993" lon="-1.53918">
        <ele>56</ele>
        <time>2021-10-09T13:01:02.000Z</time>
      </trkpt>
      <trkpt lat="47.20989" lon="-1.53937">
        <ele>55</ele>
        <time>2021-10-09T13:01:04.000Z</time>
      </trkpt>
      <trkpt lat="47.20984" lon="-1.53956">
        <ele>56</ele>
        <time>2021-10-09T13:01:06.000Z</time>
      </trkpt>
      <trkpt lat="47.20978" lon="-1.53975">
        <ele>57</ele>
        <time>2021-10-09T13:01:08.000Z</time>
      </trkpt>
      <trkpt lat="47.20973" lon="-1.53994">
        <ele>57</ele>
        <time>2021-10-09T13:01:10.000Z</time>
      </trkpt>
      <trkpt lat="47.20967" lon="-1.54013">
        <ele>57</ele>
        <time>2021-10-09T13:01:12.000Z</time>
      </trkpt>
      <trkpt lat="47.20962" lon="-1.54032">
        <ele>57</ele>
        <time>2021-10-09T13:01:14.000Z</time>
      </trkpt>
      <trkpt lat="47.20957" lon="-1.5405">
        <ele>56</ele>
        <time>2021-10-09T13:01:16.000Z</time>
      </trkpt>
      <trkpt lat="47.20951" lon="-1.54067">
        <ele>57</ele>
        <time>2021-10-09T13:01:18.000Z</time>
      </trkpt>
      <trkpt lat="47.20944" lon="-1.54082">
        <ele>58</ele>
        <time>2021-10-09T13:01:20.000Z</time>
      </trkpt>
      <trkpt lat="47.20938" lon="-1.54099">
        <ele>60</ele>
        <time>2021-10-09T13:01:22.000Z</time>
      </trkpt>
      <trkpt lat="47.2093" lon="-1.54117">
        <ele>61</ele>
        <time>2021-10-09T13:01:24.000Z</time>
      </trkpt>
      <trkpt lat="47.20927" lon="-1.54135">
        <ele>62</ele>
        <time>2021-10-09T13:01:26.000Z</time>
      </trkpt>
      <trkpt lat="47.20921" lon="-1.54154">
        <ele>62</ele>
        <time>2021-10-09T13:01:28.000Z</time>
      </trkpt>
      <trkpt lat="47.20916" lon="-1.54174">
        <ele>62</ele>
        <time>2021-10-09T13:01:30.000Z</time>
      </trkpt>
      <trkpt lat="47.20911" lon="-1.54188">
        <ele>62</ele>
        <time>2021-10-09T13:01:32.000Z</time>
      </trkpt>
      <trkpt lat="47.20906" lon="-1.54203">
        <ele>64</ele>
        <time>2021-10-09T13:01:34.000Z</time>
      </trkpt>
      <trkpt lat="47.20899" lon="-1.54219">
        <ele>66</ele>
        <time>2021-10-09T13:01:36.000Z</time>
      </trkpt>
      <trkpt lat="47.20893" lon="-1.54237">
        <ele>67</ele>
        <time>2021-10-09T13:01:38.000Z</time>
      </trkpt>
      <trkpt lat="47.20885" lon="-1.54257">
        <ele>65</ele>
        <time>2021-10-09T13:01:40.000Z</time>
      </trkpt>
      <trkpt lat="47.20878" lon="-1.54276">
        <ele>64</ele>
        <time>2021-10-09T13:01:42.000Z</time>
      </trkpt>
      <trkpt lat="47.20873" lon="-1.54295">
        <ele>62</ele>
        <time>2021-10-09T13:01:44.000Z</time>
      </trkpt>
      <trkpt lat="47.20868" lon="-1.54313">
        <ele>63</ele>
        <time>2021-10-09T13:01:46.000Z</time>
      </trkpt>
      <trkpt lat="47.20862" lon="-1.54328">
        <ele>65</ele>
        <time>2021-10-09T13:01:48.000Z</time>
      </trkpt>
      <trkpt lat="47.20856" lon="-1.54344">
        <ele>66</ele>
        <time>2021-10-09T13:01:50.000Z</time>
      </trkpt>
      <trkpt lat="47.20849" lon="-1.54361">
        <ele>67</ele>
        <time>2021-10-09T13:01:52.000Z</time>
      </trkpt>
      <trkpt lat="47.20843" lon="-1.54379">
        <ele>68</ele>
        <time>2021-10-09T13:01:54.000Z</time>
      </trkpt>
      <trkpt lat="47.20836" lon="-1.54397">
        <ele>68</ele>
        <time>2021-10-09T13:01:56.000Z</time>
      </trkpt>
      <trkpt lat="47.20832" lon="-1.54418">
        <ele>67</ele>
        <time>2021-10-09T13:01:58.000Z</time>
      </trkpt>
      <trkpt lat="47.20827" lon="-1.54436">
        <ele>67</ele>
        <time>2021-10-09T13:02:00.000Z</time>
      </trkpt>
      <trkpt lat="47.20821" lon="-1.54452">
        <ele>66</ele>
        <time>2021-10-09T13:02:02.000Z</time>
      </trkpt>
      <trkpt lat="47.20816" lon="-1.5447">
        <ele>66</ele>
        <time>2021-10-09T13:02:04.000Z</time>
      </trkpt>
      <trkpt lat="47.2081" lon="-1.54489">
        <ele>66</ele>
        <time>2021-10-09T13:02:06.000Z</time>
      </trkpt>
      <trkpt lat="47.20804" lon="-1.54509">
        <ele>65</ele>
        <time>2021-10-09T13:02:08.000Z</time>
      </trkpt>
      <trkpt lat="47.20799" lon="-1.54529">
        <ele>64</ele>
        <time>2021-10-09T13:02:10.000Z</time>
      </trkpt>
      <trkpt lat="47.20794" lon="-1.54548">
        <ele>63</ele>
        <time>2021-10-09T13:02:12.000Z</time>
      </trkpt>
      <trkpt lat="47.20789" lon="-1.54567">
        <ele>62</ele>
        <time>2021-10-09T13:02:14.000Z</time>
      </trkpt>
      <trkpt lat="47.20784" lon="-1.54586">
        <ele>61</ele>
        <time>2021-10-09T13:02:16.000Z</time>
      </trkpt>
      <trkpt lat="47.20778" lon="-1.54605">
        <ele>61</ele>
        <time>2021-10-09T13:02:18.000Z</time>
      </trkpt>
      <trkpt lat="47.20772" lon="-1.54623">
        <ele>61</ele>
        <time>2021-10-09T13:02:20.000Z</time>
      </trkpt>
      <trkpt lat="47.20767" lon="-1.54641">
        <ele>61</ele>
        <time>2021-10-09T13:02:22.000Z</time>
      </trkpt>
      <trkpt lat="47.20761" lon="-1.5466">
        <ele>60</ele>
        <time>2021-10-09T13:02:24.000Z</time>
      </trkpt>
      <trkpt lat="47.20755" lon="-1.54678">
        <ele>60</ele>
        <time>2021-10-09T13:02:26.000Z</time>
      </trkpt>
      <trkpt lat="47.20749" lon="-1.54696">
        <ele>60</ele>
        <time>2021-10-09T13:02:28.000Z</time>
      </trkpt>
      <trkpt lat="47.20744" lon="-1.54715">
        <ele>59</ele>
        <time>2021-10-09T13:02:30.000Z</time>
      </trkpt>
      <trkpt lat="47.20738" lon="-1.54731">
        <ele>60</ele>
        <time>2021-10-09T13:02:32.000Z</time>
      </trkpt>
      <trkpt lat="47.20732" lon="-1.54748">
        <ele>60</ele>
        <time>2021-10-09T13:02:34.000Z</time>
      </trkpt>
      <trkpt lat="47.20727" lon="-1.54764">
        <ele>60</ele>
        <time>2021-10-09T13:02:36.000Z</time>
      </trkpt>
      <trkpt lat="47.20722" lon="-1.5478">
        <ele>59</ele>
        <time>2021-10-09T13:02:38.000Z</time>
      </trkpt>
      <trkpt lat="47.20718" lon="-1.54797">
        <ele>59</ele>
        <time>2021-10-09T13:02:40.000Z</time>
      </trkpt>
      <trkpt lat="47.20715" lon="-1.54811">
        <ele>58</ele>
        <time>2021-10-09T13:02:42.000Z</time>
      </trkpt>
      <trkpt lat="47.20713" lon="-1.54827">
        <ele>57</ele>
        <time>2021-10-09T13:02:45.000Z</time>
      </trkpt>
      <trkpt lat="47.20711" lon="-1.54846">
        <ele>57</ele>
        <time>2021-10-09T13:02:53.000Z</time>
      </trkpt>
      <trkpt lat="47.20707" lon="-1.54863">
        <ele>56</ele>
        <time>2021-10-09T13:02:56.000Z</time>
      </trkpt>
      <trkpt lat="47.20694" lon="-1.54869">
        <ele>56</ele>
        <time>2021-10-09T13:03:00.000Z</time>
      </trkpt>
      <trkpt lat="47.20683" lon="-1.54866">
        <ele>56</ele>
        <time>2021-10-09T13:03:02.000Z</time>
      </trkpt>
      <trkpt lat="47.20672" lon="-1.54856">
        <ele>56</ele>
        <time>2021-10-09T13:03:04.000Z</time>
      </trkpt>
      <trkpt lat="47.2066" lon="-1.54846">
        <ele>56</ele>
        <time>2021-10-09T13:03:06.000Z</time>
      </trkpt>
      <trkpt lat="47.20649" lon="-1.54836">
        <ele>55</ele>
        <time>2021-10-09T13:03:08.000Z</time>
      </trkpt>
      <trkpt lat="47.20639" lon="-1.54828">
        <ele>56</ele>
        <time>2021-10-09T13:03:10.000Z</time>
      </trkpt>
      <trkpt lat="47.2063" lon="-1.5482">
        <ele>56</ele>
        <time>2021-10-09T13:03:12.000Z</time>
      </trkpt>
      <trkpt lat="47.20622" lon="-1.54813">
        <ele>57</ele>
        <time>2021-10-09T13:03:15.000Z</time>
      </trkpt>
      <trkpt lat="47.20614" lon="-1.54807">
        <ele>57</ele>
        <time>2021-10-09T13:03:22.000Z</time>
      </trkpt>
      <trkpt lat="47.20606" lon="-1.54797">
        <ele>57</ele>
        <time>2021-10-09T13:03:27.000Z</time>
      </trkpt>
      <trkpt lat="47.20596" lon="-1.54789">
        <ele>57</ele>
        <time>2021-10-09T13:03:29.000Z</time>
      </trkpt>
      <trkpt lat="47.20586" lon="-1.54781">
        <ele>57</ele>
        <time>2021-10-09T13:03:31.000Z</time>
      </trkpt>
      <trkpt lat="47.20576" lon="-1.54775">
        <ele>57</ele>
        <time>2021-10-09T13:03:33.000Z</time>
      </trkpt>
      <trkpt lat="47.20566" lon="-1.54768">
        <ele>57</ele>
        <time>2021-10-09T13:03:35.000Z</time>
      </trkpt>
      <trkpt lat="47.20557" lon="-1.54762">
        <ele>57</ele>
        <time>2021-10-09T13:03:37.000Z</time>
      </trkpt>
      <trkpt lat="47.20548" lon="-1.54753">
        <ele>59</ele>
        <time>2021-10-09T13:03:40.000Z</time>
      </trkpt>
      <trkpt lat="47.20535" lon="-1.54758">
        <ele>63</ele>
        <time>2021-10-09T13:03:46.000Z</time>
      </trkpt>
      <trkpt lat="47.20523" lon="-1.54771">
        <ele>61</ele>
        <time>2021-10-09T13:03:48.000Z</time>
      </trkpt>
      <trkpt lat="47.20516" lon="-1.54787">
        <ele>61</ele>
        <time>2021-10-09T13:03:50.000Z</time>
      </trkpt>
      <trkpt lat="47.2051" lon="-1.54805">
        <ele>61</ele>
        <time>2021-10-09T13:03:52.000Z</time>
      </trkpt>
      <trkpt lat="47.20505" lon="-1.54822">
        <ele>61</ele>
        <time>2021-10-09T13:03:54.000Z</time>
      </trkpt>
      <trkpt lat="47.20499" lon="-1.54839">
        <ele>61</ele>
        <time>2021-10-09T13:03:56.000Z</time>
      </trkpt>
      <trkpt lat="47.20493" lon="-1.54856">
        <ele>60</ele>
        <time>2021-10-09T13:03:58.000Z</time>
      </trkpt>
      <trkpt lat="47.20487" lon="-1.54873">
        <ele>60</ele>
        <time>2021-10-09T13:04:00.000Z</time>
      </trkpt>
      <trkpt lat="47.20484" lon="-1.54892">
        <ele>59</ele>
        <time>2021-10-09T13:04:02.000Z</time>
      </trkpt>
      <trkpt lat="47.2048" lon="-1.54911">
        <ele>59</ele>
        <time>2021-10-09T13:04:04.000Z</time>
      </trkpt>
      <trkpt lat="47.20474" lon="-1.54929">
        <ele>60</ele>
        <time>2021-10-09T13:04:06.000Z</time>
      </trkpt>
      <trkpt lat="47.20469" lon="-1.54946">
        <ele>60</ele>
        <time>2021-10-09T13:04:08.000Z</time>
      </trkpt>
      <trkpt lat="47.20464" lon="-1.54964">
        <ele>60</ele>
        <time>2021-10-09T13:04:10.000Z</time>
      </trkpt>
      <trkpt lat="47.2046" lon="-1.54982">
        <ele>60</ele>
        <time>2021-10-09T13:04:12.000Z</time>
      </trkpt>
      <trkpt lat="47.20454" lon="-1.54999">
        <ele>61</ele>
        <time>2021-10-09T13:04:14.000Z</time>
      </trkpt>
      <trkpt lat="47.20448" lon="-1.55019">
        <ele>60</ele>
        <time>2021-10-09T13:04:16.000Z</time>
      </trkpt>
      <trkpt lat="47.20442" lon="-1.55036">
        <ele>59</ele>
        <time>2021-10-09T13:04:18.000Z</time>
      </trkpt>
      <trkpt lat="47.20436" lon="-1.55053">
        <ele>58</ele>
        <time>2021-10-09T13:04:20.000Z</time>
      </trkpt>
      <trkpt lat="47.20429" lon="-1.5507">
        <ele>58</ele>
        <time>2021-10-09T13:04:22.000Z</time>
      </trkpt>
      <trkpt lat="47.20423" lon="-1.55087">
        <ele>56</ele>
        <time>2021-10-09T13:04:24.000Z</time>
      </trkpt>
      <trkpt lat="47.20417" lon="-1.55104">
        <ele>56</ele>
        <time>2021-10-09T13:04:26.000Z</time>
      </trkpt>
      <trkpt lat="47.20412" lon="-1.5512">
        <ele>56</ele>
        <time>2021-10-09T13:04:28.000Z</time>
      </trkpt>
      <trkpt lat="47.20407" lon="-1.55135">
        <ele>56</ele>
        <time>2021-10-09T13:04:30.000Z</time>
      </trkpt>
      <trkpt lat="47.20402" lon="-1.55148">
        <ele>56</ele>
        <time>2021-10-09T13:04:32.000Z</time>
      </trkpt>
      <trkpt lat="47.20396" lon="-1.55162">
        <ele>56</ele>
        <time>2021-10-09T13:04:34.000Z</time>
      </trkpt>
      <trkpt lat="47.20386" lon="-1.55176">
        <ele>56</ele>
        <time>2021-10-09T13:04:36.000Z</time>
      </trkpt>
      <trkpt lat="47.20373" lon="-1.55182">
        <ele>56</ele>
        <time>2021-10-09T13:04:38.000Z</time>
      </trkpt>
      <trkpt lat="47.20363" lon="-1.55193">
        <ele>55</ele>
        <time>2021-10-09T13:04:40.000Z</time>
      </trkpt>
      <trkpt lat="47.20352" lon="-1.55206">
        <ele>55</ele>
        <time>2021-10-09T13:04:42.000Z</time>
      </trkpt>
      <trkpt lat="47.2034" lon="-1.55219">
        <ele>55</ele>
        <time>2021-10-09T13:04:44.000Z</time>
      </trkpt>
      <trkpt lat="47.20329" lon="-1.55232">
        <ele>55</ele>
        <time>2021-10-09T13:04:46.000Z</time>
      </trkpt>
      <trkpt lat="47.2032" lon="-1.55245">
        <ele>56</ele>
        <time>2021-10-09T13:04:48.000Z</time>
      </trkpt>
      <trkpt lat="47.20309" lon="-1.55257">
        <ele>58</ele>
        <time>2021-10-09T13:04:50.000Z</time>
      </trkpt>
      <trkpt lat="47.20299" lon="-1.55269">
        <ele>59</ele>
        <time>2021-10-09T13:04:52.000Z</time>
      </trkpt>
      <trkpt lat="47.2029" lon="-1.5528">
        <ele>60</ele>
        <time>2021-10-09T13:04:54.000Z</time>
      </trkpt>
      <trkpt lat="47.2028" lon="-1.5529">
        <ele>60</ele>
        <time>2021-10-09T13:04:56.000Z</time>
      </trkpt>
      <trkpt lat="47.20271" lon="-1.55302">
        <ele>60</ele>
        <time>2021-10-09T13:04:58.000Z</time>
      </trkpt>
      <trkpt lat="47.20261" lon="-1.55314">
        <ele>60</ele>
        <time>2021-10-09T13:05:00.000Z</time>
      </trkpt>
      <trkpt lat="47.20252" lon="-1.55328">
        <ele>59</ele>
        <time>2021-10-09T13:05:02.000Z</time>
      </trkpt>
      <trkpt lat="47.20244" lon="-1.55344">
        <ele>57</ele>
        <time>2021-10-09T13:05:04.000Z</time>
      </trkpt>
      <trkpt lat="47.20236" lon="-1.55356">
        <ele>57</ele>
        <time>2021-10-09T13:05:06.000Z</time>
      </trkpt>
      <trkpt lat="47.20227" lon="-1.55369">
        <ele>56</ele>
        <time>2021-10-09T13:05:08.000Z</time>
      </trkpt>
      <trkpt lat="47.20218" lon="-1.55382">
        <ele>56</ele>
        <time>2021-10-09T13:05:10.000Z</time>
      </trkpt>
      <trkpt lat="47.20208" lon="-1.55396">
        <ele>56</ele>
        <time>2021-10-09T13:05:12.000Z</time>
      </trkpt>
      <trkpt lat="47.20199" lon="-1.55408">
        <ele>55</ele>
        <time>2021-10-09T13:05:14.000Z</time>
      </trkpt>
      <trkpt lat="47.20191" lon="-1.55424">
        <ele>55</ele>
        <time>2021-10-09T13:05:17.000Z</time>
      </trkpt>
      <trkpt lat="47.20184" lon="-1.5544">
        <ele>56</ele>
        <time>2021-10-09T13:05:19.000Z</time>
      </trkpt>
      <trkpt lat="47.20178" lon="-1.55455">
        <ele>57</ele>
        <time>2021-10-09T13:05:21.000Z</time>
      </trkpt>
      <trkpt lat="47.20174" lon="-1.55474">
        <ele>57</ele>
        <time>2021-10-09T13:05:23.000Z</time>
      </trkpt>
      <trkpt lat="47.20174" lon="-1.55494">
        <ele>56</ele>
        <time>2021-10-09T13:05:25.000Z</time>
      </trkpt>
      <trkpt lat="47.20178" lon="-1.55511">
        <ele>56</ele>
        <time>2021-10-09T13:05:27.000Z</time>
      </trkpt>
      <trkpt lat="47.20184" lon="-1.55523">
        <ele>56</ele>
        <time>2021-10-09T13:05:29.000Z</time>
      </trkpt>
      <trkpt lat="47.20194" lon="-1.55532">
        <ele>55</ele>
        <time>2021-10-09T13:05:31.000Z</time>
      </trkpt>
      <trkpt lat="47.20205" lon="-1.55539">
        <ele>54</ele>
        <time>2021-10-09T13:05:33.000Z</time>
      </trkpt>
      <trkpt lat="47.20216" lon="-1.55545">
        <ele>54</ele>
        <time>2021-10-09T13:05:35.000Z</time>
      </trkpt>
      <trkpt lat="47.20227" lon="-1.5555">
        <ele>54</ele>
        <time>2021-10-09T13:05:37.000Z</time>
      </trkpt>
      <trkpt lat="47.20238" lon="-1.55555">
        <ele>54</ele>
        <time>2021-10-09T13:05:39.000Z</time>
      </trkpt>
      <trkpt lat="47.20249" lon="-1.55559">
        <ele>55</ele>
        <time>2021-10-09T13:05:41.000Z</time>
      </trkpt>
      <trkpt lat="47.20261" lon="-1.55564">
        <ele>55</ele>
        <time>2021-10-09T13:05:43.000Z</time>
      </trkpt>
      <trkpt lat="47.20272" lon="-1.55566">
        <ele>55</ele>
        <time>2021-10-09T13:05:45.000Z</time>
      </trkpt>
      <trkpt lat="47.20283" lon="-1.5557">
        <ele>55</ele>
        <time>2021-10-09T13:05:47.000Z</time>
      </trkpt>
      <trkpt lat="47.20292" lon="-1.55578">
        <ele>55</ele>
        <time>2021-10-09T13:05:49.000Z</time>
      </trkpt>
      <trkpt lat="47.20296" lon="-1.55591">
        <ele>55</ele>
        <time>2021-10-09T13:05:51.000Z</time>
      </trkpt>
      <trkpt lat="47.20295" lon="-1.55608">
        <ele>56</ele>
        <time>2021-10-09T13:05:53.000Z</time>
      </trkpt>
      <trkpt lat="47.20293" lon="-1.55627">
        <ele>55</ele>
        <time>2021-10-09T13:05:55.000Z</time>
      </trkpt>
      <trkpt lat="47.20291" lon="-1.55645">
        <ele>55</ele>
        <time>2021-10-09T13:05:57.000Z</time>
      </trkpt>
      <trkpt lat="47.20289" lon="-1.55664">
        <ele>55</ele>
        <time>2021-10-09T13:05:59.000Z</time>
      </trkpt>
      <trkpt lat="47.20287" lon="-1.55683">
        <ele>55</ele>
        <time>2021-10-09T13:06:01.000Z</time>
      </trkpt>
      <trkpt lat="47.20286" lon="-1.55701">
        <ele>55</ele>
        <time>2021-10-09T13:06:03.000Z</time>
      </trkpt>
      <trkpt lat="47.20284" lon="-1.5572">
        <ele>55</ele>
        <time>2021-10-09T13:06:05.000Z</time>
      </trkpt>
      <trkpt lat="47.20282" lon="-1.55738">
        <ele>54</ele>
        <time>2021-10-09T13:06:07.000Z</time>
      </trkpt>
      <trkpt lat="47.2028" lon="-1.55756">
        <ele>54</ele>
        <time>2021-10-09T13:06:09.000Z</time>
      </trkpt>
      <trkpt lat="47.20278" lon="-1.55774">
        <ele>54</ele>
        <time>2021-10-09T13:06:11.000Z</time>
      </trkpt>
      <trkpt lat="47.20276" lon="-1.55793">
        <ele>54</ele>
        <time>2021-10-09T13:06:13.000Z</time>
      </trkpt>
      <trkpt lat="47.20274" lon="-1.55811">
        <ele>54</ele>
        <time>2021-10-09T13:06:15.000Z</time>
      </trkpt>
      <trkpt lat="47.20272" lon="-1.5583">
        <ele>54</ele>
        <time>2021-10-09T13:06:17.000Z</time>
      </trkpt>
      <trkpt lat="47.2027" lon="-1.55848">
        <ele>54</ele>
        <time>2021-10-09T13:06:19.000Z</time>
      </trkpt>
      <trkpt lat="47.20268" lon="-1.55866">
        <ele>54</ele>
        <time>2021-10-09T13:06:21.000Z</time>
      </trkpt>
      <trkpt lat="47.20267" lon="-1.55885">
        <ele>54</ele>
        <time>2021-10-09T13:06:23.000Z</time>
      </trkpt>
      <trkpt lat="47.20265" lon="-1.55903">
        <ele>54</ele>
        <time>2021-10-09T13:06:25.000Z</time>
      </trkpt>
      <trkpt lat="47.20263" lon="-1.55921">
        <ele>54</ele>
        <time>2021-10-09T13:06:27.000Z</time>
      </trkpt>
      <trkpt lat="47.2026" lon="-1.55939">
        <ele>54</ele>
        <time>2021-10-09T13:06:29.000Z</time>
      </trkpt>
      <trkpt lat="47.20259" lon="-1.55958">
        <ele>53</ele>
        <time>2021-10-09T13:06:31.000Z</time>
      </trkpt>
      <trkpt lat="47.20257" lon="-1.55976">
        <ele>53</ele>
        <time>2021-10-09T13:06:33.000Z</time>
      </trkpt>
      <trkpt lat="47.20255" lon="-1.55994">
        <ele>53</ele>
        <time>2021-10-09T13:06:35.000Z</time>
      </trkpt>
      <trkpt lat="47.20253" lon="-1.56012">
        <ele>53</ele>
        <time>2021-10-09T13:06:37.000Z</time>
      </trkpt>
      <trkpt lat="47.20251" lon="-1.56031">
        <ele>53</ele>
        <time>2021-10-09T13:06:39.000Z</time>
      </trkpt>
      <trkpt lat="47.20249" lon="-1.56049">
        <ele>53</ele>
        <time>2021-10-09T13:06:41.000Z</time>
      </trkpt>
      <trkpt lat="47.20247" lon="-1.56068">
        <ele>53</ele>
        <time>2021-10-09T13:06:43.000Z</time>
      </trkpt>
      <trkpt lat="47.20245" lon="-1.56088">
        <ele>53</ele>
        <time>2021-10-09T13:06:45.000Z</time>
      </trkpt>
      <trkpt lat="47.20243" lon="-1.56106">
        <ele>52</ele>
        <time>2021-10-09T13:06:47.000Z</time>
      </trkpt>
      <trkpt lat="47.2024" lon="-1.56124">
        <ele>52</ele>
        <time>2021-10-09T13:06:49.000Z</time>
      </trkpt>
      <trkpt lat="47.20234" lon="-1.5614">
        <ele>51</ele>
        <time>2021-10-09T13:06:51.000Z</time>
      </trkpt>
      <trkpt lat="47.20225" lon="-1.56153">
        <ele>52</ele>
        <time>2021-10-09T13:06:53.000Z</time>
      </trkpt>
      <trkpt lat="47.20215" lon="-1.56164">
        <ele>52</ele>
        <time>2021-10-09T13:06:55.000Z</time>
      </trkpt>
      <trkpt lat="47.20203" lon="-1.5617">
        <ele>52</ele>
        <time>2021-10-09T13:06:57.000Z</time>
      </trkpt>
      <trkpt lat="47.20191" lon="-1.56176">
        <ele>53</ele>
        <time>2021-10-09T13:06:59.000Z</time>
      </trkpt>
      <trkpt lat="47.20182" lon="-1.56186">
        <ele>53</ele>
        <time>2021-10-09T13:07:01.000Z</time>
      </trkpt>
      <trkpt lat="47.20171" lon="-1.56193">
        <ele>53</ele>
        <time>2021-10-09T13:07:03.000Z</time>
      </trkpt>
      <trkpt lat="47.20159" lon="-1.56189">
        <ele>53</ele>
        <time>2021-10-09T13:07:05.000Z</time>
      </trkpt>
      <trkpt lat="47.20147" lon="-1.56181">
        <ele>53</ele>
        <time>2021-10-09T13:07:07.000Z</time>
      </trkpt>
      <trkpt lat="47.20135" lon="-1.56181">
        <ele>53</ele>
        <time>2021-10-09T13:07:09.000Z</time>
      </trkpt>
      <trkpt lat="47.20122" lon="-1.56179">
        <ele>53</ele>
        <time>2021-10-09T13:07:11.000Z</time>
      </trkpt>
      <trkpt lat="47.2011" lon="-1.56179">
        <ele>54</ele>
        <time>2021-10-09T13:07:13.000Z</time>
      </trkpt>
      <trkpt lat="47.20097" lon="-1.56179">
        <ele>54</ele>
        <time>2021-10-09T13:07:15.000Z</time>
      </trkpt>
      <trkpt lat="47.20085" lon="-1.56179">
        <ele>53</ele>
        <time>2021-10-09T13:07:17.000Z</time>
      </trkpt>
      <trkpt lat="47.20073" lon="-1.56179">
        <ele>54</ele>
        <time>2021-10-09T13:07:19.000Z</time>
      </trkpt>
      <trkpt lat="47.2006" lon="-1.56181">
        <ele>53</ele>
        <time>2021-10-09T13:07:21.000Z</time>
      </trkpt>
      <trkpt lat="47.20047" lon="-1.56182">
        <ele>53</ele>
        <time>2021-10-09T13:07:23.000Z</time>
      </trkpt>
      <trkpt lat="47.20035" lon="-1.56182">
        <ele>53</ele>
        <time>2021-10-09T13:07:25.000Z</time>
      </trkpt>
      <trkpt lat="47.20022" lon="-1.56182">
        <ele>53</ele>
        <time>2021-10-09T13:07:27.000Z</time>
      </trkpt>
      <trkpt lat="47.2001" lon="-1.56185">
        <ele>53</ele>
        <time>2021-10-09T13:07:29.000Z</time>
      </trkpt>
      <trkpt lat="47.19999" lon="-1.56189">
        <ele>54</ele>
        <time>2021-10-09T13:07:31.000Z</time>
      </trkpt>
      <trkpt lat="47.19987" lon="-1.56192">
        <ele>54</ele>
        <time>2021-10-09T13:07:33.000Z</time>
      </trkpt>
      <trkpt lat="47.19975" lon="-1.56184">
        <ele>54</ele>
        <time>2021-10-09T13:07:35.000Z</time>
      </trkpt>
      <trkpt lat="47.1997" lon="-1.56167">
        <ele>54</ele>
        <time>2021-10-09T13:07:37.000Z</time>
      </trkpt>
      <trkpt lat="47.19959" lon="-1.56163">
        <ele>54</ele>
        <time>2021-10-09T13:07:39.000Z</time>
      </trkpt>
      <trkpt lat="47.19947" lon="-1.56167">
        <ele>55</ele>
        <time>2021-10-09T13:07:41.000Z</time>
      </trkpt>
      <trkpt lat="47.19935" lon="-1.56168">
        <ele>56</ele>
        <time>2021-10-09T13:07:43.000Z</time>
      </trkpt>
      <trkpt lat="47.19923" lon="-1.56171">
        <ele>56</ele>
        <time>2021-10-09T13:07:45.000Z</time>
      </trkpt>
      <trkpt lat="47.19911" lon="-1.56173">
        <ele>56</ele>
        <time>2021-10-09T13:07:47.000Z</time>
      </trkpt>
      <trkpt lat="47.19899" lon="-1.56176">
        <ele>57</ele>
        <time>2021-10-09T13:07:49.000Z</time>
      </trkpt>
      <trkpt lat="47.19887" lon="-1.56179">
        <ele>57</ele>
        <time>2021-10-09T13:07:51.000Z</time>
      </trkpt>
      <trkpt lat="47.19875" lon="-1.56181">
        <ele>58</ele>
        <time>2021-10-09T13:07:53.000Z</time>
      </trkpt>
      <trkpt lat="47.19863" lon="-1.56183">
        <ele>58</ele>
        <time>2021-10-09T13:07:55.000Z</time>
      </trkpt>
      <trkpt lat="47.19851" lon="-1.56186">
        <ele>59</ele>
        <time>2021-10-09T13:07:57.000Z</time>
      </trkpt>
      <trkpt lat="47.1984" lon="-1.56187">
        <ele>59</ele>
        <time>2021-10-09T13:07:59.000Z</time>
      </trkpt>
      <trkpt lat="47.19827" lon="-1.56189">
        <ele>59</ele>
        <time>2021-10-09T13:08:01.000Z</time>
      </trkpt>
      <trkpt lat="47.19816" lon="-1.56191">
        <ele>60</ele>
        <time>2021-10-09T13:08:03.000Z</time>
      </trkpt>
      <trkpt lat="47.19804" lon="-1.56193">
        <ele>60</ele>
        <time>2021-10-09T13:08:05.000Z</time>
      </trkpt>
      <trkpt lat="47.19792" lon="-1.56195">
        <ele>60</ele>
        <time>2021-10-09T13:08:07.000Z</time>
      </trkpt>
      <trkpt lat="47.1978" lon="-1.56198">
        <ele>60</ele>
        <time>2021-10-09T13:08:09.000Z</time>
      </trkpt>
      <trkpt lat="47.19767" lon="-1.562">
        <ele>60</ele>
        <time>2021-10-09T13:08:11.000Z</time>
      </trkpt>
      <trkpt lat="47.19754" lon="-1.56203">
        <ele>59</ele>
        <time>2021-10-09T13:08:13.000Z</time>
      </trkpt>
      <trkpt lat="47.19741" lon="-1.56206">
        <ele>58</ele>
        <time>2021-10-09T13:08:15.000Z</time>
      </trkpt>
      <trkpt lat="47.19726" lon="-1.56208">
        <ele>58</ele>
        <time>2021-10-09T13:08:17.000Z</time>
      </trkpt>
      <trkpt lat="47.1971" lon="-1.56211">
        <ele>57</ele>
        <time>2021-10-09T13:08:19.000Z</time>
      </trkpt>
      <trkpt lat="47.19693" lon="-1.56214">
        <ele>56</ele>
        <time>2021-10-09T13:08:21.000Z</time>
      </trkpt>
      <trkpt lat="47.19676" lon="-1.56218">
        <ele>55</ele>
        <time>2021-10-09T13:08:23.000Z</time>
      </trkpt>
      <trkpt lat="47.19658" lon="-1.56224">
        <ele>54</ele>
        <time>2021-10-09T13:08:25.000Z</time>
      </trkpt>
      <trkpt lat="47.19649" lon="-1.56226">
        <ele>53</ele>
        <time>2021-10-09T13:08:26.000Z</time>
      </trkpt>
      <trkpt lat="47.1964" lon="-1.56232">
        <ele>53</ele>
        <time>2021-10-09T13:08:27.000Z</time>
      </trkpt>
      <trkpt lat="47.19633" lon="-1.56255">
        <ele>53</ele>
        <time>2021-10-09T13:08:29.000Z</time>
      </trkpt>
      <trkpt lat="47.19633" lon="-1.56268">
        <ele>52</ele>
        <time>2021-10-09T13:08:30.000Z</time>
      </trkpt>
      <trkpt lat="47.19633" lon="-1.56281">
        <ele>51</ele>
        <time>2021-10-09T13:08:31.000Z</time>
      </trkpt>
      <trkpt lat="47.19632" lon="-1.56305">
        <ele>51</ele>
        <time>2021-10-09T13:08:33.000Z</time>
      </trkpt>
      <trkpt lat="47.1963" lon="-1.56327">
        <ele>52</ele>
        <time>2021-10-09T13:08:35.000Z</time>
      </trkpt>
      <trkpt lat="47.19629" lon="-1.56348">
        <ele>52</ele>
        <time>2021-10-09T13:08:37.000Z</time>
      </trkpt>
      <trkpt lat="47.19629" lon="-1.56369">
        <ele>52</ele>
        <time>2021-10-09T13:08:39.000Z</time>
      </trkpt>
      <trkpt lat="47.19629" lon="-1.56392">
        <ele>52</ele>
        <time>2021-10-09T13:08:41.000Z</time>
      </trkpt>
      <trkpt lat="47.19631" lon="-1.56413">
        <ele>51</ele>
        <time>2021-10-09T13:08:43.000Z</time>
      </trkpt>
      <trkpt lat="47.19631" lon="-1.56433">
        <ele>51</ele>
        <time>2021-10-09T13:08:45.000Z</time>
      </trkpt>
      <trkpt lat="47.19632" lon="-1.56454">
        <ele>51</ele>
        <time>2021-10-09T13:08:47.000Z</time>
      </trkpt>
      <trkpt lat="47.19633" lon="-1.56474">
        <ele>51</ele>
        <time>2021-10-09T13:08:49.000Z</time>
      </trkpt>
      <trkpt lat="47.19633" lon="-1.56494">
        <ele>51</ele>
        <time>2021-10-09T13:08:51.000Z</time>
      </trkpt>
      <trkpt lat="47.19633" lon="-1.56514">
        <ele>50</ele>
        <time>2021-10-09T13:08:53.000Z</time>
      </trkpt>
      <trkpt lat="47.19632" lon="-1.56534">
        <ele>51</ele>
        <time>2021-10-09T13:08:55.000Z</time>
      </trkpt>
      <trkpt lat="47.19631" lon="-1.56554">
        <ele>51</ele>
        <time>2021-10-09T13:08:57.000Z</time>
      </trkpt>
      <trkpt lat="47.1963" lon="-1.56574">
        <ele>51</ele>
        <time>2021-10-09T13:08:59.000Z</time>
      </trkpt>
      <trkpt lat="47.19629" lon="-1.56594">
        <ele>52</ele>
        <time>2021-10-09T13:09:01.000Z</time>
      </trkpt>
      <trkpt lat="47.19628" lon="-1.56614">
        <ele>53</ele>
        <time>2021-10-09T13:09:03.000Z</time>
      </trkpt>
      <trkpt lat="47.19627" lon="-1.56634">
        <ele>53</ele>
        <time>2021-10-09T13:09:05.000Z</time>
      </trkpt>
      <trkpt lat="47.19625" lon="-1.56654">
        <ele>53</ele>
        <time>2021-10-09T13:09:07.000Z</time>
      </trkpt>
      <trkpt lat="47.19625" lon="-1.56673">
        <ele>54</ele>
        <time>2021-10-09T13:09:09.000Z</time>
      </trkpt>
      <trkpt lat="47.19624" lon="-1.56693">
        <ele>54</ele>
        <time>2021-10-09T13:09:11.000Z</time>
      </trkpt>
      <trkpt lat="47.19622" lon="-1.56712">
        <ele>53</ele>
        <time>2021-10-09T13:09:13.000Z</time>
      </trkpt>
      <trkpt lat="47.19621" lon="-1.56731">
        <ele>53</ele>
        <time>2021-10-09T13:09:15.000Z</time>
      </trkpt>
      <trkpt lat="47.1962" lon="-1.56752">
        <ele>53</ele>
        <time>2021-10-09T13:09:17.000Z</time>
      </trkpt>
      <trkpt lat="47.1962" lon="-1.56772">
        <ele>52</ele>
        <time>2021-10-09T13:09:19.000Z</time>
      </trkpt>
      <trkpt lat="47.19618" lon="-1.56792">
        <ele>52</ele>
        <time>2021-10-09T13:09:21.000Z</time>
      </trkpt>
      <trkpt lat="47.19616" lon="-1.56812">
        <ele>52</ele>
        <time>2021-10-09T13:09:23.000Z</time>
      </trkpt>
      <trkpt lat="47.19615" lon="-1.56832">
        <ele>52</ele>
        <time>2021-10-09T13:09:25.000Z</time>
      </trkpt>
      <trkpt lat="47.19614" lon="-1.56851">
        <ele>52</ele>
        <time>2021-10-09T13:09:27.000Z</time>
      </trkpt>
      <trkpt lat="47.19612" lon="-1.5687">
        <ele>52</ele>
        <time>2021-10-09T13:09:29.000Z</time>
      </trkpt>
      <trkpt lat="47.19611" lon="-1.5689">
        <ele>52</ele>
        <time>2021-10-09T13:09:31.000Z</time>
      </trkpt>
      <trkpt lat="47.1961" lon="-1.56909">
        <ele>52</ele>
        <time>2021-10-09T13:09:33.000Z</time>
      </trkpt>
      <trkpt lat="47.19608" lon="-1.56929">
        <ele>51</ele>
        <time>2021-10-09T13:09:35.000Z</time>
      </trkpt>
      <trkpt lat="47.19608" lon="-1.56949">
        <ele>51</ele>
        <time>2021-10-09T13:09:37.000Z</time>
      </trkpt>
      <trkpt lat="47.19606" lon="-1.56968">
        <ele>51</ele>
        <time>2021-10-09T13:09:39.000Z</time>
      </trkpt>
      <trkpt lat="47.19605" lon="-1.56989">
        <ele>51</ele>
        <time>2021-10-09T13:09:41.000Z</time>
      </trkpt>
      <trkpt lat="47.19603" lon="-1.57008">
        <ele>52</ele>
        <time>2021-10-09T13:09:43.000Z</time>
      </trkpt>
      <trkpt lat="47.19602" lon="-1.57028">
        <ele>52</ele>
        <time>2021-10-09T13:09:45.000Z</time>
      </trkpt>
      <trkpt lat="47.19601" lon="-1.57047">
        <ele>52</ele>
        <time>2021-10-09T13:09:47.000Z</time>
      </trkpt>
      <trkpt lat="47.19601" lon="-1.57066">
        <ele>52</ele>
        <time>2021-10-09T13:09:49.000Z</time>
      </trkpt>
      <trkpt lat="47.19599" lon="-1.57084">
        <ele>52</ele>
        <time>2021-10-09T13:09:51.000Z</time>
      </trkpt>
      <trkpt lat="47.19597" lon="-1.57102">
        <ele>52</ele>
        <time>2021-10-09T13:09:53.000Z</time>
      </trkpt>
      <trkpt lat="47.19596" lon="-1.57116">
        <ele>53</ele>
        <time>2021-10-09T13:09:55.000Z</time>
      </trkpt>
      <trkpt lat="47.19594" lon="-1.57129">
        <ele>52</ele>
        <time>2021-10-09T13:09:58.000Z</time>
      </trkpt>
      <trkpt lat="47.19582" lon="-1.57125">
        <ele>53</ele>
        <time>2021-10-09T13:10:01.000Z</time>
      </trkpt>
      <trkpt lat="47.19568" lon="-1.5712">
        <ele>54</ele>
        <time>2021-10-09T13:10:03.000Z</time>
      </trkpt>
      <trkpt lat="47.19554" lon="-1.57117">
        <ele>54</ele>
        <time>2021-10-09T13:10:05.000Z</time>
      </trkpt>
      <trkpt lat="47.1954" lon="-1.57114">
        <ele>55</ele>
        <time>2021-10-09T13:10:07.000Z</time>
      </trkpt>
      <trkpt lat="47.19526" lon="-1.57111">
        <ele>54</ele>
        <time>2021-10-09T13:10:09.000Z</time>
      </trkpt>
      <trkpt lat="47.19513" lon="-1.57109">
        <ele>55</ele>
        <time>2021-10-09T13:10:11.000Z</time>
      </trkpt>
      <trkpt lat="47.19501" lon="-1.57106">
        <ele>54</ele>
        <time>2021-10-09T13:10:13.000Z</time>
      </trkpt>
      <trkpt lat="47.1949" lon="-1.57103">
        <ele>54</ele>
        <time>2021-10-09T13:10:15.000Z</time>
      </trkpt>
      <trkpt lat="47.19481" lon="-1.57101">
        <ele>54</ele>
        <time>2021-10-09T13:10:18.000Z</time>
      </trkpt>
      <trkpt lat="47.19471" lon="-1.57103">
        <ele>54</ele>
        <time>2021-10-09T13:10:21.000Z</time>
      </trkpt>
      <trkpt lat="47.19459" lon="-1.57106">
        <ele>54</ele>
        <time>2021-10-09T13:10:23.000Z</time>
      </trkpt>
      <trkpt lat="47.19447" lon="-1.57099">
        <ele>54</ele>
        <time>2021-10-09T13:10:25.000Z</time>
      </trkpt>
      <trkpt lat="47.19435" lon="-1.57092">
        <ele>54</ele>
        <time>2021-10-09T13:10:27.000Z</time>
      </trkpt>
      <trkpt lat="47.19423" lon="-1.57088">
        <ele>55</ele>
        <time>2021-10-09T13:10:29.000Z</time>
      </trkpt>
      <trkpt lat="47.19411" lon="-1.57085">
        <ele>55</ele>
        <time>2021-10-09T13:10:31.000Z</time>
      </trkpt>
      <trkpt lat="47.19399" lon="-1.57082">
        <ele>55</ele>
        <time>2021-10-09T13:10:33.000Z</time>
      </trkpt>
      <trkpt lat="47.19386" lon="-1.57078">
        <ele>56</ele>
        <time>2021-10-09T13:10:35.000Z</time>
      </trkpt>
      <trkpt lat="47.19373" lon="-1.57075">
        <ele>55</ele>
        <time>2021-10-09T13:10:37.000Z</time>
      </trkpt>
      <trkpt lat="47.19361" lon="-1.57072">
        <ele>55</ele>
        <time>2021-10-09T13:10:39.000Z</time>
      </trkpt>
      <trkpt lat="47.19351" lon="-1.57071">
        <ele>55</ele>
        <time>2021-10-09T13:10:41.000Z</time>
      </trkpt>
      <trkpt lat="47.19338" lon="-1.57076">
        <ele>55</ele>
        <time>2021-10-09T13:10:44.000Z</time>
      </trkpt>
      <trkpt lat="47.19325" lon="-1.57077">
        <ele>56</ele>
        <time>2021-10-09T13:10:46.000Z</time>
      </trkpt>
      <trkpt lat="47.19313" lon="-1.57071">
        <ele>56</ele>
        <time>2021-10-09T13:10:48.000Z</time>
      </trkpt>
      <trkpt lat="47.19303" lon="-1.57063">
        <ele>56</ele>
        <time>2021-10-09T13:10:50.000Z</time>
      </trkpt>
      <trkpt lat="47.19293" lon="-1.57058">
        <ele>56</ele>
        <time>2021-10-09T13:10:52.000Z</time>
      </trkpt>
      <trkpt lat="47.19279" lon="-1.57054">
        <ele>56</ele>
        <time>2021-10-09T13:10:55.000Z</time>
      </trkpt>
      <trkpt lat="47.19266" lon="-1.57055">
        <ele>57</ele>
        <time>2021-10-09T13:10:57.000Z</time>
      </trkpt>
      <trkpt lat="47.19253" lon="-1.57049">
        <ele>57</ele>
        <time>2021-10-09T13:10:59.000Z</time>
      </trkpt>
      <trkpt lat="47.19239" lon="-1.57042">
        <ele>56</ele>
        <time>2021-10-09T13:11:01.000Z</time>
      </trkpt>
      <trkpt lat="47.19224" lon="-1.57039">
        <ele>56</ele>
        <time>2021-10-09T13:11:03.000Z</time>
      </trkpt>
      <trkpt lat="47.19211" lon="-1.57036">
        <ele>57</ele>
        <time>2021-10-09T13:11:05.000Z</time>
      </trkpt>
      <trkpt lat="47.19197" lon="-1.57034">
        <ele>57</ele>
        <time>2021-10-09T13:11:07.000Z</time>
      </trkpt>
      <trkpt lat="47.19185" lon="-1.57031">
        <ele>58</ele>
        <time>2021-10-09T13:11:09.000Z</time>
      </trkpt>
      <trkpt lat="47.19173" lon="-1.57027">
        <ele>59</ele>
        <time>2021-10-09T13:11:11.000Z</time>
      </trkpt>
      <trkpt lat="47.19163" lon="-1.57022">
        <ele>59</ele>
        <time>2021-10-09T13:11:13.000Z</time>
      </trkpt>
      <trkpt lat="47.19154" lon="-1.57019">
        <ele>60</ele>
        <time>2021-10-09T13:11:15.000Z</time>
      </trkpt>
      <trkpt lat="47.19143" lon="-1.57018">
        <ele>59</ele>
        <time>2021-10-09T13:11:17.000Z</time>
      </trkpt>
      <trkpt lat="47.1913" lon="-1.57024">
        <ele>59</ele>
        <time>2021-10-09T13:11:20.000Z</time>
      </trkpt>
      <trkpt lat="47.19123" lon="-1.57039">
        <ele>58</ele>
        <time>2021-10-09T13:11:22.000Z</time>
      </trkpt>
      <trkpt lat="47.19117" lon="-1.57054">
        <ele>58</ele>
        <time>2021-10-09T13:11:24.000Z</time>
      </trkpt>
      <trkpt lat="47.19112" lon="-1.5707">
        <ele>58</ele>
        <time>2021-10-09T13:11:26.000Z</time>
      </trkpt>
      <trkpt lat="47.19106" lon="-1.57088">
        <ele>57</ele>
        <time>2021-10-09T13:11:28.000Z</time>
      </trkpt>
      <trkpt lat="47.19102" lon="-1.57104">
        <ele>57</ele>
        <time>2021-10-09T13:11:30.000Z</time>
      </trkpt>
      <trkpt lat="47.19095" lon="-1.57119">
        <ele>55</ele>
        <time>2021-10-09T13:11:32.000Z</time>
      </trkpt>
      <trkpt lat="47.19088" lon="-1.57133">
        <ele>54</ele>
        <time>2021-10-09T13:11:34.000Z</time>
      </trkpt>
      <trkpt lat="47.19081" lon="-1.57148">
        <ele>54</ele>
        <time>2021-10-09T13:11:36.000Z</time>
      </trkpt>
      <trkpt lat="47.19075" lon="-1.57164">
        <ele>54</ele>
        <time>2021-10-09T13:11:38.000Z</time>
      </trkpt>
      <trkpt lat="47.19068" lon="-1.57181">
        <ele>53</ele>
        <time>2021-10-09T13:11:40.000Z</time>
      </trkpt>
      <trkpt lat="47.1906" lon="-1.57195">
        <ele>54</ele>
        <time>2021-10-09T13:11:42.000Z</time>
      </trkpt>
      <trkpt lat="47.1905" lon="-1.57208">
        <ele>54</ele>
        <time>2021-10-09T13:11:44.000Z</time>
      </trkpt>
      <trkpt lat="47.19041" lon="-1.57218">
        <ele>54</ele>
        <time>2021-10-09T13:11:46.000Z</time>
      </trkpt>
      <trkpt lat="47.19033" lon="-1.57228">
        <ele>54</ele>
        <time>2021-10-09T13:11:48.000Z</time>
      </trkpt>
      <trkpt lat="47.19025" lon="-1.57236">
        <ele>54</ele>
        <time>2021-10-09T13:11:50.000Z</time>
      </trkpt>
      <trkpt lat="47.19016" lon="-1.57242">
        <ele>54</ele>
        <time>2021-10-09T13:11:52.000Z</time>
      </trkpt>
      <trkpt lat="47.19006" lon="-1.57247">
        <ele>55</ele>
        <time>2021-10-09T13:11:54.000Z</time>
      </trkpt>
      <trkpt lat="47.18996" lon="-1.57252">
        <ele>55</ele>
        <time>2021-10-09T13:11:56.000Z</time>
      </trkpt>
      <trkpt lat="47.18987" lon="-1.57257">
        <ele>55</ele>
        <time>2021-10-09T13:11:58.000Z</time>
      </trkpt>
      <trkpt lat="47.18977" lon="-1.57259">
        <ele>56</ele>
        <time>2021-10-09T13:12:00.000Z</time>
      </trkpt>
      <trkpt lat="47.18967" lon="-1.57259">
        <ele>57</ele>
        <time>2021-10-09T13:12:02.000Z</time>
      </trkpt>
      <trkpt lat="47.18957" lon="-1.5726">
        <ele>57</ele>
        <time>2021-10-09T13:12:04.000Z</time>
      </trkpt>
      <trkpt lat="47.18945" lon="-1.5726">
        <ele>57</ele>
        <time>2021-10-09T13:12:07.000Z</time>
      </trkpt>
      <trkpt lat="47.18936" lon="-1.5726">
        <ele>57</ele>
        <time>2021-10-09T13:12:09.000Z</time>
      </trkpt>
      <trkpt lat="47.18922" lon="-1.57261">
        <ele>59</ele>
        <time>2021-10-09T13:12:12.000Z</time>
      </trkpt>
      <trkpt lat="47.18911" lon="-1.57262">
        <ele>59</ele>
        <time>2021-10-09T13:12:14.000Z</time>
      </trkpt>
      <trkpt lat="47.18901" lon="-1.57263">
        <ele>60</ele>
        <time>2021-10-09T13:12:16.000Z</time>
      </trkpt>
      <trkpt lat="47.18891" lon="-1.57263">
        <ele>60</ele>
        <time>2021-10-09T13:12:18.000Z</time>
      </trkpt>
      <trkpt lat="47.18879" lon="-1.57265">
        <ele>60</ele>
        <time>2021-10-09T13:12:20.000Z</time>
      </trkpt>
      <trkpt lat="47.18869" lon="-1.57269">
        <ele>60</ele>
        <time>2021-10-09T13:12:22.000Z</time>
      </trkpt>
      <trkpt lat="47.1886" lon="-1.57278">
        <ele>61</ele>
        <time>2021-10-09T13:12:24.000Z</time>
      </trkpt>
      <trkpt lat="47.1885" lon="-1.57289">
        <ele>61</ele>
        <time>2021-10-09T13:12:26.000Z</time>
      </trkpt>
      <trkpt lat="47.18841" lon="-1.57303">
        <ele>60</ele>
        <time>2021-10-09T13:12:28.000Z</time>
      </trkpt>
      <trkpt lat="47.18834" lon="-1.5732">
        <ele>60</ele>
        <time>2021-10-09T13:12:30.000Z</time>
      </trkpt>
      <trkpt lat="47.18825" lon="-1.57347">
        <ele>59</ele>
        <time>2021-10-09T13:12:33.000Z</time>
      </trkpt>
      <trkpt lat="47.18818" lon="-1.57365">
        <ele>59</ele>
        <time>2021-10-09T13:12:35.000Z</time>
      </trkpt>
      <trkpt lat="47.18805" lon="-1.57391">
        <ele>58</ele>
        <time>2021-10-09T13:12:38.000Z</time>
      </trkpt>
      <trkpt lat="47.18793" lon="-1.57404">
        <ele>57</ele>
        <time>2021-10-09T13:12:40.000Z</time>
      </trkpt>
      <trkpt lat="47.18779" lon="-1.57413">
        <ele>56</ele>
        <time>2021-10-09T13:12:42.000Z</time>
      </trkpt>
      <trkpt lat="47.18757" lon="-1.57425">
        <ele>55</ele>
        <time>2021-10-09T13:12:45.000Z</time>
      </trkpt>
      <trkpt lat="47.18742" lon="-1.57433">
        <ele>55</ele>
        <time>2021-10-09T13:12:47.000Z</time>
      </trkpt>
      <trkpt lat="47.18729" lon="-1.5744">
        <ele>55</ele>
        <time>2021-10-09T13:12:49.000Z</time>
      </trkpt>
      <trkpt lat="47.18717" lon="-1.57446">
        <ele>55</ele>
        <time>2021-10-09T13:12:51.000Z</time>
      </trkpt>
      <trkpt lat="47.187" lon="-1.57454">
        <ele>54</ele>
        <time>2021-10-09T13:12:54.000Z</time>
      </trkpt>
      <trkpt lat="47.18689" lon="-1.57461">
        <ele>54</ele>
        <time>2021-10-09T13:12:56.000Z</time>
      </trkpt>
      <trkpt lat="47.18679" lon="-1.57468">
        <ele>54</ele>
        <time>2021-10-09T13:12:58.000Z</time>
      </trkpt>
      <trkpt lat="47.1867" lon="-1.57476">
        <ele>54</ele>
        <time>2021-10-09T13:13:00.000Z</time>
      </trkpt>
      <trkpt lat="47.18662" lon="-1.57485">
        <ele>54</ele>
        <time>2021-10-09T13:13:02.000Z</time>
      </trkpt>
      <trkpt lat="47.18654" lon="-1.57495">
        <ele>54</ele>
        <time>2021-10-09T13:13:04.000Z</time>
      </trkpt>
      <trkpt lat="47.18647" lon="-1.57507">
        <ele>55</ele>
        <time>2021-10-09T13:13:06.000Z</time>
      </trkpt>
      <trkpt lat="47.18642" lon="-1.5752">
        <ele>56</ele>
        <time>2021-10-09T13:13:08.000Z</time>
      </trkpt>
      <trkpt lat="47.18637" lon="-1.57533">
        <ele>57</ele>
        <time>2021-10-09T13:13:10.000Z</time>
      </trkpt>
      <trkpt lat="47.18633" lon="-1.57547">
        <ele>58</ele>
        <time>2021-10-09T13:13:12.000Z</time>
      </trkpt>
      <trkpt lat="47.18628" lon="-1.57561">
        <ele>59</ele>
        <time>2021-10-09T13:13:14.000Z</time>
      </trkpt>
      <trkpt lat="47.18625" lon="-1.57575">
        <ele>59</ele>
        <time>2021-10-09T13:13:16.000Z</time>
      </trkpt>
      <trkpt lat="47.18623" lon="-1.5759">
        <ele>59</ele>
        <time>2021-10-09T13:13:18.000Z</time>
      </trkpt>
      <trkpt lat="47.18622" lon="-1.57606">
        <ele>60</ele>
        <time>2021-10-09T13:13:20.000Z</time>
      </trkpt>
      <trkpt lat="47.18622" lon="-1.57622">
        <ele>61</ele>
        <time>2021-10-09T13:13:22.000Z</time>
      </trkpt>
      <trkpt lat="47.18623" lon="-1.57638">
        <ele>61</ele>
        <time>2021-10-09T13:13:24.000Z</time>
      </trkpt>
      <trkpt lat="47.18624" lon="-1.57653">
        <ele>62</ele>
        <time>2021-10-09T13:13:26.000Z</time>
      </trkpt>
      <trkpt lat="47.18625" lon="-1.57668">
        <ele>62</ele>
        <time>2021-10-09T13:13:28.000Z</time>
      </trkpt>
      <trkpt lat="47.18626" lon="-1.57684">
        <ele>62</ele>
        <time>2021-10-09T13:13:30.000Z</time>
      </trkpt>
      <trkpt lat="47.18628" lon="-1.577">
        <ele>62</ele>
        <time>2021-10-09T13:13:32.000Z</time>
      </trkpt>
      <trkpt lat="47.1863" lon="-1.57716">
        <ele>62</ele>
        <time>2021-10-09T13:13:34.000Z</time>
      </trkpt>
      <trkpt lat="47.18631" lon="-1.57733">
        <ele>62</ele>
        <time>2021-10-09T13:13:36.000Z</time>
      </trkpt>
      <trkpt lat="47.18632" lon="-1.57748">
        <ele>62</ele>
        <time>2021-10-09T13:13:38.000Z</time>
      </trkpt>
      <trkpt lat="47.18634" lon="-1.57763">
        <ele>63</ele>
        <time>2021-10-09T13:13:40.000Z</time>
      </trkpt>
      <trkpt lat="47.18635" lon="-1.5778">
        <ele>63</ele>
        <time>2021-10-09T13:13:42.000Z</time>
      </trkpt>
      <trkpt lat="47.18636" lon="-1.57796">
        <ele>63</ele>
        <time>2021-10-09T13:13:44.000Z</time>
      </trkpt>
      <trkpt lat="47.18637" lon="-1.57812">
        <ele>63</ele>
        <time>2021-10-09T13:13:46.000Z</time>
      </trkpt>
      <trkpt lat="47.18639" lon="-1.57828">
        <ele>63</ele>
        <time>2021-10-09T13:13:48.000Z</time>
      </trkpt>
      <trkpt lat="47.18638" lon="-1.57845">
        <ele>63</ele>
        <time>2021-10-09T13:13:50.000Z</time>
      </trkpt>
      <trkpt lat="47.18638" lon="-1.57862">
        <ele>63</ele>
        <time>2021-10-09T13:13:52.000Z</time>
      </trkpt>
      <trkpt lat="47.18636" lon="-1.57878">
        <ele>63</ele>
        <time>2021-10-09T13:13:54.000Z</time>
      </trkpt>
      <trkpt lat="47.18633" lon="-1.57894">
        <ele>63</ele>
        <time>2021-10-09T13:13:56.000Z</time>
      </trkpt>
      <trkpt lat="47.1863" lon="-1.57911">
        <ele>63</ele>
        <time>2021-10-09T13:13:58.000Z</time>
      </trkpt>
      <trkpt lat="47.18628" lon="-1.57927">
        <ele>62</ele>
        <time>2021-10-09T13:14:00.000Z</time>
      </trkpt>
      <trkpt lat="47.18626" lon="-1.57945">
        <ele>62</ele>
        <time>2021-10-09T13:14:02.000Z</time>
      </trkpt>
      <trkpt lat="47.18623" lon="-1.57961">
        <ele>62</ele>
        <time>2021-10-09T13:14:04.000Z</time>
      </trkpt>
      <trkpt lat="47.1862" lon="-1.57978">
        <ele>63</ele>
        <time>2021-10-09T13:14:06.000Z</time>
      </trkpt>
      <trkpt lat="47.18617" lon="-1.57993">
        <ele>63</ele>
        <time>2021-10-09T13:14:08.000Z</time>
      </trkpt>
      <trkpt lat="47.18615" lon="-1.58008">
        <ele>63</ele>
        <time>2021-10-09T13:14:10.000Z</time>
      </trkpt>
      <trkpt lat="47.18612" lon="-1.58024">
        <ele>64</ele>
        <time>2021-10-09T13:14:12.000Z</time>
      </trkpt>
      <trkpt lat="47.1861" lon="-1.58041">
        <ele>64</ele>
        <time>2021-10-09T13:14:14.000Z</time>
      </trkpt>
      <trkpt lat="47.18607" lon="-1.58056">
        <ele>64</ele>
        <time>2021-10-09T13:14:16.000Z</time>
      </trkpt>
      <trkpt lat="47.18605" lon="-1.5807">
        <ele>64</ele>
        <time>2021-10-09T13:14:20.000Z</time>
      </trkpt>
      <trkpt lat="47.18598" lon="-1.58083">
        <ele>64</ele>
        <time>2021-10-09T13:14:23.000Z</time>
      </trkpt>
      <trkpt lat="47.18586" lon="-1.58077">
        <ele>64</ele>
        <time>2021-10-09T13:14:25.000Z</time>
      </trkpt>
      <trkpt lat="47.18574" lon="-1.58073">
        <ele>64</ele>
        <time>2021-10-09T13:14:27.000Z</time>
      </trkpt>
      <trkpt lat="47.18562" lon="-1.58069">
        <ele>64</ele>
        <time>2021-10-09T13:14:29.000Z</time>
      </trkpt>
      <trkpt lat="47.18551" lon="-1.58065">
        <ele>64</ele>
        <time>2021-10-09T13:14:31.000Z</time>
      </trkpt>
      <trkpt lat="47.18539" lon="-1.58061">
        <ele>64</ele>
        <time>2021-10-09T13:14:33.000Z</time>
      </trkpt>
      <trkpt lat="47.18527" lon="-1.58056">
        <ele>64</ele>
        <time>2021-10-09T13:14:35.000Z</time>
      </trkpt>
      <trkpt lat="47.18516" lon="-1.58052">
        <ele>63</ele>
        <time>2021-10-09T13:14:37.000Z</time>
      </trkpt>
      <trkpt lat="47.18503" lon="-1.58048">
        <ele>64</ele>
        <time>2021-10-09T13:14:39.000Z</time>
      </trkpt>
      <trkpt lat="47.18491" lon="-1.58044">
        <ele>65</ele>
        <time>2021-10-09T13:14:41.000Z</time>
      </trkpt>
      <trkpt lat="47.1848" lon="-1.5804">
        <ele>65</ele>
        <time>2021-10-09T13:14:43.000Z</time>
      </trkpt>
      <trkpt lat="47.18469" lon="-1.58036">
        <ele>66</ele>
        <time>2021-10-09T13:14:45.000Z</time>
      </trkpt>
      <trkpt lat="47.18458" lon="-1.58032">
        <ele>66</ele>
        <time>2021-10-09T13:14:47.000Z</time>
      </trkpt>
      <trkpt lat="47.18446" lon="-1.58028">
        <ele>66</ele>
        <time>2021-10-09T13:14:49.000Z</time>
      </trkpt>
      <trkpt lat="47.18435" lon="-1.58024">
        <ele>66</ele>
        <time>2021-10-09T13:14:51.000Z</time>
      </trkpt>
      <trkpt lat="47.18423" lon="-1.58019">
        <ele>66</ele>
        <time>2021-10-09T13:14:53.000Z</time>
      </trkpt>
      <trkpt lat="47.18412" lon="-1.58016">
        <ele>67</ele>
        <time>2021-10-09T13:14:55.000Z</time>
      </trkpt>
      <trkpt lat="47.18401" lon="-1.58011">
        <ele>67</ele>
        <time>2021-10-09T13:14:57.000Z</time>
      </trkpt>
      <trkpt lat="47.18391" lon="-1.58008">
        <ele>67</ele>
        <time>2021-10-09T13:14:59.000Z</time>
      </trkpt>
      <trkpt lat="47.1838" lon="-1.58004">
        <ele>68</ele>
        <time>2021-10-09T13:15:01.000Z</time>
      </trkpt>
      <trkpt lat="47.18369" lon="-1.58002">
        <ele>68</ele>
        <time>2021-10-09T13:15:03.000Z</time>
      </trkpt>
      <trkpt lat="47.18358" lon="-1.57999">
        <ele>68</ele>
        <time>2021-10-09T13:15:05.000Z</time>
      </trkpt>
      <trkpt lat="47.18346" lon="-1.57998">
        <ele>69</ele>
        <time>2021-10-09T13:15:07.000Z</time>
      </trkpt>
      <trkpt lat="47.18335" lon="-1.57997">
        <ele>69</ele>
        <time>2021-10-09T13:15:09.000Z</time>
      </trkpt>
      <trkpt lat="47.18324" lon="-1.57996">
        <ele>70</ele>
        <time>2021-10-09T13:15:11.000Z</time>
      </trkpt>
      <trkpt lat="47.18312" lon="-1.57994">
        <ele>70</ele>
        <time>2021-10-09T13:15:13.000Z</time>
      </trkpt>
      <trkpt lat="47.18301" lon="-1.57994">
        <ele>70</ele>
        <time>2021-10-09T13:15:15.000Z</time>
      </trkpt>
      <trkpt lat="47.1829" lon="-1.57994">
        <ele>70</ele>
        <time>2021-10-09T13:15:17.000Z</time>
      </trkpt>
      <trkpt lat="47.18279" lon="-1.57993">
        <ele>70</ele>
        <time>2021-10-09T13:15:19.000Z</time>
      </trkpt>
      <trkpt lat="47.18268" lon="-1.5799">
        <ele>70</ele>
        <time>2021-10-09T13:15:21.000Z</time>
      </trkpt>
      <trkpt lat="47.18257" lon="-1.57988">
        <ele>71</ele>
        <time>2021-10-09T13:15:23.000Z</time>
      </trkpt>
      <trkpt lat="47.18246" lon="-1.57987">
        <ele>71</ele>
        <time>2021-10-09T13:15:25.000Z</time>
      </trkpt>
      <trkpt lat="47.18236" lon="-1.57986">
        <ele>71</ele>
        <time>2021-10-09T13:15:27.000Z</time>
      </trkpt>
      <trkpt lat="47.18227" lon="-1.57987">
        <ele>71</ele>
        <time>2021-10-09T13:15:29.000Z</time>
      </trkpt>
      <trkpt lat="47.18218" lon="-1.57999">
        <ele>71</ele>
        <time>2021-10-09T13:15:32.000Z</time>
      </trkpt>
      <trkpt lat="47.18217" lon="-1.58014">
        <ele>71</ele>
        <time>2021-10-09T13:15:34.000Z</time>
      </trkpt>
      <trkpt lat="47.18217" lon="-1.58029">
        <ele>71</ele>
        <time>2021-10-09T13:15:36.000Z</time>
      </trkpt>
      <trkpt lat="47.18218" lon="-1.58046">
        <ele>71</ele>
        <time>2021-10-09T13:15:38.000Z</time>
      </trkpt>
      <trkpt lat="47.18218" lon="-1.58063">
        <ele>71</ele>
        <time>2021-10-09T13:15:40.000Z</time>
      </trkpt>
      <trkpt lat="47.1822" lon="-1.5808">
        <ele>70</ele>
        <time>2021-10-09T13:15:42.000Z</time>
      </trkpt>
      <trkpt lat="47.18221" lon="-1.58098">
        <ele>70</ele>
        <time>2021-10-09T13:15:44.000Z</time>
      </trkpt>
      <trkpt lat="47.18222" lon="-1.58117">
        <ele>69</ele>
        <time>2021-10-09T13:15:46.000Z</time>
      </trkpt>
      <trkpt lat="47.18224" lon="-1.58135">
        <ele>69</ele>
        <time>2021-10-09T13:15:48.000Z</time>
      </trkpt>
      <trkpt lat="47.18225" lon="-1.58154">
        <ele>68</ele>
        <time>2021-10-09T13:15:50.000Z</time>
      </trkpt>
      <trkpt lat="47.18225" lon="-1.58173">
        <ele>67</ele>
        <time>2021-10-09T13:15:52.000Z</time>
      </trkpt>
      <trkpt lat="47.18222" lon="-1.58193">
        <ele>67</ele>
        <time>2021-10-09T13:15:54.000Z</time>
      </trkpt>
      <trkpt lat="47.18218" lon="-1.58211">
        <ele>67</ele>
        <time>2021-10-09T13:15:56.000Z</time>
      </trkpt>
      <trkpt lat="47.18212" lon="-1.58228">
        <ele>68</ele>
        <time>2021-10-09T13:15:58.000Z</time>
      </trkpt>
      <trkpt lat="47.18204" lon="-1.58244">
        <ele>67</ele>
        <time>2021-10-09T13:16:00.000Z</time>
      </trkpt>
      <trkpt lat="47.18197" lon="-1.58259">
        <ele>67</ele>
        <time>2021-10-09T13:16:02.000Z</time>
      </trkpt>
      <trkpt lat="47.1819" lon="-1.58273">
        <ele>67</ele>
        <time>2021-10-09T13:16:04.000Z</time>
      </trkpt>
      <trkpt lat="47.18183" lon="-1.58287">
        <ele>67</ele>
        <time>2021-10-09T13:16:06.000Z</time>
      </trkpt>
      <trkpt lat="47.18177" lon="-1.583">
        <ele>67</ele>
        <time>2021-10-09T13:16:08.000Z</time>
      </trkpt>
      <trkpt lat="47.18171" lon="-1.58314">
        <ele>67</ele>
        <time>2021-10-09T13:16:10.000Z</time>
      </trkpt>
      <trkpt lat="47.18165" lon="-1.58327">
        <ele>68</ele>
        <time>2021-10-09T13:16:12.000Z</time>
      </trkpt>
      <trkpt lat="47.1816" lon="-1.58343">
        <ele>68</ele>
        <time>2021-10-09T13:16:14.000Z</time>
      </trkpt>
      <trkpt lat="47.18154" lon="-1.58358">
        <ele>68</ele>
        <time>2021-10-09T13:16:16.000Z</time>
      </trkpt>
      <trkpt lat="47.18148" lon="-1.58373">
        <ele>68</ele>
        <time>2021-10-09T13:16:18.000Z</time>
      </trkpt>
      <trkpt lat="47.18144" lon="-1.58388">
        <ele>68</ele>
        <time>2021-10-09T13:16:20.000Z</time>
      </trkpt>
      <trkpt lat="47.18138" lon="-1.58403">
        <ele>68</ele>
        <time>2021-10-09T13:16:22.000Z</time>
      </trkpt>
      <trkpt lat="47.18135" lon="-1.58418">
        <ele>68</ele>
        <time>2021-10-09T13:16:24.000Z</time>
      </trkpt>
      <trkpt lat="47.18131" lon="-1.58432">
        <ele>68</ele>
        <time>2021-10-09T13:16:26.000Z</time>
      </trkpt>
      <trkpt lat="47.18124" lon="-1.58443">
        <ele>67</ele>
        <time>2021-10-09T13:16:28.000Z</time>
      </trkpt>
      <trkpt lat="47.18117" lon="-1.58452">
        <ele>68</ele>
        <time>2021-10-09T13:16:30.000Z</time>
      </trkpt>
      <trkpt lat="47.18112" lon="-1.5847">
        <ele>70</ele>
        <time>2021-10-09T13:16:33.000Z</time>
      </trkpt>
      <trkpt lat="47.1811" lon="-1.58486">
        <ele>72</ele>
        <time>2021-10-09T13:16:35.000Z</time>
      </trkpt>
      <trkpt lat="47.18109" lon="-1.58504">
        <ele>72</ele>
        <time>2021-10-09T13:16:37.000Z</time>
      </trkpt>
      <trkpt lat="47.18107" lon="-1.58522">
        <ele>72</ele>
        <time>2021-10-09T13:16:39.000Z</time>
      </trkpt>
      <trkpt lat="47.18109" lon="-1.58538">
        <ele>72</ele>
        <time>2021-10-09T13:16:41.000Z</time>
      </trkpt>
      <trkpt lat="47.18118" lon="-1.58549">
        <ele>73</ele>
        <time>2021-10-09T13:16:43.000Z</time>
      </trkpt>
      <trkpt lat="47.1813" lon="-1.58557">
        <ele>74</ele>
        <time>2021-10-09T13:16:45.000Z</time>
      </trkpt>
      <trkpt lat="47.18141" lon="-1.58564">
        <ele>73</ele>
        <time>2021-10-09T13:16:47.000Z</time>
      </trkpt>
      <trkpt lat="47.18153" lon="-1.5857">
        <ele>72</ele>
        <time>2021-10-09T13:16:49.000Z</time>
      </trkpt>
      <trkpt lat="47.18164" lon="-1.58575">
        <ele>72</ele>
        <time>2021-10-09T13:16:51.000Z</time>
      </trkpt>
      <trkpt lat="47.18174" lon="-1.58581">
        <ele>72</ele>
        <time>2021-10-09T13:16:53.000Z</time>
      </trkpt>
      <trkpt lat="47.18185" lon="-1.58586">
        <ele>72</ele>
        <time>2021-10-09T13:16:55.000Z</time>
      </trkpt>
      <trkpt lat="47.18196" lon="-1.58591">
        <ele>71</ele>
        <time>2021-10-09T13:16:57.000Z</time>
      </trkpt>
      <trkpt lat="47.18205" lon="-1.58596">
        <ele>71</ele>
        <time>2021-10-09T13:16:59.000Z</time>
      </trkpt>
      <trkpt lat="47.18215" lon="-1.586">
        <ele>71</ele>
        <time>2021-10-09T13:17:01.000Z</time>
      </trkpt>
      <trkpt lat="47.18225" lon="-1.58605">
        <ele>71</ele>
        <time>2021-10-09T13:17:03.000Z</time>
      </trkpt>
      <trkpt lat="47.18235" lon="-1.58609">
        <ele>71</ele>
        <time>2021-10-09T13:17:05.000Z</time>
      </trkpt>
      <trkpt lat="47.18243" lon="-1.58616">
        <ele>70</ele>
        <time>2021-10-09T13:17:07.000Z</time>
      </trkpt>
      <trkpt lat="47.18246" lon="-1.5863">
        <ele>70</ele>
        <time>2021-10-09T13:17:09.000Z</time>
      </trkpt>
      <trkpt lat="47.18246" lon="-1.58646">
        <ele>70</ele>
        <time>2021-10-09T13:17:11.000Z</time>
      </trkpt>
      <trkpt lat="47.18244" lon="-1.58662">
        <ele>70</ele>
        <time>2021-10-09T13:17:13.000Z</time>
      </trkpt>
      <trkpt lat="47.18243" lon="-1.5868">
        <ele>70</ele>
        <time>2021-10-09T13:17:15.000Z</time>
      </trkpt>
      <trkpt lat="47.18244" lon="-1.58697">
        <ele>71</ele>
        <time>2021-10-09T13:17:17.000Z</time>
      </trkpt>
      <trkpt lat="47.18244" lon="-1.58714">
        <ele>71</ele>
        <time>2021-10-09T13:17:19.000Z</time>
      </trkpt>
      <trkpt lat="47.18244" lon="-1.58731">
        <ele>70</ele>
        <time>2021-10-09T13:17:21.000Z</time>
      </trkpt>
      <trkpt lat="47.18243" lon="-1.58748">
        <ele>71</ele>
        <time>2021-10-09T13:17:23.000Z</time>
      </trkpt>
      <trkpt lat="47.18244" lon="-1.58764">
        <ele>71</ele>
        <time>2021-10-09T13:17:25.000Z</time>
      </trkpt>
      <trkpt lat="47.18245" lon="-1.58781">
        <ele>71</ele>
        <time>2021-10-09T13:17:27.000Z</time>
      </trkpt>
      <trkpt lat="47.1825" lon="-1.58798">
        <ele>72</ele>
        <time>2021-10-09T13:17:29.000Z</time>
      </trkpt>
      <trkpt lat="47.18256" lon="-1.58812">
        <ele>72</ele>
        <time>2021-10-09T13:17:31.000Z</time>
      </trkpt>
      <trkpt lat="47.18263" lon="-1.58826">
        <ele>71</ele>
        <time>2021-10-09T13:17:33.000Z</time>
      </trkpt>
      <trkpt lat="47.18268" lon="-1.5884">
        <ele>72</ele>
        <time>2021-10-09T13:17:35.000Z</time>
      </trkpt>
      <trkpt lat="47.18273" lon="-1.58853">
        <ele>72</ele>
        <time>2021-10-09T13:17:37.000Z</time>
      </trkpt>
      <trkpt lat="47.18276" lon="-1.58867">
        <ele>72</ele>
        <time>2021-10-09T13:17:39.000Z</time>
      </trkpt>
      <trkpt lat="47.1828" lon="-1.5888">
        <ele>72</ele>
        <time>2021-10-09T13:17:41.000Z</time>
      </trkpt>
      <trkpt lat="47.18287" lon="-1.58888">
        <ele>71</ele>
        <time>2021-10-09T13:17:43.000Z</time>
      </trkpt>
      <trkpt lat="47.183" lon="-1.58887">
        <ele>72</ele>
        <time>2021-10-09T13:17:46.000Z</time>
      </trkpt>
      <trkpt lat="47.1831" lon="-1.58885">
        <ele>71</ele>
        <time>2021-10-09T13:17:49.000Z</time>
      </trkpt>
      <trkpt lat="47.18312" lon="-1.58899">
        <ele>70</ele>
        <time>2021-10-09T13:18:59.000Z</time>
      </trkpt>
      <trkpt lat="47.18315" lon="-1.58898">
        <ele>69</ele>
        <time>2021-10-09T13:21:00.000Z</time>
      </trkpt>
      <trkpt lat="47.18315" lon="-1.58898">
        <ele>69</ele>
        <time>2021-10-09T13:23:01.000Z</time>
      </trkpt>
      <trkpt lat="47.18315" lon="-1.58898">
        <ele>69</ele>
        <time>2021-10-09T13:25:02.000Z</time>
      </trkpt>
      <trkpt lat="47.18315" lon="-1.58898">
        <ele>69</ele>
        <time>2021-10-09T13:27:03.000Z</time>
      </trkpt>
      <trkpt lat="47.18316" lon="-1.58898">
        <ele>69</ele>
        <time>2021-10-09T13:29:04.000Z</time>
      </trkpt>
      <trkpt lat="47.18316" lon="-1.58898">
        <ele>69</ele>
        <time>2021-10-09T13:31:05.000Z</time>
      </trkpt>
      <trkpt lat="47.18316" lon="-1.58898">
        <ele>69</ele>
        <time>2021-10-09T13:33:06.000Z</time>
      </trkpt>
      <trkpt lat="47.18316" lon="-1.58898">
        <ele>69</ele>
        <time>2021-10-09T13:35:07.000Z</time>
      </trkpt>
      <trkpt lat="47.18316" lon="-1.58898">
        <ele>69</ele>
        <time>2021-10-09T13:37:08.000Z</time>
      </trkpt>
      <trkpt lat="47.18316" lon="-1.58898">
        <ele>69</ele>
        <time>2021-10-09T13:39:09.000Z</time>
      </trkpt>
      <trkpt lat="47.18314" lon="-1.589">
        <ele>70</ele>
        <time>2021-10-09T13:41:10.000Z</time>
      </trkpt>
      <trkpt lat="47.18314" lon="-1.589">
        <ele>70</ele>
        <time>2021-10-09T13:43:11.000Z</time>
      </trkpt>
      <trkpt lat="47.18313" lon="-1.58902">
        <ele>73</ele>
        <time>2021-10-09T13:45:12.000Z</time>
      </trkpt>
      <trkpt lat="47.18313" lon="-1.58902">
        <ele>73</ele>
        <time>2021-10-09T13:47:13.000Z</time>
      </trkpt>
      <trkpt lat="47.18313" lon="-1.58902">
        <ele>73</ele>
        <time>2021-10-09T13:49:14.000Z</time>
      </trkpt>
      <trkpt lat="47.18312" lon="-1.589">
        <ele>69</ele>
        <time>2021-10-09T13:51:15.000Z</time>
      </trkpt>
      <trkpt lat="47.18312" lon="-1.589">
        <ele>69</ele>
        <time>2021-10-09T13:53:16.000Z</time>
      </trkpt>
      <trkpt lat="47.18312" lon="-1.589">
        <ele>69</ele>
        <time>2021-10-09T13:55:17.000Z</time>
      </trkpt>
      <trkpt lat="47.18312" lon="-1.589">
        <ele>69</ele>
        <time>2021-10-09T13:57:18.000Z</time>
      </trkpt>
      <trkpt lat="47.1831" lon="-1.589">
        <ele>77</ele>
        <time>2021-10-09T14:36:29.005Z</time>
      </trkpt>
      <trkpt lat="47.1832" lon="-1.589">
        <ele>67</ele>
        <time>2021-10-09T14:36:33.000Z</time>
      </trkpt>
      <trkpt lat="47.18316" lon="-1.58902">
        <ele>69</ele>
        <time>2021-10-09T14:38:34.000Z</time>
      </trkpt>
      <trkpt lat="47.18318" lon="-1.58907">
        <ele>69</ele>
        <time>2021-10-09T14:40:35.000Z</time>
      </trkpt>
      <trkpt lat="47.1831" lon="-1.589">
        <ele>69</ele>
        <time>2021-10-09T14:42:33.000Z</time>
      </trkpt>
      <trkpt lat="47.18313" lon="-1.58898">
        <ele>68</ele>
        <time>2021-10-09T14:44:34.000Z</time>
      </trkpt>
      <trkpt lat="47.18318" lon="-1.58894">
        <ele>69</ele>
        <time>2021-10-09T14:46:35.000Z</time>
      </trkpt>
      <trkpt lat="47.18318" lon="-1.58894">
        <ele>69</ele>
        <time>2021-10-09T14:48:36.000Z</time>
      </trkpt>
      <trkpt lat="47.1832" lon="-1.58911">
        <ele>68</ele>
        <time>2021-10-09T14:49:46.000Z</time>
      </trkpt>
      <trkpt lat="47.18321" lon="-1.58928">
        <ele>69</ele>
        <time>2021-10-09T14:49:49.000Z</time>
      </trkpt>
      <trkpt lat="47.18325" lon="-1.58942">
        <ele>69</ele>
        <time>2021-10-09T14:49:52.000Z</time>
      </trkpt>
      <trkpt lat="47.18332" lon="-1.58951">
        <ele>68</ele>
        <time>2021-10-09T14:49:54.000Z</time>
      </trkpt>
      <trkpt lat="47.18338" lon="-1.5896">
        <ele>68</ele>
        <time>2021-10-09T14:49:56.000Z</time>
      </trkpt>
      <trkpt lat="47.18345" lon="-1.58969">
        <ele>67</ele>
        <time>2021-10-09T14:49:58.000Z</time>
      </trkpt>
      <trkpt lat="47.18351" lon="-1.58979">
        <ele>67</ele>
        <time>2021-10-09T14:50:00.000Z</time>
      </trkpt>
      <trkpt lat="47.18356" lon="-1.58995">
        <ele>66</ele>
        <time>2021-10-09T14:50:03.000Z</time>
      </trkpt>
      <trkpt lat="47.18352" lon="-1.59008">
        <ele>66</ele>
        <time>2021-10-09T14:50:05.000Z</time>
      </trkpt>
      <trkpt lat="47.18343" lon="-1.5902">
        <ele>65</ele>
        <time>2021-10-09T14:50:07.000Z</time>
      </trkpt>
      <trkpt lat="47.18336" lon="-1.59034">
        <ele>65</ele>
        <time>2021-10-09T14:50:09.000Z</time>
      </trkpt>
      <trkpt lat="47.18329" lon="-1.59052">
        <ele>66</ele>
        <time>2021-10-09T14:50:11.000Z</time>
      </trkpt>
      <trkpt lat="47.18323" lon="-1.5907">
        <ele>66</ele>
        <time>2021-10-09T14:50:13.000Z</time>
      </trkpt>
      <trkpt lat="47.18316" lon="-1.59088">
        <ele>66</ele>
        <time>2021-10-09T14:50:15.000Z</time>
      </trkpt>
      <trkpt lat="47.1831" lon="-1.59107">
        <ele>66</ele>
        <time>2021-10-09T14:50:17.000Z</time>
      </trkpt>
      <trkpt lat="47.18303" lon="-1.59125">
        <ele>66</ele>
        <time>2021-10-09T14:50:19.000Z</time>
      </trkpt>
      <trkpt lat="47.18297" lon="-1.59144">
        <ele>67</ele>
        <time>2021-10-09T14:50:21.000Z</time>
      </trkpt>
      <trkpt lat="47.18291" lon="-1.59162">
        <ele>67</ele>
        <time>2021-10-09T14:50:23.000Z</time>
      </trkpt>
      <trkpt lat="47.18285" lon="-1.5918">
        <ele>67</ele>
        <time>2021-10-09T14:50:25.000Z</time>
      </trkpt>
      <trkpt lat="47.1828" lon="-1.59197">
        <ele>67</ele>
        <time>2021-10-09T14:50:27.000Z</time>
      </trkpt>
      <trkpt lat="47.18274" lon="-1.59213">
        <ele>67</ele>
        <time>2021-10-09T14:50:29.000Z</time>
      </trkpt>
      <trkpt lat="47.18263" lon="-1.59224">
        <ele>68</ele>
        <time>2021-10-09T14:50:31.000Z</time>
      </trkpt>
      <trkpt lat="47.18251" lon="-1.59235">
        <ele>67</ele>
        <time>2021-10-09T14:50:33.000Z</time>
      </trkpt>
      <trkpt lat="47.1824" lon="-1.59247">
        <ele>67</ele>
        <time>2021-10-09T14:50:35.000Z</time>
      </trkpt>
      <trkpt lat="47.18229" lon="-1.5926">
        <ele>67</ele>
        <time>2021-10-09T14:50:37.000Z</time>
      </trkpt>
      <trkpt lat="47.18217" lon="-1.59271">
        <ele>68</ele>
        <time>2021-10-09T14:50:39.000Z</time>
      </trkpt>
      <trkpt lat="47.18205" lon="-1.59284">
        <ele>67</ele>
        <time>2021-10-09T14:50:41.000Z</time>
      </trkpt>
      <trkpt lat="47.18194" lon="-1.59296">
        <ele>67</ele>
        <time>2021-10-09T14:50:43.000Z</time>
      </trkpt>
      <trkpt lat="47.18182" lon="-1.59307">
        <ele>68</ele>
        <time>2021-10-09T14:50:45.000Z</time>
      </trkpt>
      <trkpt lat="47.18171" lon="-1.59319">
        <ele>67</ele>
        <time>2021-10-09T14:50:47.000Z</time>
      </trkpt>
      <trkpt lat="47.18159" lon="-1.59331">
        <ele>67</ele>
        <time>2021-10-09T14:50:49.000Z</time>
      </trkpt>
      <trkpt lat="47.18147" lon="-1.59343">
        <ele>67</ele>
        <time>2021-10-09T14:50:51.000Z</time>
      </trkpt>
      <trkpt lat="47.18135" lon="-1.59355">
        <ele>68</ele>
        <time>2021-10-09T14:50:53.000Z</time>
      </trkpt>
      <trkpt lat="47.18123" lon="-1.59366">
        <ele>68</ele>
        <time>2021-10-09T14:50:55.000Z</time>
      </trkpt>
      <trkpt lat="47.18111" lon="-1.59377">
        <ele>68</ele>
        <time>2021-10-09T14:50:57.000Z</time>
      </trkpt>
      <trkpt lat="47.18099" lon="-1.59389">
        <ele>68</ele>
        <time>2021-10-09T14:50:59.000Z</time>
      </trkpt>
      <trkpt lat="47.18087" lon="-1.59399">
        <ele>68</ele>
        <time>2021-10-09T14:51:01.000Z</time>
      </trkpt>
      <trkpt lat="47.18076" lon="-1.59411">
        <ele>67</ele>
        <time>2021-10-09T14:51:03.000Z</time>
      </trkpt>
      <trkpt lat="47.18066" lon="-1.59426">
        <ele>67</ele>
        <time>2021-10-09T14:51:05.000Z</time>
      </trkpt>
      <trkpt lat="47.18055" lon="-1.59439">
        <ele>67</ele>
        <time>2021-10-09T14:51:07.000Z</time>
      </trkpt>
      <trkpt lat="47.18046" lon="-1.59455">
        <ele>67</ele>
        <time>2021-10-09T14:51:09.000Z</time>
      </trkpt>
      <trkpt lat="47.18039" lon="-1.59473">
        <ele>67</ele>
        <time>2021-10-09T14:51:11.000Z</time>
      </trkpt>
      <trkpt lat="47.18034" lon="-1.59492">
        <ele>68</ele>
        <time>2021-10-09T14:51:13.000Z</time>
      </trkpt>
      <trkpt lat="47.18029" lon="-1.59512">
        <ele>68</ele>
        <time>2021-10-09T14:51:15.000Z</time>
      </trkpt>
      <trkpt lat="47.18024" lon="-1.59531">
        <ele>67</ele>
        <time>2021-10-09T14:51:17.000Z</time>
      </trkpt>
      <trkpt lat="47.1802" lon="-1.59551">
        <ele>67</ele>
        <time>2021-10-09T14:51:19.000Z</time>
      </trkpt>
      <trkpt lat="47.18015" lon="-1.59571">
        <ele>67</ele>
        <time>2021-10-09T14:51:21.000Z</time>
      </trkpt>
      <trkpt lat="47.1801" lon="-1.5959">
        <ele>67</ele>
        <time>2021-10-09T14:51:23.000Z</time>
      </trkpt>
      <trkpt lat="47.18004" lon="-1.59608">
        <ele>68</ele>
        <time>2021-10-09T14:51:25.000Z</time>
      </trkpt>
      <trkpt lat="47.17999" lon="-1.59627">
        <ele>67</ele>
        <time>2021-10-09T14:51:27.000Z</time>
      </trkpt>
      <trkpt lat="47.17995" lon="-1.59646">
        <ele>67</ele>
        <time>2021-10-09T14:51:29.000Z</time>
      </trkpt>
      <trkpt lat="47.1799" lon="-1.59666">
        <ele>67</ele>
        <time>2021-10-09T14:51:31.000Z</time>
      </trkpt>
      <trkpt lat="47.17985" lon="-1.59686">
        <ele>66</ele>
        <time>2021-10-09T14:51:33.000Z</time>
      </trkpt>
      <trkpt lat="47.1798" lon="-1.59707">
        <ele>65</ele>
        <time>2021-10-09T14:51:35.000Z</time>
      </trkpt>
      <trkpt lat="47.17973" lon="-1.59726">
        <ele>64</ele>
        <time>2021-10-09T14:51:37.000Z</time>
      </trkpt>
      <trkpt lat="47.17967" lon="-1.59748">
        <ele>64</ele>
        <time>2021-10-09T14:51:39.000Z</time>
      </trkpt>
      <trkpt lat="47.17961" lon="-1.59769">
        <ele>63</ele>
        <time>2021-10-09T14:51:41.000Z</time>
      </trkpt>
      <trkpt lat="47.17956" lon="-1.59792">
        <ele>62</ele>
        <time>2021-10-09T14:51:43.000Z</time>
      </trkpt>
      <trkpt lat="47.17951" lon="-1.59817">
        <ele>61</ele>
        <time>2021-10-09T14:51:45.000Z</time>
      </trkpt>
      <trkpt lat="47.17949" lon="-1.59831">
        <ele>60</ele>
        <time>2021-10-09T14:51:46.000Z</time>
      </trkpt>
      <trkpt lat="47.17947" lon="-1.59844">
        <ele>60</ele>
        <time>2021-10-09T14:51:47.000Z</time>
      </trkpt>
      <trkpt lat="47.17945" lon="-1.59857">
        <ele>59</ele>
        <time>2021-10-09T14:51:48.000Z</time>
      </trkpt>
      <trkpt lat="47.17942" lon="-1.59871">
        <ele>59</ele>
        <time>2021-10-09T14:51:49.000Z</time>
      </trkpt>
      <trkpt lat="47.17939" lon="-1.59884">
        <ele>58</ele>
        <time>2021-10-09T14:51:50.000Z</time>
      </trkpt>
      <trkpt lat="47.17935" lon="-1.59897">
        <ele>58</ele>
        <time>2021-10-09T14:51:51.000Z</time>
      </trkpt>
      <trkpt lat="47.17932" lon="-1.59911">
        <ele>57</ele>
        <time>2021-10-09T14:51:52.000Z</time>
      </trkpt>
      <trkpt lat="47.1793" lon="-1.59925">
        <ele>57</ele>
        <time>2021-10-09T14:51:53.000Z</time>
      </trkpt>
      <trkpt lat="47.17925" lon="-1.59937">
        <ele>56</ele>
        <time>2021-10-09T14:51:54.000Z</time>
      </trkpt>
      <trkpt lat="47.17917" lon="-1.59945">
        <ele>56</ele>
        <time>2021-10-09T14:51:55.000Z</time>
      </trkpt>
      <trkpt lat="47.17908" lon="-1.59947">
        <ele>55</ele>
        <time>2021-10-09T14:51:56.000Z</time>
      </trkpt>
      <trkpt lat="47.17898" lon="-1.59947">
        <ele>55</ele>
        <time>2021-10-09T14:51:57.000Z</time>
      </trkpt>
      <trkpt lat="47.17884" lon="-1.59956">
        <ele>55</ele>
        <time>2021-10-09T14:51:59.000Z</time>
      </trkpt>
      <trkpt lat="47.17874" lon="-1.59974">
        <ele>55</ele>
        <time>2021-10-09T14:52:01.000Z</time>
      </trkpt>
      <trkpt lat="47.17864" lon="-1.59991">
        <ele>55</ele>
        <time>2021-10-09T14:52:03.000Z</time>
      </trkpt>
      <trkpt lat="47.17854" lon="-1.60009">
        <ele>55</ele>
        <time>2021-10-09T14:52:05.000Z</time>
      </trkpt>
      <trkpt lat="47.17845" lon="-1.60026">
        <ele>55</ele>
        <time>2021-10-09T14:52:07.000Z</time>
      </trkpt>
      <trkpt lat="47.17835" lon="-1.60042">
        <ele>56</ele>
        <time>2021-10-09T14:52:09.000Z</time>
      </trkpt>
      <trkpt lat="47.17827" lon="-1.60058">
        <ele>57</ele>
        <time>2021-10-09T14:52:11.000Z</time>
      </trkpt>
      <trkpt lat="47.17818" lon="-1.60074">
        <ele>57</ele>
        <time>2021-10-09T14:52:13.000Z</time>
      </trkpt>
      <trkpt lat="47.17809" lon="-1.60089">
        <ele>58</ele>
        <time>2021-10-09T14:52:15.000Z</time>
      </trkpt>
      <trkpt lat="47.17801" lon="-1.60103">
        <ele>58</ele>
        <time>2021-10-09T14:52:17.000Z</time>
      </trkpt>
      <trkpt lat="47.17792" lon="-1.60118">
        <ele>59</ele>
        <time>2021-10-09T14:52:19.000Z</time>
      </trkpt>
      <trkpt lat="47.17784" lon="-1.60132">
        <ele>60</ele>
        <time>2021-10-09T14:52:21.000Z</time>
      </trkpt>
      <trkpt lat="47.17776" lon="-1.60147">
        <ele>60</ele>
        <time>2021-10-09T14:52:23.000Z</time>
      </trkpt>
      <trkpt lat="47.17767" lon="-1.60162">
        <ele>61</ele>
        <time>2021-10-09T14:52:25.000Z</time>
      </trkpt>
      <trkpt lat="47.1776" lon="-1.60179">
        <ele>62</ele>
        <time>2021-10-09T14:52:27.000Z</time>
      </trkpt>
      <trkpt lat="47.17754" lon="-1.60196">
        <ele>62</ele>
        <time>2021-10-09T14:52:29.000Z</time>
      </trkpt>
      <trkpt lat="47.1775" lon="-1.60213">
        <ele>63</ele>
        <time>2021-10-09T14:52:31.000Z</time>
      </trkpt>
      <trkpt lat="47.17746" lon="-1.60232">
        <ele>63</ele>
        <time>2021-10-09T14:52:33.000Z</time>
      </trkpt>
      <trkpt lat="47.17742" lon="-1.60249">
        <ele>63</ele>
        <time>2021-10-09T14:52:35.000Z</time>
      </trkpt>
      <trkpt lat="47.17737" lon="-1.60267">
        <ele>63</ele>
        <time>2021-10-09T14:52:37.000Z</time>
      </trkpt>
      <trkpt lat="47.17728" lon="-1.60281">
        <ele>64</ele>
        <time>2021-10-09T14:52:39.000Z</time>
      </trkpt>
      <trkpt lat="47.17719" lon="-1.60295">
        <ele>64</ele>
        <time>2021-10-09T14:52:41.000Z</time>
      </trkpt>
      <trkpt lat="47.1771" lon="-1.60308">
        <ele>64</ele>
        <time>2021-10-09T14:52:43.000Z</time>
      </trkpt>
      <trkpt lat="47.177" lon="-1.60321">
        <ele>64</ele>
        <time>2021-10-09T14:52:45.000Z</time>
      </trkpt>
      <trkpt lat="47.17691" lon="-1.60335">
        <ele>65</ele>
        <time>2021-10-09T14:52:47.000Z</time>
      </trkpt>
      <trkpt lat="47.17681" lon="-1.60348">
        <ele>64</ele>
        <time>2021-10-09T14:52:49.000Z</time>
      </trkpt>
      <trkpt lat="47.17671" lon="-1.60361">
        <ele>64</ele>
        <time>2021-10-09T14:52:51.000Z</time>
      </trkpt>
      <trkpt lat="47.17662" lon="-1.60374">
        <ele>65</ele>
        <time>2021-10-09T14:52:53.000Z</time>
      </trkpt>
      <trkpt lat="47.17652" lon="-1.60389">
        <ele>65</ele>
        <time>2021-10-09T14:52:55.000Z</time>
      </trkpt>
      <trkpt lat="47.17638" lon="-1.60414">
        <ele>64</ele>
        <time>2021-10-09T14:52:58.000Z</time>
      </trkpt>
      <trkpt lat="47.17621" lon="-1.60439">
        <ele>63</ele>
        <time>2021-10-09T14:53:01.000Z</time>
      </trkpt>
      <trkpt lat="47.17611" lon="-1.60456">
        <ele>63</ele>
        <time>2021-10-09T14:53:03.000Z</time>
      </trkpt>
      <trkpt lat="47.17601" lon="-1.60473">
        <ele>63</ele>
        <time>2021-10-09T14:53:05.000Z</time>
      </trkpt>
      <trkpt lat="47.1759" lon="-1.6049">
        <ele>63</ele>
        <time>2021-10-09T14:53:07.000Z</time>
      </trkpt>
      <trkpt lat="47.1758" lon="-1.60506">
        <ele>63</ele>
        <time>2021-10-09T14:53:09.000Z</time>
      </trkpt>
      <trkpt lat="47.1757" lon="-1.60522">
        <ele>63</ele>
        <time>2021-10-09T14:53:11.000Z</time>
      </trkpt>
      <trkpt lat="47.1756" lon="-1.60538">
        <ele>63</ele>
        <time>2021-10-09T14:53:13.000Z</time>
      </trkpt>
      <trkpt lat="47.1755" lon="-1.60555">
        <ele>63</ele>
        <time>2021-10-09T14:53:15.000Z</time>
      </trkpt>
      <trkpt lat="47.17539" lon="-1.60571">
        <ele>62</ele>
        <time>2021-10-09T14:53:17.000Z</time>
      </trkpt>
      <trkpt lat="47.17529" lon="-1.60588">
        <ele>62</ele>
        <time>2021-10-09T14:53:19.000Z</time>
      </trkpt>
      <trkpt lat="47.17519" lon="-1.60605">
        <ele>61</ele>
        <time>2021-10-09T14:53:21.000Z</time>
      </trkpt>
      <trkpt lat="47.17508" lon="-1.60622">
        <ele>61</ele>
        <time>2021-10-09T14:53:23.000Z</time>
      </trkpt>
      <trkpt lat="47.17497" lon="-1.60639">
        <ele>61</ele>
        <time>2021-10-09T14:53:25.000Z</time>
      </trkpt>
      <trkpt lat="47.17481" lon="-1.60666">
        <ele>60</ele>
        <time>2021-10-09T14:53:28.000Z</time>
      </trkpt>
      <trkpt lat="47.1747" lon="-1.60684">
        <ele>60</ele>
        <time>2021-10-09T14:53:30.000Z</time>
      </trkpt>
      <trkpt lat="47.17459" lon="-1.60702">
        <ele>60</ele>
        <time>2021-10-09T14:53:32.000Z</time>
      </trkpt>
      <trkpt lat="47.17443" lon="-1.60731">
        <ele>59</ele>
        <time>2021-10-09T14:53:35.000Z</time>
      </trkpt>
      <trkpt lat="47.17432" lon="-1.60751">
        <ele>59</ele>
        <time>2021-10-09T14:53:37.000Z</time>
      </trkpt>
      <trkpt lat="47.17427" lon="-1.60762">
        <ele>58</ele>
        <time>2021-10-09T14:53:38.000Z</time>
      </trkpt>
      <trkpt lat="47.17422" lon="-1.60774">
        <ele>58</ele>
        <time>2021-10-09T14:53:39.000Z</time>
      </trkpt>
      <trkpt lat="47.17418" lon="-1.60786">
        <ele>57</ele>
        <time>2021-10-09T14:53:40.000Z</time>
      </trkpt>
      <trkpt lat="47.17414" lon="-1.60798">
        <ele>57</ele>
        <time>2021-10-09T14:53:41.000Z</time>
      </trkpt>
      <trkpt lat="47.1741" lon="-1.60811">
        <ele>57</ele>
        <time>2021-10-09T14:53:42.000Z</time>
      </trkpt>
      <trkpt lat="47.17407" lon="-1.60823">
        <ele>56</ele>
        <time>2021-10-09T14:53:43.000Z</time>
      </trkpt>
      <trkpt lat="47.17404" lon="-1.60836">
        <ele>56</ele>
        <time>2021-10-09T14:53:44.000Z</time>
      </trkpt>
      <trkpt lat="47.17402" lon="-1.60849">
        <ele>56</ele>
        <time>2021-10-09T14:53:45.000Z</time>
      </trkpt>
      <trkpt lat="47.17401" lon="-1.60863">
        <ele>56</ele>
        <time>2021-10-09T14:53:46.000Z</time>
      </trkpt>
      <trkpt lat="47.17399" lon="-1.60889">
        <ele>56</ele>
        <time>2021-10-09T14:53:48.000Z</time>
      </trkpt>
      <trkpt lat="47.17399" lon="-1.60915">
        <ele>55</ele>
        <time>2021-10-09T14:53:50.000Z</time>
      </trkpt>
      <trkpt lat="47.174" lon="-1.60929">
        <ele>55</ele>
        <time>2021-10-09T14:53:51.000Z</time>
      </trkpt>
      <trkpt lat="47.17404" lon="-1.60954">
        <ele>54</ele>
        <time>2021-10-09T14:53:53.000Z</time>
      </trkpt>
      <trkpt lat="47.17411" lon="-1.60978">
        <ele>54</ele>
        <time>2021-10-09T14:53:55.000Z</time>
      </trkpt>
      <trkpt lat="47.1742" lon="-1.60998">
        <ele>54</ele>
        <time>2021-10-09T14:53:57.000Z</time>
      </trkpt>
      <trkpt lat="47.17424" lon="-1.61021">
        <ele>54</ele>
        <time>2021-10-09T14:53:59.000Z</time>
      </trkpt>
      <trkpt lat="47.17425" lon="-1.61043">
        <ele>55</ele>
        <time>2021-10-09T14:54:01.000Z</time>
      </trkpt>
      <trkpt lat="47.1743" lon="-1.61062">
        <ele>56</ele>
        <time>2021-10-09T14:54:03.000Z</time>
      </trkpt>
      <trkpt lat="47.17438" lon="-1.61079">
        <ele>56</ele>
        <time>2021-10-09T14:54:05.000Z</time>
      </trkpt>
      <trkpt lat="47.17445" lon="-1.61097">
        <ele>56</ele>
        <time>2021-10-09T14:54:07.000Z</time>
      </trkpt>
      <trkpt lat="47.17452" lon="-1.61115">
        <ele>57</ele>
        <time>2021-10-09T14:54:09.000Z</time>
      </trkpt>
      <trkpt lat="47.17459" lon="-1.61132">
        <ele>57</ele>
        <time>2021-10-09T14:54:11.000Z</time>
      </trkpt>
      <trkpt lat="47.17466" lon="-1.61149">
        <ele>58</ele>
        <time>2021-10-09T14:54:13.000Z</time>
      </trkpt>
      <trkpt lat="47.17473" lon="-1.61167">
        <ele>58</ele>
        <time>2021-10-09T14:54:15.000Z</time>
      </trkpt>
      <trkpt lat="47.1748" lon="-1.61185">
        <ele>57</ele>
        <time>2021-10-09T14:54:17.000Z</time>
      </trkpt>
      <trkpt lat="47.17487" lon="-1.61203">
        <ele>57</ele>
        <time>2021-10-09T14:54:19.000Z</time>
      </trkpt>
      <trkpt lat="47.17494" lon="-1.61221">
        <ele>57</ele>
        <time>2021-10-09T14:54:21.000Z</time>
      </trkpt>
      <trkpt lat="47.17501" lon="-1.61238">
        <ele>57</ele>
        <time>2021-10-09T14:54:23.000Z</time>
      </trkpt>
      <trkpt lat="47.17508" lon="-1.61254">
        <ele>58</ele>
        <time>2021-10-09T14:54:25.000Z</time>
      </trkpt>
      <trkpt lat="47.17517" lon="-1.61269">
        <ele>58</ele>
        <time>2021-10-09T14:54:27.000Z</time>
      </trkpt>
      <trkpt lat="47.17527" lon="-1.61282">
        <ele>57</ele>
        <time>2021-10-09T14:54:29.000Z</time>
      </trkpt>
      <trkpt lat="47.1754" lon="-1.61294">
        <ele>57</ele>
        <time>2021-10-09T14:54:31.000Z</time>
      </trkpt>
      <trkpt lat="47.17553" lon="-1.61302">
        <ele>57</ele>
        <time>2021-10-09T14:54:33.000Z</time>
      </trkpt>
      <trkpt lat="47.17561" lon="-1.6132">
        <ele>58</ele>
        <time>2021-10-09T14:54:35.000Z</time>
      </trkpt>
      <trkpt lat="47.17559" lon="-1.61341">
        <ele>58</ele>
        <time>2021-10-09T14:54:37.000Z</time>
      </trkpt>
      <trkpt lat="47.17549" lon="-1.61356">
        <ele>58</ele>
        <time>2021-10-09T14:54:39.000Z</time>
      </trkpt>
      <trkpt lat="47.17536" lon="-1.61369">
        <ele>58</ele>
        <time>2021-10-09T14:54:41.000Z</time>
      </trkpt>
      <trkpt lat="47.17529" lon="-1.61388">
        <ele>58</ele>
        <time>2021-10-09T14:54:43.000Z</time>
      </trkpt>
      <trkpt lat="47.17525" lon="-1.61409">
        <ele>59</ele>
        <time>2021-10-09T14:54:45.000Z</time>
      </trkpt>
      <trkpt lat="47.17521" lon="-1.61427">
        <ele>60</ele>
        <time>2021-10-09T14:54:47.000Z</time>
      </trkpt>
      <trkpt lat="47.1752" lon="-1.61444">
        <ele>61</ele>
        <time>2021-10-09T14:54:49.000Z</time>
      </trkpt>
      <trkpt lat="47.17518" lon="-1.61458">
        <ele>62</ele>
        <time>2021-10-09T14:54:51.000Z</time>
      </trkpt>
      <trkpt lat="47.17508" lon="-1.61465">
        <ele>62</ele>
        <time>2021-10-09T14:54:53.000Z</time>
      </trkpt>
      <trkpt lat="47.17495" lon="-1.61469">
        <ele>62</ele>
        <time>2021-10-09T14:54:55.000Z</time>
      </trkpt>
      <trkpt lat="47.17483" lon="-1.61473">
        <ele>62</ele>
        <time>2021-10-09T14:54:57.000Z</time>
      </trkpt>
      <trkpt lat="47.17471" lon="-1.61478">
        <ele>62</ele>
        <time>2021-10-09T14:54:59.000Z</time>
      </trkpt>
      <trkpt lat="47.17458" lon="-1.61484">
        <ele>63</ele>
        <time>2021-10-09T14:55:01.000Z</time>
      </trkpt>
      <trkpt lat="47.17446" lon="-1.6149">
        <ele>63</ele>
        <time>2021-10-09T14:55:03.000Z</time>
      </trkpt>
      <trkpt lat="47.17434" lon="-1.61497">
        <ele>64</ele>
        <time>2021-10-09T14:55:05.000Z</time>
      </trkpt>
      <trkpt lat="47.17423" lon="-1.61505">
        <ele>64</ele>
        <time>2021-10-09T14:55:07.000Z</time>
      </trkpt>
      <trkpt lat="47.17412" lon="-1.61513">
        <ele>64</ele>
        <time>2021-10-09T14:55:09.000Z</time>
      </trkpt>
      <trkpt lat="47.17401" lon="-1.61522">
        <ele>65</ele>
        <time>2021-10-09T14:55:11.000Z</time>
      </trkpt>
      <trkpt lat="47.1739" lon="-1.6153">
        <ele>65</ele>
        <time>2021-10-09T14:55:13.000Z</time>
      </trkpt>
      <trkpt lat="47.1738" lon="-1.6154">
        <ele>65</ele>
        <time>2021-10-09T14:55:15.000Z</time>
      </trkpt>
      <trkpt lat="47.1737" lon="-1.6155">
        <ele>66</ele>
        <time>2021-10-09T14:55:17.000Z</time>
      </trkpt>
      <trkpt lat="47.1736" lon="-1.6156">
        <ele>66</ele>
        <time>2021-10-09T14:55:19.000Z</time>
      </trkpt>
      <trkpt lat="47.1735" lon="-1.61572">
        <ele>67</ele>
        <time>2021-10-09T14:55:21.000Z</time>
      </trkpt>
      <trkpt lat="47.17341" lon="-1.61583">
        <ele>67</ele>
        <time>2021-10-09T14:55:23.000Z</time>
      </trkpt>
      <trkpt lat="47.17332" lon="-1.61596">
        <ele>67</ele>
        <time>2021-10-09T14:55:25.000Z</time>
      </trkpt>
      <trkpt lat="47.17322" lon="-1.61608">
        <ele>67</ele>
        <time>2021-10-09T14:55:27.000Z</time>
      </trkpt>
      <trkpt lat="47.17313" lon="-1.61621">
        <ele>67</ele>
        <time>2021-10-09T14:55:29.000Z</time>
      </trkpt>
      <trkpt lat="47.17305" lon="-1.61634">
        <ele>66</ele>
        <time>2021-10-09T14:55:31.000Z</time>
      </trkpt>
      <trkpt lat="47.17296" lon="-1.61649">
        <ele>67</ele>
        <time>2021-10-09T14:55:33.000Z</time>
      </trkpt>
      <trkpt lat="47.17288" lon="-1.61663">
        <ele>67</ele>
        <time>2021-10-09T14:55:35.000Z</time>
      </trkpt>
      <trkpt lat="47.1728" lon="-1.61678">
        <ele>68</ele>
        <time>2021-10-09T14:55:37.000Z</time>
      </trkpt>
      <trkpt lat="47.17273" lon="-1.61694">
        <ele>67</ele>
        <time>2021-10-09T14:55:39.000Z</time>
      </trkpt>
      <trkpt lat="47.17265" lon="-1.6171">
        <ele>67</ele>
        <time>2021-10-09T14:55:41.000Z</time>
      </trkpt>
      <trkpt lat="47.17257" lon="-1.61727">
        <ele>67</ele>
        <time>2021-10-09T14:55:43.000Z</time>
      </trkpt>
      <trkpt lat="47.1725" lon="-1.61744">
        <ele>66</ele>
        <time>2021-10-09T14:55:45.000Z</time>
      </trkpt>
      <trkpt lat="47.17247" lon="-1.61763">
        <ele>66</ele>
        <time>2021-10-09T14:55:47.000Z</time>
      </trkpt>
      <trkpt lat="47.1724" lon="-1.61781">
        <ele>66</ele>
        <time>2021-10-09T14:55:49.000Z</time>
      </trkpt>
      <trkpt lat="47.17228" lon="-1.61793">
        <ele>67</ele>
        <time>2021-10-09T14:55:51.000Z</time>
      </trkpt>
      <trkpt lat="47.17216" lon="-1.61804">
        <ele>67</ele>
        <time>2021-10-09T14:55:53.000Z</time>
      </trkpt>
      <trkpt lat="47.17205" lon="-1.61814">
        <ele>67</ele>
        <time>2021-10-09T14:55:55.000Z</time>
      </trkpt>
      <trkpt lat="47.17193" lon="-1.61825">
        <ele>67</ele>
        <time>2021-10-09T14:55:57.000Z</time>
      </trkpt>
      <trkpt lat="47.17181" lon="-1.61835">
        <ele>66</ele>
        <time>2021-10-09T14:55:59.000Z</time>
      </trkpt>
      <trkpt lat="47.1717" lon="-1.61846">
        <ele>66</ele>
        <time>2021-10-09T14:56:01.000Z</time>
      </trkpt>
      <trkpt lat="47.17158" lon="-1.61857">
        <ele>67</ele>
        <time>2021-10-09T14:56:03.000Z</time>
      </trkpt>
      <trkpt lat="47.17147" lon="-1.61868">
        <ele>67</ele>
        <time>2021-10-09T14:56:05.000Z</time>
      </trkpt>
      <trkpt lat="47.17135" lon="-1.6188">
        <ele>67</ele>
        <time>2021-10-09T14:56:07.000Z</time>
      </trkpt>
      <trkpt lat="47.17123" lon="-1.61891">
        <ele>67</ele>
        <time>2021-10-09T14:56:09.000Z</time>
      </trkpt>
      <trkpt lat="47.17111" lon="-1.61902">
        <ele>66</ele>
        <time>2021-10-09T14:56:11.000Z</time>
      </trkpt>
      <trkpt lat="47.171" lon="-1.61914">
        <ele>66</ele>
        <time>2021-10-09T14:56:13.000Z</time>
      </trkpt>
      <trkpt lat="47.17089" lon="-1.61925">
        <ele>66</ele>
        <time>2021-10-09T14:56:15.000Z</time>
      </trkpt>
      <trkpt lat="47.17078" lon="-1.61936">
        <ele>67</ele>
        <time>2021-10-09T14:56:17.000Z</time>
      </trkpt>
      <trkpt lat="47.17068" lon="-1.61946">
        <ele>67</ele>
        <time>2021-10-09T14:56:19.000Z</time>
      </trkpt>
      <trkpt lat="47.17057" lon="-1.61959">
        <ele>66</ele>
        <time>2021-10-09T14:56:21.000Z</time>
      </trkpt>
      <trkpt lat="47.17047" lon="-1.61973">
        <ele>66</ele>
        <time>2021-10-09T14:56:23.000Z</time>
      </trkpt>
      <trkpt lat="47.17037" lon="-1.61988">
        <ele>66</ele>
        <time>2021-10-09T14:56:25.000Z</time>
      </trkpt>
      <trkpt lat="47.17027" lon="-1.62002">
        <ele>66</ele>
        <time>2021-10-09T14:56:27.000Z</time>
      </trkpt>
      <trkpt lat="47.17017" lon="-1.62017">
        <ele>66</ele>
        <time>2021-10-09T14:56:29.000Z</time>
      </trkpt>
      <trkpt lat="47.17008" lon="-1.62032">
        <ele>66</ele>
        <time>2021-10-09T14:56:31.000Z</time>
      </trkpt>
      <trkpt lat="47.16999" lon="-1.62048">
        <ele>66</ele>
        <time>2021-10-09T14:56:33.000Z</time>
      </trkpt>
      <trkpt lat="47.1699" lon="-1.62064">
        <ele>66</ele>
        <time>2021-10-09T14:56:35.000Z</time>
      </trkpt>
      <trkpt lat="47.16981" lon="-1.6208">
        <ele>66</ele>
        <time>2021-10-09T14:56:37.000Z</time>
      </trkpt>
      <trkpt lat="47.16972" lon="-1.62096">
        <ele>67</ele>
        <time>2021-10-09T14:56:39.000Z</time>
      </trkpt>
      <trkpt lat="47.16963" lon="-1.62112">
        <ele>67</ele>
        <time>2021-10-09T14:56:41.000Z</time>
      </trkpt>
      <trkpt lat="47.16955" lon="-1.62128">
        <ele>67</ele>
        <time>2021-10-09T14:56:43.000Z</time>
      </trkpt>
      <trkpt lat="47.16946" lon="-1.62145">
        <ele>67</ele>
        <time>2021-10-09T14:56:45.000Z</time>
      </trkpt>
      <trkpt lat="47.16938" lon="-1.62161">
        <ele>67</ele>
        <time>2021-10-09T14:56:47.000Z</time>
      </trkpt>
      <trkpt lat="47.16931" lon="-1.62179">
        <ele>67</ele>
        <time>2021-10-09T14:56:49.000Z</time>
      </trkpt>
      <trkpt lat="47.16922" lon="-1.62195">
        <ele>67</ele>
        <time>2021-10-09T14:56:51.000Z</time>
      </trkpt>
      <trkpt lat="47.16912" lon="-1.62211">
        <ele>68</ele>
        <time>2021-10-09T14:56:53.000Z</time>
      </trkpt>
      <trkpt lat="47.16902" lon="-1.62224">
        <ele>68</ele>
        <time>2021-10-09T14:56:55.000Z</time>
      </trkpt>
      <trkpt lat="47.16891" lon="-1.62238">
        <ele>68</ele>
        <time>2021-10-09T14:56:57.000Z</time>
      </trkpt>
      <trkpt lat="47.1688" lon="-1.62252">
        <ele>68</ele>
        <time>2021-10-09T14:56:59.000Z</time>
      </trkpt>
      <trkpt lat="47.16869" lon="-1.62266">
        <ele>68</ele>
        <time>2021-10-09T14:57:01.000Z</time>
      </trkpt>
      <trkpt lat="47.16857" lon="-1.6228">
        <ele>68</ele>
        <time>2021-10-09T14:57:03.000Z</time>
      </trkpt>
      <trkpt lat="47.16847" lon="-1.62294">
        <ele>68</ele>
        <time>2021-10-09T14:57:05.000Z</time>
      </trkpt>
      <trkpt lat="47.16836" lon="-1.62307">
        <ele>68</ele>
        <time>2021-10-09T14:57:07.000Z</time>
      </trkpt>
      <trkpt lat="47.16824" lon="-1.62319">
        <ele>68</ele>
        <time>2021-10-09T14:57:09.000Z</time>
      </trkpt>
      <trkpt lat="47.16811" lon="-1.62327">
        <ele>69</ele>
        <time>2021-10-09T14:57:11.000Z</time>
      </trkpt>
      <trkpt lat="47.16798" lon="-1.62334">
        <ele>69</ele>
        <time>2021-10-09T14:57:13.000Z</time>
      </trkpt>
      <trkpt lat="47.16785" lon="-1.62341">
        <ele>68</ele>
        <time>2021-10-09T14:57:15.000Z</time>
      </trkpt>
      <trkpt lat="47.16772" lon="-1.62349">
        <ele>68</ele>
        <time>2021-10-09T14:57:17.000Z</time>
      </trkpt>
      <trkpt lat="47.16759" lon="-1.62358">
        <ele>67</ele>
        <time>2021-10-09T14:57:19.000Z</time>
      </trkpt>
      <trkpt lat="47.16747" lon="-1.62371">
        <ele>67</ele>
        <time>2021-10-09T14:57:21.000Z</time>
      </trkpt>
      <trkpt lat="47.16738" lon="-1.62388">
        <ele>66</ele>
        <time>2021-10-09T14:57:23.000Z</time>
      </trkpt>
      <trkpt lat="47.16734" lon="-1.62409">
        <ele>67</ele>
        <time>2021-10-09T14:57:25.000Z</time>
      </trkpt>
      <trkpt lat="47.16731" lon="-1.62428">
        <ele>67</ele>
        <time>2021-10-09T14:57:27.000Z</time>
      </trkpt>
      <trkpt lat="47.16727" lon="-1.62447">
        <ele>67</ele>
        <time>2021-10-09T14:57:29.000Z</time>
      </trkpt>
      <trkpt lat="47.16722" lon="-1.62466">
        <ele>67</ele>
        <time>2021-10-09T14:57:31.000Z</time>
      </trkpt>
      <trkpt lat="47.16718" lon="-1.62484">
        <ele>67</ele>
        <time>2021-10-09T14:57:33.000Z</time>
      </trkpt>
      <trkpt lat="47.16724" lon="-1.625">
        <ele>66</ele>
        <time>2021-10-09T14:57:35.000Z</time>
      </trkpt>
      <trkpt lat="47.16736" lon="-1.62505">
        <ele>65</ele>
        <time>2021-10-09T14:57:37.000Z</time>
      </trkpt>
      <trkpt lat="47.16748" lon="-1.6251">
        <ele>66</ele>
        <time>2021-10-09T14:57:39.000Z</time>
      </trkpt>
      <trkpt lat="47.1676" lon="-1.62517">
        <ele>66</ele>
        <time>2021-10-09T14:57:41.000Z</time>
      </trkpt>
      <trkpt lat="47.16772" lon="-1.62524">
        <ele>66</ele>
        <time>2021-10-09T14:57:43.000Z</time>
      </trkpt>
      <trkpt lat="47.16783" lon="-1.62531">
        <ele>67</ele>
        <time>2021-10-09T14:57:45.000Z</time>
      </trkpt>
      <trkpt lat="47.16795" lon="-1.62539">
        <ele>67</ele>
        <time>2021-10-09T14:57:47.000Z</time>
      </trkpt>
      <trkpt lat="47.16806" lon="-1.62546">
        <ele>66</ele>
        <time>2021-10-09T14:57:49.000Z</time>
      </trkpt>
      <trkpt lat="47.16817" lon="-1.62556">
        <ele>66</ele>
        <time>2021-10-09T14:57:51.000Z</time>
      </trkpt>
      <trkpt lat="47.16827" lon="-1.62568">
        <ele>66</ele>
        <time>2021-10-09T14:57:53.000Z</time>
      </trkpt>
      <trkpt lat="47.16832" lon="-1.62585">
        <ele>65</ele>
        <time>2021-10-09T14:57:55.000Z</time>
      </trkpt>
      <trkpt lat="47.16824" lon="-1.626">
        <ele>66</ele>
        <time>2021-10-09T14:57:57.000Z</time>
      </trkpt>
      <trkpt lat="47.16816" lon="-1.62613">
        <ele>65</ele>
        <time>2021-10-09T14:57:59.000Z</time>
      </trkpt>
      <trkpt lat="47.16808" lon="-1.62626">
        <ele>66</ele>
        <time>2021-10-09T14:58:01.000Z</time>
      </trkpt>
      <trkpt lat="47.168" lon="-1.62639">
        <ele>66</ele>
        <time>2021-10-09T14:58:03.000Z</time>
      </trkpt>
      <trkpt lat="47.16794" lon="-1.62651">
        <ele>66</ele>
        <time>2021-10-09T14:58:05.000Z</time>
      </trkpt>
      <trkpt lat="47.16788" lon="-1.62661">
        <ele>66</ele>
        <time>2021-10-09T14:58:07.000Z</time>
      </trkpt>
      <trkpt lat="47.16779" lon="-1.62657">
        <ele>67</ele>
        <time>2021-10-09T14:58:10.000Z</time>
      </trkpt>
    </trkseg>
  </trk>
</gpx>